<?xml version='1.0' encoding='UTF-8'?><gpx version="1.1" creator="JPX - https://github.com/jenetics/jpx" xmlns="http://www.topografix.com/GPX/1/1"><trk><trkseg><trkpt lat="43.14983662449746" lon="12.171769250899835"><ele>276.0</ele><time>2026-04-19T16:21:18.001Z</time></trkpt><trkpt lat="43.14984109998285" lon="12.171909101008245"><ele>276.0</ele><time>2026-04-19T16:21:20.001Z</time></trkpt><trkpt lat="43.14984515561708" lon="12.172029409110385"><ele>276.0</ele><time>2026-04-19T16:21:22.001Z</time></trkpt><trkpt lat="43.14982406884522" lon="12.172130111664496"><ele>276.0</ele><time>2026-04-19T16:21:25.001Z</time></trkpt><trkpt lat="43.14977540376785" lon="12.171996166179854"><ele>276.0</ele><time>2026-04-19T16:21:29.001Z</time></trkpt><trkpt lat="43.149759639638006" lon="12.17188707202841"><ele>276.0</ele><time>2026-04-19T16:21:30.001Z</time></trkpt><trkpt lat="43.14978152981713" lon="12.171765897919302"><ele>276.0</ele><time>2026-04-19T16:21:31.001Z</time></trkpt><trkpt lat="43.14977622538182" lon="12.17161775466191"><ele>276.0</ele><time>2026-04-19T16:21:32.001Z</time></trkpt><trkpt lat="43.149764613105376" lon="12.171457047657377"><ele>276.0</ele><time>2026-04-19T16:21:33.001Z</time></trkpt><trkpt lat="43.14974724664996" lon="12.17129386411799"><ele>276.0</ele><time>2026-04-19T16:21:34.001Z</time></trkpt><trkpt lat="43.14970652275692" lon="12.171121524969594"><ele>274.75</ele><time>2026-04-19T16:21:35.001Z</time></trkpt><trkpt lat="43.14965449497797" lon="12.170932671766996"><ele>273.5</ele><time>2026-04-19T16:21:36.001Z</time></trkpt><trkpt lat="43.14959739394486" lon="12.170751055113273"><ele>272.25</ele><time>2026-04-19T16:21:37.001Z</time></trkpt><trkpt lat="43.14952997782824" lon="12.170563726281726"><ele>271.0</ele><time>2026-04-19T16:21:38.001Z</time></trkpt><trkpt lat="43.1494353539389" lon="12.170383846300197"><ele>272.66666666666663</ele><time>2026-04-19T16:21:39.001Z</time></trkpt><trkpt lat="43.14931125227263" lon="12.170215249106873"><ele>274.3333333333333</ele><time>2026-04-19T16:21:40.001Z</time></trkpt><trkpt lat="43.149160138460985" lon="12.17006742409511"><ele>276.0</ele><time>2026-04-19T16:21:41.001Z</time></trkpt><trkpt lat="43.149003603900596" lon="12.169944957692111"><ele>274.3333333333333</ele><time>2026-04-19T16:21:42.001Z</time></trkpt><trkpt lat="43.148843841781414" lon="12.169822601239531"><ele>272.66666666666663</ele><time>2026-04-19T16:21:43.001Z</time></trkpt><trkpt lat="43.14868054414949" lon="12.169689000933523"><ele>271.0</ele><time>2026-04-19T16:21:44.001Z</time></trkpt><trkpt lat="43.14851731200139" lon="12.169549627247847"><ele>271.0</ele><time>2026-04-19T16:21:45.001Z</time></trkpt><trkpt lat="43.14836302661335" lon="12.169416112666045"><ele>271.0</ele><time>2026-04-19T16:21:46.001Z</time></trkpt><trkpt lat="43.14822525076576" lon="12.16928987934145"><ele>271.0</ele><time>2026-04-19T16:21:47.001Z</time></trkpt><trkpt lat="43.14810575672468" lon="12.1691688502898"><ele>273.0</ele><time>2026-04-19T16:21:48.001Z</time></trkpt><trkpt lat="43.14799541080515" lon="12.169073910734907"><ele>275.0</ele><time>2026-04-19T16:21:49.001Z</time></trkpt><trkpt lat="43.1478993811881" lon="12.168971529605756"><ele>277.0</ele><time>2026-04-19T16:21:50.001Z</time></trkpt><trkpt lat="43.14781945046874" lon="12.168892590692552"><ele>279.0</ele><time>2026-04-19T16:21:51.001Z</time></trkpt><trkpt lat="43.147743983570436" lon="12.168807254441864"><ele>281.0</ele><time>2026-04-19T16:21:52.001Z</time></trkpt><trkpt lat="43.147676782217985" lon="12.168726622988427"><ele>281.0</ele><time>2026-04-19T16:21:53.001Z</time></trkpt><trkpt lat="43.14760521745542" lon="12.168647813668255"><ele>281.0</ele><time>2026-04-19T16:21:54.001Z</time></trkpt><trkpt lat="43.14751531306752" lon="12.168548083073292"><ele>281.0</ele><time>2026-04-19T16:21:55.001Z</time></trkpt><trkpt lat="43.14741156095932" lon="12.168434317858985"><ele>281.0</ele><time>2026-04-19T16:21:56.001Z</time></trkpt><trkpt lat="43.14730055913091" lon="12.168319409577025"><ele>282.0</ele><time>2026-04-19T16:21:57.001Z</time></trkpt><trkpt lat="43.14718455106285" lon="12.168201358803287"><ele>283.0</ele><time>2026-04-19T16:21:58.001Z</time></trkpt><trkpt lat="43.14707344810355" lon="12.168070101867075"><ele>284.0</ele><time>2026-04-19T16:21:59.001Z</time></trkpt><trkpt lat="43.146957387499405" lon="12.16794216591691"><ele>285.0</ele><time>2026-04-19T16:22:00.001Z</time></trkpt><trkpt lat="43.14685828683466" lon="12.167803096833673"><ele>285.0</ele><time>2026-04-19T16:22:01.001Z</time></trkpt><trkpt lat="43.14675941613304" lon="12.167649806649733"><ele>285.0</ele><time>2026-04-19T16:22:02.001Z</time></trkpt><trkpt lat="43.14666416185776" lon="12.167485931756797"><ele>285.0</ele><time>2026-04-19T16:22:03.001Z</time></trkpt><trkpt lat="43.14656866864764" lon="12.16730968988011"><ele>286.3333333333333</ele><time>2026-04-19T16:22:04.001Z</time></trkpt><trkpt lat="43.14648411923345" lon="12.167122601790803"><ele>287.66666666666663</ele><time>2026-04-19T16:22:05.001Z</time></trkpt><trkpt lat="43.14640153135853" lon="12.166932311544446"><ele>289.0</ele><time>2026-04-19T16:22:06.001Z</time></trkpt><trkpt lat="43.146318116180424" lon="12.166749210693315"><ele>289.0</ele><time>2026-04-19T16:22:07.001Z</time></trkpt><trkpt lat="43.14624529090983" lon="12.166567867974537"><ele>289.0</ele><time>2026-04-19T16:22:08.001Z</time></trkpt><trkpt lat="43.14617547526332" lon="12.166395323888295"><ele>289.0</ele><time>2026-04-19T16:22:09.001Z</time></trkpt><trkpt lat="43.14610217799174" lon="12.166220838426913"><ele>289.0</ele><time>2026-04-19T16:22:10.001Z</time></trkpt><trkpt lat="43.14602516558915" lon="12.166037205889806"><ele>287.75</ele><time>2026-04-19T16:22:11.001Z</time></trkpt><trkpt lat="43.145961246978835" lon="12.165851479224207"><ele>286.5</ele><time>2026-04-19T16:22:12.001Z</time></trkpt><trkpt lat="43.145909328458856" lon="12.165664651183107"><ele>285.25</ele><time>2026-04-19T16:22:13.001Z</time></trkpt><trkpt lat="43.14587621242584" lon="12.165486577727274"><ele>284.0</ele><time>2026-04-19T16:22:14.001Z</time></trkpt><trkpt lat="43.14584928222259" lon="12.165319468340707"><ele>283.59999999999997</ele><time>2026-04-19T16:22:15.001Z</time></trkpt><trkpt lat="43.14582283050066" lon="12.165156167665284"><ele>283.2</ele><time>2026-04-19T16:22:16.001Z</time></trkpt><trkpt lat="43.145792398697864" lon="12.16500932010956"><ele>282.79999999999995</ele><time>2026-04-19T16:22:17.001Z</time></trkpt><trkpt lat="43.145755350342675" lon="12.164869156314131"><ele>282.4</ele><time>2026-04-19T16:22:18.001Z</time></trkpt><trkpt lat="43.14571437497336" lon="12.164738664445672"><ele>282.0</ele><time>2026-04-19T16:22:19.001Z</time></trkpt><trkpt lat="43.14565665141992" lon="12.164612133170117"><ele>283.0</ele><time>2026-04-19T16:22:20.001Z</time></trkpt><trkpt lat="43.14559806359354" lon="12.164508328909513"><ele>284.0</ele><time>2026-04-19T16:22:21.001Z</time></trkpt><trkpt lat="43.145538249324105" lon="12.164403268777448"><ele>285.0</ele><time>2026-04-19T16:22:22.001Z</time></trkpt><trkpt lat="43.145484915136045" lon="12.164298146883842"><ele>286.0</ele><time>2026-04-19T16:22:23.001Z</time></trkpt><trkpt lat="43.145428054087276" lon="12.164182491218476"><ele>287.0</ele><time>2026-04-19T16:22:24.001Z</time></trkpt><trkpt lat="43.14537722885619" lon="12.164084041912956"><ele>287.33333333333337</ele><time>2026-04-19T16:22:25.001Z</time></trkpt><trkpt lat="43.14532079804634" lon="12.16398706715009"><ele>287.6666666666667</ele><time>2026-04-19T16:22:26.001Z</time></trkpt><trkpt lat="43.14525632639774" lon="12.163897501914152"><ele>288.0</ele><time>2026-04-19T16:22:27.001Z</time></trkpt><trkpt lat="43.145193032921924" lon="12.163829220249008"><ele>288.3333333333333</ele><time>2026-04-19T16:22:28.001Z</time></trkpt><trkpt lat="43.145125004426625" lon="12.163781858733925"><ele>288.66666666666663</ele><time>2026-04-19T16:22:29.001Z</time></trkpt><trkpt lat="43.14504675470734" lon="12.163751569898471"><ele>289.0</ele><time>2026-04-19T16:22:30.001Z</time></trkpt><trkpt lat="43.14496006263513" lon="12.163740175697813"><ele>286.5</ele><time>2026-04-19T16:22:31.001Z</time></trkpt><trkpt lat="43.14486115767701" lon="12.163748531169778"><ele>284.0</ele><time>2026-04-19T16:22:32.001Z</time></trkpt><trkpt lat="43.1447505927469" lon="12.163795001933378"><ele>281.5</ele><time>2026-04-19T16:22:33.001Z</time></trkpt><trkpt lat="43.14463049351794" lon="12.163899239312224"><ele>279.0</ele><time>2026-04-19T16:22:34.002Z</time></trkpt><trkpt lat="43.14447922207779" lon="12.164032377708722"><ele>279.0</ele><time>2026-04-19T16:22:35.002Z</time></trkpt><trkpt lat="43.14430251646252" lon="12.164148068637008"><ele>279.0</ele><time>2026-04-19T16:22:36.002Z</time></trkpt><trkpt lat="43.14412861583702" lon="12.164257421147566"><ele>279.0</ele><time>2026-04-19T16:22:37Z</time></trkpt><trkpt lat="43.143938360009784" lon="12.164347838772828"><ele>276.3333333333333</ele><time>2026-04-19T16:22:38Z</time></trkpt><trkpt lat="43.14375628491469" lon="12.164448902294556"><ele>273.66666666666663</ele><time>2026-04-19T16:22:39Z</time></trkpt><trkpt lat="43.143583397473286" lon="12.164512912001898"><ele>271.0</ele><time>2026-04-19T16:22:40Z</time></trkpt><trkpt lat="43.143427143432945" lon="12.164580097335566"><ele>271.0</ele><time>2026-04-19T16:22:41Z</time></trkpt><trkpt lat="43.14329083994466" lon="12.164640431240223"><ele>271.0</ele><time>2026-04-19T16:22:42Z</time></trkpt><trkpt lat="43.14316366956862" lon="12.164697693750732"><ele>271.0</ele><time>2026-04-19T16:22:43Z</time></trkpt><trkpt lat="43.14304257099312" lon="12.164751654304572"><ele>271.0</ele><time>2026-04-19T16:22:44Z</time></trkpt><trkpt lat="43.14292170892115" lon="12.164811715159672"><ele>270.25</ele><time>2026-04-19T16:22:45Z</time></trkpt><trkpt lat="43.142799993119944" lon="12.164875576782087"><ele>269.5</ele><time>2026-04-19T16:22:46Z</time></trkpt><trkpt lat="43.14269132044389" lon="12.164956203179"><ele>268.75</ele><time>2026-04-19T16:22:47Z</time></trkpt><trkpt lat="43.142589207577046" lon="12.165056052865836"><ele>268.0</ele><time>2026-04-19T16:22:48Z</time></trkpt><trkpt lat="43.142497117038076" lon="12.165171273377455"><ele>268.0</ele><time>2026-04-19T16:22:49Z</time></trkpt><trkpt lat="43.14239871492623" lon="12.165300568031853"><ele>268.0</ele><time>2026-04-19T16:22:50Z</time></trkpt><trkpt lat="43.142321161105215" lon="12.165423420482899"><ele>268.0</ele><time>2026-04-19T16:22:51Z</time></trkpt><trkpt lat="43.14222525516283" lon="12.165537028914631"><ele>268.0</ele><time>2026-04-19T16:22:52Z</time></trkpt><trkpt lat="43.14209890865645" lon="12.16559510139921"><ele>266.75</ele><time>2026-04-19T16:22:53Z</time></trkpt><trkpt lat="43.14198243558832" lon="12.165639137409908"><ele>265.5</ele><time>2026-04-19T16:22:54Z</time></trkpt><trkpt lat="43.141855674135925" lon="12.165649765863343"><ele>264.25</ele><time>2026-04-19T16:22:55Z</time></trkpt><trkpt lat="43.14171826180201" lon="12.16562510051319"><ele>263.0</ele><time>2026-04-19T16:22:56Z</time></trkpt><trkpt lat="43.14159360781651" lon="12.165587878984173"><ele>262.0</ele><time>2026-04-19T16:22:57Z</time></trkpt><trkpt lat="43.14146389948462" lon="12.165517670031461"><ele>261.0</ele><time>2026-04-19T16:22:58Z</time></trkpt><trkpt lat="43.14134228013357" lon="12.165441233905913"><ele>260.0</ele><time>2026-04-19T16:22:59Z</time></trkpt><trkpt lat="43.14122233211085" lon="12.165373522182247"><ele>259.0</ele><time>2026-04-19T16:23:00Z</time></trkpt><trkpt lat="43.14110856250375" lon="12.1653104046981"><ele>259.0</ele><time>2026-04-19T16:23:01Z</time></trkpt><trkpt lat="43.1409946709941" lon="12.165247274597531"><ele>259.0</ele><time>2026-04-19T16:23:02Z</time></trkpt><trkpt lat="43.14087594874806" lon="12.165184424818644"><ele>259.0</ele><time>2026-04-19T16:23:03Z</time></trkpt><trkpt lat="43.140748017885045" lon="12.165123587966447"><ele>259.0</ele><time>2026-04-19T16:23:04Z</time></trkpt><trkpt lat="43.14060567315589" lon="12.165031905105344"><ele>259.0</ele><time>2026-04-19T16:23:05Z</time></trkpt><trkpt lat="43.140465193226845" lon="12.16496692167862"><ele>259.0</ele><time>2026-04-19T16:23:06Z</time></trkpt><trkpt lat="43.14027997785936" lon="12.16493442602068"><ele>259.0</ele><time>2026-04-19T16:23:07Z</time></trkpt><trkpt lat="43.14008805275233" lon="12.164903542857713"><ele>259.0</ele><time>2026-04-19T16:23:08Z</time></trkpt><trkpt lat="43.139895158358414" lon="12.16492442039626"><ele>259.0</ele><time>2026-04-19T16:23:09Z</time></trkpt><trkpt lat="43.139715564546655" lon="12.164986895604656"><ele>259.0</ele><time>2026-04-19T16:23:10Z</time></trkpt><trkpt lat="43.13952501204935" lon="12.165084847248043"><ele>259.0</ele><time>2026-04-19T16:23:11.001Z</time></trkpt><trkpt lat="43.13932757428124" lon="12.165216445179148"><ele>259.0</ele><time>2026-04-19T16:23:12.001Z</time></trkpt><trkpt lat="43.13912590905634" lon="12.165361413516502"><ele>259.0</ele><time>2026-04-19T16:23:13.001Z</time></trkpt><trkpt lat="43.13891874495148" lon="12.165466167978359"><ele>259.0</ele><time>2026-04-19T16:23:14.001Z</time></trkpt><trkpt lat="43.13873232608975" lon="12.16560169532923"><ele>259.0</ele><time>2026-04-19T16:23:15.001Z</time></trkpt><trkpt lat="43.138548182545804" lon="12.165700758934479"><ele>259.0</ele><time>2026-04-19T16:23:16.001Z</time></trkpt><trkpt lat="43.138375953161166" lon="12.165802208727001"><ele>259.0</ele><time>2026-04-19T16:23:17.001Z</time></trkpt><trkpt lat="43.13821438614192" lon="12.165905037741936"><ele>259.0</ele><time>2026-04-19T16:23:18.001Z</time></trkpt><trkpt lat="43.13806220476928" lon="12.16599895683291"><ele>259.0</ele><time>2026-04-19T16:23:19.001Z</time></trkpt><trkpt lat="43.137918285853566" lon="12.166081425687278"><ele>259.0</ele><time>2026-04-19T16:23:20.001Z</time></trkpt><trkpt lat="43.13778073111318" lon="12.16615174831834"><ele>259.0</ele><time>2026-04-19T16:23:21.001Z</time></trkpt><trkpt lat="43.1376411524671" lon="12.166199048352258"><ele>259.0</ele><time>2026-04-19T16:23:22.001Z</time></trkpt><trkpt lat="43.13750250818305" lon="12.166212615104824"><ele>259.0</ele><time>2026-04-19T16:23:23.001Z</time></trkpt><trkpt lat="43.13738044174891" lon="12.166219481034297"><ele>258.5</ele><time>2026-04-19T16:23:24.001Z</time></trkpt><trkpt lat="43.137259277079444" lon="12.166205322736767"><ele>258.0</ele><time>2026-04-19T16:23:25.001Z</time></trkpt><trkpt lat="43.137145926972096" lon="12.166183378519362"><ele>257.5</ele><time>2026-04-19T16:23:26.001Z</time></trkpt><trkpt lat="43.13703490341956" lon="12.166158754885533"><ele>257.0</ele><time>2026-04-19T16:23:27.001Z</time></trkpt><trkpt lat="43.13692855785085" lon="12.166134739936092"><ele>257.0</ele><time>2026-04-19T16:23:28.001Z</time></trkpt><trkpt lat="43.13681209521502" lon="12.166114542261589"><ele>257.0</ele><time>2026-04-19T16:23:29.001Z</time></trkpt><trkpt lat="43.13668869900075" lon="12.166094501177563"><ele>257.0</ele><time>2026-04-19T16:23:30.001Z</time></trkpt><trkpt lat="43.13655953932066" lon="12.166071435487249"><ele>257.0</ele><time>2026-04-19T16:23:31.001Z</time></trkpt><trkpt lat="43.13643467267362" lon="12.166044755018746"><ele>257.5</ele><time>2026-04-19T16:23:32.001Z</time></trkpt><trkpt lat="43.13631459282079" lon="12.166020469493157"><ele>258.0</ele><time>2026-04-19T16:23:33.001Z</time></trkpt><trkpt lat="43.136200244715226" lon="12.165998415292604"><ele>258.5</ele><time>2026-04-19T16:23:34.001Z</time></trkpt><trkpt lat="43.13608809547523" lon="12.165980715100057"><ele>259.0</ele><time>2026-04-19T16:23:35.001Z</time></trkpt><trkpt lat="43.13597969208768" lon="12.165965866750854"><ele>259.0</ele><time>2026-04-19T16:23:36.001Z</time></trkpt><trkpt lat="43.13587268856922" lon="12.165964376001098"><ele>259.0</ele><time>2026-04-19T16:23:37.001Z</time></trkpt><trkpt lat="43.135768301819844" lon="12.165978416337952"><ele>259.0</ele><time>2026-04-19T16:23:38.001Z</time></trkpt><trkpt lat="43.135664020385356" lon="12.16598055519877"><ele>259.0</ele><time>2026-04-19T16:23:39.001Z</time></trkpt><trkpt lat="43.135566277179244" lon="12.165989153741116"><ele>259.0</ele><time>2026-04-19T16:23:40.001Z</time></trkpt><trkpt lat="43.13547930858498" lon="12.165995888004577"><ele>258.8333333333333</ele><time>2026-04-19T16:23:41.001Z</time></trkpt><trkpt lat="43.135403663624935" lon="12.166004411371988"><ele>258.66666666666663</ele><time>2026-04-19T16:23:42.001Z</time></trkpt><trkpt lat="43.135327173938116" lon="12.166009615291587"><ele>258.5</ele><time>2026-04-19T16:23:43.001Z</time></trkpt><trkpt lat="43.135247176174396" lon="12.166017731885159"><ele>258.3333333333333</ele><time>2026-04-19T16:23:44.001Z</time></trkpt><trkpt lat="43.13516441852412" lon="12.166020417740658"><ele>258.1666666666667</ele><time>2026-04-19T16:23:45.001Z</time></trkpt><trkpt lat="43.13507178570772" lon="12.166026355744295"><ele>258.0</ele><time>2026-04-19T16:23:46.001Z</time></trkpt><trkpt lat="43.134984780574" lon="12.166030702187685"><ele>258.0</ele><time>2026-04-19T16:23:47.001Z</time></trkpt><trkpt lat="43.13489059064402" lon="12.166035647922628"><ele>258.0</ele><time>2026-04-19T16:23:48.001Z</time></trkpt><trkpt lat="43.13479984860106" lon="12.166043624115353"><ele>258.0</ele><time>2026-04-19T16:23:49.001Z</time></trkpt><trkpt lat="43.134710219077924" lon="12.166050350512824"><ele>258.0</ele><time>2026-04-19T16:23:50.001Z</time></trkpt><trkpt lat="43.13462736653407" lon="12.166056871229882"><ele>258.0</ele><time>2026-04-19T16:23:51.001Z</time></trkpt><trkpt lat="43.13454153804989" lon="12.166062809873482"><ele>258.0</ele><time>2026-04-19T16:23:52.001Z</time></trkpt><trkpt lat="43.13445902812984" lon="12.166069320501919"><ele>258.0</ele><time>2026-04-19T16:23:53.001Z</time></trkpt><trkpt lat="43.13438888800389" lon="12.166069291155004"><ele>258.0</ele><time>2026-04-19T16:23:54.001Z</time></trkpt><trkpt lat="43.13431823568771" lon="12.166072775547415"><ele>258.0</ele><time>2026-04-19T16:23:55.001Z</time></trkpt><trkpt lat="43.13420128990535" lon="12.166072398465397"><ele>258.0</ele><time>2026-04-19T16:23:57.001Z</time></trkpt><trkpt lat="43.13412687132642" lon="12.166080087551201"><ele>258.0</ele><time>2026-04-19T16:23:58.001Z</time></trkpt><trkpt lat="43.13405346849382" lon="12.166089350494385"><ele>258.0</ele><time>2026-04-19T16:23:59.001Z</time></trkpt><trkpt lat="43.133971678556044" lon="12.166096735073099"><ele>258.2</ele><time>2026-04-19T16:24:00.001Z</time></trkpt><trkpt lat="43.13388729617612" lon="12.166104027898175"><ele>258.4</ele><time>2026-04-19T16:24:01.001Z</time></trkpt><trkpt lat="43.13380304171153" lon="12.166105201193103"><ele>258.59999999999997</ele><time>2026-04-19T16:24:02.001Z</time></trkpt><trkpt lat="43.13370920563612" lon="12.16611098074545"><ele>258.8</ele><time>2026-04-19T16:24:03.001Z</time></trkpt><trkpt lat="43.1336121530811" lon="12.166119633732668"><ele>259.0</ele><time>2026-04-19T16:24:04.001Z</time></trkpt><trkpt lat="43.1335122317042" lon="12.166124272249471"><ele>259.0</ele><time>2026-04-19T16:24:05.001Z</time></trkpt><trkpt lat="43.1334108035531" lon="12.166134032022962"><ele>259.0</ele><time>2026-04-19T16:24:06.001Z</time></trkpt><trkpt lat="43.13330535149304" lon="12.16615228365631"><ele>259.0</ele><time>2026-04-19T16:24:07.001Z</time></trkpt><trkpt lat="43.13320203570677" lon="12.166173959347216"><ele>259.0</ele><time>2026-04-19T16:24:08.001Z</time></trkpt><trkpt lat="43.13310052913981" lon="12.166208838546206"><ele>259.0</ele><time>2026-04-19T16:24:09.001Z</time></trkpt><trkpt lat="43.132999585832415" lon="12.166266907326438"><ele>258.75</ele><time>2026-04-19T16:24:10.001Z</time></trkpt><trkpt lat="43.13288711438741" lon="12.166308410462193"><ele>258.5</ele><time>2026-04-19T16:24:11.001Z</time></trkpt><trkpt lat="43.13277785413541" lon="12.166374321181321"><ele>258.25</ele><time>2026-04-19T16:24:12.001Z</time></trkpt><trkpt lat="43.13266288097446" lon="12.16644588154995"><ele>258.0</ele><time>2026-04-19T16:24:13.001Z</time></trkpt><trkpt lat="43.132544002913264" lon="12.166519866281561"><ele>258.25</ele><time>2026-04-19T16:24:14.001Z</time></trkpt><trkpt lat="43.13241331768524" lon="12.16660117437081"><ele>258.5</ele><time>2026-04-19T16:24:15.001Z</time></trkpt><trkpt lat="43.132288903875505" lon="12.16667982381754"><ele>258.75</ele><time>2026-04-19T16:24:16.001Z</time></trkpt><trkpt lat="43.13214723788293" lon="12.166769504404742"><ele>259.0</ele><time>2026-04-19T16:24:17.001Z</time></trkpt><trkpt lat="43.13199519792208" lon="12.166865246986195"><ele>258.75</ele><time>2026-04-19T16:24:18.001Z</time></trkpt><trkpt lat="43.131836771434195" lon="12.166964001663468"><ele>258.5</ele><time>2026-04-19T16:24:19.001Z</time></trkpt><trkpt lat="43.13170437152233" lon="12.167062032076641"><ele>258.25</ele><time>2026-04-19T16:24:20.001Z</time></trkpt><trkpt lat="43.131594522845305" lon="12.167118049109657"><ele>258.0</ele><time>2026-04-19T16:24:21.001Z</time></trkpt><trkpt lat="43.131496536105914" lon="12.167186465306466"><ele>258.0</ele><time>2026-04-19T16:24:22.001Z</time></trkpt><trkpt lat="43.13140843604496" lon="12.167239592794072"><ele>258.0</ele><time>2026-04-19T16:24:23.001Z</time></trkpt><trkpt lat="43.131325067027554" lon="12.167292465725911"><ele>258.0</ele><time>2026-04-19T16:24:24.001Z</time></trkpt><trkpt lat="43.13124100747923" lon="12.167344614178514"><ele>258.0</ele><time>2026-04-19T16:24:25.001Z</time></trkpt><trkpt lat="43.13115879876085" lon="12.167389507413084"><ele>258.0</ele><time>2026-04-19T16:24:26.001Z</time></trkpt><trkpt lat="43.131070039342355" lon="12.167437844267798"><ele>258.0</ele><time>2026-04-19T16:24:27.001Z</time></trkpt><trkpt lat="43.13097705851328" lon="12.167483848351724"><ele>258.0</ele><time>2026-04-19T16:24:28.001Z</time></trkpt><trkpt lat="43.13088594946311" lon="12.16752407144683"><ele>258.0</ele><time>2026-04-19T16:24:29.001Z</time></trkpt><trkpt lat="43.130793129119795" lon="12.167556477971218"><ele>258.0</ele><time>2026-04-19T16:24:30.001Z</time></trkpt><trkpt lat="43.1306973188248" lon="12.167584552821683"><ele>258.0</ele><time>2026-04-19T16:24:31.001Z</time></trkpt><trkpt lat="43.13060009761757" lon="12.167599958451289"><ele>258.6</ele><time>2026-04-19T16:24:32.001Z</time></trkpt><trkpt lat="43.1305058614228" lon="12.1676132000399"><ele>259.20000000000005</ele><time>2026-04-19T16:24:33.001Z</time></trkpt><trkpt lat="43.1304131558451" lon="12.167625493215713"><ele>259.8</ele><time>2026-04-19T16:24:34.001Z</time></trkpt><trkpt lat="43.13031699218274" lon="12.167639175402435"><ele>260.40000000000003</ele><time>2026-04-19T16:24:35.001Z</time></trkpt><trkpt lat="43.130226385884875" lon="12.16765491428315"><ele>261.0</ele><time>2026-04-19T16:24:36.001Z</time></trkpt><trkpt lat="43.130139087202906" lon="12.167667371807307"><ele>261.0</ele><time>2026-04-19T16:24:37.001Z</time></trkpt><trkpt lat="43.13004941094252" lon="12.16768213906797"><ele>261.0</ele><time>2026-04-19T16:24:38.001Z</time></trkpt><trkpt lat="43.12995900904665" lon="12.16769575499944"><ele>261.0</ele><time>2026-04-19T16:24:39.001Z</time></trkpt><trkpt lat="43.12987041754122" lon="12.167708875738253"><ele>261.0</ele><time>2026-04-19T16:24:40.001Z</time></trkpt><trkpt lat="43.129787723729926" lon="12.167719022566533"><ele>261.0</ele><time>2026-04-19T16:24:41.001Z</time></trkpt><trkpt lat="43.12971171649951" lon="12.167728790258755"><ele>261.0</ele><time>2026-04-19T16:24:42.001Z</time></trkpt><trkpt lat="43.1296318459061" lon="12.167738049206303"><ele>261.0</ele><time>2026-04-19T16:24:43Z</time></trkpt><trkpt lat="43.12955430150332" lon="12.167745584401382"><ele>261.0</ele><time>2026-04-19T16:24:44Z</time></trkpt><trkpt lat="43.129480252034604" lon="12.167753981382802"><ele>261.0</ele><time>2026-04-19T16:24:45Z</time></trkpt><trkpt lat="43.12941265898664" lon="12.16775866956578"><ele>261.0</ele><time>2026-04-19T16:24:46Z</time></trkpt><trkpt lat="43.1293430816592" lon="12.167763392580964"><ele>261.0</ele><time>2026-04-19T16:24:47Z</time></trkpt><trkpt lat="43.12925522058" lon="12.167770983067035"><ele>261.0</ele><time>2026-04-19T16:24:48Z</time></trkpt><trkpt lat="43.12915954625619" lon="12.167785138189847"><ele>261.0</ele><time>2026-04-19T16:24:49Z</time></trkpt><trkpt lat="43.12905246795659" lon="12.167810591048285"><ele>261.0</ele><time>2026-04-19T16:24:50Z</time></trkpt><trkpt lat="43.12895240945948" lon="12.16779480288282"><ele>261.0</ele><time>2026-04-19T16:24:51Z</time></trkpt><trkpt lat="43.12881799936083" lon="12.167791084335512"><ele>261.0</ele><time>2026-04-19T16:24:52Z</time></trkpt><trkpt lat="43.128685593833964" lon="12.167774964019287"><ele>261.0</ele><time>2026-04-19T16:24:53Z</time></trkpt><trkpt lat="43.12854327544186" lon="12.1677644967959"><ele>261.0</ele><time>2026-04-19T16:24:54Z</time></trkpt><trkpt lat="43.12839465224956" lon="12.167761841480086"><ele>261.0</ele><time>2026-04-19T16:24:55Z</time></trkpt><trkpt lat="43.12824147388076" lon="12.167757919818888"><ele>261.0</ele><time>2026-04-19T16:24:56Z</time></trkpt><trkpt lat="43.12809461203369" lon="12.167756861364388"><ele>260.0</ele><time>2026-04-19T16:24:57Z</time></trkpt><trkpt lat="43.127934434506734" lon="12.16776273792252"><ele>259.0</ele><time>2026-04-19T16:24:58Z</time></trkpt><trkpt lat="43.12777198554845" lon="12.167765993092155"><ele>258.0</ele><time>2026-04-19T16:24:59Z</time></trkpt><trkpt lat="43.127614387888826" lon="12.167760487361907"><ele>258.0</ele><time>2026-04-19T16:25:00Z</time></trkpt><trkpt lat="43.12746335613392" lon="12.167750431189093"><ele>258.0</ele><time>2026-04-19T16:25:01Z</time></trkpt><trkpt lat="43.127312532146725" lon="12.167735621337547"><ele>258.0</ele><time>2026-04-19T16:25:02Z</time></trkpt><trkpt lat="43.12717086854923" lon="12.167711894849955"><ele>258.0</ele><time>2026-04-19T16:25:03Z</time></trkpt><trkpt lat="43.12703877415717" lon="12.16767952410764"><ele>258.5</ele><time>2026-04-19T16:25:04Z</time></trkpt><trkpt lat="43.12691159603192" lon="12.16764634929931"><ele>259.0</ele><time>2026-04-19T16:25:05Z</time></trkpt><trkpt lat="43.12679422687153" lon="12.167615795694692"><ele>259.5</ele><time>2026-04-19T16:25:06Z</time></trkpt><trkpt lat="43.12668334891858" lon="12.167590843589974"><ele>260.0</ele><time>2026-04-19T16:25:07Z</time></trkpt><trkpt lat="43.12657441505955" lon="12.167566422632031"><ele>260.75</ele><time>2026-04-19T16:25:08Z</time></trkpt><trkpt lat="43.12646193371152" lon="12.167544458864903"><ele>261.5</ele><time>2026-04-19T16:25:09Z</time></trkpt><trkpt lat="43.126346658425526" lon="12.16751651218935"><ele>262.25</ele><time>2026-04-19T16:25:10Z</time></trkpt><trkpt lat="43.12623165099188" lon="12.167493313963758"><ele>263.0</ele><time>2026-04-19T16:25:11Z</time></trkpt><trkpt lat="43.12609493157267" lon="12.167471425752563"><ele>263.0</ele><time>2026-04-19T16:25:12Z</time></trkpt><trkpt lat="43.12593497347635" lon="12.167439001127393"><ele>263.0</ele><time>2026-04-19T16:25:13Z</time></trkpt><trkpt lat="43.12576438901424" lon="12.167390084611247"><ele>263.0</ele><time>2026-04-19T16:25:14Z</time></trkpt><trkpt lat="43.12559742772133" lon="12.16734820430553"><ele>261.6666666666667</ele><time>2026-04-19T16:25:15Z</time></trkpt><trkpt lat="43.12542458806386" lon="12.167298856143612"><ele>260.3333333333333</ele><time>2026-04-19T16:25:16Z</time></trkpt><trkpt lat="43.12525045480414" lon="12.16724651179198"><ele>259.0</ele><time>2026-04-19T16:25:17Z</time></trkpt><trkpt lat="43.12506604402617" lon="12.16721046797699"><ele>260.0</ele><time>2026-04-19T16:25:18Z</time></trkpt><trkpt lat="43.12487956240983" lon="12.167167032995744"><ele>261.0</ele><time>2026-04-19T16:25:19Z</time></trkpt><trkpt lat="43.12469189710852" lon="12.167124750392633"><ele>262.0</ele><time>2026-04-19T16:25:20Z</time></trkpt><trkpt lat="43.12450702588074" lon="12.167082951468375"><ele>262.0</ele><time>2026-04-19T16:25:21Z</time></trkpt><trkpt lat="43.12431867118716" lon="12.167038592492096"><ele>262.0</ele><time>2026-04-19T16:25:22Z</time></trkpt><trkpt lat="43.12413221719177" lon="12.16699647587007"><ele>262.0</ele><time>2026-04-19T16:25:23Z</time></trkpt><trkpt lat="43.12394969380607" lon="12.166952487560554"><ele>263.3333333333333</ele><time>2026-04-19T16:25:24.001Z</time></trkpt><trkpt lat="43.123770017942846" lon="12.166908426397999"><ele>264.6666666666667</ele><time>2026-04-19T16:25:25.001Z</time></trkpt><trkpt lat="43.12358540300663" lon="12.166858416056721"><ele>266.0</ele><time>2026-04-19T16:25:26.001Z</time></trkpt><trkpt lat="43.12340228372415" lon="12.166799690708558"><ele>268.33333333333337</ele><time>2026-04-19T16:25:27.001Z</time></trkpt><trkpt lat="43.12322122151441" lon="12.166727966445578"><ele>270.6666666666667</ele><time>2026-04-19T16:25:28.001Z</time></trkpt><trkpt lat="43.123040107487306" lon="12.16665801534002"><ele>273.0</ele><time>2026-04-19T16:25:29.001Z</time></trkpt><trkpt lat="43.12288786168935" lon="12.166579925809502"><ele>269.3333333333333</ele><time>2026-04-19T16:25:30.001Z</time></trkpt><trkpt lat="43.12273341431103" lon="12.16652022815339"><ele>265.66666666666663</ele><time>2026-04-19T16:25:31.001Z</time></trkpt><trkpt lat="43.12258946972583" lon="12.166457757995708"><ele>262.0</ele><time>2026-04-19T16:25:32.001Z</time></trkpt><trkpt lat="43.1224345198687" lon="12.166398279638443"><ele>261.3333333333333</ele><time>2026-04-19T16:25:33.001Z</time></trkpt><trkpt lat="43.12228778593158" lon="12.166332947725742"><ele>260.6666666666667</ele><time>2026-04-19T16:25:34.001Z</time></trkpt><trkpt lat="43.12213927012729" lon="12.166258631383833"><ele>260.0</ele><time>2026-04-19T16:25:35.001Z</time></trkpt><trkpt lat="43.12198758724667" lon="12.166218061851996"><ele>260.0</ele><time>2026-04-19T16:25:36.001Z</time></trkpt><trkpt lat="43.12183710268657" lon="12.166176244928709"><ele>260.0</ele><time>2026-04-19T16:25:37.001Z</time></trkpt><trkpt lat="43.121698563430854" lon="12.166121567894068"><ele>260.0</ele><time>2026-04-19T16:25:38.001Z</time></trkpt><trkpt lat="43.12157638183795" lon="12.16608283895633"><ele>260.0</ele><time>2026-04-19T16:25:39.001Z</time></trkpt><trkpt lat="43.121438371204064" lon="12.166055657814999"><ele>260.0</ele><time>2026-04-19T16:25:40.001Z</time></trkpt><trkpt lat="43.1213053934435" lon="12.166040735181548"><ele>260.0</ele><time>2026-04-19T16:25:41.001Z</time></trkpt><trkpt lat="43.12118172546192" lon="12.166023101212128"><ele>260.0</ele><time>2026-04-19T16:25:42.001Z</time></trkpt><trkpt lat="43.12106230857231" lon="12.166027292208137"><ele>260.0</ele><time>2026-04-19T16:25:43.001Z</time></trkpt><trkpt lat="43.12095340481724" lon="12.166022493879494"><ele>260.0</ele><time>2026-04-19T16:25:44.001Z</time></trkpt><trkpt lat="43.12086069997126" lon="12.166029168991805"><ele>260.0</ele><time>2026-04-19T16:25:45.001Z</time></trkpt><trkpt lat="43.12079241115926" lon="12.166038201101225"><ele>260.0</ele><time>2026-04-19T16:25:46.001Z</time></trkpt><trkpt lat="43.120687006150796" lon="12.166054533302384"><ele>260.0</ele><time>2026-04-19T16:25:48.001Z</time></trkpt><trkpt lat="43.120594971374615" lon="12.166073061301756"><ele>260.0</ele><time>2026-04-19T16:25:50.001Z</time></trkpt><trkpt lat="43.12053140072702" lon="12.166078225295175"><ele>260.0</ele><time>2026-04-19T16:25:51.001Z</time></trkpt><trkpt lat="43.12044237446896" lon="12.166089932792806"><ele>260.0</ele><time>2026-04-19T16:25:52.001Z</time></trkpt><trkpt lat="43.12033678419572" lon="12.166109158417047"><ele>260.0</ele><time>2026-04-19T16:25:53.001Z</time></trkpt><trkpt lat="43.12018840792568" lon="12.166125073378748"><ele>260.0</ele><time>2026-04-19T16:25:54.001Z</time></trkpt><trkpt lat="43.120030967427354" lon="12.166108707205067"><ele>260.0</ele><time>2026-04-19T16:25:55.001Z</time></trkpt><trkpt lat="43.11985435752926" lon="12.166087274508326"><ele>260.33333333333337</ele><time>2026-04-19T16:25:56.001Z</time></trkpt><trkpt lat="43.11967434377837" lon="12.166081034683002"><ele>260.6666666666667</ele><time>2026-04-19T16:25:57.001Z</time></trkpt><trkpt lat="43.11950152783418" lon="12.166074943460021"><ele>261.0</ele><time>2026-04-19T16:25:58.001Z</time></trkpt><trkpt lat="43.11934889414911" lon="12.166073075898979"><ele>261.0</ele><time>2026-04-19T16:25:59.001Z</time></trkpt><trkpt lat="43.11921105560163" lon="12.16607424975998"><ele>261.0</ele><time>2026-04-19T16:26:00.001Z</time></trkpt><trkpt lat="43.11907795417664" lon="12.166069139792356"><ele>261.0</ele><time>2026-04-19T16:26:01.001Z</time></trkpt><trkpt lat="43.11895784222557" lon="12.166066789040725"><ele>261.0</ele><time>2026-04-19T16:26:02.001Z</time></trkpt><trkpt lat="43.11885069037508" lon="12.166073704065907"><ele>260.6</ele><time>2026-04-19T16:26:03.001Z</time></trkpt><trkpt lat="43.11874988889685" lon="12.16609119911065"><ele>260.20000000000005</ele><time>2026-04-19T16:26:04.001Z</time></trkpt><trkpt lat="43.118658941997666" lon="12.166119158968392"><ele>259.79999999999995</ele><time>2026-04-19T16:26:05.001Z</time></trkpt><trkpt lat="43.11857177610064" lon="12.166162946911715"><ele>259.4</ele><time>2026-04-19T16:26:06.001Z</time></trkpt><trkpt lat="43.11849750424954" lon="12.166225894777755"><ele>259.0</ele><time>2026-04-19T16:26:07.001Z</time></trkpt><trkpt lat="43.11840678346209" lon="12.166265211087953"><ele>259.0</ele><time>2026-04-19T16:26:08.001Z</time></trkpt><trkpt lat="43.11833104683402" lon="12.16631362312474"><ele>259.0</ele><time>2026-04-19T16:26:09.001Z</time></trkpt><trkpt lat="43.118252627718675" lon="12.166363684737624"><ele>259.0</ele><time>2026-04-19T16:26:10.001Z</time></trkpt><trkpt lat="43.11817880754277" lon="12.166409100103367"><ele>259.0</ele><time>2026-04-19T16:26:11.001Z</time></trkpt><trkpt lat="43.118117492569965" lon="12.166466135291394"><ele>259.0</ele><time>2026-04-19T16:26:12.001Z</time></trkpt><trkpt lat="43.118014050883296" lon="12.166518578442798"><ele>259.0</ele><time>2026-04-19T16:26:14.001Z</time></trkpt><trkpt lat="43.1179303473661" lon="12.166564655349887"><ele>259.0</ele><time>2026-04-19T16:26:16.001Z</time></trkpt><trkpt lat="43.11784806902323" lon="12.166670643233152"><ele>259.0</ele><time>2026-04-19T16:26:18.001Z</time></trkpt><trkpt lat="43.11782223442414" lon="12.16675142253247"><ele>259.0</ele><time>2026-04-19T16:26:19.001Z</time></trkpt><trkpt lat="43.11776305885014" lon="12.16686107361402"><ele>259.0</ele><time>2026-04-19T16:26:21.001Z</time></trkpt><trkpt lat="43.11769111195514" lon="12.166996554178136"><ele>259.0</ele><time>2026-04-19T16:26:23.001Z</time></trkpt><trkpt lat="43.11762520711064" lon="12.16712148139268"><ele>259.0</ele><time>2026-04-19T16:26:25.001Z</time></trkpt><trkpt lat="43.11755097869267" lon="12.16725032264159"><ele>259.0</ele><time>2026-04-19T16:26:27.001Z</time></trkpt><trkpt lat="43.117461624253785" lon="12.167373193729045"><ele>259.0</ele><time>2026-04-19T16:26:29.001Z</time></trkpt><trkpt lat="43.11741971144859" lon="12.167450163641533"><ele>259.0</ele><time>2026-04-19T16:26:30.001Z</time></trkpt><trkpt lat="43.117361563166185" lon="12.167542492566339"><ele>259.0</ele><time>2026-04-19T16:26:31.001Z</time></trkpt><trkpt lat="43.11728059510346" lon="12.167661036419785"><ele>258.59999999999997</ele><time>2026-04-19T16:26:32.001Z</time></trkpt><trkpt lat="43.117200062188054" lon="12.167774468459056"><ele>258.2</ele><time>2026-04-19T16:26:33.001Z</time></trkpt><trkpt lat="43.1171291348735" lon="12.167872574700256"><ele>257.79999999999995</ele><time>2026-04-19T16:26:34.001Z</time></trkpt><trkpt lat="43.11707165932636" lon="12.167955159850104"><ele>257.4</ele><time>2026-04-19T16:26:35.001Z</time></trkpt><trkpt lat="43.117021391122194" lon="12.168056601413864"><ele>257.0</ele><time>2026-04-19T16:26:37.001Z</time></trkpt><trkpt lat="43.116970534723244" lon="12.168121333687859"><ele>257.4</ele><time>2026-04-19T16:26:39.001Z</time></trkpt><trkpt lat="43.11689165513578" lon="12.16822621877778"><ele>257.79999999999995</ele><time>2026-04-19T16:26:41.001Z</time></trkpt><trkpt lat="43.116837164675914" lon="12.168288567335631"><ele>258.2</ele><time>2026-04-19T16:26:42.001Z</time></trkpt><trkpt lat="43.116771245774295" lon="12.168352987334499"><ele>258.59999999999997</ele><time>2026-04-19T16:26:43.001Z</time></trkpt><trkpt lat="43.11670077491683" lon="12.16842138534766"><ele>259.0</ele><time>2026-04-19T16:26:44.001Z</time></trkpt><trkpt lat="43.11660469985805" lon="12.168484726503834"><ele>258.75</ele><time>2026-04-19T16:26:45.001Z</time></trkpt><trkpt lat="43.1164924767007" lon="12.168588874606833"><ele>258.5</ele><time>2026-04-19T16:26:46.001Z</time></trkpt><trkpt lat="43.11637824582416" lon="12.168694670903136"><ele>258.25</ele><time>2026-04-19T16:26:47.001Z</time></trkpt><trkpt lat="43.116288513567575" lon="12.168803450336238"><ele>258.0</ele><time>2026-04-19T16:26:48.001Z</time></trkpt><trkpt lat="43.11619690294764" lon="12.168880393198986"><ele>258.0</ele><time>2026-04-19T16:26:49Z</time></trkpt><trkpt lat="43.11611115227966" lon="12.168958706405151"><ele>258.0</ele><time>2026-04-19T16:26:50Z</time></trkpt><trkpt lat="43.116022691167444" lon="12.169035932722483"><ele>258.0</ele><time>2026-04-19T16:26:51Z</time></trkpt><trkpt lat="43.11593038528267" lon="12.16911971379836"><ele>258.0</ele><time>2026-04-19T16:26:52Z</time></trkpt><trkpt lat="43.1158430231302" lon="12.169214250275894"><ele>258.0</ele><time>2026-04-19T16:26:53Z</time></trkpt><trkpt lat="43.11574830499641" lon="12.16931151937626"><ele>258.0</ele><time>2026-04-19T16:26:54Z</time></trkpt><trkpt lat="43.1156536663165" lon="12.169434528472848"><ele>258.0</ele><time>2026-04-19T16:26:55Z</time></trkpt><trkpt lat="43.115574434064236" lon="12.169573195971527"><ele>258.0</ele><time>2026-04-19T16:26:56Z</time></trkpt><trkpt lat="43.11550366538376" lon="12.16972327724618"><ele>258.0</ele><time>2026-04-19T16:26:57Z</time></trkpt><trkpt lat="43.11544548776325" lon="12.169875804534406"><ele>258.75</ele><time>2026-04-19T16:26:58Z</time></trkpt><trkpt lat="43.11539349022483" lon="12.170044901692632"><ele>259.5</ele><time>2026-04-19T16:26:59Z</time></trkpt><trkpt lat="43.115320066361186" lon="12.170237886047424"><ele>260.25</ele><time>2026-04-19T16:27:00Z</time></trkpt><trkpt lat="43.11526975006805" lon="12.170386088156143"><ele>261.0</ele><time>2026-04-19T16:27:01Z</time></trkpt><trkpt lat="43.11525220021362" lon="12.170485415002174"><ele>261.0</ele><time>2026-04-19T16:27:02Z</time></trkpt><trkpt lat="43.115205329416504" lon="12.17060720546685"><ele>261.0</ele><time>2026-04-19T16:27:04Z</time></trkpt><trkpt lat="43.115176541578045" lon="12.170695936430105"><ele>261.0</ele><time>2026-04-19T16:27:05Z</time></trkpt><trkpt lat="43.11512753381548" lon="12.170802492598703"><ele>261.0</ele><time>2026-04-19T16:27:06Z</time></trkpt><trkpt lat="43.11507082532697" lon="12.170966381064682"><ele>261.0</ele><time>2026-04-19T16:27:07Z</time></trkpt><trkpt lat="43.11500173803651" lon="12.171166044572315"><ele>261.0</ele><time>2026-04-19T16:27:08Z</time></trkpt><trkpt lat="43.114926557386674" lon="12.171387982093602"><ele>261.0</ele><time>2026-04-19T16:27:09Z</time></trkpt><trkpt lat="43.11485311358911" lon="12.171625081828612"><ele>261.0</ele><time>2026-04-19T16:27:10Z</time></trkpt><trkpt lat="43.114758460982245" lon="12.171876530730511"><ele>261.0</ele><time>2026-04-19T16:27:11Z</time></trkpt><trkpt lat="43.1146450648645" lon="12.172117578716728"><ele>261.0</ele><time>2026-04-19T16:27:12Z</time></trkpt><trkpt lat="43.1145159606683" lon="12.172355010457586"><ele>261.0</ele><time>2026-04-19T16:27:13Z</time></trkpt><trkpt lat="43.114373080967525" lon="12.172582325138857"><ele>261.0</ele><time>2026-04-19T16:27:14Z</time></trkpt><trkpt lat="43.11424621068783" lon="12.172794425723367"><ele>261.0</ele><time>2026-04-19T16:27:15Z</time></trkpt><trkpt lat="43.11414369419229" lon="12.173001659904056"><ele>261.0</ele><time>2026-04-19T16:27:16Z</time></trkpt><trkpt lat="43.114080372919005" lon="12.17322595581035"><ele>260.0</ele><time>2026-04-19T16:27:17Z</time></trkpt><trkpt lat="43.11405414023307" lon="12.173481431237018"><ele>259.0</ele><time>2026-04-19T16:27:18Z</time></trkpt><trkpt lat="43.11404918152838" lon="12.173758978328259"><ele>258.0</ele><time>2026-04-19T16:27:19Z</time></trkpt><trkpt lat="43.114042177168876" lon="12.174006995690917"><ele>258.3333333333333</ele><time>2026-04-19T16:27:20Z</time></trkpt><trkpt lat="43.11399047434123" lon="12.174221307269278"><ele>258.66666666666663</ele><time>2026-04-19T16:27:21Z</time></trkpt><trkpt lat="43.113938309028356" lon="12.17443538055197"><ele>259.0</ele><time>2026-04-19T16:27:22Z</time></trkpt><trkpt lat="43.113844458629416" lon="12.174641380037539"><ele>259.0</ele><time>2026-04-19T16:27:23.001Z</time></trkpt><trkpt lat="43.113756822653535" lon="12.174868176808909"><ele>259.0</ele><time>2026-04-19T16:27:24.001Z</time></trkpt><trkpt lat="43.113653032428765" lon="12.175084635396267"><ele>259.0</ele><time>2026-04-19T16:27:25.001Z</time></trkpt><trkpt lat="43.11354877223821" lon="12.175307143674846"><ele>259.0</ele><time>2026-04-19T16:27:26.001Z</time></trkpt><trkpt lat="43.113440460068304" lon="12.175539791451003"><ele>259.0</ele><time>2026-04-19T16:27:27.001Z</time></trkpt><trkpt lat="43.113335719128614" lon="12.175778679129543"><ele>259.0</ele><time>2026-04-19T16:27:28.001Z</time></trkpt><trkpt lat="43.11324657726832" lon="12.176031715952508"><ele>258.66666666666663</ele><time>2026-04-19T16:27:29.001Z</time></trkpt><trkpt lat="43.11317433035508" lon="12.176299743296456"><ele>258.3333333333333</ele><time>2026-04-19T16:27:30.001Z</time></trkpt><trkpt lat="43.11311390888252" lon="12.17657847591196"><ele>258.0</ele><time>2026-04-19T16:27:31.001Z</time></trkpt><trkpt lat="43.113063741408354" lon="12.176856166001881"><ele>258.0</ele><time>2026-04-19T16:27:32.001Z</time></trkpt><trkpt lat="43.113013576807624" lon="12.177113237714916"><ele>258.0</ele><time>2026-04-19T16:27:33.001Z</time></trkpt><trkpt lat="43.11296196112495" lon="12.177363312327138"><ele>258.0</ele><time>2026-04-19T16:27:34.001Z</time></trkpt><trkpt lat="43.11291239974773" lon="12.17760970622356"><ele>258.0</ele><time>2026-04-19T16:27:35.001Z</time></trkpt><trkpt lat="43.11286127930564" lon="12.177847842634515"><ele>258.0</ele><time>2026-04-19T16:27:36.001Z</time></trkpt><trkpt lat="43.11281243901399" lon="12.178070164792622"><ele>258.0</ele><time>2026-04-19T16:27:37.001Z</time></trkpt><trkpt lat="43.11276360152836" lon="12.178281752831484"><ele>258.5</ele><time>2026-04-19T16:27:38.001Z</time></trkpt><trkpt lat="43.11271945983798" lon="12.17848936127575"><ele>259.0</ele><time>2026-04-19T16:27:39.001Z</time></trkpt><trkpt lat="43.112679006725074" lon="12.178683134967155"><ele>259.5</ele><time>2026-04-19T16:27:40.001Z</time></trkpt><trkpt lat="43.11264018133169" lon="12.17887351477697"><ele>260.0</ele><time>2026-04-19T16:27:41.001Z</time></trkpt><trkpt lat="43.11260105894586" lon="12.17905593076561"><ele>260.25</ele><time>2026-04-19T16:27:42.001Z</time></trkpt><trkpt lat="43.112563585631676" lon="12.179244501437765"><ele>260.5</ele><time>2026-04-19T16:27:43.001Z</time></trkpt><trkpt lat="43.11252649776773" lon="12.179415084323761"><ele>260.75</ele><time>2026-04-19T16:27:44.001Z</time></trkpt><trkpt lat="43.11248394670163" lon="12.179576295543336"><ele>261.0</ele><time>2026-04-19T16:27:45.001Z</time></trkpt><trkpt lat="43.11242913446781" lon="12.179720392827612"><ele>260.25</ele><time>2026-04-19T16:27:46.001Z</time></trkpt><trkpt lat="43.112356249914974" lon="12.179846235743794"><ele>259.5</ele><time>2026-04-19T16:27:47.001Z</time></trkpt><trkpt lat="43.11228853942653" lon="12.179981463566255"><ele>258.75</ele><time>2026-04-19T16:27:48.001Z</time></trkpt><trkpt lat="43.11223408462163" lon="12.180127984827637"><ele>258.0</ele><time>2026-04-19T16:27:49.001Z</time></trkpt><trkpt lat="43.11216530738107" lon="12.18025766731786"><ele>258.0</ele><time>2026-04-19T16:27:50.001Z</time></trkpt><trkpt lat="43.1121028023075" lon="12.180386718201655"><ele>258.0</ele><time>2026-04-19T16:27:51.001Z</time></trkpt><trkpt lat="43.11203282734845" lon="12.180526120180838"><ele>258.0</ele><time>2026-04-19T16:27:52.001Z</time></trkpt><trkpt lat="43.11194967974342" lon="12.180707587869586"><ele>258.0</ele><time>2026-04-19T16:27:53.001Z</time></trkpt><trkpt lat="43.11183928817658" lon="12.18089317180207"><ele>258.6666666666667</ele><time>2026-04-19T16:27:54.001Z</time></trkpt><trkpt lat="43.111761353168056" lon="12.181122121401248"><ele>259.33333333333337</ele><time>2026-04-19T16:27:55.001Z</time></trkpt><trkpt lat="43.111651329173746" lon="12.1813304197352"><ele>260.0</ele><time>2026-04-19T16:27:56.001Z</time></trkpt><trkpt lat="43.11154310041862" lon="12.181533347972948"><ele>260.0</ele><time>2026-04-19T16:27:57.001Z</time></trkpt><trkpt lat="43.111442097504536" lon="12.181722191483303"><ele>260.0</ele><time>2026-04-19T16:27:58.001Z</time></trkpt><trkpt lat="43.11134623450903" lon="12.181899924094147"><ele>260.0</ele><time>2026-04-19T16:27:59.001Z</time></trkpt><trkpt lat="43.11125647197665" lon="12.182058383402584"><ele>260.0</ele><time>2026-04-19T16:28:00.001Z</time></trkpt><trkpt lat="43.11116468828641" lon="12.182200806433025"><ele>260.0</ele><time>2026-04-19T16:28:01.001Z</time></trkpt><trkpt lat="43.111071568318486" lon="12.18233329726339"><ele>260.0</ele><time>2026-04-19T16:28:02.001Z</time></trkpt><trkpt lat="43.110981252203445" lon="12.182454270994299"><ele>260.0</ele><time>2026-04-19T16:28:03.001Z</time></trkpt><trkpt lat="43.110898389997324" lon="12.18258069483157"><ele>260.2</ele><time>2026-04-19T16:28:04.001Z</time></trkpt><trkpt lat="43.11082276651002" lon="12.182698153995474"><ele>260.4</ele><time>2026-04-19T16:28:05.001Z</time></trkpt><trkpt lat="43.11074943783891" lon="12.182811799418355"><ele>260.6</ele><time>2026-04-19T16:28:06.001Z</time></trkpt><trkpt lat="43.1106737681197" lon="12.182928317190719"><ele>260.8</ele><time>2026-04-19T16:28:07.001Z</time></trkpt><trkpt lat="43.11060287982705" lon="12.183039300583564"><ele>261.0</ele><time>2026-04-19T16:28:08.001Z</time></trkpt><trkpt lat="43.11053399031905" lon="12.183147738537516"><ele>260.5</ele><time>2026-04-19T16:28:09.001Z</time></trkpt><trkpt lat="43.11046340874092" lon="12.183254460409172"><ele>260.0</ele><time>2026-04-19T16:28:10.001Z</time></trkpt><trkpt lat="43.110382244291756" lon="12.183379640850221"><ele>259.5</ele><time>2026-04-19T16:28:11.001Z</time></trkpt><trkpt lat="43.1102927327015" lon="12.1835154098628"><ele>259.0</ele><time>2026-04-19T16:28:12.001Z</time></trkpt><trkpt lat="43.11020382354065" lon="12.183674383643565"><ele>259.0</ele><time>2026-04-19T16:28:13.001Z</time></trkpt><trkpt lat="43.110117727560244" lon="12.183868519155746"><ele>259.0</ele><time>2026-04-19T16:28:14.001Z</time></trkpt><trkpt lat="43.11003515514782" lon="12.184086287300346"><ele>259.0</ele><time>2026-04-19T16:28:15.001Z</time></trkpt><trkpt lat="43.10994342147962" lon="12.184298353220228"><ele>258.66666666666663</ele><time>2026-04-19T16:28:16.001Z</time></trkpt><trkpt lat="43.109855098970336" lon="12.184536902062078"><ele>258.3333333333333</ele><time>2026-04-19T16:28:17.001Z</time></trkpt><trkpt lat="43.10975942212917" lon="12.184792539362626"><ele>258.0</ele><time>2026-04-19T16:28:18.001Z</time></trkpt><trkpt lat="43.10966491961384" lon="12.18503999560732"><ele>258.0</ele><time>2026-04-19T16:28:19.001Z</time></trkpt><trkpt lat="43.109581515676894" lon="12.185290713957514"><ele>258.0</ele><time>2026-04-19T16:28:20.001Z</time></trkpt><trkpt lat="43.10947402368709" lon="12.18552103413542"><ele>258.0</ele><time>2026-04-19T16:28:21.001Z</time></trkpt><trkpt lat="43.109367827357495" lon="12.185741895762655"><ele>258.0</ele><time>2026-04-19T16:28:22.001Z</time></trkpt><trkpt lat="43.10926262094079" lon="12.185954993462982"><ele>258.0</ele><time>2026-04-19T16:28:23.001Z</time></trkpt><trkpt lat="43.109151102813215" lon="12.186155840800984"><ele>258.0</ele><time>2026-04-19T16:28:24.001Z</time></trkpt><trkpt lat="43.109011735593086" lon="12.186324957098257"><ele>258.0</ele><time>2026-04-19T16:28:25.001Z</time></trkpt><trkpt lat="43.10886409218397" lon="12.18648126610302"><ele>258.0</ele><time>2026-04-19T16:28:26.001Z</time></trkpt><trkpt lat="43.108706574952684" lon="12.186620736813941"><ele>258.0</ele><time>2026-04-19T16:28:27.001Z</time></trkpt><trkpt lat="43.10854784406953" lon="12.186772080639969"><ele>257.6666666666667</ele><time>2026-04-19T16:28:28.001Z</time></trkpt><trkpt lat="43.10837778375557" lon="12.186904312973356"><ele>257.33333333333337</ele><time>2026-04-19T16:28:29.001Z</time></trkpt><trkpt lat="43.10820835063548" lon="12.187049903278862"><ele>257.0</ele><time>2026-04-19T16:28:30.001Z</time></trkpt><trkpt lat="43.108044530361695" lon="12.187202387922712"><ele>257.0</ele><time>2026-04-19T16:28:31.001Z</time></trkpt><trkpt lat="43.10787741638888" lon="12.187342274702536"><ele>257.0</ele><time>2026-04-19T16:28:32.001Z</time></trkpt><trkpt lat="43.10769498841709" lon="12.18745919173814"><ele>257.0</ele><time>2026-04-19T16:28:33.001Z</time></trkpt><trkpt lat="43.10750039770565" lon="12.187532379807525"><ele>257.33333333333337</ele><time>2026-04-19T16:28:34.001Z</time></trkpt><trkpt lat="43.10731277090469" lon="12.187639359232731"><ele>257.6666666666667</ele><time>2026-04-19T16:28:35.001Z</time></trkpt><trkpt lat="43.10712535980632" lon="12.187731859156278"><ele>258.0</ele><time>2026-04-19T16:28:36.001Z</time></trkpt><trkpt lat="43.10695496989035" lon="12.187839868969535"><ele>258.0</ele><time>2026-04-19T16:28:37.001Z</time></trkpt><trkpt lat="43.106804899083706" lon="12.18794416834074"><ele>258.0</ele><time>2026-04-19T16:28:38.001Z</time></trkpt><trkpt lat="43.10666472052664" lon="12.188063975030623"><ele>258.0</ele><time>2026-04-19T16:28:39.001Z</time></trkpt><trkpt lat="43.106537727574036" lon="12.188173557778303"><ele>259.5</ele><time>2026-04-19T16:28:40.001Z</time></trkpt><trkpt lat="43.106426061178716" lon="12.188268539423666"><ele>261.0</ele><time>2026-04-19T16:28:41.001Z</time></trkpt><trkpt lat="43.10634468249405" lon="12.18834278512272"><ele>262.5</ele><time>2026-04-19T16:28:42.001Z</time></trkpt><trkpt lat="43.10625348719209" lon="12.188384033330207"><ele>264.0</ele><time>2026-04-19T16:28:44.001Z</time></trkpt><trkpt lat="43.10612980737861" lon="12.188346063868757"><ele>264.0</ele><time>2026-04-19T16:28:46.001Z</time></trkpt><trkpt lat="43.10602708727317" lon="12.188292616087947"><ele>264.0</ele><time>2026-04-19T16:28:47.001Z</time></trkpt><trkpt lat="43.10590232105306" lon="12.18823465239631"><ele>264.0</ele><time>2026-04-19T16:28:48.001Z</time></trkpt><trkpt lat="43.10576009292894" lon="12.188184517227329"><ele>264.0</ele><time>2026-04-19T16:28:49.001Z</time></trkpt><trkpt lat="43.1056131815829" lon="12.188161849392452"><ele>261.6666666666667</ele><time>2026-04-19T16:28:50.001Z</time></trkpt><trkpt lat="43.10544742225843" lon="12.188158680509199"><ele>259.33333333333337</ele><time>2026-04-19T16:28:51.001Z</time></trkpt><trkpt lat="43.10528116280695" lon="12.18816654351588"><ele>257.0</ele><time>2026-04-19T16:28:52.002Z</time></trkpt><trkpt lat="43.105119629628156" lon="12.188167904747715"><ele>257.0</ele><time>2026-04-19T16:28:53.002Z</time></trkpt><trkpt lat="43.10496048806864" lon="12.188117062540293"><ele>257.0</ele><time>2026-04-19T16:28:54.002Z</time></trkpt><trkpt lat="43.104794786097685" lon="12.188071396634925"><ele>257.0</ele><time>2026-04-19T16:28:55Z</time></trkpt><trkpt lat="43.104643736102304" lon="12.188003387542315"><ele>256.33333333333337</ele><time>2026-04-19T16:28:56Z</time></trkpt><trkpt lat="43.10449900216714" lon="12.18796399151656"><ele>255.66666666666669</ele><time>2026-04-19T16:28:57Z</time></trkpt><trkpt lat="43.104349200483384" lon="12.187965662529582"><ele>255.0</ele><time>2026-04-19T16:28:58Z</time></trkpt><trkpt lat="43.10419256770872" lon="12.188029784563234"><ele>254.66666666666669</ele><time>2026-04-19T16:28:59Z</time></trkpt><trkpt lat="43.104041445784404" lon="12.188120352681382"><ele>254.33333333333334</ele><time>2026-04-19T16:29:00Z</time></trkpt><trkpt lat="43.10389078929112" lon="12.18823354795158"><ele>254.0</ele><time>2026-04-19T16:29:01Z</time></trkpt><trkpt lat="43.10373269079986" lon="12.188377248835977"><ele>255.66666666666669</ele><time>2026-04-19T16:29:02Z</time></trkpt><trkpt lat="43.10357869708029" lon="12.188517826864988"><ele>257.3333333333333</ele><time>2026-04-19T16:29:03Z</time></trkpt><trkpt lat="43.10341606238705" lon="12.188658072475107"><ele>259.0</ele><time>2026-04-19T16:29:04Z</time></trkpt><trkpt lat="43.10324984344578" lon="12.18880086665335"><ele>259.3333333333333</ele><time>2026-04-19T16:29:05Z</time></trkpt><trkpt lat="43.10308924127611" lon="12.188945600292389"><ele>259.6666666666667</ele><time>2026-04-19T16:29:06Z</time></trkpt><trkpt lat="43.102940394498916" lon="12.189080886844023"><ele>260.0</ele><time>2026-04-19T16:29:07Z</time></trkpt><trkpt lat="43.10280048993822" lon="12.189220515209549"><ele>260.0</ele><time>2026-04-19T16:29:08Z</time></trkpt><trkpt lat="43.10266806180663" lon="12.189372896096385"><ele>260.0</ele><time>2026-04-19T16:29:09Z</time></trkpt><trkpt lat="43.102551707835694" lon="12.189551051709465"><ele>260.0</ele><time>2026-04-19T16:29:10Z</time></trkpt><trkpt lat="43.10244974765224" lon="12.189756295978189"><ele>259.33333333333337</ele><time>2026-04-19T16:29:11Z</time></trkpt><trkpt lat="43.10235638000464" lon="12.189986061136837"><ele>258.6666666666667</ele><time>2026-04-19T16:29:12Z</time></trkpt><trkpt lat="43.10225758444757" lon="12.190203962610767"><ele>258.0</ele><time>2026-04-19T16:29:13Z</time></trkpt><trkpt lat="43.10215252227859" lon="12.190436756727348"><ele>258.0</ele><time>2026-04-19T16:29:14Z</time></trkpt><trkpt lat="43.10204487555269" lon="12.190672594615602"><ele>258.0</ele><time>2026-04-19T16:29:15Z</time></trkpt><trkpt lat="43.10193325159067" lon="12.190916859573212"><ele>258.0</ele><time>2026-04-19T16:29:16Z</time></trkpt><trkpt lat="43.1018188164518" lon="12.191168877459877"><ele>258.0</ele><time>2026-04-19T16:29:17Z</time></trkpt><trkpt lat="43.101707925796596" lon="12.191415317167824"><ele>258.0</ele><time>2026-04-19T16:29:18.001Z</time></trkpt><trkpt lat="43.10160203172124" lon="12.191637299679387"><ele>258.0</ele><time>2026-04-19T16:29:19.001Z</time></trkpt><trkpt lat="43.10150254528538" lon="12.191838833864136"><ele>258.0</ele><time>2026-04-19T16:29:20.001Z</time></trkpt><trkpt lat="43.10140995762121" lon="12.192029539489925"><ele>258.0</ele><time>2026-04-19T16:29:21.001Z</time></trkpt><trkpt lat="43.10132965435653" lon="12.192215485556419"><ele>258.0</ele><time>2026-04-19T16:29:22.001Z</time></trkpt><trkpt lat="43.101277333645506" lon="12.19240442039847"><ele>258.3333333333333</ele><time>2026-04-19T16:29:23.001Z</time></trkpt><trkpt lat="43.101269098447155" lon="12.19260521636847"><ele>258.66666666666663</ele><time>2026-04-19T16:29:24.001Z</time></trkpt><trkpt lat="43.10129801593169" lon="12.192817484864305"><ele>259.0</ele><time>2026-04-19T16:29:25.001Z</time></trkpt><trkpt lat="43.10136146443071" lon="12.193027601849863"><ele>259.3333333333333</ele><time>2026-04-19T16:29:26.001Z</time></trkpt><trkpt lat="43.10144529108788" lon="12.193237299221765"><ele>259.6666666666667</ele><time>2026-04-19T16:29:27.001Z</time></trkpt><trkpt lat="43.10153083388224" lon="12.19346630013086"><ele>260.0</ele><time>2026-04-19T16:29:28.001Z</time></trkpt><trkpt lat="43.101610092579385" lon="12.193706726732868"><ele>260.0</ele><time>2026-04-19T16:29:29.001Z</time></trkpt><trkpt lat="43.101691591208045" lon="12.193953309045822"><ele>260.0</ele><time>2026-04-19T16:29:30.001Z</time></trkpt><trkpt lat="43.10177721947507" lon="12.194199795967268"><ele>260.0</ele><time>2026-04-19T16:29:31.001Z</time></trkpt><trkpt lat="43.1018574588165" lon="12.194434945941174"><ele>260.33333333333337</ele><time>2026-04-19T16:29:32.001Z</time></trkpt><trkpt lat="43.101932042795355" lon="12.194644677657125"><ele>260.6666666666667</ele><time>2026-04-19T16:29:33.001Z</time></trkpt><trkpt lat="43.10199884333019" lon="12.194842062543026"><ele>261.0</ele><time>2026-04-19T16:29:34.001Z</time></trkpt><trkpt lat="43.10205667889302" lon="12.195033492074169"><ele>261.25</ele><time>2026-04-19T16:29:35.001Z</time></trkpt><trkpt lat="43.102092597840596" lon="12.195225946102552"><ele>261.5</ele><time>2026-04-19T16:29:36.001Z</time></trkpt><trkpt lat="43.102092753054585" lon="12.195424688657049"><ele>261.75</ele><time>2026-04-19T16:29:37.001Z</time></trkpt><trkpt lat="43.102030987870386" lon="12.195619008129198"><ele>262.0</ele><time>2026-04-19T16:29:38.001Z</time></trkpt><trkpt lat="43.1019734762407" lon="12.195827938100145"><ele>262.66666666666663</ele><time>2026-04-19T16:29:39.001Z</time></trkpt><trkpt lat="43.10191937776258" lon="12.196052733313145"><ele>263.3333333333333</ele><time>2026-04-19T16:29:40.001Z</time></trkpt><trkpt lat="43.10185074053172" lon="12.196276594381416"><ele>264.0</ele><time>2026-04-19T16:29:41.001Z</time></trkpt><trkpt lat="43.10177705361091" lon="12.19651492002016"><ele>264.3333333333333</ele><time>2026-04-19T16:29:42.001Z</time></trkpt><trkpt lat="43.10170048214538" lon="12.196759413006138"><ele>264.66666666666663</ele><time>2026-04-19T16:29:43.001Z</time></trkpt><trkpt lat="43.101620034873974" lon="12.197013762619047"><ele>265.0</ele><time>2026-04-19T16:29:44.001Z</time></trkpt><trkpt lat="43.1015333492654" lon="12.197270112460137"><ele>266.3333333333333</ele><time>2026-04-19T16:29:45.001Z</time></trkpt><trkpt lat="43.10144693755378" lon="12.19752067012796"><ele>267.6666666666667</ele><time>2026-04-19T16:29:46.001Z</time></trkpt><trkpt lat="43.10136382203671" lon="12.197766053933119"><ele>269.0</ele><time>2026-04-19T16:29:47.001Z</time></trkpt><trkpt lat="43.101287927265055" lon="12.198008007390728"><ele>270.33333333333337</ele><time>2026-04-19T16:29:48.001Z</time></trkpt><trkpt lat="43.10121528467291" lon="12.19824124919766"><ele>271.6666666666667</ele><time>2026-04-19T16:29:49.001Z</time></trkpt><trkpt lat="43.10111955752878" lon="12.198449831873253"><ele>273.0</ele><time>2026-04-19T16:29:50.001Z</time></trkpt><trkpt lat="43.10102575178059" lon="12.198623252047163"><ele>273.0</ele><time>2026-04-19T16:29:51.001Z</time></trkpt><trkpt lat="43.100914780714184" lon="12.198761487660628"><ele>273.0</ele><time>2026-04-19T16:29:52.001Z</time></trkpt><trkpt lat="43.1007855848814" lon="12.198863528056357"><ele>273.0</ele><time>2026-04-19T16:29:53.001Z</time></trkpt><trkpt lat="43.100674693246994" lon="12.19897458610155"><ele>273.0</ele><time>2026-04-19T16:29:54.001Z</time></trkpt><trkpt lat="43.10056731896533" lon="12.199061375319106"><ele>274.0</ele><time>2026-04-19T16:29:55.001Z</time></trkpt><trkpt lat="43.10047401166743" lon="12.199152675280086"><ele>275.0</ele><time>2026-04-19T16:29:56.001Z</time></trkpt><trkpt lat="43.100394214580774" lon="12.199230761056272"><ele>276.0</ele><time>2026-04-19T16:29:57.001Z</time></trkpt><trkpt lat="43.1003318680512" lon="12.199296176912531"><ele>277.0</ele><time>2026-04-19T16:29:58.001Z</time></trkpt><trkpt lat="43.100269195351565" lon="12.199362501804032"><ele>278.0</ele><time>2026-04-19T16:30:00.001Z</time></trkpt><trkpt lat="43.10021650579481" lon="12.19941552220421"><ele>279.0</ele><time>2026-04-19T16:30:10.001Z</time></trkpt><trkpt lat="43.10015045967964" lon="12.199486424055372"><ele>279.0</ele><time>2026-04-19T16:30:11.001Z</time></trkpt><trkpt lat="43.10004149294774" lon="12.199521073017316"><ele>279.0</ele><time>2026-04-19T16:30:12.001Z</time></trkpt><trkpt lat="43.099907773710854" lon="12.19958060798658"><ele>279.0</ele><time>2026-04-19T16:30:13.001Z</time></trkpt><trkpt lat="43.099768379096396" lon="12.199643883879563"><ele>279.0</ele><time>2026-04-19T16:30:14.001Z</time></trkpt><trkpt lat="43.09962748995428" lon="12.199726715623338"><ele>279.3333333333333</ele><time>2026-04-19T16:30:15.001Z</time></trkpt><trkpt lat="43.09946703364959" lon="12.199794624391723"><ele>279.66666666666663</ele><time>2026-04-19T16:30:16.001Z</time></trkpt><trkpt lat="43.099300803854554" lon="12.199854663216938"><ele>280.0</ele><time>2026-04-19T16:30:17.001Z</time></trkpt><trkpt lat="43.099125935287006" lon="12.199883093938146"><ele>281.0</ele><time>2026-04-19T16:30:18.001Z</time></trkpt><trkpt lat="43.09894710848053" lon="12.199886001858697"><ele>282.0</ele><time>2026-04-19T16:30:19.001Z</time></trkpt><trkpt lat="43.09877264717934" lon="12.199832917126356"><ele>283.0</ele><time>2026-04-19T16:30:20.001Z</time></trkpt><trkpt lat="43.09861762361145" lon="12.199799640663002"><ele>281.0</ele><time>2026-04-19T16:30:21.001Z</time></trkpt><trkpt lat="43.09845470464079" lon="12.199772247702523"><ele>279.0</ele><time>2026-04-19T16:30:22.001Z</time></trkpt><trkpt lat="43.09830630250526" lon="12.19972832206164"><ele>277.0</ele><time>2026-04-19T16:30:23.001Z</time></trkpt><trkpt lat="43.09816069593023" lon="12.199690116642351"><ele>277.0</ele><time>2026-04-19T16:30:24.001Z</time></trkpt><trkpt lat="43.09801785217404" lon="12.199662864275785"><ele>277.0</ele><time>2026-04-19T16:30:25.001Z</time></trkpt><trkpt lat="43.097906308313995" lon="12.199599157486096"><ele>277.0</ele><time>2026-04-19T16:30:26.001Z</time></trkpt><trkpt lat="43.09775327386206" lon="12.199684122936988"><ele>277.0</ele><time>2026-04-19T16:30:27.001Z</time></trkpt><trkpt lat="43.09761507476803" lon="12.19977501362607"><ele>279.0</ele><time>2026-04-19T16:30:28.001Z</time></trkpt><trkpt lat="43.09749154194276" lon="12.19989779589372"><ele>281.0</ele><time>2026-04-19T16:30:29.001Z</time></trkpt><trkpt lat="43.097365816927166" lon="12.200030528016201"><ele>283.0</ele><time>2026-04-19T16:30:30.001Z</time></trkpt><trkpt lat="43.09724669058083" lon="12.20015095357132"><ele>283.0</ele><time>2026-04-19T16:30:31.001Z</time></trkpt><trkpt lat="43.097130673489566" lon="12.200267005615018"><ele>283.0</ele><time>2026-04-19T16:30:32.001Z</time></trkpt><trkpt lat="43.097024572290614" lon="12.200369141497331"><ele>283.0</ele><time>2026-04-19T16:30:33.001Z</time></trkpt><trkpt lat="43.096916693660994" lon="12.200464582497771"><ele>283.0</ele><time>2026-04-19T16:30:34.001Z</time></trkpt><trkpt lat="43.09679711332294" lon="12.200539578558377"><ele>283.0</ele><time>2026-04-19T16:30:35.001Z</time></trkpt><trkpt lat="43.09665465517763" lon="12.200546474133773"><ele>283.0</ele><time>2026-04-19T16:30:36.001Z</time></trkpt><trkpt lat="43.09651015008743" lon="12.20051663156937"><ele>283.0</ele><time>2026-04-19T16:30:37.001Z</time></trkpt><trkpt lat="43.096370512985736" lon="12.200432961636718"><ele>283.0</ele><time>2026-04-19T16:30:38.001Z</time></trkpt><trkpt lat="43.096231792266906" lon="12.200332515693725"><ele>284.0</ele><time>2026-04-19T16:30:39.001Z</time></trkpt><trkpt lat="43.09609799933363" lon="12.20023484874557"><ele>285.0</ele><time>2026-04-19T16:30:40.001Z</time></trkpt><trkpt lat="43.095976178446215" lon="12.20015707760073"><ele>286.0</ele><time>2026-04-19T16:30:41.001Z</time></trkpt><trkpt lat="43.095864652635804" lon="12.200064779866837"><ele>287.0</ele><time>2026-04-19T16:30:42.001Z</time></trkpt><trkpt lat="43.095748721064446" lon="12.199982542408552"><ele>287.8</ele><time>2026-04-19T16:30:43.001Z</time></trkpt><trkpt lat="43.095643032233305" lon="12.199908828190559"><ele>288.6</ele><time>2026-04-19T16:30:44.001Z</time></trkpt><trkpt lat="43.095544756271565" lon="12.199837405788656"><ele>289.40000000000003</ele><time>2026-04-19T16:30:45.001Z</time></trkpt><trkpt lat="43.095448641982415" lon="12.199774943929441"><ele>290.2</ele><time>2026-04-19T16:30:46.001Z</time></trkpt><trkpt lat="43.095344216218024" lon="12.199720931922215"><ele>291.0</ele><time>2026-04-19T16:30:47.001Z</time></trkpt><trkpt lat="43.095234858605124" lon="12.199679135272245"><ele>291.0</ele><time>2026-04-19T16:30:48.001Z</time></trkpt><trkpt lat="43.09512248823493" lon="12.199646897808085"><ele>291.0</ele><time>2026-04-19T16:30:49.002Z</time></trkpt><trkpt lat="43.09500842102676" lon="12.199623190313085"><ele>291.0</ele><time>2026-04-19T16:30:50.002Z</time></trkpt><trkpt lat="43.09489655665471" lon="12.19959886571504"><ele>291.0</ele><time>2026-04-19T16:30:51.002Z</time></trkpt><trkpt lat="43.0947824967045" lon="12.199566824282405"><ele>290.75</ele><time>2026-04-19T16:30:52.002Z</time></trkpt><trkpt lat="43.094663633009404" lon="12.199539986031214"><ele>290.5</ele><time>2026-04-19T16:30:53.002Z</time></trkpt><trkpt lat="43.094537079733016" lon="12.199504816716393"><ele>290.25</ele><time>2026-04-19T16:30:54.002Z</time></trkpt><trkpt lat="43.0944041578898" lon="12.199454773599504"><ele>290.0</ele><time>2026-04-19T16:30:55.002Z</time></trkpt><trkpt lat="43.09427521128175" lon="12.19936514369796"><ele>290.0</ele><time>2026-04-19T16:30:56.002Z</time></trkpt><trkpt lat="43.09413253379049" lon="12.199270879131792"><ele>290.0</ele><time>2026-04-19T16:30:57.002Z</time></trkpt><trkpt lat="43.0939851885345" lon="12.199167071935225"><ele>290.0</ele><time>2026-04-19T16:30:58.002Z</time></trkpt><trkpt lat="43.093850454616195" lon="12.199071367696197"><ele>288.75</ele><time>2026-04-19T16:30:59.002Z</time></trkpt><trkpt lat="43.093726218192224" lon="12.198996468908469"><ele>287.5</ele><time>2026-04-19T16:31:00.002Z</time></trkpt><trkpt lat="43.09360943317973" lon="12.198904600887074"><ele>286.25</ele><time>2026-04-19T16:31:01.001Z</time></trkpt><trkpt lat="43.0934957397732" lon="12.19881962253445"><ele>285.0</ele><time>2026-04-19T16:31:02.001Z</time></trkpt><trkpt lat="43.09337733800343" lon="12.19873297521353"><ele>284.75</ele><time>2026-04-19T16:31:03.001Z</time></trkpt><trkpt lat="43.09325306583814" lon="12.198650375310725"><ele>284.5</ele><time>2026-04-19T16:31:04.001Z</time></trkpt><trkpt lat="43.093124752285384" lon="12.198580299777708"><ele>284.25</ele><time>2026-04-19T16:31:05.001Z</time></trkpt><trkpt lat="43.092988612691784" lon="12.198531020221289"><ele>284.0</ele><time>2026-04-19T16:31:06.001Z</time></trkpt><trkpt lat="43.09285117019367" lon="12.19851070814195"><ele>284.0</ele><time>2026-04-19T16:31:07.001Z</time></trkpt><trkpt lat="43.09271810732528" lon="12.198508596408475"><ele>284.0</ele><time>2026-04-19T16:31:08.001Z</time></trkpt><trkpt lat="43.09259286484745" lon="12.198509107308631"><ele>284.0</ele><time>2026-04-19T16:31:09.001Z</time></trkpt><trkpt lat="43.0924693469389" lon="12.198497635056365"><ele>284.0</ele><time>2026-04-19T16:31:10.001Z</time></trkpt><trkpt lat="43.09234739917808" lon="12.19845731558478"><ele>284.25</ele><time>2026-04-19T16:31:11.001Z</time></trkpt><trkpt lat="43.0922292007238" lon="12.198378876506993"><ele>284.5</ele><time>2026-04-19T16:31:12.001Z</time></trkpt><trkpt lat="43.09212537238753" lon="12.198261491313959"><ele>284.75</ele><time>2026-04-19T16:31:13.001Z</time></trkpt><trkpt lat="43.09205231350277" lon="12.198100851971466"><ele>285.0</ele><time>2026-04-19T16:31:14.001Z</time></trkpt><trkpt lat="43.0919762304184" lon="12.19795203875354"><ele>285.0</ele><time>2026-04-19T16:31:15.001Z</time></trkpt><trkpt lat="43.09192086057919" lon="12.197795516424698"><ele>285.0</ele><time>2026-04-19T16:31:16.001Z</time></trkpt><trkpt lat="43.091855529347455" lon="12.19765106994046"><ele>285.0</ele><time>2026-04-19T16:31:17.001Z</time></trkpt><trkpt lat="43.09177840775813" lon="12.197518431374075"><ele>285.0</ele><time>2026-04-19T16:31:18.001Z</time></trkpt><trkpt lat="43.09168258853828" lon="12.197407135343369"><ele>284.0</ele><time>2026-04-19T16:31:19.001Z</time></trkpt><trkpt lat="43.09156942914921" lon="12.197329274523014"><ele>283.0</ele><time>2026-04-19T16:31:20.001Z</time></trkpt><trkpt lat="43.09144480579459" lon="12.197281161384723"><ele>282.0</ele><time>2026-04-19T16:31:21.001Z</time></trkpt><trkpt lat="43.09130898648687" lon="12.197272100272192"><ele>281.0</ele><time>2026-04-19T16:31:22.001Z</time></trkpt><trkpt lat="43.09115084300822" lon="12.197313882848887"><ele>283.0</ele><time>2026-04-19T16:31:23.001Z</time></trkpt><trkpt lat="43.09096569153494" lon="12.197351548818723"><ele>285.0</ele><time>2026-04-19T16:31:24.001Z</time></trkpt><trkpt lat="43.09076536648966" lon="12.197400315904927"><ele>287.0</ele><time>2026-04-19T16:31:25.001Z</time></trkpt><trkpt lat="43.09057406043534" lon="12.197446783573978"><ele>287.33333333333337</ele><time>2026-04-19T16:31:26.001Z</time></trkpt><trkpt lat="43.090393384817006" lon="12.19749066915148"><ele>287.6666666666667</ele><time>2026-04-19T16:31:27.001Z</time></trkpt><trkpt lat="43.09023525887956" lon="12.19752907745377"><ele>288.0</ele><time>2026-04-19T16:31:28.001Z</time></trkpt><trkpt lat="43.09009785879011" lon="12.197553081326173"><ele>288.0</ele><time>2026-04-19T16:31:29.001Z</time></trkpt><trkpt lat="43.08996044306701" lon="12.197559179199732"><ele>288.0</ele><time>2026-04-19T16:31:30.001Z</time></trkpt><trkpt lat="43.0898343301408" lon="12.197518902192863"><ele>288.0</ele><time>2026-04-19T16:31:31.001Z</time></trkpt><trkpt lat="43.08973235856491" lon="12.197419656430169"><ele>288.0</ele><time>2026-04-19T16:31:32.001Z</time></trkpt><trkpt lat="43.08964115027387" lon="12.19729223369758"><ele>290.0</ele><time>2026-04-19T16:31:33.001Z</time></trkpt><trkpt lat="43.08958441318316" lon="12.197146223783063"><ele>292.0</ele><time>2026-04-19T16:31:34.001Z</time></trkpt><trkpt lat="43.08953139488549" lon="12.196989529042309"><ele>294.0</ele><time>2026-04-19T16:31:35.001Z</time></trkpt><trkpt lat="43.08946621286747" lon="12.196837420649938"><ele>296.0</ele><time>2026-04-19T16:31:36.001Z</time></trkpt><trkpt lat="43.0894027935561" lon="12.196672508250552"><ele>296.0</ele><time>2026-04-19T16:31:37.001Z</time></trkpt><trkpt lat="43.0893257331461" lon="12.196527894281932"><ele>296.0</ele><time>2026-04-19T16:31:38.001Z</time></trkpt><trkpt lat="43.08923247006781" lon="12.19640777809406"><ele>296.0</ele><time>2026-04-19T16:31:39.001Z</time></trkpt><trkpt lat="43.089120064089066" lon="12.196315905429914"><ele>296.0</ele><time>2026-04-19T16:31:40.001Z</time></trkpt><trkpt lat="43.088999414114134" lon="12.196242915329806"><ele>295.0</ele><time>2026-04-19T16:31:41.001Z</time></trkpt><trkpt lat="43.088881799945135" lon="12.196173575714276"><ele>294.0</ele><time>2026-04-19T16:31:42.001Z</time></trkpt><trkpt lat="43.088764602733356" lon="12.196116103217037"><ele>293.0</ele><time>2026-04-19T16:31:43.001Z</time></trkpt><trkpt lat="43.08865908247712" lon="12.196053398532243"><ele>292.0</ele><time>2026-04-19T16:31:44.001Z</time></trkpt><trkpt lat="43.088540725385556" lon="12.195986799288615"><ele>292.0</ele><time>2026-04-19T16:31:45.001Z</time></trkpt><trkpt lat="43.088428876691445" lon="12.195925048202415"><ele>292.0</ele><time>2026-04-19T16:31:46.001Z</time></trkpt><trkpt lat="43.088325078878626" lon="12.195867981113203"><ele>292.0</ele><time>2026-04-19T16:31:47.001Z</time></trkpt><trkpt lat="43.088232096771634" lon="12.195811974879767"><ele>292.0</ele><time>2026-04-19T16:31:48.001Z</time></trkpt><trkpt lat="43.08814188522003" lon="12.195743996720454"><ele>292.0</ele><time>2026-04-19T16:31:49.001Z</time></trkpt><trkpt lat="43.08806040475786" lon="12.195714920887177"><ele>292.66666666666663</ele><time>2026-04-19T16:31:50.001Z</time></trkpt><trkpt lat="43.087988387256885" lon="12.195676467587793"><ele>293.3333333333333</ele><time>2026-04-19T16:31:51.001Z</time></trkpt><trkpt lat="43.087915347785895" lon="12.19563410043467"><ele>294.0</ele><time>2026-04-19T16:31:52.001Z</time></trkpt><trkpt lat="43.087840273792004" lon="12.195587629079006"><ele>294.6666666666667</ele><time>2026-04-19T16:31:53.001Z</time></trkpt><trkpt lat="43.08776794476068" lon="12.195537090112683"><ele>295.33333333333337</ele><time>2026-04-19T16:31:54.001Z</time></trkpt><trkpt lat="43.08770256860918" lon="12.195482573456298"><ele>296.0</ele><time>2026-04-19T16:31:55.001Z</time></trkpt><trkpt lat="43.08764444458002" lon="12.195413572937282"><ele>294.6666666666667</ele><time>2026-04-19T16:31:56.001Z</time></trkpt><trkpt lat="43.08758809014729" lon="12.195319065851137"><ele>293.33333333333337</ele><time>2026-04-19T16:31:57.001Z</time></trkpt><trkpt lat="43.08754117150912" lon="12.195211042473883"><ele>292.0</ele><time>2026-04-19T16:31:58.001Z</time></trkpt><trkpt lat="43.087504245098245" lon="12.19510079748613"><ele>290.6666666666667</ele><time>2026-04-19T16:31:59.001Z</time></trkpt><trkpt lat="43.087495710140885" lon="12.194982186571409"><ele>289.3333333333333</ele><time>2026-04-19T16:32:00.001Z</time></trkpt><trkpt lat="43.087491512234074" lon="12.19487069334424"><ele>288.0</ele><time>2026-04-19T16:32:01.001Z</time></trkpt><trkpt lat="43.087495213308856" lon="12.194762726005724"><ele>287.4</ele><time>2026-04-19T16:32:02.001Z</time></trkpt><trkpt lat="43.08750229367586" lon="12.194655099204763"><ele>286.8</ele><time>2026-04-19T16:32:03.001Z</time></trkpt><trkpt lat="43.08749688180272" lon="12.194543680079823"><ele>286.2</ele><time>2026-04-19T16:32:04.001Z</time></trkpt><trkpt lat="43.08750530741899" lon="12.194440508472868"><ele>285.6</ele><time>2026-04-19T16:32:05.001Z</time></trkpt><trkpt lat="43.08752746013866" lon="12.194348619853919"><ele>285.0</ele><time>2026-04-19T16:32:06.001Z</time></trkpt><trkpt lat="43.08735475036766" lon="12.194247168217917"><ele>289.75</ele><time>2026-04-19T16:32:08.001Z</time></trkpt><trkpt lat="43.0872632876444" lon="12.194256239018268"><ele>294.5</ele><time>2026-04-19T16:32:09.001Z</time></trkpt><trkpt lat="43.087170736656134" lon="12.194314536301565"><ele>299.25</ele><time>2026-04-19T16:32:10.001Z</time></trkpt><trkpt lat="43.08707474819478" lon="12.19441971912291"><ele>304.0</ele><time>2026-04-19T16:32:11.001Z</time></trkpt><trkpt lat="43.086985786199094" lon="12.19456513947542"><ele>304.0</ele><time>2026-04-19T16:32:12.001Z</time></trkpt><trkpt lat="43.08690206307033" lon="12.194758232504139"><ele>304.0</ele><time>2026-04-19T16:32:13.001Z</time></trkpt><trkpt lat="43.08679528421739" lon="12.1949621027247"><ele>304.0</ele><time>2026-04-19T16:32:14.001Z</time></trkpt><trkpt lat="43.08667751960976" lon="12.195171704670903"><ele>308.3333333333333</ele><time>2026-04-19T16:32:15.001Z</time></trkpt><trkpt lat="43.08656072505728" lon="12.195381131226869"><ele>312.6666666666667</ele><time>2026-04-19T16:32:16.001Z</time></trkpt><trkpt lat="43.08644345785061" lon="12.195607520631786"><ele>317.0</ele><time>2026-04-19T16:32:17.001Z</time></trkpt><trkpt lat="43.08630613674879" lon="12.195851994828072"><ele>317.0</ele><time>2026-04-19T16:32:18.001Z</time></trkpt><trkpt lat="43.0862039624645" lon="12.196037084665232"><ele>317.0</ele><time>2026-04-19T16:32:19.001Z</time></trkpt><trkpt lat="43.08609300976775" lon="12.196238076651628"><ele>317.0</ele><time>2026-04-19T16:32:20.001Z</time></trkpt><trkpt lat="43.08600286194247" lon="12.196433008222671"><ele>318.6666666666667</ele><time>2026-04-19T16:32:21.001Z</time></trkpt><trkpt lat="43.08589178150095" lon="12.19659869126428"><ele>320.3333333333333</ele><time>2026-04-19T16:32:22.001Z</time></trkpt><trkpt lat="43.085783067860405" lon="12.196735322233483"><ele>322.0</ele><time>2026-04-19T16:32:23.001Z</time></trkpt><trkpt lat="43.085690563002764" lon="12.196973180717821"><ele>322.0</ele><time>2026-04-19T16:32:24.001Z</time></trkpt><trkpt lat="43.08558432143954" lon="12.197173710097239"><ele>322.0</ele><time>2026-04-19T16:32:25.001Z</time></trkpt><trkpt lat="43.085488992737" lon="12.197327875958743"><ele>322.0</ele><time>2026-04-19T16:32:26.001Z</time></trkpt><trkpt lat="43.0853801431675" lon="12.197488061745025"><ele>322.0</ele><time>2026-04-19T16:32:27.001Z</time></trkpt><trkpt lat="43.085258990717286" lon="12.197659001042497"><ele>322.0</ele><time>2026-04-19T16:32:28.001Z</time></trkpt><trkpt lat="43.08510257531963" lon="12.197759573732958"><ele>322.0</ele><time>2026-04-19T16:32:29.001Z</time></trkpt><trkpt lat="43.08493825108108" lon="12.197881305194874"><ele>321.66666666666663</ele><time>2026-04-19T16:32:30.001Z</time></trkpt><trkpt lat="43.0847898837327" lon="12.198010096902175"><ele>321.3333333333333</ele><time>2026-04-19T16:32:31.001Z</time></trkpt><trkpt lat="43.0846403204512" lon="12.198119075731071"><ele>321.0</ele><time>2026-04-19T16:32:32.001Z</time></trkpt><trkpt lat="43.08450138886187" lon="12.1982262580533"><ele>315.0</ele><time>2026-04-19T16:32:33.001Z</time></trkpt><trkpt lat="43.084353284794005" lon="12.198339680929445"><ele>309.0</ele><time>2026-04-19T16:32:34.001Z</time></trkpt><trkpt lat="43.08420134074144" lon="12.198454883819759"><ele>303.0</ele><time>2026-04-19T16:32:35.001Z</time></trkpt><trkpt lat="43.08402328064068" lon="12.198562980289502"><ele>302.0</ele><time>2026-04-19T16:32:36.001Z</time></trkpt><trkpt lat="43.08384010548185" lon="12.198699086919104"><ele>301.0</ele><time>2026-04-19T16:32:37.001Z</time></trkpt><trkpt lat="43.083648456115185" lon="12.198839775434331"><ele>300.0</ele><time>2026-04-19T16:32:38.001Z</time></trkpt><trkpt lat="43.08345109136362" lon="12.198983583718404"><ele>292.5</ele><time>2026-04-19T16:32:39.001Z</time></trkpt><trkpt lat="43.083252021808356" lon="12.199150600947247"><ele>285.0</ele><time>2026-04-19T16:32:40.001Z</time></trkpt><trkpt lat="43.083047229897694" lon="12.199292680336656"><ele>285.0</ele><time>2026-04-19T16:32:41.001Z</time></trkpt><trkpt lat="43.08284090406957" lon="12.199428141339984"><ele>285.0</ele><time>2026-04-19T16:32:42.001Z</time></trkpt><trkpt lat="43.08262386364122" lon="12.19952053641336"><ele>283.5</ele><time>2026-04-19T16:32:43.001Z</time></trkpt><trkpt lat="43.08240402295309" lon="12.199610547230554"><ele>282.0</ele><time>2026-04-19T16:32:44.001Z</time></trkpt><trkpt lat="43.08218361518282" lon="12.199704756826034"><ele>282.0</ele><time>2026-04-19T16:32:45.001Z</time></trkpt><trkpt lat="43.081965206175816" lon="12.199816381095172"><ele>282.0</ele><time>2026-04-19T16:32:46.001Z</time></trkpt><trkpt lat="43.081743982870385" lon="12.199909366881736"><ele>278.0</ele><time>2026-04-19T16:32:47.001Z</time></trkpt><trkpt lat="43.08152244071651" lon="12.199999352860205"><ele>274.0</ele><time>2026-04-19T16:32:48.001Z</time></trkpt><trkpt lat="43.081300495610506" lon="12.200085298020953"><ele>274.0</ele><time>2026-04-19T16:32:49.001Z</time></trkpt><trkpt lat="43.081084241550876" lon="12.200174227186018"><ele>274.0</ele><time>2026-04-19T16:32:50.002Z</time></trkpt><trkpt lat="43.080876290697375" lon="12.200286914125046"><ele>274.0</ele><time>2026-04-19T16:32:51.002Z</time></trkpt><trkpt lat="43.08067645772842" lon="12.200431235524297"><ele>273.0</ele><time>2026-04-19T16:32:52.002Z</time></trkpt><trkpt lat="43.08048172078168" lon="12.200602307207749"><ele>272.0</ele><time>2026-04-19T16:32:53.002Z</time></trkpt><trkpt lat="43.080288181882935" lon="12.200782945530515"><ele>271.5</ele><time>2026-04-19T16:32:54.002Z</time></trkpt><trkpt lat="43.08009555457663" lon="12.2009680998558"><ele>271.0</ele><time>2026-04-19T16:32:55.002Z</time></trkpt><trkpt lat="43.07989292065932" lon="12.201142263924748"><ele>268.5</ele><time>2026-04-19T16:32:56.002Z</time></trkpt><trkpt lat="43.07969043771764" lon="12.201322580720758"><ele>266.0</ele><time>2026-04-19T16:32:57.002Z</time></trkpt><trkpt lat="43.07948790245442" lon="12.201505857061218"><ele>265.0</ele><time>2026-04-19T16:32:58.002Z</time></trkpt><trkpt lat="43.07928238636559" lon="12.201691516766383"><ele>264.0</ele><time>2026-04-19T16:32:59.002Z</time></trkpt><trkpt lat="43.07907403347893" lon="12.201878530399293"><ele>263.0</ele><time>2026-04-19T16:33:00.002Z</time></trkpt><trkpt lat="43.078868489898895" lon="12.202058830205388"><ele>262.0</ele><time>2026-04-19T16:33:01.002Z</time></trkpt><trkpt lat="43.0786588541226" lon="12.202245982459804"><ele>260.5</ele><time>2026-04-19T16:33:02.002Z</time></trkpt><trkpt lat="43.07844743649363" lon="12.202431659887424"><ele>259.0</ele><time>2026-04-19T16:33:03.002Z</time></trkpt><trkpt lat="43.078236971225266" lon="12.202617271868489"><ele>258.5</ele><time>2026-04-19T16:33:04.002Z</time></trkpt><trkpt lat="43.07802606222461" lon="12.20280422067593"><ele>258.0</ele><time>2026-04-19T16:33:05.002Z</time></trkpt><trkpt lat="43.07781512728936" lon="12.202986134878344"><ele>258.0</ele><time>2026-04-19T16:33:06.002Z</time></trkpt><trkpt lat="43.07760682828433" lon="12.20316450198617"><ele>258.0</ele><time>2026-04-19T16:33:07.001Z</time></trkpt><trkpt lat="43.0774012855844" lon="12.203345388587262"><ele>258.0</ele><time>2026-04-19T16:33:08.001Z</time></trkpt><trkpt lat="43.07719983577999" lon="12.203523737330276"><ele>258.0</ele><time>2026-04-19T16:33:09.001Z</time></trkpt><trkpt lat="43.077000447095585" lon="12.203700422350442"><ele>258.0</ele><time>2026-04-19T16:33:10.001Z</time></trkpt><trkpt lat="43.07680341565649" lon="12.203871660955375"><ele>258.0</ele><time>2026-04-19T16:33:11.001Z</time></trkpt><trkpt lat="43.076607050823704" lon="12.204041417505461"><ele>257.5</ele><time>2026-04-19T16:33:12.001Z</time></trkpt><trkpt lat="43.0764137229565" lon="12.204205968005063"><ele>257.0</ele><time>2026-04-19T16:33:13.001Z</time></trkpt><trkpt lat="43.07622433268459" lon="12.204370275891826"><ele>257.0</ele><time>2026-04-19T16:33:14.001Z</time></trkpt><trkpt lat="43.07602844281988" lon="12.204532396191766"><ele>257.0</ele><time>2026-04-19T16:33:15.001Z</time></trkpt><trkpt lat="43.07583054026035" lon="12.204685427336882"><ele>255.0</ele><time>2026-04-19T16:33:16.001Z</time></trkpt><trkpt lat="43.07562946737379" lon="12.204831347533373"><ele>253.0</ele><time>2026-04-19T16:33:17.001Z</time></trkpt><trkpt lat="43.0754197071951" lon="12.20498057831659"><ele>253.0</ele><time>2026-04-19T16:33:18.001Z</time></trkpt><trkpt lat="43.0752095760254" lon="12.205097996483014"><ele>253.0</ele><time>2026-04-19T16:33:19.001Z</time></trkpt><trkpt lat="43.07500117461869" lon="12.2052082486706"><ele>252.5</ele><time>2026-04-19T16:33:20.001Z</time></trkpt><trkpt lat="43.074789035341574" lon="12.205316900986649"><ele>252.0</ele><time>2026-04-19T16:33:21.001Z</time></trkpt><trkpt lat="43.07457653706513" lon="12.205425888442683"><ele>252.0</ele><time>2026-04-19T16:33:22.001Z</time></trkpt><trkpt lat="43.074366521385" lon="12.205536178818726"><ele>252.0</ele><time>2026-04-19T16:33:23.001Z</time></trkpt><trkpt lat="43.07415383943517" lon="12.2056465308745"><ele>251.0</ele><time>2026-04-19T16:33:24.001Z</time></trkpt><trkpt lat="43.07394318260874" lon="12.20575724778764"><ele>250.0</ele><time>2026-04-19T16:33:25.001Z</time></trkpt><trkpt lat="43.073732207651005" lon="12.205868182084643"><ele>250.0</ele><time>2026-04-19T16:33:26.001Z</time></trkpt><trkpt lat="43.07352353205194" lon="12.205978308087769"><ele>250.0</ele><time>2026-04-19T16:33:27.001Z</time></trkpt><trkpt lat="43.07331780302091" lon="12.206088547252255"><ele>250.0</ele><time>2026-04-19T16:33:28.001Z</time></trkpt><trkpt lat="43.073122535447986" lon="12.206196910194482"><ele>249.0</ele><time>2026-04-19T16:33:29.001Z</time></trkpt><trkpt lat="43.07293228150741" lon="12.20630237943403"><ele>248.0</ele><time>2026-04-19T16:33:30.001Z</time></trkpt><trkpt lat="43.072751690737334" lon="12.206400398930825"><ele>247.0</ele><time>2026-04-19T16:33:31.001Z</time></trkpt><trkpt lat="43.072573371173064" lon="12.20648841349553"><ele>246.66666666666666</ele><time>2026-04-19T16:33:32.001Z</time></trkpt><trkpt lat="43.07238564820334" lon="12.206562159410641"><ele>246.33333333333331</ele><time>2026-04-19T16:33:33.001Z</time></trkpt><trkpt lat="43.07219032295968" lon="12.206625878428794"><ele>246.0</ele><time>2026-04-19T16:33:34.001Z</time></trkpt><trkpt lat="43.07199334996569" lon="12.20668662557476"><ele>246.0</ele><time>2026-04-19T16:33:35.001Z</time></trkpt><trkpt lat="43.07179000707647" lon="12.20675949792398"><ele>246.0</ele><time>2026-04-19T16:33:36.001Z</time></trkpt><trkpt lat="43.07158789815202" lon="12.206834736039568"><ele>246.0</ele><time>2026-04-19T16:33:37.001Z</time></trkpt><trkpt lat="43.07137748827633" lon="12.206912685274878"><ele>246.0</ele><time>2026-04-19T16:33:38.001Z</time></trkpt><trkpt lat="43.07116734759187" lon="12.206987462120676"><ele>246.0</ele><time>2026-04-19T16:33:39.001Z</time></trkpt><trkpt lat="43.07095484929879" lon="12.207060501428286"><ele>246.0</ele><time>2026-04-19T16:33:40.001Z</time></trkpt><trkpt lat="43.07073993501553" lon="12.207132077338263"><ele>246.0</ele><time>2026-04-19T16:33:41.001Z</time></trkpt><trkpt lat="43.07052309650064" lon="12.207207035670859"><ele>246.0</ele><time>2026-04-19T16:33:42.001Z</time></trkpt><trkpt lat="43.070305227344676" lon="12.207282826192397"><ele>246.0</ele><time>2026-04-19T16:33:43.001Z</time></trkpt><trkpt lat="43.070085204079454" lon="12.207356138000947"><ele>244.5</ele><time>2026-04-19T16:33:44.001Z</time></trkpt><trkpt lat="43.069864640573456" lon="12.207430000569671"><ele>243.0</ele><time>2026-04-19T16:33:45.001Z</time></trkpt><trkpt lat="43.06964351773432" lon="12.207505194927077"><ele>243.0</ele><time>2026-04-19T16:33:46.001Z</time></trkpt><trkpt lat="43.06942555755697" lon="12.207581670941112"><ele>243.0</ele><time>2026-04-19T16:33:47.001Z</time></trkpt><trkpt lat="43.06920258875102" lon="12.207658504176345"><ele>242.5</ele><time>2026-04-19T16:33:48.001Z</time></trkpt><trkpt lat="43.068981527527626" lon="12.207737069142608"><ele>242.0</ele><time>2026-04-19T16:33:49.001Z</time></trkpt><trkpt lat="43.068758700989434" lon="12.207810801713727"><ele>242.0</ele><time>2026-04-19T16:33:50.001Z</time></trkpt><trkpt lat="43.06853883387505" lon="12.20788908307853"><ele>242.0</ele><time>2026-04-19T16:33:51.001Z</time></trkpt><trkpt lat="43.06831830105588" lon="12.20796571845133"><ele>241.0</ele><time>2026-04-19T16:33:52.001Z</time></trkpt><trkpt lat="43.068089788190875" lon="12.208047199409808"><ele>240.0</ele><time>2026-04-19T16:33:53.001Z</time></trkpt><trkpt lat="43.06787649732271" lon="12.208118903443731"><ele>240.0</ele><time>2026-04-19T16:33:54.001Z</time></trkpt><trkpt lat="43.06765708072526" lon="12.20819438749911"><ele>240.0</ele><time>2026-04-19T16:33:55.001Z</time></trkpt><trkpt lat="43.067439265204456" lon="12.208270014672777"><ele>240.0</ele><time>2026-04-19T16:33:56.001Z</time></trkpt><trkpt lat="43.067221471822755" lon="12.208342934922989"><ele>240.0</ele><time>2026-04-19T16:33:57.001Z</time></trkpt><trkpt lat="43.06700453409264" lon="12.208419090466114"><ele>240.0</ele><time>2026-04-19T16:33:58.001Z</time></trkpt><trkpt lat="43.06679148863789" lon="12.208490505000084"><ele>239.66666666666669</ele><time>2026-04-19T16:33:59.001Z</time></trkpt><trkpt lat="43.0665743259475" lon="12.208567501598338"><ele>239.33333333333334</ele><time>2026-04-19T16:34:00.001Z</time></trkpt><trkpt lat="43.0663656064448" lon="12.20864862712777"><ele>239.0</ele><time>2026-04-19T16:34:01.001Z</time></trkpt><trkpt lat="43.066164018774096" lon="12.208749038486967"><ele>239.0</ele><time>2026-04-19T16:34:02.001Z</time></trkpt><trkpt lat="43.065983553088074" lon="12.208892071902293"><ele>239.0</ele><time>2026-04-19T16:34:03.001Z</time></trkpt><trkpt lat="43.06581945779088" lon="12.209060738326091"><ele>239.0</ele><time>2026-04-19T16:34:04.001Z</time></trkpt><trkpt lat="43.06566128300207" lon="12.209273907203817"><ele>239.0</ele><time>2026-04-19T16:34:05.001Z</time></trkpt><trkpt lat="43.06551376255485" lon="12.20949241230202"><ele>239.0</ele><time>2026-04-19T16:34:06.001Z</time></trkpt><trkpt lat="43.065373384599226" lon="12.20971287706633"><ele>239.0</ele><time>2026-04-19T16:34:07.001Z</time></trkpt><trkpt lat="43.06522988462844" lon="12.209937648468236"><ele>239.0</ele><time>2026-04-19T16:34:08.001Z</time></trkpt><trkpt lat="43.06508282535651" lon="12.21015737035017"><ele>239.0</ele><time>2026-04-19T16:34:09.001Z</time></trkpt><trkpt lat="43.064934114667125" lon="12.210372941899381"><ele>239.0</ele><time>2026-04-19T16:34:10.001Z</time></trkpt><trkpt lat="43.064785713206746" lon="12.21058893603346"><ele>238.33333333333334</ele><time>2026-04-19T16:34:11.001Z</time></trkpt><trkpt lat="43.06464226985288" lon="12.210796253152964"><ele>237.66666666666669</ele><time>2026-04-19T16:34:12.001Z</time></trkpt><trkpt lat="43.064503334410176" lon="12.210984698510874"><ele>237.0</ele><time>2026-04-19T16:34:13.001Z</time></trkpt><trkpt lat="43.064352701852286" lon="12.211135771186832"><ele>237.0</ele><time>2026-04-19T16:34:14.001Z</time></trkpt><trkpt lat="43.06417802971159" lon="12.21124084898236"><ele>237.0</ele><time>2026-04-19T16:34:15.001Z</time></trkpt><trkpt lat="43.06398324994467" lon="12.211317121311783"><ele>237.0</ele><time>2026-04-19T16:34:16.001Z</time></trkpt><trkpt lat="43.063785252520844" lon="12.211393731913638"><ele>237.33333333333331</ele><time>2026-04-19T16:34:17.001Z</time></trkpt><trkpt lat="43.06358389765492" lon="12.211482214589124"><ele>237.66666666666666</ele><time>2026-04-19T16:34:18.001Z</time></trkpt><trkpt lat="43.06337913056017" lon="12.21157399239648"><ele>238.0</ele><time>2026-04-19T16:34:19.001Z</time></trkpt><trkpt lat="43.06317375329499" lon="12.211670767376981"><ele>237.33333333333331</ele><time>2026-04-19T16:34:20.001Z</time></trkpt><trkpt lat="43.06296815588471" lon="12.21177536014789"><ele>236.66666666666669</ele><time>2026-04-19T16:34:21.001Z</time></trkpt><trkpt lat="43.06276169347377" lon="12.211882393249537"><ele>236.0</ele><time>2026-04-19T16:34:22.001Z</time></trkpt><trkpt lat="43.0625519519829" lon="12.211992534215822"><ele>235.66666666666669</ele><time>2026-04-19T16:34:23.001Z</time></trkpt><trkpt lat="43.062345700970134" lon="12.212094016726482"><ele>235.33333333333331</ele><time>2026-04-19T16:34:24.001Z</time></trkpt><trkpt lat="43.06213956799888" lon="12.212203041226106"><ele>235.0</ele><time>2026-04-19T16:34:25.001Z</time></trkpt><trkpt lat="43.061938955656444" lon="12.212321151686977"><ele>235.66666666666666</ele><time>2026-04-19T16:34:26.001Z</time></trkpt><trkpt lat="43.06174521073436" lon="12.212452967510993"><ele>236.33333333333331</ele><time>2026-04-19T16:34:27.001Z</time></trkpt><trkpt lat="43.06156323975074" lon="12.212608395380087"><ele>237.0</ele><time>2026-04-19T16:34:28.001Z</time></trkpt><trkpt lat="43.0613931277418" lon="12.212783623017515"><ele>237.0</ele><time>2026-04-19T16:34:29.001Z</time></trkpt><trkpt lat="43.061233064128245" lon="12.212973873747973"><ele>237.0</ele><time>2026-04-19T16:34:30.001Z</time></trkpt><trkpt lat="43.06107682054275" lon="12.213169679760508"><ele>237.0</ele><time>2026-04-19T16:34:31.001Z</time></trkpt><trkpt lat="43.06091946594829" lon="12.213360033877626"><ele>237.0</ele><time>2026-04-19T16:34:32.001Z</time></trkpt><trkpt lat="43.06076816589015" lon="12.213540070372304"><ele>237.0</ele><time>2026-04-19T16:34:33.001Z</time></trkpt><trkpt lat="43.060630827798555" lon="12.213708443840517"><ele>237.0</ele><time>2026-04-19T16:34:34.001Z</time></trkpt><trkpt lat="43.06050189781922" lon="12.21386822344812"><ele>236.33333333333331</ele><time>2026-04-19T16:34:35.001Z</time></trkpt><trkpt lat="43.0603803891289" lon="12.214018018085941"><ele>235.66666666666666</ele><time>2026-04-19T16:34:36.001Z</time></trkpt><trkpt lat="43.060261769598654" lon="12.214163101771794"><ele>235.0</ele><time>2026-04-19T16:34:37.001Z</time></trkpt><trkpt lat="43.060141338810176" lon="12.214274099991103"><ele>235.0</ele><time>2026-04-19T16:34:38.001Z</time></trkpt><trkpt lat="43.05999511429741" lon="12.214309867420132"><ele>235.0</ele><time>2026-04-19T16:34:39.001Z</time></trkpt><trkpt lat="43.05983633023908" lon="12.21431661737024"><ele>235.0</ele><time>2026-04-19T16:34:40.001Z</time></trkpt><trkpt lat="43.059674949867" lon="12.214269991843652"><ele>235.0</ele><time>2026-04-19T16:34:41.001Z</time></trkpt><trkpt lat="43.059504248205684" lon="12.214212090688582"><ele>235.0</ele><time>2026-04-19T16:34:42.001Z</time></trkpt><trkpt lat="43.059329096309135" lon="12.214157445898792"><ele>235.0</ele><time>2026-04-19T16:34:43.001Z</time></trkpt><trkpt lat="43.05914396218869" lon="12.214086671099398"><ele>233.66666666666666</ele><time>2026-04-19T16:34:44.001Z</time></trkpt><trkpt lat="43.05895580332373" lon="12.21402497958669"><ele>232.33333333333331</ele><time>2026-04-19T16:34:45.001Z</time></trkpt><trkpt lat="43.05875980476791" lon="12.213958919721657"><ele>231.0</ele><time>2026-04-19T16:34:46.001Z</time></trkpt><trkpt lat="43.05856020245585" lon="12.213887447436631"><ele>231.0</ele><time>2026-04-19T16:34:47.001Z</time></trkpt><trkpt lat="43.05835695859954" lon="12.213815057812862"><ele>231.0</ele><time>2026-04-19T16:34:48.001Z</time></trkpt><trkpt lat="43.058154823465664" lon="12.213745374456483"><ele>231.0</ele><time>2026-04-19T16:34:49.001Z</time></trkpt><trkpt lat="43.057962172933856" lon="12.213677471256062"><ele>231.33333333333331</ele><time>2026-04-19T16:34:50.001Z</time></trkpt><trkpt lat="43.05778239609197" lon="12.213614136852922"><ele>231.66666666666666</ele><time>2026-04-19T16:34:51.001Z</time></trkpt><trkpt lat="43.05761067602899" lon="12.213555258792939"><ele>232.0</ele><time>2026-04-19T16:34:52.001Z</time></trkpt><trkpt lat="43.05745032923964" lon="12.213501119839245"><ele>232.33333333333331</ele><time>2026-04-19T16:34:53.001Z</time></trkpt><trkpt lat="43.057295800057716" lon="12.213452956225293"><ele>232.66666666666669</ele><time>2026-04-19T16:34:54.001Z</time></trkpt><trkpt lat="43.057139747206556" lon="12.213429121710941"><ele>233.0</ele><time>2026-04-19T16:34:55.001Z</time></trkpt><trkpt lat="43.05697962466144" lon="12.213458661005768"><ele>233.0</ele><time>2026-04-19T16:34:56.001Z</time></trkpt><trkpt lat="43.0568250568565" lon="12.213512888859995"><ele>233.0</ele><time>2026-04-19T16:34:57.001Z</time></trkpt><trkpt lat="43.05668072904155" lon="12.213606003930686"><ele>233.0</ele><time>2026-04-19T16:34:58.001Z</time></trkpt><trkpt lat="43.05655513034396" lon="12.213733585186555"><ele>232.66666666666669</ele><time>2026-04-19T16:34:59.001Z</time></trkpt><trkpt lat="43.056438960144256" lon="12.213898286113182"><ele>232.33333333333331</ele><time>2026-04-19T16:35:00.002Z</time></trkpt><trkpt lat="43.05633341851638" lon="12.214075738244752"><ele>232.0</ele><time>2026-04-19T16:35:01.002Z</time></trkpt><trkpt lat="43.05622376827664" lon="12.214271688914659"><ele>232.66666666666666</ele><time>2026-04-19T16:35:02.002Z</time></trkpt><trkpt lat="43.05609868102707" lon="12.214465774106603"><ele>233.33333333333331</ele><time>2026-04-19T16:35:03.002Z</time></trkpt><trkpt lat="43.055976050649626" lon="12.214668030616101"><ele>234.0</ele><time>2026-04-19T16:35:04.002Z</time></trkpt><trkpt lat="43.05586632228646" lon="12.214874338605053"><ele>234.0</ele><time>2026-04-19T16:35:05.002Z</time></trkpt><trkpt lat="43.05573801517794" lon="12.21508393015384"><ele>234.0</ele><time>2026-04-19T16:35:06.002Z</time></trkpt><trkpt lat="43.0556056479781" lon="12.215300679126294"><ele>234.0</ele><time>2026-04-19T16:35:07.002Z</time></trkpt><trkpt lat="43.05547625407258" lon="12.215516802371646"><ele>233.66666666666669</ele><time>2026-04-19T16:35:08.002Z</time></trkpt><trkpt lat="43.05534463980676" lon="12.215726521896386"><ele>233.33333333333334</ele><time>2026-04-19T16:35:09.002Z</time></trkpt><trkpt lat="43.055221447425986" lon="12.215927121123162"><ele>233.0</ele><time>2026-04-19T16:35:10.002Z</time></trkpt><trkpt lat="43.05510258916741" lon="12.216110456016775"><ele>233.0</ele><time>2026-04-19T16:35:11.002Z</time></trkpt><trkpt lat="43.05497046610867" lon="12.216290744470644"><ele>233.0</ele><time>2026-04-19T16:35:12.002Z</time></trkpt><trkpt lat="43.05482861311784" lon="12.21645358315841"><ele>233.0</ele><time>2026-04-19T16:35:13.001Z</time></trkpt><trkpt lat="43.05467157428973" lon="12.216605329859487"><ele>232.33333333333334</ele><time>2026-04-19T16:35:14.001Z</time></trkpt><trkpt lat="43.054491280935075" lon="12.216715818724385"><ele>231.66666666666669</ele><time>2026-04-19T16:35:15.001Z</time></trkpt><trkpt lat="43.05432002635513" lon="12.21686273849484"><ele>231.0</ele><time>2026-04-19T16:35:16.001Z</time></trkpt><trkpt lat="43.0541387666874" lon="12.216999917036633"><ele>231.0</ele><time>2026-04-19T16:35:17.001Z</time></trkpt><trkpt lat="43.05395324754518" lon="12.217133379958112"><ele>231.0</ele><time>2026-04-19T16:35:18.001Z</time></trkpt><trkpt lat="43.05376649287595" lon="12.217263753650318"><ele>231.0</ele><time>2026-04-19T16:35:19.001Z</time></trkpt><trkpt lat="43.05357809629364" lon="12.217404079002334"><ele>231.0</ele><time>2026-04-19T16:35:20.001Z</time></trkpt><trkpt lat="43.053393483997624" lon="12.217544545018319"><ele>231.0</ele><time>2026-04-19T16:35:21.001Z</time></trkpt><trkpt lat="43.053214092875535" lon="12.217693701913968"><ele>231.0</ele><time>2026-04-19T16:35:22.001Z</time></trkpt><trkpt lat="43.05303797076253" lon="12.217859189984704"><ele>230.66666666666669</ele><time>2026-04-19T16:35:23.001Z</time></trkpt><trkpt lat="43.05287870052859" lon="12.21804877653545"><ele>230.33333333333334</ele><time>2026-04-19T16:35:24.001Z</time></trkpt><trkpt lat="43.0527329586103" lon="12.218260810001212"><ele>230.0</ele><time>2026-04-19T16:35:25.001Z</time></trkpt><trkpt lat="43.05260735759476" lon="12.218492387160689"><ele>230.0</ele><time>2026-04-19T16:35:26.001Z</time></trkpt><trkpt lat="43.05250642025935" lon="12.21873508984494"><ele>230.0</ele><time>2026-04-19T16:35:27.001Z</time></trkpt><trkpt lat="43.05242967989546" lon="12.218992612588687"><ele>230.0</ele><time>2026-04-19T16:35:28.001Z</time></trkpt><trkpt lat="43.052374533067706" lon="12.219260885387826"><ele>230.0</ele><time>2026-04-19T16:35:29.001Z</time></trkpt><trkpt lat="43.052340695535584" lon="12.219534878560784"><ele>230.0</ele><time>2026-04-19T16:35:30.001Z</time></trkpt><trkpt lat="43.052326060305724" lon="12.2198128421788"><ele>230.0</ele><time>2026-04-19T16:35:31.001Z</time></trkpt><trkpt lat="43.05234048561967" lon="12.22009542116332"><ele>230.0</ele><time>2026-04-19T16:35:32.001Z</time></trkpt><trkpt lat="43.05236799323905" lon="12.220377738272315"><ele>230.0</ele><time>2026-04-19T16:35:33.001Z</time></trkpt><trkpt lat="43.052416884520824" lon="12.220655352118207"><ele>230.0</ele><time>2026-04-19T16:35:34.001Z</time></trkpt><trkpt lat="43.05248534645325" lon="12.220935026211455"><ele>231.0</ele><time>2026-04-19T16:35:35.001Z</time></trkpt><trkpt lat="43.05256095905646" lon="12.221204409670221"><ele>232.0</ele><time>2026-04-19T16:35:36.001Z</time></trkpt><trkpt lat="43.05263897472013" lon="12.22148009820041"><ele>233.0</ele><time>2026-04-19T16:35:37.001Z</time></trkpt><trkpt lat="43.05271058771756" lon="12.221768824274118"><ele>233.33333333333334</ele><time>2026-04-19T16:35:38.001Z</time></trkpt><trkpt lat="43.05278580384016" lon="12.222053974008807"><ele>233.66666666666669</ele><time>2026-04-19T16:35:39.001Z</time></trkpt><trkpt lat="43.05286499428757" lon="12.22234425722435"><ele>234.0</ele><time>2026-04-19T16:35:40.001Z</time></trkpt><trkpt lat="43.05294229223239" lon="12.222628782681266"><ele>234.66666666666669</ele><time>2026-04-19T16:35:41.001Z</time></trkpt><trkpt lat="43.05301989558721" lon="12.222914010114355"><ele>235.33333333333334</ele><time>2026-04-19T16:35:42.001Z</time></trkpt><trkpt lat="43.05309717447181" lon="12.223203446368117"><ele>236.0</ele><time>2026-04-19T16:35:43.001Z</time></trkpt><trkpt lat="43.0531696206639" lon="12.223493517215443"><ele>238.5</ele><time>2026-04-19T16:35:44.001Z</time></trkpt><trkpt lat="43.053241033701376" lon="12.223788270535705"><ele>241.0</ele><time>2026-04-19T16:35:45.001Z</time></trkpt><trkpt lat="43.05331700297212" lon="12.224076036700914"><ele>241.0</ele><time>2026-04-19T16:35:46.001Z</time></trkpt><trkpt lat="43.05339486483248" lon="12.224366130376044"><ele>241.0</ele><time>2026-04-19T16:35:47.001Z</time></trkpt><trkpt lat="43.053470607167164" lon="12.224647190395915"><ele>241.0</ele><time>2026-04-19T16:35:48.001Z</time></trkpt><trkpt lat="43.0535512460633" lon="12.224922155370844"><ele>243.33333333333331</ele><time>2026-04-19T16:35:49.001Z</time></trkpt><trkpt lat="43.0536171761307" lon="12.225193354606896"><ele>245.66666666666669</ele><time>2026-04-19T16:35:50.001Z</time></trkpt><trkpt lat="43.05366390102732" lon="12.22544658512652"><ele>248.0</ele><time>2026-04-19T16:35:51.001Z</time></trkpt><trkpt lat="43.05365398250623" lon="12.225688325335021"><ele>248.66666666666669</ele><time>2026-04-19T16:35:52.001Z</time></trkpt><trkpt lat="43.053623411311385" lon="12.225922980218913"><ele>249.33333333333331</ele><time>2026-04-19T16:35:53.001Z</time></trkpt><trkpt lat="43.053558547337836" lon="12.226150427675726"><ele>250.0</ele><time>2026-04-19T16:35:54.001Z</time></trkpt><trkpt lat="43.053470226676744" lon="12.226366149682601"><ele>249.0</ele><time>2026-04-19T16:35:55.001Z</time></trkpt><trkpt lat="43.05335214280261" lon="12.22656455020438"><ele>248.0</ele><time>2026-04-19T16:35:56.001Z</time></trkpt><trkpt lat="43.053223043293805" lon="12.226766540872891"><ele>247.0</ele><time>2026-04-19T16:35:57.001Z</time></trkpt><trkpt lat="43.05308395542186" lon="12.226954641327751"><ele>250.0</ele><time>2026-04-19T16:35:58.001Z</time></trkpt><trkpt lat="43.05296495327383" lon="12.22713237266932"><ele>253.0</ele><time>2026-04-19T16:35:59.001Z</time></trkpt><trkpt lat="43.052995051600426" lon="12.22749672875055"><ele>256.0</ele><time>2026-04-19T16:36:00.001Z</time></trkpt><trkpt lat="43.0529414395876" lon="12.227762948834128"><ele>256.3333333333333</ele><time>2026-04-19T16:36:01.001Z</time></trkpt><trkpt lat="43.052881305184684" lon="12.228034675120412"><ele>256.6666666666667</ele><time>2026-04-19T16:36:02.001Z</time></trkpt><trkpt lat="43.05281799354949" lon="12.228307368009276"><ele>257.0</ele><time>2026-04-19T16:36:03.001Z</time></trkpt><trkpt lat="43.05275339492253" lon="12.228587171104445"><ele>259.6666666666667</ele><time>2026-04-19T16:36:04.001Z</time></trkpt><trkpt lat="43.05269240896456" lon="12.228866460059958"><ele>262.3333333333333</ele><time>2026-04-19T16:36:05.001Z</time></trkpt><trkpt lat="43.05263000728736" lon="12.229146945956762"><ele>265.0</ele><time>2026-04-19T16:36:06.001Z</time></trkpt><trkpt lat="43.05256374645988" lon="12.229424143422094"><ele>266.0</ele><time>2026-04-19T16:36:07.001Z</time></trkpt><trkpt lat="43.05250535380292" lon="12.229701695844666"><ele>267.0</ele><time>2026-04-19T16:36:08.001Z</time></trkpt><trkpt lat="43.05245094710813" lon="12.229972155204427"><ele>268.0</ele><time>2026-04-19T16:36:09.001Z</time></trkpt><trkpt lat="43.05238959245985" lon="12.230237123617668"><ele>273.3333333333333</ele><time>2026-04-19T16:36:10.001Z</time></trkpt><trkpt lat="43.052332059016514" lon="12.230477236171417"><ele>278.6666666666667</ele><time>2026-04-19T16:36:11.001Z</time></trkpt><trkpt lat="43.052262064420596" lon="12.23070624420829"><ele>284.0</ele><time>2026-04-19T16:36:12.001Z</time></trkpt><trkpt lat="43.05216891868539" lon="12.230939480859027"><ele>284.0</ele><time>2026-04-19T16:36:13.001Z</time></trkpt><trkpt lat="43.05205015295448" lon="12.231134067169583"><ele>284.0</ele><time>2026-04-19T16:36:14.001Z</time></trkpt><trkpt lat="43.051916255240954" lon="12.23132522422523"><ele>284.0</ele><time>2026-04-19T16:36:15.001Z</time></trkpt><trkpt lat="43.05178172273241" lon="12.231515919485606"><ele>283.33333333333337</ele><time>2026-04-19T16:36:16.001Z</time></trkpt><trkpt lat="43.051649631862496" lon="12.231717624820844"><ele>282.6666666666667</ele><time>2026-04-19T16:36:17.001Z</time></trkpt><trkpt lat="43.05152606605096" lon="12.231919731348732"><ele>282.0</ele><time>2026-04-19T16:36:18.001Z</time></trkpt><trkpt lat="43.05139641932721" lon="12.232125669109625"><ele>281.0</ele><time>2026-04-19T16:36:19.001Z</time></trkpt><trkpt lat="43.05126263649762" lon="12.232331783394061"><ele>280.0</ele><time>2026-04-19T16:36:20.001Z</time></trkpt><trkpt lat="43.05113199220682" lon="12.232547409069413"><ele>279.0</ele><time>2026-04-19T16:36:21.001Z</time></trkpt><trkpt lat="43.05099836937016" lon="12.232764309292806"><ele>279.0</ele><time>2026-04-19T16:36:22.001Z</time></trkpt><trkpt lat="43.050866847060576" lon="12.232970298944203"><ele>279.0</ele><time>2026-04-19T16:36:23.001Z</time></trkpt><trkpt lat="43.05074509258505" lon="12.23316536995377"><ele>279.0</ele><time>2026-04-19T16:36:24.001Z</time></trkpt><trkpt lat="43.05062497974229" lon="12.233368424015518"><ele>274.6666666666667</ele><time>2026-04-19T16:36:25.001Z</time></trkpt><trkpt lat="43.05052100419384" lon="12.23355843151808"><ele>270.33333333333337</ele><time>2026-04-19T16:36:26.001Z</time></trkpt><trkpt lat="43.05044437053587" lon="12.233759939848849"><ele>266.0</ele><time>2026-04-19T16:36:27.001Z</time></trkpt><trkpt lat="43.050404311922385" lon="12.233967215989049"><ele>266.33333333333337</ele><time>2026-04-19T16:36:28.001Z</time></trkpt><trkpt lat="43.05038690725596" lon="12.234177908070619"><ele>266.6666666666667</ele><time>2026-04-19T16:36:29.001Z</time></trkpt><trkpt lat="43.0503729873684" lon="12.234389331756873"><ele>267.0</ele><time>2026-04-19T16:36:30.001Z</time></trkpt><trkpt lat="43.050347732641434" lon="12.234594654060961"><ele>267.0</ele><time>2026-04-19T16:36:31.001Z</time></trkpt><trkpt lat="43.05028938013011" lon="12.234786103799378"><ele>267.0</ele><time>2026-04-19T16:36:32.001Z</time></trkpt><trkpt lat="43.05019132772654" lon="12.234956500373915"><ele>267.0</ele><time>2026-04-19T16:36:33.001Z</time></trkpt><trkpt lat="43.050080412243034" lon="12.23508090925533"><ele>267.6666666666667</ele><time>2026-04-19T16:36:34.001Z</time></trkpt><trkpt lat="43.049942442323115" lon="12.23515087312144"><ele>268.33333333333337</ele><time>2026-04-19T16:36:35.001Z</time></trkpt><trkpt lat="43.04979430613643" lon="12.23517628580077"><ele>269.0</ele><time>2026-04-19T16:36:36.001Z</time></trkpt><trkpt lat="43.04964101406541" lon="12.235173614783262"><ele>269.0</ele><time>2026-04-19T16:36:37.001Z</time></trkpt><trkpt lat="43.049487323497424" lon="12.235167491569605"><ele>269.0</ele><time>2026-04-19T16:36:38.001Z</time></trkpt><trkpt lat="43.049195794209304" lon="12.235238331292498"><ele>267.6666666666667</ele><time>2026-04-19T16:36:40.001Z</time></trkpt><trkpt lat="43.04907434607021" lon="12.235334677796189"><ele>266.3333333333333</ele><time>2026-04-19T16:36:41.001Z</time></trkpt><trkpt lat="43.04895351134577" lon="12.235478318746237"><ele>265.0</ele><time>2026-04-19T16:36:42.001Z</time></trkpt><trkpt lat="43.04883324109783" lon="12.23560585661763"><ele>268.66666666666663</ele><time>2026-04-19T16:36:43.001Z</time></trkpt><trkpt lat="43.04870176894768" lon="12.235730571715457"><ele>272.3333333333333</ele><time>2026-04-19T16:36:44.001Z</time></trkpt><trkpt lat="43.048569011588434" lon="12.235859135682418"><ele>276.0</ele><time>2026-04-19T16:36:45.001Z</time></trkpt><trkpt lat="43.04843613498615" lon="12.235985979441526"><ele>276.0</ele><time>2026-04-19T16:36:46.001Z</time></trkpt><trkpt lat="43.04830427896066" lon="12.236108274302673"><ele>276.0</ele><time>2026-04-19T16:36:47.001Z</time></trkpt><trkpt lat="43.04816280810275" lon="12.236219077995171"><ele>276.0</ele><time>2026-04-19T16:36:48.001Z</time></trkpt><trkpt lat="43.0480126318091" lon="12.236322648117604"><ele>276.25</ele><time>2026-04-19T16:36:49.001Z</time></trkpt><trkpt lat="43.04786569390183" lon="12.236406475416722"><ele>276.5</ele><time>2026-04-19T16:36:50.001Z</time></trkpt><trkpt lat="43.04773070976239" lon="12.236479281021522"><ele>276.75</ele><time>2026-04-19T16:36:51.001Z</time></trkpt><trkpt lat="43.04760575248315" lon="12.236540210807371"><ele>277.0</ele><time>2026-04-19T16:36:52.001Z</time></trkpt><trkpt lat="43.04749719804808" lon="12.236586864410153"><ele>275.2</ele><time>2026-04-19T16:36:53.001Z</time></trkpt><trkpt lat="43.047404135491924" lon="12.236605104478048"><ele>273.4</ele><time>2026-04-19T16:36:54.001Z</time></trkpt><trkpt lat="43.04732392105296" lon="12.236587893525831"><ele>271.6</ele><time>2026-04-19T16:36:55.001Z</time></trkpt><trkpt lat="43.04725078934918" lon="12.236551402283474"><ele>269.8</ele><time>2026-04-19T16:36:56.001Z</time></trkpt><trkpt lat="43.0471844892173" lon="12.236537898772232"><ele>268.0</ele><time>2026-04-19T16:36:57.001Z</time></trkpt><trkpt lat="43.04709056497666" lon="12.23666972006538"><ele>268.0</ele><time>2026-04-19T16:36:59.001Z</time></trkpt><trkpt lat="43.04706995300906" lon="12.236798352792688"><ele>268.0</ele><time>2026-04-19T16:37:00.001Z</time></trkpt><trkpt lat="43.04705695324271" lon="12.23695484455997"><ele>268.0</ele><time>2026-04-19T16:37:01.001Z</time></trkpt><trkpt lat="43.04702537940511" lon="12.237106318345393"><ele>268.0</ele><time>2026-04-19T16:37:02.001Z</time></trkpt><trkpt lat="43.046968980368256" lon="12.23728567965916"><ele>268.0</ele><time>2026-04-19T16:37:03.001Z</time></trkpt><trkpt lat="43.04690615983771" lon="12.237479958107741"><ele>268.0</ele><time>2026-04-19T16:37:04.001Z</time></trkpt><trkpt lat="43.046840531047906" lon="12.237675335736284"><ele>268.0</ele><time>2026-04-19T16:37:05.001Z</time></trkpt><trkpt lat="43.046770340014085" lon="12.23788411337942"><ele>268.0</ele><time>2026-04-19T16:37:06.002Z</time></trkpt><trkpt lat="43.046700792642795" lon="12.238081142616108"><ele>268.0</ele><time>2026-04-19T16:37:07.002Z</time></trkpt><trkpt lat="43.04663243095799" lon="12.238253606413068"><ele>268.0</ele><time>2026-04-19T16:37:08.002Z</time></trkpt><trkpt lat="43.046551733329395" lon="12.23840143845439"><ele>268.0</ele><time>2026-04-19T16:37:09.002Z</time></trkpt><trkpt lat="43.046445501349154" lon="12.238513446730146"><ele>267.25</ele><time>2026-04-19T16:37:10.002Z</time></trkpt><trkpt lat="43.04632442262637" lon="12.238581389932813"><ele>266.5</ele><time>2026-04-19T16:37:11.002Z</time></trkpt><trkpt lat="43.046191091279056" lon="12.23861176022938"><ele>265.75</ele><time>2026-04-19T16:37:12.002Z</time></trkpt><trkpt lat="43.04604945914792" lon="12.2385982817246"><ele>265.0</ele><time>2026-04-19T16:37:13.002Z</time></trkpt><trkpt lat="43.0459123058008" lon="12.23851803850913"><ele>264.5</ele><time>2026-04-19T16:37:14.002Z</time></trkpt><trkpt lat="43.04579319942074" lon="12.238422256391207"><ele>264.0</ele><time>2026-04-19T16:37:15.002Z</time></trkpt><trkpt lat="43.045683017200496" lon="12.238316617434501"><ele>263.5</ele><time>2026-04-19T16:37:16.002Z</time></trkpt><trkpt lat="43.04557294544396" lon="12.238221498024377"><ele>263.0</ele><time>2026-04-19T16:37:17.002Z</time></trkpt><trkpt lat="43.045451695109094" lon="12.23812644382434"><ele>261.33333333333337</ele><time>2026-04-19T16:37:18.001Z</time></trkpt><trkpt lat="43.045315273764174" lon="12.238033990067317"><ele>259.6666666666667</ele><time>2026-04-19T16:37:19.001Z</time></trkpt><trkpt lat="43.0451732258276" lon="12.237928484781621"><ele>258.0</ele><time>2026-04-19T16:37:20.001Z</time></trkpt><trkpt lat="43.04501687644268" lon="12.237822783073115"><ele>257.0</ele><time>2026-04-19T16:37:21.001Z</time></trkpt><trkpt lat="43.044846834519674" lon="12.237726033571183"><ele>256.0</ele><time>2026-04-19T16:37:22.001Z</time></trkpt><trkpt lat="43.04466034767113" lon="12.237657264283236"><ele>255.0</ele><time>2026-04-19T16:37:23.001Z</time></trkpt><trkpt lat="43.044468429731594" lon="12.237614917677096"><ele>255.0</ele><time>2026-04-19T16:37:24.001Z</time></trkpt><trkpt lat="43.04427138548031" lon="12.237582497052525"><ele>255.0</ele><time>2026-04-19T16:37:25.001Z</time></trkpt><trkpt lat="43.044080290417" lon="12.237555348333153"><ele>255.0</ele><time>2026-04-19T16:37:26.001Z</time></trkpt><trkpt lat="43.04388802113813" lon="12.237527040476142"><ele>253.66666666666669</ele><time>2026-04-19T16:37:27.001Z</time></trkpt><trkpt lat="43.043684505243846" lon="12.23753426599865"><ele>252.33333333333334</ele><time>2026-04-19T16:37:28.001Z</time></trkpt><trkpt lat="43.043500055994315" lon="12.237556232532091"><ele>251.0</ele><time>2026-04-19T16:37:29.001Z</time></trkpt><trkpt lat="43.04334274198177" lon="12.237574580055993"><ele>251.00000000000003</ele><time>2026-04-19T16:37:30.001Z</time></trkpt><trkpt lat="43.04324109175494" lon="12.23758123365493"><ele>251.0</ele><time>2026-04-19T16:37:31.001Z</time></trkpt><trkpt lat="43.043166688614825" lon="12.23758616298274"><ele>251.0</ele><time>2026-04-19T16:37:32.001Z</time></trkpt><trkpt lat="43.04310080546783" lon="12.237598304851428"><ele>251.0</ele><time>2026-04-19T16:37:34.001Z</time></trkpt><trkpt lat="43.04320105048462" lon="12.237600593278243"><ele>251.00000000000003</ele><time>2026-04-19T16:37:38.001Z</time></trkpt><trkpt lat="43.04328690916671" lon="12.23764183685242"><ele>251.0</ele><time>2026-04-19T16:37:39.001Z</time></trkpt><trkpt lat="43.04338348945368" lon="12.237614006899795"><ele>251.0</ele><time>2026-04-19T16:37:40.001Z</time></trkpt><trkpt lat="43.043485684213884" lon="12.23759752417043"><ele>251.0</ele><time>2026-04-19T16:37:41.001Z</time></trkpt><trkpt lat="43.04361581365721" lon="12.237579544604172"><ele>251.0</ele><time>2026-04-19T16:37:42.001Z</time></trkpt><trkpt lat="43.04376167558975" lon="12.237571746579018"><ele>251.0</ele><time>2026-04-19T16:37:43.001Z</time></trkpt><trkpt lat="43.04393232709285" lon="12.237592784753533"><ele>251.0</ele><time>2026-04-19T16:37:44.001Z</time></trkpt><trkpt lat="43.044119037099385" lon="12.237595208202453"><ele>251.0</ele><time>2026-04-19T16:37:45.001Z</time></trkpt><trkpt lat="43.0442991486466" lon="12.237654262596328"><ele>251.0</ele><time>2026-04-19T16:37:46.001Z</time></trkpt><trkpt lat="43.044487661010095" lon="12.237689680079402"><ele>252.33333333333334</ele><time>2026-04-19T16:37:47.001Z</time></trkpt><trkpt lat="43.04466938494224" lon="12.237713007162291"><ele>253.66666666666669</ele><time>2026-04-19T16:37:48.001Z</time></trkpt><trkpt lat="43.04484123231402" lon="12.23778908371145"><ele>255.0</ele><time>2026-04-19T16:37:49.001Z</time></trkpt><trkpt lat="43.044973193606104" lon="12.23786341178628"><ele>255.6</ele><time>2026-04-19T16:37:50.001Z</time></trkpt><trkpt lat="43.045092901952074" lon="12.237942673841276"><ele>256.2</ele><time>2026-04-19T16:37:51.001Z</time></trkpt><trkpt lat="43.04519065376244" lon="12.238012633461075"><ele>256.8</ele><time>2026-04-19T16:37:52.001Z</time></trkpt><trkpt lat="43.045268757477295" lon="12.2380683309799"><ele>257.4</ele><time>2026-04-19T16:37:53.001Z</time></trkpt><trkpt lat="43.04534283799621" lon="12.238121159501437"><ele>258.0</ele><time>2026-04-19T16:37:55.001Z</time></trkpt><trkpt lat="43.04543044660757" lon="12.23792548845359"><ele>258.0</ele><time>2026-04-19T16:37:56.001Z</time></trkpt><trkpt lat="43.04545395280471" lon="12.23782574817621"><ele>258.0</ele><time>2026-04-19T16:37:57.001Z</time></trkpt><trkpt lat="43.04547823846665" lon="12.237719606115911"><ele>258.0</ele><time>2026-04-19T16:37:58.001Z</time></trkpt><trkpt lat="43.04551790068448" lon="12.237604277003365"><ele>258.0</ele><time>2026-04-19T16:37:59.001Z</time></trkpt><trkpt lat="43.04557025549642" lon="12.237511053217082"><ele>258.0</ele><time>2026-04-19T16:38:00.001Z</time></trkpt><trkpt lat="43.04564217807458" lon="12.237448563707144"><ele>258.0</ele><time>2026-04-19T16:38:01.001Z</time></trkpt><trkpt lat="43.045717953954146" lon="12.237422359751607"><ele>258.0</ele><time>2026-04-19T16:38:02.001Z</time></trkpt><trkpt lat="43.04579089410784" lon="12.237407530351078"><ele>258.0</ele><time>2026-04-19T16:38:04.001Z</time></trkpt><trkpt lat="43.04588095905034" lon="12.237431488730431"><ele>258.0</ele><time>2026-04-19T16:38:12.001Z</time></trkpt><trkpt lat="43.04595013809924" lon="12.237427512922995"><ele>258.0</ele><time>2026-04-19T16:38:13.001Z</time></trkpt><trkpt lat="43.04605257993724" lon="12.237559423527983"><ele>258.0</ele><time>2026-04-19T16:38:14.001Z</time></trkpt><trkpt lat="43.04616601939038" lon="12.237614015486947"><ele>259.0</ele><time>2026-04-19T16:38:15.001Z</time></trkpt><trkpt lat="43.046302653531555" lon="12.237682353755575"><ele>260.0</ele><time>2026-04-19T16:38:16.001Z</time></trkpt><trkpt lat="43.046451509775" lon="12.237760670313886"><ele>261.0</ele><time>2026-04-19T16:38:17.001Z</time></trkpt><trkpt lat="43.046604312149675" lon="12.237839204450932"><ele>263.3333333333333</ele><time>2026-04-19T16:38:18.001Z</time></trkpt><trkpt lat="43.0467546307906" lon="12.237941437063048"><ele>265.66666666666663</ele><time>2026-04-19T16:38:19.001Z</time></trkpt><trkpt lat="43.04691325064501" lon="12.23805001976753"><ele>268.0</ele><time>2026-04-19T16:38:20.001Z</time></trkpt><trkpt lat="43.0470827455811" lon="12.23815562705276"><ele>268.3333333333333</ele><time>2026-04-19T16:38:21.001Z</time></trkpt><trkpt lat="43.04725235505391" lon="12.23826704794112"><ele>268.6666666666667</ele><time>2026-04-19T16:38:22.001Z</time></trkpt><trkpt lat="43.04743422899623" lon="12.238387202879938"><ele>269.0</ele><time>2026-04-19T16:38:23.001Z</time></trkpt><trkpt lat="43.047621311678085" lon="12.238506216058273"><ele>270.33333333333337</ele><time>2026-04-19T16:38:24.001Z</time></trkpt><trkpt lat="43.04781461737127" lon="12.238628712651368"><ele>271.6666666666667</ele><time>2026-04-19T16:38:25.001Z</time></trkpt><trkpt lat="43.04800621375372" lon="12.238750631329681"><ele>273.0</ele><time>2026-04-19T16:38:26.001Z</time></trkpt><trkpt lat="43.048198961774084" lon="12.23887320672423"><ele>271.6666666666667</ele><time>2026-04-19T16:38:27.001Z</time></trkpt><trkpt lat="43.048391681053346" lon="12.238996231426276"><ele>270.33333333333337</ele><time>2026-04-19T16:38:28.001Z</time></trkpt><trkpt lat="43.04858294238285" lon="12.239121759955923"><ele>269.0</ele><time>2026-04-19T16:38:29.001Z</time></trkpt><trkpt lat="43.04877553228822" lon="12.239256243660321"><ele>269.0</ele><time>2026-04-19T16:38:30.001Z</time></trkpt><trkpt lat="43.048957073961546" lon="12.239389556302777"><ele>269.0</ele><time>2026-04-19T16:38:31.001Z</time></trkpt><trkpt lat="43.04913945094731" lon="12.23952948260556"><ele>269.0</ele><time>2026-04-19T16:38:32.001Z</time></trkpt><trkpt lat="43.04932033453994" lon="12.239674480804469"><ele>267.0</ele><time>2026-04-19T16:38:33.001Z</time></trkpt><trkpt lat="43.04949692354638" lon="12.239814167978048"><ele>265.0</ele><time>2026-04-19T16:38:34.001Z</time></trkpt><trkpt lat="43.049678191314214" lon="12.239961679113808"><ele>263.0</ele><time>2026-04-19T16:38:35.001Z</time></trkpt><trkpt lat="43.04985692028114" lon="12.240108759054914"><ele>262.33333333333337</ele><time>2026-04-19T16:38:36.001Z</time></trkpt><trkpt lat="43.050035843277364" lon="12.240252727624814"><ele>261.6666666666667</ele><time>2026-04-19T16:38:37.001Z</time></trkpt><trkpt lat="43.05021568979747" lon="12.240393160768644"><ele>261.0</ele><time>2026-04-19T16:38:38.001Z</time></trkpt><trkpt lat="43.050387094910214" lon="12.240526062146909"><ele>261.0</ele><time>2026-04-19T16:38:39.001Z</time></trkpt><trkpt lat="43.05055740616082" lon="12.240632220129614"><ele>261.0</ele><time>2026-04-19T16:38:40.001Z</time></trkpt><trkpt lat="43.050736035208025" lon="12.240697740355195"><ele>261.0</ele><time>2026-04-19T16:38:41.001Z</time></trkpt><trkpt lat="43.050914882623694" lon="12.240739944743368"><ele>257.3333333333333</ele><time>2026-04-19T16:38:42.001Z</time></trkpt><trkpt lat="43.0510962376006" lon="12.240778578767115"><ele>253.66666666666666</ele><time>2026-04-19T16:38:43.001Z</time></trkpt><trkpt lat="43.05127951812022" lon="12.240817880823638"><ele>250.0</ele><time>2026-04-19T16:38:44.001Z</time></trkpt><trkpt lat="43.05145746549625" lon="12.2408528969599"><ele>250.0</ele><time>2026-04-19T16:38:45.001Z</time></trkpt><trkpt lat="43.05163661810393" lon="12.240903468150428"><ele>250.0</ele><time>2026-04-19T16:38:46.001Z</time></trkpt><trkpt lat="43.051755944673275" lon="12.240995673483773"><ele>250.0</ele><time>2026-04-19T16:38:47.001Z</time></trkpt><trkpt lat="43.051867811738404" lon="12.24110950265176"><ele>250.0</ele><time>2026-04-19T16:38:48.001Z</time></trkpt><trkpt lat="43.05194738618749" lon="12.24125633301236"><ele>250.0</ele><time>2026-04-19T16:38:49.001Z</time></trkpt><trkpt lat="43.052012454175525" lon="12.241429381558527"><ele>250.0</ele><time>2026-04-19T16:38:50.001Z</time></trkpt><trkpt lat="43.05199451869479" lon="12.241637072389823"><ele>250.0</ele><time>2026-04-19T16:38:51.001Z</time></trkpt><trkpt lat="43.05194993786734" lon="12.241828917168071"><ele>247.33333333333331</ele><time>2026-04-19T16:38:52.001Z</time></trkpt><trkpt lat="43.051882771325864" lon="12.24202779018603"><ele>244.66666666666669</ele><time>2026-04-19T16:38:53.001Z</time></trkpt><trkpt lat="43.05181514655642" lon="12.242246130843464"><ele>242.0</ele><time>2026-04-19T16:38:54.001Z</time></trkpt><trkpt lat="43.05173289503935" lon="12.24245998372423"><ele>240.66666666666669</ele><time>2026-04-19T16:38:55.001Z</time></trkpt><trkpt lat="43.05165697408726" lon="12.24267788748719"><ele>239.33333333333331</ele><time>2026-04-19T16:38:56.001Z</time></trkpt><trkpt lat="43.0515923950347" lon="12.24287844434684"><ele>238.0</ele><time>2026-04-19T16:38:57.001Z</time></trkpt><trkpt lat="43.051547991035086" lon="12.24308702551153"><ele>237.33333333333331</ele><time>2026-04-19T16:38:58.001Z</time></trkpt><trkpt lat="43.0515428621241" lon="12.243306766286047"><ele>236.66666666666669</ele><time>2026-04-19T16:38:59.001Z</time></trkpt><trkpt lat="43.051578498336134" lon="12.243542701731416"><ele>236.0</ele><time>2026-04-19T16:39:00.001Z</time></trkpt><trkpt lat="43.05163876143806" lon="12.24378642286017"><ele>236.0</ele><time>2026-04-19T16:39:01.001Z</time></trkpt><trkpt lat="43.051702559571616" lon="12.244036172920152"><ele>236.0</ele><time>2026-04-19T16:39:02.001Z</time></trkpt><trkpt lat="43.05176254846431" lon="12.244295676358341"><ele>236.0</ele><time>2026-04-19T16:39:03.001Z</time></trkpt><trkpt lat="43.05181768880583" lon="12.244557360317366"><ele>235.0</ele><time>2026-04-19T16:39:04.001Z</time></trkpt><trkpt lat="43.05187137669213" lon="12.244820895548232"><ele>234.0</ele><time>2026-04-19T16:39:05.001Z</time></trkpt><trkpt lat="43.051924918297445" lon="12.245089442988737"><ele>233.0</ele><time>2026-04-19T16:39:06.001Z</time></trkpt><trkpt lat="43.05197537115857" lon="12.245359449648932"><ele>232.66666666666669</ele><time>2026-04-19T16:39:07.001Z</time></trkpt><trkpt lat="43.052026847926435" lon="12.245630925529479"><ele>232.33333333333331</ele><time>2026-04-19T16:39:08.001Z</time></trkpt><trkpt lat="43.0520759847545" lon="12.245900733998553"><ele>232.0</ele><time>2026-04-19T16:39:09.001Z</time></trkpt><trkpt lat="43.05212343815413" lon="12.246175319005845"><ele>232.0</ele><time>2026-04-19T16:39:10.001Z</time></trkpt><trkpt lat="43.05216101330246" lon="12.246451090636633"><ele>232.0</ele><time>2026-04-19T16:39:11.001Z</time></trkpt><trkpt lat="43.05217204862317" lon="12.24673305568678"><ele>232.0</ele><time>2026-04-19T16:39:12.001Z</time></trkpt><trkpt lat="43.052207780964174" lon="12.247011220275123"><ele>231.66666666666666</ele><time>2026-04-19T16:39:13.001Z</time></trkpt><trkpt lat="43.05222892150024" lon="12.247293703250596"><ele>231.33333333333331</ele><time>2026-04-19T16:39:14.001Z</time></trkpt><trkpt lat="43.05225819446778" lon="12.247572282697627"><ele>231.0</ele><time>2026-04-19T16:39:15.001Z</time></trkpt><trkpt lat="43.052296400163925" lon="12.247851557040178"><ele>232.0</ele><time>2026-04-19T16:39:16.001Z</time></trkpt><trkpt lat="43.05235025522472" lon="12.248124669171801"><ele>233.0</ele><time>2026-04-19T16:39:17.002Z</time></trkpt><trkpt lat="43.05241110093096" lon="12.248396052120864"><ele>234.0</ele><time>2026-04-19T16:39:18.002Z</time></trkpt><trkpt lat="43.05247408595931" lon="12.248668681788855"><ele>231.0</ele><time>2026-04-19T16:39:19.002Z</time></trkpt><trkpt lat="43.052534020119204" lon="12.248941216253185"><ele>228.0</ele><time>2026-04-19T16:39:20.002Z</time></trkpt><trkpt lat="43.052590910421195" lon="12.249214280965225"><ele>225.0</ele><time>2026-04-19T16:39:21.002Z</time></trkpt><trkpt lat="43.05264736935609" lon="12.249482862332924"><ele>225.0</ele><time>2026-04-19T16:39:22.002Z</time></trkpt><trkpt lat="43.05270076046223" lon="12.249754001513857"><ele>225.0</ele><time>2026-04-19T16:39:23.002Z</time></trkpt><trkpt lat="43.0527569961995" lon="12.250021571699294"><ele>225.0</ele><time>2026-04-19T16:39:24.001Z</time></trkpt><trkpt lat="43.052809894666204" lon="12.250288980361136"><ele>224.66666666666669</ele><time>2026-04-19T16:39:25.001Z</time></trkpt><trkpt lat="43.052864605632614" lon="12.250557136113933"><ele>224.33333333333334</ele><time>2026-04-19T16:39:26.001Z</time></trkpt><trkpt lat="43.05291807337853" lon="12.250824859534875"><ele>224.0</ele><time>2026-04-19T16:39:27.001Z</time></trkpt><trkpt lat="43.05297312056923" lon="12.251090172019229"><ele>223.33333333333334</ele><time>2026-04-19T16:39:28.001Z</time></trkpt><trkpt lat="43.05303070639995" lon="12.251354951890901"><ele>222.66666666666669</ele><time>2026-04-19T16:39:29.001Z</time></trkpt><trkpt lat="43.05308871734539" lon="12.251620579049938"><ele>222.0</ele><time>2026-04-19T16:39:30.001Z</time></trkpt><trkpt lat="43.05314407853657" lon="12.251892058750288"><ele>221.66666666666669</ele><time>2026-04-19T16:39:31.001Z</time></trkpt><trkpt lat="43.053200054585986" lon="12.252159413342707"><ele>221.33333333333334</ele><time>2026-04-19T16:39:32.001Z</time></trkpt><trkpt lat="43.05324462472154" lon="12.252412707046231"><ele>221.0</ele><time>2026-04-19T16:39:33Z</time></trkpt><trkpt lat="43.05329919396594" lon="12.252660078628402"><ele>220.33333333333334</ele><time>2026-04-19T16:39:34Z</time></trkpt><trkpt lat="43.053348786215786" lon="12.252906210789416"><ele>219.66666666666669</ele><time>2026-04-19T16:39:35Z</time></trkpt><trkpt lat="43.05340377953183" lon="12.253160636659503"><ele>219.0</ele><time>2026-04-19T16:39:36Z</time></trkpt><trkpt lat="43.05345601786393" lon="12.253419672755872"><ele>218.66666666666669</ele><time>2026-04-19T16:39:37Z</time></trkpt><trkpt lat="43.05351001148073" lon="12.253675341126582"><ele>218.33333333333334</ele><time>2026-04-19T16:39:38Z</time></trkpt><trkpt lat="43.053561371217135" lon="12.253935080128622"><ele>218.0</ele><time>2026-04-19T16:39:39Z</time></trkpt><trkpt lat="43.053617954249425" lon="12.254197086234873"><ele>217.33333333333334</ele><time>2026-04-19T16:39:40Z</time></trkpt><trkpt lat="43.05367548069536" lon="12.254461265740678"><ele>216.66666666666669</ele><time>2026-04-19T16:39:41Z</time></trkpt><trkpt lat="43.05373381352483" lon="12.254724655426337"><ele>216.0</ele><time>2026-04-19T16:39:42Z</time></trkpt><trkpt lat="43.05378871899377" lon="12.254990025758836"><ele>216.0</ele><time>2026-04-19T16:39:43.001Z</time></trkpt><trkpt lat="43.05384206317823" lon="12.25525203443657"><ele>216.0</ele><time>2026-04-19T16:39:44.001Z</time></trkpt><trkpt lat="43.053898254231875" lon="12.25551695059678"><ele>216.0</ele><time>2026-04-19T16:39:45.001Z</time></trkpt><trkpt lat="43.05395300681476" lon="12.255777244870618"><ele>216.33333333333331</ele><time>2026-04-19T16:39:46.001Z</time></trkpt><trkpt lat="43.054011955895184" lon="12.256036576762616"><ele>216.66666666666666</ele><time>2026-04-19T16:39:47.001Z</time></trkpt><trkpt lat="43.054049332761764" lon="12.256290200535693"><ele>217.0</ele><time>2026-04-19T16:39:48.001Z</time></trkpt><trkpt lat="43.05411501271857" lon="12.256518185359996"><ele>217.0</ele><time>2026-04-19T16:39:49.001Z</time></trkpt><trkpt lat="43.05416213782775" lon="12.25674304695577"><ele>217.0</ele><time>2026-04-19T16:39:50.001Z</time></trkpt><trkpt lat="43.054209690802075" lon="12.256963774505564"><ele>217.0</ele><time>2026-04-19T16:39:51.001Z</time></trkpt><trkpt lat="43.05425703328483" lon="12.257173178228083"><ele>216.75</ele><time>2026-04-19T16:39:52.001Z</time></trkpt><trkpt lat="43.05429961053797" lon="12.257373257358493"><ele>216.5</ele><time>2026-04-19T16:39:53.001Z</time></trkpt><trkpt lat="43.05433764613467" lon="12.257565256108482"><ele>216.25</ele><time>2026-04-19T16:39:54.001Z</time></trkpt><trkpt lat="43.05437391530564" lon="12.257747648562015"><ele>216.0</ele><time>2026-04-19T16:39:55.001Z</time></trkpt><trkpt lat="43.05440764564795" lon="12.257915884284335"><ele>216.0</ele><time>2026-04-19T16:39:56.001Z</time></trkpt><trkpt lat="43.054439176787504" lon="12.258075404042524"><ele>216.00000000000003</ele><time>2026-04-19T16:39:57.001Z</time></trkpt><trkpt lat="43.05446433439091" lon="12.258219230564665"><ele>216.00000000000003</ele><time>2026-04-19T16:39:58.001Z</time></trkpt><trkpt lat="43.05448660559083" lon="12.258367536207626"><ele>216.0</ele><time>2026-04-19T16:39:59.001Z</time></trkpt><trkpt lat="43.054512482950315" lon="12.258503591781963"><ele>216.0</ele><time>2026-04-19T16:40:00.001Z</time></trkpt><trkpt lat="43.05452964191174" lon="12.258638538222655"><ele>215.83333333333334</ele><time>2026-04-19T16:40:01.001Z</time></trkpt><trkpt lat="43.0545420536861" lon="12.258766886089191"><ele>215.66666666666669</ele><time>2026-04-19T16:40:02.001Z</time></trkpt><trkpt lat="43.05454881871441" lon="12.258887055473549"><ele>215.5</ele><time>2026-04-19T16:40:03.001Z</time></trkpt><trkpt lat="43.054545065172604" lon="12.259001625476152"><ele>215.33333333333334</ele><time>2026-04-19T16:40:04.001Z</time></trkpt><trkpt lat="43.05453219237939" lon="12.259107238315964"><ele>215.16666666666669</ele><time>2026-04-19T16:40:05.001Z</time></trkpt><trkpt lat="43.05450666085146" lon="12.259204883046527"><ele>215.0</ele><time>2026-04-19T16:40:06.001Z</time></trkpt><trkpt lat="43.05447589932884" lon="12.259291063733928"><ele>214.83333333333334</ele><time>2026-04-19T16:40:07.001Z</time></trkpt><trkpt lat="43.05446038718317" lon="12.25938775035882"><ele>214.66666666666669</ele><time>2026-04-19T16:40:08.001Z</time></trkpt><trkpt lat="43.05446757531718" lon="12.25947770481022"><ele>214.5</ele><time>2026-04-19T16:40:09.001Z</time></trkpt><trkpt lat="43.05450882939214" lon="12.259553094271674"><ele>214.33333333333331</ele><time>2026-04-19T16:40:10.001Z</time></trkpt><trkpt lat="43.05456119014526" lon="12.25961748763154"><ele>214.16666666666666</ele><time>2026-04-19T16:40:11.001Z</time></trkpt><trkpt lat="43.05463785744261" lon="12.259657593611088"><ele>214.0</ele><time>2026-04-19T16:40:12.001Z</time></trkpt><trkpt lat="43.054692688046366" lon="12.25976054663383"><ele>214.2</ele><time>2026-04-19T16:40:13.001Z</time></trkpt><trkpt lat="43.05474577306657" lon="12.259857920866152"><ele>214.39999999999998</ele><time>2026-04-19T16:40:14.001Z</time></trkpt><trkpt lat="43.05478950644795" lon="12.259965961323058"><ele>214.6</ele><time>2026-04-19T16:40:15.001Z</time></trkpt><trkpt lat="43.05483021770014" lon="12.260079213189183"><ele>214.8</ele><time>2026-04-19T16:40:16.001Z</time></trkpt><trkpt lat="43.05486815337813" lon="12.26019673569766"><ele>215.0</ele><time>2026-04-19T16:40:17.001Z</time></trkpt><trkpt lat="43.054904347174556" lon="12.260320010557368"><ele>215.0</ele><time>2026-04-19T16:40:18.001Z</time></trkpt><trkpt lat="43.054935939293216" lon="12.260446444057106"><ele>215.0</ele><time>2026-04-19T16:40:19.001Z</time></trkpt><trkpt lat="43.05496633456606" lon="12.260573703498817"><ele>215.0</ele><time>2026-04-19T16:40:20.001Z</time></trkpt><trkpt lat="43.05499209584632" lon="12.260693164751553"><ele>215.0</ele><time>2026-04-19T16:40:21.001Z</time></trkpt><trkpt lat="43.05501370971507" lon="12.260799374843105"><ele>215.0</ele><time>2026-04-19T16:40:22.001Z</time></trkpt><trkpt lat="43.0550456625353" lon="12.260938747727675"><ele>215.0</ele><time>2026-04-19T16:40:24.001Z</time></trkpt><trkpt lat="43.05505877608493" lon="12.26103347980342"><ele>215.0</ele><time>2026-04-19T16:40:28.001Z</time></trkpt><trkpt lat="43.05507758325876" lon="12.26113405293172"><ele>215.0</ele><time>2026-04-19T16:40:31.001Z</time></trkpt><trkpt lat="43.05511304879159" lon="12.261311430688108"><ele>215.0</ele><time>2026-04-19T16:40:33.001Z</time></trkpt><trkpt lat="43.055137182166156" lon="12.261426490146453"><ele>215.0</ele><time>2026-04-19T16:40:34.001Z</time></trkpt><trkpt lat="43.05516594445691" lon="12.2615603749999"><ele>215.0</ele><time>2026-04-19T16:40:35.001Z</time></trkpt><trkpt lat="43.05520096826088" lon="12.261720301599345"><ele>215.0</ele><time>2026-04-19T16:40:36.001Z</time></trkpt><trkpt lat="43.055238748764886" lon="12.261886062672342"><ele>215.0</ele><time>2026-04-19T16:40:37.001Z</time></trkpt><trkpt lat="43.05525616407218" lon="12.262012388228177"><ele>215.0</ele><time>2026-04-19T16:40:38.001Z</time></trkpt><trkpt lat="43.055291343871055" lon="12.262197653714596"><ele>215.0</ele><time>2026-04-19T16:40:39.001Z</time></trkpt><trkpt lat="43.05533346190561" lon="12.262399587433867"><ele>215.0</ele><time>2026-04-19T16:40:40.001Z</time></trkpt><trkpt lat="43.05538595024984" lon="12.262602904420383"><ele>215.0</ele><time>2026-04-19T16:40:41.001Z</time></trkpt><trkpt lat="43.055432426591956" lon="12.262820571439477"><ele>215.0</ele><time>2026-04-19T16:40:42.001Z</time></trkpt><trkpt lat="43.05548004234407" lon="12.263050527461152"><ele>215.0</ele><time>2026-04-19T16:40:43.001Z</time></trkpt><trkpt lat="43.05553207684246" lon="12.263292032706465"><ele>215.0</ele><time>2026-04-19T16:40:44.001Z</time></trkpt><trkpt lat="43.05558288677929" lon="12.263523282880573"><ele>215.0</ele><time>2026-04-19T16:40:45.001Z</time></trkpt><trkpt lat="43.05562779996407" lon="12.263748394706091"><ele>215.0</ele><time>2026-04-19T16:40:46.001Z</time></trkpt><trkpt lat="43.05567739544128" lon="12.263974120321475"><ele>215.0</ele><time>2026-04-19T16:40:47.001Z</time></trkpt><trkpt lat="43.05572618299761" lon="12.264210699196424"><ele>215.33333333333334</ele><time>2026-04-19T16:40:48.001Z</time></trkpt><trkpt lat="43.05577774242331" lon="12.264453913399372"><ele>215.66666666666669</ele><time>2026-04-19T16:40:49.001Z</time></trkpt><trkpt lat="43.05583098149792" lon="12.264697351549723"><ele>216.0</ele><time>2026-04-19T16:40:50.001Z</time></trkpt><trkpt lat="43.0558854885871" lon="12.26493870526987"><ele>216.0</ele><time>2026-04-19T16:40:51.001Z</time></trkpt><trkpt lat="43.05593777289491" lon="12.265184740505584"><ele>216.0</ele><time>2026-04-19T16:40:52.001Z</time></trkpt><trkpt lat="43.055986047975985" lon="12.265438370340803"><ele>216.0</ele><time>2026-04-19T16:40:53.001Z</time></trkpt><trkpt lat="43.05603576133411" lon="12.265686061650307"><ele>216.0</ele><time>2026-04-19T16:40:54.001Z</time></trkpt><trkpt lat="43.0560884749159" lon="12.265935590164558"><ele>216.0</ele><time>2026-04-19T16:40:55.001Z</time></trkpt><trkpt lat="43.05614151398292" lon="12.266196559430709"><ele>216.0</ele><time>2026-04-19T16:40:56.001Z</time></trkpt><trkpt lat="43.056196902143604" lon="12.266456835118394"><ele>215.66666666666669</ele><time>2026-04-19T16:40:57.001Z</time></trkpt><trkpt lat="43.056249483943134" lon="12.266710698944324"><ele>215.33333333333334</ele><time>2026-04-19T16:40:58.001Z</time></trkpt><trkpt lat="43.05630599554709" lon="12.266976238713754"><ele>215.0</ele><time>2026-04-19T16:40:59.001Z</time></trkpt><trkpt lat="43.05636505067759" lon="12.267240956050061"><ele>215.0</ele><time>2026-04-19T16:41:00.001Z</time></trkpt><trkpt lat="43.056421212794845" lon="12.267501105091819"><ele>215.0</ele><time>2026-04-19T16:41:01.001Z</time></trkpt><trkpt lat="43.05647637337052" lon="12.267768506457017"><ele>215.0</ele><time>2026-04-19T16:41:02.001Z</time></trkpt><trkpt lat="43.0565407769915" lon="12.268029381116103"><ele>215.0</ele><time>2026-04-19T16:41:03.001Z</time></trkpt><trkpt lat="43.05659920799958" lon="12.268291376604388"><ele>215.0</ele><time>2026-04-19T16:41:04.001Z</time></trkpt><trkpt lat="43.056662960027865" lon="12.268531190442333"><ele>215.0</ele><time>2026-04-19T16:41:05.001Z</time></trkpt><trkpt lat="43.05674275586389" lon="12.268750811883734"><ele>214.33333333333334</ele><time>2026-04-19T16:41:06.001Z</time></trkpt><trkpt lat="43.05681423317874" lon="12.268990659436778"><ele>213.66666666666669</ele><time>2026-04-19T16:41:07.001Z</time></trkpt><trkpt lat="43.05689113237619" lon="12.26921712611638"><ele>213.0</ele><time>2026-04-19T16:41:08.001Z</time></trkpt><trkpt lat="43.056982917650934" lon="12.2694391934083"><ele>213.0</ele><time>2026-04-19T16:41:09.001Z</time></trkpt><trkpt lat="43.05708923230082" lon="12.26964828995704"><ele>213.0</ele><time>2026-04-19T16:41:10.001Z</time></trkpt><trkpt lat="43.05719455910769" lon="12.269849351070953"><ele>213.0</ele><time>2026-04-19T16:41:11.001Z</time></trkpt><trkpt lat="43.05730221782049" lon="12.270044096270668"><ele>213.0</ele><time>2026-04-19T16:41:12.001Z</time></trkpt><trkpt lat="43.057417694641344" lon="12.270235600910999"><ele>213.0</ele><time>2026-04-19T16:41:13.001Z</time></trkpt><trkpt lat="43.05752873295128" lon="12.270414937528448"><ele>213.0</ele><time>2026-04-19T16:41:14.001Z</time></trkpt><trkpt lat="43.057640857999786" lon="12.270592569810413"><ele>212.66666666666669</ele><time>2026-04-19T16:41:15.001Z</time></trkpt><trkpt lat="43.057746341844734" lon="12.270750450514207"><ele>212.33333333333334</ele><time>2026-04-19T16:41:16.001Z</time></trkpt><trkpt lat="43.057854733592144" lon="12.270896614946652"><ele>212.0</ele><time>2026-04-19T16:41:17.001Z</time></trkpt><trkpt lat="43.057966736896205" lon="12.271044948328685"><ele>212.0</ele><time>2026-04-19T16:41:18.001Z</time></trkpt><trkpt lat="43.05807185609958" lon="12.271192602277319"><ele>212.0</ele><time>2026-04-19T16:41:19.001Z</time></trkpt><trkpt lat="43.0581739473851" lon="12.271339288141867"><ele>212.0</ele><time>2026-04-19T16:41:20.001Z</time></trkpt><trkpt lat="43.05827617913691" lon="12.271478631494796"><ele>212.0</ele><time>2026-04-19T16:41:21.001Z</time></trkpt><trkpt lat="43.05838930847708" lon="12.271609275367528"><ele>212.5</ele><time>2026-04-19T16:41:22.001Z</time></trkpt><trkpt lat="43.05848929210916" lon="12.271747092153387"><ele>213.0</ele><time>2026-04-19T16:41:23.001Z</time></trkpt><trkpt lat="43.058589491967254" lon="12.271892124055501"><ele>213.5</ele><time>2026-04-19T16:41:24.001Z</time></trkpt><trkpt lat="43.058698721766135" lon="12.272045031184344"><ele>214.0</ele><time>2026-04-19T16:41:25.001Z</time></trkpt><trkpt lat="43.05880841340155" lon="12.2721976817801"><ele>213.66666666666666</ele><time>2026-04-19T16:41:26.001Z</time></trkpt><trkpt lat="43.05892147595006" lon="12.272352396175048"><ele>213.33333333333331</ele><time>2026-04-19T16:41:27.001Z</time></trkpt><trkpt lat="43.059035932897636" lon="12.272505253051728"><ele>213.0</ele><time>2026-04-19T16:41:28.001Z</time></trkpt><trkpt lat="43.05914674750824" lon="12.2726640159283"><ele>213.0</ele><time>2026-04-19T16:41:29.001Z</time></trkpt><trkpt lat="43.05925841364749" lon="12.272822906176293"><ele>213.0</ele><time>2026-04-19T16:41:30Z</time></trkpt><trkpt lat="43.059363803739146" lon="12.27298655791415"><ele>213.0</ele><time>2026-04-19T16:41:31Z</time></trkpt><trkpt lat="43.05946681794019" lon="12.2731495336939"><ele>213.0</ele><time>2026-04-19T16:41:32Z</time></trkpt><trkpt lat="43.05956463171877" lon="12.273309303752246"><ele>213.0</ele><time>2026-04-19T16:41:33Z</time></trkpt><trkpt lat="43.059657220744185" lon="12.273468505480404"><ele>213.0</ele><time>2026-04-19T16:41:34Z</time></trkpt><trkpt lat="43.059730173292316" lon="12.273617203146712"><ele>213.0</ele><time>2026-04-19T16:41:35Z</time></trkpt><trkpt lat="43.059798581555434" lon="12.273763304577729"><ele>213.0</ele><time>2026-04-19T16:41:36Z</time></trkpt><trkpt lat="43.05986074514792" lon="12.273913772118549"><ele>213.0</ele><time>2026-04-19T16:41:37Z</time></trkpt><trkpt lat="43.05991538519773" lon="12.274059131519625"><ele>213.0</ele><time>2026-04-19T16:41:38Z</time></trkpt><trkpt lat="43.05996479194233" lon="12.274193463240938"><ele>213.0</ele><time>2026-04-19T16:41:39Z</time></trkpt><trkpt lat="43.060007191899885" lon="12.274316342488875"><ele>212.8</ele><time>2026-04-19T16:41:40Z</time></trkpt><trkpt lat="43.06004372072558" lon="12.27443855861527"><ele>212.60000000000002</ele><time>2026-04-19T16:41:41Z</time></trkpt><trkpt lat="43.060079420665325" lon="12.27456740454983"><ele>212.39999999999998</ele><time>2026-04-19T16:41:42Z</time></trkpt><trkpt lat="43.06011164469277" lon="12.274700528564022"><ele>212.2</ele><time>2026-04-19T16:41:43Z</time></trkpt><trkpt lat="43.0601402767691" lon="12.274826935809257"><ele>212.0</ele><time>2026-04-19T16:41:44Z</time></trkpt><trkpt lat="43.060167030748815" lon="12.274945471264902"><ele>212.00000000000003</ele><time>2026-04-19T16:41:45Z</time></trkpt><trkpt lat="43.060192453871196" lon="12.275055505909057"><ele>212.0</ele><time>2026-04-19T16:41:46Z</time></trkpt><trkpt lat="43.06021632007161" lon="12.275162463414436"><ele>212.0</ele><time>2026-04-19T16:41:47Z</time></trkpt><trkpt lat="43.060240022957956" lon="12.275261465770987"><ele>212.0</ele><time>2026-04-19T16:41:48Z</time></trkpt><trkpt lat="43.060262605465525" lon="12.275355848577586"><ele>212.00000000000003</ele><time>2026-04-19T16:41:49Z</time></trkpt><trkpt lat="43.06028679979881" lon="12.275451578011026"><ele>212.0</ele><time>2026-04-19T16:41:50Z</time></trkpt><trkpt lat="43.06031161946446" lon="12.275552463370792"><ele>211.8</ele><time>2026-04-19T16:41:51Z</time></trkpt><trkpt lat="43.06032584956604" lon="12.275662976974692"><ele>211.6</ele><time>2026-04-19T16:41:52Z</time></trkpt><trkpt lat="43.06032067578869" lon="12.275796457454401"><ele>211.4</ele><time>2026-04-19T16:41:53Z</time></trkpt><trkpt lat="43.060323644837666" lon="12.275939971946075"><ele>211.20000000000002</ele><time>2026-04-19T16:41:54Z</time></trkpt><trkpt lat="43.06033344420966" lon="12.27609607614329"><ele>211.0</ele><time>2026-04-19T16:41:55Z</time></trkpt><trkpt lat="43.06034094588616" lon="12.276263905365825"><ele>211.33333333333331</ele><time>2026-04-19T16:41:56Z</time></trkpt><trkpt lat="43.06033009050988" lon="12.276471762381712"><ele>211.66666666666669</ele><time>2026-04-19T16:41:57Z</time></trkpt><trkpt lat="43.06026746745577" lon="12.276703500256188"><ele>212.0</ele><time>2026-04-19T16:41:58Z</time></trkpt><trkpt lat="43.06022051878748" lon="12.276964931257636"><ele>212.0</ele><time>2026-04-19T16:41:59Z</time></trkpt><trkpt lat="43.06017413876997" lon="12.277237059554462"><ele>212.0</ele><time>2026-04-19T16:42:00Z</time></trkpt><trkpt lat="43.06012590197701" lon="12.27750551734334"><ele>212.0</ele><time>2026-04-19T16:42:01Z</time></trkpt><trkpt lat="43.06009096424456" lon="12.277782263992767"><ele>211.66666666666669</ele><time>2026-04-19T16:42:02Z</time></trkpt><trkpt lat="43.060029935873224" lon="12.278047853996446"><ele>211.33333333333331</ele><time>2026-04-19T16:42:03Z</time></trkpt><trkpt lat="43.059977070696696" lon="12.278296701220375"><ele>211.0</ele><time>2026-04-19T16:42:04Z</time></trkpt><trkpt lat="43.05993038975683" lon="12.278539480211462"><ele>211.0</ele><time>2026-04-19T16:42:05Z</time></trkpt><trkpt lat="43.05988239946422" lon="12.278777510033477"><ele>211.0</ele><time>2026-04-19T16:42:06.001Z</time></trkpt><trkpt lat="43.059836577657755" lon="12.279005970282139"><ele>211.0</ele><time>2026-04-19T16:42:07.001Z</time></trkpt><trkpt lat="43.05979281354942" lon="12.279220213931067"><ele>211.0</ele><time>2026-04-19T16:42:08.001Z</time></trkpt><trkpt lat="43.059753545179376" lon="12.279430384664062"><ele>211.0</ele><time>2026-04-19T16:42:09.001Z</time></trkpt><trkpt lat="43.05971229630695" lon="12.27963914670675"><ele>211.0</ele><time>2026-04-19T16:42:10.001Z</time></trkpt><trkpt lat="43.059667411261536" lon="12.279837578236783"><ele>211.25</ele><time>2026-04-19T16:42:11.001Z</time></trkpt><trkpt lat="43.059625649799365" lon="12.280036499105691"><ele>211.5</ele><time>2026-04-19T16:42:12.001Z</time></trkpt><trkpt lat="43.059583221493575" lon="12.280231118937122"><ele>211.75</ele><time>2026-04-19T16:42:13.001Z</time></trkpt><trkpt lat="43.059540663562515" lon="12.28042522246675"><ele>212.0</ele><time>2026-04-19T16:42:14.001Z</time></trkpt><trkpt lat="43.05949724852075" lon="12.28061890292223"><ele>212.0</ele><time>2026-04-19T16:42:15.001Z</time></trkpt><trkpt lat="43.05945101708364" lon="12.280815536469685"><ele>212.0</ele><time>2026-04-19T16:42:16.001Z</time></trkpt><trkpt lat="43.059407888804834" lon="12.281007147689994"><ele>212.0</ele><time>2026-04-19T16:42:17.001Z</time></trkpt><trkpt lat="43.05936424763513" lon="12.281197064517336"><ele>212.0</ele><time>2026-04-19T16:42:18.001Z</time></trkpt><trkpt lat="43.05932020901122" lon="12.281387645956489"><ele>212.0</ele><time>2026-04-19T16:42:19.001Z</time></trkpt><trkpt lat="43.05927337925797" lon="12.28158250845788"><ele>212.0</ele><time>2026-04-19T16:42:20.001Z</time></trkpt><trkpt lat="43.05923232651898" lon="12.281778446444227"><ele>212.0</ele><time>2026-04-19T16:42:21.001Z</time></trkpt><trkpt lat="43.05918151453196" lon="12.281988434787385"><ele>212.0</ele><time>2026-04-19T16:42:22.001Z</time></trkpt><trkpt lat="43.059133797757546" lon="12.282199403070777"><ele>212.0</ele><time>2026-04-19T16:42:23.001Z</time></trkpt><trkpt lat="43.059085223955265" lon="12.28240592276868"><ele>212.0</ele><time>2026-04-19T16:42:24.001Z</time></trkpt><trkpt lat="43.059034588056726" lon="12.28261591837716"><ele>212.33333333333334</ele><time>2026-04-19T16:42:25.001Z</time></trkpt><trkpt lat="43.058981257562266" lon="12.282830241739262"><ele>212.66666666666669</ele><time>2026-04-19T16:42:26.001Z</time></trkpt><trkpt lat="43.05892772101748" lon="12.283053445153788"><ele>213.0</ele><time>2026-04-19T16:42:27.001Z</time></trkpt><trkpt lat="43.05887429230001" lon="12.283278266594651"><ele>213.0</ele><time>2026-04-19T16:42:28.001Z</time></trkpt><trkpt lat="43.058821041197845" lon="12.28350775027777"><ele>213.0</ele><time>2026-04-19T16:42:29.001Z</time></trkpt><trkpt lat="43.05876937099838" lon="12.28372938137378"><ele>213.0</ele><time>2026-04-19T16:42:30.001Z</time></trkpt><trkpt lat="43.05871891204687" lon="12.283961213076292"><ele>213.0</ele><time>2026-04-19T16:42:31.001Z</time></trkpt><trkpt lat="43.05867570088719" lon="12.284182882146187"><ele>213.0</ele><time>2026-04-19T16:42:32.001Z</time></trkpt><trkpt lat="43.05863502531775" lon="12.284408167988206"><ele>213.0</ele><time>2026-04-19T16:42:33.001Z</time></trkpt><trkpt lat="43.05860880991318" lon="12.28463150384194"><ele>213.33333333333331</ele><time>2026-04-19T16:42:34.001Z</time></trkpt><trkpt lat="43.058596508922975" lon="12.284857434995397"><ele>213.66666666666666</ele><time>2026-04-19T16:42:35.001Z</time></trkpt><trkpt lat="43.058581929086" lon="12.285084669653559"><ele>214.0</ele><time>2026-04-19T16:42:36.001Z</time></trkpt><trkpt lat="43.0585898185928" lon="12.285321550419743"><ele>214.0</ele><time>2026-04-19T16:42:37.001Z</time></trkpt><trkpt lat="43.058598420491066" lon="12.285552167914522"><ele>214.0</ele><time>2026-04-19T16:42:38.001Z</time></trkpt><trkpt lat="43.05862007613277" lon="12.28575402829465"><ele>214.0</ele><time>2026-04-19T16:42:39.001Z</time></trkpt><trkpt lat="43.05862599670639" lon="12.28596106548157"><ele>214.0</ele><time>2026-04-19T16:42:40.001Z</time></trkpt><trkpt lat="43.05867303768908" lon="12.286166124947194"><ele>214.0</ele><time>2026-04-19T16:42:41.001Z</time></trkpt><trkpt lat="43.058708612103565" lon="12.28637186919403"><ele>214.0</ele><time>2026-04-19T16:42:42.001Z</time></trkpt><trkpt lat="43.05874903433119" lon="12.286578908315946"><ele>214.33333333333331</ele><time>2026-04-19T16:42:43.001Z</time></trkpt><trkpt lat="43.0587977432103" lon="12.286786011223846"><ele>214.66666666666669</ele><time>2026-04-19T16:42:44.001Z</time></trkpt><trkpt lat="43.05885017424996" lon="12.28699879522457"><ele>215.0</ele><time>2026-04-19T16:42:45.001Z</time></trkpt><trkpt lat="43.05890201930215" lon="12.287208054856274"><ele>216.0</ele><time>2026-04-19T16:42:46.001Z</time></trkpt><trkpt lat="43.05895452766261" lon="12.287423989061322"><ele>217.0</ele><time>2026-04-19T16:42:47.001Z</time></trkpt><trkpt lat="43.05899669915647" lon="12.287650553546593"><ele>218.0</ele><time>2026-04-19T16:42:48.001Z</time></trkpt><trkpt lat="43.05905299129104" lon="12.287887583898229"><ele>218.0</ele><time>2026-04-19T16:42:49.001Z</time></trkpt><trkpt lat="43.05911546712925" lon="12.288143711676483"><ele>218.0</ele><time>2026-04-19T16:42:50.001Z</time></trkpt><trkpt lat="43.05917966128616" lon="12.288406514342768"><ele>218.0</ele><time>2026-04-19T16:42:51.001Z</time></trkpt><trkpt lat="43.05924390964321" lon="12.288669927956873"><ele>218.33333333333334</ele><time>2026-04-19T16:42:52.001Z</time></trkpt><trkpt lat="43.059307371312045" lon="12.288930201856022"><ele>218.66666666666669</ele><time>2026-04-19T16:42:53.001Z</time></trkpt><trkpt lat="43.059388176568234" lon="12.289190145716955"><ele>219.0</ele><time>2026-04-19T16:42:54.001Z</time></trkpt><trkpt lat="43.05943765026663" lon="12.289464512547978"><ele>219.0</ele><time>2026-04-19T16:42:55.001Z</time></trkpt><trkpt lat="43.05950318809046" lon="12.289732371082527"><ele>219.0</ele><time>2026-04-19T16:42:56.001Z</time></trkpt><trkpt lat="43.059569589593664" lon="12.29000356077412"><ele>219.0</ele><time>2026-04-19T16:42:57.001Z</time></trkpt><trkpt lat="43.05963740300783" lon="12.290280515712938"><ele>220.0</ele><time>2026-04-19T16:42:58.001Z</time></trkpt><trkpt lat="43.059706143701625" lon="12.2905612628779"><ele>221.0</ele><time>2026-04-19T16:42:59.001Z</time></trkpt><trkpt lat="43.05977048878907" lon="12.2908213133399"><ele>222.0</ele><time>2026-04-19T16:43:00.001Z</time></trkpt><trkpt lat="43.05984452902359" lon="12.291054147039288"><ele>222.33333333333331</ele><time>2026-04-19T16:43:01.001Z</time></trkpt><trkpt lat="43.059895358937744" lon="12.291279026760522"><ele>222.66666666666666</ele><time>2026-04-19T16:43:02.001Z</time></trkpt><trkpt lat="43.05994870352211" lon="12.291502627742657"><ele>223.0</ele><time>2026-04-19T16:43:03.001Z</time></trkpt><trkpt lat="43.059999461712515" lon="12.291715303876071"><ele>223.66666666666666</ele><time>2026-04-19T16:43:04.001Z</time></trkpt><trkpt lat="43.06005064007752" lon="12.291919220158311"><ele>224.33333333333331</ele><time>2026-04-19T16:43:05.001Z</time></trkpt><trkpt lat="43.060105150121736" lon="12.29212879912601"><ele>225.0</ele><time>2026-04-19T16:43:06.001Z</time></trkpt><trkpt lat="43.06017972144947" lon="12.2923493903147"><ele>225.0</ele><time>2026-04-19T16:43:07.001Z</time></trkpt><trkpt lat="43.06024902750061" lon="12.292573130312002"><ele>225.0</ele><time>2026-04-19T16:43:08.001Z</time></trkpt><trkpt lat="43.06031988388655" lon="12.292798461965017"><ele>225.0</ele><time>2026-04-19T16:43:09.001Z</time></trkpt><trkpt lat="43.0603978656905" lon="12.293003612502236"><ele>225.25</ele><time>2026-04-19T16:43:10.001Z</time></trkpt><trkpt lat="43.06047626595057" lon="12.293186653392574"><ele>225.5</ele><time>2026-04-19T16:43:11.001Z</time></trkpt><trkpt lat="43.06055419184884" lon="12.293357762318749"><ele>225.75</ele><time>2026-04-19T16:43:12.001Z</time></trkpt><trkpt lat="43.06062594405294" lon="12.293514187563265"><ele>226.0</ele><time>2026-04-19T16:43:13.001Z</time></trkpt><trkpt lat="43.06069826061425" lon="12.2936643375991"><ele>226.0</ele><time>2026-04-19T16:43:14.001Z</time></trkpt><trkpt lat="43.060771089903525" lon="12.293813820502425"><ele>226.0</ele><time>2026-04-19T16:43:15.001Z</time></trkpt><trkpt lat="43.0608445105287" lon="12.293975236929915"><ele>226.0</ele><time>2026-04-19T16:43:16.001Z</time></trkpt><trkpt lat="43.060917530931206" lon="12.294139196497786"><ele>226.0</ele><time>2026-04-19T16:43:17.001Z</time></trkpt><trkpt lat="43.0609930288941" lon="12.294310872541311"><ele>226.5</ele><time>2026-04-19T16:43:18.001Z</time></trkpt><trkpt lat="43.06106498964455" lon="12.294470211998648"><ele>227.0</ele><time>2026-04-19T16:43:19.001Z</time></trkpt><trkpt lat="43.06112787929402" lon="12.294624568694204"><ele>227.5</ele><time>2026-04-19T16:43:20.001Z</time></trkpt><trkpt lat="43.06118665667358" lon="12.294769380161242"><ele>228.0</ele><time>2026-04-19T16:43:21.001Z</time></trkpt><trkpt lat="43.06124246017768" lon="12.294903538851598"><ele>228.60000000000002</ele><time>2026-04-19T16:43:22.001Z</time></trkpt><trkpt lat="43.06129700019203" lon="12.29503204108069"><ele>229.20000000000002</ele><time>2026-04-19T16:43:23.001Z</time></trkpt><trkpt lat="43.0613526942754" lon="12.295165697218822"><ele>229.8</ele><time>2026-04-19T16:43:24.001Z</time></trkpt><trkpt lat="43.061412554721414" lon="12.295299214213093"><ele>230.4</ele><time>2026-04-19T16:43:25.001Z</time></trkpt><trkpt lat="43.06147172600257" lon="12.29543242164122"><ele>231.0</ele><time>2026-04-19T16:43:26.001Z</time></trkpt><trkpt lat="43.06152907789981" lon="12.29556328067293"><ele>231.16666666666666</ele><time>2026-04-19T16:43:27.001Z</time></trkpt><trkpt lat="43.0615917990183" lon="12.295694182128901"><ele>231.33333333333331</ele><time>2026-04-19T16:43:28.001Z</time></trkpt><trkpt lat="43.061651535302914" lon="12.295818853868102"><ele>231.5</ele><time>2026-04-19T16:43:29.001Z</time></trkpt><trkpt lat="43.06168749056276" lon="12.295933925615286"><ele>231.66666666666666</ele><time>2026-04-19T16:43:30.001Z</time></trkpt><trkpt lat="43.061722953877826" lon="12.296014400947787"><ele>231.83333333333331</ele><time>2026-04-19T16:43:31.001Z</time></trkpt><trkpt lat="43.0617673003411" lon="12.296078287628093"><ele>232.0</ele><time>2026-04-19T16:43:34.001Z</time></trkpt><trkpt lat="43.06191573935866" lon="12.29604512026536"><ele>232.8</ele><time>2026-04-19T16:43:37Z</time></trkpt><trkpt lat="43.06177729291533" lon="12.296137913570702"><ele>233.6</ele><time>2026-04-19T16:43:47Z</time></trkpt><trkpt lat="43.061888979163065" lon="12.296064695426793"><ele>234.40000000000003</ele><time>2026-04-19T16:46:14.001Z</time></trkpt><trkpt lat="43.06187071386645" lon="12.296169932486837"><ele>235.20000000000002</ele><time>2026-04-19T16:46:17.001Z</time></trkpt><trkpt lat="43.06185562624884" lon="12.296281111103733"><ele>236.0</ele><time>2026-04-19T16:46:26.001Z</time></trkpt><trkpt lat="43.06186605053166" lon="12.296379600981535"><ele>236.25</ele><time>2026-04-19T16:46:27.001Z</time></trkpt><trkpt lat="43.06191188952857" lon="12.296499147514673"><ele>236.5</ele><time>2026-04-19T16:46:28.001Z</time></trkpt><trkpt lat="43.061978488079816" lon="12.296630337088608"><ele>236.75</ele><time>2026-04-19T16:46:29.001Z</time></trkpt><trkpt lat="43.06204773147333" lon="12.296772712098699"><ele>237.0</ele><time>2026-04-19T16:46:30.001Z</time></trkpt><trkpt lat="43.06212197135738" lon="12.296936954120168"><ele>237.0</ele><time>2026-04-19T16:46:31.001Z</time></trkpt><trkpt lat="43.062189348598196" lon="12.29708655608729"><ele>237.0</ele><time>2026-04-19T16:46:32.001Z</time></trkpt><trkpt lat="43.06219785384626" lon="12.297267013279784"><ele>237.0</ele><time>2026-04-19T16:46:33.001Z</time></trkpt><trkpt lat="43.06230780941137" lon="12.297338030822349"><ele>237.0</ele><time>2026-04-19T16:46:34.001Z</time></trkpt><trkpt lat="43.06236133798235" lon="12.297447174384656"><ele>237.16666666666666</ele><time>2026-04-19T16:46:35.001Z</time></trkpt><trkpt lat="43.0624097716705" lon="12.297546330151981"><ele>237.33333333333331</ele><time>2026-04-19T16:46:36.001Z</time></trkpt><trkpt lat="43.06245500699514" lon="12.29764158730352"><ele>237.5</ele><time>2026-04-19T16:46:37.001Z</time></trkpt><trkpt lat="43.06249751931558" lon="12.297728769719809"><ele>237.66666666666666</ele><time>2026-04-19T16:46:38.001Z</time></trkpt><trkpt lat="43.062534385123364" lon="12.29781637772363"><ele>237.83333333333331</ele><time>2026-04-19T16:46:39.001Z</time></trkpt><trkpt lat="43.06259588059052" lon="12.297958489080239"><ele>238.0</ele><time>2026-04-19T16:46:41.001Z</time></trkpt><trkpt lat="43.06265145658504" lon="12.298083478686133"><ele>238.0</ele><time>2026-04-19T16:46:43.001Z</time></trkpt><trkpt lat="43.062699321395655" lon="12.29820144253485"><ele>238.0</ele><time>2026-04-19T16:46:45.001Z</time></trkpt><trkpt lat="43.06277065934314" lon="12.298352332136075"><ele>238.0</ele><time>2026-04-19T16:46:47.001Z</time></trkpt><trkpt lat="43.06281991777277" lon="12.298467801313407"><ele>238.0</ele><time>2026-04-19T16:46:48.001Z</time></trkpt><trkpt lat="43.06287914609936" lon="12.298591379383337"><ele>238.0</ele><time>2026-04-19T16:46:49.001Z</time></trkpt><trkpt lat="43.06294331699211" lon="12.298727956515103"><ele>238.0</ele><time>2026-04-19T16:46:50.001Z</time></trkpt><trkpt lat="43.06299367594088" lon="12.298899815501855"><ele>238.0</ele><time>2026-04-19T16:46:51.001Z</time></trkpt><trkpt lat="43.06307742504733" lon="12.299068892798346"><ele>238.0</ele><time>2026-04-19T16:46:52.001Z</time></trkpt><trkpt lat="43.06315181724023" lon="12.299253516107683"><ele>238.0</ele><time>2026-04-19T16:46:53.001Z</time></trkpt><trkpt lat="43.0632402220268" lon="12.299442730131496"><ele>237.66666666666666</ele><time>2026-04-19T16:46:54.001Z</time></trkpt><trkpt lat="43.063326334512276" lon="12.29963993013429"><ele>237.33333333333331</ele><time>2026-04-19T16:46:55.001Z</time></trkpt><trkpt lat="43.06341154985997" lon="12.29983699205341"><ele>237.0</ele><time>2026-04-19T16:46:56.001Z</time></trkpt><trkpt lat="43.06349841550176" lon="12.300032738806248"><ele>237.0</ele><time>2026-04-19T16:46:57.001Z</time></trkpt><trkpt lat="43.06358246171613" lon="12.300228591259392"><ele>237.0</ele><time>2026-04-19T16:46:58.001Z</time></trkpt><trkpt lat="43.06366979614125" lon="12.300424085501945"><ele>237.0</ele><time>2026-04-19T16:46:59.001Z</time></trkpt><trkpt lat="43.063756454859586" lon="12.30062345544275"><ele>237.0</ele><time>2026-04-19T16:47:00.001Z</time></trkpt><trkpt lat="43.063844499737925" lon="12.300820951343697"><ele>237.0</ele><time>2026-04-19T16:47:01.001Z</time></trkpt><trkpt lat="43.063934841247736" lon="12.301023911789777"><ele>237.0</ele><time>2026-04-19T16:47:02.001Z</time></trkpt><trkpt lat="43.06402328898342" lon="12.30122583877744"><ele>237.0</ele><time>2026-04-19T16:47:03.001Z</time></trkpt><trkpt lat="43.064112528228335" lon="12.301423753929047"><ele>237.0</ele><time>2026-04-19T16:47:04.001Z</time></trkpt><trkpt lat="43.064202527394926" lon="12.301626914478817"><ele>237.0</ele><time>2026-04-19T16:47:05.001Z</time></trkpt><trkpt lat="43.064296256633874" lon="12.301828181063708"><ele>237.66666666666669</ele><time>2026-04-19T16:47:06.001Z</time></trkpt><trkpt lat="43.06438721907553" lon="12.30203638170754"><ele>238.33333333333334</ele><time>2026-04-19T16:47:07.001Z</time></trkpt><trkpt lat="43.06447523288728" lon="12.302247903017047"><ele>239.0</ele><time>2026-04-19T16:47:08.001Z</time></trkpt><trkpt lat="43.06456825243013" lon="12.302457302513721"><ele>239.0</ele><time>2026-04-19T16:47:09.001Z</time></trkpt><trkpt lat="43.06466129625039" lon="12.302664122245792"><ele>239.0</ele><time>2026-04-19T16:47:10.001Z</time></trkpt><trkpt lat="43.06475393796425" lon="12.302867930737653"><ele>239.0</ele><time>2026-04-19T16:47:11.001Z</time></trkpt><trkpt lat="43.06484353971177" lon="12.303073332435027"><ele>239.0</ele><time>2026-04-19T16:47:12.001Z</time></trkpt><trkpt lat="43.06493194652686" lon="12.303274895671692"><ele>239.0</ele><time>2026-04-19T16:47:13.001Z</time></trkpt><trkpt lat="43.065018470443256" lon="12.30347028623675"><ele>239.0</ele><time>2026-04-19T16:47:14.001Z</time></trkpt><trkpt lat="43.065107374685674" lon="12.303666800499725"><ele>239.0</ele><time>2026-04-19T16:47:15.001Z</time></trkpt><trkpt lat="43.06519505325935" lon="12.303867592162884"><ele>239.0</ele><time>2026-04-19T16:47:16.001Z</time></trkpt><trkpt lat="43.06528576716663" lon="12.304066440093665"><ele>239.0</ele><time>2026-04-19T16:47:17.001Z</time></trkpt><trkpt lat="43.06537460176285" lon="12.304269922447409"><ele>238.33333333333334</ele><time>2026-04-19T16:47:18.001Z</time></trkpt><trkpt lat="43.06546382567313" lon="12.304479566978527"><ele>237.66666666666669</ele><time>2026-04-19T16:47:19.001Z</time></trkpt><trkpt lat="43.06556205134792" lon="12.30469626377846"><ele>237.0</ele><time>2026-04-19T16:47:20.001Z</time></trkpt><trkpt lat="43.065635589453734" lon="12.304858891308577"><ele>237.0</ele><time>2026-04-19T16:47:21.001Z</time></trkpt><trkpt lat="43.06570860500563" lon="12.305028527002936"><ele>237.0</ele><time>2026-04-19T16:47:22.001Z</time></trkpt><trkpt lat="43.065773156205545" lon="12.305182126797266"><ele>237.0</ele><time>2026-04-19T16:47:23.001Z</time></trkpt><trkpt lat="43.065849883288436" lon="12.305344534879671"><ele>237.0</ele><time>2026-04-19T16:47:24.001Z</time></trkpt><trkpt lat="43.065916780996545" lon="12.305493203782804"><ele>237.39999999999998</ele><time>2026-04-19T16:47:25.001Z</time></trkpt><trkpt lat="43.06598606031432" lon="12.3056446384523"><ele>237.79999999999998</ele><time>2026-04-19T16:47:26.001Z</time></trkpt><trkpt lat="43.06604664325768" lon="12.305782650718537"><ele>238.2</ele><time>2026-04-19T16:47:27.001Z</time></trkpt><trkpt lat="43.06610458202745" lon="12.305916724682024"><ele>238.6</ele><time>2026-04-19T16:47:28.001Z</time></trkpt><trkpt lat="43.06615832518364" lon="12.306010321963338"><ele>239.0</ele><time>2026-04-19T16:47:29.001Z</time></trkpt><trkpt lat="43.06618748191453" lon="12.306113202104216"><ele>239.00000000000003</ele><time>2026-04-19T16:47:30.001Z</time></trkpt><trkpt lat="43.066227216561195" lon="12.306202046681745"><ele>239.0</ele><time>2026-04-19T16:47:32.001Z</time></trkpt><trkpt lat="43.066297415908814" lon="12.306267268558202"><ele>239.0</ele><time>2026-04-19T16:47:34.001Z</time></trkpt><trkpt lat="43.06639277039974" lon="12.30625983778988"><ele>239.0</ele><time>2026-04-19T16:47:36.001Z</time></trkpt><trkpt lat="43.06648496019858" lon="12.3061754606621"><ele>239.00000000000003</ele><time>2026-04-19T16:47:38.001Z</time></trkpt><trkpt lat="43.066548326142545" lon="12.306124929173189"><ele>239.0</ele><time>2026-04-19T16:47:40.001Z</time></trkpt><trkpt lat="43.06653796664514" lon="12.30599096653216"><ele>239.00000000000003</ele><time>2026-04-19T16:47:41.001Z</time></trkpt><trkpt lat="43.06646843576804" lon="12.3059045060853"><ele>239.0</ele><time>2026-04-19T16:47:43.001Z</time></trkpt><trkpt lat="43.0664337171542" lon="12.305812137123425"><ele>239.0</ele><time>2026-04-19T16:47:45.001Z</time></trkpt><trkpt lat="43.06635068609887" lon="12.30584168131086"><ele>239.0</ele><time>2026-04-19T16:47:47.001Z</time></trkpt><trkpt lat="43.06628887232353" lon="12.305797911829684"><ele>239.00000000000003</ele><time>2026-04-19T16:53:32.001Z</time></trkpt><trkpt lat="43.066218826998956" lon="12.305734074354753"><ele>239.0</ele><time>2026-04-19T16:53:34.001Z</time></trkpt><trkpt lat="43.06616076207189" lon="12.305624517892069"><ele>238.6</ele><time>2026-04-19T16:53:36.001Z</time></trkpt><trkpt lat="43.06610242914624" lon="12.305488711658956"><ele>238.2</ele><time>2026-04-19T16:53:38.001Z</time></trkpt><trkpt lat="43.06605064217124" lon="12.305371172822557"><ele>237.79999999999998</ele><time>2026-04-19T16:53:40.001Z</time></trkpt><trkpt lat="43.06598409304934" lon="12.30527367091042"><ele>237.39999999999998</ele><time>2026-04-19T16:53:42.001Z</time></trkpt><trkpt lat="43.06593130891576" lon="12.30518878869249"><ele>237.0</ele><time>2026-04-19T16:53:44.001Z</time></trkpt><trkpt lat="43.065868176415066" lon="12.305190573170517"><ele>237.0</ele><time>2026-04-19T16:53:47.001Z</time></trkpt><trkpt lat="43.065837830013976" lon="12.305270830226343"><ele>237.0</ele><time>2026-04-19T16:53:58.001Z</time></trkpt><trkpt lat="43.06585318892452" lon="12.30537664439137"><ele>237.0</ele><time>2026-04-19T16:53:59.001Z</time></trkpt><trkpt lat="43.065889916957886" lon="12.305473803197613"><ele>237.0</ele><time>2026-04-19T16:54:00.001Z</time></trkpt><trkpt lat="43.0659454786316" lon="12.305586652416112"><ele>237.0</ele><time>2026-04-19T16:54:01.001Z</time></trkpt><trkpt lat="43.066007338317085" lon="12.305715569079767"><ele>237.0</ele><time>2026-04-19T16:54:02.001Z</time></trkpt><trkpt lat="43.066076291795106" lon="12.305864539530297"><ele>237.5</ele><time>2026-04-19T16:54:03.001Z</time></trkpt><trkpt lat="43.06614447505988" lon="12.306019196885325"><ele>238.0</ele><time>2026-04-19T16:54:04.001Z</time></trkpt><trkpt lat="43.0662036253006" lon="12.3061587189563"><ele>238.5</ele><time>2026-04-19T16:54:05.001Z</time></trkpt><trkpt lat="43.06627900352768" lon="12.306316876948246"><ele>239.0</ele><time>2026-04-19T16:54:06Z</time></trkpt><trkpt lat="43.06635314506307" lon="12.306481473814104"><ele>239.75</ele><time>2026-04-19T16:54:07Z</time></trkpt><trkpt lat="43.06643045333473" lon="12.306651828659648"><ele>240.5</ele><time>2026-04-19T16:54:08Z</time></trkpt><trkpt lat="43.06651085766299" lon="12.30682654237876"><ele>241.25</ele><time>2026-04-19T16:54:09Z</time></trkpt><trkpt lat="43.06658853425269" lon="12.307002304425176"><ele>242.0</ele><time>2026-04-19T16:54:10Z</time></trkpt><trkpt lat="43.066667421833515" lon="12.307180670914049"><ele>242.5</ele><time>2026-04-19T16:54:11Z</time></trkpt><trkpt lat="43.06674490678711" lon="12.307357748122655"><ele>243.0</ele><time>2026-04-19T16:54:12Z</time></trkpt><trkpt lat="43.066824470574176" lon="12.307526861598761"><ele>243.5</ele><time>2026-04-19T16:54:13Z</time></trkpt><trkpt lat="43.06689897195315" lon="12.30769907854277"><ele>244.0</ele><time>2026-04-19T16:54:14Z</time></trkpt><trkpt lat="43.066978684899404" lon="12.307875713626494"><ele>244.0</ele><time>2026-04-19T16:54:15Z</time></trkpt><trkpt lat="43.06705720898913" lon="12.308050510549329"><ele>244.0</ele><time>2026-04-19T16:54:16Z</time></trkpt><trkpt lat="43.067139428104724" lon="12.308227855484832"><ele>244.0</ele><time>2026-04-19T16:54:17Z</time></trkpt><trkpt lat="43.06722128814121" lon="12.308407712485332"><ele>244.66666666666666</ele><time>2026-04-19T16:54:18Z</time></trkpt><trkpt lat="43.06730517244744" lon="12.308588984724395"><ele>245.33333333333331</ele><time>2026-04-19T16:54:19Z</time></trkpt><trkpt lat="43.06739194612159" lon="12.308773365781368"><ele>246.0</ele><time>2026-04-19T16:54:20Z</time></trkpt><trkpt lat="43.06747463623563" lon="12.308961148479822"><ele>246.0</ele><time>2026-04-19T16:54:21Z</time></trkpt><trkpt lat="43.06756401873613" lon="12.309151809227359"><ele>246.0</ele><time>2026-04-19T16:54:22Z</time></trkpt><trkpt lat="43.067655723366755" lon="12.309344020299358"><ele>246.0</ele><time>2026-04-19T16:54:23Z</time></trkpt><trkpt lat="43.06774441137382" lon="12.309534903588844"><ele>246.0</ele><time>2026-04-19T16:54:24Z</time></trkpt><trkpt lat="43.067828396546496" lon="12.309716462812085"><ele>246.0</ele><time>2026-04-19T16:54:25Z</time></trkpt><trkpt lat="43.06790960051686" lon="12.309895261542218"><ele>246.0</ele><time>2026-04-19T16:54:26Z</time></trkpt><trkpt lat="43.0679863006225" lon="12.310068926121533"><ele>244.5</ele><time>2026-04-19T16:54:27Z</time></trkpt><trkpt lat="43.068063508079156" lon="12.310236136337513"><ele>243.0</ele><time>2026-04-19T16:54:28Z</time></trkpt><trkpt lat="43.06813770948523" lon="12.310397163541342"><ele>241.5</ele><time>2026-04-19T16:54:29Z</time></trkpt><trkpt lat="43.068209968795216" lon="12.31055643173253"><ele>240.0</ele><time>2026-04-19T16:54:30Z</time></trkpt><trkpt lat="43.068279284936004" lon="12.31070926644537"><ele>240.0</ele><time>2026-04-19T16:54:31Z</time></trkpt><trkpt lat="43.0683409225982" lon="12.310845305303346"><ele>240.0</ele><time>2026-04-19T16:54:32Z</time></trkpt><trkpt lat="43.06839096902508" lon="12.310972761509841"><ele>240.0</ele><time>2026-04-19T16:54:33Z</time></trkpt><trkpt lat="43.06843235559213" lon="12.31109030948284"><ele>240.0</ele><time>2026-04-19T16:54:34Z</time></trkpt><trkpt lat="43.0684612396684" lon="12.311204205399564"><ele>240.0</ele><time>2026-04-19T16:54:35Z</time></trkpt><trkpt lat="43.06847435441164" lon="12.311313159372613"><ele>239.85714285714286</ele><time>2026-04-19T16:54:36Z</time></trkpt><trkpt lat="43.06848306200388" lon="12.311410306765485"><ele>239.71428571428572</ele><time>2026-04-19T16:54:37Z</time></trkpt><trkpt lat="43.068477260694" lon="12.31150914506337"><ele>239.57142857142858</ele><time>2026-04-19T16:54:38Z</time></trkpt><trkpt lat="43.068461460471056" lon="12.311604156545163"><ele>239.42857142857144</ele><time>2026-04-19T16:54:39Z</time></trkpt><trkpt lat="43.06844347814845" lon="12.311703393093943"><ele>239.28571428571428</ele><time>2026-04-19T16:54:40Z</time></trkpt><trkpt lat="43.06844414023505" lon="12.31179976759431"><ele>239.14285714285717</ele><time>2026-04-19T16:54:41.001Z</time></trkpt><trkpt lat="43.0684678874488" lon="12.311884909277373"><ele>239.00000000000003</ele><time>2026-04-19T16:54:42.001Z</time></trkpt><trkpt lat="43.068513067109336" lon="12.31195607228983"><ele>239.00000000000003</ele><time>2026-04-19T16:54:43.001Z</time></trkpt><trkpt lat="43.06857896075301" lon="12.312009106016445"><ele>239.0</ele><time>2026-04-19T16:54:44.001Z</time></trkpt><trkpt lat="43.068654350178676" lon="12.312044486884535"><ele>239.0</ele><time>2026-04-19T16:54:45.001Z</time></trkpt><trkpt lat="43.06873764307242" lon="12.3120773629549"><ele>239.0</ele><time>2026-04-19T16:54:46.001Z</time></trkpt><trkpt lat="43.06882980722377" lon="12.312129267426972"><ele>239.00000000000003</ele><time>2026-04-19T16:54:47.001Z</time></trkpt><trkpt lat="43.06891415588817" lon="12.312209544509068"><ele>239.0</ele><time>2026-04-19T16:54:48.001Z</time></trkpt><trkpt lat="43.06899029862345" lon="12.312306923749471"><ele>239.0</ele><time>2026-04-19T16:54:49.001Z</time></trkpt><trkpt lat="43.069063202829035" lon="12.312422410626965"><ele>238.99999999999997</ele><time>2026-04-19T16:54:50.001Z</time></trkpt><trkpt lat="43.069131267759445" lon="12.312547549863575"><ele>238.99999999999997</ele><time>2026-04-19T16:54:51.001Z</time></trkpt><trkpt lat="43.06919200971893" lon="12.31267257118777"><ele>239.0</ele><time>2026-04-19T16:54:52.001Z</time></trkpt><trkpt lat="43.069249144282445" lon="12.312793949349626"><ele>239.0</ele><time>2026-04-19T16:54:53.001Z</time></trkpt><trkpt lat="43.06930682047878" lon="12.312917134884593"><ele>239.0</ele><time>2026-04-19T16:54:54.001Z</time></trkpt><trkpt lat="43.06936592875712" lon="12.313042612500663"><ele>239.0</ele><time>2026-04-19T16:54:55.001Z</time></trkpt><trkpt lat="43.069424644043075" lon="12.313172502743202"><ele>239.0</ele><time>2026-04-19T16:54:56.001Z</time></trkpt><trkpt lat="43.06948488548953" lon="12.313306158810938"><ele>239.0</ele><time>2026-04-19T16:54:57.001Z</time></trkpt><trkpt lat="43.06954563129575" lon="12.313440854197525"><ele>238.0</ele><time>2026-04-19T16:54:58.001Z</time></trkpt><trkpt lat="43.06960811760208" lon="12.31357739976711"><ele>237.0</ele><time>2026-04-19T16:54:59.001Z</time></trkpt><trkpt lat="43.069673879814" lon="12.313718399115828"><ele>236.0</ele><time>2026-04-19T16:55:00.001Z</time></trkpt><trkpt lat="43.0697412854558" lon="12.31386021014343"><ele>235.0</ele><time>2026-04-19T16:55:01.001Z</time></trkpt><trkpt lat="43.06980952789222" lon="12.3140064769477"><ele>235.0</ele><time>2026-04-19T16:55:02.001Z</time></trkpt><trkpt lat="43.06987855579981" lon="12.314154496379688"><ele>235.0</ele><time>2026-04-19T16:55:03.001Z</time></trkpt><trkpt lat="43.06994699569961" lon="12.314305125750314"><ele>235.0</ele><time>2026-04-19T16:55:04.001Z</time></trkpt><trkpt lat="43.070015331796554" lon="12.314456829442303"><ele>235.0</ele><time>2026-04-19T16:55:05.001Z</time></trkpt><trkpt lat="43.07008596651474" lon="12.314607163011692"><ele>235.5</ele><time>2026-04-19T16:55:06.001Z</time></trkpt><trkpt lat="43.07015469113544" lon="12.314755498044773"><ele>236.0</ele><time>2026-04-19T16:55:07.001Z</time></trkpt><trkpt lat="43.070226142477004" lon="12.314907336300347"><ele>236.5</ele><time>2026-04-19T16:55:08.001Z</time></trkpt><trkpt lat="43.070297437469776" lon="12.315056896503851"><ele>237.0</ele><time>2026-04-19T16:55:09.001Z</time></trkpt><trkpt lat="43.07036615631697" lon="12.315205706474199"><ele>237.0</ele><time>2026-04-19T16:55:10.001Z</time></trkpt><trkpt lat="43.0704335696506" lon="12.315353172811136"><ele>237.0</ele><time>2026-04-19T16:55:11.001Z</time></trkpt><trkpt lat="43.070498736044236" lon="12.315500578808713"><ele>237.0</ele><time>2026-04-19T16:55:12.001Z</time></trkpt><trkpt lat="43.07056578053543" lon="12.315643774669988"><ele>237.0</ele><time>2026-04-19T16:55:13.001Z</time></trkpt><trkpt lat="43.07063253011322" lon="12.315785790535761"><ele>237.2</ele><time>2026-04-19T16:55:14.001Z</time></trkpt><trkpt lat="43.070697771679384" lon="12.315925714615368"><ele>237.39999999999998</ele><time>2026-04-19T16:55:15.001Z</time></trkpt><trkpt lat="43.07076005676312" lon="12.316055346008326"><ele>237.60000000000002</ele><time>2026-04-19T16:55:16.001Z</time></trkpt><trkpt lat="43.070818137377586" lon="12.316177882654824"><ele>237.8</ele><time>2026-04-19T16:55:17.001Z</time></trkpt><trkpt lat="43.07087245687563" lon="12.31629156788635"><ele>238.0</ele><time>2026-04-19T16:55:18.001Z</time></trkpt><trkpt lat="43.07092421087725" lon="12.316399142237286"><ele>238.16666666666666</ele><time>2026-04-19T16:55:19.001Z</time></trkpt><trkpt lat="43.07097080417485" lon="12.316496559546357"><ele>238.33333333333331</ele><time>2026-04-19T16:55:20.001Z</time></trkpt><trkpt lat="43.07101645099634" lon="12.31658978473618"><ele>238.5</ele><time>2026-04-19T16:55:21.001Z</time></trkpt><trkpt lat="43.07105842887163" lon="12.316684090685117"><ele>238.66666666666669</ele><time>2026-04-19T16:55:22.001Z</time></trkpt><trkpt lat="43.07109993087708" lon="12.316776985897004"><ele>238.83333333333334</ele><time>2026-04-19T16:55:23.001Z</time></trkpt><trkpt lat="43.071137338904485" lon="12.316863533564852"><ele>239.0</ele><time>2026-04-19T16:55:24.001Z</time></trkpt><trkpt lat="43.0711705213406" lon="12.31694728429706"><ele>239.00000000000003</ele><time>2026-04-19T16:55:25.001Z</time></trkpt><trkpt lat="43.071192888437096" lon="12.317041412774609"><ele>239.0</ele><time>2026-04-19T16:55:26.001Z</time></trkpt><trkpt lat="43.07120393676701" lon="12.317134469119031"><ele>239.0</ele><time>2026-04-19T16:55:27.001Z</time></trkpt><trkpt lat="43.07122075493477" lon="12.317246145399547"><ele>239.0</ele><time>2026-04-19T16:55:28.001Z</time></trkpt><trkpt lat="43.07125225405318" lon="12.317348862962499"><ele>239.00000000000003</ele><time>2026-04-19T16:55:29.001Z</time></trkpt><trkpt lat="43.071284563084895" lon="12.317466948553733"><ele>239.0</ele><time>2026-04-19T16:55:30.001Z</time></trkpt><trkpt lat="43.07136514967937" lon="12.317554479434033"><ele>239.2</ele><time>2026-04-19T16:55:31.001Z</time></trkpt><trkpt lat="43.07144128535254" lon="12.317647878509145"><ele>239.39999999999998</ele><time>2026-04-19T16:55:32.001Z</time></trkpt><trkpt lat="43.07150489134649" lon="12.31775320432442"><ele>239.6</ele><time>2026-04-19T16:55:33.001Z</time></trkpt><trkpt lat="43.07159130288884" lon="12.317845789457047"><ele>239.8</ele><time>2026-04-19T16:55:34.001Z</time></trkpt><trkpt lat="43.07165996914871" lon="12.317980004732643"><ele>240.0</ele><time>2026-04-19T16:55:35.001Z</time></trkpt><trkpt lat="43.07172265430741" lon="12.318119676061103"><ele>240.25</ele><time>2026-04-19T16:55:36.001Z</time></trkpt><trkpt lat="43.071783137746" lon="12.318262400848813"><ele>240.5</ele><time>2026-04-19T16:55:37.001Z</time></trkpt><trkpt lat="43.07184631504653" lon="12.31839793939458"><ele>240.75</ele><time>2026-04-19T16:55:38.001Z</time></trkpt><trkpt lat="43.07190266113355" lon="12.318536544648811"><ele>241.0</ele><time>2026-04-19T16:55:39.001Z</time></trkpt><trkpt lat="43.07195829043201" lon="12.318665662517834"><ele>241.0</ele><time>2026-04-19T16:55:40.001Z</time></trkpt><trkpt lat="43.07201463308171" lon="12.31877829203439"><ele>241.00000000000003</ele><time>2026-04-19T16:55:41.001Z</time></trkpt><trkpt lat="43.07206688969635" lon="12.318889876663231"><ele>241.00000000000003</ele><time>2026-04-19T16:55:42.001Z</time></trkpt><trkpt lat="43.072115726870976" lon="12.318999604577362"><ele>241.0</ele><time>2026-04-19T16:55:43.001Z</time></trkpt><trkpt lat="43.07216689117034" lon="12.319111446269273"><ele>241.0</ele><time>2026-04-19T16:55:44.001Z</time></trkpt><trkpt lat="43.072221403663775" lon="12.319225247220261"><ele>241.20000000000002</ele><time>2026-04-19T16:55:45.001Z</time></trkpt><trkpt lat="43.07227396691086" lon="12.319334597343556"><ele>241.40000000000003</ele><time>2026-04-19T16:55:46.001Z</time></trkpt><trkpt lat="43.072330696290074" lon="12.319454585741417"><ele>241.6</ele><time>2026-04-19T16:55:47.001Z</time></trkpt><trkpt lat="43.07239000172281" lon="12.319577040038137"><ele>241.8</ele><time>2026-04-19T16:55:48.001Z</time></trkpt><trkpt lat="43.07244731215511" lon="12.319710314827564"><ele>242.0</ele><time>2026-04-19T16:55:49.001Z</time></trkpt><trkpt lat="43.07250250095506" lon="12.319838719809649"><ele>242.2</ele><time>2026-04-19T16:55:50.001Z</time></trkpt><trkpt lat="43.072560453552114" lon="12.31996400561535"><ele>242.39999999999998</ele><time>2026-04-19T16:55:51.001Z</time></trkpt><trkpt lat="43.07261524603736" lon="12.320084193840346"><ele>242.60000000000002</ele><time>2026-04-19T16:55:52.001Z</time></trkpt><trkpt lat="43.072671650967095" lon="12.32020444958961"><ele>242.8</ele><time>2026-04-19T16:55:53.001Z</time></trkpt><trkpt lat="43.07272199340447" lon="12.320317265491992"><ele>243.0</ele><time>2026-04-19T16:55:54.001Z</time></trkpt><trkpt lat="43.07277067754173" lon="12.320430920090459"><ele>243.0</ele><time>2026-04-19T16:55:55.001Z</time></trkpt><trkpt lat="43.0728287910878" lon="12.32054597796101"><ele>243.0</ele><time>2026-04-19T16:55:56.001Z</time></trkpt><trkpt lat="43.07288521570891" lon="12.320656443595407"><ele>243.0</ele><time>2026-04-19T16:55:57.001Z</time></trkpt><trkpt lat="43.07294438576103" lon="12.320773379471616"><ele>243.0</ele><time>2026-04-19T16:55:58.001Z</time></trkpt><trkpt lat="43.07300702724449" lon="12.320879087609084"><ele>243.0</ele><time>2026-04-19T16:55:59.001Z</time></trkpt><trkpt lat="43.07306864145986" lon="12.320989440752818"><ele>243.4</ele><time>2026-04-19T16:56:00.001Z</time></trkpt><trkpt lat="43.073125755854555" lon="12.321110258879482"><ele>243.8</ele><time>2026-04-19T16:56:01.001Z</time></trkpt><trkpt lat="43.0731830677223" lon="12.321234210054433"><ele>244.2</ele><time>2026-04-19T16:56:02.001Z</time></trkpt><trkpt lat="43.07324066602618" lon="12.321366517504243"><ele>244.6</ele><time>2026-04-19T16:56:03.001Z</time></trkpt><trkpt lat="43.073301989867744" lon="12.321495710185683"><ele>245.0</ele><time>2026-04-19T16:56:04.001Z</time></trkpt><trkpt lat="43.07336291792242" lon="12.321631118218122"><ele>246.0</ele><time>2026-04-19T16:56:05.001Z</time></trkpt><trkpt lat="43.07342631221937" lon="12.321767654727942"><ele>247.0</ele><time>2026-04-19T16:56:06.001Z</time></trkpt><trkpt lat="43.07348855097145" lon="12.321907934063265"><ele>248.0</ele><time>2026-04-19T16:56:07.001Z</time></trkpt><trkpt lat="43.07355409558877" lon="12.322049499124901"><ele>249.0</ele><time>2026-04-19T16:56:08.001Z</time></trkpt><trkpt lat="43.07361949418025" lon="12.322194184401638"><ele>249.0</ele><time>2026-04-19T16:56:09.001Z</time></trkpt><trkpt lat="43.073688714501245" lon="12.322340406392946"><ele>249.0</ele><time>2026-04-19T16:56:10.001Z</time></trkpt><trkpt lat="43.07375800440847" lon="12.322492768988951"><ele>249.0</ele><time>2026-04-19T16:56:11.001Z</time></trkpt><trkpt lat="43.073828038206635" lon="12.32264919903254"><ele>249.0</ele><time>2026-04-19T16:56:12Z</time></trkpt><trkpt lat="43.07390103442902" lon="12.322806776060062"><ele>249.0</ele><time>2026-04-19T16:56:13Z</time></trkpt><trkpt lat="43.07396950800698" lon="12.322959734741701"><ele>249.0</ele><time>2026-04-19T16:56:14Z</time></trkpt><trkpt lat="43.074043940050636" lon="12.323126102748537"><ele>249.0</ele><time>2026-04-19T16:56:15Z</time></trkpt><trkpt lat="43.07412131173766" lon="12.3232933861952"><ele>249.0</ele><time>2026-04-19T16:56:16Z</time></trkpt><trkpt lat="43.07420143073533" lon="12.323462068432832"><ele>249.66666666666669</ele><time>2026-04-19T16:56:17Z</time></trkpt><trkpt lat="43.07428257922559" lon="12.323635526798714"><ele>250.33333333333334</ele><time>2026-04-19T16:56:18Z</time></trkpt><trkpt lat="43.07436583379221" lon="12.323811369681769"><ele>251.0</ele><time>2026-04-19T16:56:19Z</time></trkpt><trkpt lat="43.07444740266915" lon="12.323991144376832"><ele>251.0</ele><time>2026-04-19T16:56:20Z</time></trkpt><trkpt lat="43.07453197786481" lon="12.32417558860023"><ele>251.0</ele><time>2026-04-19T16:56:21Z</time></trkpt><trkpt lat="43.074616287226455" lon="12.324360303780493"><ele>251.0</ele><time>2026-04-19T16:56:22Z</time></trkpt><trkpt lat="43.074701838946666" lon="12.32454442835869"><ele>251.33333333333334</ele><time>2026-04-19T16:56:23Z</time></trkpt><trkpt lat="43.07478678613748" lon="12.324733301613165"><ele>251.66666666666669</ele><time>2026-04-19T16:56:24Z</time></trkpt><trkpt lat="43.07487564198101" lon="12.324917567992134"><ele>252.0</ele><time>2026-04-19T16:56:25Z</time></trkpt><trkpt lat="43.07496446768445" lon="12.325105534391296"><ele>251.0</ele><time>2026-04-19T16:56:26Z</time></trkpt><trkpt lat="43.07505191073187" lon="12.32529261851171"><ele>250.0</ele><time>2026-04-19T16:56:27Z</time></trkpt><trkpt lat="43.07513165403295" lon="12.325468680192511"><ele>249.0</ele><time>2026-04-19T16:56:28Z</time></trkpt><trkpt lat="43.07520947774919" lon="12.32563696677954"><ele>248.75</ele><time>2026-04-19T16:56:29Z</time></trkpt><trkpt lat="43.07528686370803" lon="12.325805101162425"><ele>248.5</ele><time>2026-04-19T16:56:30Z</time></trkpt><trkpt lat="43.07536511473318" lon="12.32597528353142"><ele>248.25</ele><time>2026-04-19T16:56:31Z</time></trkpt><trkpt lat="43.07544336663468" lon="12.32614860933421"><ele>248.0</ele><time>2026-04-19T16:56:32Z</time></trkpt><trkpt lat="43.07552294200952" lon="12.32632359239507"><ele>248.0</ele><time>2026-04-19T16:56:33Z</time></trkpt><trkpt lat="43.07560149719759" lon="12.32649891505699"><ele>248.0</ele><time>2026-04-19T16:56:34Z</time></trkpt><trkpt lat="43.07568113782308" lon="12.32667839956826"><ele>248.0</ele><time>2026-04-19T16:56:35Z</time></trkpt><trkpt lat="43.075760779022254" lon="12.326855057859577"><ele>247.66666666666669</ele><time>2026-04-19T16:56:36Z</time></trkpt><trkpt lat="43.0758425042286" lon="12.327032867023853"><ele>247.33333333333331</ele><time>2026-04-19T16:56:37Z</time></trkpt><trkpt lat="43.07592442711174" lon="12.327208571085137"><ele>247.0</ele><time>2026-04-19T16:56:38Z</time></trkpt><trkpt lat="43.07600608079392" lon="12.32738549564701"><ele>247.0</ele><time>2026-04-19T16:56:39Z</time></trkpt><trkpt lat="43.07608696922875" lon="12.327561541855255"><ele>247.0</ele><time>2026-04-19T16:56:40Z</time></trkpt><trkpt lat="43.07616981966402" lon="12.327739783406845"><ele>247.0</ele><time>2026-04-19T16:56:41Z</time></trkpt><trkpt lat="43.07625496251203" lon="12.327912993863933"><ele>247.33333333333331</ele><time>2026-04-19T16:56:42Z</time></trkpt><trkpt lat="43.07633567253696" lon="12.328091653483812"><ele>247.66666666666669</ele><time>2026-04-19T16:56:43Z</time></trkpt><trkpt lat="43.07641995875745" lon="12.32826711598193"><ele>248.0</ele><time>2026-04-19T16:56:44Z</time></trkpt><trkpt lat="43.07650463165646" lon="12.328441151314737"><ele>248.0</ele><time>2026-04-19T16:56:45Z</time></trkpt><trkpt lat="43.076588521445245" lon="12.328619769679412"><ele>248.0</ele><time>2026-04-19T16:56:46Z</time></trkpt><trkpt lat="43.07667314340051" lon="12.328796469965562"><ele>248.0</ele><time>2026-04-19T16:56:47Z</time></trkpt><trkpt lat="43.07675616480205" lon="12.328975891265525"><ele>247.0</ele><time>2026-04-19T16:56:48Z</time></trkpt><trkpt lat="43.076837745109124" lon="12.329150075828757"><ele>246.0</ele><time>2026-04-19T16:56:49Z</time></trkpt><trkpt lat="43.07691534821548" lon="12.329318115128704"><ele>245.0</ele><time>2026-04-19T16:56:50Z</time></trkpt><trkpt lat="43.07699031698525" lon="12.329477632343668"><ele>244.0</ele><time>2026-04-19T16:56:51Z</time></trkpt><trkpt lat="43.077063690241474" lon="12.329632563469318"><ele>244.25</ele><time>2026-04-19T16:56:52Z</time></trkpt><trkpt lat="43.07713231404276" lon="12.32977826762347"><ele>244.5</ele><time>2026-04-19T16:56:53Z</time></trkpt><trkpt lat="43.077195424180594" lon="12.329924049951355"><ele>244.75</ele><time>2026-04-19T16:56:54Z</time></trkpt><trkpt lat="43.077259807729334" lon="12.330056985409367"><ele>245.0</ele><time>2026-04-19T16:56:55Z</time></trkpt><trkpt lat="43.07733469351799" lon="12.330165461125446"><ele>245.0</ele><time>2026-04-19T16:56:56Z</time></trkpt><trkpt lat="43.077403277626" lon="12.330283438509621"><ele>245.0</ele><time>2026-04-19T16:56:57Z</time></trkpt><trkpt lat="43.077477567271195" lon="12.330384168597567"><ele>245.0</ele><time>2026-04-19T16:56:58Z</time></trkpt><trkpt lat="43.07755819149049" lon="12.330433184593371"><ele>245.0</ele><time>2026-04-19T16:56:59Z</time></trkpt><trkpt lat="43.07763042726076" lon="12.330484433962441"><ele>245.0</ele><time>2026-04-19T16:57:00Z</time></trkpt><trkpt lat="43.07769172559362" lon="12.330521373510477"><ele>244.2</ele><time>2026-04-19T16:57:01Z</time></trkpt><trkpt lat="43.077778067789836" lon="12.33060763892162"><ele>243.4</ele><time>2026-04-19T16:57:03Z</time></trkpt><trkpt lat="43.07782641907763" lon="12.330694408781364"><ele>242.60000000000002</ele><time>2026-04-19T16:57:05Z</time></trkpt><trkpt lat="43.07787974066633" lon="12.330832806982547"><ele>241.8</ele><time>2026-04-19T16:57:07Z</time></trkpt><trkpt lat="43.077925717154045" lon="12.330930774286756"><ele>241.0</ele><time>2026-04-19T16:57:08Z</time></trkpt><trkpt lat="43.07798244220942" lon="12.33103021153528"><ele>241.0</ele><time>2026-04-19T16:57:09Z</time></trkpt><trkpt lat="43.07805068413245" lon="12.331124173917702"><ele>241.00000000000003</ele><time>2026-04-19T16:57:10Z</time></trkpt><trkpt lat="43.07811659624754" lon="12.331219304593407"><ele>241.00000000000003</ele><time>2026-04-19T16:57:11Z</time></trkpt><trkpt lat="43.0781677358144" lon="12.331339509581827"><ele>241.0</ele><time>2026-04-19T16:57:12Z</time></trkpt><trkpt lat="43.078190974554765" lon="12.331477970533097"><ele>241.0</ele><time>2026-04-19T16:57:13Z</time></trkpt><trkpt lat="43.07820011259106" lon="12.331626438492549"><ele>241.75</ele><time>2026-04-19T16:57:14Z</time></trkpt><trkpt lat="43.078208436778105" lon="12.331782363958302"><ele>242.5</ele><time>2026-04-19T16:57:15Z</time></trkpt><trkpt lat="43.078222979302176" lon="12.331940331853412"><ele>243.25</ele><time>2026-04-19T16:57:16Z</time></trkpt><trkpt lat="43.07825553928211" lon="12.33209113780272"><ele>244.0</ele><time>2026-04-19T16:57:17Z</time></trkpt><trkpt lat="43.07831029037146" lon="12.332240817842997"><ele>245.25</ele><time>2026-04-19T16:57:18Z</time></trkpt><trkpt lat="43.07837903282546" lon="12.332385875882844"><ele>246.5</ele><time>2026-04-19T16:57:19Z</time></trkpt><trkpt lat="43.078450506454764" lon="12.332529626913063"><ele>247.75</ele><time>2026-04-19T16:57:20Z</time></trkpt><trkpt lat="43.07851854147908" lon="12.332675642736573"><ele>249.0</ele><time>2026-04-19T16:57:21Z</time></trkpt><trkpt lat="43.07858604030524" lon="12.33282182435608"><ele>249.0</ele><time>2026-04-19T16:57:22Z</time></trkpt><trkpt lat="43.07865326594688" lon="12.332967548377871"><ele>249.0</ele><time>2026-04-19T16:57:23Z</time></trkpt><trkpt lat="43.07871943357177" lon="12.333111260355277"><ele>249.0</ele><time>2026-04-19T16:57:24Z</time></trkpt><trkpt lat="43.078777799723674" lon="12.33324903819563"><ele>249.0</ele><time>2026-04-19T16:57:25Z</time></trkpt><trkpt lat="43.07882915627913" lon="12.333381209491183"><ele>249.39999999999998</ele><time>2026-04-19T16:57:26Z</time></trkpt><trkpt lat="43.07886888507493" lon="12.33351535818022"><ele>249.79999999999998</ele><time>2026-04-19T16:57:27.001Z</time></trkpt><trkpt lat="43.07889623344508" lon="12.33365906279677"><ele>250.20000000000002</ele><time>2026-04-19T16:57:28.001Z</time></trkpt><trkpt lat="43.07891119423748" lon="12.333813270843851"><ele>250.60000000000002</ele><time>2026-04-19T16:57:29.001Z</time></trkpt><trkpt lat="43.07891094627551" lon="12.333972339514089"><ele>251.0</ele><time>2026-04-19T16:57:30.001Z</time></trkpt><trkpt lat="43.0788938960242" lon="12.33413668940112"><ele>251.0</ele><time>2026-04-19T16:57:31.001Z</time></trkpt><trkpt lat="43.07887036429981" lon="12.334306101271729"><ele>251.0</ele><time>2026-04-19T16:57:32.001Z</time></trkpt><trkpt lat="43.078851214426855" lon="12.334475371788937"><ele>251.0</ele><time>2026-04-19T16:57:33.001Z</time></trkpt><trkpt lat="43.07884391554327" lon="12.334654532804336"><ele>251.0</ele><time>2026-04-19T16:57:34.001Z</time></trkpt><trkpt lat="43.07884231004517" lon="12.334837175476816"><ele>250.5</ele><time>2026-04-19T16:57:35.001Z</time></trkpt><trkpt lat="43.078845383312895" lon="12.335028476141508"><ele>250.0</ele><time>2026-04-19T16:57:36.001Z</time></trkpt><trkpt lat="43.07885286525875" lon="12.335218137257938"><ele>249.5</ele><time>2026-04-19T16:57:37.001Z</time></trkpt><trkpt lat="43.07886268906239" lon="12.335412095995714"><ele>249.0</ele><time>2026-04-19T16:57:38.001Z</time></trkpt><trkpt lat="43.078871348767294" lon="12.33561034298062"><ele>249.0</ele><time>2026-04-19T16:57:39.001Z</time></trkpt><trkpt lat="43.07887861182272" lon="12.335809681981294"><ele>249.0</ele><time>2026-04-19T16:57:40.001Z</time></trkpt><trkpt lat="43.078888706399376" lon="12.336015082079994"><ele>249.0</ele><time>2026-04-19T16:57:41.001Z</time></trkpt><trkpt lat="43.078895542492205" lon="12.3362287477526"><ele>250.0</ele><time>2026-04-19T16:57:42.001Z</time></trkpt><trkpt lat="43.07889757734972" lon="12.336438892952346"><ele>251.0</ele><time>2026-04-19T16:57:43.001Z</time></trkpt><trkpt lat="43.07889725503624" lon="12.336643883223877"><ele>252.0</ele><time>2026-04-19T16:57:44.001Z</time></trkpt><trkpt lat="43.07889503590063" lon="12.336837797825133"><ele>253.0</ele><time>2026-04-19T16:57:45.001Z</time></trkpt><trkpt lat="43.07888908913247" lon="12.337013219528654"><ele>253.0</ele><time>2026-04-19T16:57:46.001Z</time></trkpt><trkpt lat="43.078882571679806" lon="12.337193501362478"><ele>253.0</ele><time>2026-04-19T16:57:47.001Z</time></trkpt><trkpt lat="43.078872496950275" lon="12.337358997326268"><ele>253.0</ele><time>2026-04-19T16:57:48.001Z</time></trkpt><trkpt lat="43.078858210812726" lon="12.3375218092245"><ele>253.0</ele><time>2026-04-19T16:57:49.001Z</time></trkpt><trkpt lat="43.07884111685983" lon="12.337686114158416"><ele>253.0</ele><time>2026-04-19T16:57:50.001Z</time></trkpt><trkpt lat="43.07891027407298" lon="12.337851931440476"><ele>253.0</ele><time>2026-04-19T16:57:51.001Z</time></trkpt><trkpt lat="43.07891027407304" lon="12.338015779322737"><ele>253.0</ele><time>2026-04-19T16:57:52.001Z</time></trkpt><trkpt lat="43.07891027407322" lon="12.338169442451886"><ele>253.0</ele><time>2026-04-19T16:57:53.001Z</time></trkpt><trkpt lat="43.07891027407368" lon="12.338314486222805"><ele>253.0</ele><time>2026-04-19T16:57:54.001Z</time></trkpt><trkpt lat="43.07874768230659" lon="12.33845351267616"><ele>253.0</ele><time>2026-04-19T16:57:55.001Z</time></trkpt><trkpt lat="43.07873960683095" lon="12.338582130865463"><ele>253.0</ele><time>2026-04-19T16:57:56.001Z</time></trkpt><trkpt lat="43.07873746703552" lon="12.338703696464947"><ele>253.0</ele><time>2026-04-19T16:57:57.001Z</time></trkpt><trkpt lat="43.07875305767344" lon="12.338817951152677"><ele>252.8</ele><time>2026-04-19T16:57:58.001Z</time></trkpt><trkpt lat="43.0787982458323" lon="12.33892646438804"><ele>252.60000000000002</ele><time>2026-04-19T16:57:59.001Z</time></trkpt><trkpt lat="43.078866382134755" lon="12.339024549355875"><ele>252.39999999999998</ele><time>2026-04-19T16:58:00.001Z</time></trkpt><trkpt lat="43.07895101192711" lon="12.339097252285663"><ele>252.2</ele><time>2026-04-19T16:58:01.001Z</time></trkpt><trkpt lat="43.07904670104367" lon="12.339142040703473"><ele>252.0</ele><time>2026-04-19T16:58:02.001Z</time></trkpt><trkpt lat="43.07914734739857" lon="12.339152086535796"><ele>252.39999999999998</ele><time>2026-04-19T16:58:03.001Z</time></trkpt><trkpt lat="43.07924527660236" lon="12.339124857322851"><ele>252.79999999999998</ele><time>2026-04-19T16:58:04.001Z</time></trkpt><trkpt lat="43.07934291458587" lon="12.339070343771958"><ele>253.2</ele><time>2026-04-19T16:58:05.001Z</time></trkpt><trkpt lat="43.07944634925857" lon="12.339029696601326"><ele>253.6</ele><time>2026-04-19T16:58:06.001Z</time></trkpt><trkpt lat="43.07955255263517" lon="12.338987418687854"><ele>254.0</ele><time>2026-04-19T16:58:07.001Z</time></trkpt><trkpt lat="43.07965695444214" lon="12.338952996354639"><ele>254.0</ele><time>2026-04-19T16:58:08.001Z</time></trkpt><trkpt lat="43.07976264000275" lon="12.338914060625152"><ele>253.99999999999997</ele><time>2026-04-19T16:58:09.001Z</time></trkpt><trkpt lat="43.07987073085815" lon="12.338875123273931"><ele>253.99999999999997</ele><time>2026-04-19T16:58:10.001Z</time></trkpt><trkpt lat="43.07998076198876" lon="12.338833123232027"><ele>254.0</ele><time>2026-04-19T16:58:11.001Z</time></trkpt><trkpt lat="43.08008661496303" lon="12.338792183178205"><ele>254.0</ele><time>2026-04-19T16:58:12.001Z</time></trkpt><trkpt lat="43.08018865024257" lon="12.338752658582356"><ele>254.2</ele><time>2026-04-19T16:58:13.001Z</time></trkpt><trkpt lat="43.08029308603035" lon="12.338710534925784"><ele>254.39999999999998</ele><time>2026-04-19T16:58:14.001Z</time></trkpt><trkpt lat="43.08039997508084" lon="12.338667976752774"><ele>254.6</ele><time>2026-04-19T16:58:15.001Z</time></trkpt><trkpt lat="43.08049954838656" lon="12.338625939693895"><ele>254.8</ele><time>2026-04-19T16:58:16.001Z</time></trkpt><trkpt lat="43.08059591152164" lon="12.338582245573992"><ele>255.0</ele><time>2026-04-19T16:58:17.001Z</time></trkpt><trkpt lat="43.080694563786636" lon="12.338542091279427"><ele>255.6</ele><time>2026-04-19T16:58:17.999Z</time></trkpt><trkpt lat="43.08079673797288" lon="12.338519573620708"><ele>256.2</ele><time>2026-04-19T16:58:18.999Z</time></trkpt><trkpt lat="43.08090126245993" lon="12.338522574726282"><ele>256.8</ele><time>2026-04-19T16:58:19.999Z</time></trkpt><trkpt lat="43.081007834906096" lon="12.338547017098344"><ele>257.4</ele><time>2026-04-19T16:58:20.999Z</time></trkpt><trkpt lat="43.08110507640705" lon="12.33860119463263"><ele>258.0</ele><time>2026-04-19T16:58:21.999Z</time></trkpt><trkpt lat="43.08120510530566" lon="12.338694059946915"><ele>258.0</ele><time>2026-04-19T16:58:22.999Z</time></trkpt><trkpt lat="43.08129794965713" lon="12.338811515732898"><ele>258.0</ele><time>2026-04-19T16:58:23.999Z</time></trkpt><trkpt lat="43.081385421746376" lon="12.338943283129336"><ele>258.0</ele><time>2026-04-19T16:58:24.999Z</time></trkpt><trkpt lat="43.08145840827662" lon="12.339088495029799"><ele>258.0</ele><time>2026-04-19T16:58:25.999Z</time></trkpt><trkpt lat="43.08151517975312" lon="12.339233695178581"><ele>257.8</ele><time>2026-04-19T16:58:26.999Z</time></trkpt><trkpt lat="43.081572147244245" lon="12.33936669848219"><ele>257.6</ele><time>2026-04-19T16:58:27.999Z</time></trkpt><trkpt lat="43.08162667547505" lon="12.339484638335906"><ele>257.4</ele><time>2026-04-19T16:58:28.999Z</time></trkpt><trkpt lat="43.08167811777668" lon="12.339595239546181"><ele>257.2</ele><time>2026-04-19T16:58:29.999Z</time></trkpt><trkpt lat="43.08172642309213" lon="12.339700388682544"><ele>257.0</ele><time>2026-04-19T16:58:30.999Z</time></trkpt><trkpt lat="43.081777900338864" lon="12.339807469107528"><ele>257.6</ele><time>2026-04-19T16:58:32Z</time></trkpt><trkpt lat="43.08183732536809" lon="12.339919014630938"><ele>258.2</ele><time>2026-04-19T16:58:33Z</time></trkpt><trkpt lat="43.08190160871514" lon="12.34003234223353"><ele>258.8</ele><time>2026-04-19T16:58:34Z</time></trkpt><trkpt lat="43.0819650600335" lon="12.340149687108044"><ele>259.4</ele><time>2026-04-19T16:58:35Z</time></trkpt><trkpt lat="43.082033801650276" lon="12.340281346206185"><ele>260.0</ele><time>2026-04-19T16:58:36Z</time></trkpt><trkpt lat="43.08209410777228" lon="12.340404583978263"><ele>260.0</ele><time>2026-04-19T16:58:37Z</time></trkpt><trkpt lat="43.082155959447256" lon="12.340536539025303"><ele>260.0</ele><time>2026-04-19T16:58:38Z</time></trkpt><trkpt lat="43.08221759927288" lon="12.340663040629176"><ele>260.0</ele><time>2026-04-19T16:58:39Z</time></trkpt><trkpt lat="43.08228044030684" lon="12.340796784485198"><ele>260.0</ele><time>2026-04-19T16:58:40Z</time></trkpt><trkpt lat="43.082343174379545" lon="12.340930519399699"><ele>261.25</ele><time>2026-04-19T16:58:41Z</time></trkpt><trkpt lat="43.08240767316596" lon="12.341067233355112"><ele>262.5</ele><time>2026-04-19T16:58:42Z</time></trkpt><trkpt lat="43.08247429190761" lon="12.341202455218587"><ele>263.75</ele><time>2026-04-19T16:58:43Z</time></trkpt><trkpt lat="43.08254224445438" lon="12.341340784128663"><ele>265.0</ele><time>2026-04-19T16:58:44Z</time></trkpt><trkpt lat="43.08261288487502" lon="12.341479491055603"><ele>265.0</ele><time>2026-04-19T16:58:45Z</time></trkpt><trkpt lat="43.08268219066438" lon="12.341622373960394"><ele>265.0</ele><time>2026-04-19T16:58:46Z</time></trkpt><trkpt lat="43.082724951887094" lon="12.341792338206643"><ele>265.0</ele><time>2026-04-19T16:58:47Z</time></trkpt><trkpt lat="43.08279386432596" lon="12.34193991544665"><ele>265.0</ele><time>2026-04-19T16:58:48Z</time></trkpt><trkpt lat="43.08286313073656" lon="12.342087432888093"><ele>265.75</ele><time>2026-04-19T16:58:49Z</time></trkpt><trkpt lat="43.082933559508874" lon="12.34223705700995"><ele>266.5</ele><time>2026-04-19T16:58:50Z</time></trkpt><trkpt lat="43.083002824070036" lon="12.342384317663814"><ele>267.25</ele><time>2026-04-19T16:58:51Z</time></trkpt><trkpt lat="43.083067409158424" lon="12.342521508920873"><ele>268.0</ele><time>2026-04-19T16:58:52Z</time></trkpt><trkpt lat="43.08312904023362" lon="12.342652565915609"><ele>268.0</ele><time>2026-04-19T16:58:53Z</time></trkpt><trkpt lat="43.0831885084266" lon="12.342778788441684"><ele>268.0</ele><time>2026-04-19T16:58:54Z</time></trkpt><trkpt lat="43.083263397171734" lon="12.342896386640456"><ele>268.0</ele><time>2026-04-19T16:58:55Z</time></trkpt><trkpt lat="43.08331268331158" lon="12.343036876312775"><ele>268.0</ele><time>2026-04-19T16:58:56Z</time></trkpt><trkpt lat="43.083370511795835" lon="12.343185872058335"><ele>269.0</ele><time>2026-04-19T16:58:57Z</time></trkpt><trkpt lat="43.083435747740026" lon="12.343324807739556"><ele>270.0</ele><time>2026-04-19T16:58:58Z</time></trkpt><trkpt lat="43.08349752304611" lon="12.343448570538506"><ele>271.0</ele><time>2026-04-19T16:58:59Z</time></trkpt><trkpt lat="43.08354929754835" lon="12.343557203053818"><ele>272.0</ele><time>2026-04-19T16:59:00Z</time></trkpt><trkpt lat="43.08359155858933" lon="12.343644431674223"><ele>273.0</ele><time>2026-04-19T16:59:01Z</time></trkpt><trkpt lat="43.08364255941256" lon="12.343746185426737"><ele>273.0</ele><time>2026-04-19T16:59:03Z</time></trkpt><trkpt lat="43.08370497845455" lon="12.343873687040555"><ele>273.0</ele><time>2026-04-19T16:59:05Z</time></trkpt><trkpt lat="43.08373886650693" lon="12.343952908420617"><ele>273.0</ele><time>2026-04-19T16:59:06Z</time></trkpt><trkpt lat="43.08377907351927" lon="12.344043130913242"><ele>273.0</ele><time>2026-04-19T16:59:07Z</time></trkpt><trkpt lat="43.08382642214642" lon="12.344141328939925"><ele>273.0</ele><time>2026-04-19T16:59:08Z</time></trkpt><trkpt lat="43.083877786819976" lon="12.344245105280336"><ele>273.0</ele><time>2026-04-19T16:59:09Z</time></trkpt><trkpt lat="43.083929498214786" lon="12.344355320361082"><ele>273.6</ele><time>2026-04-19T16:59:10Z</time></trkpt><trkpt lat="43.08397991315732" lon="12.344464030867906"><ele>274.20000000000005</ele><time>2026-04-19T16:59:11Z</time></trkpt><trkpt lat="43.084037850393685" lon="12.344575420221886"><ele>274.8</ele><time>2026-04-19T16:59:12Z</time></trkpt><trkpt lat="43.08409215450352" lon="12.344696727920727"><ele>275.40000000000003</ele><time>2026-04-19T16:59:13Z</time></trkpt><trkpt lat="43.084148971721774" lon="12.34481538275141"><ele>276.0</ele><time>2026-04-19T16:59:14Z</time></trkpt><trkpt lat="43.08420830462759" lon="12.344942982508387"><ele>277.5</ele><time>2026-04-19T16:59:15Z</time></trkpt><trkpt lat="43.08426628916225" lon="12.345065822822669"><ele>279.0</ele><time>2026-04-19T16:59:16Z</time></trkpt><trkpt lat="43.08432897231248" lon="12.345203493214944"><ele>280.5</ele><time>2026-04-19T16:59:17Z</time></trkpt><trkpt lat="43.084390796011384" lon="12.345338256048315"><ele>282.0</ele><time>2026-04-19T16:59:18Z</time></trkpt><trkpt lat="43.08445757858087" lon="12.345479656925814"><ele>282.75</ele><time>2026-04-19T16:59:19Z</time></trkpt><trkpt lat="43.08452450495734" lon="12.34562609126701"><ele>283.5</ele><time>2026-04-19T16:59:20Z</time></trkpt><trkpt lat="43.08459446849153" lon="12.34576932544641"><ele>284.25</ele><time>2026-04-19T16:59:21Z</time></trkpt><trkpt lat="43.08466657896256" lon="12.345917595941701"><ele>285.0</ele><time>2026-04-19T16:59:22Z</time></trkpt><trkpt lat="43.08473473580379" lon="12.34606059130333"><ele>285.0</ele><time>2026-04-19T16:59:23Z</time></trkpt><trkpt lat="43.08480287655176" lon="12.34620191491325"><ele>285.0</ele><time>2026-04-19T16:59:24Z</time></trkpt><trkpt lat="43.084864721923495" lon="12.346327317984777"><ele>285.0</ele><time>2026-04-19T16:59:25Z</time></trkpt><trkpt lat="43.08490634752704" lon="12.346416744101719"><ele>285.0</ele><time>2026-04-19T16:59:26Z</time></trkpt><trkpt lat="43.08494838985963" lon="12.346489508915441"><ele>285.0</ele><time>2026-04-19T16:59:28Z</time></trkpt><trkpt lat="43.0849942576904" lon="12.346572313448029"><ele>286.0</ele><time>2026-04-19T16:59:32Z</time></trkpt><trkpt lat="43.08503989267197" lon="12.346722141001242"><ele>287.0</ele><time>2026-04-19T16:59:46.001Z</time></trkpt><trkpt lat="43.08508478689208" lon="12.34681103350643"><ele>288.0</ele><time>2026-04-19T16:59:47.001Z</time></trkpt><trkpt lat="43.0851360863376" lon="12.346905914320036"><ele>289.0</ele><time>2026-04-19T16:59:48.001Z</time></trkpt><trkpt lat="43.08520180463903" lon="12.347010258231661"><ele>290.0</ele><time>2026-04-19T16:59:49.001Z</time></trkpt><trkpt lat="43.08524547207429" lon="12.347135992366288"><ele>290.5</ele><time>2026-04-19T16:59:50.001Z</time></trkpt><trkpt lat="43.085318193076695" lon="12.347290909089377"><ele>291.0</ele><time>2026-04-19T16:59:51.001Z</time></trkpt><trkpt lat="43.0853891617408" lon="12.347442092669692"><ele>291.5</ele><time>2026-04-19T16:59:52.001Z</time></trkpt><trkpt lat="43.08546235172589" lon="12.34759743743796"><ele>292.0</ele><time>2026-04-19T16:59:53.001Z</time></trkpt><trkpt lat="43.08554904260494" lon="12.347740699746568"><ele>292.0</ele><time>2026-04-19T16:59:54.001Z</time></trkpt><trkpt lat="43.08561189799711" lon="12.347915383849712"><ele>292.0</ele><time>2026-04-19T16:59:55.001Z</time></trkpt><trkpt lat="43.08569006294499" lon="12.348081911781003"><ele>292.0</ele><time>2026-04-19T16:59:56.001Z</time></trkpt><trkpt lat="43.08576949756599" lon="12.348250313068059"><ele>292.0</ele><time>2026-04-19T16:59:57.001Z</time></trkpt><trkpt lat="43.0858482766489" lon="12.34841716136844"><ele>292.25</ele><time>2026-04-19T16:59:58.001Z</time></trkpt><trkpt lat="43.085930659670694" lon="12.348591642525351"><ele>292.5</ele><time>2026-04-19T16:59:59.001Z</time></trkpt><trkpt lat="43.086011139813934" lon="12.348762705410968"><ele>292.75</ele><time>2026-04-19T17:00:00.001Z</time></trkpt><trkpt lat="43.08609123725359" lon="12.348931686509529"><ele>293.0</ele><time>2026-04-19T17:00:01.001Z</time></trkpt><trkpt lat="43.08617169640338" lon="12.349102033530544"><ele>294.0</ele><time>2026-04-19T17:00:02.001Z</time></trkpt><trkpt lat="43.086252904141666" lon="12.34927408890254"><ele>295.0</ele><time>2026-04-19T17:00:03.001Z</time></trkpt><trkpt lat="43.08633420422228" lon="12.349446339923741"><ele>296.0</ele><time>2026-04-19T17:00:04.001Z</time></trkpt><trkpt lat="43.08641608951726" lon="12.349619830841132"><ele>297.0</ele><time>2026-04-19T17:00:05.001Z</time></trkpt><trkpt lat="43.086498544348096" lon="12.349794528438471"><ele>298.0</ele><time>2026-04-19T17:00:06.001Z</time></trkpt><trkpt lat="43.08658157271824" lon="12.349969741575254"><ele>299.0</ele><time>2026-04-19T17:00:07.001Z</time></trkpt><trkpt lat="43.08666401750509" lon="12.350143099716133"><ele>299.75</ele><time>2026-04-19T17:00:08.001Z</time></trkpt><trkpt lat="43.08674394286673" lon="12.350311160210628"><ele>300.5</ele><time>2026-04-19T17:00:09.001Z</time></trkpt><trkpt lat="43.08681895925302" lon="12.35046889851359"><ele>301.25</ele><time>2026-04-19T17:00:10.001Z</time></trkpt><trkpt lat="43.086901351530216" lon="12.350604320271035"><ele>302.0</ele><time>2026-04-19T17:00:11.001Z</time></trkpt><trkpt lat="43.08696896614803" lon="12.350744114331007"><ele>302.75</ele><time>2026-04-19T17:00:12.001Z</time></trkpt><trkpt lat="43.08702007742353" lon="12.35088991566047"><ele>303.5</ele><time>2026-04-19T17:00:13.001Z</time></trkpt><trkpt lat="43.087101019879796" lon="12.351009598228147"><ele>304.25</ele><time>2026-04-19T17:00:14.001Z</time></trkpt><trkpt lat="43.087158054968356" lon="12.35115887174501"><ele>305.0</ele><time>2026-04-19T17:00:15.001Z</time></trkpt><trkpt lat="43.0872451658088" lon="12.351293372372824"><ele>304.75</ele><time>2026-04-19T17:00:16.001Z</time></trkpt><trkpt lat="43.08731871585358" lon="12.351449100783526"><ele>304.5</ele><time>2026-04-19T17:00:17.001Z</time></trkpt><trkpt lat="43.08739678512602" lon="12.351610876126982"><ele>304.25</ele><time>2026-04-19T17:00:18.001Z</time></trkpt><trkpt lat="43.087479974324545" lon="12.351778826306017"><ele>304.0</ele><time>2026-04-19T17:00:19.001Z</time></trkpt><trkpt lat="43.087563559942744" lon="12.351951900672622"><ele>303.3333333333333</ele><time>2026-04-19T17:00:20.001Z</time></trkpt><trkpt lat="43.08764947051085" lon="12.352127338575622"><ele>302.6666666666667</ele><time>2026-04-19T17:00:21.001Z</time></trkpt><trkpt lat="43.087735083872005" lon="12.352303032222322"><ele>302.0</ele><time>2026-04-19T17:00:22.001Z</time></trkpt><trkpt lat="43.0878218208756" lon="12.352477126992577"><ele>299.6666666666667</ele><time>2026-04-19T17:00:23.001Z</time></trkpt><trkpt lat="43.087907187798" lon="12.352648978080401"><ele>297.3333333333333</ele><time>2026-04-19T17:00:23.999Z</time></trkpt><trkpt lat="43.08799207432279" lon="12.352818749427957"><ele>295.0</ele><time>2026-04-19T17:00:24.999Z</time></trkpt><trkpt lat="43.08807655715254" lon="12.352984933297813"><ele>294.75</ele><time>2026-04-19T17:00:25.999Z</time></trkpt><trkpt lat="43.08815580067136" lon="12.35314270517867"><ele>294.5</ele><time>2026-04-19T17:00:26.999Z</time></trkpt><trkpt lat="43.08823231619148" lon="12.353290242563777"><ele>294.25</ele><time>2026-04-19T17:00:27.999Z</time></trkpt><trkpt lat="43.088300250954376" lon="12.353445303999816"><ele>294.0</ele><time>2026-04-19T17:00:28.999Z</time></trkpt><trkpt lat="43.08836072517374" lon="12.353592882488197"><ele>294.0</ele><time>2026-04-19T17:00:29.999Z</time></trkpt><trkpt lat="43.088432957856185" lon="12.353730852461833"><ele>294.0</ele><time>2026-04-19T17:00:30.999Z</time></trkpt><trkpt lat="43.08852065381174" lon="12.353848357656297"><ele>294.0</ele><time>2026-04-19T17:00:31.999Z</time></trkpt><trkpt lat="43.088624458514595" lon="12.35394133152112"><ele>294.0</ele><time>2026-04-19T17:00:32.999Z</time></trkpt><trkpt lat="43.08873926645283" lon="12.353995440119673"><ele>293.4</ele><time>2026-04-19T17:00:33.999Z</time></trkpt><trkpt lat="43.08885664696246" lon="12.354016590598711"><ele>292.79999999999995</ele><time>2026-04-19T17:00:35Z</time></trkpt><trkpt lat="43.088962509340554" lon="12.354038463810408"><ele>292.20000000000005</ele><time>2026-04-19T17:00:36Z</time></trkpt><trkpt lat="43.0890463255544" lon="12.354098547967208"><ele>291.6</ele><time>2026-04-19T17:00:37Z</time></trkpt><trkpt lat="43.08908979912635" lon="12.354216599994425"><ele>291.0</ele><time>2026-04-19T17:00:38Z</time></trkpt><trkpt lat="43.08911693848116" lon="12.354343382215541"><ele>291.0</ele><time>2026-04-19T17:00:39Z</time></trkpt><trkpt lat="43.08911927951182" lon="12.35448411256272"><ele>291.0</ele><time>2026-04-19T17:00:40Z</time></trkpt><trkpt lat="43.089108999984205" lon="12.354631638003179"><ele>291.0</ele><time>2026-04-19T17:00:41Z</time></trkpt><trkpt lat="43.08912036414404" lon="12.35479062774783"><ele>291.0</ele><time>2026-04-19T17:00:42Z</time></trkpt><trkpt lat="43.08912961930893" lon="12.354963773010134"><ele>290.25</ele><time>2026-04-19T17:00:43Z</time></trkpt><trkpt lat="43.08914558735184" lon="12.35514709190662"><ele>289.5</ele><time>2026-04-19T17:00:44Z</time></trkpt><trkpt lat="43.08916354255551" lon="12.355333969575122"><ele>288.75</ele><time>2026-04-19T17:00:45Z</time></trkpt><trkpt lat="43.089197445264055" lon="12.355523557329834"><ele>288.0</ele><time>2026-04-19T17:00:46Z</time></trkpt><trkpt lat="43.08925028522691" lon="12.355705767462275"><ele>284.25</ele><time>2026-04-19T17:00:47Z</time></trkpt><trkpt lat="43.08932149203272" lon="12.355863521793438"><ele>280.5</ele><time>2026-04-19T17:00:48Z</time></trkpt><trkpt lat="43.089409051093625" lon="12.355997296545004"><ele>276.75</ele><time>2026-04-19T17:00:49Z</time></trkpt><trkpt lat="43.089509316745136" lon="12.356102442458198"><ele>273.0</ele><time>2026-04-19T17:00:50Z</time></trkpt><trkpt lat="43.089620180858766" lon="12.35618899501028"><ele>273.0</ele><time>2026-04-19T17:00:51Z</time></trkpt><trkpt lat="43.08973925729532" lon="12.356251553435648"><ele>273.0</ele><time>2026-04-19T17:00:52Z</time></trkpt><trkpt lat="43.08987345718085" lon="12.356279311275886"><ele>273.0</ele><time>2026-04-19T17:00:53Z</time></trkpt><trkpt lat="43.09001134331347" lon="12.35629251756528"><ele>273.0</ele><time>2026-04-19T17:00:54Z</time></trkpt><trkpt lat="43.09014902237581" lon="12.3562785464825"><ele>273.0</ele><time>2026-04-19T17:00:55Z</time></trkpt><trkpt lat="43.090293180082675" lon="12.356245942987503"><ele>273.0</ele><time>2026-04-19T17:00:56Z</time></trkpt><trkpt lat="43.09043988479465" lon="12.356200019779028"><ele>273.0</ele><time>2026-04-19T17:00:57Z</time></trkpt><trkpt lat="43.09058613467763" lon="12.356146123063738"><ele>273.0</ele><time>2026-04-19T17:00:58Z</time></trkpt><trkpt lat="43.09073347513773" lon="12.35608678090229"><ele>270.6666666666667</ele><time>2026-04-19T17:00:59Z</time></trkpt><trkpt lat="43.090882363879324" lon="12.356024349059044"><ele>268.33333333333337</ele><time>2026-04-19T17:01:00Z</time></trkpt><trkpt lat="43.09103374282416" lon="12.35596427239249"><ele>266.0</ele><time>2026-04-19T17:01:01Z</time></trkpt><trkpt lat="43.09118547433413" lon="12.355905252603048"><ele>266.0</ele><time>2026-04-19T17:01:02Z</time></trkpt><trkpt lat="43.091337790172645" lon="12.355842478508663"><ele>266.0</ele><time>2026-04-19T17:01:03Z</time></trkpt><trkpt lat="43.09148838672532" lon="12.355784106207784"><ele>266.0</ele><time>2026-04-19T17:01:04Z</time></trkpt><trkpt lat="43.09163950447569" lon="12.355733883731626"><ele>265.5</ele><time>2026-04-19T17:01:05Z</time></trkpt><trkpt lat="43.09178660932926" lon="12.355699773567915"><ele>265.0</ele><time>2026-04-19T17:01:06Z</time></trkpt><trkpt lat="43.091931306049055" lon="12.35568031265612"><ele>264.5</ele><time>2026-04-19T17:01:07Z</time></trkpt><trkpt lat="43.092073810283054" lon="12.355671812703886"><ele>264.0</ele><time>2026-04-19T17:01:08Z</time></trkpt><trkpt lat="43.092214352201616" lon="12.355671116450013"><ele>264.0</ele><time>2026-04-19T17:01:09Z</time></trkpt><trkpt lat="43.09235288337635" lon="12.355674955775099"><ele>264.0</ele><time>2026-04-19T17:01:10Z</time></trkpt><trkpt lat="43.092488077371485" lon="12.355678477164458"><ele>264.0</ele><time>2026-04-19T17:01:11Z</time></trkpt><trkpt lat="43.09261872745568" lon="12.35568479599021"><ele>264.0</ele><time>2026-04-19T17:01:12Z</time></trkpt><trkpt lat="43.092747704886584" lon="12.355691275482124"><ele>263.75</ele><time>2026-04-19T17:01:13Z</time></trkpt><trkpt lat="43.09287428702193" lon="12.35569746821201"><ele>263.5</ele><time>2026-04-19T17:01:14Z</time></trkpt><trkpt lat="43.09300001008319" lon="12.355700256609287"><ele>263.25</ele><time>2026-04-19T17:01:15Z</time></trkpt><trkpt lat="43.09312312124401" lon="12.355703443282374"><ele>263.0</ele><time>2026-04-19T17:01:16Z</time></trkpt><trkpt lat="43.093240747636514" lon="12.355707929022724"><ele>262.4</ele><time>2026-04-19T17:01:17Z</time></trkpt><trkpt lat="43.09334718115864" lon="12.35571980004499"><ele>261.8</ele><time>2026-04-19T17:01:18Z</time></trkpt><trkpt lat="43.09345313502608" lon="12.355749284239927"><ele>261.2</ele><time>2026-04-19T17:01:19Z</time></trkpt><trkpt lat="43.09355558884925" lon="12.355798123598634"><ele>260.6</ele><time>2026-04-19T17:01:20Z</time></trkpt><trkpt lat="43.093641012545376" lon="12.355887807774067"><ele>260.0</ele><time>2026-04-19T17:01:21Z</time></trkpt><trkpt lat="43.09370609322399" lon="12.3559989434111"><ele>260.0</ele><time>2026-04-19T17:01:22Z</time></trkpt><trkpt lat="43.0937501684173" lon="12.356122954468612"><ele>260.0</ele><time>2026-04-19T17:01:23Z</time></trkpt><trkpt lat="43.093778152167296" lon="12.356231040063511"><ele>260.0</ele><time>2026-04-19T17:01:24Z</time></trkpt><trkpt lat="43.093798239080094" lon="12.356321419321102"><ele>260.0</ele><time>2026-04-19T17:01:25Z</time></trkpt><trkpt lat="43.09382223478489" lon="12.356448835104555"><ele>260.0</ele><time>2026-04-19T17:01:27Z</time></trkpt><trkpt lat="43.093824516777865" lon="12.356543400764723"><ele>260.0</ele><time>2026-04-19T17:01:31Z</time></trkpt><trkpt lat="43.093802174137814" lon="12.356662683877047"><ele>259.1666666666667</ele><time>2026-04-19T17:01:33Z</time></trkpt><trkpt lat="43.093750648745136" lon="12.3568046492856"><ele>258.33333333333337</ele><time>2026-04-19T17:01:35Z</time></trkpt><trkpt lat="43.0937401670815" lon="12.356901407819842"><ele>257.5</ele><time>2026-04-19T17:01:36Z</time></trkpt><trkpt lat="43.09375033671419" lon="12.356993635402855"><ele>256.6666666666667</ele><time>2026-04-19T17:01:37Z</time></trkpt><trkpt lat="43.09377856696556" lon="12.357076772179044"><ele>255.83333333333334</ele><time>2026-04-19T17:01:38Z</time></trkpt><trkpt lat="43.09383114281841" lon="12.357144212134383"><ele>255.0</ele><time>2026-04-19T17:01:39Z</time></trkpt><trkpt lat="43.09390218146351" lon="12.357184766775783"><ele>255.0</ele><time>2026-04-19T17:01:40.001Z</time></trkpt><trkpt lat="43.09398087575" lon="12.35719702324035"><ele>255.0</ele><time>2026-04-19T17:01:41.001Z</time></trkpt><trkpt lat="43.09405624464734" lon="12.357171482988592"><ele>255.0</ele><time>2026-04-19T17:01:42.001Z</time></trkpt><trkpt lat="43.094125386275905" lon="12.3571098833311"><ele>255.0</ele><time>2026-04-19T17:01:43.001Z</time></trkpt><trkpt lat="43.09418616260014" lon="12.357018521636881"><ele>255.0</ele><time>2026-04-19T17:01:44.001Z</time></trkpt><trkpt lat="43.094238338662244" lon="12.356901675448034"><ele>255.0</ele><time>2026-04-19T17:01:45.001Z</time></trkpt><trkpt lat="43.094297377410854" lon="12.356788781911336"><ele>255.25</ele><time>2026-04-19T17:01:46.001Z</time></trkpt><trkpt lat="43.09436942198232" lon="12.35668433365447"><ele>255.5</ele><time>2026-04-19T17:01:47.001Z</time></trkpt><trkpt lat="43.09449917190321" lon="12.356686261562231"><ele>255.75</ele><time>2026-04-19T17:01:48.001Z</time></trkpt><trkpt lat="43.094622062306236" lon="12.356682764912186"><ele>256.0</ele><time>2026-04-19T17:01:49.001Z</time></trkpt><trkpt lat="43.09474259320438" lon="12.35668228923263"><ele>256.0</ele><time>2026-04-19T17:01:50.001Z</time></trkpt><trkpt lat="43.094867089197784" lon="12.356679922326492"><ele>256.0</ele><time>2026-04-19T17:01:51.001Z</time></trkpt><trkpt lat="43.0949868465987" lon="12.356678254386647"><ele>256.0</ele><time>2026-04-19T17:01:52.001Z</time></trkpt><trkpt lat="43.09509958545148" lon="12.356677602151828"><ele>256.0</ele><time>2026-04-19T17:01:53.001Z</time></trkpt><trkpt lat="43.09520891058332" lon="12.356678807110736"><ele>256.6</ele><time>2026-04-19T17:01:54.001Z</time></trkpt><trkpt lat="43.09531707209022" lon="12.356680435314843"><ele>257.20000000000005</ele><time>2026-04-19T17:01:55.001Z</time></trkpt><trkpt lat="43.09542467390237" lon="12.356694425800985"><ele>257.79999999999995</ele><time>2026-04-19T17:01:56.001Z</time></trkpt><trkpt lat="43.095535060324195" lon="12.356725119464219"><ele>258.4</ele><time>2026-04-19T17:01:57.001Z</time></trkpt><trkpt lat="43.09563563705797" lon="12.356776281619839"><ele>259.0</ele><time>2026-04-19T17:01:58.001Z</time></trkpt><trkpt lat="43.09572609207322" lon="12.356847314296791"><ele>259.4</ele><time>2026-04-19T17:01:59.001Z</time></trkpt><trkpt lat="43.095795428416004" lon="12.356948486754403"><ele>259.79999999999995</ele><time>2026-04-19T17:02:00.001Z</time></trkpt><trkpt lat="43.095843814241945" lon="12.357075807315567"><ele>260.20000000000005</ele><time>2026-04-19T17:02:01.001Z</time></trkpt><trkpt lat="43.095904433431436" lon="12.357186997233905"><ele>260.6</ele><time>2026-04-19T17:02:02.001Z</time></trkpt><trkpt lat="43.09587569801373" lon="12.357375522659542"><ele>261.0</ele><time>2026-04-19T17:02:03.001Z</time></trkpt><trkpt lat="43.095897759134004" lon="12.357522620538315"><ele>261.5</ele><time>2026-04-19T17:02:04.001Z</time></trkpt><trkpt lat="43.09595628665454" lon="12.357657172062117"><ele>262.0</ele><time>2026-04-19T17:02:05.001Z</time></trkpt><trkpt lat="43.096032787007395" lon="12.357770097947162"><ele>262.5</ele><time>2026-04-19T17:02:06.001Z</time></trkpt><trkpt lat="43.09612071845077" lon="12.35787715327259"><ele>263.0</ele><time>2026-04-19T17:02:07.001Z</time></trkpt><trkpt lat="43.09619303198345" lon="12.35798422640987"><ele>264.4</ele><time>2026-04-19T17:02:08.001Z</time></trkpt><trkpt lat="43.09624484670116" lon="12.358118442885596"><ele>265.8</ele><time>2026-04-19T17:02:09.001Z</time></trkpt><trkpt lat="43.09626195434037" lon="12.358268582905648"><ele>267.2</ele><time>2026-04-19T17:02:10.001Z</time></trkpt><trkpt lat="43.096240685782995" lon="12.358444531897842"><ele>268.6</ele><time>2026-04-19T17:02:11.001Z</time></trkpt><trkpt lat="43.09621040099669" lon="12.358564570946166"><ele>270.0</ele><time>2026-04-19T17:02:12.001Z</time></trkpt><trkpt lat="43.09616533992085" lon="12.358680926741263"><ele>270.0</ele><time>2026-04-19T17:02:13.001Z</time></trkpt><trkpt lat="43.0961171277924" lon="12.358781996307712"><ele>270.0</ele><time>2026-04-19T17:02:15.001Z</time></trkpt><trkpt lat="43.09608709240783" lon="12.358867690338844"><ele>270.0</ele><time>2026-04-19T17:02:22.001Z</time></trkpt><trkpt lat="43.09603678405833" lon="12.359001494740191"><ele>270.0</ele><time>2026-04-19T17:02:25.001Z</time></trkpt><trkpt lat="43.095981374219726" lon="12.359175743436627"><ele>270.0</ele><time>2026-04-19T17:02:27.001Z</time></trkpt><trkpt lat="43.095948226995745" lon="12.359276414139067"><ele>271.0</ele><time>2026-04-19T17:02:28.001Z</time></trkpt><trkpt lat="43.09591191305229" lon="12.359395712020895"><ele>272.0</ele><time>2026-04-19T17:02:29.001Z</time></trkpt><trkpt lat="43.095877984111866" lon="12.359524901721537"><ele>273.0</ele><time>2026-04-19T17:02:30Z</time></trkpt><trkpt lat="43.09584121661874" lon="12.359665342115813"><ele>274.0</ele><time>2026-04-19T17:02:31Z</time></trkpt><trkpt lat="43.095809052179845" lon="12.35982491641783"><ele>275.0</ele><time>2026-04-19T17:02:32Z</time></trkpt><trkpt lat="43.09577788077434" lon="12.360002883269674"><ele>278.5</ele><time>2026-04-19T17:02:33Z</time></trkpt><trkpt lat="43.09575054533527" lon="12.360181378605954"><ele>282.0</ele><time>2026-04-19T17:02:34Z</time></trkpt><trkpt lat="43.09572028484386" lon="12.360365152219568"><ele>285.5</ele><time>2026-04-19T17:02:35Z</time></trkpt><trkpt lat="43.09569077471185" lon="12.360554380462945"><ele>289.0</ele><time>2026-04-19T17:02:36Z</time></trkpt><trkpt lat="43.09565878528146" lon="12.360753493870874"><ele>289.0</ele><time>2026-04-19T17:02:37Z</time></trkpt><trkpt lat="43.09562999161794" lon="12.360934981719932"><ele>289.0</ele><time>2026-04-19T17:02:38Z</time></trkpt><trkpt lat="43.0955984212692" lon="12.361135892352864"><ele>289.0</ele><time>2026-04-19T17:02:39.065Z</time></trkpt><trkpt lat="43.095564027513255" lon="12.361318996655074"><ele>289.0</ele><time>2026-04-19T17:02:40.062Z</time></trkpt><trkpt lat="43.09552547883428" lon="12.361505001546483"><ele>288.5</ele><time>2026-04-19T17:02:41.062Z</time></trkpt><trkpt lat="43.09553136250237" lon="12.36168969751018"><ele>288.0</ele><time>2026-04-19T17:02:42.051Z</time></trkpt><trkpt lat="43.09618175724166" lon="12.364309091945175"><ele>301.0</ele><time>2026-04-19T17:02:45.718Z</time></trkpt><trkpt lat="43.09649146443836" lon="12.365197332480417"><ele>292.0</ele><time>2026-04-19T17:02:46.719Z</time></trkpt><trkpt lat="43.0968533055618" lon="12.3662839889673"><ele>290.25</ele><time>2026-04-19T17:03:15Z</time></trkpt><trkpt lat="43.09690910158119" lon="12.36645479200784"><ele>288.5</ele><time>2026-04-19T17:03:16Z</time></trkpt><trkpt lat="43.09695851040861" lon="12.366605015788405"><ele>286.75</ele><time>2026-04-19T17:03:17Z</time></trkpt><trkpt lat="43.09700981414608" lon="12.366745209033864"><ele>285.0</ele><time>2026-04-19T17:03:18Z</time></trkpt><trkpt lat="43.09706794870001" lon="12.366906927507987"><ele>285.0</ele><time>2026-04-19T17:03:19Z</time></trkpt><trkpt lat="43.09711949682482" lon="12.367066393261078"><ele>285.0</ele><time>2026-04-19T17:03:20Z</time></trkpt><trkpt lat="43.09717024413945" lon="12.367219881864312"><ele>285.0</ele><time>2026-04-19T17:03:21Z</time></trkpt><trkpt lat="43.09722797315959" lon="12.367386795034601"><ele>285.0</ele><time>2026-04-19T17:03:22Z</time></trkpt><trkpt lat="43.09729163008186" lon="12.367569529393835"><ele>284.3333333333333</ele><time>2026-04-19T17:03:23Z</time></trkpt><trkpt lat="43.097360295345325" lon="12.367765373246993"><ele>283.66666666666663</ele><time>2026-04-19T17:03:24Z</time></trkpt><trkpt lat="43.09742759800998" lon="12.367953065894664"><ele>283.0</ele><time>2026-04-19T17:03:25Z</time></trkpt><trkpt lat="43.09749511024602" lon="12.368133547836488"><ele>282.0</ele><time>2026-04-19T17:03:26Z</time></trkpt><trkpt lat="43.09756512779944" lon="12.368313534260468"><ele>281.0</ele><time>2026-04-19T17:03:27Z</time></trkpt><trkpt lat="43.09765250610797" lon="12.368537077210817"><ele>280.0</ele><time>2026-04-19T17:03:28Z</time></trkpt><trkpt lat="43.097748348126345" lon="12.368782086804558"><ele>278.3333333333333</ele><time>2026-04-19T17:03:29Z</time></trkpt><trkpt lat="43.097834106372325" lon="12.369014166902371"><ele>276.6666666666667</ele><time>2026-04-19T17:03:30Z</time></trkpt><trkpt lat="43.097912024590244" lon="12.369253273853262"><ele>275.0</ele><time>2026-04-19T17:03:31Z</time></trkpt><trkpt lat="43.09799201659938" lon="12.36951750217635"><ele>274.6666666666667</ele><time>2026-04-19T17:03:32Z</time></trkpt><trkpt lat="43.098068053392446" lon="12.369773170424128"><ele>274.3333333333333</ele><time>2026-04-19T17:03:33Z</time></trkpt><trkpt lat="43.09812622536932" lon="12.370026260246101"><ele>274.0</ele><time>2026-04-19T17:03:34Z</time></trkpt><trkpt lat="43.09818417289406" lon="12.370292148065692"><ele>274.66666666666663</ele><time>2026-04-19T17:03:35Z</time></trkpt><trkpt lat="43.09823547881869" lon="12.37058258847818"><ele>275.3333333333333</ele><time>2026-04-19T17:03:36.001Z</time></trkpt><trkpt lat="43.09827949189888" lon="12.37087390409184"><ele>276.0</ele><time>2026-04-19T17:03:37.001Z</time></trkpt><trkpt lat="43.09831329718384" lon="12.371173769030504"><ele>277.3333333333333</ele><time>2026-04-19T17:03:38.001Z</time></trkpt><trkpt lat="43.098302999116314" lon="12.371481145291094"><ele>278.66666666666663</ele><time>2026-04-19T17:03:39.001Z</time></trkpt><trkpt lat="43.09830229746111" lon="12.371782077986962"><ele>280.0</ele><time>2026-04-19T17:03:40.001Z</time></trkpt><trkpt lat="43.09829605289146" lon="12.372087063070826"><ele>281.0</ele><time>2026-04-19T17:03:41.001Z</time></trkpt><trkpt lat="43.098273441585754" lon="12.372386301363335"><ele>282.0</ele><time>2026-04-19T17:03:42.001Z</time></trkpt><trkpt lat="43.0982428140523" lon="12.372682499142226"><ele>283.0</ele><time>2026-04-19T17:03:43.001Z</time></trkpt><trkpt lat="43.09820305142818" lon="12.372984652366537"><ele>298.0</ele><time>2026-04-19T17:03:44.001Z</time></trkpt><trkpt lat="43.0981492592362" lon="12.373281996918141"><ele>313.0</ele><time>2026-04-19T17:03:45.001Z</time></trkpt><trkpt lat="43.098076096622734" lon="12.373584892731392"><ele>319.5</ele><time>2026-04-19T17:03:46.001Z</time></trkpt><trkpt lat="43.09799845932776" lon="12.373910620115216"><ele>326.0</ele><time>2026-04-19T17:03:47.001Z</time></trkpt><trkpt lat="43.09792039547505" lon="12.37426089017966"><ele>326.0</ele><time>2026-04-19T17:03:48.001Z</time></trkpt><trkpt lat="43.097814201897734" lon="12.374551141633969"><ele>326.0</ele><time>2026-04-19T17:03:49.001Z</time></trkpt><trkpt lat="43.09769881744044" lon="12.374835058530488"><ele>345.0</ele><time>2026-04-19T17:03:50.001Z</time></trkpt><trkpt lat="43.0973960883493" lon="12.375492126192356"><ele>346.5</ele><time>2026-04-19T17:03:52.001Z</time></trkpt><trkpt lat="43.09725086411682" lon="12.375808727141564"><ele>348.0</ele><time>2026-04-19T17:03:53.001Z</time></trkpt><trkpt lat="43.097095172138985" lon="12.376148147879492"><ele>347.0</ele><time>2026-04-19T17:03:54.065Z</time></trkpt><trkpt lat="43.09695512112018" lon="12.37644835564737"><ele>346.0</ele><time>2026-04-19T17:03:55.062Z</time></trkpt><trkpt lat="43.0968164886927" lon="12.376745526842669"><ele>346.0</ele><time>2026-04-19T17:03:56.063Z</time></trkpt><trkpt lat="43.096680114837916" lon="12.377037857347352"><ele>346.0</ele><time>2026-04-19T17:03:57.061Z</time></trkpt><trkpt lat="43.096564115421906" lon="12.377286512992281"><ele>346.5</ele><time>2026-04-19T17:03:58.039Z</time></trkpt><trkpt lat="43.09643258000374" lon="12.377568471719725"><ele>347.0</ele><time>2026-04-19T17:03:59.034Z</time></trkpt><trkpt lat="43.096298014300615" lon="12.37785692587062"><ele>353.0</ele><time>2026-04-19T17:04:00.028Z</time></trkpt><trkpt lat="43.0958001" lon="12.378755"><ele>314.0</ele><time>2026-04-19T17:04:03.722Z</time></trkpt><trkpt lat="43.09394067517366" lon="12.38405568628335"><ele>314.0</ele><time>2026-04-19T17:04:22.001Z</time></trkpt><trkpt lat="43.09387636178564" lon="12.384338061117324"><ele>314.0</ele><time>2026-04-19T17:04:23.001Z</time></trkpt><trkpt lat="43.09376817311009" lon="12.384579624162892"><ele>314.0</ele><time>2026-04-19T17:04:24.001Z</time></trkpt><trkpt lat="43.09372753460445" lon="12.384848543945486"><ele>311.6666666666667</ele><time>2026-04-19T17:04:25.001Z</time></trkpt><trkpt lat="43.09368371258156" lon="12.385123153277949"><ele>309.3333333333333</ele><time>2026-04-19T17:04:26.001Z</time></trkpt><trkpt lat="43.093648643776014" lon="12.385382878366693"><ele>307.0</ele><time>2026-04-19T17:04:27.001Z</time></trkpt><trkpt lat="43.09362167425781" lon="12.385657627063173"><ele>307.0</ele><time>2026-04-19T17:04:28.001Z</time></trkpt><trkpt lat="43.09358602021636" lon="12.385929437399067"><ele>307.0</ele><time>2026-04-19T17:04:29.001Z</time></trkpt><trkpt lat="43.09355189098557" lon="12.386219439133184"><ele>307.0</ele><time>2026-04-19T17:04:30.001Z</time></trkpt><trkpt lat="43.093524822389774" lon="12.386547029671013"><ele>311.0</ele><time>2026-04-19T17:04:31.001Z</time></trkpt><trkpt lat="43.0935041102685" lon="12.386845391864181"><ele>315.0</ele><time>2026-04-19T17:04:32.001Z</time></trkpt><trkpt lat="43.09348723148551" lon="12.387183326119052"><ele>316.5</ele><time>2026-04-19T17:04:33.001Z</time></trkpt><trkpt lat="43.093469432610625" lon="12.387506040641588"><ele>318.0</ele><time>2026-04-19T17:04:34.001Z</time></trkpt><trkpt lat="43.09345958926896" lon="12.38781611053875"><ele>321.0</ele><time>2026-04-19T17:04:35.001Z</time></trkpt><trkpt lat="43.09345424940364" lon="12.388127470743816"><ele>324.0</ele><time>2026-04-19T17:04:36Z</time></trkpt><trkpt lat="43.09345416110992" lon="12.388440870285612"><ele>324.0</ele><time>2026-04-19T17:04:37Z</time></trkpt><trkpt lat="43.09345567595782" lon="12.388754250724416"><ele>324.0</ele><time>2026-04-19T17:04:38Z</time></trkpt><trkpt lat="43.09346476777994" lon="12.38906540994512"><ele>329.0</ele><time>2026-04-19T17:04:39Z</time></trkpt><trkpt lat="43.093475586687326" lon="12.389380053197872"><ele>334.0</ele><time>2026-04-19T17:04:40Z</time></trkpt><trkpt lat="43.09349090662575" lon="12.389693955552456"><ele>336.0</ele><time>2026-04-19T17:04:41Z</time></trkpt><trkpt lat="43.09351023121782" lon="12.390005575458163"><ele>338.0</ele><time>2026-04-19T17:04:42Z</time></trkpt><trkpt lat="43.09352068667646" lon="12.390325525052443"><ele>341.5</ele><time>2026-04-19T17:04:43Z</time></trkpt><trkpt lat="43.09352470777166" lon="12.39064445386028"><ele>345.0</ele><time>2026-04-19T17:04:44Z</time></trkpt><trkpt lat="43.093526796653464" lon="12.390980418913724"><ele>345.0</ele><time>2026-04-19T17:04:45Z</time></trkpt><trkpt lat="43.09352923062874" lon="12.39130683602361"><ele>345.0</ele><time>2026-04-19T17:04:46.061Z</time></trkpt><trkpt lat="43.093526709071085" lon="12.39164020446365"><ele>347.5</ele><time>2026-04-19T17:04:47.057Z</time></trkpt><trkpt lat="43.09352686497995" lon="12.391970384935789"><ele>350.0</ele><time>2026-04-19T17:04:48.051Z</time></trkpt><trkpt lat="43.09352678829724" lon="12.39230412612643"><ele>355.5</ele><time>2026-04-19T17:04:49.051Z</time></trkpt><trkpt lat="43.09353051204242" lon="12.392626271681562"><ele>361.0</ele><time>2026-04-19T17:04:50.047Z</time></trkpt><trkpt lat="43.09353230349267" lon="12.392951225492157"><ele>311.0</ele><time>2026-04-19T17:04:51.044Z</time></trkpt><trkpt lat="43.0941225459054" lon="12.403591818825"><ele>309.33333333333337</ele><time>2026-04-19T17:05:26.001Z</time></trkpt><trkpt lat="43.0941381352141" lon="12.40388253571437"><ele>307.6666666666667</ele><time>2026-04-19T17:05:27.001Z</time></trkpt><trkpt lat="43.09415333362563" lon="12.404169360299313"><ele>306.0</ele><time>2026-04-19T17:05:28.001Z</time></trkpt><trkpt lat="43.09415458237949" lon="12.404466292764194"><ele>304.6666666666667</ele><time>2026-04-19T17:05:29.001Z</time></trkpt><trkpt lat="43.09416132317341" lon="12.404761892990996"><ele>303.33333333333337</ele><time>2026-04-19T17:05:30.001Z</time></trkpt><trkpt lat="43.094172031094956" lon="12.405058716271096"><ele>302.0</ele><time>2026-04-19T17:05:31.001Z</time></trkpt><trkpt lat="43.094183860149215" lon="12.405375083622596"><ele>297.5</ele><time>2026-04-19T17:05:32.001Z</time></trkpt><trkpt lat="43.09419500917396" lon="12.405688814321335"><ele>293.0</ele><time>2026-04-19T17:05:33.001Z</time></trkpt><trkpt lat="43.09421206887179" lon="12.4060156810488"><ele>292.5</ele><time>2026-04-19T17:05:34.001Z</time></trkpt><trkpt lat="43.09421435108691" lon="12.406376321060568"><ele>292.0</ele><time>2026-04-19T17:05:35.001Z</time></trkpt><trkpt lat="43.09419940140237" lon="12.406748067244571"><ele>292.0</ele><time>2026-04-19T17:05:36.001Z</time></trkpt><trkpt lat="43.09417621935095" lon="12.407123416478722"><ele>292.0</ele><time>2026-04-19T17:05:37.001Z</time></trkpt><trkpt lat="43.09412592389417" lon="12.407503025616306"><ele>285.5</ele><time>2026-04-19T17:05:38.001Z</time></trkpt><trkpt lat="43.09407268763415" lon="12.407880143868173"><ele>279.0</ele><time>2026-04-19T17:05:39.001Z</time></trkpt><trkpt lat="43.09399350340015" lon="12.408251703121762"><ele>277.5</ele><time>2026-04-19T17:05:40.001Z</time></trkpt><trkpt lat="43.09391265208486" lon="12.40862445909617"><ele>276.0</ele><time>2026-04-19T17:05:41.001Z</time></trkpt><trkpt lat="43.09383398673295" lon="12.408997458134314"><ele>276.0</ele><time>2026-04-19T17:05:42.001Z</time></trkpt><trkpt lat="43.09374033478321" lon="12.409358198954822"><ele>276.0</ele><time>2026-04-19T17:05:43.001Z</time></trkpt><trkpt lat="43.093642578763315" lon="12.409717073959118"><ele>277.0</ele><time>2026-04-19T17:05:44.001Z</time></trkpt><trkpt lat="43.09352711671545" lon="12.410069425387483"><ele>278.0</ele><time>2026-04-19T17:05:45.001Z</time></trkpt><trkpt lat="43.09340365752088" lon="12.41040114253588"><ele>278.0</ele><time>2026-04-19T17:05:46.001Z</time></trkpt><trkpt lat="43.09327884577582" lon="12.410720550920653"><ele>278.0</ele><time>2026-04-19T17:05:47.001Z</time></trkpt><trkpt lat="43.093160467906934" lon="12.411022250241682"><ele>272.0</ele><time>2026-04-19T17:05:48.001Z</time></trkpt><trkpt lat="43.093046471543964" lon="12.411315540681219"><ele>266.0</ele><time>2026-04-19T17:05:49.001Z</time></trkpt><trkpt lat="43.09293741129324" lon="12.411599111034413"><ele>266.0</ele><time>2026-04-19T17:05:50.001Z</time></trkpt><trkpt lat="43.09283271389462" lon="12.411879078935312"><ele>266.0</ele><time>2026-04-19T17:05:51.001Z</time></trkpt><trkpt lat="43.092724651253825" lon="12.412165676589858"><ele>267.0</ele><time>2026-04-19T17:05:52.001Z</time></trkpt><trkpt lat="43.09261895056714" lon="12.41244847974286"><ele>268.0</ele><time>2026-04-19T17:05:53.001Z</time></trkpt><trkpt lat="43.09251281514936" lon="12.412730866024637"><ele>263.0</ele><time>2026-04-19T17:05:54.001Z</time></trkpt><trkpt lat="43.09241064426057" lon="12.413012788958262"><ele>258.0</ele><time>2026-04-19T17:05:55.001Z</time></trkpt><trkpt lat="43.092309323970845" lon="12.413282557702052"><ele>258.0</ele><time>2026-04-19T17:05:56.001Z</time></trkpt><trkpt lat="43.09221187120914" lon="12.413542026781602"><ele>258.0</ele><time>2026-04-19T17:05:57.001Z</time></trkpt><trkpt lat="43.092116956661826" lon="12.41379618309287"><ele>258.0</ele><time>2026-04-19T17:05:58.001Z</time></trkpt><trkpt lat="43.092024049994336" lon="12.41405100464196"><ele>259.3333333333333</ele><time>2026-04-19T17:05:59.001Z</time></trkpt><trkpt lat="43.09193657675884" lon="12.414306080006003"><ele>260.66666666666663</ele><time>2026-04-19T17:06:00.001Z</time></trkpt><trkpt lat="43.091863526790654" lon="12.414562852890217"><ele>262.0</ele><time>2026-04-19T17:06:01.001Z</time></trkpt><trkpt lat="43.09180061973792" lon="12.414820205224306"><ele>263.3333333333333</ele><time>2026-04-19T17:06:02.001Z</time></trkpt><trkpt lat="43.091751113751116" lon="12.415070327203502"><ele>264.6666666666667</ele><time>2026-04-19T17:06:03.001Z</time></trkpt><trkpt lat="43.09172817358495" lon="12.415309572220323"><ele>266.0</ele><time>2026-04-19T17:06:04.001Z</time></trkpt><trkpt lat="43.091699239356785" lon="12.415581635236629"><ele>266.6666666666667</ele><time>2026-04-19T17:06:05.001Z</time></trkpt><trkpt lat="43.091665181233274" lon="12.415862206274857"><ele>267.3333333333333</ele><time>2026-04-19T17:06:06.001Z</time></trkpt><trkpt lat="43.09162616597105" lon="12.416149752584765"><ele>268.0</ele><time>2026-04-19T17:06:07.001Z</time></trkpt><trkpt lat="43.09159191351244" lon="12.416445883236175"><ele>266.3333333333333</ele><time>2026-04-19T17:06:08.001Z</time></trkpt><trkpt lat="43.0915568578799" lon="12.416724428001839"><ele>264.6666666666667</ele><time>2026-04-19T17:06:09.001Z</time></trkpt><trkpt lat="43.09151829799582" lon="12.417016451838592"><ele>263.0</ele><time>2026-04-19T17:06:10.001Z</time></trkpt><trkpt lat="43.091475134711786" lon="12.417311324814236"><ele>263.0</ele><time>2026-04-19T17:06:11.001Z</time></trkpt><trkpt lat="43.09143080853769" lon="12.41760548024588"><ele>263.0</ele><time>2026-04-19T17:06:12.001Z</time></trkpt><trkpt lat="43.091389008645415" lon="12.417925316526711"><ele>265.33333333333337</ele><time>2026-04-19T17:06:13.063Z</time></trkpt><trkpt lat="43.0913557205044" lon="12.418226706020898"><ele>267.6666666666667</ele><time>2026-04-19T17:06:14.055Z</time></trkpt><trkpt lat="43.091323379912005" lon="12.418527842006034"><ele>270.0</ele><time>2026-04-19T17:06:15.057Z</time></trkpt><trkpt lat="43.091273637873456" lon="12.418810701551294"><ele>270.6666666666667</ele><time>2026-04-19T17:06:16.053Z</time></trkpt><trkpt lat="43.09125147191512" lon="12.419098806450659"><ele>271.33333333333337</ele><time>2026-04-19T17:06:17.036Z</time></trkpt><trkpt lat="43.09122263678861" lon="12.419389819226591"><ele>272.0</ele><time>2026-04-19T17:06:18.036Z</time></trkpt><trkpt lat="43.09084593055629" lon="12.422636220699378"><ele>259.6666666666667</ele><time>2026-04-19T17:06:28.001Z</time></trkpt><trkpt lat="43.09075781151502" lon="12.422912974581504"><ele>247.33333333333331</ele><time>2026-04-19T17:06:29.001Z</time></trkpt><trkpt lat="43.090618647389256" lon="12.423141691018268"><ele>235.0</ele><time>2026-04-19T17:06:30.001Z</time></trkpt><trkpt lat="43.090452323257914" lon="12.423380997531911"><ele>231.0</ele><time>2026-04-19T17:06:31.001Z</time></trkpt><trkpt lat="43.09028501265709" lon="12.423610694459864"><ele>227.0</ele><time>2026-04-19T17:06:32.001Z</time></trkpt><trkpt lat="43.09010402458522" lon="12.423831446719651"><ele>221.5</ele><time>2026-04-19T17:06:33.001Z</time></trkpt><trkpt lat="43.08992477550567" lon="12.424045026346507"><ele>216.0</ele><time>2026-04-19T17:06:34.001Z</time></trkpt><trkpt lat="43.08974426656693" lon="12.424253169927821"><ele>216.0</ele><time>2026-04-19T17:06:35.001Z</time></trkpt><trkpt lat="43.089570038518055" lon="12.42445922439768"><ele>216.0</ele><time>2026-04-19T17:06:36.001Z</time></trkpt><trkpt lat="43.08940649744347" lon="12.424650789915814"><ele>216.0</ele><time>2026-04-19T17:06:37.001Z</time></trkpt><trkpt lat="43.08925477195774" lon="12.424841825253896"><ele>216.66666666666669</ele><time>2026-04-19T17:06:38.001Z</time></trkpt><trkpt lat="43.08909669492674" lon="12.425031179856795"><ele>217.33333333333334</ele><time>2026-04-19T17:06:39.001Z</time></trkpt><trkpt lat="43.08893925087734" lon="12.425218391482298"><ele>218.0</ele><time>2026-04-19T17:06:40.001Z</time></trkpt><trkpt lat="43.08877173530882" lon="12.425408116058671"><ele>214.0</ele><time>2026-04-19T17:06:41.001Z</time></trkpt><trkpt lat="43.088621374387415" lon="12.425590934700114"><ele>210.0</ele><time>2026-04-19T17:06:42Z</time></trkpt><trkpt lat="43.08846506028402" lon="12.425776387187506"><ele>206.0</ele><time>2026-04-19T17:06:43Z</time></trkpt><trkpt lat="43.08830994764243" lon="12.425965470448462"><ele>205.66666666666669</ele><time>2026-04-19T17:06:44Z</time></trkpt><trkpt lat="43.08815383085726" lon="12.426151906427217"><ele>205.33333333333331</ele><time>2026-04-19T17:06:45Z</time></trkpt><trkpt lat="43.08799957395434" lon="12.426339065138373"><ele>205.0</ele><time>2026-04-19T17:06:46Z</time></trkpt><trkpt lat="43.087844157529084" lon="12.426528720749367"><ele>205.0</ele><time>2026-04-19T17:06:47Z</time></trkpt><trkpt lat="43.08768766805935" lon="12.426717674007493"><ele>205.0</ele><time>2026-04-19T17:06:48Z</time></trkpt><trkpt lat="43.08753494167057" lon="12.426903467118583"><ele>205.0</ele><time>2026-04-19T17:06:49Z</time></trkpt><trkpt lat="43.087383267937916" lon="12.427083500449228"><ele>204.0</ele><time>2026-04-19T17:06:50Z</time></trkpt><trkpt lat="43.08723856496127" lon="12.427249991486114"><ele>203.0</ele><time>2026-04-19T17:06:51Z</time></trkpt><trkpt lat="43.087090527266426" lon="12.427410235481686"><ele>202.0</ele><time>2026-04-19T17:06:52Z</time></trkpt><trkpt lat="43.08694152573904" lon="12.427568464485127"><ele>202.0</ele><time>2026-04-19T17:06:53Z</time></trkpt><trkpt lat="43.08678848836926" lon="12.427721175570142"><ele>202.0</ele><time>2026-04-19T17:06:54Z</time></trkpt><trkpt lat="43.086633916633126" lon="12.427861859420185"><ele>202.0</ele><time>2026-04-19T17:06:55Z</time></trkpt><trkpt lat="43.086474393336815" lon="12.428027067679768"><ele>202.0</ele><time>2026-04-19T17:06:56Z</time></trkpt><trkpt lat="43.086324023620655" lon="12.428180246783729"><ele>202.0</ele><time>2026-04-19T17:06:57Z</time></trkpt><trkpt lat="43.08617740912612" lon="12.428329108678959"><ele>202.0</ele><time>2026-04-19T17:06:58Z</time></trkpt><trkpt lat="43.086030969679676" lon="12.428464970744331"><ele>202.0</ele><time>2026-04-19T17:06:59Z</time></trkpt><trkpt lat="43.0858983440252" lon="12.428587968167667"><ele>202.0</ele><time>2026-04-19T17:07:00Z</time></trkpt><trkpt lat="43.08577336748112" lon="12.428736638123608"><ele>202.0</ele><time>2026-04-19T17:07:01Z</time></trkpt><trkpt lat="43.08565617896745" lon="12.42887574373098"><ele>200.33333333333331</ele><time>2026-04-19T17:07:02Z</time></trkpt><trkpt lat="43.08554761048591" lon="12.429034570178226"><ele>198.66666666666669</ele><time>2026-04-19T17:07:03Z</time></trkpt><trkpt lat="43.085450981244044" lon="12.42920709646307"><ele>197.0</ele><time>2026-04-19T17:07:04Z</time></trkpt><trkpt lat="43.08535916705188" lon="12.429390433381432"><ele>197.0</ele><time>2026-04-19T17:07:05Z</time></trkpt><trkpt lat="43.085274303754076" lon="12.4295844568019"><ele>197.0</ele><time>2026-04-19T17:07:06Z</time></trkpt><trkpt lat="43.0852051465002" lon="12.429792662425584"><ele>197.0</ele><time>2026-04-19T17:07:07Z</time></trkpt><trkpt lat="43.08515345616454" lon="12.430010641458818"><ele>197.33333333333334</ele><time>2026-04-19T17:07:08Z</time></trkpt><trkpt lat="43.085123011830305" lon="12.430224782637668"><ele>197.66666666666669</ele><time>2026-04-19T17:07:09Z</time></trkpt><trkpt lat="43.08510236813136" lon="12.43043550758891"><ele>198.0</ele><time>2026-04-19T17:07:10Z</time></trkpt><trkpt lat="43.085093226067755" lon="12.430643511661316"><ele>197.75</ele><time>2026-04-19T17:07:11Z</time></trkpt><trkpt lat="43.08509070217185" lon="12.430850198913655"><ele>197.5</ele><time>2026-04-19T17:07:12Z</time></trkpt><trkpt lat="43.08510155915838" lon="12.431038406603214"><ele>197.25</ele><time>2026-04-19T17:07:13Z</time></trkpt><trkpt lat="43.08511420348264" lon="12.43120806822291"><ele>197.0</ele><time>2026-04-19T17:07:14Z</time></trkpt><trkpt lat="43.08512830925155" lon="12.431363537130482"><ele>197.0</ele><time>2026-04-19T17:07:15Z</time></trkpt><trkpt lat="43.08514386395838" lon="12.431507716049763"><ele>197.0</ele><time>2026-04-19T17:07:16.001Z</time></trkpt><trkpt lat="43.085160478672684" lon="12.431636020317972"><ele>197.0</ele><time>2026-04-19T17:07:17.001Z</time></trkpt><trkpt lat="43.085179173980094" lon="12.43175090322843"><ele>197.0</ele><time>2026-04-19T17:07:18.001Z</time></trkpt><trkpt lat="43.08519881406784" lon="12.431846263879278"><ele>197.0</ele><time>2026-04-19T17:07:19.001Z</time></trkpt><trkpt lat="43.08523524127411" lon="12.43199251792981"><ele>197.0</ele><time>2026-04-19T17:07:21.001Z</time></trkpt><trkpt lat="43.085270634350394" lon="12.432137474694668"><ele>197.0</ele><time>2026-04-19T17:07:23.001Z</time></trkpt><trkpt lat="43.08529773882311" lon="12.432246165279707"><ele>197.0</ele><time>2026-04-19T17:07:24.001Z</time></trkpt><trkpt lat="43.085335949178095" lon="12.432401057050308"><ele>197.0</ele><time>2026-04-19T17:07:25.001Z</time></trkpt><trkpt lat="43.08538111261415" lon="12.43257960386689"><ele>197.0</ele><time>2026-04-19T17:07:26.001Z</time></trkpt><trkpt lat="43.08542330207588" lon="12.432756579011974"><ele>197.0</ele><time>2026-04-19T17:07:27.001Z</time></trkpt><trkpt lat="43.08546764157245" lon="12.432937318834282"><ele>197.0</ele><time>2026-04-19T17:07:28.001Z</time></trkpt><trkpt lat="43.085510834103374" lon="12.433118612800994"><ele>197.0</ele><time>2026-04-19T17:07:29.001Z</time></trkpt><trkpt lat="43.085550894149186" lon="12.433297976346134"><ele>196.5</ele><time>2026-04-19T17:07:30.001Z</time></trkpt><trkpt lat="43.085589479787494" lon="12.433474940121608"><ele>196.0</ele><time>2026-04-19T17:07:31.001Z</time></trkpt><trkpt lat="43.08562258653553" lon="12.433648172976147"><ele>195.5</ele><time>2026-04-19T17:07:32.001Z</time></trkpt><trkpt lat="43.08564745745264" lon="12.433795574130745"><ele>195.0</ele><time>2026-04-19T17:07:33.001Z</time></trkpt><trkpt lat="43.08566872459321" lon="12.43392516066821"><ele>194.8</ele><time>2026-04-19T17:07:34.001Z</time></trkpt><trkpt lat="43.08568231920222" lon="12.43405384068"><ele>194.6</ele><time>2026-04-19T17:07:35.001Z</time></trkpt><trkpt lat="43.08569732255897" lon="12.434186839614835"><ele>194.39999999999998</ele><time>2026-04-19T17:07:36.001Z</time></trkpt><trkpt lat="43.08570937529322" lon="12.434318527213565"><ele>194.2</ele><time>2026-04-19T17:07:37.001Z</time></trkpt><trkpt lat="43.08572560409301" lon="12.434447252648212"><ele>194.0</ele><time>2026-04-19T17:07:38.001Z</time></trkpt><trkpt lat="43.085733437960265" lon="12.43459024257848"><ele>194.25</ele><time>2026-04-19T17:07:39.001Z</time></trkpt><trkpt lat="43.08573723145178" lon="12.434747573631793"><ele>194.5</ele><time>2026-04-19T17:07:40.001Z</time></trkpt><trkpt lat="43.08573659722987" lon="12.434915486265437"><ele>194.75</ele><time>2026-04-19T17:07:41.001Z</time></trkpt><trkpt lat="43.08575292776142" lon="12.435089956764779"><ele>195.0</ele><time>2026-04-19T17:07:42.001Z</time></trkpt><trkpt lat="43.08574885064354" lon="12.435264787394882"><ele>195.0</ele><time>2026-04-19T17:07:43.001Z</time></trkpt><trkpt lat="43.085755905533226" lon="12.435450136769406"><ele>195.0</ele><time>2026-04-19T17:07:44.001Z</time></trkpt><trkpt lat="43.085770145498564" lon="12.435672103169184"><ele>195.0</ele><time>2026-04-19T17:07:45.001Z</time></trkpt><trkpt lat="43.08578032896786" lon="12.435934083455438"><ele>195.0</ele><time>2026-04-19T17:07:46.001Z</time></trkpt><trkpt lat="43.0857879068427" lon="12.436192592538259"><ele>195.0</ele><time>2026-04-19T17:07:47.001Z</time></trkpt><trkpt lat="43.085788999379176" lon="12.43647493398903"><ele>195.0</ele><time>2026-04-19T17:07:48.001Z</time></trkpt><trkpt lat="43.08577884386961" lon="12.436761071608597"><ele>194.0</ele><time>2026-04-19T17:07:49.001Z</time></trkpt><trkpt lat="43.085806307259666" lon="12.437068230617232"><ele>193.0</ele><time>2026-04-19T17:07:50.001Z</time></trkpt><trkpt lat="43.085796140490245" lon="12.437388339884082"><ele>193.0</ele><time>2026-04-19T17:07:51.001Z</time></trkpt><trkpt lat="43.08578890307088" lon="12.437717600269133"><ele>193.0</ele><time>2026-04-19T17:07:52.001Z</time></trkpt><trkpt lat="43.0857835202389" lon="12.438044250627778"><ele>193.0</ele><time>2026-04-19T17:07:53.001Z</time></trkpt><trkpt lat="43.08578247489269" lon="12.438384178412907"><ele>193.0</ele><time>2026-04-19T17:07:54.001Z</time></trkpt><trkpt lat="43.08577676829746" lon="12.438716499331292"><ele>193.5</ele><time>2026-04-19T17:07:55.001Z</time></trkpt><trkpt lat="43.08577189891836" lon="12.439044807145661"><ele>194.0</ele><time>2026-04-19T17:07:56.001Z</time></trkpt><trkpt lat="43.08576425267897" lon="12.439371056835892"><ele>193.33333333333334</ele><time>2026-04-19T17:07:57.001Z</time></trkpt><trkpt lat="43.08576331404472" lon="12.43967902410213"><ele>192.66666666666669</ele><time>2026-04-19T17:07:58.001Z</time></trkpt><trkpt lat="43.08575496442714" lon="12.439981536849569"><ele>192.0</ele><time>2026-04-19T17:07:59.001Z</time></trkpt><trkpt lat="43.08575319028465" lon="12.440271691995079"><ele>192.0</ele><time>2026-04-19T17:08:00.001Z</time></trkpt><trkpt lat="43.08575823897242" lon="12.440558357581713"><ele>192.0</ele><time>2026-04-19T17:08:01.001Z</time></trkpt><trkpt lat="43.08578178061858" lon="12.440849171860771"><ele>192.0</ele><time>2026-04-19T17:08:02.001Z</time></trkpt><trkpt lat="43.085820527362074" lon="12.441141305422306"><ele>192.0</ele><time>2026-04-19T17:08:03.001Z</time></trkpt><trkpt lat="43.08586972340013" lon="12.441430239141535"><ele>192.0</ele><time>2026-04-19T17:08:04.001Z</time></trkpt><trkpt lat="43.08591623245852" lon="12.44171650897533"><ele>192.0</ele><time>2026-04-19T17:08:05.001Z</time></trkpt><trkpt lat="43.08599484611304" lon="12.442011682722926"><ele>191.0</ele><time>2026-04-19T17:08:06.001Z</time></trkpt><trkpt lat="43.08608307189767" lon="12.442294137094612"><ele>190.0</ele><time>2026-04-19T17:08:07.001Z</time></trkpt><trkpt lat="43.086184800794925" lon="12.442577086688797"><ele>190.0</ele><time>2026-04-19T17:08:08.001Z</time></trkpt><trkpt lat="43.08628681426754" lon="12.442864633362495"><ele>190.0</ele><time>2026-04-19T17:08:09.001Z</time></trkpt><trkpt lat="43.0863830840942" lon="12.443164350790148"><ele>190.5</ele><time>2026-04-19T17:08:10.001Z</time></trkpt><trkpt lat="43.08647222494807" lon="12.44347084313907"><ele>191.0</ele><time>2026-04-19T17:08:11.001Z</time></trkpt><trkpt lat="43.08656820796398" lon="12.443786494306673"><ele>191.0</ele><time>2026-04-19T17:08:12.001Z</time></trkpt><trkpt lat="43.086663570816874" lon="12.444099831215985"><ele>191.0</ele><time>2026-04-19T17:08:13.001Z</time></trkpt><trkpt lat="43.08675811830242" lon="12.444410257085156"><ele>191.0</ele><time>2026-04-19T17:08:14.001Z</time></trkpt><trkpt lat="43.086849249325994" lon="12.444721789433792"><ele>191.0</ele><time>2026-04-19T17:08:15.001Z</time></trkpt><trkpt lat="43.08694557453656" lon="12.445034528393263"><ele>191.0</ele><time>2026-04-19T17:08:16.001Z</time></trkpt><trkpt lat="43.08703768088444" lon="12.445349086394183"><ele>191.0</ele><time>2026-04-19T17:08:17.001Z</time></trkpt><trkpt lat="43.087129496081076" lon="12.445666207267038"><ele>189.5</ele><time>2026-04-19T17:08:18.001Z</time></trkpt><trkpt lat="43.08722611158332" lon="12.445985449370628"><ele>188.0</ele><time>2026-04-19T17:08:19.001Z</time></trkpt><trkpt lat="43.087322325941784" lon="12.446310056486807"><ele>188.0</ele><time>2026-04-19T17:08:20.001Z</time></trkpt><trkpt lat="43.08742319440756" lon="12.446626108093762"><ele>188.0</ele><time>2026-04-19T17:08:21.001Z</time></trkpt><trkpt lat="43.08752112913556" lon="12.446955005904764"><ele>188.0</ele><time>2026-04-19T17:08:22.001Z</time></trkpt><trkpt lat="43.08762179639151" lon="12.447283680801357"><ele>188.0</ele><time>2026-04-19T17:08:23.001Z</time></trkpt><trkpt lat="43.08772376541405" lon="12.447614469140529"><ele>188.0</ele><time>2026-04-19T17:08:24.001Z</time></trkpt><trkpt lat="43.087824525013275" lon="12.447947125685205"><ele>188.0</ele><time>2026-04-19T17:08:25.001Z</time></trkpt><trkpt lat="43.08792303980939" lon="12.448279541851198"><ele>186.0</ele><time>2026-04-19T17:08:26.001Z</time></trkpt><trkpt lat="43.08801908806976" lon="12.448609724370181"><ele>184.0</ele><time>2026-04-19T17:08:27.001Z</time></trkpt><trkpt lat="43.0881163988435" lon="12.448936805832671"><ele>183.5</ele><time>2026-04-19T17:08:28.001Z</time></trkpt><trkpt lat="43.088216355545924" lon="12.449262749517693"><ele>183.0</ele><time>2026-04-19T17:08:29.001Z</time></trkpt><trkpt lat="43.08831545522092" lon="12.449590919530529"><ele>184.5</ele><time>2026-04-19T17:08:30.001Z</time></trkpt><trkpt lat="43.0884157550671" lon="12.449918955265723"><ele>186.0</ele><time>2026-04-19T17:08:31.001Z</time></trkpt><trkpt lat="43.08851116960067" lon="12.450246868112279"><ele>186.0</ele><time>2026-04-19T17:08:32.001Z</time></trkpt><trkpt lat="43.08860585608315" lon="12.450571304062832"><ele>186.0</ele><time>2026-04-19T17:08:33.001Z</time></trkpt><trkpt lat="43.088702805350884" lon="12.450897119714067"><ele>186.0</ele><time>2026-04-19T17:08:34.001Z</time></trkpt><trkpt lat="43.08880149002021" lon="12.451222688237825"><ele>186.0</ele><time>2026-04-19T17:08:35.001Z</time></trkpt><trkpt lat="43.08889791028987" lon="12.451544154025758"><ele>186.5</ele><time>2026-04-19T17:08:36.001Z</time></trkpt><trkpt lat="43.08899136905421" lon="12.45186602855969"><ele>187.0</ele><time>2026-04-19T17:08:37.001Z</time></trkpt><trkpt lat="43.08907885952788" lon="12.452190375198544"><ele>186.5</ele><time>2026-04-19T17:08:38.001Z</time></trkpt><trkpt lat="43.08916603974727" lon="12.452518059556672"><ele>186.0</ele><time>2026-04-19T17:08:39.001Z</time></trkpt><trkpt lat="43.089241716231754" lon="12.45285180946972"><ele>186.0</ele><time>2026-04-19T17:08:40.001Z</time></trkpt><trkpt lat="43.0892981569499" lon="12.453197472203039"><ele>186.0</ele><time>2026-04-19T17:08:41.001Z</time></trkpt><trkpt lat="43.089336779637655" lon="12.453549944364406"><ele>186.5</ele><time>2026-04-19T17:08:42.001Z</time></trkpt><trkpt lat="43.08935927847903" lon="12.453903006200452"><ele>187.0</ele><time>2026-04-19T17:08:43.001Z</time></trkpt><trkpt lat="43.089366507399816" lon="12.454259078746157"><ele>187.0</ele><time>2026-04-19T17:08:44.001Z</time></trkpt><trkpt lat="43.089360070703044" lon="12.45461527844358"><ele>187.0</ele><time>2026-04-19T17:08:45.001Z</time></trkpt><trkpt lat="43.089337251588745" lon="12.454973053758323"><ele>187.0</ele><time>2026-04-19T17:08:46.001Z</time></trkpt><trkpt lat="43.08929859442399" lon="12.455324716683174"><ele>187.0</ele><time>2026-04-19T17:08:47Z</time></trkpt><trkpt lat="43.089251898832" lon="12.455671757784637"><ele>186.5</ele><time>2026-04-19T17:08:48Z</time></trkpt><trkpt lat="43.08919356213236" lon="12.456023001058595"><ele>186.0</ele><time>2026-04-19T17:08:49Z</time></trkpt><trkpt lat="43.08913508884761" lon="12.456367773466015"><ele>191.5</ele><time>2026-04-19T17:08:50Z</time></trkpt><trkpt lat="43.089079701981504" lon="12.456715193562662"><ele>197.0</ele><time>2026-04-19T17:08:51Z</time></trkpt><trkpt lat="43.08902528840179" lon="12.457060352826218"><ele>192.5</ele><time>2026-04-19T17:08:52Z</time></trkpt><trkpt lat="43.088970440112924" lon="12.457401363037073"><ele>188.0</ele><time>2026-04-19T17:08:53Z</time></trkpt><trkpt lat="43.08891284014465" lon="12.457747807887754"><ele>188.5</ele><time>2026-04-19T17:08:54Z</time></trkpt><trkpt lat="43.0888565219414" lon="12.458092421412049"><ele>189.0</ele><time>2026-04-19T17:08:55Z</time></trkpt><trkpt lat="43.088801182795116" lon="12.458437933582788"><ele>189.0</ele><time>2026-04-19T17:08:56Z</time></trkpt><trkpt lat="43.08874631033916" lon="12.458780680804164"><ele>189.0</ele><time>2026-04-19T17:08:57Z</time></trkpt><trkpt lat="43.08869349873011" lon="12.459125696279061"><ele>187.5</ele><time>2026-04-19T17:08:58Z</time></trkpt><trkpt lat="43.08864185698123" lon="12.4594680705835"><ele>186.0</ele><time>2026-04-19T17:08:59Z</time></trkpt><trkpt lat="43.08858745917423" lon="12.459813753333313"><ele>186.0</ele><time>2026-04-19T17:09:00Z</time></trkpt><trkpt lat="43.08853271375124" lon="12.460158067717627"><ele>186.0</ele><time>2026-04-19T17:09:01Z</time></trkpt><trkpt lat="43.08847695679045" lon="12.460497681875426"><ele>186.5</ele><time>2026-04-19T17:09:02Z</time></trkpt><trkpt lat="43.088423588572844" lon="12.460848493309667"><ele>187.0</ele><time>2026-04-19T17:09:03Z</time></trkpt><trkpt lat="43.0883692411158" lon="12.46119738675909"><ele>186.0</ele><time>2026-04-19T17:09:04Z</time></trkpt><trkpt lat="43.08831290363848" lon="12.461545967889746"><ele>185.0</ele><time>2026-04-19T17:09:05Z</time></trkpt><trkpt lat="43.08826006842642" lon="12.461895671025013"><ele>186.5</ele><time>2026-04-19T17:09:06Z</time></trkpt><trkpt lat="43.08820854896102" lon="12.462245170870569"><ele>188.0</ele><time>2026-04-19T17:09:07Z</time></trkpt><trkpt lat="43.08815683159977" lon="12.462594538101188"><ele>188.0</ele><time>2026-04-19T17:09:08Z</time></trkpt><trkpt lat="43.08810342393966" lon="12.462944515922741"><ele>188.0</ele><time>2026-04-19T17:09:09Z</time></trkpt><trkpt lat="43.08805032258526" lon="12.463288473096693"><ele>188.0</ele><time>2026-04-19T17:09:10Z</time></trkpt><trkpt lat="43.08799922920733" lon="12.463632266099598"><ele>188.0</ele><time>2026-04-19T17:09:11Z</time></trkpt><trkpt lat="43.08794680081032" lon="12.463978033850255"><ele>188.0</ele><time>2026-04-19T17:09:12Z</time></trkpt><trkpt lat="43.08789428150668" lon="12.464321769895115"><ele>188.0</ele><time>2026-04-19T17:09:13Z</time></trkpt><trkpt lat="43.08783841722738" lon="12.464663593353016"><ele>188.0</ele><time>2026-04-19T17:09:14Z</time></trkpt><trkpt lat="43.08778562425012" lon="12.465004567708561"><ele>188.0</ele><time>2026-04-19T17:09:15Z</time></trkpt><trkpt lat="43.08773252356764" lon="12.46534716816446"><ele>188.0</ele><time>2026-04-19T17:09:16Z</time></trkpt><trkpt lat="43.08767887984746" lon="12.465689737231155"><ele>188.0</ele><time>2026-04-19T17:09:17Z</time></trkpt><trkpt lat="43.08762530045561" lon="12.46602981086064"><ele>188.5</ele><time>2026-04-19T17:09:18Z</time></trkpt><trkpt lat="43.08757488828701" lon="12.466368096347919"><ele>189.0</ele><time>2026-04-19T17:09:19Z</time></trkpt><trkpt lat="43.08752178901011" lon="12.466705611794374"><ele>189.0</ele><time>2026-04-19T17:09:20Z</time></trkpt><trkpt lat="43.08747069623632" lon="12.467039770709388"><ele>189.0</ele><time>2026-04-19T17:09:21Z</time></trkpt><trkpt lat="43.08741730301429" lon="12.4673697341925"><ele>190.5</ele><time>2026-04-19T17:09:22Z</time></trkpt><trkpt lat="43.087367102728656" lon="12.467700290372267"><ele>192.0</ele><time>2026-04-19T17:09:23Z</time></trkpt><trkpt lat="43.08731787604118" lon="12.468026035465474"><ele>192.5</ele><time>2026-04-19T17:09:24Z</time></trkpt><trkpt lat="43.08726281431745" lon="12.46832949867464"><ele>193.0</ele><time>2026-04-19T17:09:25Z</time></trkpt><trkpt lat="43.08723201927426" lon="12.468659503177756"><ele>193.66666666666666</ele><time>2026-04-19T17:09:26Z</time></trkpt><trkpt lat="43.08721814874844" lon="12.468971122605325"><ele>194.33333333333331</ele><time>2026-04-19T17:09:27Z</time></trkpt><trkpt lat="43.0872213529086" lon="12.469249628048638"><ele>195.0</ele><time>2026-04-19T17:09:28.001Z</time></trkpt><trkpt lat="43.087236714791835" lon="12.469521116396178"><ele>196.66666666666669</ele><time>2026-04-19T17:09:29.001Z</time></trkpt><trkpt lat="43.087260855809724" lon="12.469790377062342"><ele>198.33333333333334</ele><time>2026-04-19T17:09:30.001Z</time></trkpt><trkpt lat="43.087292378333835" lon="12.470058546482916"><ele>200.0</ele><time>2026-04-19T17:09:31.001Z</time></trkpt><trkpt lat="43.08733105255789" lon="12.470325630079977"><ele>198.66666666666669</ele><time>2026-04-19T17:09:32.001Z</time></trkpt><trkpt lat="43.08737550507589" lon="12.470593482938419"><ele>197.33333333333331</ele><time>2026-04-19T17:09:33.001Z</time></trkpt><trkpt lat="43.087421149851714" lon="12.470861452413066"><ele>196.0</ele><time>2026-04-19T17:09:34.001Z</time></trkpt><trkpt lat="43.08746331260386" lon="12.471124796481663"><ele>197.66666666666666</ele><time>2026-04-19T17:09:35.001Z</time></trkpt><trkpt lat="43.08750152172558" lon="12.471383239482604"><ele>199.33333333333331</ele><time>2026-04-19T17:09:36.001Z</time></trkpt><trkpt lat="43.0875419216833" lon="12.471643765344297"><ele>201.0</ele><time>2026-04-19T17:09:37.001Z</time></trkpt><trkpt lat="43.08758199248991" lon="12.471897223591185"><ele>203.33333333333331</ele><time>2026-04-19T17:09:38.001Z</time></trkpt><trkpt lat="43.08762276635595" lon="12.472151262404289"><ele>205.66666666666666</ele><time>2026-04-19T17:09:39.001Z</time></trkpt><trkpt lat="43.08766555722202" lon="12.472406242634024"><ele>208.0</ele><time>2026-04-19T17:09:40.001Z</time></trkpt><trkpt lat="43.087709664046905" lon="12.47266183941328"><ele>208.0</ele><time>2026-04-19T17:09:41.001Z</time></trkpt><trkpt lat="43.0877645559471" lon="12.472919839294379"><ele>208.0</ele><time>2026-04-19T17:09:42.001Z</time></trkpt><trkpt lat="43.087829686072894" lon="12.47317111794757"><ele>208.0</ele><time>2026-04-19T17:09:43.001Z</time></trkpt><trkpt lat="43.08791344575019" lon="12.473408050329406"><ele>209.66666666666666</ele><time>2026-04-19T17:09:44.001Z</time></trkpt><trkpt lat="43.08801940208846" lon="12.473622205372587"><ele>211.33333333333331</ele><time>2026-04-19T17:09:45.001Z</time></trkpt><trkpt lat="43.08815155616544" lon="12.473791845043438"><ele>213.0</ele><time>2026-04-19T17:09:46.001Z</time></trkpt><trkpt lat="43.08830036144671" lon="12.473935663099287"><ele>209.33333333333331</ele><time>2026-04-19T17:09:47.001Z</time></trkpt><trkpt lat="43.08847764516855" lon="12.47406116992943"><ele>205.66666666666666</ele><time>2026-04-19T17:09:48.001Z</time></trkpt><trkpt lat="43.088665170309056" lon="12.474168999358268"><ele>202.0</ele><time>2026-04-19T17:09:49.001Z</time></trkpt><trkpt lat="43.088865283802555" lon="12.474259601851054"><ele>202.0</ele><time>2026-04-19T17:09:50.001Z</time></trkpt><trkpt lat="43.089078389646176" lon="12.474326524120714"><ele>202.0</ele><time>2026-04-19T17:09:51.001Z</time></trkpt><trkpt lat="43.089303551000754" lon="12.474369421766658"><ele>202.0</ele><time>2026-04-19T17:09:52.001Z</time></trkpt><trkpt lat="43.08953145370338" lon="12.474411190132663"><ele>200.0</ele><time>2026-04-19T17:09:53.001Z</time></trkpt><trkpt lat="43.08976784686672" lon="12.474454296964758"><ele>198.0</ele><time>2026-04-19T17:09:54.001Z</time></trkpt><trkpt lat="43.090004624463454" lon="12.47450802746626"><ele>197.0</ele><time>2026-04-19T17:09:55.001Z</time></trkpt><trkpt lat="43.09024927580533" lon="12.474551959337049"><ele>196.0</ele><time>2026-04-19T17:09:56.001Z</time></trkpt><trkpt lat="43.090499599747574" lon="12.474599357420006"><ele>197.5</ele><time>2026-04-19T17:09:57.001Z</time></trkpt><trkpt lat="43.090748594341356" lon="12.474648791227473"><ele>199.0</ele><time>2026-04-19T17:09:58.001Z</time></trkpt><trkpt lat="43.09097597179562" lon="12.474697642148707"><ele>200.0</ele><time>2026-04-19T17:09:59.001Z</time></trkpt><trkpt lat="43.09125041207952" lon="12.474746065804297"><ele>201.0</ele><time>2026-04-19T17:10:00.001Z</time></trkpt><trkpt lat="43.0915071174998" lon="12.47479758257343"><ele>202.0</ele><time>2026-04-19T17:10:01.001Z</time></trkpt><trkpt lat="43.091765585511496" lon="12.474852987995376"><ele>203.0</ele><time>2026-04-19T17:10:02.001Z</time></trkpt><trkpt lat="43.09202553775489" lon="12.474911922686696"><ele>203.0</ele><time>2026-04-19T17:10:03.001Z</time></trkpt><trkpt lat="43.09228740652728" lon="12.474969731252028"><ele>203.0</ele><time>2026-04-19T17:10:04.001Z</time></trkpt><trkpt lat="43.092552028554266" lon="12.47502816289883"><ele>202.0</ele><time>2026-04-19T17:10:05.001Z</time></trkpt><trkpt lat="43.09281643607223" lon="12.475082550054525"><ele>201.0</ele><time>2026-04-19T17:10:06.001Z</time></trkpt><trkpt lat="43.093085196974066" lon="12.475139830298634"><ele>197.5</ele><time>2026-04-19T17:10:07.001Z</time></trkpt><trkpt lat="43.09335262243478" lon="12.47519967219828"><ele>194.0</ele><time>2026-04-19T17:10:08.001Z</time></trkpt><trkpt lat="43.09362054059178" lon="12.475263164270071"><ele>194.0</ele><time>2026-04-19T17:10:09.001Z</time></trkpt><trkpt lat="43.093887661702794" lon="12.475322831171654"><ele>194.0</ele><time>2026-04-19T17:10:10.001Z</time></trkpt><trkpt lat="43.0941561350403" lon="12.47538354184287"><ele>192.0</ele><time>2026-04-19T17:10:11.001Z</time></trkpt><trkpt lat="43.09442425112254" lon="12.475442747865012"><ele>190.0</ele><time>2026-04-19T17:10:12.001Z</time></trkpt><trkpt lat="43.094694777464284" lon="12.47551443275983"><ele>190.0</ele><time>2026-04-19T17:10:13.001Z</time></trkpt><trkpt lat="43.09496940178721" lon="12.475586385925514"><ele>190.0</ele><time>2026-04-19T17:10:14.001Z</time></trkpt><trkpt lat="43.095232509638016" lon="12.475628114640323"><ele>190.0</ele><time>2026-04-19T17:10:15.001Z</time></trkpt><trkpt lat="43.09550054623907" lon="12.475684815383229"><ele>190.0</ele><time>2026-04-19T17:10:16.001Z</time></trkpt><trkpt lat="43.095767050002785" lon="12.475742261730842"><ele>189.5</ele><time>2026-04-19T17:10:17.001Z</time></trkpt><trkpt lat="43.09603468142393" lon="12.47579843669546"><ele>189.0</ele><time>2026-04-19T17:10:18.001Z</time></trkpt><trkpt lat="43.09630266504068" lon="12.475853689137072"><ele>189.0</ele><time>2026-04-19T17:10:19.001Z</time></trkpt><trkpt lat="43.09656896773141" lon="12.47590696139723"><ele>189.0</ele><time>2026-04-19T17:10:20.001Z</time></trkpt><trkpt lat="43.09683027895166" lon="12.475954174947391"><ele>190.0</ele><time>2026-04-19T17:10:21.001Z</time></trkpt><trkpt lat="43.09708834526784" lon="12.476004052159078"><ele>191.0</ele><time>2026-04-19T17:10:22.001Z</time></trkpt><trkpt lat="43.09734155930077" lon="12.47605117273058"><ele>191.0</ele><time>2026-04-19T17:10:23.001Z</time></trkpt><trkpt lat="43.09758839418419" lon="12.476097059010803"><ele>191.0</ele><time>2026-04-19T17:10:24.001Z</time></trkpt><trkpt lat="43.09783021529566" lon="12.476141904984948"><ele>191.0</ele><time>2026-04-19T17:10:25.001Z</time></trkpt><trkpt lat="43.09806833172954" lon="12.476180221273712"><ele>191.0</ele><time>2026-04-19T17:10:26.001Z</time></trkpt><trkpt lat="43.09830467797046" lon="12.476221272589205"><ele>190.5</ele><time>2026-04-19T17:10:27.001Z</time></trkpt><trkpt lat="43.098538234713345" lon="12.47625678111436"><ele>190.0</ele><time>2026-04-19T17:10:28.001Z</time></trkpt><trkpt lat="43.09876651846774" lon="12.476299901876407"><ele>190.0</ele><time>2026-04-19T17:10:29.001Z</time></trkpt><trkpt lat="43.09897554844976" lon="12.476338864631412"><ele>190.0</ele><time>2026-04-19T17:10:30.001Z</time></trkpt><trkpt lat="43.099170018066964" lon="12.476378069154446"><ele>190.0</ele><time>2026-04-19T17:10:31.001Z</time></trkpt><trkpt lat="43.09936858871641" lon="12.476416915188143"><ele>190.0</ele><time>2026-04-19T17:10:32.001Z</time></trkpt><trkpt lat="43.09957262463442" lon="12.476456978589335"><ele>190.0</ele><time>2026-04-19T17:10:33.001Z</time></trkpt><trkpt lat="43.09978460013403" lon="12.47649798233635"><ele>190.0</ele><time>2026-04-19T17:10:34.001Z</time></trkpt><trkpt lat="43.099997323785686" lon="12.476524690151702"><ele>189.5</ele><time>2026-04-19T17:10:35.001Z</time></trkpt><trkpt lat="43.10021169884756" lon="12.476560182385986"><ele>189.0</ele><time>2026-04-19T17:10:36.001Z</time></trkpt><trkpt lat="43.10041320710838" lon="12.476740356228568"><ele>189.0</ele><time>2026-04-19T17:10:37.001Z</time></trkpt><trkpt lat="43.10062150780895" lon="12.47686207111577"><ele>189.0</ele><time>2026-04-19T17:10:38.001Z</time></trkpt><trkpt lat="43.100835783305335" lon="12.476989846078519"><ele>190.5</ele><time>2026-04-19T17:10:39.001Z</time></trkpt><trkpt lat="43.10105067501569" lon="12.477123942681827"><ele>192.0</ele><time>2026-04-19T17:10:40.001Z</time></trkpt><trkpt lat="43.10126202579894" lon="12.477266573805444"><ele>192.0</ele><time>2026-04-19T17:10:41.001Z</time></trkpt><trkpt lat="43.10144689477618" lon="12.477398102273625"><ele>192.0</ele><time>2026-04-19T17:10:42.001Z</time></trkpt><trkpt lat="43.10160202725974" lon="12.477549119459528"><ele>192.0</ele><time>2026-04-19T17:10:43.001Z</time></trkpt><trkpt lat="43.101726458787326" lon="12.477738455250732"><ele>192.66666666666669</ele><time>2026-04-19T17:10:44.001Z</time></trkpt><trkpt lat="43.10182753615828" lon="12.477962125592578"><ele>193.33333333333334</ele><time>2026-04-19T17:10:45.001Z</time></trkpt><trkpt lat="43.101909807416575" lon="12.478210304391652"><ele>194.0</ele><time>2026-04-19T17:10:46.001Z</time></trkpt><trkpt lat="43.10197679339553" lon="12.478485263161046"><ele>195.0</ele><time>2026-04-19T17:10:47.001Z</time></trkpt><trkpt lat="43.10202274373719" lon="12.478789772778507"><ele>196.0</ele><time>2026-04-19T17:10:48.001Z</time></trkpt><trkpt lat="43.102085156152675" lon="12.479096166521945"><ele>196.0</ele><time>2026-04-19T17:10:49.001Z</time></trkpt><trkpt lat="43.10215752405352" lon="12.479406024967199"><ele>196.0</ele><time>2026-04-19T17:10:50.001Z</time></trkpt><trkpt lat="43.10224405563781" lon="12.47971576258102"><ele>196.0</ele><time>2026-04-19T17:10:51.001Z</time></trkpt><trkpt lat="43.102341041838315" lon="12.48002094102476"><ele>196.0</ele><time>2026-04-19T17:10:52.001Z</time></trkpt><trkpt lat="43.10234081663707" lon="12.480362024468524"><ele>196.5</ele><time>2026-04-19T17:10:53Z</time></trkpt><trkpt lat="43.102412183449644" lon="12.480692967448435"><ele>197.0</ele><time>2026-04-19T17:10:54Z</time></trkpt><trkpt lat="43.102484420962696" lon="12.481029406693505"><ele>199.0</ele><time>2026-04-19T17:10:55Z</time></trkpt><trkpt lat="43.10255413813756" lon="12.48137411194901"><ele>201.0</ele><time>2026-04-19T17:10:56Z</time></trkpt><trkpt lat="43.102637754704745" lon="12.481716534249966"><ele>201.0</ele><time>2026-04-19T17:10:57Z</time></trkpt><trkpt lat="43.10272138959495" lon="12.482065185700673"><ele>201.0</ele><time>2026-04-19T17:10:58Z</time></trkpt><trkpt lat="43.102824574896566" lon="12.482406261234086"><ele>201.0</ele><time>2026-04-19T17:10:59Z</time></trkpt><trkpt lat="43.10294115620263" lon="12.482739422368832"><ele>201.0</ele><time>2026-04-19T17:11:00Z</time></trkpt><trkpt lat="43.103066304319086" lon="12.483070928180739"><ele>201.5</ele><time>2026-04-19T17:11:01Z</time></trkpt><trkpt lat="43.103214769843106" lon="12.483381201610669"><ele>202.0</ele><time>2026-04-19T17:11:02Z</time></trkpt><trkpt lat="43.103368536656255" lon="12.483698138072016"><ele>204.0</ele><time>2026-04-19T17:11:03Z</time></trkpt><trkpt lat="43.10353533109679" lon="12.484005335103893"><ele>206.0</ele><time>2026-04-19T17:11:04Z</time></trkpt><trkpt lat="43.103712702462055" lon="12.484295482088003"><ele>206.0</ele><time>2026-04-19T17:11:05Z</time></trkpt><trkpt lat="43.103902366750994" lon="12.48457566385944"><ele>206.0</ele><time>2026-04-19T17:11:06Z</time></trkpt><trkpt lat="43.10410656210644" lon="12.484846665484111"><ele>205.5</ele><time>2026-04-19T17:11:07Z</time></trkpt><trkpt lat="43.10431147386402" lon="12.485099622956053"><ele>205.0</ele><time>2026-04-19T17:11:08Z</time></trkpt><trkpt lat="43.10452477144482" lon="12.485347541759529"><ele>205.5</ele><time>2026-04-19T17:11:09Z</time></trkpt><trkpt lat="43.10473264605794" lon="12.485595625179542"><ele>206.0</ele><time>2026-04-19T17:11:10Z</time></trkpt><trkpt lat="43.10494392692692" lon="12.48583487842327"><ele>206.0</ele><time>2026-04-19T17:11:11Z</time></trkpt><trkpt lat="43.105155645258115" lon="12.48607648992065"><ele>206.0</ele><time>2026-04-19T17:11:12Z</time></trkpt><trkpt lat="43.10536695506965" lon="12.486303047276731"><ele>207.5</ele><time>2026-04-19T17:11:13Z</time></trkpt><trkpt lat="43.105580486644264" lon="12.486536202494177"><ele>209.0</ele><time>2026-04-19T17:11:14Z</time></trkpt><trkpt lat="43.10579144611809" lon="12.486769181010756"><ele>208.5</ele><time>2026-04-19T17:11:15Z</time></trkpt><trkpt lat="43.10599730190104" lon="12.486998911930417"><ele>208.0</ele><time>2026-04-19T17:11:16Z</time></trkpt><trkpt lat="43.10620561858498" lon="12.487226533125702"><ele>208.0</ele><time>2026-04-19T17:11:17Z</time></trkpt><trkpt lat="43.10641379811951" lon="12.487455584217567"><ele>208.0</ele><time>2026-04-19T17:11:18Z</time></trkpt><trkpt lat="43.10661546155002" lon="12.48768471168248"><ele>209.0</ele><time>2026-04-19T17:11:19Z</time></trkpt><trkpt lat="43.10681868463859" lon="12.487911187215278"><ele>210.0</ele><time>2026-04-19T17:11:20Z</time></trkpt><trkpt lat="43.10702095017847" lon="12.488145795974393"><ele>210.0</ele><time>2026-04-19T17:11:21Z</time></trkpt><trkpt lat="43.107217508071955" lon="12.488383282350211"><ele>210.0</ele><time>2026-04-19T17:11:22Z</time></trkpt><trkpt lat="43.10740591929765" lon="12.488631819240592"><ele>210.0</ele><time>2026-04-19T17:11:23Z</time></trkpt><trkpt lat="43.1075880393563" lon="12.488888571676133"><ele>210.0</ele><time>2026-04-19T17:11:24Z</time></trkpt><trkpt lat="43.10776103882646" lon="12.489153705784716"><ele>210.0</ele><time>2026-04-19T17:11:25Z</time></trkpt><trkpt lat="43.107923570754956" lon="12.489430040671602"><ele>210.0</ele><time>2026-04-19T17:11:26Z</time></trkpt><trkpt lat="43.10807479619594" lon="12.489723464097437"><ele>210.5</ele><time>2026-04-19T17:11:27Z</time></trkpt><trkpt lat="43.10821843628399" lon="12.490017024916579"><ele>211.0</ele><time>2026-04-19T17:11:28.001Z</time></trkpt><trkpt lat="43.10835077883013" lon="12.490323449589713"><ele>213.0</ele><time>2026-04-19T17:11:29.001Z</time></trkpt><trkpt lat="43.10847299561966" lon="12.490636295404649"><ele>215.0</ele><time>2026-04-19T17:11:30.001Z</time></trkpt><trkpt lat="43.10858687195655" lon="12.49095373182206"><ele>217.0</ele><time>2026-04-19T17:11:31.001Z</time></trkpt><trkpt lat="43.10868365757625" lon="12.491281310782979"><ele>219.0</ele><time>2026-04-19T17:11:32.001Z</time></trkpt><trkpt lat="43.108768718090886" lon="12.491616462911553"><ele>219.0</ele><time>2026-04-19T17:11:33.001Z</time></trkpt><trkpt lat="43.108843922064835" lon="12.491956583398661"><ele>219.0</ele><time>2026-04-19T17:11:34.001Z</time></trkpt><trkpt lat="43.108910615367336" lon="12.492301016220527"><ele>224.5</ele><time>2026-04-19T17:11:35.001Z</time></trkpt><trkpt lat="43.10896682243034" lon="12.492651886957564"><ele>230.0</ele><time>2026-04-19T17:11:36.001Z</time></trkpt><trkpt lat="43.10901511788861" lon="12.493003440038027"><ele>232.5</ele><time>2026-04-19T17:11:37.001Z</time></trkpt><trkpt lat="43.109054363763406" lon="12.49335070969609"><ele>235.0</ele><time>2026-04-19T17:11:38.001Z</time></trkpt><trkpt lat="43.10909480871097" lon="12.493701464100322"><ele>239.0</ele><time>2026-04-19T17:11:39.001Z</time></trkpt><trkpt lat="43.109137285549735" lon="12.494053402378286"><ele>243.0</ele><time>2026-04-19T17:11:40.001Z</time></trkpt><trkpt lat="43.10917960078794" lon="12.49440817646456"><ele>246.5</ele><time>2026-04-19T17:11:41.001Z</time></trkpt><trkpt lat="43.10921877673396" lon="12.494760192132771"><ele>250.0</ele><time>2026-04-19T17:11:42.001Z</time></trkpt><trkpt lat="43.109256590331" lon="12.495112805292141"><ele>253.0</ele><time>2026-04-19T17:11:43.001Z</time></trkpt><trkpt lat="43.10930251661431" lon="12.49555516527749"><ele>256.0</ele><time>2026-04-19T17:11:44.001Z</time></trkpt><trkpt lat="43.10934710925139" lon="12.49593057562905"><ele>256.5</ele><time>2026-04-19T17:11:45.001Z</time></trkpt><trkpt lat="43.10940918053839" lon="12.496300198439434"><ele>257.0</ele><time>2026-04-19T17:11:46.001Z</time></trkpt><trkpt lat="43.109459859920854" lon="12.496672633168389"><ele>257.0</ele><time>2026-04-19T17:11:47.001Z</time></trkpt><trkpt lat="43.109510599386745" lon="12.497046382050005"><ele>257.0</ele><time>2026-04-19T17:11:48.001Z</time></trkpt><trkpt lat="43.10956081354242" lon="12.497420261765146"><ele>255.5</ele><time>2026-04-19T17:11:49.001Z</time></trkpt><trkpt lat="43.10961083932227" lon="12.497792738881087"><ele>254.0</ele><time>2026-04-19T17:11:50.001Z</time></trkpt><trkpt lat="43.10966114167623" lon="12.498163108115083"><ele>251.0</ele><time>2026-04-19T17:11:51.001Z</time></trkpt><trkpt lat="43.109711679056325" lon="12.49853471906751"><ele>248.0</ele><time>2026-04-19T17:11:52.001Z</time></trkpt><trkpt lat="43.10976249765688" lon="12.498908778612591"><ele>246.5</ele><time>2026-04-19T17:11:53.001Z</time></trkpt><trkpt lat="43.109812923669274" lon="12.499283128103981"><ele>245.0</ele><time>2026-04-19T17:11:54.001Z</time></trkpt><trkpt lat="43.109863281544555" lon="12.499656971747635"><ele>244.0</ele><time>2026-04-19T17:11:55.001Z</time></trkpt><trkpt lat="43.10991451978398" lon="12.500037350985146"><ele>243.0</ele><time>2026-04-19T17:11:56.001Z</time></trkpt><trkpt lat="43.109966941054275" lon="12.5004159912635"><ele>240.0</ele><time>2026-04-19T17:11:57.001Z</time></trkpt><trkpt lat="43.11002014686605" lon="12.500794307869416"><ele>237.0</ele><time>2026-04-19T17:11:58.001Z</time></trkpt><trkpt lat="43.11007548134486" lon="12.501170976126186"><ele>235.0</ele><time>2026-04-19T17:11:59.001Z</time></trkpt><trkpt lat="43.11011110872165" lon="12.501444075699505"><ele>233.0</ele><time>2026-04-19T17:12:00.001Z</time></trkpt><trkpt lat="43.110181928833946" lon="12.501776583529704"><ele>230.0</ele><time>2026-04-19T17:12:01.001Z</time></trkpt><trkpt lat="43.110218495037195" lon="12.502110167961936"><ele>227.0</ele><time>2026-04-19T17:12:02.001Z</time></trkpt><trkpt lat="43.11028114923415" lon="12.502420182555575"><ele>227.0</ele><time>2026-04-19T17:12:03.001Z</time></trkpt><trkpt lat="43.11037256050234" lon="12.502739582362933"><ele>227.0</ele><time>2026-04-19T17:12:04.001Z</time></trkpt><trkpt lat="43.11046378278891" lon="12.503079440428957"><ele>224.5</ele><time>2026-04-19T17:12:05.001Z</time></trkpt><trkpt lat="43.11055758075277" lon="12.503420791133431"><ele>222.0</ele><time>2026-04-19T17:12:06.001Z</time></trkpt><trkpt lat="43.1106942564148" lon="12.50371365563665"><ele>221.0</ele><time>2026-04-19T17:12:07.001Z</time></trkpt><trkpt lat="43.11082373163759" lon="12.504037571782069"><ele>220.0</ele><time>2026-04-19T17:12:08.001Z</time></trkpt><trkpt lat="43.11096635699522" lon="12.504346426940367"><ele>218.0</ele><time>2026-04-19T17:12:09.001Z</time></trkpt><trkpt lat="43.111116272575806" lon="12.50464641541686"><ele>216.0</ele><time>2026-04-19T17:12:10.001Z</time></trkpt><trkpt lat="43.11127504054177" lon="12.504935367226588"><ele>216.0</ele><time>2026-04-19T17:12:11.001Z</time></trkpt><trkpt lat="43.11144054586363" lon="12.50521629945784"><ele>216.0</ele><time>2026-04-19T17:12:12.001Z</time></trkpt><trkpt lat="43.11162109342799" lon="12.505482589413058"><ele>216.0</ele><time>2026-04-19T17:12:13.001Z</time></trkpt><trkpt lat="43.11181297846897" lon="12.505732348499299"><ele>216.0</ele><time>2026-04-19T17:12:14.001Z</time></trkpt><trkpt lat="43.112013850041095" lon="12.505970639775198"><ele>216.0</ele><time>2026-04-19T17:12:15.001Z</time></trkpt><trkpt lat="43.11222267116621" lon="12.506196592795773"><ele>216.0</ele><time>2026-04-19T17:12:16.001Z</time></trkpt><trkpt lat="43.112434023127946" lon="12.506408717021442"><ele>215.0</ele><time>2026-04-19T17:12:17.001Z</time></trkpt><trkpt lat="43.11265386061095" lon="12.506615602512522"><ele>214.0</ele><time>2026-04-19T17:12:18.001Z</time></trkpt><trkpt lat="43.11287302332754" lon="12.506812451236607"><ele>214.0</ele><time>2026-04-19T17:12:19.001Z</time></trkpt><trkpt lat="43.11309892932726" lon="12.507003069967313"><ele>214.0</ele><time>2026-04-19T17:12:20.001Z</time></trkpt><trkpt lat="43.1133205426161" lon="12.507194477318142"><ele>215.0</ele><time>2026-04-19T17:12:21.001Z</time></trkpt><trkpt lat="43.113541068111594" lon="12.507382245152538"><ele>216.0</ele><time>2026-04-19T17:12:22.001Z</time></trkpt><trkpt lat="43.11376419141192" lon="12.507566792527827"><ele>216.0</ele><time>2026-04-19T17:12:23.001Z</time></trkpt><trkpt lat="43.11398844856234" lon="12.507746887461407"><ele>216.0</ele><time>2026-04-19T17:12:24.001Z</time></trkpt><trkpt lat="43.11421069078549" lon="12.50792877048876"><ele>217.0</ele><time>2026-04-19T17:12:25.001Z</time></trkpt><trkpt lat="43.11443584937453" lon="12.508112654676655"><ele>218.0</ele><time>2026-04-19T17:12:26.001Z</time></trkpt><trkpt lat="43.114658775087086" lon="12.50829668140513"><ele>218.0</ele><time>2026-04-19T17:12:27.001Z</time></trkpt><trkpt lat="43.114883631006066" lon="12.508480874703501"><ele>218.0</ele><time>2026-04-19T17:12:28.001Z</time></trkpt><trkpt lat="43.11510890709781" lon="12.508667602290126"><ele>218.0</ele><time>2026-04-19T17:12:29.001Z</time></trkpt><trkpt lat="43.11533351469863" lon="12.508850778091487"><ele>218.0</ele><time>2026-04-19T17:12:30.001Z</time></trkpt><trkpt lat="43.115558401554566" lon="12.50903256420576"><ele>218.5</ele><time>2026-04-19T17:12:31.001Z</time></trkpt><trkpt lat="43.11578500740271" lon="12.509215820243194"><ele>219.0</ele><time>2026-04-19T17:12:32.001Z</time></trkpt><trkpt lat="43.11601054419868" lon="12.509400477907072"><ele>219.5</ele><time>2026-04-19T17:12:33.001Z</time></trkpt><trkpt lat="43.116234159676964" lon="12.509586549267791"><ele>220.0</ele><time>2026-04-19T17:12:34.001Z</time></trkpt><trkpt lat="43.11645859801659" lon="12.509774723966666"><ele>219.5</ele><time>2026-04-19T17:12:35.001Z</time></trkpt><trkpt lat="43.116683714505406" lon="12.509962388584366"><ele>219.0</ele><time>2026-04-19T17:12:36.001Z</time></trkpt><trkpt lat="43.11690701727267" lon="12.51014710480402"><ele>219.0</ele><time>2026-04-19T17:12:37.001Z</time></trkpt><trkpt lat="43.11713265037336" lon="12.510331933406617"><ele>219.0</ele><time>2026-04-19T17:12:38.001Z</time></trkpt><trkpt lat="43.11735933018017" lon="12.510519263259766"><ele>218.5</ele><time>2026-04-19T17:12:39.001Z</time></trkpt><trkpt lat="43.11758536706231" lon="12.510705731161607"><ele>218.0</ele><time>2026-04-19T17:12:40.001Z</time></trkpt><trkpt lat="43.11781126112554" lon="12.510895950118703"><ele>218.0</ele><time>2026-04-19T17:12:41.001Z</time></trkpt><trkpt lat="43.11803928963758" lon="12.511082524051952"><ele>218.0</ele><time>2026-04-19T17:12:42.001Z</time></trkpt><trkpt lat="43.118266928388266" lon="12.511271149440772"><ele>218.0</ele><time>2026-04-19T17:12:43.001Z</time></trkpt><trkpt lat="43.118493406550385" lon="12.51145969386425"><ele>218.0</ele><time>2026-04-19T17:12:44.001Z</time></trkpt><trkpt lat="43.11872399330753" lon="12.511649981300215"><ele>218.0</ele><time>2026-04-19T17:12:45.001Z</time></trkpt><trkpt lat="43.11895206688454" lon="12.511840543846487"><ele>218.0</ele><time>2026-04-19T17:12:46.001Z</time></trkpt><trkpt lat="43.11918154500628" lon="12.512032640570531"><ele>217.0</ele><time>2026-04-19T17:12:47.001Z</time></trkpt><trkpt lat="43.11941291621849" lon="12.512220164892208"><ele>216.0</ele><time>2026-04-19T17:12:48.001Z</time></trkpt><trkpt lat="43.11964275046778" lon="12.512409587154881"><ele>216.0</ele><time>2026-04-19T17:12:49.001Z</time></trkpt><trkpt lat="43.11987426249145" lon="12.512599975089097"><ele>216.0</ele><time>2026-04-19T17:12:50.001Z</time></trkpt><trkpt lat="43.12010778907174" lon="12.512790194127227"><ele>215.0</ele><time>2026-04-19T17:12:51.001Z</time></trkpt><trkpt lat="43.1203392331335" lon="12.512978998417228"><ele>214.0</ele><time>2026-04-19T17:12:52.001Z</time></trkpt><trkpt lat="43.120567151302254" lon="12.51316907158897"><ele>215.5</ele><time>2026-04-19T17:12:53.001Z</time></trkpt><trkpt lat="43.12079766488084" lon="12.513358105905438"><ele>217.0</ele><time>2026-04-19T17:12:54.001Z</time></trkpt><trkpt lat="43.121026860731426" lon="12.513542565029953"><ele>217.0</ele><time>2026-04-19T17:12:55.001Z</time></trkpt><trkpt lat="43.12125512760362" lon="12.513728744602982"><ele>217.0</ele><time>2026-04-19T17:12:56.001Z</time></trkpt><trkpt lat="43.12148395683563" lon="12.513918594769345"><ele>217.0</ele><time>2026-04-19T17:12:57.001Z</time></trkpt><trkpt lat="43.12171052414186" lon="12.5141094876133"><ele>217.0</ele><time>2026-04-19T17:12:58.001Z</time></trkpt><trkpt lat="43.12193673844176" lon="12.514297988246096"><ele>217.0</ele><time>2026-04-19T17:12:59Z</time></trkpt><trkpt lat="43.122164573130014" lon="12.51448591454531"><ele>217.0</ele><time>2026-04-19T17:13:00Z</time></trkpt><trkpt lat="43.12239264147642" lon="12.514671788469185"><ele>217.5</ele><time>2026-04-19T17:13:01Z</time></trkpt><trkpt lat="43.122619848117836" lon="12.51485513391038"><ele>218.0</ele><time>2026-04-19T17:13:02Z</time></trkpt><trkpt lat="43.12284551558064" lon="12.515040189124347"><ele>218.0</ele><time>2026-04-19T17:13:03Z</time></trkpt><trkpt lat="43.123072615186445" lon="12.515225904186991"><ele>218.0</ele><time>2026-04-19T17:13:04Z</time></trkpt><trkpt lat="43.123299382094444" lon="12.51541348172148"><ele>219.5</ele><time>2026-04-19T17:13:05Z</time></trkpt><trkpt lat="43.12352062398869" lon="12.515600798204776"><ele>221.0</ele><time>2026-04-19T17:13:06Z</time></trkpt><trkpt lat="43.123742868557365" lon="12.51579148045528"><ele>221.0</ele><time>2026-04-19T17:13:07Z</time></trkpt><trkpt lat="43.123972712495885" lon="12.515973095922964"><ele>221.0</ele><time>2026-04-19T17:13:08Z</time></trkpt><trkpt lat="43.124201709212784" lon="12.516155568268449"><ele>219.5</ele><time>2026-04-19T17:13:09Z</time></trkpt><trkpt lat="43.1244198914406" lon="12.516339842586458"><ele>218.0</ele><time>2026-04-19T17:13:10Z</time></trkpt><trkpt lat="43.12464404310607" lon="12.516522825841026"><ele>218.0</ele><time>2026-04-19T17:13:11Z</time></trkpt><trkpt lat="43.12486646392797" lon="12.51670994729311"><ele>218.0</ele><time>2026-04-19T17:13:12Z</time></trkpt><trkpt lat="43.12508919987626" lon="12.516893841632742"><ele>219.5</ele><time>2026-04-19T17:13:13Z</time></trkpt><trkpt lat="43.1253106576086" lon="12.51707674714871"><ele>221.0</ele><time>2026-04-19T17:13:14Z</time></trkpt><trkpt lat="43.12553490273703" lon="12.517261654996464"><ele>220.0</ele><time>2026-04-19T17:13:15Z</time></trkpt><trkpt lat="43.125760177462965" lon="12.517446819896826"><ele>219.0</ele><time>2026-04-19T17:13:16Z</time></trkpt><trkpt lat="43.12598441690709" lon="12.517632693119086"><ele>219.0</ele><time>2026-04-19T17:13:17Z</time></trkpt><trkpt lat="43.12620937486007" lon="12.517819399743402"><ele>219.0</ele><time>2026-04-19T17:13:18Z</time></trkpt><trkpt lat="43.12643481122757" lon="12.518006100745797"><ele>219.5</ele><time>2026-04-19T17:13:19Z</time></trkpt><trkpt lat="43.12665975053363" lon="12.51819371698658"><ele>220.0</ele><time>2026-04-19T17:13:20Z</time></trkpt><trkpt lat="43.12688428665199" lon="12.518378570951322"><ele>220.0</ele><time>2026-04-19T17:13:21Z</time></trkpt><trkpt lat="43.12711037935775" lon="12.518563915217776"><ele>220.0</ele><time>2026-04-19T17:13:22Z</time></trkpt><trkpt lat="43.127337452109956" lon="12.518749625461439"><ele>220.0</ele><time>2026-04-19T17:13:23Z</time></trkpt><trkpt lat="43.12756458004505" lon="12.518937596842044"><ele>220.0</ele><time>2026-04-19T17:13:24Z</time></trkpt><trkpt lat="43.12779166546686" lon="12.519123302372599"><ele>220.0</ele><time>2026-04-19T17:13:25Z</time></trkpt><trkpt lat="43.12802300622771" lon="12.519312689686029"><ele>220.0</ele><time>2026-04-19T17:13:26Z</time></trkpt><trkpt lat="43.128249881823734" lon="12.519503640375238"><ele>220.0</ele><time>2026-04-19T17:13:27Z</time></trkpt><trkpt lat="43.128480017193596" lon="12.519691997530686"><ele>220.0</ele><time>2026-04-19T17:13:28Z</time></trkpt><trkpt lat="43.12870950641867" lon="12.519880507678556"><ele>220.0</ele><time>2026-04-19T17:13:29Z</time></trkpt><trkpt lat="43.12893974760532" lon="12.520070298208937"><ele>220.0</ele><time>2026-04-19T17:13:30Z</time></trkpt><trkpt lat="43.12916815339713" lon="12.52026071851572"><ele>220.5</ele><time>2026-04-19T17:13:31Z</time></trkpt><trkpt lat="43.12939799670364" lon="12.520449153393711"><ele>221.0</ele><time>2026-04-19T17:13:32Z</time></trkpt><trkpt lat="43.129630841686804" lon="12.52063819519248"><ele>221.0</ele><time>2026-04-19T17:13:33Z</time></trkpt><trkpt lat="43.129861555611576" lon="12.5208300969217"><ele>221.0</ele><time>2026-04-19T17:13:34Z</time></trkpt><trkpt lat="43.130093334323924" lon="12.521021209021072"><ele>221.5</ele><time>2026-04-19T17:13:35Z</time></trkpt><trkpt lat="43.130328208175946" lon="12.521208862765137"><ele>222.0</ele><time>2026-04-19T17:13:36Z</time></trkpt><trkpt lat="43.13056138427813" lon="12.521399581559216"><ele>223.0</ele><time>2026-04-19T17:13:37Z</time></trkpt><trkpt lat="43.130797445708566" lon="12.521588147636002"><ele>224.0</ele><time>2026-04-19T17:13:38Z</time></trkpt><trkpt lat="43.13102607518807" lon="12.521782673689591"><ele>224.0</ele><time>2026-04-19T17:13:39Z</time></trkpt><trkpt lat="43.13125193495962" lon="12.521978921684582"><ele>224.0</ele><time>2026-04-19T17:13:40Z</time></trkpt><trkpt lat="43.131481030930125" lon="12.522175123348584"><ele>223.5</ele><time>2026-04-19T17:13:41Z</time></trkpt><trkpt lat="43.13171185541205" lon="12.522366382920204"><ele>223.0</ele><time>2026-04-19T17:13:42Z</time></trkpt><trkpt lat="43.13194418283567" lon="12.522556673081152"><ele>223.0</ele><time>2026-04-19T17:13:43Z</time></trkpt><trkpt lat="43.13217030424063" lon="12.522745546052164"><ele>223.0</ele><time>2026-04-19T17:13:44.001Z</time></trkpt><trkpt lat="43.132400389247834" lon="12.522937975980852"><ele>224.5</ele><time>2026-04-19T17:13:45.001Z</time></trkpt><trkpt lat="43.13262513265284" lon="12.523130875401844"><ele>226.0</ele><time>2026-04-19T17:13:46.001Z</time></trkpt><trkpt lat="43.1328463212222" lon="12.523327375572594"><ele>226.0</ele><time>2026-04-19T17:13:47.001Z</time></trkpt><trkpt lat="43.13306554183425" lon="12.52352912302669"><ele>226.0</ele><time>2026-04-19T17:13:48.001Z</time></trkpt><trkpt lat="43.133281927262104" lon="12.52373534273678"><ele>226.5</ele><time>2026-04-19T17:13:49.001Z</time></trkpt><trkpt lat="43.1334972478001" lon="12.523946960014358"><ele>227.0</ele><time>2026-04-19T17:13:50.001Z</time></trkpt><trkpt lat="43.133706061269216" lon="12.524163908679038"><ele>227.0</ele><time>2026-04-19T17:13:51.001Z</time></trkpt><trkpt lat="43.133909507619045" lon="12.524390303659334"><ele>227.0</ele><time>2026-04-19T17:13:52.001Z</time></trkpt><trkpt lat="43.13410933122284" lon="12.524624445551314"><ele>227.0</ele><time>2026-04-19T17:13:53.001Z</time></trkpt><trkpt lat="43.134306581932705" lon="12.524868371964484"><ele>227.0</ele><time>2026-04-19T17:13:54.001Z</time></trkpt><trkpt lat="43.13449255713596" lon="12.525122700687561"><ele>227.0</ele><time>2026-04-19T17:13:55.001Z</time></trkpt><trkpt lat="43.134676462613605" lon="12.52539087297509"><ele>227.0</ele><time>2026-04-19T17:13:56.001Z</time></trkpt><trkpt lat="43.13485265355861" lon="12.525663547016492"><ele>226.5</ele><time>2026-04-19T17:13:57.001Z</time></trkpt><trkpt lat="43.13502168436688" lon="12.525947561334531"><ele>226.0</ele><time>2026-04-19T17:13:58.001Z</time></trkpt><trkpt lat="43.13518055170891" lon="12.526238579073173"><ele>226.0</ele><time>2026-04-19T17:13:59.001Z</time></trkpt><trkpt lat="43.13533581904363" lon="12.526541279922231"><ele>226.0</ele><time>2026-04-19T17:14:00.001Z</time></trkpt><trkpt lat="43.13548191651791" lon="12.526847820794332"><ele>225.5</ele><time>2026-04-19T17:14:01.001Z</time></trkpt><trkpt lat="43.13562368299693" lon="12.527163217609763"><ele>225.0</ele><time>2026-04-19T17:14:02.001Z</time></trkpt><trkpt lat="43.13575425086306" lon="12.527492890024318"><ele>225.5</ele><time>2026-04-19T17:14:03.001Z</time></trkpt><trkpt lat="43.135873568847096" lon="12.527823215886894"><ele>226.0</ele><time>2026-04-19T17:14:04.001Z</time></trkpt><trkpt lat="43.13598404465168" lon="12.528167066573058"><ele>226.0</ele><time>2026-04-19T17:14:05.001Z</time></trkpt><trkpt lat="43.13608511822007" lon="12.528515007717274"><ele>226.0</ele><time>2026-04-19T17:14:06.001Z</time></trkpt><trkpt lat="43.13618005745726" lon="12.528870941438754"><ele>225.5</ele><time>2026-04-19T17:14:07.001Z</time></trkpt><trkpt lat="43.136264150297734" lon="12.529229509995794"><ele>225.0</ele><time>2026-04-19T17:14:08.001Z</time></trkpt><trkpt lat="43.13635101187416" lon="12.529584797825908"><ele>225.0</ele><time>2026-04-19T17:14:09.001Z</time></trkpt><trkpt lat="43.13643147306461" lon="12.529934499119383"><ele>225.0</ele><time>2026-04-19T17:14:10.001Z</time></trkpt><trkpt lat="43.136506068763474" lon="12.530291988996733"><ele>225.5</ele><time>2026-04-19T17:14:11.001Z</time></trkpt><trkpt lat="43.136579578427295" lon="12.53065485356707"><ele>226.0</ele><time>2026-04-19T17:14:12.001Z</time></trkpt><trkpt lat="43.13665389163506" lon="12.531010818504084"><ele>225.0</ele><time>2026-04-19T17:14:13.001Z</time></trkpt><trkpt lat="43.13672673106855" lon="12.53137271103064"><ele>224.0</ele><time>2026-04-19T17:14:14.001Z</time></trkpt><trkpt lat="43.13680333594258" lon="12.531730950459155"><ele>224.0</ele><time>2026-04-19T17:14:15.001Z</time></trkpt><trkpt lat="43.13687926667506" lon="12.532086491937587"><ele>224.0</ele><time>2026-04-19T17:14:16.001Z</time></trkpt><trkpt lat="43.13695609250114" lon="12.532440835086895"><ele>224.0</ele><time>2026-04-19T17:14:17.001Z</time></trkpt><trkpt lat="43.137030739034074" lon="12.532794102194392"><ele>224.0</ele><time>2026-04-19T17:14:18.001Z</time></trkpt><trkpt lat="43.137104698415165" lon="12.533151718378527"><ele>224.0</ele><time>2026-04-19T17:14:19.001Z</time></trkpt><trkpt lat="43.13717784806735" lon="12.53350952082527"><ele>224.0</ele><time>2026-04-19T17:14:20.001Z</time></trkpt><trkpt lat="43.137252037345554" lon="12.53386299977114"><ele>223.5</ele><time>2026-04-19T17:14:21.001Z</time></trkpt><trkpt lat="43.13732594737658" lon="12.534217239988942"><ele>223.0</ele><time>2026-04-19T17:14:22.001Z</time></trkpt><trkpt lat="43.13740151092926" lon="12.534569979715695"><ele>224.0</ele><time>2026-04-19T17:14:23.001Z</time></trkpt><trkpt lat="43.1374782170201" lon="12.534921873065219"><ele>225.0</ele><time>2026-04-19T17:14:24.001Z</time></trkpt><trkpt lat="43.137552348733166" lon="12.53527662402974"><ele>224.5</ele><time>2026-04-19T17:14:25.001Z</time></trkpt><trkpt lat="43.13762615302891" lon="12.535628906343332"><ele>224.0</ele><time>2026-04-19T17:14:26.001Z</time></trkpt><trkpt lat="43.137700736688046" lon="12.535984794825632"><ele>224.0</ele><time>2026-04-19T17:14:27.001Z</time></trkpt><trkpt lat="43.13777623248632" lon="12.536341261800205"><ele>224.0</ele><time>2026-04-19T17:14:28.001Z</time></trkpt><trkpt lat="43.13785077778081" lon="12.536696012446956"><ele>224.0</ele><time>2026-04-19T17:14:29.001Z</time></trkpt><trkpt lat="43.13792909796609" lon="12.53705113485924"><ele>224.0</ele><time>2026-04-19T17:14:30.001Z</time></trkpt><trkpt lat="43.13800147749076" lon="12.53740659061721"><ele>223.0</ele><time>2026-04-19T17:14:31.001Z</time></trkpt><trkpt lat="43.13807680190578" lon="12.53775445765425"><ele>222.0</ele><time>2026-04-19T17:14:32.001Z</time></trkpt><trkpt lat="43.13814915816105" lon="12.538106135795921"><ele>222.5</ele><time>2026-04-19T17:14:33.001Z</time></trkpt><trkpt lat="43.138218777965214" lon="12.53845582585914"><ele>223.0</ele><time>2026-04-19T17:14:34.001Z</time></trkpt><trkpt lat="43.13829191501072" lon="12.538808205063717"><ele>223.5</ele><time>2026-04-19T17:14:35.001Z</time></trkpt><trkpt lat="43.13834741077064" lon="12.539164615179656"><ele>224.0</ele><time>2026-04-19T17:14:36.001Z</time></trkpt><trkpt lat="43.13839603708322" lon="12.539514414348432"><ele>225.5</ele><time>2026-04-19T17:14:37.001Z</time></trkpt><trkpt lat="43.13843388573754" lon="12.53985167115834"><ele>227.0</ele><time>2026-04-19T17:14:38.001Z</time></trkpt><trkpt lat="43.13846461158885" lon="12.540225316135675"><ele>228.0</ele><time>2026-04-19T17:14:39.001Z</time></trkpt><trkpt lat="43.13848137925081" lon="12.540580759003017"><ele>229.0</ele><time>2026-04-19T17:14:40.001Z</time></trkpt><trkpt lat="43.138494468280825" lon="12.540940934337078"><ele>231.0</ele><time>2026-04-19T17:14:41.001Z</time></trkpt><trkpt lat="43.13850160476111" lon="12.541300269598601"><ele>233.0</ele><time>2026-04-19T17:14:42.001Z</time></trkpt><trkpt lat="43.13850441799235" lon="12.541660415974846"><ele>233.0</ele><time>2026-04-19T17:14:43.001Z</time></trkpt><trkpt lat="43.13850281204943" lon="12.54201911556322"><ele>233.0</ele><time>2026-04-19T17:14:44.001Z</time></trkpt><trkpt lat="43.13849521743513" lon="12.542367866571844"><ele>234.0</ele><time>2026-04-19T17:14:45.001Z</time></trkpt><trkpt lat="43.13849949533214" lon="12.542715981756059"><ele>235.0</ele><time>2026-04-19T17:14:46.001Z</time></trkpt><trkpt lat="43.1385063329441" lon="12.54306115488665"><ele>239.0</ele><time>2026-04-19T17:14:47.001Z</time></trkpt><trkpt lat="43.138517177274885" lon="12.543401898900301"><ele>243.0</ele><time>2026-04-19T17:14:48.001Z</time></trkpt><trkpt lat="43.13852514540554" lon="12.543742817619963"><ele>245.5</ele><time>2026-04-19T17:14:49.001Z</time></trkpt><trkpt lat="43.13853907639994" lon="12.544077502330008"><ele>248.0</ele><time>2026-04-19T17:14:50.001Z</time></trkpt><trkpt lat="43.13855554906916" lon="12.544409811697472"><ele>250.0</ele><time>2026-04-19T17:14:51.001Z</time></trkpt><trkpt lat="43.138573381558956" lon="12.544740255953057"><ele>252.0</ele><time>2026-04-19T17:14:52.001Z</time></trkpt><trkpt lat="43.13858963465356" lon="12.54506861934051"><ele>254.5</ele><time>2026-04-19T17:14:53.001Z</time></trkpt><trkpt lat="43.13860374408461" lon="12.545396835250653"><ele>257.0</ele><time>2026-04-19T17:14:54.001Z</time></trkpt><trkpt lat="43.1386145327591" lon="12.545728570100882"><ele>257.0</ele><time>2026-04-19T17:14:55.001Z</time></trkpt><trkpt lat="43.13863164031004" lon="12.546056162443222"><ele>257.0</ele><time>2026-04-19T17:14:56.001Z</time></trkpt><trkpt lat="43.13864936749159" lon="12.546381366952726"><ele>260.0</ele><time>2026-04-19T17:14:57.001Z</time></trkpt><trkpt lat="43.13866529676455" lon="12.546702681745572"><ele>263.0</ele><time>2026-04-19T17:14:58.001Z</time></trkpt><trkpt lat="43.138681485364096" lon="12.547021795002635"><ele>275.0</ele><time>2026-04-19T17:14:59.001Z</time></trkpt><trkpt lat="43.13887929002097" lon="12.547728378715744"><ele>281.0</ele><time>2026-04-19T17:15:00.001Z</time></trkpt><trkpt lat="43.138953413146616" lon="12.548103558233988"><ele>287.0</ele><time>2026-04-19T17:15:01.001Z</time></trkpt><trkpt lat="43.13903207827142" lon="12.548476721969477"><ele>297.5</ele><time>2026-04-19T17:15:02.001Z</time></trkpt><trkpt lat="43.1391136183174" lon="12.548847527372828"><ele>308.0</ele><time>2026-04-19T17:15:03.001Z</time></trkpt><trkpt lat="43.139210487491056" lon="12.549229424418145"><ele>233.0</ele><time>2026-04-19T17:15:04.044Z</time></trkpt><trkpt lat="43.14245979370729" lon="12.557217159006191"><ele>233.0</ele><time>2026-04-19T17:15:27.002Z</time></trkpt><trkpt lat="43.142372708072806" lon="12.557213210558299"><ele>233.0</ele><time>2026-04-19T17:15:28Z</time></trkpt><trkpt lat="43.14245652901125" lon="12.557432171986664"><ele>233.0</ele><time>2026-04-19T17:15:29Z</time></trkpt><trkpt lat="43.14261483242724" lon="12.55774784295675"><ele>232.0</ele><time>2026-04-19T17:15:30Z</time></trkpt><trkpt lat="43.14276728377945" lon="12.558046882087828"><ele>231.0</ele><time>2026-04-19T17:15:31Z</time></trkpt><trkpt lat="43.142910489195714" lon="12.558350444157169"><ele>231.0</ele><time>2026-04-19T17:15:32Z</time></trkpt><trkpt lat="43.14305479595244" lon="12.558646185092984"><ele>231.0</ele><time>2026-04-19T17:15:33Z</time></trkpt><trkpt lat="43.14319968320177" lon="12.558944279165193"><ele>232.0</ele><time>2026-04-19T17:15:34Z</time></trkpt><trkpt lat="43.143341809832854" lon="12.55924013710528"><ele>233.0</ele><time>2026-04-19T17:15:35Z</time></trkpt><trkpt lat="43.143483492410155" lon="12.55953529677091"><ele>234.5</ele><time>2026-04-19T17:15:36Z</time></trkpt><trkpt lat="43.143625148749656" lon="12.559833163785727"><ele>236.0</ele><time>2026-04-19T17:15:37Z</time></trkpt><trkpt lat="43.1437642243666" lon="12.560132981397123"><ele>236.5</ele><time>2026-04-19T17:15:38Z</time></trkpt><trkpt lat="43.143904897267035" lon="12.560431266736856"><ele>237.0</ele><time>2026-04-19T17:15:39Z</time></trkpt><trkpt lat="43.14404732269499" lon="12.560730711186837"><ele>243.5</ele><time>2026-04-19T17:15:40Z</time></trkpt><trkpt lat="43.14418199275876" lon="12.561043276396083"><ele>250.0</ele><time>2026-04-19T17:15:41Z</time></trkpt><trkpt lat="43.14431526797467" lon="12.561358197596105"><ele>250.0</ele><time>2026-04-19T17:15:42Z</time></trkpt><trkpt lat="43.14445047001279" lon="12.561677201763844"><ele>250.0</ele><time>2026-04-19T17:15:43Z</time></trkpt><trkpt lat="43.14458208593683" lon="12.561992022838217"><ele>248.0</ele><time>2026-04-19T17:15:44Z</time></trkpt><trkpt lat="43.144718663554656" lon="12.562310318916435"><ele>246.0</ele><time>2026-04-19T17:15:45Z</time></trkpt><trkpt lat="43.1448707779587" lon="12.562610038700756"><ele>246.0</ele><time>2026-04-19T17:15:46Z</time></trkpt><trkpt lat="43.14501520198328" lon="12.562915256933518"><ele>246.0</ele><time>2026-04-19T17:15:47Z</time></trkpt><trkpt lat="43.1451634525205" lon="12.563224727564046"><ele>246.0</ele><time>2026-04-19T17:15:48Z</time></trkpt><trkpt lat="43.14535949624284" lon="12.563452826201354"><ele>246.0</ele><time>2026-04-19T17:15:49Z</time></trkpt><trkpt lat="43.145505431687006" lon="12.563763562227264"><ele>246.0</ele><time>2026-04-19T17:15:50Z</time></trkpt><trkpt lat="43.145647366977684" lon="12.564078733943955"><ele>246.0</ele><time>2026-04-19T17:15:51Z</time></trkpt><trkpt lat="43.145791479825355" lon="12.564392899412253"><ele>245.0</ele><time>2026-04-19T17:15:52Z</time></trkpt><trkpt lat="43.14593096850344" lon="12.564708445626101"><ele>244.0</ele><time>2026-04-19T17:15:53Z</time></trkpt><trkpt lat="43.146070613658445" lon="12.565052129250637"><ele>241.5</ele><time>2026-04-19T17:15:54Z</time></trkpt><trkpt lat="43.14617722537027" lon="12.565366712589366"><ele>239.0</ele><time>2026-04-19T17:15:55Z</time></trkpt><trkpt lat="43.14629676883215" lon="12.565684272215485"><ele>239.0</ele><time>2026-04-19T17:15:56Z</time></trkpt><trkpt lat="43.14641449147339" lon="12.566000220030526"><ele>239.0</ele><time>2026-04-19T17:15:57Z</time></trkpt><trkpt lat="43.14652654967526" lon="12.566318375185917"><ele>246.0</ele><time>2026-04-19T17:15:58Z</time></trkpt><trkpt lat="43.146643483925594" lon="12.56665699351289"><ele>253.0</ele><time>2026-04-19T17:15:59Z</time></trkpt><trkpt lat="43.14674671152431" lon="12.566979685577586"><ele>252.0</ele><time>2026-04-19T17:16:00Z</time></trkpt><trkpt lat="43.146848590422984" lon="12.5673015498512"><ele>251.0</ele><time>2026-04-19T17:16:01Z</time></trkpt><trkpt lat="43.14694529844078" lon="12.567622666443356"><ele>251.5</ele><time>2026-04-19T17:16:02Z</time></trkpt><trkpt lat="43.147047023780715" lon="12.567919012058683"><ele>252.0</ele><time>2026-04-19T17:16:03Z</time></trkpt><trkpt lat="43.14714251022757" lon="12.56819911194889"><ele>252.0</ele><time>2026-04-19T17:16:04Z</time></trkpt><trkpt lat="43.14723290612199" lon="12.568473062172991"><ele>252.0</ele><time>2026-04-19T17:16:05Z</time></trkpt><trkpt lat="43.14732352171067" lon="12.568749827576902"><ele>252.0</ele><time>2026-04-19T17:16:06Z</time></trkpt><trkpt lat="43.14741218868607" lon="12.569023637049341"><ele>266.0</ele><time>2026-04-19T17:16:07Z</time></trkpt><trkpt lat="43.14750441111198" lon="12.56931108500534"><ele>280.0</ele><time>2026-04-19T17:16:08Z</time></trkpt><trkpt lat="43.147602682461795" lon="12.569605730461921"><ele>281.66666666666663</ele><time>2026-04-19T17:16:09Z</time></trkpt><trkpt lat="43.147692554906534" lon="12.569872749298728"><ele>283.3333333333333</ele><time>2026-04-19T17:16:10Z</time></trkpt><trkpt lat="43.147780722910404" lon="12.570141130451155"><ele>285.0</ele><time>2026-04-19T17:16:11Z</time></trkpt><trkpt lat="43.147874102177745" lon="12.57041045153971"><ele>291.0</ele><time>2026-04-19T17:16:12Z</time></trkpt><trkpt lat="43.147965116014" lon="12.570677820894488"><ele>297.0</ele><time>2026-04-19T17:16:13Z</time></trkpt><trkpt lat="43.14805740289733" lon="12.570948246447326"><ele>303.0</ele><time>2026-04-19T17:16:14Z</time></trkpt><trkpt lat="43.14828036527068" lon="12.571913635674722"><ele>315.5</ele><time>2026-04-19T17:16:15Z</time></trkpt><trkpt lat="43.148385635374424" lon="12.57223907833898"><ele>328.0</ele><time>2026-04-19T17:16:16Z</time></trkpt><trkpt lat="43.14848734277459" lon="12.57255878166169"><ele>332.5</ele><time>2026-04-19T17:16:17Z</time></trkpt><trkpt lat="43.148582298705996" lon="12.572877555284554"><ele>337.0</ele><time>2026-04-19T17:16:18Z</time></trkpt><trkpt lat="43.148675599514405" lon="12.573187662756128"><ele>337.0</ele><time>2026-04-19T17:16:19Z</time></trkpt><trkpt lat="43.148774304215245" lon="12.57349968388687"><ele>337.0</ele><time>2026-04-19T17:16:20.001Z</time></trkpt><trkpt lat="43.148869636080946" lon="12.573804504776952"><ele>338.0</ele><time>2026-04-19T17:16:21.001Z</time></trkpt><trkpt lat="43.14896723002075" lon="12.574104303347475"><ele>339.0</ele><time>2026-04-19T17:16:22.001Z</time></trkpt><trkpt lat="43.14906467662934" lon="12.574391040137314"><ele>321.5</ele><time>2026-04-19T17:16:23.001Z</time></trkpt><trkpt lat="43.1491609580364" lon="12.574683872540685"><ele>304.0</ele><time>2026-04-19T17:16:24.001Z</time></trkpt><trkpt lat="43.14925241198725" lon="12.574981084007344"><ele>248.0</ele><time>2026-04-19T17:16:25.022Z</time></trkpt><trkpt lat="43.1497359019604" lon="12.576755674879672"><ele>245.5</ele><time>2026-04-19T17:16:29.001Z</time></trkpt><trkpt lat="43.14983804648554" lon="12.577088917455036"><ele>243.0</ele><time>2026-04-19T17:16:30.001Z</time></trkpt><trkpt lat="43.14993778161264" lon="12.5774441273955"><ele>243.0</ele><time>2026-04-19T17:16:31.001Z</time></trkpt><trkpt lat="43.15002890011097" lon="12.577756884994995"><ele>243.0</ele><time>2026-04-19T17:16:32.001Z</time></trkpt><trkpt lat="43.150124556277554" lon="12.578079755319216"><ele>244.5</ele><time>2026-04-19T17:16:33.001Z</time></trkpt><trkpt lat="43.150221480428044" lon="12.578400651888796"><ele>246.0</ele><time>2026-04-19T17:16:34.001Z</time></trkpt><trkpt lat="43.15032646106033" lon="12.578733206511826"><ele>246.0</ele><time>2026-04-19T17:16:35.001Z</time></trkpt><trkpt lat="43.15042738895079" lon="12.579053656857942"><ele>246.0</ele><time>2026-04-19T17:16:36.001Z</time></trkpt><trkpt lat="43.15054016293656" lon="12.579369731462663"><ele>243.5</ele><time>2026-04-19T17:16:37.001Z</time></trkpt><trkpt lat="43.150665105729864" lon="12.579680474433992"><ele>241.0</ele><time>2026-04-19T17:16:38.001Z</time></trkpt><trkpt lat="43.15079824648129" lon="12.579986530916479"><ele>241.0</ele><time>2026-04-19T17:16:39.001Z</time></trkpt><trkpt lat="43.150938386448125" lon="12.580287988419915"><ele>241.0</ele><time>2026-04-19T17:16:40.001Z</time></trkpt><trkpt lat="43.15108761223015" lon="12.580585183138949"><ele>242.5</ele><time>2026-04-19T17:16:41.001Z</time></trkpt><trkpt lat="43.15124870145785" lon="12.580874944963613"><ele>244.0</ele><time>2026-04-19T17:16:42.001Z</time></trkpt><trkpt lat="43.1514187390783" lon="12.581159084749972"><ele>244.5</ele><time>2026-04-19T17:16:43.001Z</time></trkpt><trkpt lat="43.15159782137259" lon="12.581436274125455"><ele>245.0</ele><time>2026-04-19T17:16:44.001Z</time></trkpt><trkpt lat="43.1517837651732" lon="12.581707177550953"><ele>245.0</ele><time>2026-04-19T17:16:45.001Z</time></trkpt><trkpt lat="43.15197727178751" lon="12.581970655687284"><ele>245.0</ele><time>2026-04-19T17:16:46.001Z</time></trkpt><trkpt lat="43.152175079324834" lon="12.582231148305805"><ele>245.0</ele><time>2026-04-19T17:16:47.001Z</time></trkpt><trkpt lat="43.15237473011863" lon="12.582489277753062"><ele>245.0</ele><time>2026-04-19T17:16:48.001Z</time></trkpt><trkpt lat="43.15257878921924" lon="12.582742372164153"><ele>244.5</ele><time>2026-04-19T17:16:49.001Z</time></trkpt><trkpt lat="43.15278152639937" lon="12.582994787184981"><ele>244.0</ele><time>2026-04-19T17:16:50.001Z</time></trkpt><trkpt lat="43.152982937588504" lon="12.583248450380987"><ele>244.0</ele><time>2026-04-19T17:16:51.001Z</time></trkpt><trkpt lat="43.15317236486239" lon="12.583496082679563"><ele>244.0</ele><time>2026-04-19T17:16:52.001Z</time></trkpt><trkpt lat="43.1533488399808" lon="12.583712521039804"><ele>243.66666666666666</ele><time>2026-04-19T17:16:53.001Z</time></trkpt><trkpt lat="43.153503276746136" lon="12.583900181690755"><ele>243.33333333333331</ele><time>2026-04-19T17:16:54.001Z</time></trkpt><trkpt lat="43.15364742918738" lon="12.584091277799208"><ele>243.0</ele><time>2026-04-19T17:16:55.001Z</time></trkpt><trkpt lat="43.15379418067995" lon="12.584280473202375"><ele>243.0</ele><time>2026-04-19T17:16:56.001Z</time></trkpt><trkpt lat="43.153946215053445" lon="12.584476682407661"><ele>243.0</ele><time>2026-04-19T17:16:57.001Z</time></trkpt><trkpt lat="43.15410538383579" lon="12.584678885515299"><ele>243.0</ele><time>2026-04-19T17:16:58.001Z</time></trkpt><trkpt lat="43.15426493577448" lon="12.584888214359635"><ele>243.5</ele><time>2026-04-19T17:16:59.001Z</time></trkpt><trkpt lat="43.15442419778821" lon="12.585105627821248"><ele>244.0</ele><time>2026-04-19T17:17:00.001Z</time></trkpt><trkpt lat="43.15458214323155" lon="12.585329960350457"><ele>245.0</ele><time>2026-04-19T17:17:01.001Z</time></trkpt><trkpt lat="43.15474060562319" lon="12.585564105054056"><ele>246.0</ele><time>2026-04-19T17:17:02.001Z</time></trkpt><trkpt lat="43.154900370051145" lon="12.585800785231143"><ele>246.0</ele><time>2026-04-19T17:17:03.001Z</time></trkpt><trkpt lat="43.15505790014603" lon="12.586044133540826"><ele>246.0</ele><time>2026-04-19T17:17:04.001Z</time></trkpt><trkpt lat="43.155216463152364" lon="12.586293349739547"><ele>246.0</ele><time>2026-04-19T17:17:05.001Z</time></trkpt><trkpt lat="43.15537198231775" lon="12.58654773833718"><ele>246.0</ele><time>2026-04-19T17:17:06.001Z</time></trkpt><trkpt lat="43.15552657852458" lon="12.586807162222613"><ele>246.5</ele><time>2026-04-19T17:17:07.001Z</time></trkpt><trkpt lat="43.15567898462277" lon="12.587070689191005"><ele>247.0</ele><time>2026-04-19T17:17:08.001Z</time></trkpt><trkpt lat="43.155831642394695" lon="12.587336606974537"><ele>248.0</ele><time>2026-04-19T17:17:09.001Z</time></trkpt><trkpt lat="43.1559832144418" lon="12.587605721664545"><ele>249.0</ele><time>2026-04-19T17:17:10.001Z</time></trkpt><trkpt lat="43.15613541159836" lon="12.58787713922936"><ele>249.0</ele><time>2026-04-19T17:17:11.001Z</time></trkpt><trkpt lat="43.156286532823344" lon="12.588150239587407"><ele>249.0</ele><time>2026-04-19T17:17:12.001Z</time></trkpt><trkpt lat="43.15643509905614" lon="12.588428221389906"><ele>249.5</ele><time>2026-04-19T17:17:13.001Z</time></trkpt><trkpt lat="43.156582316877085" lon="12.588706289441273"><ele>250.0</ele><time>2026-04-19T17:17:14.001Z</time></trkpt><trkpt lat="43.1567309794219" lon="12.588983346707384"><ele>250.0</ele><time>2026-04-19T17:17:15.001Z</time></trkpt><trkpt lat="43.15688012045892" lon="12.589262712403151"><ele>250.0</ele><time>2026-04-19T17:17:16.001Z</time></trkpt><trkpt lat="43.15702960759947" lon="12.589543046362682"><ele>249.5</ele><time>2026-04-19T17:17:17.001Z</time></trkpt><trkpt lat="43.15717792350546" lon="12.589823600393647"><ele>249.0</ele><time>2026-04-19T17:17:18.001Z</time></trkpt><trkpt lat="43.15733248832569" lon="12.590105064110658"><ele>249.0</ele><time>2026-04-19T17:17:19.001Z</time></trkpt><trkpt lat="43.157486456451416" lon="12.590386332559238"><ele>249.0</ele><time>2026-04-19T17:17:20.001Z</time></trkpt><trkpt lat="43.15764104123012" lon="12.590671421792468"><ele>249.0</ele><time>2026-04-19T17:17:21.001Z</time></trkpt><trkpt lat="43.15779163745607" lon="12.59095357080165"><ele>249.0</ele><time>2026-04-19T17:17:22.001Z</time></trkpt><trkpt lat="43.15794288464967" lon="12.591237879382021"><ele>249.0</ele><time>2026-04-19T17:17:23.001Z</time></trkpt><trkpt lat="43.15809505847174" lon="12.591519821573263"><ele>249.0</ele><time>2026-04-19T17:17:24.001Z</time></trkpt><trkpt lat="43.15824223082475" lon="12.591791560226433"><ele>250.0</ele><time>2026-04-19T17:17:25.001Z</time></trkpt><trkpt lat="43.15838696395149" lon="12.592054485001032"><ele>251.0</ele><time>2026-04-19T17:17:26.001Z</time></trkpt><trkpt lat="43.158533491261785" lon="12.592310697973696"><ele>251.0</ele><time>2026-04-19T17:17:27.001Z</time></trkpt><trkpt lat="43.158684449382946" lon="12.592561332953384"><ele>251.0</ele><time>2026-04-19T17:17:28.001Z</time></trkpt><trkpt lat="43.15883887153722" lon="12.5928090417354"><ele>251.5</ele><time>2026-04-19T17:17:29.001Z</time></trkpt><trkpt lat="43.15900307193168" lon="12.593050359649656"><ele>252.0</ele><time>2026-04-19T17:17:30.001Z</time></trkpt><trkpt lat="43.159172569041154" lon="12.593285939910832"><ele>252.0</ele><time>2026-04-19T17:17:31.001Z</time></trkpt><trkpt lat="43.15934797736273" lon="12.593513352095115"><ele>252.0</ele><time>2026-04-19T17:17:32.001Z</time></trkpt><trkpt lat="43.159531172912395" lon="12.593733467733475"><ele>251.5</ele><time>2026-04-19T17:17:33Z</time></trkpt><trkpt lat="43.15972187442745" lon="12.593942056417596"><ele>251.0</ele><time>2026-04-19T17:17:34Z</time></trkpt><trkpt lat="43.15991676183713" lon="12.594144974427227"><ele>250.5</ele><time>2026-04-19T17:17:35Z</time></trkpt><trkpt lat="43.16011125402818" lon="12.59433848104149"><ele>250.0</ele><time>2026-04-19T17:17:36Z</time></trkpt><trkpt lat="43.160308442881814" lon="12.594535494036968"><ele>249.5</ele><time>2026-04-19T17:17:37Z</time></trkpt><trkpt lat="43.160504083597324" lon="12.594728032568883"><ele>249.0</ele><time>2026-04-19T17:17:38Z</time></trkpt><trkpt lat="43.16070138291586" lon="12.594920650068646"><ele>250.0</ele><time>2026-04-19T17:17:39Z</time></trkpt><trkpt lat="43.16089729266626" lon="12.595109428906987"><ele>251.0</ele><time>2026-04-19T17:17:40Z</time></trkpt><trkpt lat="43.16109008939447" lon="12.59529735231022"><ele>251.0</ele><time>2026-04-19T17:17:41Z</time></trkpt><trkpt lat="43.161281423600265" lon="12.595485369289424"><ele>251.0</ele><time>2026-04-19T17:17:42Z</time></trkpt><trkpt lat="43.16147293598959" lon="12.595670944947507"><ele>251.5</ele><time>2026-04-19T17:17:43Z</time></trkpt><trkpt lat="43.161662300646405" lon="12.59585775247934"><ele>252.0</ele><time>2026-04-19T17:17:44Z</time></trkpt><trkpt lat="43.161851746023466" lon="12.59604358881113"><ele>252.0</ele><time>2026-04-19T17:17:45Z</time></trkpt><trkpt lat="43.162040402456576" lon="12.596231691695959"><ele>252.0</ele><time>2026-04-19T17:17:46Z</time></trkpt><trkpt lat="43.162231357499316" lon="12.596419610298446"><ele>253.0</ele><time>2026-04-19T17:17:47Z</time></trkpt><trkpt lat="43.162424301471795" lon="12.59660835617607"><ele>254.0</ele><time>2026-04-19T17:17:48Z</time></trkpt><trkpt lat="43.1626183745572" lon="12.596796690451407"><ele>254.0</ele><time>2026-04-19T17:17:49Z</time></trkpt><trkpt lat="43.16281391376748" lon="12.596988238465554"><ele>254.0</ele><time>2026-04-19T17:17:50Z</time></trkpt><trkpt lat="43.16300847399388" lon="12.597177491172733"><ele>254.5</ele><time>2026-04-19T17:17:51Z</time></trkpt><trkpt lat="43.16320446866531" lon="12.597362906109916"><ele>255.0</ele><time>2026-04-19T17:17:52Z</time></trkpt><trkpt lat="43.16340408583174" lon="12.59754172739574"><ele>255.0</ele><time>2026-04-19T17:17:53Z</time></trkpt><trkpt lat="43.16360798875759" lon="12.597710753978301"><ele>255.0</ele><time>2026-04-19T17:17:54Z</time></trkpt><trkpt lat="43.16381644762544" lon="12.597867486875506"><ele>256.0</ele><time>2026-04-19T17:17:55Z</time></trkpt><trkpt lat="43.16403049790202" lon="12.598013904201796"><ele>257.0</ele><time>2026-04-19T17:17:56Z</time></trkpt><trkpt lat="43.164248428352344" lon="12.59815128960519"><ele>257.0</ele><time>2026-04-19T17:17:57Z</time></trkpt><trkpt lat="43.16446664272819" lon="12.598283485498941"><ele>257.0</ele><time>2026-04-19T17:17:58Z</time></trkpt><trkpt lat="43.164685864290675" lon="12.598404686092476"><ele>256.5</ele><time>2026-04-19T17:17:59Z</time></trkpt><trkpt lat="43.16490858478998" lon="12.598519259224089"><ele>256.0</ele><time>2026-04-19T17:18:00Z</time></trkpt><trkpt lat="43.165133019844745" lon="12.598631905084984"><ele>257.5</ele><time>2026-04-19T17:18:01Z</time></trkpt><trkpt lat="43.165354840829124" lon="12.598743341217284"><ele>259.0</ele><time>2026-04-19T17:18:02Z</time></trkpt><trkpt lat="43.16557579436215" lon="12.598856446038411"><ele>258.0</ele><time>2026-04-19T17:18:03Z</time></trkpt><trkpt lat="43.165795755868174" lon="12.598966936171287"><ele>257.0</ele><time>2026-04-19T17:18:04Z</time></trkpt><trkpt lat="43.16601400331187" lon="12.599076953287234"><ele>257.0</ele><time>2026-04-19T17:18:05Z</time></trkpt><trkpt lat="43.166229740450746" lon="12.599178513274715"><ele>257.0</ele><time>2026-04-19T17:18:06Z</time></trkpt><trkpt lat="43.16644495817744" lon="12.599275907431187"><ele>257.0</ele><time>2026-04-19T17:18:07Z</time></trkpt><trkpt lat="43.16665870659878" lon="12.599377944275675"><ele>257.0</ele><time>2026-04-19T17:18:08Z</time></trkpt><trkpt lat="43.166870199906825" lon="12.599482072097645"><ele>259.0</ele><time>2026-04-19T17:18:09Z</time></trkpt><trkpt lat="43.1670829358713" lon="12.599585631121737"><ele>261.0</ele><time>2026-04-19T17:18:10Z</time></trkpt><trkpt lat="43.16729355105707" lon="12.599687618773856"><ele>263.0</ele><time>2026-04-19T17:18:11Z</time></trkpt><trkpt lat="43.16750328722453" lon="12.599790880693146"><ele>265.0</ele><time>2026-04-19T17:18:12Z</time></trkpt><trkpt lat="43.16771035010009" lon="12.599890998848984"><ele>267.0</ele><time>2026-04-19T17:18:13Z</time></trkpt><trkpt lat="43.167916518180924" lon="12.59999045926597"><ele>269.0</ele><time>2026-04-19T17:18:14Z</time></trkpt><trkpt lat="43.16812371639038" lon="12.600093206022459"><ele>270.33333333333337</ele><time>2026-04-19T17:18:15Z</time></trkpt><trkpt lat="43.168331425138966" lon="12.600201769583748"><ele>271.6666666666667</ele><time>2026-04-19T17:18:16Z</time></trkpt><trkpt lat="43.16853895518404" lon="12.600316407960895"><ele>273.0</ele><time>2026-04-19T17:18:17Z</time></trkpt><trkpt lat="43.16874407205951" lon="12.60044003716851"><ele>279.5</ele><time>2026-04-19T17:18:18Z</time></trkpt><trkpt lat="43.16894708284595" lon="12.600572700123216"><ele>286.0</ele><time>2026-04-19T17:18:19Z</time></trkpt><trkpt lat="43.169149274908726" lon="12.60071607857931"><ele>286.0</ele><time>2026-04-19T17:18:20Z</time></trkpt><trkpt lat="43.16934466878742" lon="12.600869287242759"><ele>286.0</ele><time>2026-04-19T17:18:21Z</time></trkpt><trkpt lat="43.169538887178376" lon="12.601032850687409"><ele>285.0</ele><time>2026-04-19T17:18:22Z</time></trkpt><trkpt lat="43.169732950438636" lon="12.601195886135455"><ele>284.0</ele><time>2026-04-19T17:18:23Z</time></trkpt><trkpt lat="43.16992814650182" lon="12.60137022101232"><ele>284.0</ele><time>2026-04-19T17:18:24Z</time></trkpt><trkpt lat="43.170120037123205" lon="12.601540354522466"><ele>284.0</ele><time>2026-04-19T17:18:25Z</time></trkpt><trkpt lat="43.17031160878503" lon="12.60171412293051"><ele>284.0</ele><time>2026-04-19T17:18:26Z</time></trkpt><trkpt lat="43.17050077706179" lon="12.601884479327884"><ele>284.0</ele><time>2026-04-19T17:18:27.001Z</time></trkpt><trkpt lat="43.17069106709258" lon="12.602053039170015"><ele>284.0</ele><time>2026-04-19T17:18:28.001Z</time></trkpt><trkpt lat="43.17088021422132" lon="12.602212914795155"><ele>284.0</ele><time>2026-04-19T17:18:29.001Z</time></trkpt><trkpt lat="43.171074284418445" lon="12.602367186619986"><ele>284.0</ele><time>2026-04-19T17:18:30.001Z</time></trkpt><trkpt lat="43.17126971507161" lon="12.602513450685482"><ele>284.0</ele><time>2026-04-19T17:18:31.001Z</time></trkpt><trkpt lat="43.17146825615394" lon="12.602651626993074"><ele>284.0</ele><time>2026-04-19T17:18:32.001Z</time></trkpt><trkpt lat="43.171670543926496" lon="12.602779091364939"><ele>284.0</ele><time>2026-04-19T17:18:33.001Z</time></trkpt><trkpt lat="43.171877287364445" lon="12.60289867964379"><ele>285.0</ele><time>2026-04-19T17:18:34.001Z</time></trkpt><trkpt lat="43.17208367329184" lon="12.603009106503814"><ele>286.0</ele><time>2026-04-19T17:18:35.001Z</time></trkpt><trkpt lat="43.17229330541083" lon="12.6031189761664"><ele>287.0</ele><time>2026-04-19T17:18:36.001Z</time></trkpt><trkpt lat="43.17250304172601" lon="12.603226607963697"><ele>288.6666666666667</ele><time>2026-04-19T17:18:37.001Z</time></trkpt><trkpt lat="43.17271455339413" lon="12.603331514704035"><ele>290.3333333333333</ele><time>2026-04-19T17:18:38.001Z</time></trkpt><trkpt lat="43.17292596876395" lon="12.603430937159075"><ele>292.0</ele><time>2026-04-19T17:18:39.001Z</time></trkpt><trkpt lat="43.17313857053554" lon="12.603534607673518"><ele>293.3333333333333</ele><time>2026-04-19T17:18:40.001Z</time></trkpt><trkpt lat="43.17334842248123" lon="12.603638931157136"><ele>294.6666666666667</ele><time>2026-04-19T17:18:41.001Z</time></trkpt><trkpt lat="43.1735595556256" lon="12.603744985367946"><ele>296.0</ele><time>2026-04-19T17:18:42.001Z</time></trkpt><trkpt lat="43.173767713845066" lon="12.603853125562793"><ele>302.5</ele><time>2026-04-19T17:18:43.001Z</time></trkpt><trkpt lat="43.17397726418925" lon="12.603965716231041"><ele>309.0</ele><time>2026-04-19T17:18:44.001Z</time></trkpt><trkpt lat="43.17418592285066" lon="12.604081611639444"><ele>309.0</ele><time>2026-04-19T17:18:45.001Z</time></trkpt><trkpt lat="43.174396308375194" lon="12.604204227190086"><ele>309.0</ele><time>2026-04-19T17:18:46.001Z</time></trkpt><trkpt lat="43.17461069172856" lon="12.604333971096993"><ele>309.0</ele><time>2026-04-19T17:18:47.001Z</time></trkpt><trkpt lat="43.174823690645475" lon="12.604476811542142"><ele>309.0</ele><time>2026-04-19T17:18:48.001Z</time></trkpt><trkpt lat="43.175031467261704" lon="12.604634673811091"><ele>314.5</ele><time>2026-04-19T17:18:49.001Z</time></trkpt><trkpt lat="43.17523144166835" lon="12.604807797964497"><ele>320.0</ele><time>2026-04-19T17:18:50.001Z</time></trkpt><trkpt lat="43.17542585269138" lon="12.604992962382614"><ele>320.0</ele><time>2026-04-19T17:18:51.001Z</time></trkpt><trkpt lat="43.17561357635142" lon="12.605192982057492"><ele>320.0</ele><time>2026-04-19T17:18:52.001Z</time></trkpt><trkpt lat="43.17579225772642" lon="12.60540146138541"><ele>320.5</ele><time>2026-04-19T17:18:53.001Z</time></trkpt><trkpt lat="43.175961897343875" lon="12.605612896714394"><ele>321.0</ele><time>2026-04-19T17:18:54.001Z</time></trkpt><trkpt lat="43.17612227070532" lon="12.605835128023147"><ele>321.0</ele><time>2026-04-19T17:18:55.001Z</time></trkpt><trkpt lat="43.176275231751404" lon="12.606064598460206"><ele>321.0</ele><time>2026-04-19T17:18:56.001Z</time></trkpt><trkpt lat="43.17642445552326" lon="12.606303674855265"><ele>315.0</ele><time>2026-04-19T17:18:57.001Z</time></trkpt><trkpt lat="43.17656729979266" lon="12.60655060538273"><ele>309.0</ele><time>2026-04-19T17:18:58.001Z</time></trkpt><trkpt lat="43.17670559503421" lon="12.606805524854783"><ele>313.5</ele><time>2026-04-19T17:18:59.001Z</time></trkpt><trkpt lat="43.17683654291317" lon="12.607063563804976"><ele>318.0</ele><time>2026-04-19T17:19:00.001Z</time></trkpt><trkpt lat="43.17696227516182" lon="12.607330337826452"><ele>318.0</ele><time>2026-04-19T17:19:01.001Z</time></trkpt><trkpt lat="43.17708814326267" lon="12.607595334011307"><ele>318.0</ele><time>2026-04-19T17:19:02.001Z</time></trkpt><trkpt lat="43.17720866834477" lon="12.607865899538853"><ele>324.5</ele><time>2026-04-19T17:19:03.001Z</time></trkpt><trkpt lat="43.17733750505292" lon="12.608128267312564"><ele>331.0</ele><time>2026-04-19T17:19:04.001Z</time></trkpt><trkpt lat="43.17746620405864" lon="12.608397409334506"><ele>342.0</ele><time>2026-04-19T17:19:05.001Z</time></trkpt><trkpt lat="43.17759865387231" lon="12.608663882961665"><ele>353.0</ele><time>2026-04-19T17:19:06.001Z</time></trkpt><trkpt lat="43.17772794704845" lon="12.608938392864621"><ele>353.0</ele><time>2026-04-19T17:19:07.001Z</time></trkpt><trkpt lat="43.17785895047374" lon="12.609216348816897"><ele>353.0</ele><time>2026-04-19T17:19:08.001Z</time></trkpt><trkpt lat="43.17798876661181" lon="12.60948832276513"><ele>358.5</ele><time>2026-04-19T17:19:09.001Z</time></trkpt><trkpt lat="43.17812493047963" lon="12.609759310251576"><ele>364.0</ele><time>2026-04-19T17:19:10.001Z</time></trkpt><trkpt lat="43.178261049651695" lon="12.610025469687713"><ele>364.0</ele><time>2026-04-19T17:19:11.001Z</time></trkpt><trkpt lat="43.17839141911595" lon="12.610290333505024"><ele>364.0</ele><time>2026-04-19T17:19:12.001Z</time></trkpt><trkpt lat="43.17853886212816" lon="12.610554012080174"><ele>364.0</ele><time>2026-04-19T17:19:13.001Z</time></trkpt><trkpt lat="43.17866519480434" lon="12.61082553306896"><ele>364.0</ele><time>2026-04-19T17:19:14.001Z</time></trkpt><trkpt lat="43.17879508883452" lon="12.611096864053875"><ele>366.5</ele><time>2026-04-19T17:19:15.001Z</time></trkpt><trkpt lat="43.178984405178454" lon="12.611310589788932"><ele>369.0</ele><time>2026-04-19T17:19:16.001Z</time></trkpt><trkpt lat="43.17921477909091" lon="12.611547524299008"><ele>359.0</ele><time>2026-04-19T17:19:17.001Z</time></trkpt><trkpt lat="43.179315702049685" lon="12.611943526954658"><ele>349.0</ele><time>2026-04-19T17:19:18.001Z</time></trkpt><trkpt lat="43.17945570184656" lon="12.612216283671751"><ele>349.0</ele><time>2026-04-19T17:19:19.001Z</time></trkpt><trkpt lat="43.179607710639175" lon="12.61248367468952"><ele>349.0</ele><time>2026-04-19T17:19:20.001Z</time></trkpt><trkpt lat="43.179754960250065" lon="12.612750548124062"><ele>341.0</ele><time>2026-04-19T17:19:21.001Z</time></trkpt><trkpt lat="43.17990155010152" lon="12.61301687160829"><ele>333.0</ele><time>2026-04-19T17:19:22.001Z</time></trkpt><trkpt lat="43.180046087262724" lon="12.613287430954237"><ele>333.0</ele><time>2026-04-19T17:19:23.001Z</time></trkpt><trkpt lat="43.18018594365706" lon="12.613558809907367"><ele>333.0</ele><time>2026-04-19T17:19:24.001Z</time></trkpt><trkpt lat="43.18032093667958" lon="12.61382850996945"><ele>337.5</ele><time>2026-04-19T17:19:25.001Z</time></trkpt><trkpt lat="43.1804597462358" lon="12.6140982406089"><ele>342.0</ele><time>2026-04-19T17:19:26.001Z</time></trkpt><trkpt lat="43.18059489790397" lon="12.614363650072212"><ele>339.5</ele><time>2026-04-19T17:19:27.001Z</time></trkpt><trkpt lat="43.18072877541636" lon="12.614626463710632"><ele>337.0</ele><time>2026-04-19T17:19:28.001Z</time></trkpt><trkpt lat="43.180863948520255" lon="12.614892737001385"><ele>337.0</ele><time>2026-04-19T17:19:29.001Z</time></trkpt><trkpt lat="43.18099816296206" lon="12.6151548941391"><ele>337.0</ele><time>2026-04-19T17:19:30.001Z</time></trkpt><trkpt lat="43.18113279168886" lon="12.615419898957562"><ele>343.0</ele><time>2026-04-19T17:19:31.001Z</time></trkpt><trkpt lat="43.18126418309759" lon="12.615685685797896"><ele>349.0</ele><time>2026-04-19T17:19:32.001Z</time></trkpt><trkpt lat="43.181393434685" lon="12.615955581317717"><ele>346.0</ele><time>2026-04-19T17:19:33.001Z</time></trkpt><trkpt lat="43.18152043781551" lon="12.616232693479942"><ele>343.0</ele><time>2026-04-19T17:19:34.001Z</time></trkpt><trkpt lat="43.181641765201164" lon="12.616515884190024"><ele>343.0</ele><time>2026-04-19T17:19:35.001Z</time></trkpt><trkpt lat="43.181758756583946" lon="12.616804017843554"><ele>343.0</ele><time>2026-04-19T17:19:36.001Z</time></trkpt><trkpt lat="43.18186633319805" lon="12.617097263952582"><ele>348.0</ele><time>2026-04-19T17:19:37.001Z</time></trkpt><trkpt lat="43.18196590264844" lon="12.617395914667071"><ele>353.0</ele><time>2026-04-19T17:19:38.001Z</time></trkpt><trkpt lat="43.182061310278925" lon="12.617701089795885"><ele>357.5</ele><time>2026-04-19T17:19:39Z</time></trkpt><trkpt lat="43.182149181636646" lon="12.618005530012914"><ele>362.0</ele><time>2026-04-19T17:19:40Z</time></trkpt><trkpt lat="43.18223362408428" lon="12.61831663573841"><ele>362.0</ele><time>2026-04-19T17:19:41Z</time></trkpt><trkpt lat="43.182313025467536" lon="12.61862813903993"><ele>362.0</ele><time>2026-04-19T17:19:42Z</time></trkpt><trkpt lat="43.182391430625465" lon="12.618941831726286"><ele>349.0</ele><time>2026-04-19T17:19:43Z</time></trkpt><trkpt lat="43.18247113335661" lon="12.619254137471602"><ele>336.0</ele><time>2026-04-19T17:19:44Z</time></trkpt><trkpt lat="43.182550929428764" lon="12.619564044831117"><ele>335.5</ele><time>2026-04-19T17:19:45Z</time></trkpt><trkpt lat="43.182631422539096" lon="12.61987539152619"><ele>335.0</ele><time>2026-04-19T17:19:46Z</time></trkpt><trkpt lat="43.18271285540538" lon="12.620186502483662"><ele>346.0</ele><time>2026-04-19T17:19:47Z</time></trkpt><trkpt lat="43.182794093478755" lon="12.620496605988698"><ele>357.0</ele><time>2026-04-19T17:19:48Z</time></trkpt><trkpt lat="43.18287348866241" lon="12.620805339446372"><ele>357.0</ele><time>2026-04-19T17:19:49Z</time></trkpt><trkpt lat="43.182951539812386" lon="12.621112770044817"><ele>357.0</ele><time>2026-04-19T17:19:50Z</time></trkpt><trkpt lat="43.18303155582466" lon="12.621424238703282"><ele>363.5</ele><time>2026-04-19T17:19:51Z</time></trkpt><trkpt lat="43.183111392040594" lon="12.621735728815914"><ele>370.0</ele><time>2026-04-19T17:19:52Z</time></trkpt><trkpt lat="43.18319422964994" lon="12.622045269908396"><ele>370.0</ele><time>2026-04-19T17:19:53Z</time></trkpt><trkpt lat="43.18327980202386" lon="12.62234842808129"><ele>370.0</ele><time>2026-04-19T17:19:54Z</time></trkpt><trkpt lat="43.183372560893226" lon="12.622651206666182"><ele>365.5</ele><time>2026-04-19T17:19:55Z</time></trkpt><trkpt lat="43.18347325260001" lon="12.622950523889317"><ele>361.0</ele><time>2026-04-19T17:19:56Z</time></trkpt><trkpt lat="43.1835797658202" lon="12.623244692199924"><ele>361.0</ele><time>2026-04-19T17:19:57Z</time></trkpt><trkpt lat="43.183693017470254" lon="12.623538476904706"><ele>361.0</ele><time>2026-04-19T17:19:58Z</time></trkpt><trkpt lat="43.183813408964006" lon="12.623831155555218"><ele>361.5</ele><time>2026-04-19T17:19:59Z</time></trkpt><trkpt lat="43.183937200850615" lon="12.624115332716135"><ele>362.0</ele><time>2026-04-19T17:20:00Z</time></trkpt><trkpt lat="43.184068209983046" lon="12.624399071129812"><ele>367.5</ele><time>2026-04-19T17:20:01Z</time></trkpt><trkpt lat="43.18419861918924" lon="12.624675107245984"><ele>373.0</ele><time>2026-04-19T17:20:02Z</time></trkpt><trkpt lat="43.18432971234943" lon="12.624951508776066"><ele>373.0</ele><time>2026-04-19T17:20:03Z</time></trkpt><trkpt lat="43.18445922169872" lon="12.625225828149194"><ele>373.0</ele><time>2026-04-19T17:20:04Z</time></trkpt><trkpt lat="43.18458943946836" lon="12.625498777431702"><ele>381.0</ele><time>2026-04-19T17:20:05Z</time></trkpt><trkpt lat="43.184717820474255" lon="12.62576717552252"><ele>389.0</ele><time>2026-04-19T17:20:06Z</time></trkpt><trkpt lat="43.18484394098905" lon="12.626034556521626"><ele>386.0</ele><time>2026-04-19T17:20:07Z</time></trkpt><trkpt lat="43.18496760242573" lon="12.626298284081019"><ele>383.0</ele><time>2026-04-19T17:20:08Z</time></trkpt><trkpt lat="43.18509470895263" lon="12.626559343229644"><ele>383.0</ele><time>2026-04-19T17:20:09Z</time></trkpt><trkpt lat="43.18521907185867" lon="12.626817722063855"><ele>383.0</ele><time>2026-04-19T17:20:10Z</time></trkpt><trkpt lat="43.185345005409836" lon="12.627072527424374"><ele>388.33333333333337</ele><time>2026-04-19T17:20:11Z</time></trkpt><trkpt lat="43.185467887599465" lon="12.627324203173153"><ele>393.6666666666667</ele><time>2026-04-19T17:20:12Z</time></trkpt><trkpt lat="43.185587499855394" lon="12.627576994919227"><ele>399.0</ele><time>2026-04-19T17:20:13Z</time></trkpt><trkpt lat="43.185702488093085" lon="12.627830165546785"><ele>399.33333333333337</ele><time>2026-04-19T17:20:14Z</time></trkpt><trkpt lat="43.18581388760959" lon="12.628087529135978"><ele>399.6666666666667</ele><time>2026-04-19T17:20:15Z</time></trkpt><trkpt lat="43.18592444342903" lon="12.628345829501999"><ele>400.0</ele><time>2026-04-19T17:20:16Z</time></trkpt><trkpt lat="43.186030803636946" lon="12.628606278919902"><ele>404.0</ele><time>2026-04-19T17:20:17Z</time></trkpt><trkpt lat="43.18613248679198" lon="12.628872132984469"><ele>408.0</ele><time>2026-04-19T17:20:18Z</time></trkpt><trkpt lat="43.186228382688405" lon="12.62914344619929"><ele>412.0</ele><time>2026-04-19T17:20:19Z</time></trkpt><trkpt lat="43.186314861147544" lon="12.629420150745673"><ele>408.0</ele><time>2026-04-19T17:20:20Z</time></trkpt><trkpt lat="43.186394682591185" lon="12.629705327307153"><ele>404.0</ele><time>2026-04-19T17:20:21Z</time></trkpt><trkpt lat="43.1864692713928" lon="12.629989270127954"><ele>400.0</ele><time>2026-04-19T17:20:22Z</time></trkpt><trkpt lat="43.18653972083397" lon="12.63027699041597"><ele>391.6666666666667</ele><time>2026-04-19T17:20:23Z</time></trkpt><trkpt lat="43.1866113120455" lon="12.630565678466832"><ele>383.33333333333337</ele><time>2026-04-19T17:20:24Z</time></trkpt><trkpt lat="43.18668769434325" lon="12.630853951002141"><ele>375.0</ele><time>2026-04-19T17:20:25Z</time></trkpt><trkpt lat="43.18676542573469" lon="12.631139919046856"><ele>382.66666666666663</ele><time>2026-04-19T17:20:26Z</time></trkpt><trkpt lat="43.186843822868966" lon="12.63142236315493"><ele>390.3333333333333</ele><time>2026-04-19T17:20:27Z</time></trkpt><trkpt lat="43.18692232924557" lon="12.631703605917446"><ele>398.0</ele><time>2026-04-19T17:20:28Z</time></trkpt><trkpt lat="43.18699924831712" lon="12.63198578072788"><ele>404.66666666666663</ele><time>2026-04-19T17:20:29Z</time></trkpt><trkpt lat="43.18707924136804" lon="12.632273228396013"><ele>411.33333333333337</ele><time>2026-04-19T17:20:30Z</time></trkpt><trkpt lat="43.18715802141118" lon="12.632561816597844"><ele>418.0</ele><time>2026-04-19T17:20:31.001Z</time></trkpt><trkpt lat="43.187235635333174" lon="12.632852917181404"><ele>426.5</ele><time>2026-04-19T17:20:32.001Z</time></trkpt><trkpt lat="43.18731320058206" lon="12.633144992766725"><ele>435.0</ele><time>2026-04-19T17:20:33.001Z</time></trkpt><trkpt lat="43.18738314808961" lon="12.633436920956603"><ele>442.0</ele><time>2026-04-19T17:20:34.001Z</time></trkpt><trkpt lat="43.18744362737773" lon="12.633756331092203"><ele>449.0</ele><time>2026-04-19T17:20:35.068Z</time></trkpt><trkpt lat="43.187510268871314" lon="12.634051398220626"><ele>421.0</ele><time>2026-04-19T17:20:36.065Z</time></trkpt><trkpt lat="43.19186937125627" lon="12.64064321896038"><ele>421.0</ele><time>2026-04-19T17:21:02.001Z</time></trkpt><trkpt lat="43.19190399177603" lon="12.640904811947483"><ele>421.0</ele><time>2026-04-19T17:21:03.001Z</time></trkpt><trkpt lat="43.192008836002415" lon="12.6412086102033"><ele>421.0</ele><time>2026-04-19T17:21:04.001Z</time></trkpt><trkpt lat="43.19212287934501" lon="12.641488942843607"><ele>426.0</ele><time>2026-04-19T17:21:05.001Z</time></trkpt><trkpt lat="43.19222609386852" lon="12.641781007524283"><ele>431.0</ele><time>2026-04-19T17:21:06.001Z</time></trkpt><trkpt lat="43.19232066557563" lon="12.642069418266722"><ele>424.0</ele><time>2026-04-19T17:21:07.001Z</time></trkpt><trkpt lat="43.19241297022662" lon="12.642360784573503"><ele>417.0</ele><time>2026-04-19T17:21:08.001Z</time></trkpt><trkpt lat="43.19250387325848" lon="12.642653871595412"><ele>418.5</ele><time>2026-04-19T17:21:09.001Z</time></trkpt><trkpt lat="43.19259519921491" lon="12.642947629259131"><ele>420.0</ele><time>2026-04-19T17:21:10.001Z</time></trkpt><trkpt lat="43.19268375228685" lon="12.643238343242476"><ele>420.0</ele><time>2026-04-19T17:21:11.001Z</time></trkpt><trkpt lat="43.192774307484804" lon="12.643533767886431"><ele>420.0</ele><time>2026-04-19T17:21:12.001Z</time></trkpt><trkpt lat="43.19287825844873" lon="12.643821648814823"><ele>422.5</ele><time>2026-04-19T17:21:13.001Z</time></trkpt><trkpt lat="43.192966425349375" lon="12.644108738783489"><ele>425.0</ele><time>2026-04-19T17:21:14.001Z</time></trkpt><trkpt lat="43.1930590936939" lon="12.644398084788726"><ele>427.3333333333333</ele><time>2026-04-19T17:21:15.001Z</time></trkpt><trkpt lat="43.19314877948693" lon="12.644678118127903"><ele>429.66666666666663</ele><time>2026-04-19T17:21:16.001Z</time></trkpt><trkpt lat="43.19323880630656" lon="12.644961511412609"><ele>432.0</ele><time>2026-04-19T17:21:17.001Z</time></trkpt><trkpt lat="43.19332874703987" lon="12.645245083161734"><ele>444.0</ele><time>2026-04-19T17:21:18.001Z</time></trkpt><trkpt lat="43.193424715575375" lon="12.645546906652989"><ele>456.0</ele><time>2026-04-19T17:21:19.065Z</time></trkpt><trkpt lat="43.19360452166155" lon="12.646111258682941"><ele>456.5</ele><time>2026-04-19T17:21:21.06Z</time></trkpt><trkpt lat="43.193695209767" lon="12.646394883063005"><ele>457.0</ele><time>2026-04-19T17:21:22.062Z</time></trkpt><trkpt lat="43.19378514888612" lon="12.646676165025584"><ele>457.0</ele><time>2026-04-19T17:21:23.056Z</time></trkpt><trkpt lat="43.19387525661699" lon="12.646957974297528"><ele>457.0</ele><time>2026-04-19T17:21:24.046Z</time></trkpt><trkpt lat="43.19469901957245" lon="12.649484275998413"><ele>511.0</ele><time>2026-04-19T17:21:27.731Z</time></trkpt><trkpt lat="43.19495107155718" lon="12.650274356148948"><ele>523.0</ele><time>2026-04-19T17:21:28.732Z</time></trkpt><trkpt lat="43.195204341691294" lon="12.651062504411525"><ele>528.0</ele><time>2026-04-19T17:21:29.732Z</time></trkpt><trkpt lat="43.19545645971655" lon="12.651850113895675"><ele>508.0</ele><time>2026-04-19T17:21:30.73Z</time></trkpt><trkpt lat="43.19570934381303" lon="12.652640556080781"><ele>520.0</ele><time>2026-04-19T17:21:31.732Z</time></trkpt><trkpt lat="43.19596167783045" lon="12.65342927887861"><ele>520.0</ele><time>2026-04-19T17:21:32.731Z</time></trkpt><trkpt lat="43.19621422617376" lon="12.654218671596906"><ele>431.0</ele><time>2026-04-19T17:21:33.732Z</time></trkpt><trkpt lat="43.1994532443622" lon="12.659681840007993"><ele>431.0</ele><time>2026-04-19T17:22:09.001Z</time></trkpt><trkpt lat="43.19967154800057" lon="12.65987081764134"><ele>431.0</ele><time>2026-04-19T17:22:10.001Z</time></trkpt><trkpt lat="43.199883330330124" lon="12.66001810930845"><ele>426.0</ele><time>2026-04-19T17:22:11.001Z</time></trkpt><trkpt lat="43.20010900808102" lon="12.660171638637284"><ele>421.0</ele><time>2026-04-19T17:22:12.001Z</time></trkpt><trkpt lat="43.2003491004679" lon="12.66032222320073"><ele>421.0</ele><time>2026-04-19T17:22:13.001Z</time></trkpt><trkpt lat="43.200560194730926" lon="12.66045256094148"><ele>421.0</ele><time>2026-04-19T17:22:14.001Z</time></trkpt><trkpt lat="43.200783391766414" lon="12.660595544499996"><ele>416.5</ele><time>2026-04-19T17:22:15Z</time></trkpt><trkpt lat="43.20101115480543" lon="12.660737367053775"><ele>412.0</ele><time>2026-04-19T17:22:16Z</time></trkpt><trkpt lat="43.201234843155476" lon="12.660874810116198"><ele>412.0</ele><time>2026-04-19T17:22:17Z</time></trkpt><trkpt lat="43.20146393971603" lon="12.661017728864795"><ele>412.0</ele><time>2026-04-19T17:22:18Z</time></trkpt><trkpt lat="43.20169137283721" lon="12.661161200549223"><ele>414.0</ele><time>2026-04-19T17:22:19Z</time></trkpt><trkpt lat="43.20191936812006" lon="12.661311896182793"><ele>416.0</ele><time>2026-04-19T17:22:20Z</time></trkpt><trkpt lat="43.20214423439717" lon="12.661461258092082"><ele>409.5</ele><time>2026-04-19T17:22:21Z</time></trkpt><trkpt lat="43.202368979374654" lon="12.661617085852905"><ele>403.0</ele><time>2026-04-19T17:22:22Z</time></trkpt><trkpt lat="43.202595369096905" lon="12.66177360143045"><ele>403.0</ele><time>2026-04-19T17:22:23Z</time></trkpt><trkpt lat="43.20282099590651" lon="12.661928913095284"><ele>403.0</ele><time>2026-04-19T17:22:24Z</time></trkpt><trkpt lat="43.203051543425936" lon="12.662086232960304"><ele>399.0</ele><time>2026-04-19T17:22:25Z</time></trkpt><trkpt lat="43.20327768821538" lon="12.662238694371911"><ele>395.0</ele><time>2026-04-19T17:22:26Z</time></trkpt><trkpt lat="43.203509125021725" lon="12.662395118717342"><ele>395.0</ele><time>2026-04-19T17:22:27Z</time></trkpt><trkpt lat="43.203734361705706" lon="12.662548632243105"><ele>395.0</ele><time>2026-04-19T17:22:28Z</time></trkpt><trkpt lat="43.20396133688719" lon="12.662704496288217"><ele>394.5</ele><time>2026-04-19T17:22:29Z</time></trkpt><trkpt lat="43.20418858957011" lon="12.662861382186806"><ele>394.0</ele><time>2026-04-19T17:22:30Z</time></trkpt><trkpt lat="43.20441611515313" lon="12.663015923287373"><ele>394.0</ele><time>2026-04-19T17:22:31Z</time></trkpt><trkpt lat="43.204643291741746" lon="12.663168046324625"><ele>394.0</ele><time>2026-04-19T17:22:32Z</time></trkpt><trkpt lat="43.204872278094015" lon="12.663321908316949"><ele>391.5</ele><time>2026-04-19T17:22:33Z</time></trkpt><trkpt lat="43.205098900729645" lon="12.663473441582575"><ele>389.0</ele><time>2026-04-19T17:22:34Z</time></trkpt><trkpt lat="43.20532607969705" lon="12.663625510417816"><ele>389.5</ele><time>2026-04-19T17:22:35Z</time></trkpt><trkpt lat="43.20555262045047" lon="12.66378241501649"><ele>390.0</ele><time>2026-04-19T17:22:36Z</time></trkpt><trkpt lat="43.205777671566565" lon="12.66393705012804"><ele>390.0</ele><time>2026-04-19T17:22:37Z</time></trkpt><trkpt lat="43.20600676757797" lon="12.664099751433428"><ele>390.0</ele><time>2026-04-19T17:22:38Z</time></trkpt><trkpt lat="43.20623261358232" lon="12.664248018941986"><ele>390.0</ele><time>2026-04-19T17:22:39Z</time></trkpt><trkpt lat="43.206459853690696" lon="12.664407084618036"><ele>390.0</ele><time>2026-04-19T17:22:40Z</time></trkpt><trkpt lat="43.20668859057416" lon="12.664564795701912"><ele>389.0</ele><time>2026-04-19T17:22:41Z</time></trkpt><trkpt lat="43.20691830933379" lon="12.664726369559022"><ele>388.0</ele><time>2026-04-19T17:22:42Z</time></trkpt><trkpt lat="43.20714562628461" lon="12.66488316626839"><ele>389.5</ele><time>2026-04-19T17:22:43Z</time></trkpt><trkpt lat="43.20737724111789" lon="12.665042093841796"><ele>391.0</ele><time>2026-04-19T17:22:44Z</time></trkpt><trkpt lat="43.20760956358814" lon="12.665197505298469"><ele>394.0</ele><time>2026-04-19T17:22:45Z</time></trkpt><trkpt lat="43.207841655918884" lon="12.665354250989054"><ele>397.0</ele><time>2026-04-19T17:22:46Z</time></trkpt><trkpt lat="43.20807662214434" lon="12.665515017671629"><ele>398.5</ele><time>2026-04-19T17:22:47Z</time></trkpt><trkpt lat="43.20831196824408" lon="12.665673287116345"><ele>400.0</ele><time>2026-04-19T17:22:48Z</time></trkpt><trkpt lat="43.20854548404229" lon="12.665830916301633"><ele>400.0</ele><time>2026-04-19T17:22:49Z</time></trkpt><trkpt lat="43.20877928972781" lon="12.665988535075765"><ele>400.0</ele><time>2026-04-19T17:22:50Z</time></trkpt><trkpt lat="43.20901441790978" lon="12.666147505064313"><ele>397.5</ele><time>2026-04-19T17:22:51Z</time></trkpt><trkpt lat="43.20925052858534" lon="12.666305373655582"><ele>395.0</ele><time>2026-04-19T17:22:52Z</time></trkpt><trkpt lat="43.20948598856308" lon="12.666465064470852"><ele>395.0</ele><time>2026-04-19T17:22:53Z</time></trkpt><trkpt lat="43.2097235194341" lon="12.666627711717226"><ele>395.0</ele><time>2026-04-19T17:22:54Z</time></trkpt><trkpt lat="43.20995937088004" lon="12.666786541023477"><ele>393.5</ele><time>2026-04-19T17:22:55Z</time></trkpt><trkpt lat="43.21019349642564" lon="12.666948269221203"><ele>392.0</ele><time>2026-04-19T17:22:56Z</time></trkpt><trkpt lat="43.21042907267477" lon="12.66711016096294"><ele>386.0</ele><time>2026-04-19T17:22:57Z</time></trkpt><trkpt lat="43.210663726378904" lon="12.667274042013226"><ele>380.0</ele><time>2026-04-19T17:22:58Z</time></trkpt><trkpt lat="43.21090112316155" lon="12.667435482974176"><ele>380.0</ele><time>2026-04-19T17:22:59Z</time></trkpt><trkpt lat="43.21113970187878" lon="12.667597116651724"><ele>380.0</ele><time>2026-04-19T17:23:00Z</time></trkpt><trkpt lat="43.21137857206031" lon="12.667755668269038"><ele>374.5</ele><time>2026-04-19T17:23:01Z</time></trkpt><trkpt lat="43.21162215780799" lon="12.667918407054657"><ele>369.0</ele><time>2026-04-19T17:23:02Z</time></trkpt><trkpt lat="43.21186337640308" lon="12.668081547703466"><ele>369.0</ele><time>2026-04-19T17:23:03Z</time></trkpt><trkpt lat="43.21210514953122" lon="12.668247875180404"><ele>369.0</ele><time>2026-04-19T17:23:04Z</time></trkpt><trkpt lat="43.21234917714863" lon="12.668405281422727"><ele>368.0</ele><time>2026-04-19T17:23:05Z</time></trkpt><trkpt lat="43.21259668873586" lon="12.668554717869405"><ele>367.0</ele><time>2026-04-19T17:23:06Z</time></trkpt><trkpt lat="43.212848279489215" lon="12.668692720698257"><ele>369.0</ele><time>2026-04-19T17:23:07Z</time></trkpt><trkpt lat="43.21310939641032" lon="12.668818016396994"><ele>371.0</ele><time>2026-04-19T17:23:08Z</time></trkpt><trkpt lat="43.21336086925605" lon="12.66893874153422"><ele>371.0</ele><time>2026-04-19T17:23:09Z</time></trkpt><trkpt lat="43.21362085971118" lon="12.669044179552168"><ele>371.0</ele><time>2026-04-19T17:23:10Z</time></trkpt><trkpt lat="43.21387851057855" lon="12.669123991368545"><ele>369.0</ele><time>2026-04-19T17:23:11Z</time></trkpt><trkpt lat="43.21413735922162" lon="12.669185173387712"><ele>367.0</ele><time>2026-04-19T17:23:12Z</time></trkpt><trkpt lat="43.21439819337186" lon="12.669234158077414"><ele>367.0</ele><time>2026-04-19T17:23:13Z</time></trkpt><trkpt lat="43.21465965434149" lon="12.66926559770754"><ele>367.0</ele><time>2026-04-19T17:23:14Z</time></trkpt><trkpt lat="43.21491709493637" lon="12.669282123824773"><ele>365.5</ele><time>2026-04-19T17:23:15Z</time></trkpt><trkpt lat="43.215175271956085" lon="12.669281196610495"><ele>364.0</ele><time>2026-04-19T17:23:16Z</time></trkpt><trkpt lat="43.215431165865496" lon="12.669262348614225"><ele>362.5</ele><time>2026-04-19T17:23:17Z</time></trkpt><trkpt lat="43.21568417839842" lon="12.669231158186594"><ele>361.0</ele><time>2026-04-19T17:23:18Z</time></trkpt><trkpt lat="43.21592661562273" lon="12.669173525870228"><ele>361.0</ele><time>2026-04-19T17:23:19Z</time></trkpt><trkpt lat="43.21618760153169" lon="12.669124067338402"><ele>361.0</ele><time>2026-04-19T17:23:20Z</time></trkpt><trkpt lat="43.21643381300825" lon="12.669051022208414"><ele>360.5</ele><time>2026-04-19T17:23:21.001Z</time></trkpt><trkpt lat="43.216678663226816" lon="12.668967587914763"><ele>360.0</ele><time>2026-04-19T17:23:22.001Z</time></trkpt><trkpt lat="43.21692008447671" lon="12.668865637066325"><ele>360.0</ele><time>2026-04-19T17:23:23.001Z</time></trkpt><trkpt lat="43.21715933623655" lon="12.66874843633584"><ele>360.0</ele><time>2026-04-19T17:23:24.001Z</time></trkpt><trkpt lat="43.21739828398916" lon="12.668621498158195"><ele>358.5</ele><time>2026-04-19T17:23:25.001Z</time></trkpt><trkpt lat="43.217626076595735" lon="12.668484488238082"><ele>357.0</ele><time>2026-04-19T17:23:26.001Z</time></trkpt><trkpt lat="43.21785182817578" lon="12.668334927423253"><ele>357.0</ele><time>2026-04-19T17:23:27.001Z</time></trkpt><trkpt lat="43.21806883364376" lon="12.668169906994855"><ele>357.0</ele><time>2026-04-19T17:23:28.001Z</time></trkpt><trkpt lat="43.218281270817684" lon="12.668002274550217"><ele>356.5</ele><time>2026-04-19T17:23:29.001Z</time></trkpt><trkpt lat="43.21848065905266" lon="12.667805971274603"><ele>356.0</ele><time>2026-04-19T17:23:30.001Z</time></trkpt><trkpt lat="43.21868823893828" lon="12.66761448979217"><ele>355.0</ele><time>2026-04-19T17:23:31.001Z</time></trkpt><trkpt lat="43.21890796008691" lon="12.667417788416786"><ele>354.0</ele><time>2026-04-19T17:23:32.001Z</time></trkpt><trkpt lat="43.21909256301977" lon="12.667226306924894"><ele>353.5</ele><time>2026-04-19T17:23:33.001Z</time></trkpt><trkpt lat="43.21928603312687" lon="12.667022897512036"><ele>353.0</ele><time>2026-04-19T17:23:34.001Z</time></trkpt><trkpt lat="43.219473628188055" lon="12.666818592249777"><ele>352.5</ele><time>2026-04-19T17:23:35.001Z</time></trkpt><trkpt lat="43.21966860350277" lon="12.666615091674625"><ele>352.0</ele><time>2026-04-19T17:23:36.001Z</time></trkpt><trkpt lat="43.219861451422815" lon="12.66641205085862"><ele>352.0</ele><time>2026-04-19T17:23:37.001Z</time></trkpt><trkpt lat="43.2200535480709" lon="12.666211190691259"><ele>352.0</ele><time>2026-04-19T17:23:38.001Z</time></trkpt><trkpt lat="43.22024556762234" lon="12.666011752673109"><ele>352.5</ele><time>2026-04-19T17:23:39.001Z</time></trkpt><trkpt lat="43.220438820816085" lon="12.665812188247001"><ele>353.0</ele><time>2026-04-19T17:23:40.001Z</time></trkpt><trkpt lat="43.22062236117045" lon="12.665590945446535"><ele>352.5</ele><time>2026-04-19T17:23:41.001Z</time></trkpt><trkpt lat="43.220819332068416" lon="12.665403054958253"><ele>352.0</ele><time>2026-04-19T17:23:42.001Z</time></trkpt><trkpt lat="43.221009984205814" lon="12.665203428931022"><ele>353.0</ele><time>2026-04-19T17:23:43.001Z</time></trkpt><trkpt lat="43.221204847689016" lon="12.664999007594764"><ele>354.0</ele><time>2026-04-19T17:23:44.001Z</time></trkpt><trkpt lat="43.22139820656043" lon="12.664798132673992"><ele>354.0</ele><time>2026-04-19T17:23:45.001Z</time></trkpt><trkpt lat="43.2215920046012" lon="12.664595970113494"><ele>354.0</ele><time>2026-04-19T17:23:46.001Z</time></trkpt><trkpt lat="43.22178696765854" lon="12.66439060626868"><ele>354.0</ele><time>2026-04-19T17:23:47.001Z</time></trkpt><trkpt lat="43.221980081580476" lon="12.664181535203955"><ele>354.0</ele><time>2026-04-19T17:23:48.001Z</time></trkpt><trkpt lat="43.22217304298306" lon="12.663970157801085"><ele>353.0</ele><time>2026-04-19T17:23:49.001Z</time></trkpt><trkpt lat="43.22237130596508" lon="12.66375743804584"><ele>352.0</ele><time>2026-04-19T17:23:50.001Z</time></trkpt><trkpt lat="43.22256961975278" lon="12.663548209817506"><ele>352.0</ele><time>2026-04-19T17:23:51.001Z</time></trkpt><trkpt lat="43.2227670837127" lon="12.663340916602731"><ele>352.0</ele><time>2026-04-19T17:23:52.001Z</time></trkpt><trkpt lat="43.222965872977746" lon="12.663133696650794"><ele>351.5</ele><time>2026-04-19T17:23:53.001Z</time></trkpt><trkpt lat="43.22316700176077" lon="12.662917666443263"><ele>351.0</ele><time>2026-04-19T17:23:54.001Z</time></trkpt><trkpt lat="43.223363649704126" lon="12.662718948979425"><ele>351.0</ele><time>2026-04-19T17:23:55.001Z</time></trkpt><trkpt lat="43.22356585255475" lon="12.662514793799609"><ele>351.0</ele><time>2026-04-19T17:23:56.001Z</time></trkpt><trkpt lat="43.22376987937961" lon="12.662313814004037"><ele>351.0</ele><time>2026-04-19T17:23:57.001Z</time></trkpt><trkpt lat="43.22397738658663" lon="12.662119950490617"><ele>351.0</ele><time>2026-04-19T17:23:58.001Z</time></trkpt><trkpt lat="43.22418846483536" lon="12.661933480018329"><ele>350.5</ele><time>2026-04-19T17:23:59.001Z</time></trkpt><trkpt lat="43.22440119423868" lon="12.661755497669745"><ele>350.0</ele><time>2026-04-19T17:24:00.001Z</time></trkpt><trkpt lat="43.22461895682843" lon="12.661586400909703"><ele>351.0</ele><time>2026-04-19T17:24:01.001Z</time></trkpt><trkpt lat="43.22484456085377" lon="12.66143220058475"><ele>352.0</ele><time>2026-04-19T17:24:02.001Z</time></trkpt><trkpt lat="43.225072263259214" lon="12.66128425061349"><ele>352.0</ele><time>2026-04-19T17:24:03.001Z</time></trkpt><trkpt lat="43.225300581983845" lon="12.661144383236559"><ele>352.0</ele><time>2026-04-19T17:24:04.001Z</time></trkpt><trkpt lat="43.22553425886254" lon="12.661015326539621"><ele>351.5</ele><time>2026-04-19T17:24:05.001Z</time></trkpt><trkpt lat="43.22577024422271" lon="12.660899094751525"><ele>351.0</ele><time>2026-04-19T17:24:06.001Z</time></trkpt><trkpt lat="43.22601141689394" lon="12.66079709625753"><ele>351.0</ele><time>2026-04-19T17:24:07.001Z</time></trkpt><trkpt lat="43.2262510512688" lon="12.660701270181164"><ele>351.0</ele><time>2026-04-19T17:24:08.001Z</time></trkpt><trkpt lat="43.22649054269404" lon="12.660605445876062"><ele>351.5</ele><time>2026-04-19T17:24:09.001Z</time></trkpt><trkpt lat="43.226730996993325" lon="12.660513391927724"><ele>352.0</ele><time>2026-04-19T17:24:10.001Z</time></trkpt><trkpt lat="43.226972019830896" lon="12.660423916040271"><ele>352.0</ele><time>2026-04-19T17:24:11.001Z</time></trkpt><trkpt lat="43.22721256831442" lon="12.660330732320492"><ele>352.0</ele><time>2026-04-19T17:24:12.001Z</time></trkpt><trkpt lat="43.22745119690751" lon="12.660233998606275"><ele>350.0</ele><time>2026-04-19T17:24:13.001Z</time></trkpt><trkpt lat="43.22769199119226" lon="12.660139388722143"><ele>348.0</ele><time>2026-04-19T17:24:14.001Z</time></trkpt><trkpt lat="43.22793116007522" lon="12.660044686278642"><ele>351.5</ele><time>2026-04-19T17:24:15.001Z</time></trkpt><trkpt lat="43.22816741185655" lon="12.659948305685633"><ele>355.0</ele><time>2026-04-19T17:24:16.001Z</time></trkpt><trkpt lat="43.228406350784425" lon="12.6598553637918"><ele>355.0</ele><time>2026-04-19T17:24:17.001Z</time></trkpt><trkpt lat="43.22864550273228" lon="12.659762998251544"><ele>355.0</ele><time>2026-04-19T17:24:18.001Z</time></trkpt><trkpt lat="43.22888783200251" lon="12.659669766496231"><ele>355.5</ele><time>2026-04-19T17:24:19.001Z</time></trkpt><trkpt lat="43.229129336478266" lon="12.659575145065833"><ele>356.0</ele><time>2026-04-19T17:24:20Z</time></trkpt><trkpt lat="43.22936925885419" lon="12.659471702688405"><ele>351.0</ele><time>2026-04-19T17:24:21Z</time></trkpt><trkpt lat="43.229607164761816" lon="12.6593595587722"><ele>346.0</ele><time>2026-04-19T17:24:22Z</time></trkpt><trkpt lat="43.22984109132015" lon="12.65923539777449"><ele>346.0</ele><time>2026-04-19T17:24:23Z</time></trkpt><trkpt lat="43.23007223708193" lon="12.659099813264929"><ele>346.0</ele><time>2026-04-19T17:24:24Z</time></trkpt><trkpt lat="43.23029991425561" lon="12.658955657701576"><ele>346.0</ele><time>2026-04-19T17:24:25Z</time></trkpt><trkpt lat="43.23052243953577" lon="12.658801617917387"><ele>346.0</ele><time>2026-04-19T17:24:26Z</time></trkpt><trkpt lat="43.23074116266219" lon="12.65864173714366"><ele>344.0</ele><time>2026-04-19T17:24:27Z</time></trkpt><trkpt lat="43.230958632881965" lon="12.658476380211136"><ele>342.0</ele><time>2026-04-19T17:24:28Z</time></trkpt><trkpt lat="43.23117487574135" lon="12.658309145979796"><ele>342.0</ele><time>2026-04-19T17:24:29Z</time></trkpt><trkpt lat="43.23139005452364" lon="12.658140455065208"><ele>342.0</ele><time>2026-04-19T17:24:30Z</time></trkpt><trkpt lat="43.231606464763765" lon="12.657970485223203"><ele>343.0</ele><time>2026-04-19T17:24:31Z</time></trkpt><trkpt lat="43.231821911653384" lon="12.657796510191138"><ele>344.0</ele><time>2026-04-19T17:24:32Z</time></trkpt><trkpt lat="43.23204093518882" lon="12.65762206028225"><ele>344.0</ele><time>2026-04-19T17:24:33Z</time></trkpt><trkpt lat="43.232261792595125" lon="12.657448016883748"><ele>344.0</ele><time>2026-04-19T17:24:34Z</time></trkpt><trkpt lat="43.23248424097129" lon="12.657275372628517"><ele>345.5</ele><time>2026-04-19T17:24:35Z</time></trkpt><trkpt lat="43.232706167179956" lon="12.657100788256786"><ele>347.0</ele><time>2026-04-19T17:24:36Z</time></trkpt><trkpt lat="43.23293125516365" lon="12.65692417066469"><ele>344.0</ele><time>2026-04-19T17:24:37Z</time></trkpt><trkpt lat="43.233152380196" lon="12.656747635952394"><ele>341.0</ele><time>2026-04-19T17:24:38Z</time></trkpt><trkpt lat="43.233376191026956" lon="12.656571678253032"><ele>341.0</ele><time>2026-04-19T17:24:39Z</time></trkpt><trkpt lat="43.233598196467085" lon="12.656394750953552"><ele>341.0</ele><time>2026-04-19T17:24:40Z</time></trkpt><trkpt lat="43.23382233003875" lon="12.656223140775435"><ele>338.5</ele><time>2026-04-19T17:24:41Z</time></trkpt><trkpt lat="43.234050007018574" lon="12.656057256348182"><ele>336.0</ele><time>2026-04-19T17:24:42Z</time></trkpt><trkpt lat="43.23428202062063" lon="12.655900086900843"><ele>336.0</ele><time>2026-04-19T17:24:43Z</time></trkpt><trkpt lat="43.23452086693824" lon="12.655763484401565"><ele>336.0</ele><time>2026-04-19T17:24:44Z</time></trkpt><trkpt lat="43.234769178343136" lon="12.655656092616471"><ele>336.0</ele><time>2026-04-19T17:24:45Z</time></trkpt><trkpt lat="43.23502343352277" lon="12.655575065617365"><ele>336.0</ele><time>2026-04-19T17:24:46Z</time></trkpt><trkpt lat="43.235282405896825" lon="12.655520064648627"><ele>336.0</ele><time>2026-04-19T17:24:47Z</time></trkpt><trkpt lat="43.235542129585795" lon="12.655490411906706"><ele>336.0</ele><time>2026-04-19T17:24:48Z</time></trkpt><trkpt lat="43.23580358185661" lon="12.655482608509107"><ele>337.0</ele><time>2026-04-19T17:24:49Z</time></trkpt><trkpt lat="43.2360637722786" lon="12.655500282212925"><ele>338.0</ele><time>2026-04-19T17:24:50Z</time></trkpt><trkpt lat="43.236322419407244" lon="12.655548157431657"><ele>337.5</ele><time>2026-04-19T17:24:51Z</time></trkpt><trkpt lat="43.23658013870519" lon="12.655624746183017"><ele>337.0</ele><time>2026-04-19T17:24:52Z</time></trkpt><trkpt lat="43.23683091942039" lon="12.655721791456982"><ele>337.0</ele><time>2026-04-19T17:24:53Z</time></trkpt><trkpt lat="43.23708138808509" lon="12.655834990885905"><ele>337.0</ele><time>2026-04-19T17:24:54Z</time></trkpt><trkpt lat="43.23732725574259" lon="12.655954848837672"><ele>336.5</ele><time>2026-04-19T17:24:55Z</time></trkpt><trkpt lat="43.23757322715897" lon="12.656073292086175"><ele>336.0</ele><time>2026-04-19T17:24:56Z</time></trkpt><trkpt lat="43.23782134119825" lon="12.656190245951155"><ele>337.0</ele><time>2026-04-19T17:24:57Z</time></trkpt><trkpt lat="43.23806937203342" lon="12.656304649702738"><ele>338.0</ele><time>2026-04-19T17:24:58Z</time></trkpt><trkpt lat="43.23831864162835" lon="12.656419039020594"><ele>338.0</ele><time>2026-04-19T17:24:59Z</time></trkpt><trkpt lat="43.23856672915199" lon="12.656538435768935"><ele>338.0</ele><time>2026-04-19T17:25:00Z</time></trkpt><trkpt lat="43.2388124394205" lon="12.65665844117578"><ele>336.5</ele><time>2026-04-19T17:25:01Z</time></trkpt><trkpt lat="43.23905962131483" lon="12.656778170648584"><ele>335.0</ele><time>2026-04-19T17:25:02Z</time></trkpt><trkpt lat="43.23930397324004" lon="12.656902180954138"><ele>337.0</ele><time>2026-04-19T17:25:03Z</time></trkpt><trkpt lat="43.23954346256278" lon="12.657047286180212"><ele>339.0</ele><time>2026-04-19T17:25:04Z</time></trkpt><trkpt lat="43.2397697885847" lon="12.657222598303626"><ele>337.5</ele><time>2026-04-19T17:25:05Z</time></trkpt><trkpt lat="43.239981587366366" lon="12.657429558537551"><ele>336.0</ele><time>2026-04-19T17:25:06Z</time></trkpt><trkpt lat="43.24018059338147" lon="12.657656531832263"><ele>338.5</ele><time>2026-04-19T17:25:07Z</time></trkpt><trkpt lat="43.24036999320029" lon="12.657897193052147"><ele>341.0</ele><time>2026-04-19T17:25:08Z</time></trkpt><trkpt lat="43.2405492244818" lon="12.65815522101182"><ele>340.5</ele><time>2026-04-19T17:25:09Z</time></trkpt><trkpt lat="43.24071508093497" lon="12.65842566720966"><ele>340.0</ele><time>2026-04-19T17:25:10Z</time></trkpt><trkpt lat="43.24086645124028" lon="12.65870716642179"><ele>340.0</ele><time>2026-04-19T17:25:11Z</time></trkpt><trkpt lat="43.24101566888642" lon="12.658996080806157"><ele>340.0</ele><time>2026-04-19T17:25:12Z</time></trkpt><trkpt lat="43.24116245483208" lon="12.659283398706068"><ele>342.5</ele><time>2026-04-19T17:25:13Z</time></trkpt><trkpt lat="43.24131122913305" lon="12.6595701829273"><ele>345.0</ele><time>2026-04-19T17:25:14Z</time></trkpt><trkpt lat="43.24146278796923" lon="12.65986052054152"><ele>346.0</ele><time>2026-04-19T17:25:15Z</time></trkpt><trkpt lat="43.24161666651431" lon="12.660150919367544"><ele>347.0</ele><time>2026-04-19T17:25:16Z</time></trkpt><trkpt lat="43.241770419653946" lon="12.660440914183136"><ele>347.0</ele><time>2026-04-19T17:25:17Z</time></trkpt><trkpt lat="43.24192611175276" lon="12.660731868883866"><ele>347.0</ele><time>2026-04-19T17:25:18Z</time></trkpt><trkpt lat="43.242079287744225" lon="12.661021005032785"><ele>347.5</ele><time>2026-04-19T17:25:19Z</time></trkpt><trkpt lat="43.242234259575746" lon="12.66131053480315"><ele>348.0</ele><time>2026-04-19T17:25:20Z</time></trkpt><trkpt lat="43.242389951550855" lon="12.661600532819094"><ele>348.0</ele><time>2026-04-19T17:25:21Z</time></trkpt><trkpt lat="43.24254553156173" lon="12.661888980975332"><ele>348.0</ele><time>2026-04-19T17:25:22Z</time></trkpt><trkpt lat="43.242701209017326" lon="12.662177624253024"><ele>351.5</ele><time>2026-04-19T17:25:23Z</time></trkpt><trkpt lat="43.242855790430234" lon="12.66246647028737"><ele>355.0</ele><time>2026-04-19T17:25:24Z</time></trkpt><trkpt lat="43.24301309308272" lon="12.662753111912176"><ele>352.5</ele><time>2026-04-19T17:25:25Z</time></trkpt><trkpt lat="43.24317190473235" lon="12.663039463126156"><ele>350.0</ele><time>2026-04-19T17:25:26Z</time></trkpt><trkpt lat="43.24333716653675" lon="12.663321293437685"><ele>350.0</ele><time>2026-04-19T17:25:27Z</time></trkpt><trkpt lat="43.24351106144807" lon="12.663592291981931"><ele>350.0</ele><time>2026-04-19T17:25:28Z</time></trkpt><trkpt lat="43.24370046481929" lon="12.663852817080626"><ele>350.0</ele><time>2026-04-19T17:25:29Z</time></trkpt><trkpt lat="43.24390027775338" lon="12.664096455920605"><ele>350.0</ele><time>2026-04-19T17:25:30Z</time></trkpt><trkpt lat="43.24411098242164" lon="12.664321881068437"><ele>355.5</ele><time>2026-04-19T17:25:31Z</time></trkpt><trkpt lat="43.24433318428582" lon="12.664528057921784"><ele>361.0</ele><time>2026-04-19T17:25:32Z</time></trkpt><trkpt lat="43.24456518979642" lon="12.664715237999369"><ele>357.5</ele><time>2026-04-19T17:25:33Z</time></trkpt><trkpt lat="43.24480066210775" lon="12.664895013121349"><ele>354.0</ele><time>2026-04-19T17:25:34Z</time></trkpt><trkpt lat="43.24503502243909" lon="12.665077041192893"><ele>354.0</ele><time>2026-04-19T17:25:35Z</time></trkpt><trkpt lat="43.24526696209482" lon="12.665262199924474"><ele>354.0</ele><time>2026-04-19T17:25:36Z</time></trkpt><trkpt lat="43.24549861502258" lon="12.665445951552613"><ele>352.0</ele><time>2026-04-19T17:25:37Z</time></trkpt><trkpt lat="43.24573078859215" lon="12.66563016977142"><ele>350.0</ele><time>2026-04-19T17:25:38Z</time></trkpt><trkpt lat="43.24595535791" lon="12.665809542083728"><ele>350.0</ele><time>2026-04-19T17:25:39Z</time></trkpt><trkpt lat="43.24618068667622" lon="12.665990495269487"><ele>350.0</ele><time>2026-04-19T17:25:40Z</time></trkpt><trkpt lat="43.24640577967029" lon="12.66617110483532"><ele>353.0</ele><time>2026-04-19T17:25:41Z</time></trkpt><trkpt lat="43.24662770942413" lon="12.666348588156215"><ele>356.0</ele><time>2026-04-19T17:25:42Z</time></trkpt><trkpt lat="43.24685072922118" lon="12.666529087558622"><ele>356.0</ele><time>2026-04-19T17:25:43Z</time></trkpt><trkpt lat="43.24707470798853" lon="12.66670820494875"><ele>356.0</ele><time>2026-04-19T17:25:44Z</time></trkpt><trkpt lat="43.24729784930208" lon="12.666889002762911"><ele>361.5</ele><time>2026-04-19T17:25:45Z</time></trkpt><trkpt lat="43.247521902126415" lon="12.667070509776218"><ele>367.0</ele><time>2026-04-19T17:25:46.001Z</time></trkpt><trkpt lat="43.247749286302124" lon="12.667253147720864"><ele>367.0</ele><time>2026-04-19T17:25:47.001Z</time></trkpt><trkpt lat="43.247980040900345" lon="12.667436511108638"><ele>367.0</ele><time>2026-04-19T17:25:48.001Z</time></trkpt><trkpt lat="43.2482131569081" lon="12.6676197685272"><ele>369.5</ele><time>2026-04-19T17:25:49.001Z</time></trkpt><trkpt lat="43.24844401790874" lon="12.66780060928851"><ele>372.0</ele><time>2026-04-19T17:25:50.001Z</time></trkpt><trkpt lat="43.24868036240406" lon="12.667986832211792"><ele>372.0</ele><time>2026-04-19T17:25:51.001Z</time></trkpt><trkpt lat="43.2489162938878" lon="12.66817447392013"><ele>372.0</ele><time>2026-04-19T17:25:52.001Z</time></trkpt><trkpt lat="43.249152182792805" lon="12.668364563087152"><ele>369.5</ele><time>2026-04-19T17:25:53.001Z</time></trkpt><trkpt lat="43.249389834434545" lon="12.668555442285205"><ele>367.0</ele><time>2026-04-19T17:25:54.001Z</time></trkpt><trkpt lat="43.24962798723109" lon="12.668744496244507"><ele>367.5</ele><time>2026-04-19T17:25:55.001Z</time></trkpt><trkpt lat="43.24986539857152" lon="12.668936498486113"><ele>368.0</ele><time>2026-04-19T17:25:56.001Z</time></trkpt><trkpt lat="43.25010503454755" lon="12.669127759358666"><ele>368.0</ele><time>2026-04-19T17:25:57.001Z</time></trkpt><trkpt lat="43.250344695444255" lon="12.66932114355997"><ele>368.0</ele><time>2026-04-19T17:25:58.001Z</time></trkpt><trkpt lat="43.25058134565947" lon="12.669511428950507"><ele>368.5</ele><time>2026-04-19T17:25:59.001Z</time></trkpt><trkpt lat="43.25081775835724" lon="12.669699228690707"><ele>369.0</ele><time>2026-04-19T17:26:00.001Z</time></trkpt><trkpt lat="43.25105312053655" lon="12.669886483780695"><ele>369.0</ele><time>2026-04-19T17:26:01.001Z</time></trkpt><trkpt lat="43.251290341269126" lon="12.670072926166771"><ele>369.0</ele><time>2026-04-19T17:26:02.001Z</time></trkpt><trkpt lat="43.25152786732579" lon="12.67026283821311"><ele>367.0</ele><time>2026-04-19T17:26:03.001Z</time></trkpt><trkpt lat="43.251764975361155" lon="12.670455263000896"><ele>365.0</ele><time>2026-04-19T17:26:04.001Z</time></trkpt><trkpt lat="43.252007530581274" lon="12.670649943685373"><ele>365.0</ele><time>2026-04-19T17:26:05.001Z</time></trkpt><trkpt lat="43.25225056998078" lon="12.670846409037733"><ele>365.0</ele><time>2026-04-19T17:26:06.001Z</time></trkpt><trkpt lat="43.25249466441434" lon="12.671045391580453"><ele>366.5</ele><time>2026-04-19T17:26:07.001Z</time></trkpt><trkpt lat="43.25274241914659" lon="12.671244122610615"><ele>368.0</ele><time>2026-04-19T17:26:08.001Z</time></trkpt><trkpt lat="43.25299036394839" lon="12.671442159107174"><ele>361.0</ele><time>2026-04-19T17:26:09.001Z</time></trkpt><trkpt lat="43.25323531122793" lon="12.671636506453629"><ele>354.0</ele><time>2026-04-19T17:26:10.001Z</time></trkpt><trkpt lat="43.25348022719923" lon="12.671838651590067"><ele>352.0</ele><time>2026-04-19T17:26:11.001Z</time></trkpt><trkpt lat="43.25372270620195" lon="12.672043395891922"><ele>350.0</ele><time>2026-04-19T17:26:12.001Z</time></trkpt><trkpt lat="43.25395874937403" lon="12.67225195229378"><ele>350.0</ele><time>2026-04-19T17:26:13.001Z</time></trkpt><trkpt lat="43.254188154824924" lon="12.672472705823429"><ele>350.0</ele><time>2026-04-19T17:26:14.001Z</time></trkpt><trkpt lat="43.25440910745642" lon="12.672703383882496"><ele>350.0</ele><time>2026-04-19T17:26:15.001Z</time></trkpt><trkpt lat="43.25461958616222" lon="12.672938480468058"><ele>350.0</ele><time>2026-04-19T17:26:16.001Z</time></trkpt><trkpt lat="43.25482181033285" lon="12.673178916541413"><ele>350.0</ele><time>2026-04-19T17:26:17.001Z</time></trkpt><trkpt lat="43.25501573903565" lon="12.673419325306034"><ele>350.0</ele><time>2026-04-19T17:26:18.001Z</time></trkpt><trkpt lat="43.255204490431026" lon="12.673661921538349"><ele>351.5</ele><time>2026-04-19T17:26:19.001Z</time></trkpt><trkpt lat="43.25538772080929" lon="12.673913406252094"><ele>353.0</ele><time>2026-04-19T17:26:20.001Z</time></trkpt><trkpt lat="43.25556277761001" lon="12.674165437555862"><ele>353.5</ele><time>2026-04-19T17:26:21.001Z</time></trkpt><trkpt lat="43.25573295628389" lon="12.674421687114771"><ele>354.0</ele><time>2026-04-19T17:26:22.001Z</time></trkpt><trkpt lat="43.25589791450046" lon="12.674684036620905"><ele>354.0</ele><time>2026-04-19T17:26:23.001Z</time></trkpt><trkpt lat="43.25605712106234" lon="12.674951150277048"><ele>354.0</ele><time>2026-04-19T17:26:24.001Z</time></trkpt><trkpt lat="43.256214574542625" lon="12.675226646351542"><ele>354.5</ele><time>2026-04-19T17:26:25.001Z</time></trkpt><trkpt lat="43.256363367236816" lon="12.67550826745377"><ele>355.0</ele><time>2026-04-19T17:26:26Z</time></trkpt><trkpt lat="43.25650861681155" lon="12.675798522851466"><ele>355.5</ele><time>2026-04-19T17:26:27Z</time></trkpt><trkpt lat="43.25664911019806" lon="12.67609558954231"><ele>356.0</ele><time>2026-04-19T17:26:28Z</time></trkpt><trkpt lat="43.25678364075628" lon="12.676400582232311"><ele>356.0</ele><time>2026-04-19T17:26:29Z</time></trkpt><trkpt lat="43.256913187223184" lon="12.676712422881822"><ele>356.0</ele><time>2026-04-19T17:26:30Z</time></trkpt><trkpt lat="43.25703830835206" lon="12.677025059405757"><ele>360.5</ele><time>2026-04-19T17:26:31Z</time></trkpt><trkpt lat="43.25715709309419" lon="12.67734625866636"><ele>365.0</ele><time>2026-04-19T17:26:32Z</time></trkpt><trkpt lat="43.25727265505766" lon="12.677672533384518"><ele>360.0</ele><time>2026-04-19T17:26:33Z</time></trkpt><trkpt lat="43.25738977285885" lon="12.678001312116967"><ele>355.0</ele><time>2026-04-19T17:26:34Z</time></trkpt><trkpt lat="43.25750812344869" lon="12.678327780180135"><ele>357.0</ele><time>2026-04-19T17:26:35Z</time></trkpt><trkpt lat="43.25762743586497" lon="12.678651217866964"><ele>359.0</ele><time>2026-04-19T17:26:36Z</time></trkpt><trkpt lat="43.25774606899719" lon="12.678967243278443"><ele>359.0</ele><time>2026-04-19T17:26:37Z</time></trkpt><trkpt lat="43.257863740804176" lon="12.679276942950175"><ele>359.0</ele><time>2026-04-19T17:26:38Z</time></trkpt><trkpt lat="43.257979886169664" lon="12.679577223832574"><ele>358.0</ele><time>2026-04-19T17:26:39Z</time></trkpt><trkpt lat="43.2580907360692" lon="12.679868469024207"><ele>357.0</ele><time>2026-04-19T17:26:40Z</time></trkpt><trkpt lat="43.25820064014885" lon="12.680162251883068"><ele>357.0</ele><time>2026-04-19T17:26:41Z</time></trkpt><trkpt lat="43.258308233076264" lon="12.680450452210797"><ele>357.0</ele><time>2026-04-19T17:26:42Z</time></trkpt><trkpt lat="43.25841715547163" lon="12.680742413574116"><ele>357.0</ele><time>2026-04-19T17:26:43Z</time></trkpt><trkpt lat="43.258521272010604" lon="12.68102871670295"><ele>357.0</ele><time>2026-04-19T17:26:44Z</time></trkpt><trkpt lat="43.258628086904345" lon="12.681318105724971"><ele>357.5</ele><time>2026-04-19T17:26:45Z</time></trkpt><trkpt lat="43.25873566123506" lon="12.681614416612193"><ele>358.0</ele><time>2026-04-19T17:26:46Z</time></trkpt><trkpt lat="43.2588426692256" lon="12.681909791923887"><ele>355.0</ele><time>2026-04-19T17:26:47Z</time></trkpt><trkpt lat="43.258951295320685" lon="12.682212481773387"><ele>352.0</ele><time>2026-04-19T17:26:48Z</time></trkpt><trkpt lat="43.259063477379996" lon="12.682513780124546"><ele>353.0</ele><time>2026-04-19T17:26:49Z</time></trkpt><trkpt lat="43.259175786268884" lon="12.682818766871195"><ele>354.0</ele><time>2026-04-19T17:26:50Z</time></trkpt><trkpt lat="43.2592900435058" lon="12.683131399031714"><ele>354.0</ele><time>2026-04-19T17:26:51Z</time></trkpt><trkpt lat="43.25940610877379" lon="12.68344400843081"><ele>354.0</ele><time>2026-04-19T17:26:52Z</time></trkpt><trkpt lat="43.25952275295159" lon="12.683755727148414"><ele>355.5</ele><time>2026-04-19T17:26:53Z</time></trkpt><trkpt lat="43.25964194059388" lon="12.684073770085654"><ele>357.0</ele><time>2026-04-19T17:26:54Z</time></trkpt><trkpt lat="43.259761769171824" lon="12.684394566127953"><ele>354.0</ele><time>2026-04-19T17:26:55Z</time></trkpt><trkpt lat="43.259880820025536" lon="12.684717886288395"><ele>351.0</ele><time>2026-04-19T17:26:56Z</time></trkpt><trkpt lat="43.26000175677867" lon="12.685042328213946"><ele>354.0</ele><time>2026-04-19T17:26:57Z</time></trkpt><trkpt lat="43.26012420344104" lon="12.685368915459032"><ele>357.0</ele><time>2026-04-19T17:26:58Z</time></trkpt><trkpt lat="43.26024609334473" lon="12.685698720006174"><ele>357.0</ele><time>2026-04-19T17:26:59Z</time></trkpt><trkpt lat="43.260368579720094" lon="12.686031020424993"><ele>357.0</ele><time>2026-04-19T17:27:00Z</time></trkpt><trkpt lat="43.260491114177434" lon="12.686362727295691"><ele>358.0</ele><time>2026-04-19T17:27:01Z</time></trkpt><trkpt lat="43.26061406980285" lon="12.686698465439436"><ele>359.0</ele><time>2026-04-19T17:27:02Z</time></trkpt><trkpt lat="43.26073572559428" lon="12.687028046520352"><ele>359.0</ele><time>2026-04-19T17:27:03Z</time></trkpt><trkpt lat="43.26085841629406" lon="12.687361449031215"><ele>359.0</ele><time>2026-04-19T17:27:04Z</time></trkpt><trkpt lat="43.26098064162905" lon="12.687691681547605"><ele>364.0</ele><time>2026-04-19T17:27:05Z</time></trkpt><trkpt lat="43.261103780928295" lon="12.688025315474928"><ele>369.0</ele><time>2026-04-19T17:27:06Z</time></trkpt><trkpt lat="43.26122813168244" lon="12.688357899002739"><ele>362.0</ele><time>2026-04-19T17:27:07Z</time></trkpt><trkpt lat="43.26135101824275" lon="12.68869296887364"><ele>355.0</ele><time>2026-04-19T17:27:08Z</time></trkpt><trkpt lat="43.26147622997539" lon="12.689025935700355"><ele>355.0</ele><time>2026-04-19T17:27:09Z</time></trkpt><trkpt lat="43.26159880431254" lon="12.689360278678945"><ele>355.0</ele><time>2026-04-19T17:27:10Z</time></trkpt><trkpt lat="43.261722469197515" lon="12.689693712810106"><ele>357.5</ele><time>2026-04-19T17:27:11Z</time></trkpt><trkpt lat="43.261845659403676" lon="12.690019553030364"><ele>360.0</ele><time>2026-04-19T17:27:12Z</time></trkpt><trkpt lat="43.261966342566524" lon="12.69034104247472"><ele>360.5</ele><time>2026-04-19T17:27:13Z</time></trkpt><trkpt lat="43.26208618758472" lon="12.690657689676993"><ele>361.0</ele><time>2026-04-19T17:27:14Z</time></trkpt><trkpt lat="43.26220211490106" lon="12.690976296397645"><ele>358.0</ele><time>2026-04-19T17:27:15Z</time></trkpt><trkpt lat="43.262315281443094" lon="12.691290728037588"><ele>355.0</ele><time>2026-04-19T17:27:16Z</time></trkpt><trkpt lat="43.26242255274294" lon="12.691586711005334"><ele>355.0</ele><time>2026-04-19T17:27:17Z</time></trkpt><trkpt lat="43.26252267424508" lon="12.69186648264957"><ele>355.0</ele><time>2026-04-19T17:27:18Z</time></trkpt><trkpt lat="43.26262345691743" lon="12.69214625992085"><ele>355.5</ele><time>2026-04-19T17:27:19Z</time></trkpt><trkpt lat="43.26272937279064" lon="12.692423506755762"><ele>356.0</ele><time>2026-04-19T17:27:20Z</time></trkpt><trkpt lat="43.262838089598525" lon="12.692706700043795"><ele>363.0</ele><time>2026-04-19T17:27:21Z</time></trkpt><trkpt lat="43.262942410947126" lon="12.692989665717498"><ele>370.0</ele><time>2026-04-19T17:27:22Z</time></trkpt><trkpt lat="43.26305455108172" lon="12.693269622672473"><ele>366.0</ele><time>2026-04-19T17:27:23Z</time></trkpt><trkpt lat="43.26317615617591" lon="12.693543391712476"><ele>362.0</ele><time>2026-04-19T17:27:24Z</time></trkpt><trkpt lat="43.26330277504047" lon="12.693804112199729"><ele>362.0</ele><time>2026-04-19T17:27:25Z</time></trkpt><trkpt lat="43.26342535259741" lon="12.69404242571141"><ele>362.0</ele><time>2026-04-19T17:27:26Z</time></trkpt><trkpt lat="43.263544819875285" lon="12.694258808577562"><ele>362.0</ele><time>2026-04-19T17:27:27Z</time></trkpt><trkpt lat="43.263659782155585" lon="12.694459144954068"><ele>361.33333333333337</ele><time>2026-04-19T17:27:28Z</time></trkpt><trkpt lat="43.26377599000004" lon="12.694647644128644"><ele>360.6666666666667</ele><time>2026-04-19T17:27:29Z</time></trkpt><trkpt lat="43.26389737218194" lon="12.694833780646956"><ele>360.0</ele><time>2026-04-19T17:27:30Z</time></trkpt><trkpt lat="43.26402312890478" lon="12.695013105311268"><ele>360.0</ele><time>2026-04-19T17:27:31Z</time></trkpt><trkpt lat="43.264155539056325" lon="12.695188360748707"><ele>360.0</ele><time>2026-04-19T17:27:32Z</time></trkpt><trkpt lat="43.26428795198645" lon="12.695358142896913"><ele>360.0</ele><time>2026-04-19T17:27:33Z</time></trkpt><trkpt lat="43.26441296846416" lon="12.695512392381508"><ele>361.75</ele><time>2026-04-19T17:27:34Z</time></trkpt><trkpt lat="43.26452822058434" lon="12.695660099071342"><ele>363.5</ele><time>2026-04-19T17:27:35Z</time></trkpt><trkpt lat="43.26463531787027" lon="12.695798321706292"><ele>365.25</ele><time>2026-04-19T17:27:36Z</time></trkpt><trkpt lat="43.26473533474499" lon="12.695924166868247"><ele>367.0</ele><time>2026-04-19T17:27:37Z</time></trkpt><trkpt lat="43.26482594140624" lon="12.696031073720825"><ele>368.8</ele><time>2026-04-19T17:27:38Z</time></trkpt><trkpt lat="43.26490020281742" lon="12.696109253530384"><ele>370.6</ele><time>2026-04-19T17:27:39Z</time></trkpt><trkpt lat="43.26495986477982" lon="12.696164608034401"><ele>372.40000000000003</ele><time>2026-04-19T17:27:40Z</time></trkpt><trkpt lat="43.26503562129643" lon="12.696257037903521"><ele>374.20000000000005</ele><time>2026-04-19T17:27:42Z</time></trkpt><trkpt lat="43.265090570089576" lon="12.696339050749952"><ele>376.0</ele><time>2026-04-19T17:27:44Z</time></trkpt><trkpt lat="43.26519659173863" lon="12.696405262730941"><ele>376.0</ele><time>2026-04-19T17:27:46Z</time></trkpt><trkpt lat="43.26528208968847" lon="12.696435554266923"><ele>376.0</ele><time>2026-04-19T17:27:47Z</time></trkpt><trkpt lat="43.26537645847099" lon="12.696462269663012"><ele>376.0</ele><time>2026-04-19T17:27:48Z</time></trkpt><trkpt lat="43.26546254426042" lon="12.696493712040677"><ele>376.0</ele><time>2026-04-19T17:27:49Z</time></trkpt><trkpt lat="43.26552985359818" lon="12.696545874873774"><ele>376.0</ele><time>2026-04-19T17:27:50Z</time></trkpt><trkpt lat="43.26559539293146" lon="12.696595994103662"><ele>376.0</ele><time>2026-04-19T17:27:51Z</time></trkpt><trkpt lat="43.265658337421684" lon="12.696640848446961"><ele>376.6</ele><time>2026-04-19T17:27:52Z</time></trkpt><trkpt lat="43.26576876033394" lon="12.696709346554318"><ele>377.20000000000005</ele><time>2026-04-19T17:27:54Z</time></trkpt><trkpt lat="43.26588448177829" lon="12.69678462529935"><ele>377.79999999999995</ele><time>2026-04-19T17:27:56Z</time></trkpt><trkpt lat="43.26594023597232" lon="12.696865124803342"><ele>378.4</ele><time>2026-04-19T17:27:57Z</time></trkpt><trkpt lat="43.26598242258958" lon="12.69696453306418"><ele>379.0</ele><time>2026-04-19T17:27:58Z</time></trkpt><trkpt lat="43.266095703141694" lon="12.696876901178236"><ele>379.0</ele><time>2026-04-19T17:27:59Z</time></trkpt><trkpt lat="43.26609805353741" lon="12.69728220221966"><ele>379.0</ele><time>2026-04-19T17:28:01Z</time></trkpt><trkpt lat="43.26615890381761" lon="12.697378272493006"><ele>379.0</ele><time>2026-04-19T17:28:02Z</time></trkpt><trkpt lat="43.26623303489312" lon="12.697466311522582"><ele>379.0</ele><time>2026-04-19T17:28:03Z</time></trkpt><trkpt lat="43.26631422818032" lon="12.697554779753906"><ele>379.0</ele><time>2026-04-19T17:28:04Z</time></trkpt><trkpt lat="43.26639516538301" lon="12.69765690382414"><ele>379.0</ele><time>2026-04-19T17:28:05Z</time></trkpt><trkpt lat="43.2664705602841" lon="12.697757982439928"><ele>379.0</ele><time>2026-04-19T17:28:06.001Z</time></trkpt><trkpt lat="43.26653660139046" lon="12.697851759764314"><ele>379.0</ele><time>2026-04-19T17:28:07.001Z</time></trkpt><trkpt lat="43.26659603363046" lon="12.697942834381456"><ele>378.0</ele><time>2026-04-19T17:28:08.001Z</time></trkpt><trkpt lat="43.266649701319665" lon="12.698031239068946"><ele>377.0</ele><time>2026-04-19T17:28:09.001Z</time></trkpt><trkpt lat="43.26669926149518" lon="12.698112839809875"><ele>376.0</ele><time>2026-04-19T17:28:10.001Z</time></trkpt><trkpt lat="43.2667574931824" lon="12.69820100813064"><ele>375.0</ele><time>2026-04-19T17:28:11.001Z</time></trkpt><trkpt lat="43.26683313820908" lon="12.69830863283394"><ele>374.0</ele><time>2026-04-19T17:28:12.001Z</time></trkpt><trkpt lat="43.266930318329116" lon="12.698418264726296"><ele>374.0</ele><time>2026-04-19T17:28:13.001Z</time></trkpt><trkpt lat="43.26704626354699" lon="12.6985317053483"><ele>374.0</ele><time>2026-04-19T17:28:14.001Z</time></trkpt><trkpt lat="43.26716720196637" lon="12.698627054678782"><ele>374.0</ele><time>2026-04-19T17:28:15.001Z</time></trkpt><trkpt lat="43.26729685530317" lon="12.698704917234503"><ele>374.0</ele><time>2026-04-19T17:28:16.001Z</time></trkpt><trkpt lat="43.267443460724564" lon="12.698780587530383"><ele>372.0</ele><time>2026-04-19T17:28:17.001Z</time></trkpt><trkpt lat="43.26758128738491" lon="12.69886658138713"><ele>370.0</ele><time>2026-04-19T17:28:18.001Z</time></trkpt><trkpt lat="43.26771947879735" lon="12.698967838462943"><ele>368.0</ele><time>2026-04-19T17:28:19.001Z</time></trkpt><trkpt lat="43.267852316109014" lon="12.699088786434482"><ele>368.0</ele><time>2026-04-19T17:28:20.001Z</time></trkpt><trkpt lat="43.26797889502287" lon="12.699230413712328"><ele>368.0</ele><time>2026-04-19T17:28:21.001Z</time></trkpt><trkpt lat="43.26810051618338" lon="12.699387287284056"><ele>368.0</ele><time>2026-04-19T17:28:22.001Z</time></trkpt><trkpt lat="43.268229142542424" lon="12.6995583728218"><ele>367.33333333333337</ele><time>2026-04-19T17:28:23.001Z</time></trkpt><trkpt lat="43.26835932274508" lon="12.699734115869349"><ele>366.6666666666667</ele><time>2026-04-19T17:28:24.001Z</time></trkpt><trkpt lat="43.2684871820801" lon="12.699913195997635"><ele>366.0</ele><time>2026-04-19T17:28:25.001Z</time></trkpt><trkpt lat="43.26861927258107" lon="12.700095095501974"><ele>366.3333333333333</ele><time>2026-04-19T17:28:26.001Z</time></trkpt><trkpt lat="43.26874472204569" lon="12.700282525168099"><ele>366.66666666666663</ele><time>2026-04-19T17:28:27.001Z</time></trkpt><trkpt lat="43.26885856296935" lon="12.700490683568388"><ele>367.0</ele><time>2026-04-19T17:28:28.001Z</time></trkpt><trkpt lat="43.26895945900672" lon="12.700713437542746"><ele>367.0</ele><time>2026-04-19T17:28:29.001Z</time></trkpt><trkpt lat="43.26905093022219" lon="12.70094744677431"><ele>367.0</ele><time>2026-04-19T17:28:30.001Z</time></trkpt><trkpt lat="43.269126116198535" lon="12.701193160513538"><ele>367.0</ele><time>2026-04-19T17:28:31.001Z</time></trkpt><trkpt lat="43.269184834850705" lon="12.701451338728681"><ele>368.3333333333333</ele><time>2026-04-19T17:28:32Z</time></trkpt><trkpt lat="43.26922653296887" lon="12.701718344876195"><ele>369.6666666666667</ele><time>2026-04-19T17:28:33Z</time></trkpt><trkpt lat="43.26925787375721" lon="12.70197506480669"><ele>371.0</ele><time>2026-04-19T17:28:34Z</time></trkpt><trkpt lat="43.26927490189311" lon="12.702204422952178"><ele>372.6666666666667</ele><time>2026-04-19T17:28:35Z</time></trkpt><trkpt lat="43.269285961504984" lon="12.702416249578556"><ele>374.3333333333333</ele><time>2026-04-19T17:28:36Z</time></trkpt><trkpt lat="43.269302395357805" lon="12.702622341452136"><ele>376.0</ele><time>2026-04-19T17:28:37Z</time></trkpt><trkpt lat="43.26933470525838" lon="12.702815505491994"><ele>376.75</ele><time>2026-04-19T17:28:38Z</time></trkpt><trkpt lat="43.2693834777019" lon="12.702996791872575"><ele>377.5</ele><time>2026-04-19T17:28:39Z</time></trkpt><trkpt lat="43.26945322068871" lon="12.70316612700866"><ele>378.25</ele><time>2026-04-19T17:28:40Z</time></trkpt><trkpt lat="43.26953492442492" lon="12.703328438301629"><ele>379.0</ele><time>2026-04-19T17:28:41Z</time></trkpt><trkpt lat="43.26962956616408" lon="12.703495736002846"><ele>376.5</ele><time>2026-04-19T17:28:42Z</time></trkpt><trkpt lat="43.26970439992153" lon="12.70365527794869"><ele>374.0</ele><time>2026-04-19T17:28:43Z</time></trkpt><trkpt lat="43.26977042981941" lon="12.703817979986763"><ele>371.5</ele><time>2026-04-19T17:28:44Z</time></trkpt><trkpt lat="43.2698271093019" lon="12.703978395118526"><ele>369.0</ele><time>2026-04-19T17:28:45Z</time></trkpt><trkpt lat="43.269881640269396" lon="12.704139209069583"><ele>369.0</ele><time>2026-04-19T17:28:46Z</time></trkpt><trkpt lat="43.269934513031245" lon="12.704301803018378"><ele>369.0</ele><time>2026-04-19T17:28:47Z</time></trkpt><trkpt lat="43.269989782330775" lon="12.70448093667226"><ele>369.0</ele><time>2026-04-19T17:28:48Z</time></trkpt><trkpt lat="43.270044031881675" lon="12.704677651398994"><ele>369.0</ele><time>2026-04-19T17:28:49Z</time></trkpt><trkpt lat="43.27009945983093" lon="12.704885822739907"><ele>372.0</ele><time>2026-04-19T17:28:50Z</time></trkpt><trkpt lat="43.27016237378511" lon="12.705105665304478"><ele>375.0</ele><time>2026-04-19T17:28:51Z</time></trkpt><trkpt lat="43.270226581163904" lon="12.70533922611923"><ele>378.0</ele><time>2026-04-19T17:28:52Z</time></trkpt><trkpt lat="43.27028304042959" lon="12.705579249429574"><ele>381.33333333333337</ele><time>2026-04-19T17:28:53Z</time></trkpt><trkpt lat="43.27033432947101" lon="12.70582868742831"><ele>384.6666666666667</ele><time>2026-04-19T17:28:54Z</time></trkpt><trkpt lat="43.270447744204425" lon="12.706073255675397"><ele>388.0</ele><time>2026-04-19T17:28:55Z</time></trkpt><trkpt lat="43.27053237404602" lon="12.706330065825634"><ele>384.33333333333337</ele><time>2026-04-19T17:28:56Z</time></trkpt><trkpt lat="43.27062273028821" lon="12.70659606793935"><ele>380.6666666666667</ele><time>2026-04-19T17:28:57Z</time></trkpt><trkpt lat="43.27072205732939" lon="12.70686268804071"><ele>377.0</ele><time>2026-04-19T17:28:58Z</time></trkpt><trkpt lat="43.2708260549374" lon="12.707130304424036"><ele>377.0</ele><time>2026-04-19T17:28:59Z</time></trkpt><trkpt lat="43.27092786413667" lon="12.707400106169867"><ele>377.0</ele><time>2026-04-19T17:29:00Z</time></trkpt><trkpt lat="43.271024706793476" lon="12.70766862359786"><ele>377.0</ele><time>2026-04-19T17:29:01Z</time></trkpt><trkpt lat="43.271124210919524" lon="12.707932399075693"><ele>379.0</ele><time>2026-04-19T17:29:02Z</time></trkpt><trkpt lat="43.27122402736841" lon="12.708193103614104"><ele>381.0</ele><time>2026-04-19T17:29:03Z</time></trkpt><trkpt lat="43.27132941824679" lon="12.708448586604904"><ele>383.0</ele><time>2026-04-19T17:29:04Z</time></trkpt><trkpt lat="43.271453595441635" lon="12.708690474298935"><ele>383.0</ele><time>2026-04-19T17:29:05Z</time></trkpt><trkpt lat="43.27159178753314" lon="12.708910905540128"><ele>383.0</ele><time>2026-04-19T17:29:06Z</time></trkpt><trkpt lat="43.27173872754262" lon="12.709118934540927"><ele>383.0</ele><time>2026-04-19T17:29:07Z</time></trkpt><trkpt lat="43.27188747168135" lon="12.709317919770715"><ele>382.0</ele><time>2026-04-19T17:29:08Z</time></trkpt><trkpt lat="43.27204174659093" lon="12.709501654561445"><ele>381.0</ele><time>2026-04-19T17:29:09Z</time></trkpt><trkpt lat="43.27219807380135" lon="12.709679605401154"><ele>380.0</ele><time>2026-04-19T17:29:10Z</time></trkpt><trkpt lat="43.272355684103054" lon="12.709857050647084"><ele>380.0</ele><time>2026-04-19T17:29:11Z</time></trkpt><trkpt lat="43.27250964313549" lon="12.710032724354736"><ele>380.0</ele><time>2026-04-19T17:29:12Z</time></trkpt><trkpt lat="43.272650694333805" lon="12.710188094031297"><ele>380.0</ele><time>2026-04-19T17:29:13Z</time></trkpt><trkpt lat="43.272801099375044" lon="12.710331705137142"><ele>382.33333333333337</ele><time>2026-04-19T17:29:14Z</time></trkpt><trkpt lat="43.2729464773684" lon="12.710452845627882"><ele>384.6666666666667</ele><time>2026-04-19T17:29:15Z</time></trkpt><trkpt lat="43.27308894019325" lon="12.710554961557104"><ele>387.0</ele><time>2026-04-19T17:29:16Z</time></trkpt><trkpt lat="43.27322208982311" lon="12.710648373243316"><ele>387.0</ele><time>2026-04-19T17:29:17Z</time></trkpt><trkpt lat="43.27335801203675" lon="12.710738602559363"><ele>387.0</ele><time>2026-04-19T17:29:18Z</time></trkpt><trkpt lat="43.27348718826828" lon="12.710822059881504"><ele>387.0</ele><time>2026-04-19T17:29:19Z</time></trkpt><trkpt lat="43.27361218503414" lon="12.710904439512715"><ele>387.0</ele><time>2026-04-19T17:29:20Z</time></trkpt><trkpt lat="43.27372829162026" lon="12.710991263869893"><ele>387.0</ele><time>2026-04-19T17:29:21Z</time></trkpt><trkpt lat="43.27385944795822" lon="12.711069617573525"><ele>387.0</ele><time>2026-04-19T17:29:22Z</time></trkpt><trkpt lat="43.27396212503334" lon="12.711157963136047"><ele>387.0</ele><time>2026-04-19T17:29:23Z</time></trkpt><trkpt lat="43.274056909648124" lon="12.71125994965556"><ele>387.0</ele><time>2026-04-19T17:29:24Z</time></trkpt><trkpt lat="43.27413870669439" lon="12.711363913724934"><ele>388.75</ele><time>2026-04-19T17:29:25Z</time></trkpt><trkpt lat="43.274218478378785" lon="12.711462790239565"><ele>390.5</ele><time>2026-04-19T17:29:26Z</time></trkpt><trkpt lat="43.27430050630115" lon="12.711564487308856"><ele>392.25</ele><time>2026-04-19T17:29:27Z</time></trkpt><trkpt lat="43.2743906550602" lon="12.711669507250434"><ele>394.0</ele><time>2026-04-19T17:29:28Z</time></trkpt><trkpt lat="43.274483663719465" lon="12.71177795395302"><ele>394.0</ele><time>2026-04-19T17:29:29Z</time></trkpt><trkpt lat="43.27457972345844" lon="12.711887049088439"><ele>394.0</ele><time>2026-04-19T17:29:30Z</time></trkpt><trkpt lat="43.27468471433104" lon="12.711984601871652"><ele>394.0</ele><time>2026-04-19T17:29:31Z</time></trkpt><trkpt lat="43.27481046851824" lon="12.712053521602567"><ele>394.0</ele><time>2026-04-19T17:29:32Z</time></trkpt><trkpt lat="43.27494630350137" lon="12.712102545165191"><ele>393.5</ele><time>2026-04-19T17:29:33Z</time></trkpt><trkpt lat="43.27509236819319" lon="12.712125750885095"><ele>393.0</ele><time>2026-04-19T17:29:34Z</time></trkpt><trkpt lat="43.27523087627068" lon="12.712136854298398"><ele>392.5</ele><time>2026-04-19T17:29:35Z</time></trkpt><trkpt lat="43.275361971156975" lon="12.712134412521586"><ele>392.0</ele><time>2026-04-19T17:29:36Z</time></trkpt><trkpt lat="43.27548820299209" lon="12.712139758481818"><ele>389.75</ele><time>2026-04-19T17:29:37Z</time></trkpt><trkpt lat="43.2756138304695" lon="12.71214539523796"><ele>387.5</ele><time>2026-04-19T17:29:38Z</time></trkpt><trkpt lat="43.27574514144559" lon="12.712147597388665"><ele>385.25</ele><time>2026-04-19T17:29:39Z</time></trkpt><trkpt lat="43.27587448214009" lon="12.712155115454005"><ele>383.0</ele><time>2026-04-19T17:29:40Z</time></trkpt><trkpt lat="43.27600289957627" lon="12.712165709826566"><ele>383.0</ele><time>2026-04-19T17:29:41Z</time></trkpt><trkpt lat="43.276130074382024" lon="12.7121782002946"><ele>383.0</ele><time>2026-04-19T17:29:42Z</time></trkpt><trkpt lat="43.27626084919661" lon="12.712193344645144"><ele>383.0</ele><time>2026-04-19T17:29:43Z</time></trkpt><trkpt lat="43.2763972292479" lon="12.712206245351076"><ele>383.0</ele><time>2026-04-19T17:29:44Z</time></trkpt><trkpt lat="43.276526775679805" lon="12.712211189686876"><ele>381.25</ele><time>2026-04-19T17:29:45Z</time></trkpt><trkpt lat="43.27665822968728" lon="12.71221244129016"><ele>379.5</ele><time>2026-04-19T17:29:46Z</time></trkpt><trkpt lat="43.27678697228098" lon="12.712210291726961"><ele>377.75</ele><time>2026-04-19T17:29:47Z</time></trkpt><trkpt lat="43.276913701476936" lon="12.712211115301104"><ele>376.0</ele><time>2026-04-19T17:29:48Z</time></trkpt><trkpt lat="43.277039270425256" lon="12.712219854513307"><ele>376.0</ele><time>2026-04-19T17:29:49Z</time></trkpt><trkpt lat="43.27715637297648" lon="12.712252839919287"><ele>376.0</ele><time>2026-04-19T17:29:50Z</time></trkpt><trkpt lat="43.27725343308627" lon="12.712358308508772"><ele>376.0</ele><time>2026-04-19T17:29:51Z</time></trkpt><trkpt lat="43.27734839343786" lon="12.712478045358228"><ele>376.0</ele><time>2026-04-19T17:29:52Z</time></trkpt><trkpt lat="43.27744135928531" lon="12.712619175004285"><ele>375.66666666666663</ele><time>2026-04-19T17:29:53Z</time></trkpt><trkpt lat="43.27750557112453" lon="12.712811166208715"><ele>375.3333333333333</ele><time>2026-04-19T17:29:54Z</time></trkpt><trkpt lat="43.277557910569804" lon="12.713011229047757"><ele>375.0</ele><time>2026-04-19T17:29:55Z</time></trkpt><trkpt lat="43.277607466765495" lon="12.713217283789053"><ele>375.0</ele><time>2026-04-19T17:29:56Z</time></trkpt><trkpt lat="43.27766525826928" lon="12.713429294106389"><ele>375.0</ele><time>2026-04-19T17:29:57Z</time></trkpt><trkpt lat="43.27772784622338" lon="12.713638500395266"><ele>375.0</ele><time>2026-04-19T17:29:58Z</time></trkpt><trkpt lat="43.277792819391095" lon="12.71384870487537"><ele>376.0</ele><time>2026-04-19T17:29:59Z</time></trkpt><trkpt lat="43.27786439469773" lon="12.71405509201885"><ele>377.0</ele><time>2026-04-19T17:30:00Z</time></trkpt><trkpt lat="43.27793974403606" lon="12.714261636160256"><ele>378.0</ele><time>2026-04-19T17:30:01Z</time></trkpt><trkpt lat="43.278018226335874" lon="12.714467250177385"><ele>379.3333333333333</ele><time>2026-04-19T17:30:02Z</time></trkpt><trkpt lat="43.27810044754431" lon="12.714672645578622"><ele>380.66666666666663</ele><time>2026-04-19T17:30:03Z</time></trkpt><trkpt lat="43.2781820666885" lon="12.71487951956738"><ele>382.0</ele><time>2026-04-19T17:30:04Z</time></trkpt><trkpt lat="43.27826386514994" lon="12.715086889801583"><ele>383.3333333333333</ele><time>2026-04-19T17:30:05Z</time></trkpt><trkpt lat="43.278347957145364" lon="12.715295019917624"><ele>384.66666666666663</ele><time>2026-04-19T17:30:06Z</time></trkpt><trkpt lat="43.2784345173462" lon="12.715504430512155"><ele>386.0</ele><time>2026-04-19T17:30:07Z</time></trkpt><trkpt lat="43.27852080013517" lon="12.715713381266262"><ele>386.0</ele><time>2026-04-19T17:30:08Z</time></trkpt><trkpt lat="43.27861444494597" lon="12.715937176177793"><ele>386.0</ele><time>2026-04-19T17:30:09Z</time></trkpt><trkpt lat="43.27870260624292" lon="12.716195236165447"><ele>386.0</ele><time>2026-04-19T17:30:10Z</time></trkpt><trkpt lat="43.278809284993955" lon="12.71646258197409"><ele>388.0</ele><time>2026-04-19T17:30:11Z</time></trkpt><trkpt lat="43.278919451115456" lon="12.716738667473692"><ele>390.0</ele><time>2026-04-19T17:30:12Z</time></trkpt><trkpt lat="43.27902940613317" lon="12.717014223906604"><ele>391.0</ele><time>2026-04-19T17:30:13Z</time></trkpt><trkpt lat="43.27914934408983" lon="12.717275404991664"><ele>392.0</ele><time>2026-04-19T17:30:14Z</time></trkpt><trkpt lat="43.27924821587867" lon="12.717553405421437"><ele>393.0</ele><time>2026-04-19T17:30:15Z</time></trkpt><trkpt lat="43.27935547372039" lon="12.717832122077924"><ele>394.0</ele><time>2026-04-19T17:30:16Z</time></trkpt><trkpt lat="43.27946490301824" lon="12.718109942671486"><ele>394.0</ele><time>2026-04-19T17:30:17Z</time></trkpt><trkpt lat="43.279573798105524" lon="12.718379978903128"><ele>394.0</ele><time>2026-04-19T17:30:18Z</time></trkpt><trkpt lat="43.279677259259586" lon="12.718646466095603"><ele>394.0</ele><time>2026-04-19T17:30:19Z</time></trkpt><trkpt lat="43.27977112822374" lon="12.718900157928173"><ele>394.0</ele><time>2026-04-19T17:30:20Z</time></trkpt><trkpt lat="43.279860230405305" lon="12.71913340270781"><ele>394.0</ele><time>2026-04-19T17:30:21Z</time></trkpt><trkpt lat="43.27993968516814" lon="12.719352570127153"><ele>394.0</ele><time>2026-04-19T17:30:22Z</time></trkpt><trkpt lat="43.28001437589925" lon="12.719558514959312"><ele>394.25</ele><time>2026-04-19T17:30:23.001Z</time></trkpt><trkpt lat="43.28008271001824" lon="12.719750914642004"><ele>394.5</ele><time>2026-04-19T17:30:24.001Z</time></trkpt><trkpt lat="43.280139087183706" lon="12.719931133911865"><ele>394.75</ele><time>2026-04-19T17:30:25.001Z</time></trkpt><trkpt lat="43.28018258712395" lon="12.72010809712182"><ele>395.0</ele><time>2026-04-19T17:30:26.001Z</time></trkpt><trkpt lat="43.28017943851508" lon="12.720276108710092"><ele>395.2</ele><time>2026-04-19T17:30:27.001Z</time></trkpt><trkpt lat="43.28017642360602" lon="12.720439388546701"><ele>395.4</ele><time>2026-04-19T17:30:28.001Z</time></trkpt><trkpt lat="43.28014990907008" lon="12.720585059472997"><ele>395.6</ele><time>2026-04-19T17:30:29.001Z</time></trkpt><trkpt lat="43.28011326661993" lon="12.720714200006416"><ele>395.8</ele><time>2026-04-19T17:30:30.001Z</time></trkpt><trkpt lat="43.28007519135328" lon="12.720868295413647"><ele>396.0</ele><time>2026-04-19T17:30:31.001Z</time></trkpt><trkpt lat="43.28000680278894" lon="12.721026523552586"><ele>396.33333333333337</ele><time>2026-04-19T17:30:32.001Z</time></trkpt><trkpt lat="43.27993041684744" lon="12.721195733869804"><ele>396.6666666666667</ele><time>2026-04-19T17:30:33.001Z</time></trkpt><trkpt lat="43.27985422354854" lon="12.72137665113388"><ele>397.0</ele><time>2026-04-19T17:30:34.001Z</time></trkpt><trkpt lat="43.27977775836006" lon="12.721561209963888"><ele>396.33333333333337</ele><time>2026-04-19T17:30:35.001Z</time></trkpt><trkpt lat="43.27970229280966" lon="12.721748418500317"><ele>395.66666666666663</ele><time>2026-04-19T17:30:36.001Z</time></trkpt><trkpt lat="43.279625110989016" lon="12.721941090892853"><ele>395.0</ele><time>2026-04-19T17:30:37.001Z</time></trkpt><trkpt lat="43.279548621876856" lon="12.722126017287565"><ele>395.0</ele><time>2026-04-19T17:30:38Z</time></trkpt><trkpt lat="43.279476133303675" lon="12.722298697877147"><ele>395.0</ele><time>2026-04-19T17:30:39Z</time></trkpt><trkpt lat="43.27941105948565" lon="12.722464250453639"><ele>395.0</ele><time>2026-04-19T17:30:40Z</time></trkpt><trkpt lat="43.27935745759283" lon="12.722622513773517"><ele>395.0</ele><time>2026-04-19T17:30:41Z</time></trkpt><trkpt lat="43.279321199727605" lon="12.72279320736364"><ele>393.75</ele><time>2026-04-19T17:30:42Z</time></trkpt><trkpt lat="43.279303904761385" lon="12.722975768953944"><ele>392.5</ele><time>2026-04-19T17:30:43Z</time></trkpt><trkpt lat="43.27932721273878" lon="12.723184655794787"><ele>391.25</ele><time>2026-04-19T17:30:44Z</time></trkpt><trkpt lat="43.27935301421563" lon="12.72336806760842"><ele>390.0</ele><time>2026-04-19T17:30:45Z</time></trkpt><trkpt lat="43.27941259752697" lon="12.723553614042189"><ele>390.0</ele><time>2026-04-19T17:30:46Z</time></trkpt><trkpt lat="43.27950043240246" lon="12.723729074327503"><ele>390.0</ele><time>2026-04-19T17:30:47Z</time></trkpt><trkpt lat="43.279625741043795" lon="12.723879503470366"><ele>390.0</ele><time>2026-04-19T17:30:48Z</time></trkpt><trkpt lat="43.2797642733802" lon="12.724042121575216"><ele>389.0</ele><time>2026-04-19T17:30:49Z</time></trkpt><trkpt lat="43.27989970586899" lon="12.72422471477912"><ele>388.0</ele><time>2026-04-19T17:30:50Z</time></trkpt><trkpt lat="43.28004662856625" lon="12.724420260868303"><ele>387.0</ele><time>2026-04-19T17:30:51Z</time></trkpt><trkpt lat="43.280198122001536" lon="12.724631509017719"><ele>386.5</ele><time>2026-04-19T17:30:52Z</time></trkpt><trkpt lat="43.28035553833393" lon="12.724848220745809"><ele>386.0</ele><time>2026-04-19T17:30:53Z</time></trkpt><trkpt lat="43.28051496933306" lon="12.725075475918375"><ele>385.0</ele><time>2026-04-19T17:30:54Z</time></trkpt><trkpt lat="43.280677645788174" lon="12.72529633342711"><ele>384.0</ele><time>2026-04-19T17:30:55Z</time></trkpt><trkpt lat="43.28083462017446" lon="12.725503376228653"><ele>383.0</ele><time>2026-04-19T17:30:56Z</time></trkpt><trkpt lat="43.28099048195236" lon="12.725706410539573"><ele>383.0</ele><time>2026-04-19T17:30:57Z</time></trkpt><trkpt lat="43.2811367579698" lon="12.725914791971842"><ele>383.0</ele><time>2026-04-19T17:30:58Z</time></trkpt><trkpt lat="43.281280571568864" lon="12.726114922607584"><ele>383.0</ele><time>2026-04-19T17:30:59Z</time></trkpt><trkpt lat="43.281414344731104" lon="12.726298716941239"><ele>383.33333333333337</ele><time>2026-04-19T17:31:00Z</time></trkpt><trkpt lat="43.28154228442468" lon="12.726467749997031"><ele>383.6666666666667</ele><time>2026-04-19T17:31:01Z</time></trkpt><trkpt lat="43.28166254762656" lon="12.726623536772774"><ele>384.0</ele><time>2026-04-19T17:31:02Z</time></trkpt><trkpt lat="43.2817733336056" lon="12.726777224904566"><ele>383.75</ele><time>2026-04-19T17:31:03Z</time></trkpt><trkpt lat="43.28188060712863" lon="12.726927852691876"><ele>383.5</ele><time>2026-04-19T17:31:04Z</time></trkpt><trkpt lat="43.28198223377622" lon="12.727075608885361"><ele>383.25</ele><time>2026-04-19T17:31:05Z</time></trkpt><trkpt lat="43.28206079662218" lon="12.727231804510295"><ele>383.0</ele><time>2026-04-19T17:31:06Z</time></trkpt><trkpt lat="43.28209412605439" lon="12.727408195255235"><ele>383.0</ele><time>2026-04-19T17:31:07Z</time></trkpt><trkpt lat="43.28212074694832" lon="12.72761458168856"><ele>383.0</ele><time>2026-04-19T17:31:08Z</time></trkpt><trkpt lat="43.28211858147846" lon="12.727811482485034"><ele>383.0</ele><time>2026-04-19T17:31:09Z</time></trkpt><trkpt lat="43.28211716486392" lon="12.728009923551918"><ele>383.0</ele><time>2026-04-19T17:31:10Z</time></trkpt><trkpt lat="43.28209455892051" lon="12.728208481429238"><ele>383.5</ele><time>2026-04-19T17:31:11Z</time></trkpt><trkpt lat="43.28207383739856" lon="12.728412186983938"><ele>384.0</ele><time>2026-04-19T17:31:12Z</time></trkpt><trkpt lat="43.28205061921971" lon="12.72860601389514"><ele>384.5</ele><time>2026-04-19T17:31:13Z</time></trkpt><trkpt lat="43.282026812783215" lon="12.72881253895868"><ele>385.0</ele><time>2026-04-19T17:31:14Z</time></trkpt><trkpt lat="43.28199776758593" lon="12.729020763334669"><ele>385.33333333333337</ele><time>2026-04-19T17:31:15Z</time></trkpt><trkpt lat="43.28197103630704" lon="12.72923747527224"><ele>385.66666666666663</ele><time>2026-04-19T17:31:16Z</time></trkpt><trkpt lat="43.28194763033757" lon="12.729462357507874"><ele>386.0</ele><time>2026-04-19T17:31:17Z</time></trkpt><trkpt lat="43.28193341510492" lon="12.72968425610485"><ele>386.3333333333333</ele><time>2026-04-19T17:31:18Z</time></trkpt><trkpt lat="43.28194784208351" lon="12.729926157821156"><ele>386.66666666666663</ele><time>2026-04-19T17:31:19Z</time></trkpt><trkpt lat="43.28199039889254" lon="12.730172985744712"><ele>387.0</ele><time>2026-04-19T17:31:20Z</time></trkpt><trkpt lat="43.282049890243464" lon="12.730423924796188"><ele>387.0</ele><time>2026-04-19T17:31:21Z</time></trkpt><trkpt lat="43.282119217102625" lon="12.730678918410783"><ele>387.0</ele><time>2026-04-19T17:31:22Z</time></trkpt><trkpt lat="43.28220431505041" lon="12.730925289090118"><ele>387.0</ele><time>2026-04-19T17:31:23Z</time></trkpt><trkpt lat="43.282288683333434" lon="12.731185367758144"><ele>387.33333333333337</ele><time>2026-04-19T17:31:24Z</time></trkpt><trkpt lat="43.28238739168079" lon="12.731443256108005"><ele>387.6666666666667</ele><time>2026-04-19T17:31:25Z</time></trkpt><trkpt lat="43.28250465248221" lon="12.731702398874285"><ele>388.0</ele><time>2026-04-19T17:31:26Z</time></trkpt><trkpt lat="43.28262307913078" lon="12.73195491213702"><ele>388.0</ele><time>2026-04-19T17:31:27Z</time></trkpt><trkpt lat="43.282741236159765" lon="12.732218526532026"><ele>388.0</ele><time>2026-04-19T17:31:28Z</time></trkpt><trkpt lat="43.282857929453186" lon="12.732482232157567"><ele>388.33333333333337</ele><time>2026-04-19T17:31:29Z</time></trkpt><trkpt lat="43.28297778009567" lon="12.732738435808702"><ele>388.66666666666663</ele><time>2026-04-19T17:31:30Z</time></trkpt><trkpt lat="43.28310853507458" lon="12.732962273344583"><ele>389.0</ele><time>2026-04-19T17:31:31Z</time></trkpt><trkpt lat="43.28325618871041" lon="12.733171989392671"><ele>390.0</ele><time>2026-04-19T17:31:32Z</time></trkpt><trkpt lat="43.28342162229181" lon="12.733356777845785"><ele>391.0</ele><time>2026-04-19T17:31:33Z</time></trkpt><trkpt lat="43.28360433634259" lon="12.73353790726803"><ele>392.0</ele><time>2026-04-19T17:31:34Z</time></trkpt><trkpt lat="43.283790013532006" lon="12.733715427567597"><ele>392.5</ele><time>2026-04-19T17:31:35Z</time></trkpt><trkpt lat="43.28398427611708" lon="12.733895418164117"><ele>393.0</ele><time>2026-04-19T17:31:36Z</time></trkpt><trkpt lat="43.284174287220225" lon="12.734094154752842"><ele>393.0</ele><time>2026-04-19T17:31:37Z</time></trkpt><trkpt lat="43.284374536612646" lon="12.734295208085582"><ele>393.0</ele><time>2026-04-19T17:31:38Z</time></trkpt><trkpt lat="43.284571440292424" lon="12.73449818119371"><ele>394.0</ele><time>2026-04-19T17:31:39Z</time></trkpt><trkpt lat="43.28476581343259" lon="12.734689437174927"><ele>395.0</ele><time>2026-04-19T17:31:40Z</time></trkpt><trkpt lat="43.28497461076217" lon="12.734885638594353"><ele>395.0</ele><time>2026-04-19T17:31:41Z</time></trkpt><trkpt lat="43.2851803209208" lon="12.73511101402743"><ele>395.0</ele><time>2026-04-19T17:31:42Z</time></trkpt><trkpt lat="43.28539500457549" lon="12.735331115509538"><ele>395.5</ele><time>2026-04-19T17:31:43Z</time></trkpt><trkpt lat="43.28560495450813" lon="12.735541931050822"><ele>396.0</ele><time>2026-04-19T17:31:44Z</time></trkpt><trkpt lat="43.28580983939799" lon="12.73574666666226"><ele>396.0</ele><time>2026-04-19T17:31:45Z</time></trkpt><trkpt lat="43.28600924287818" lon="12.735943350608217"><ele>396.0</ele><time>2026-04-19T17:31:46Z</time></trkpt><trkpt lat="43.28620737573014" lon="12.736143042467306"><ele>396.0</ele><time>2026-04-19T17:31:47Z</time></trkpt><trkpt lat="43.286399310812776" lon="12.736339994672933"><ele>396.0</ele><time>2026-04-19T17:31:48Z</time></trkpt><trkpt lat="43.28658051106752" lon="12.73652519508262"><ele>396.66666666666663</ele><time>2026-04-19T17:31:49Z</time></trkpt><trkpt lat="43.286750884300076" lon="12.736696877685826"><ele>397.3333333333333</ele><time>2026-04-19T17:31:50Z</time></trkpt><trkpt lat="43.28691077057874" lon="12.736859015368285"><ele>398.0</ele><time>2026-04-19T17:31:51Z</time></trkpt><trkpt lat="43.28706160426349" lon="12.737026176665033"><ele>399.0</ele><time>2026-04-19T17:31:52Z</time></trkpt><trkpt lat="43.287201356911915" lon="12.73720946697939"><ele>400.0</ele><time>2026-04-19T17:31:53Z</time></trkpt><trkpt lat="43.287325934023436" lon="12.737415117027092"><ele>401.0</ele><time>2026-04-19T17:31:54Z</time></trkpt><trkpt lat="43.28744527413702" lon="12.737643562956892"><ele>401.66666666666663</ele><time>2026-04-19T17:31:55Z</time></trkpt><trkpt lat="43.287562866196446" lon="12.737882395853974"><ele>402.33333333333337</ele><time>2026-04-19T17:31:56Z</time></trkpt><trkpt lat="43.287683149430165" lon="12.738131636880993"><ele>403.0</ele><time>2026-04-19T17:31:57Z</time></trkpt><trkpt lat="43.2878056971545" lon="12.738381292456417"><ele>403.33333333333337</ele><time>2026-04-19T17:31:58Z</time></trkpt><trkpt lat="43.28792435453168" lon="12.738648025061188"><ele>403.66666666666663</ele><time>2026-04-19T17:31:59Z</time></trkpt><trkpt lat="43.2880441151549" lon="12.738873876633194"><ele>404.0</ele><time>2026-04-19T17:32:00Z</time></trkpt><trkpt lat="43.288153986930176" lon="12.739097657607493"><ele>403.66666666666663</ele><time>2026-04-19T17:32:01Z</time></trkpt><trkpt lat="43.288254104037975" lon="12.739301892425493"><ele>403.33333333333337</ele><time>2026-04-19T17:32:02Z</time></trkpt><trkpt lat="43.28835454959098" lon="12.739485815760592"><ele>403.0</ele><time>2026-04-19T17:32:03Z</time></trkpt><trkpt lat="43.28845518245046" lon="12.739656662167528"><ele>403.0</ele><time>2026-04-19T17:32:04Z</time></trkpt><trkpt lat="43.28854419046924" lon="12.739816052083146"><ele>403.0</ele><time>2026-04-19T17:32:05Z</time></trkpt><trkpt lat="43.288611678348325" lon="12.739975709104511"><ele>403.0</ele><time>2026-04-19T17:32:06Z</time></trkpt><trkpt lat="43.28864530895793" lon="12.740138568804007"><ele>403.0</ele><time>2026-04-19T17:32:07Z</time></trkpt><trkpt lat="43.28864528903211" lon="12.740295848065388"><ele>403.4</ele><time>2026-04-19T17:32:08Z</time></trkpt><trkpt lat="43.28861409603579" lon="12.74043831545389"><ele>403.79999999999995</ele><time>2026-04-19T17:32:09Z</time></trkpt><trkpt lat="43.28858385582831" lon="12.740583331648654"><ele>404.2</ele><time>2026-04-19T17:32:10Z</time></trkpt><trkpt lat="43.28858586164136" lon="12.740723865901822"><ele>404.6</ele><time>2026-04-19T17:32:11Z</time></trkpt><trkpt lat="43.28863283745996" lon="12.740861253907866"><ele>405.0</ele><time>2026-04-19T17:32:12Z</time></trkpt><trkpt lat="43.28871424516248" lon="12.7409717340335"><ele>405.0</ele><time>2026-04-19T17:32:13Z</time></trkpt><trkpt lat="43.288825779568725" lon="12.74104384866985"><ele>405.0</ele><time>2026-04-19T17:32:14Z</time></trkpt><trkpt lat="43.28891309386991" lon="12.741130761352577"><ele>405.0</ele><time>2026-04-19T17:32:15Z</time></trkpt><trkpt lat="43.28903991310295" lon="12.741161400475344"><ele>405.0</ele><time>2026-04-19T17:32:16Z</time></trkpt><trkpt lat="43.289158864187414" lon="12.741230949773346"><ele>406.66666666666663</ele><time>2026-04-19T17:32:17Z</time></trkpt><trkpt lat="43.28926387741228" lon="12.741361811730933"><ele>408.3333333333333</ele><time>2026-04-19T17:32:18Z</time></trkpt><trkpt lat="43.28932431177159" lon="12.741556466368932"><ele>410.0</ele><time>2026-04-19T17:32:19Z</time></trkpt><trkpt lat="43.289399674299126" lon="12.741759338108048"><ele>410.66666666666663</ele><time>2026-04-19T17:32:20Z</time></trkpt><trkpt lat="43.28948653259707" lon="12.741959525819201"><ele>411.33333333333337</ele><time>2026-04-19T17:32:21Z</time></trkpt><trkpt lat="43.28956632496369" lon="12.74219294150653"><ele>412.0</ele><time>2026-04-19T17:32:22Z</time></trkpt><trkpt lat="43.289652171394756" lon="12.742435362419346"><ele>412.0</ele><time>2026-04-19T17:32:23Z</time></trkpt><trkpt lat="43.28974310104578" lon="12.742692783574281"><ele>412.0</ele><time>2026-04-19T17:32:24Z</time></trkpt><trkpt lat="43.289832246430066" lon="12.742951382717335"><ele>412.0</ele><time>2026-04-19T17:32:25Z</time></trkpt><trkpt lat="43.289923883775906" lon="12.743213947816791"><ele>413.0</ele><time>2026-04-19T17:32:26Z</time></trkpt><trkpt lat="43.290018725689194" lon="12.743487675143497"><ele>414.0</ele><time>2026-04-19T17:32:27Z</time></trkpt><trkpt lat="43.29011391737155" lon="12.743774208366347"><ele>414.0</ele><time>2026-04-19T17:32:28Z</time></trkpt><trkpt lat="43.29020500530354" lon="12.744073526570666"><ele>414.0</ele><time>2026-04-19T17:32:29Z</time></trkpt><trkpt lat="43.29029675533457" lon="12.744373886469278"><ele>415.5</ele><time>2026-04-19T17:32:30Z</time></trkpt><trkpt lat="43.29038320667058" lon="12.744667204411133"><ele>417.0</ele><time>2026-04-19T17:32:31Z</time></trkpt><trkpt lat="43.2904665515576" lon="12.744947608701755"><ele>417.0</ele><time>2026-04-19T17:32:32Z</time></trkpt><trkpt lat="43.29054489333119" lon="12.745212353865957"><ele>417.0</ele><time>2026-04-19T17:32:33.001Z</time></trkpt><trkpt lat="43.29062071898054" lon="12.74547039630359"><ele>417.0</ele><time>2026-04-19T17:32:34.001Z</time></trkpt><trkpt lat="43.29068487648088" lon="12.745728081938207"><ele>418.0</ele><time>2026-04-19T17:32:35.001Z</time></trkpt><trkpt lat="43.29072999103972" lon="12.745988392596447"><ele>419.0</ele><time>2026-04-19T17:32:36.001Z</time></trkpt><trkpt lat="43.290760097799655" lon="12.746248000339275"><ele>420.0</ele><time>2026-04-19T17:32:37.001Z</time></trkpt><trkpt lat="43.29077978248175" lon="12.746507218075955"><ele>420.33333333333337</ele><time>2026-04-19T17:32:38.001Z</time></trkpt><trkpt lat="43.2907961654067" lon="12.746767655798115"><ele>420.6666666666667</ele><time>2026-04-19T17:32:39.001Z</time></trkpt><trkpt lat="43.29081067823413" lon="12.747028295079536"><ele>421.0</ele><time>2026-04-19T17:32:40.001Z</time></trkpt><trkpt lat="43.29082605037518" lon="12.747299200341281"><ele>421.0</ele><time>2026-04-19T17:32:41.001Z</time></trkpt><trkpt lat="43.290848499968085" lon="12.747590724307667"><ele>421.0</ele><time>2026-04-19T17:32:42.001Z</time></trkpt><trkpt lat="43.29087042332574" lon="12.747897529048302"><ele>421.0</ele><time>2026-04-19T17:32:43.001Z</time></trkpt><trkpt lat="43.29089233016515" lon="12.748204603853743"><ele>422.0</ele><time>2026-04-19T17:32:44Z</time></trkpt><trkpt lat="43.2909120528021" lon="12.748491706257532"><ele>423.0</ele><time>2026-04-19T17:32:45Z</time></trkpt><trkpt lat="43.29093208832579" lon="12.748756083061814"><ele>424.0</ele><time>2026-04-19T17:32:46Z</time></trkpt><trkpt lat="43.29095075039565" lon="12.749007661243542"><ele>424.0</ele><time>2026-04-19T17:32:47Z</time></trkpt><trkpt lat="43.29096007693454" lon="12.749229271625024"><ele>424.0</ele><time>2026-04-19T17:32:48Z</time></trkpt><trkpt lat="43.29097138721401" lon="12.749391147038386"><ele>424.0</ele><time>2026-04-19T17:32:49Z</time></trkpt><trkpt lat="43.290978124585266" lon="12.74950380092974"><ele>424.0</ele><time>2026-04-19T17:32:50Z</time></trkpt><trkpt lat="43.2909855107448" lon="12.749626730528416"><ele>423.79999999999995</ele><time>2026-04-19T17:32:52Z</time></trkpt><trkpt lat="43.2909891588228" lon="12.749724744292923"><ele>423.59999999999997</ele><time>2026-04-19T17:33:50Z</time></trkpt><trkpt lat="43.29101608464948" lon="12.749804478413687"><ele>423.4</ele><time>2026-04-19T17:33:51Z</time></trkpt><trkpt lat="43.29102485325869" lon="12.749907506334559"><ele>423.2</ele><time>2026-04-19T17:33:52Z</time></trkpt><trkpt lat="43.291054568559005" lon="12.750007077790242"><ele>423.0</ele><time>2026-04-19T17:33:53Z</time></trkpt><trkpt lat="43.291242106301965" lon="12.750003313553076"><ele>423.0</ele><time>2026-04-19T17:33:54Z</time></trkpt><trkpt lat="43.291352455507756" lon="12.750020651082227"><ele>423.0</ele><time>2026-04-19T17:33:55Z</time></trkpt><trkpt lat="43.29147770114737" lon="12.750038794998428"><ele>423.0</ele><time>2026-04-19T17:33:56Z</time></trkpt><trkpt lat="43.29161234498894" lon="12.750068456416518"><ele>423.0</ele><time>2026-04-19T17:33:57Z</time></trkpt><trkpt lat="43.29173833249156" lon="12.750097405871921"><ele>423.0</ele><time>2026-04-19T17:33:58Z</time></trkpt><trkpt lat="43.29185211444961" lon="12.750131497049944"><ele>423.0</ele><time>2026-04-19T17:33:59Z</time></trkpt><trkpt lat="43.29193175171206" lon="12.750165761809317"><ele>423.0</ele><time>2026-04-19T17:34:00Z</time></trkpt><trkpt lat="43.291999620977506" lon="12.75022703336679"><ele>423.0</ele><time>2026-04-19T17:34:01Z</time></trkpt><trkpt lat="43.29204938715902" lon="12.750305858132823"><ele>423.0</ele><time>2026-04-19T17:34:02Z</time></trkpt><trkpt lat="43.29208063410535" lon="12.75038574915798"><ele>423.0</ele><time>2026-04-19T17:34:03Z</time></trkpt><trkpt lat="43.29211259785664" lon="12.750464391561271"><ele>423.79999999999995</ele><time>2026-04-19T17:34:04Z</time></trkpt><trkpt lat="43.29217084090379" lon="12.75059901625396"><ele>424.6</ele><time>2026-04-19T17:34:06Z</time></trkpt><trkpt lat="43.29217092064152" lon="12.750708589942107"><ele>425.40000000000003</ele><time>2026-04-19T17:34:08Z</time></trkpt><trkpt lat="43.29227543526287" lon="12.750700464987817"><ele>426.20000000000005</ele><time>2026-04-19T17:34:09Z</time></trkpt><trkpt lat="43.29234905612056" lon="12.750720579446323"><ele>427.0</ele><time>2026-04-19T17:34:11Z</time></trkpt><trkpt lat="43.29234473613342" lon="12.750832991210524"><ele>427.0</ele><time>2026-04-19T17:34:13Z</time></trkpt><trkpt lat="43.292174659332574" lon="12.750699369626865"><ele>427.0</ele><time>2026-04-19T17:35:46Z</time></trkpt><trkpt lat="43.292237207340925" lon="12.750686762701609"><ele>427.0</ele><time>2026-04-19T17:35:48Z</time></trkpt><trkpt lat="43.29246852909073" lon="12.750378146461669"><ele>427.5</ele><time>2026-04-19T17:35:53Z</time></trkpt><trkpt lat="43.292557035806894" lon="12.75041191558275"><ele>428.0</ele><time>2026-04-19T17:35:54Z</time></trkpt><trkpt lat="43.292652728687315" lon="12.750449671017892"><ele>428.5</ele><time>2026-04-19T17:35:55Z</time></trkpt><trkpt lat="43.292762345510084" lon="12.75048603638514"><ele>429.0</ele><time>2026-04-19T17:35:56Z</time></trkpt><trkpt lat="43.29291969406386" lon="12.750573999293717"><ele>429.0</ele><time>2026-04-19T17:35:57Z</time></trkpt><trkpt lat="43.293063796207406" lon="12.750475426049737"><ele>429.0</ele><time>2026-04-19T17:35:58Z</time></trkpt><trkpt lat="43.29319558637184" lon="12.750387296262657"><ele>429.0</ele><time>2026-04-19T17:35:59Z</time></trkpt><trkpt lat="43.293363704386515" lon="12.750392888511282"><ele>429.66666666666663</ele><time>2026-04-19T17:36:00Z</time></trkpt><trkpt lat="43.293518285871066" lon="12.750340407849851"><ele>430.3333333333333</ele><time>2026-04-19T17:36:01Z</time></trkpt><trkpt lat="43.29367496545243" lon="12.750281664102234"><ele>431.0</ele><time>2026-04-19T17:36:02Z</time></trkpt><trkpt lat="43.29382418636615" lon="12.750235355371458"><ele>430.75</ele><time>2026-04-19T17:36:03Z</time></trkpt><trkpt lat="43.29395320001008" lon="12.750193549489506"><ele>430.5</ele><time>2026-04-19T17:36:04Z</time></trkpt><trkpt lat="43.29407742553265" lon="12.750198216387997"><ele>430.25</ele><time>2026-04-19T17:36:05Z</time></trkpt><trkpt lat="43.29419685444485" lon="12.750191853743429"><ele>430.0</ele><time>2026-04-19T17:36:06Z</time></trkpt><trkpt lat="43.294326003255755" lon="12.750274911867033"><ele>433.0</ele><time>2026-04-19T17:36:07Z</time></trkpt><trkpt lat="43.29444448356814" lon="12.750406374647934"><ele>436.0</ele><time>2026-04-19T17:36:08Z</time></trkpt><trkpt lat="43.29457952681736" lon="12.750513821537865"><ele>439.0</ele><time>2026-04-19T17:36:09Z</time></trkpt><trkpt lat="43.29470773150351" lon="12.750656282371171"><ele>438.0</ele><time>2026-04-19T17:36:10Z</time></trkpt><trkpt lat="43.294829940406736" lon="12.750815063682275"><ele>437.0</ele><time>2026-04-19T17:36:11Z</time></trkpt><trkpt lat="43.29495186585223" lon="12.750990314404918"><ele>436.0</ele><time>2026-04-19T17:36:12Z</time></trkpt><trkpt lat="43.29507534885272" lon="12.751175581028757"><ele>439.33333333333337</ele><time>2026-04-19T17:36:13Z</time></trkpt><trkpt lat="43.295199374427796" lon="12.75136971473292"><ele>442.66666666666663</ele><time>2026-04-19T17:36:14Z</time></trkpt><trkpt lat="43.295327485718296" lon="12.751562492184386"><ele>446.0</ele><time>2026-04-19T17:36:15Z</time></trkpt><trkpt lat="43.29545798422359" lon="12.751754183771899"><ele>445.0</ele><time>2026-04-19T17:36:16Z</time></trkpt><trkpt lat="43.29560588805325" lon="12.751941561667204"><ele>444.0</ele><time>2026-04-19T17:36:17Z</time></trkpt><trkpt lat="43.29575798707492" lon="12.75213398592494"><ele>443.0</ele><time>2026-04-19T17:36:18Z</time></trkpt><trkpt lat="43.29591200862212" lon="12.752330554111644"><ele>443.0</ele><time>2026-04-19T17:36:19Z</time></trkpt><trkpt lat="43.2960633559093" lon="12.752532457289664"><ele>443.0</ele><time>2026-04-19T17:36:20Z</time></trkpt><trkpt lat="43.29620836771228" lon="12.752745517480578"><ele>443.0</ele><time>2026-04-19T17:36:21Z</time></trkpt><trkpt lat="43.2963414254631" lon="12.752972514052425"><ele>443.3333333333333</ele><time>2026-04-19T17:36:22Z</time></trkpt><trkpt lat="43.29647035650452" lon="12.753204262276588"><ele>443.66666666666663</ele><time>2026-04-19T17:36:23Z</time></trkpt><trkpt lat="43.296597470050166" lon="12.75344249238289"><ele>444.0</ele><time>2026-04-19T17:36:24Z</time></trkpt><trkpt lat="43.296722727318624" lon="12.753678412965552"><ele>444.0</ele><time>2026-04-19T17:36:25Z</time></trkpt><trkpt lat="43.29685312001466" lon="12.753914464300571"><ele>444.0</ele><time>2026-04-19T17:36:26Z</time></trkpt><trkpt lat="43.2969864725882" lon="12.754141331591994"><ele>444.0</ele><time>2026-04-19T17:36:27Z</time></trkpt><trkpt lat="43.297133200533096" lon="12.754358090234646"><ele>444.66666666666663</ele><time>2026-04-19T17:36:28Z</time></trkpt><trkpt lat="43.29728866493823" lon="12.754564331966797"><ele>445.3333333333333</ele><time>2026-04-19T17:36:29Z</time></trkpt><trkpt lat="43.29745186747953" lon="12.754766929636173"><ele>446.0</ele><time>2026-04-19T17:36:30Z</time></trkpt><trkpt lat="43.297612797245" lon="12.754972698787089"><ele>446.0</ele><time>2026-04-19T17:36:31Z</time></trkpt><trkpt lat="43.29776656892811" lon="12.75519037851061"><ele>446.0</ele><time>2026-04-19T17:36:32Z</time></trkpt><trkpt lat="43.29790060216396" lon="12.755411956749661"><ele>446.0</ele><time>2026-04-19T17:36:33Z</time></trkpt><trkpt lat="43.298052209815815" lon="12.755643522107512"><ele>447.0</ele><time>2026-04-19T17:36:34Z</time></trkpt><trkpt lat="43.29818793714877" lon="12.755837968335731"><ele>448.0</ele><time>2026-04-19T17:36:35Z</time></trkpt><trkpt lat="43.29833581972173" lon="12.755998369717265"><ele>449.0</ele><time>2026-04-19T17:36:36Z</time></trkpt><trkpt lat="43.29850284700137" lon="12.756132380946712"><ele>449.3333333333333</ele><time>2026-04-19T17:36:37Z</time></trkpt><trkpt lat="43.29867442039496" lon="12.756251765388397"><ele>449.66666666666663</ele><time>2026-04-19T17:36:38Z</time></trkpt><trkpt lat="43.298856760523705" lon="12.756366625146034"><ele>450.0</ele><time>2026-04-19T17:36:39Z</time></trkpt><trkpt lat="43.29902199392776" lon="12.756478481935487"><ele>451.33333333333337</ele><time>2026-04-19T17:36:40.001Z</time></trkpt><trkpt lat="43.29917201667674" lon="12.75658038475663"><ele>452.6666666666667</ele><time>2026-04-19T17:36:41.001Z</time></trkpt><trkpt lat="43.29931651691333" lon="12.756674884896894"><ele>454.0</ele><time>2026-04-19T17:36:42.001Z</time></trkpt><trkpt lat="43.299446778683404" lon="12.756769366414066"><ele>454.0</ele><time>2026-04-19T17:36:43.001Z</time></trkpt><trkpt lat="43.29956064719619" lon="12.756860518967375"><ele>454.0</ele><time>2026-04-19T17:36:44.001Z</time></trkpt><trkpt lat="43.299656737729656" lon="12.756964055851006"><ele>454.0</ele><time>2026-04-19T17:36:45.001Z</time></trkpt><trkpt lat="43.299733044491425" lon="12.75711038974414"><ele>454.0</ele><time>2026-04-19T17:36:46.001Z</time></trkpt><trkpt lat="43.299798377912225" lon="12.757282582526642"><ele>455.6666666666667</ele><time>2026-04-19T17:36:47.001Z</time></trkpt><trkpt lat="43.29985990068412" lon="12.757472028470039"><ele>457.33333333333337</ele><time>2026-04-19T17:36:48.001Z</time></trkpt><trkpt lat="43.29991225408029" lon="12.757690276881648"><ele>459.0</ele><time>2026-04-19T17:36:49.001Z</time></trkpt><trkpt lat="43.29995692023419" lon="12.757928311992945"><ele>459.0</ele><time>2026-04-19T17:36:50.001Z</time></trkpt><trkpt lat="43.29999387586875" lon="12.758178389995146"><ele>459.0</ele><time>2026-04-19T17:36:51.001Z</time></trkpt><trkpt lat="43.30002808288966" lon="12.758436709141769"><ele>459.0</ele><time>2026-04-19T17:36:52.001Z</time></trkpt><trkpt lat="43.300065336566576" lon="12.758708588082765"><ele>462.0</ele><time>2026-04-19T17:36:53.001Z</time></trkpt><trkpt lat="43.30010064997106" lon="12.758985306641193"><ele>465.0</ele><time>2026-04-19T17:36:54.001Z</time></trkpt><trkpt lat="43.30013953933839" lon="12.759269681579836"><ele>468.0</ele><time>2026-04-19T17:36:55.001Z</time></trkpt><trkpt lat="43.300181670966545" lon="12.759550706338818"><ele>474.0</ele><time>2026-04-19T17:36:56Z</time></trkpt><trkpt lat="43.30021620970863" lon="12.759861912459062"><ele>480.0</ele><time>2026-04-19T17:36:57Z</time></trkpt><trkpt lat="43.300246237092686" lon="12.7601824132204"><ele>483.0</ele><time>2026-04-19T17:36:58Z</time></trkpt><trkpt lat="43.30026784674324" lon="12.760508478989667"><ele>486.0</ele><time>2026-04-19T17:36:59Z</time></trkpt><trkpt lat="43.30029096023953" lon="12.76084300604309"><ele>487.0</ele><time>2026-04-19T17:37:00Z</time></trkpt><trkpt lat="43.30031068455809" lon="12.761181187586692"><ele>488.0</ele><time>2026-04-19T17:37:01Z</time></trkpt><trkpt lat="43.30033299133952" lon="12.761524457259188"><ele>487.5</ele><time>2026-04-19T17:37:02Z</time></trkpt><trkpt lat="43.30035831059695" lon="12.761865916863762"><ele>487.0</ele><time>2026-04-19T17:37:03Z</time></trkpt><trkpt lat="43.30037669854487" lon="12.762207522120258"><ele>487.0</ele><time>2026-04-19T17:37:04Z</time></trkpt><trkpt lat="43.30039631432732" lon="12.762550011566157"><ele>487.0</ele><time>2026-04-19T17:37:05Z</time></trkpt><trkpt lat="43.300412618036916" lon="12.762892314142643"><ele>486.5</ele><time>2026-04-19T17:37:06Z</time></trkpt><trkpt lat="43.30042696373974" lon="12.763232314793033"><ele>486.0</ele><time>2026-04-19T17:37:07Z</time></trkpt><trkpt lat="43.30044214292499" lon="12.763572776099746"><ele>485.5</ele><time>2026-04-19T17:37:08Z</time></trkpt><trkpt lat="43.30045841324873" lon="12.763912524875535"><ele>485.0</ele><time>2026-04-19T17:37:09Z</time></trkpt><trkpt lat="43.300473621731946" lon="12.764252490836839"><ele>488.0</ele><time>2026-04-19T17:37:10Z</time></trkpt><trkpt lat="43.300494314848706" lon="12.764586138602407"><ele>491.0</ele><time>2026-04-19T17:37:11Z</time></trkpt><trkpt lat="43.30053460287106" lon="12.764914800202124"><ele>493.5</ele><time>2026-04-19T17:37:12Z</time></trkpt><trkpt lat="43.30060320909313" lon="12.76523939732238"><ele>496.0</ele><time>2026-04-19T17:37:13Z</time></trkpt><trkpt lat="43.300692646143254" lon="12.76555259482895"><ele>496.0</ele><time>2026-04-19T17:37:14Z</time></trkpt><trkpt lat="43.30080436112774" lon="12.765855361251749"><ele>496.0</ele><time>2026-04-19T17:37:15Z</time></trkpt><trkpt lat="43.3009361536153" lon="12.766143641137893"><ele>493.0</ele><time>2026-04-19T17:37:16Z</time></trkpt><trkpt lat="43.301086285161496" lon="12.766417300213355"><ele>490.0</ele><time>2026-04-19T17:37:17Z</time></trkpt><trkpt lat="43.30125252986979" lon="12.766675692819428"><ele>488.5</ele><time>2026-04-19T17:37:18Z</time></trkpt><trkpt lat="43.30142744919544" lon="12.766922205592003"><ele>487.0</ele><time>2026-04-19T17:37:19Z</time></trkpt><trkpt lat="43.30160164129391" lon="12.767180338753871"><ele>487.0</ele><time>2026-04-19T17:37:20Z</time></trkpt><trkpt lat="43.30177024196871" lon="12.76744129807396"><ele>487.0</ele><time>2026-04-19T17:37:21Z</time></trkpt><trkpt lat="43.30193302005919" lon="12.76770955215456"><ele>488.0</ele><time>2026-04-19T17:37:22Z</time></trkpt><trkpt lat="43.302077988919386" lon="12.767994336339848"><ele>489.0</ele><time>2026-04-19T17:37:23Z</time></trkpt><trkpt lat="43.302207037590385" lon="12.768291556222477"><ele>493.5</ele><time>2026-04-19T17:37:24Z</time></trkpt><trkpt lat="43.302318790817985" lon="12.768606081995282"><ele>498.0</ele><time>2026-04-19T17:37:25Z</time></trkpt><trkpt lat="43.30241448673248" lon="12.768927797468198"><ele>498.0</ele><time>2026-04-19T17:37:26Z</time></trkpt><trkpt lat="43.30249485204955" lon="12.769257761264193"><ele>498.0</ele><time>2026-04-19T17:37:27Z</time></trkpt><trkpt lat="43.30256373477969" lon="12.76959759599452"><ele>498.0</ele><time>2026-04-19T17:37:28Z</time></trkpt><trkpt lat="43.30261827688744" lon="12.769946070175637"><ele>498.0</ele><time>2026-04-19T17:37:29Z</time></trkpt><trkpt lat="43.30266009945113" lon="12.77029443819904"><ele>498.5</ele><time>2026-04-19T17:37:30Z</time></trkpt><trkpt lat="43.30269361215204" lon="12.770650641600092"><ele>499.0</ele><time>2026-04-19T17:37:31Z</time></trkpt><trkpt lat="43.30272799180975" lon="12.771008389648674"><ele>499.0</ele><time>2026-04-19T17:37:32Z</time></trkpt><trkpt lat="43.30276202723956" lon="12.771367122589117"><ele>499.0</ele><time>2026-04-19T17:37:33Z</time></trkpt><trkpt lat="43.30279290815915" lon="12.771725048912984"><ele>501.0</ele><time>2026-04-19T17:37:34Z</time></trkpt><trkpt lat="43.30282337419013" lon="12.772091269714542"><ele>503.0</ele><time>2026-04-19T17:37:35Z</time></trkpt><trkpt lat="43.30284419959071" lon="12.77245131145888"><ele>505.5</ele><time>2026-04-19T17:37:36Z</time></trkpt><trkpt lat="43.30283908380777" lon="12.772816488512131"><ele>508.0</ele><time>2026-04-19T17:37:37Z</time></trkpt><trkpt lat="43.302813762590105" lon="12.773170945500604"><ele>508.0</ele><time>2026-04-19T17:37:38Z</time></trkpt><trkpt lat="43.302770149548024" lon="12.773521178615999"><ele>508.0</ele><time>2026-04-19T17:37:39Z</time></trkpt><trkpt lat="43.30270582667645" lon="12.773859133461345"><ele>513.0</ele><time>2026-04-19T17:37:40Z</time></trkpt><trkpt lat="43.30262866770357" lon="12.77419144804148"><ele>518.0</ele><time>2026-04-19T17:37:41Z</time></trkpt><trkpt lat="43.30254724732982" lon="12.77451771976595"><ele>520.5</ele><time>2026-04-19T17:37:42Z</time></trkpt><trkpt lat="43.30246374339891" lon="12.7748425842141"><ele>523.0</ele><time>2026-04-19T17:37:43Z</time></trkpt><trkpt lat="43.30238524127226" lon="12.775166193581951"><ele>524.5</ele><time>2026-04-19T17:37:44Z</time></trkpt><trkpt lat="43.30230463625067" lon="12.77549309169663"><ele>526.0</ele><time>2026-04-19T17:37:45Z</time></trkpt><trkpt lat="43.30222388015835" lon="12.775820736306896"><ele>526.0</ele><time>2026-04-19T17:37:46Z</time></trkpt><trkpt lat="43.302146937742314" lon="12.776148415874351"><ele>526.0</ele><time>2026-04-19T17:37:47Z</time></trkpt><trkpt lat="43.30207362791616" lon="12.77648109864728"><ele>526.0</ele><time>2026-04-19T17:37:48Z</time></trkpt><trkpt lat="43.3020156896029" lon="12.776820007339536"><ele>526.0</ele><time>2026-04-19T17:37:49Z</time></trkpt><trkpt lat="43.30197268856519" lon="12.777159340055555"><ele>526.0</ele><time>2026-04-19T17:37:50Z</time></trkpt><trkpt lat="43.30193888474635" lon="12.777504526755584"><ele>526.0</ele><time>2026-04-19T17:37:51Z</time></trkpt><trkpt lat="43.30191425434608" lon="12.777850523303822"><ele>528.5</ele><time>2026-04-19T17:37:52Z</time></trkpt><trkpt lat="43.301903645165524" lon="12.77819505187692"><ele>531.0</ele><time>2026-04-19T17:37:53Z</time></trkpt><trkpt lat="43.30191672937243" lon="12.778550474316694"><ele>534.5</ele><time>2026-04-19T17:37:54Z</time></trkpt><trkpt lat="43.301938051541256" lon="12.778915572139274"><ele>538.0</ele><time>2026-04-19T17:37:55Z</time></trkpt><trkpt lat="43.30196236978048" lon="12.779287542647413"><ele>538.0</ele><time>2026-04-19T17:37:56Z</time></trkpt><trkpt lat="43.30198467044791" lon="12.779659146204018"><ele>538.0</ele><time>2026-04-19T17:37:57Z</time></trkpt><trkpt lat="43.30198570674373" lon="12.780025752939224"><ele>546.0</ele><time>2026-04-19T17:37:58Z</time></trkpt><trkpt lat="43.30208531452367" lon="12.780273897430897"><ele>554.0</ele><time>2026-04-19T17:37:59Z</time></trkpt><trkpt lat="43.302118585621926" lon="12.780623646908733"><ele>554.0</ele><time>2026-04-19T17:38:00Z</time></trkpt><trkpt lat="43.302168233708294" lon="12.780984122020572"><ele>554.0</ele><time>2026-04-19T17:38:01Z</time></trkpt><trkpt lat="43.30222332767108" lon="12.781350560822348"><ele>579.5</ele><time>2026-04-19T17:38:02Z</time></trkpt><trkpt lat="43.30228126016769" lon="12.781718285682004"><ele>605.0</ele><time>2026-04-19T17:38:03Z</time></trkpt><trkpt lat="43.30233851336043" lon="12.78208393846709"><ele>606.0</ele><time>2026-04-19T17:38:04Z</time></trkpt><trkpt lat="43.30239657498194" lon="12.782450961719931"><ele>607.0</ele><time>2026-04-19T17:38:05Z</time></trkpt><trkpt lat="43.30245939742034" lon="12.78284107389271"><ele>606.0</ele><time>2026-04-19T17:38:06.071Z</time></trkpt><trkpt lat="43.302519752502796" lon="12.783205062199631"><ele>605.0</ele><time>2026-04-19T17:38:07.056Z</time></trkpt><trkpt lat="43.302581559110344" lon="12.783575522626924"><ele>618.0</ele><time>2026-04-19T17:38:08.052Z</time></trkpt><trkpt lat="43.30129515462657" lon="12.789276891748358"><ele>618.0</ele><time>2026-04-19T17:38:23Z</time></trkpt><trkpt lat="43.301179526607356" lon="12.788664067636393"><ele>618.0</ele><time>2026-04-19T17:38:24Z</time></trkpt><trkpt lat="43.30107292736815" lon="12.78895712036712"><ele>618.0</ele><time>2026-04-19T17:38:25Z</time></trkpt><trkpt lat="43.30095233752609" lon="12.789250215686016"><ele>637.0</ele><time>2026-04-19T17:38:26Z</time></trkpt><trkpt lat="43.300829292655365" lon="12.789540410112444"><ele>656.0</ele><time>2026-04-19T17:38:27Z</time></trkpt><trkpt lat="43.30070749909301" lon="12.789834060191193"><ele>656.0</ele><time>2026-04-19T17:38:28Z</time></trkpt><trkpt lat="43.30058367781911" lon="12.790123871820473"><ele>656.0</ele><time>2026-04-19T17:38:29Z</time></trkpt><trkpt lat="43.30045402426852" lon="12.790428490724064"><ele>659.0</ele><time>2026-04-19T17:38:30.05Z</time></trkpt><trkpt lat="43.300330121378764" lon="12.790718057796292"><ele>662.0</ele><time>2026-04-19T17:38:31.051Z</time></trkpt><trkpt lat="43.29955069600351" lon="12.794487934439948"><ele>638.6666666666666</ele><time>2026-04-19T17:38:42Z</time></trkpt><trkpt lat="43.29961242783982" lon="12.794377658236936"><ele>615.3333333333334</ele><time>2026-04-19T17:38:43Z</time></trkpt><trkpt lat="43.29956619567781" lon="12.794664674550976"><ele>592.0</ele><time>2026-04-19T17:38:44Z</time></trkpt><trkpt lat="43.29955046570789" lon="12.794953989230661"><ele>598.6666666666667</ele><time>2026-04-19T17:38:45Z</time></trkpt><trkpt lat="43.29953558128267" lon="12.79523370171288"><ele>605.3333333333334</ele><time>2026-04-19T17:38:46Z</time></trkpt><trkpt lat="43.299524878642885" lon="12.795521357501014"><ele>612.0</ele><time>2026-04-19T17:38:47Z</time></trkpt><trkpt lat="43.2995180101499" lon="12.795817208152245"><ele>623.6666666666666</ele><time>2026-04-19T17:38:48Z</time></trkpt><trkpt lat="43.299510555929" lon="12.796119973330635"><ele>635.3333333333333</ele><time>2026-04-19T17:38:49Z</time></trkpt><trkpt lat="43.29950251288562" lon="12.796427536728464"><ele>647.0</ele><time>2026-04-19T17:38:50Z</time></trkpt><trkpt lat="43.29949338630875" lon="12.796739407867197"><ele>659.5</ele><time>2026-04-19T17:38:51.001Z</time></trkpt><trkpt lat="43.29948350067234" lon="12.797057460610853"><ele>672.0</ele><time>2026-04-19T17:38:52.001Z</time></trkpt><trkpt lat="43.29946929910274" lon="12.79736709636977"><ele>681.5</ele><time>2026-04-19T17:38:53.001Z</time></trkpt><trkpt lat="43.299453896667444" lon="12.797697354008069"><ele>691.0</ele><time>2026-04-19T17:38:54.055Z</time></trkpt><trkpt lat="43.29944238737649" lon="12.798007232735799"><ele>691.0</ele><time>2026-04-19T17:38:55.052Z</time></trkpt><trkpt lat="43.29942142396897" lon="12.798335709804636"><ele>691.0</ele><time>2026-04-19T17:38:56.052Z</time></trkpt><trkpt lat="43.29941259880628" lon="12.798651908951218"><ele>577.0</ele><time>2026-04-19T17:38:57.049Z</time></trkpt><trkpt lat="43.299135892976835" lon="12.806710725274451"><ele>574.5</ele><time>2026-04-19T17:39:21.001Z</time></trkpt><trkpt lat="43.29913886971627" lon="12.80702749851042"><ele>572.0</ele><time>2026-04-19T17:39:22.001Z</time></trkpt><trkpt lat="43.29913208146476" lon="12.807364211217244"><ele>571.5</ele><time>2026-04-19T17:39:23.001Z</time></trkpt><trkpt lat="43.2991152016607" lon="12.80767767558343"><ele>571.0</ele><time>2026-04-19T17:39:24.001Z</time></trkpt><trkpt lat="43.29911143052418" lon="12.808000085985553"><ele>571.0</ele><time>2026-04-19T17:39:25.001Z</time></trkpt><trkpt lat="43.2991145070438" lon="12.808311393550161"><ele>571.0</ele><time>2026-04-19T17:39:26.001Z</time></trkpt><trkpt lat="43.29911663121062" lon="12.80862839208955"><ele>574.0</ele><time>2026-04-19T17:39:27.001Z</time></trkpt><trkpt lat="43.2991265836628" lon="12.808942562586322"><ele>577.0</ele><time>2026-04-19T17:39:28.001Z</time></trkpt><trkpt lat="43.29913963709703" lon="12.809253521304647"><ele>591.5</ele><time>2026-04-19T17:39:29.001Z</time></trkpt><trkpt lat="43.29915915739121" lon="12.809565563173024"><ele>606.0</ele><time>2026-04-19T17:39:30.001Z</time></trkpt><trkpt lat="43.29919337924431" lon="12.809891562509922"><ele>620.0</ele><time>2026-04-19T17:39:31.001Z</time></trkpt><trkpt lat="43.29923921115949" lon="12.810235556170719"><ele>634.0</ele><time>2026-04-19T17:39:32Z</time></trkpt><trkpt lat="43.299289928869825" lon="12.810595112825693"><ele>634.0</ele><time>2026-04-19T17:39:33Z</time></trkpt><trkpt lat="43.299338410511254" lon="12.810962934032943"><ele>634.0</ele><time>2026-04-19T17:39:34Z</time></trkpt><trkpt lat="43.299382634317766" lon="12.811324987548698"><ele>633.5</ele><time>2026-04-19T17:39:35Z</time></trkpt><trkpt lat="43.299426488137144" lon="12.811689437200561"><ele>633.0</ele><time>2026-04-19T17:39:36Z</time></trkpt><trkpt lat="43.299473392544215" lon="12.81207091605696"><ele>623.5</ele><time>2026-04-19T17:39:37.046Z</time></trkpt><trkpt lat="43.299541053559864" lon="12.812422945722801"><ele>614.0</ele><time>2026-04-19T17:39:38.052Z</time></trkpt><trkpt lat="43.29964496319268" lon="12.812755998668106"><ele>619.0</ele><time>2026-04-19T17:39:39.053Z</time></trkpt><trkpt lat="43.299752221933744" lon="12.81308747940289"><ele>624.0</ele><time>2026-04-19T17:39:40.046Z</time></trkpt><trkpt lat="43.30070437815868" lon="12.815536351004546"><ele>602.0</ele><time>2026-04-19T17:39:43.739Z</time></trkpt><trkpt lat="43.301097560274904" lon="12.816505632787074"><ele>622.0</ele><time>2026-04-19T17:39:44.739Z</time></trkpt><trkpt lat="43.301450967228114" lon="12.817503892824453"><ele>604.0</ele><time>2026-04-19T17:39:45.74Z</time></trkpt><trkpt lat="43.30174829360601" lon="12.818535766631861"><ele>604.0</ele><time>2026-04-19T17:39:46.74Z</time></trkpt><trkpt lat="43.3018922" lon="12.8191122"><ele>604.0</ele><time>2026-04-19T17:39:47.738Z</time></trkpt><trkpt lat="43.30217380690744" lon="12.820151853220633"><ele>547.0</ele><time>2026-04-19T17:40:07.739Z</time></trkpt><trkpt lat="43.30251642340906" lon="12.821157950197984"><ele>519.0</ele><time>2026-04-19T17:40:08.74Z</time></trkpt><trkpt lat="43.30286283903893" lon="12.822156279983348"><ele>508.0</ele><time>2026-04-19T17:40:09.736Z</time></trkpt><trkpt lat="43.303149786471614" lon="12.823299939129042"><ele>504.5</ele><time>2026-04-19T17:40:13Z</time></trkpt><trkpt lat="43.30328153112683" lon="12.823625555884101"><ele>501.0</ele><time>2026-04-19T17:40:14Z</time></trkpt><trkpt lat="43.303372728164504" lon="12.823949381743276"><ele>501.0</ele><time>2026-04-19T17:40:15Z</time></trkpt><trkpt lat="43.303428288539706" lon="12.824275960117935"><ele>501.0</ele><time>2026-04-19T17:40:16Z</time></trkpt><trkpt lat="43.30348012637314" lon="12.824602176497415"><ele>496.0</ele><time>2026-04-19T17:40:17Z</time></trkpt><trkpt lat="43.303513022347865" lon="12.824938978537016"><ele>491.0</ele><time>2026-04-19T17:40:18Z</time></trkpt><trkpt lat="43.303547112421114" lon="12.825284085486022"><ele>491.0</ele><time>2026-04-19T17:40:19Z</time></trkpt><trkpt lat="43.30355834644304" lon="12.825626852413066"><ele>491.0</ele><time>2026-04-19T17:40:20Z</time></trkpt><trkpt lat="43.303561755258535" lon="12.82596616886921"><ele>493.5</ele><time>2026-04-19T17:40:21Z</time></trkpt><trkpt lat="43.30354732568043" lon="12.826307616542216"><ele>496.0</ele><time>2026-04-19T17:40:22Z</time></trkpt><trkpt lat="43.3035240007655" lon="12.826648904649181"><ele>501.5</ele><time>2026-04-19T17:40:23Z</time></trkpt><trkpt lat="43.30348478768099" lon="12.826994782181094"><ele>507.0</ele><time>2026-04-19T17:40:24Z</time></trkpt><trkpt lat="43.30343905798941" lon="12.827356404180621"><ele>517.5</ele><time>2026-04-19T17:40:25Z</time></trkpt><trkpt lat="43.30339769450826" lon="12.827726491944288"><ele>528.0</ele><time>2026-04-19T17:40:26Z</time></trkpt><trkpt lat="43.303356136699946" lon="12.828097272195782"><ele>528.0</ele><time>2026-04-19T17:40:27Z</time></trkpt><trkpt lat="43.303319473572614" lon="12.82846292128174"><ele>528.0</ele><time>2026-04-19T17:40:28Z</time></trkpt><trkpt lat="43.303253259858415" lon="12.82890153758854"><ele>512.0</ele><time>2026-04-19T17:40:29Z</time></trkpt><trkpt lat="43.30319647082859" lon="12.829322042535724"><ele>496.0</ele><time>2026-04-19T17:40:30.059Z</time></trkpt><trkpt lat="43.30314439829543" lon="12.829716910907555"><ele>496.0</ele><time>2026-04-19T17:40:31.054Z</time></trkpt><trkpt lat="43.30312005449674" lon="12.830120827421755"><ele>496.0</ele><time>2026-04-19T17:40:32.06Z</time></trkpt><trkpt lat="43.30307675496283" lon="12.830521291427104"><ele>486.0</ele><time>2026-04-19T17:40:33.052Z</time></trkpt><trkpt lat="43.303032182909206" lon="12.83093037516239"><ele>476.0</ele><time>2026-04-19T17:40:34.053Z</time></trkpt><trkpt lat="43.30298988803087" lon="12.831322509920174"><ele>473.0</ele><time>2026-04-19T17:40:35.026Z</time></trkpt><trkpt lat="43.30301198099566" lon="12.831686477553339"><ele>470.0</ele><time>2026-04-19T17:40:37Z</time></trkpt><trkpt lat="43.302974155391894" lon="12.832052303157445"><ele>465.0</ele><time>2026-04-19T17:40:38Z</time></trkpt><trkpt lat="43.302938579686675" lon="12.832414420966334"><ele>460.0</ele><time>2026-04-19T17:40:39Z</time></trkpt><trkpt lat="43.30289163010188" lon="12.832774690817041"><ele>456.5</ele><time>2026-04-19T17:40:40Z</time></trkpt><trkpt lat="43.30285778635153" lon="12.833131390202315"><ele>453.0</ele><time>2026-04-19T17:40:41Z</time></trkpt><trkpt lat="43.30282002857507" lon="12.833487055683287"><ele>450.5</ele><time>2026-04-19T17:40:42Z</time></trkpt><trkpt lat="43.302784090550034" lon="12.833842303638516"><ele>448.0</ele><time>2026-04-19T17:40:43Z</time></trkpt><trkpt lat="43.3027471866518" lon="12.834193191562457"><ele>447.0</ele><time>2026-04-19T17:40:44Z</time></trkpt><trkpt lat="43.3027100141596" lon="12.834540150685212"><ele>446.0</ele><time>2026-04-19T17:40:45Z</time></trkpt><trkpt lat="43.30267512547235" lon="12.834883598979562"><ele>444.5</ele><time>2026-04-19T17:40:46Z</time></trkpt><trkpt lat="43.30264039611627" lon="12.835224598345842"><ele>443.0</ele><time>2026-04-19T17:40:47Z</time></trkpt><trkpt lat="43.30260757972356" lon="12.835563966140391"><ele>443.0</ele><time>2026-04-19T17:40:48Z</time></trkpt><trkpt lat="43.302575274651865" lon="12.835904936180604"><ele>443.0</ele><time>2026-04-19T17:40:49Z</time></trkpt><trkpt lat="43.30254392752512" lon="12.836250291479598"><ele>441.0</ele><time>2026-04-19T17:40:50Z</time></trkpt><trkpt lat="43.302518868709626" lon="12.836599621362119"><ele>439.0</ele><time>2026-04-19T17:40:51Z</time></trkpt><trkpt lat="43.302500266395974" lon="12.836950013832961"><ele>437.5</ele><time>2026-04-19T17:40:52Z</time></trkpt><trkpt lat="43.30249147417014" lon="12.837308244347826"><ele>436.0</ele><time>2026-04-19T17:40:53Z</time></trkpt><trkpt lat="43.3024984980092" lon="12.837660458432525"><ele>434.0</ele><time>2026-04-19T17:40:54Z</time></trkpt><trkpt lat="43.302526661345084" lon="12.838016538388171"><ele>432.0</ele><time>2026-04-19T17:40:55Z</time></trkpt><trkpt lat="43.30257371470373" lon="12.838368441772602"><ele>429.0</ele><time>2026-04-19T17:40:56Z</time></trkpt><trkpt lat="43.30264516309278" lon="12.83871237906971"><ele>426.0</ele><time>2026-04-19T17:40:57Z</time></trkpt><trkpt lat="43.30272969457055" lon="12.839047134521383"><ele>422.5</ele><time>2026-04-19T17:40:58Z</time></trkpt><trkpt lat="43.302831305797675" lon="12.839373143315694"><ele>419.0</ele><time>2026-04-19T17:40:59Z</time></trkpt><trkpt lat="43.302949112866415" lon="12.839689522887346"><ele>419.0</ele><time>2026-04-19T17:41:00Z</time></trkpt><trkpt lat="43.30307884459013" lon="12.839992966993867"><ele>419.0</ele><time>2026-04-19T17:41:01Z</time></trkpt><trkpt lat="43.30322677481662" lon="12.840284753896166"><ele>420.5</ele><time>2026-04-19T17:41:02Z</time></trkpt><trkpt lat="43.30339036392719" lon="12.840560496784148"><ele>422.0</ele><time>2026-04-19T17:41:03Z</time></trkpt><trkpt lat="43.303566986399886" lon="12.840815078521516"><ele>421.5</ele><time>2026-04-19T17:41:04Z</time></trkpt><trkpt lat="43.30375745549632" lon="12.841055176520841"><ele>421.0</ele><time>2026-04-19T17:41:05Z</time></trkpt><trkpt lat="43.30395622945738" lon="12.84127856899991"><ele>421.0</ele><time>2026-04-19T17:41:06Z</time></trkpt><trkpt lat="43.30415985127162" lon="12.841492312388533"><ele>421.0</ele><time>2026-04-19T17:41:07Z</time></trkpt><trkpt lat="43.30437001811473" lon="12.841695977039244"><ele>420.0</ele><time>2026-04-19T17:41:08Z</time></trkpt><trkpt lat="43.3045767602955" lon="12.841902515176328"><ele>419.0</ele><time>2026-04-19T17:41:09Z</time></trkpt><trkpt lat="43.30477439774995" lon="12.842125345778735"><ele>419.0</ele><time>2026-04-19T17:41:10Z</time></trkpt><trkpt lat="43.304958679223134" lon="12.842371361904148"><ele>419.0</ele><time>2026-04-19T17:41:11Z</time></trkpt><trkpt lat="43.30514053804942" lon="12.842627007838237"><ele>411.0</ele><time>2026-04-19T17:41:12Z</time></trkpt><trkpt lat="43.30532576269393" lon="12.842883061001197"><ele>403.0</ele><time>2026-04-19T17:41:13Z</time></trkpt><trkpt lat="43.30551562793129" lon="12.843138286491776"><ele>403.0</ele><time>2026-04-19T17:41:14Z</time></trkpt><trkpt lat="43.30570671319743" lon="12.843393952490892"><ele>403.0</ele><time>2026-04-19T17:41:15Z</time></trkpt><trkpt lat="43.30589838322149" lon="12.843651136071072"><ele>403.0</ele><time>2026-04-19T17:41:16Z</time></trkpt><trkpt lat="43.306088041583735" lon="12.843911739844371"><ele>403.0</ele><time>2026-04-19T17:41:17Z</time></trkpt><trkpt lat="43.30627659048351" lon="12.844179017423722"><ele>406.5</ele><time>2026-04-19T17:41:18Z</time></trkpt><trkpt lat="43.30645770565444" lon="12.844447813722887"><ele>410.0</ele><time>2026-04-19T17:41:19Z</time></trkpt><trkpt lat="43.30663992879947" lon="12.8447207870309"><ele>410.0</ele><time>2026-04-19T17:41:20Z</time></trkpt><trkpt lat="43.30681708416761" lon="12.844995827437964"><ele>410.0</ele><time>2026-04-19T17:41:21Z</time></trkpt><trkpt lat="43.30698649336222" lon="12.845270811340873"><ele>412.0</ele><time>2026-04-19T17:41:22Z</time></trkpt><trkpt lat="43.307150994619796" lon="12.845548829621983"><ele>414.0</ele><time>2026-04-19T17:41:23Z</time></trkpt><trkpt lat="43.30731455786837" lon="12.84583012127575"><ele>408.0</ele><time>2026-04-19T17:41:24.001Z</time></trkpt><trkpt lat="43.307476216413846" lon="12.846112315377974"><ele>402.0</ele><time>2026-04-19T17:41:25.001Z</time></trkpt><trkpt lat="43.30763567495639" lon="12.846393209425178"><ele>402.0</ele><time>2026-04-19T17:41:26.001Z</time></trkpt><trkpt lat="43.307792391052935" lon="12.846675635975716"><ele>402.0</ele><time>2026-04-19T17:41:27.001Z</time></trkpt><trkpt lat="43.307947870388205" lon="12.846956620138535"><ele>406.0</ele><time>2026-04-19T17:41:28.001Z</time></trkpt><trkpt lat="43.308102972913034" lon="12.847237425998122"><ele>410.0</ele><time>2026-04-19T17:41:29.001Z</time></trkpt><trkpt lat="43.30825558969434" lon="12.847521227434504"><ele>405.0</ele><time>2026-04-19T17:41:30.001Z</time></trkpt><trkpt lat="43.30840293260406" lon="12.847807569272025"><ele>400.0</ele><time>2026-04-19T17:41:31.001Z</time></trkpt><trkpt lat="43.308544971473545" lon="12.848097923849231"><ele>400.0</ele><time>2026-04-19T17:41:32.001Z</time></trkpt><trkpt lat="43.308677526845656" lon="12.848393246205678"><ele>400.0</ele><time>2026-04-19T17:41:33.001Z</time></trkpt><trkpt lat="43.308803262532386" lon="12.848693448048678"><ele>399.5</ele><time>2026-04-19T17:41:34.001Z</time></trkpt><trkpt lat="43.30892202836703" lon="12.848997414136173"><ele>399.0</ele><time>2026-04-19T17:41:35.001Z</time></trkpt><trkpt lat="43.309034117866695" lon="12.849305147147117"><ele>399.0</ele><time>2026-04-19T17:41:36.001Z</time></trkpt><trkpt lat="43.30913718953107" lon="12.84962097559278"><ele>399.0</ele><time>2026-04-19T17:41:37Z</time></trkpt><trkpt lat="43.309229338417346" lon="12.849942790434508"><ele>396.0</ele><time>2026-04-19T17:41:38Z</time></trkpt><trkpt lat="43.309316081756265" lon="12.85026810211059"><ele>393.0</ele><time>2026-04-19T17:41:39Z</time></trkpt><trkpt lat="43.30939606697705" lon="12.85059918071563"><ele>393.0</ele><time>2026-04-19T17:41:40Z</time></trkpt><trkpt lat="43.30947500140523" lon="12.850927460731908"><ele>393.0</ele><time>2026-04-19T17:41:41Z</time></trkpt><trkpt lat="43.30955042272077" lon="12.851263451802714"><ele>392.0</ele><time>2026-04-19T17:41:42Z</time></trkpt><trkpt lat="43.30961937625429" lon="12.851594756990789"><ele>391.0</ele><time>2026-04-19T17:41:43Z</time></trkpt><trkpt lat="43.309686887445956" lon="12.85192647405318"><ele>396.0</ele><time>2026-04-19T17:41:44Z</time></trkpt><trkpt lat="43.30975485574555" lon="12.852268558322715"><ele>401.0</ele><time>2026-04-19T17:41:45Z</time></trkpt><trkpt lat="43.30982024474963" lon="12.852604376832454"><ele>398.0</ele><time>2026-04-19T17:41:46Z</time></trkpt><trkpt lat="43.30988693060534" lon="12.852946469036125"><ele>395.0</ele><time>2026-04-19T17:41:47Z</time></trkpt><trkpt lat="43.309952665093874" lon="12.853285606253037"><ele>393.5</ele><time>2026-04-19T17:41:48Z</time></trkpt><trkpt lat="43.310016589787956" lon="12.853621850679295"><ele>392.0</ele><time>2026-04-19T17:41:49Z</time></trkpt><trkpt lat="43.31008003846472" lon="12.8539563999793"><ele>390.5</ele><time>2026-04-19T17:41:50Z</time></trkpt><trkpt lat="43.31014491866344" lon="12.85429098709645"><ele>389.0</ele><time>2026-04-19T17:41:51Z</time></trkpt><trkpt lat="43.3102108122886" lon="12.854626227435418"><ele>389.0</ele><time>2026-04-19T17:41:52Z</time></trkpt><trkpt lat="43.310276026485404" lon="12.854959016628321"><ele>389.0</ele><time>2026-04-19T17:41:53Z</time></trkpt><trkpt lat="43.31034192270723" lon="12.855289725095902"><ele>389.5</ele><time>2026-04-19T17:41:54Z</time></trkpt><trkpt lat="43.31040683519316" lon="12.855620689133715"><ele>390.0</ele><time>2026-04-19T17:41:55Z</time></trkpt><trkpt lat="43.310471677114485" lon="12.855951372724626"><ele>388.5</ele><time>2026-04-19T17:41:56Z</time></trkpt><trkpt lat="43.31053608875458" lon="12.856280490883051"><ele>387.0</ele><time>2026-04-19T17:41:57Z</time></trkpt><trkpt lat="43.31059915087588" lon="12.856607350781186"><ele>384.5</ele><time>2026-04-19T17:41:58Z</time></trkpt><trkpt lat="43.31066229258387" lon="12.856931837848574"><ele>382.0</ele><time>2026-04-19T17:41:59Z</time></trkpt><trkpt lat="43.310726540390114" lon="12.857253902215405"><ele>382.0</ele><time>2026-04-19T17:42:00Z</time></trkpt><trkpt lat="43.31079179519716" lon="12.85757427018329"><ele>382.0</ele><time>2026-04-19T17:42:01Z</time></trkpt><trkpt lat="43.31085803464542" lon="12.857895673950683"><ele>380.5</ele><time>2026-04-19T17:42:02Z</time></trkpt><trkpt lat="43.31092568306111" lon="12.858214400256728"><ele>379.0</ele><time>2026-04-19T17:42:03Z</time></trkpt><trkpt lat="43.31100151039865" lon="12.858532242304454"><ele>378.5</ele><time>2026-04-19T17:42:04Z</time></trkpt><trkpt lat="43.31109159891117" lon="12.858846836642426"><ele>378.0</ele><time>2026-04-19T17:42:05Z</time></trkpt><trkpt lat="43.31119128042206" lon="12.859154313856832"><ele>378.5</ele><time>2026-04-19T17:42:06Z</time></trkpt><trkpt lat="43.311300478809834" lon="12.859455107859281"><ele>379.0</ele><time>2026-04-19T17:42:07Z</time></trkpt><trkpt lat="43.311416015329435" lon="12.859751435248963"><ele>378.0</ele><time>2026-04-19T17:42:08Z</time></trkpt><trkpt lat="43.3115379912859" lon="12.86004155337126"><ele>377.0</ele><time>2026-04-19T17:42:09Z</time></trkpt><trkpt lat="43.311667161773116" lon="12.860321636032428"><ele>379.5</ele><time>2026-04-19T17:42:10Z</time></trkpt><trkpt lat="43.31180486553243" lon="12.860590920568757"><ele>382.0</ele><time>2026-04-19T17:42:11Z</time></trkpt><trkpt lat="43.31194536194787" lon="12.860844047059645"><ele>383.0</ele><time>2026-04-19T17:42:12Z</time></trkpt><trkpt lat="43.31209375044451" lon="12.861099623365114"><ele>384.0</ele><time>2026-04-19T17:42:13Z</time></trkpt><trkpt lat="43.3122410403365" lon="12.861345713209568"><ele>384.0</ele><time>2026-04-19T17:42:14Z</time></trkpt><trkpt lat="43.312388106306656" lon="12.861588829076391"><ele>384.0</ele><time>2026-04-19T17:42:15Z</time></trkpt><trkpt lat="43.31254150358272" lon="12.861816137200034"><ele>385.0</ele><time>2026-04-19T17:42:16Z</time></trkpt><trkpt lat="43.312688274074226" lon="12.862034355776386"><ele>386.0</ele><time>2026-04-19T17:42:17Z</time></trkpt><trkpt lat="43.312823920300666" lon="12.862242701443202"><ele>387.0</ele><time>2026-04-19T17:42:18Z</time></trkpt><trkpt lat="43.312950962229124" lon="12.862443171988248"><ele>387.0</ele><time>2026-04-19T17:42:19Z</time></trkpt><trkpt lat="43.31307115671732" lon="12.8626347890865"><ele>387.0</ele><time>2026-04-19T17:42:20Z</time></trkpt><trkpt lat="43.31319623131106" lon="12.86283482028951"><ele>387.0</ele><time>2026-04-19T17:42:21Z</time></trkpt><trkpt lat="43.31332880490276" lon="12.863046850908477"><ele>387.0</ele><time>2026-04-19T17:42:22Z</time></trkpt><trkpt lat="43.31346540375788" lon="12.86326698351133"><ele>387.0</ele><time>2026-04-19T17:42:23Z</time></trkpt><trkpt lat="43.313603457310364" lon="12.863491359929007"><ele>387.0</ele><time>2026-04-19T17:42:24Z</time></trkpt><trkpt lat="43.31373464782249" lon="12.863725700160975"><ele>389.0</ele><time>2026-04-19T17:42:25Z</time></trkpt><trkpt lat="43.31385952223018" lon="12.863978017260195"><ele>391.0</ele><time>2026-04-19T17:42:26Z</time></trkpt><trkpt lat="43.31397069357281" lon="12.864240745559231"><ele>393.0</ele><time>2026-04-19T17:42:27Z</time></trkpt><trkpt lat="43.3140771453634" lon="12.864509856858279"><ele>393.0</ele><time>2026-04-19T17:42:28Z</time></trkpt><trkpt lat="43.31417934935175" lon="12.864777840492083"><ele>393.0</ele><time>2026-04-19T17:42:29Z</time></trkpt><trkpt lat="43.314273023300096" lon="12.865045521476747"><ele>393.0</ele><time>2026-04-19T17:42:30Z</time></trkpt><trkpt lat="43.3143567330489" lon="12.86531218453205"><ele>402.0</ele><time>2026-04-19T17:42:31Z</time></trkpt><trkpt lat="43.31443418905182" lon="12.865575728001808"><ele>411.0</ele><time>2026-04-19T17:42:32Z</time></trkpt><trkpt lat="43.3145088342836" lon="12.86583936906217"><ele>420.0</ele><time>2026-04-19T17:42:33Z</time></trkpt><trkpt lat="43.31458079619141" lon="12.866097603359183"><ele>430.33333333333337</ele><time>2026-04-19T17:42:34Z</time></trkpt><trkpt lat="43.31465757403764" lon="12.866364965626234"><ele>440.6666666666667</ele><time>2026-04-19T17:42:35Z</time></trkpt><trkpt lat="43.31473670749821" lon="12.866637131795606"><ele>451.0</ele><time>2026-04-19T17:42:36Z</time></trkpt><trkpt lat="43.31481853373218" lon="12.866924776290297"><ele>456.33333333333337</ele><time>2026-04-19T17:42:37Z</time></trkpt><trkpt lat="43.314895233595664" lon="12.867214062841214"><ele>461.66666666666663</ele><time>2026-04-19T17:42:38.063Z</time></trkpt><trkpt lat="43.31495969106387" lon="12.86748614623024"><ele>467.0</ele><time>2026-04-19T17:42:39.061Z</time></trkpt><trkpt lat="43.31502496060697" lon="12.86775695730364"><ele>468.3333333333333</ele><time>2026-04-19T17:42:40.06Z</time></trkpt><trkpt lat="43.31509750679794" lon="12.868023129463861"><ele>469.66666666666663</ele><time>2026-04-19T17:42:41.058Z</time></trkpt><trkpt lat="43.31515919638978" lon="12.868284662350023"><ele>471.0</ele><time>2026-04-19T17:42:42.033Z</time></trkpt><trkpt lat="43.31523733670943" lon="12.868551715104688"><ele>390.0</ele><time>2026-04-19T17:42:43.026Z</time></trkpt><trkpt lat="43.31516953514211" lon="12.871355547510264"><ele>390.0</ele><time>2026-04-19T17:42:51Z</time></trkpt><trkpt lat="43.31518918069633" lon="12.871733933620156"><ele>390.0</ele><time>2026-04-19T17:42:52Z</time></trkpt><trkpt lat="43.31520897689936" lon="12.872086273342225"><ele>394.5</ele><time>2026-04-19T17:42:53Z</time></trkpt><trkpt lat="43.31525226743131" lon="12.872397586340899"><ele>399.0</ele><time>2026-04-19T17:42:54Z</time></trkpt><trkpt lat="43.31531943380396" lon="12.872697358641528"><ele>405.5</ele><time>2026-04-19T17:42:55Z</time></trkpt><trkpt lat="43.31537249384752" lon="12.873010935660556"><ele>412.0</ele><time>2026-04-19T17:42:56Z</time></trkpt><trkpt lat="43.31541597800551" lon="12.873311003842662"><ele>419.0</ele><time>2026-04-19T17:42:57Z</time></trkpt><trkpt lat="43.31544466686514" lon="12.873599374011548"><ele>426.0</ele><time>2026-04-19T17:42:58Z</time></trkpt><trkpt lat="43.31547292825152" lon="12.873890725827078"><ele>433.0</ele><time>2026-04-19T17:42:59Z</time></trkpt><trkpt lat="43.31552470169675" lon="12.874412761477798"><ele>433.0</ele><time>2026-04-19T17:43:00.06Z</time></trkpt><trkpt lat="43.31555914914642" lon="12.874757045343708"><ele>433.0</ele><time>2026-04-19T17:43:01.059Z</time></trkpt><trkpt lat="43.31559402448139" lon="12.87510560545517"><ele>433.0</ele><time>2026-04-19T17:43:02.058Z</time></trkpt><trkpt lat="43.31562804919785" lon="12.875445664247222"><ele>433.0</ele><time>2026-04-19T17:43:03.054Z</time></trkpt><trkpt lat="43.315664693514" lon="12.875827225650797"><ele>435.0</ele><time>2026-04-19T17:43:04.057Z</time></trkpt><trkpt lat="43.31569937187461" lon="12.876181854662148"><ele>437.0</ele><time>2026-04-19T17:43:05.05Z</time></trkpt><trkpt lat="43.31585089924656" lon="12.87790549421284"><ele>439.5</ele><time>2026-04-19T17:43:08.74Z</time></trkpt><trkpt lat="43.3159356739676" lon="12.87838366604131"><ele>442.0</ele><time>2026-04-19T17:43:09.738Z</time></trkpt><trkpt lat="43.31603549866678" lon="12.8788573750597"><ele>462.0</ele><time>2026-04-19T17:43:10.738Z</time></trkpt><trkpt lat="43.31614199549528" lon="12.879329136868495"><ele>482.0</ele><time>2026-04-19T17:43:11.739Z</time></trkpt><trkpt lat="43.31626460269052" lon="12.879793188602031"><ele>490.5</ele><time>2026-04-19T17:43:12.74Z</time></trkpt><trkpt lat="43.3163976287371" lon="12.880251393292385"><ele>499.0</ele><time>2026-04-19T17:43:13.74Z</time></trkpt><trkpt lat="43.316538587098925" lon="12.880704427977113"><ele>481.0</ele><time>2026-04-19T17:43:14.739Z</time></trkpt><trkpt lat="43.31668260268784" lon="12.881156662160521"><ele>463.0</ele><time>2026-04-19T17:43:15.74Z</time></trkpt><trkpt lat="43.316825298937125" lon="12.881609086976642"><ele>471.0</ele><time>2026-04-19T17:43:16.739Z</time></trkpt><trkpt lat="43.316967852528116" lon="12.882061059488281"><ele>479.0</ele><time>2026-04-19T17:43:17.738Z</time></trkpt><trkpt lat="43.31711213385119" lon="12.882513442707593"><ele>456.0</ele><time>2026-04-19T17:43:18.739Z</time></trkpt><trkpt lat="43.31725613844972" lon="12.882965426925196"><ele>433.0</ele><time>2026-04-19T17:43:19.739Z</time></trkpt><trkpt lat="43.31739966811096" lon="12.883418403267822"><ele>440.5</ele><time>2026-04-19T17:43:20.74Z</time></trkpt><trkpt lat="43.31754310370288" lon="12.883870382332576"><ele>448.0</ele><time>2026-04-19T17:43:21.74Z</time></trkpt><trkpt lat="43.31768654022674" lon="12.884322003926673"><ele>453.0</ele><time>2026-04-19T17:43:22.738Z</time></trkpt><trkpt lat="43.317831574417596" lon="12.884774278243647"><ele>458.0</ele><time>2026-04-19T17:43:23.74Z</time></trkpt><trkpt lat="43.31797408331888" lon="12.885226732765789"><ele>428.0</ele><time>2026-04-19T17:43:24.74Z</time></trkpt><trkpt lat="43.318116853127314" lon="12.885680319325013"><ele>398.0</ele><time>2026-04-19T17:43:25.741Z</time></trkpt><trkpt lat="43.318260250900444" lon="12.886132079492517"><ele>378.0</ele><time>2026-04-19T17:43:26.74Z</time></trkpt><trkpt lat="43.31869150866782" lon="12.887488662563797"><ele>387.0</ele><time>2026-04-19T17:43:29.741Z</time></trkpt><trkpt lat="43.31883561977405" lon="12.887940008276297"><ele>396.0</ele><time>2026-04-19T17:43:30.74Z</time></trkpt><trkpt lat="43.3189787895145" lon="12.888391850205316"><ele>395.0</ele><time>2026-04-19T17:43:31.739Z</time></trkpt><trkpt lat="43.31912187471623" lon="12.888845342325217"><ele>394.0</ele><time>2026-04-19T17:43:32.741Z</time></trkpt><trkpt lat="43.319265141060065" lon="12.88929759903856"><ele>394.0</ele><time>2026-04-19T17:43:33.74Z</time></trkpt><trkpt lat="43.319408545200744" lon="12.889750238381623"><ele>394.0</ele><time>2026-04-19T17:43:34.741Z</time></trkpt><trkpt lat="43.31955254835045" lon="12.89020045447458"><ele>378.0</ele><time>2026-04-19T17:43:35.738Z</time></trkpt><trkpt lat="43.318529355226055" lon="12.887054971841483"><ele>378.0</ele><time>2026-04-19T17:43:38.001Z</time></trkpt><trkpt lat="43.31863172523803" lon="12.887376200582468"><ele>378.0</ele><time>2026-04-19T17:43:39.001Z</time></trkpt><trkpt lat="43.3187430501722" lon="12.887690565698952"><ele>388.5</ele><time>2026-04-19T17:43:40.001Z</time></trkpt><trkpt lat="43.31884129489175" lon="12.887998037316326"><ele>399.0</ele><time>2026-04-19T17:43:41.001Z</time></trkpt><trkpt lat="43.31911971789475" lon="12.888887206670256"><ele>396.5</ele><time>2026-04-19T17:43:44Z</time></trkpt><trkpt lat="43.31921896235788" lon="12.889195966952444"><ele>394.0</ele><time>2026-04-19T17:43:45Z</time></trkpt><trkpt lat="43.31932548008379" lon="12.889522349249761"><ele>364.0</ele><time>2026-04-19T17:43:46.059Z</time></trkpt><trkpt lat="43.31982731508626" lon="12.891075038822205"><ele>364.0</ele><time>2026-04-19T17:43:51Z</time></trkpt><trkpt lat="43.31992396291318" lon="12.891385924959476"><ele>364.0</ele><time>2026-04-19T17:43:52Z</time></trkpt><trkpt lat="43.320026982441334" lon="12.89170444398884"><ele>372.0</ele><time>2026-04-19T17:43:53Z</time></trkpt><trkpt lat="43.32012399029799" lon="12.892014994271701"><ele>380.0</ele><time>2026-04-19T17:43:54Z</time></trkpt><trkpt lat="43.32022298438138" lon="12.892325472911478"><ele>393.5</ele><time>2026-04-19T17:43:55Z</time></trkpt><trkpt lat="43.32031437273655" lon="12.892628609114036"><ele>407.0</ele><time>2026-04-19T17:43:56Z</time></trkpt><trkpt lat="43.320415487324226" lon="12.892942342070327"><ele>494.0</ele><time>2026-04-19T17:43:57Z</time></trkpt><trkpt lat="43.321358458286745" lon="12.895889604880642"><ele>494.5</ele><time>2026-04-19T17:44:04.739Z</time></trkpt><trkpt lat="43.32150188060896" lon="12.89634258594883"><ele>495.0</ele><time>2026-04-19T17:44:05.741Z</time></trkpt><trkpt lat="43.321644717774475" lon="12.89679371887437"><ele>502.5</ele><time>2026-04-19T17:44:06.738Z</time></trkpt><trkpt lat="43.32178827187136" lon="12.897247116136"><ele>510.0</ele><time>2026-04-19T17:44:07.74Z</time></trkpt><trkpt lat="43.32193227108971" lon="12.897698402148187"><ele>510.0</ele><time>2026-04-19T17:44:08.739Z</time></trkpt><trkpt lat="43.32207639225594" lon="12.898150222231083"><ele>510.0</ele><time>2026-04-19T17:44:09.739Z</time></trkpt><trkpt lat="43.32222073075429" lon="12.898602932882989"><ele>491.5</ele><time>2026-04-19T17:44:10.74Z</time></trkpt><trkpt lat="43.32236455543174" lon="12.899054031960736"><ele>473.0</ele><time>2026-04-19T17:44:11.739Z</time></trkpt><trkpt lat="43.322508740766324" lon="12.899506262221964"><ele>468.0</ele><time>2026-04-19T17:44:12.739Z</time></trkpt><trkpt lat="43.322652948293076" lon="12.899958562087853"><ele>463.0</ele><time>2026-04-19T17:44:13.74Z</time></trkpt><trkpt lat="43.32279642002049" lon="12.900410660865006"><ele>458.5</ele><time>2026-04-19T17:44:14.74Z</time></trkpt><trkpt lat="43.32293922283865" lon="12.900863821807969"><ele>454.0</ele><time>2026-04-19T17:44:15.741Z</time></trkpt><trkpt lat="43.32308167468696" lon="12.901315869006622"><ele>440.5</ele><time>2026-04-19T17:44:16.739Z</time></trkpt><trkpt lat="43.32322498286302" lon="12.901768510999739"><ele>427.0</ele><time>2026-04-19T17:44:17.739Z</time></trkpt><trkpt lat="43.323368437073015" lon="12.90222078796809"><ele>423.0</ele><time>2026-04-19T17:44:18.739Z</time></trkpt><trkpt lat="43.323511863895234" lon="12.902673224832157"><ele>419.0</ele><time>2026-04-19T17:44:19.74Z</time></trkpt><trkpt lat="43.32365521671772" lon="12.903125458870786"><ele>410.5</ele><time>2026-04-19T17:44:20.739Z</time></trkpt><trkpt lat="43.323798786625915" lon="12.903578377748024"><ele>402.0</ele><time>2026-04-19T17:44:21.741Z</time></trkpt><trkpt lat="43.32394078629493" lon="12.904031681273874"><ele>396.5</ele><time>2026-04-19T17:44:22.741Z</time></trkpt><trkpt lat="43.32407752443461" lon="12.90448773347903"><ele>391.0</ele><time>2026-04-19T17:44:23.741Z</time></trkpt><trkpt lat="43.3242562494647" lon="12.905166078542116"><ele>390.5</ele><time>2026-04-19T17:44:35Z</time></trkpt><trkpt lat="43.324335911520144" lon="12.905472738552563"><ele>390.0</ele><time>2026-04-19T17:44:36Z</time></trkpt><trkpt lat="43.324417605444836" lon="12.905806879857817"><ele>393.5</ele><time>2026-04-19T17:44:37Z</time></trkpt><trkpt lat="43.32447429038797" lon="12.906120869175266"><ele>397.0</ele><time>2026-04-19T17:44:38Z</time></trkpt><trkpt lat="43.32453976407112" lon="12.90641726674713"><ele>397.0</ele><time>2026-04-19T17:44:39Z</time></trkpt><trkpt lat="43.32460148228622" lon="12.906730403503358"><ele>397.0</ele><time>2026-04-19T17:44:40Z</time></trkpt><trkpt lat="43.324656029369976" lon="12.907059172682226"><ele>401.0</ele><time>2026-04-19T17:44:41Z</time></trkpt><trkpt lat="43.32471239154896" lon="12.90738210617796"><ele>405.0</ele><time>2026-04-19T17:44:42Z</time></trkpt><trkpt lat="43.32476610764398" lon="12.90770534834268"><ele>395.0</ele><time>2026-04-19T17:44:43Z</time></trkpt><trkpt lat="43.324815447829664" lon="12.908031890184803"><ele>385.0</ele><time>2026-04-19T17:44:44Z</time></trkpt><trkpt lat="43.324862235840236" lon="12.908360742108602"><ele>386.5</ele><time>2026-04-19T17:44:45Z</time></trkpt><trkpt lat="43.32490696898773" lon="12.908692396487567"><ele>388.0</ele><time>2026-04-19T17:44:46Z</time></trkpt><trkpt lat="43.32495273046391" lon="12.909027946658059"><ele>390.0</ele><time>2026-04-19T17:44:47Z</time></trkpt><trkpt lat="43.32499656876174" lon="12.909363549903569"><ele>392.0</ele><time>2026-04-19T17:44:48Z</time></trkpt><trkpt lat="43.32504069678342" lon="12.909701245889098"><ele>392.0</ele><time>2026-04-19T17:44:49Z</time></trkpt><trkpt lat="43.325085213479035" lon="12.910040611099095"><ele>392.0</ele><time>2026-04-19T17:44:50Z</time></trkpt><trkpt lat="43.3251302720263" lon="12.910383095751305"><ele>398.5</ele><time>2026-04-19T17:44:51Z</time></trkpt><trkpt lat="43.325176346009364" lon="12.910728132070055"><ele>405.0</ele><time>2026-04-19T17:44:52Z</time></trkpt><trkpt lat="43.32522382453227" lon="12.911068497291"><ele>410.0</ele><time>2026-04-19T17:44:53Z</time></trkpt><trkpt lat="43.32526915961938" lon="12.911413689866817"><ele>415.0</ele><time>2026-04-19T17:44:54Z</time></trkpt><trkpt lat="43.32531534972352" lon="12.911783760322745"><ele>417.0</ele><time>2026-04-19T17:44:55.067Z</time></trkpt><trkpt lat="43.325359613612164" lon="12.912124651226842"><ele>419.0</ele><time>2026-04-19T17:44:56.062Z</time></trkpt><trkpt lat="43.32540607697321" lon="12.912464332681667"><ele>417.5</ele><time>2026-04-19T17:44:57.061Z</time></trkpt><trkpt lat="43.325452585464596" lon="12.912810621569502"><ele>416.0</ele><time>2026-04-19T17:44:58.066Z</time></trkpt><trkpt lat="43.32568566157814" lon="12.914598978670606"><ele>402.5</ele><time>2026-04-19T17:45:01.739Z</time></trkpt><trkpt lat="43.325749178515416" lon="12.915084502846833"><ele>389.0</ele><time>2026-04-19T17:45:02.739Z</time></trkpt><trkpt lat="43.32581227427175" lon="12.915570117514024"><ele>380.5</ele><time>2026-04-19T17:45:03.739Z</time></trkpt><trkpt lat="43.32587417841119" lon="12.916056140501544"><ele>372.0</ele><time>2026-04-19T17:45:04.74Z</time></trkpt><trkpt lat="43.32607529037075" lon="12.917303437299907"><ele>364.5</ele><time>2026-04-19T17:45:10Z</time></trkpt><trkpt lat="43.32612505723299" lon="12.917652305507126"><ele>357.0</ele><time>2026-04-19T17:45:11Z</time></trkpt><trkpt lat="43.32614578592476" lon="12.918012812951188"><ele>357.0</ele><time>2026-04-19T17:45:12Z</time></trkpt><trkpt lat="43.32616891483845" lon="12.918275355786346"><ele>357.0</ele><time>2026-04-19T17:45:13Z</time></trkpt><trkpt lat="43.32620349250469" lon="12.918424807594654"><ele>357.0</ele><time>2026-04-19T17:45:14Z</time></trkpt><trkpt lat="43.32623744731673" lon="12.91866038008742"><ele>356.3333333333333</ele><time>2026-04-19T17:45:15Z</time></trkpt><trkpt lat="43.32628681800774" lon="12.918950300708666"><ele>355.66666666666663</ele><time>2026-04-19T17:45:16Z</time></trkpt><trkpt lat="43.326342629781294" lon="12.919209357463604"><ele>355.0</ele><time>2026-04-19T17:45:17Z</time></trkpt><trkpt lat="43.32640136311564" lon="12.919469861949548"><ele>355.0</ele><time>2026-04-19T17:45:18Z</time></trkpt><trkpt lat="43.326465336288706" lon="12.919739751149999"><ele>355.0</ele><time>2026-04-19T17:45:19Z</time></trkpt><trkpt lat="43.32653583111181" lon="12.920013490777182"><ele>355.0</ele><time>2026-04-19T17:45:20Z</time></trkpt><trkpt lat="43.32661504862227" lon="12.920291952410864"><ele>353.0</ele><time>2026-04-19T17:45:21Z</time></trkpt><trkpt lat="43.326698807734324" lon="12.920573870885509"><ele>351.0</ele><time>2026-04-19T17:45:22Z</time></trkpt><trkpt lat="43.3267912640509" lon="12.920863809089449"><ele>348.0</ele><time>2026-04-19T17:45:23Z</time></trkpt><trkpt lat="43.32689318026843" lon="12.921158186530823"><ele>345.0</ele><time>2026-04-19T17:45:24Z</time></trkpt><trkpt lat="43.32700377524589" lon="12.921456294844802"><ele>343.5</ele><time>2026-04-19T17:45:25Z</time></trkpt><trkpt lat="43.32712465539453" lon="12.921756455827667"><ele>342.0</ele><time>2026-04-19T17:45:26Z</time></trkpt><trkpt lat="43.32725141638601" lon="12.922052916870621"><ele>343.0</ele><time>2026-04-19T17:45:27Z</time></trkpt><trkpt lat="43.32738596202815" lon="12.922350105119879"><ele>344.0</ele><time>2026-04-19T17:45:28Z</time></trkpt><trkpt lat="43.32752958398518" lon="12.922649143387845"><ele>344.0</ele><time>2026-04-19T17:45:29Z</time></trkpt><trkpt lat="43.3276798247527" lon="12.922945552618405"><ele>344.0</ele><time>2026-04-19T17:45:30Z</time></trkpt><trkpt lat="43.32783744273387" lon="12.923240280255575"><ele>341.0</ele><time>2026-04-19T17:45:31Z</time></trkpt><trkpt lat="43.32800317097891" lon="12.923532220868905"><ele>338.0</ele><time>2026-04-19T17:45:32Z</time></trkpt><trkpt lat="43.328176840411906" lon="12.923820259324424"><ele>338.0</ele><time>2026-04-19T17:45:33Z</time></trkpt><trkpt lat="43.32835920425447" lon="12.924102223160432"><ele>338.0</ele><time>2026-04-19T17:45:34Z</time></trkpt><trkpt lat="43.32855209547978" lon="12.924377493905869"><ele>334.5</ele><time>2026-04-19T17:45:35Z</time></trkpt><trkpt lat="43.32875231852346" lon="12.924645759312483"><ele>331.0</ele><time>2026-04-19T17:45:36Z</time></trkpt><trkpt lat="43.3289607115432" lon="12.924904360950634"><ele>328.5</ele><time>2026-04-19T17:45:37Z</time></trkpt><trkpt lat="43.32916999840941" lon="12.925158362517008"><ele>326.0</ele><time>2026-04-19T17:45:38Z</time></trkpt><trkpt lat="43.329388964980566" lon="12.925400893320786"><ele>326.0</ele><time>2026-04-19T17:45:39Z</time></trkpt><trkpt lat="43.32960746727082" lon="12.925638976864391"><ele>326.0</ele><time>2026-04-19T17:45:40Z</time></trkpt><trkpt lat="43.3298243114977" lon="12.925874518136032"><ele>322.5</ele><time>2026-04-19T17:45:41Z</time></trkpt><trkpt lat="43.330042550128724" lon="12.926109882212002"><ele>319.0</ele><time>2026-04-19T17:45:42Z</time></trkpt><trkpt lat="43.330259856845565" lon="12.926343182099767"><ele>319.0</ele><time>2026-04-19T17:45:43Z</time></trkpt><trkpt lat="43.33048219056342" lon="12.92657199848428"><ele>319.0</ele><time>2026-04-19T17:45:44Z</time></trkpt><trkpt lat="43.33070147720425" lon="12.926798750672932"><ele>320.5</ele><time>2026-04-19T17:45:45Z</time></trkpt><trkpt lat="43.33091857226022" lon="12.927022546855177"><ele>322.0</ele><time>2026-04-19T17:45:46Z</time></trkpt><trkpt lat="43.33113600585215" lon="12.927243679479485"><ele>322.0</ele><time>2026-04-19T17:45:47Z</time></trkpt><trkpt lat="43.3313475845215" lon="12.927464256277029"><ele>322.0</ele><time>2026-04-19T17:45:48Z</time></trkpt><trkpt lat="43.3315624048007" lon="12.927678687633396"><ele>325.0</ele><time>2026-04-19T17:45:49Z</time></trkpt><trkpt lat="43.33177343151582" lon="12.92789641815636"><ele>328.0</ele><time>2026-04-19T17:45:50Z</time></trkpt><trkpt lat="43.3319808877988" lon="12.92811246395271"><ele>328.0</ele><time>2026-04-19T17:45:51Z</time></trkpt><trkpt lat="43.33219024845861" lon="12.92832389948678"><ele>328.0</ele><time>2026-04-19T17:45:52Z</time></trkpt><trkpt lat="43.33242587397348" lon="12.928539710329694"><ele>332.5</ele><time>2026-04-19T17:45:53Z</time></trkpt><trkpt lat="43.332677015430306" lon="12.928762234151051"><ele>337.0</ele><time>2026-04-19T17:45:54Z</time></trkpt><trkpt lat="43.33290920884376" lon="12.928985447815837"><ele>337.0</ele><time>2026-04-19T17:45:55Z</time></trkpt><trkpt lat="43.33315311289524" lon="12.929218852613669"><ele>337.0</ele><time>2026-04-19T17:45:56Z</time></trkpt><trkpt lat="43.333395615358235" lon="12.929434831184354"><ele>342.5</ele><time>2026-04-19T17:45:57Z</time></trkpt><trkpt lat="43.33362475660693" lon="12.92965029694634"><ele>348.0</ele><time>2026-04-19T17:45:58Z</time></trkpt><trkpt lat="43.3338664339848" lon="12.929874690747884"><ele>354.0</ele><time>2026-04-19T17:45:59Z</time></trkpt><trkpt lat="43.33411881384866" lon="12.930108235281342"><ele>360.0</ele><time>2026-04-19T17:46:00.06Z</time></trkpt><trkpt lat="43.334355941495964" lon="12.930323783661548"><ele>360.0</ele><time>2026-04-19T17:46:01.061Z</time></trkpt><trkpt lat="43.334590808755785" lon="12.930530757788087"><ele>360.0</ele><time>2026-04-19T17:46:02.058Z</time></trkpt><trkpt lat="43.33483063694035" lon="12.930747012754358"><ele>323.0</ele><time>2026-04-19T17:46:03.053Z</time></trkpt><trkpt lat="43.33617610669512" lon="12.932988115485337"><ele>318.0</ele><time>2026-04-19T17:46:12Z</time></trkpt><trkpt lat="43.336507969677854" lon="12.933320622327502"><ele>313.0</ele><time>2026-04-19T17:46:13Z</time></trkpt><trkpt lat="43.33655965251094" lon="12.933575155833246"><ele>313.0</ele><time>2026-04-19T17:46:14Z</time></trkpt><trkpt lat="43.33671579667946" lon="12.933877559908455"><ele>313.0</ele><time>2026-04-19T17:46:15Z</time></trkpt><trkpt lat="43.33686423440355" lon="12.934175243162922"><ele>313.5</ele><time>2026-04-19T17:46:16Z</time></trkpt><trkpt lat="43.337009444828695" lon="12.934477345318145"><ele>314.0</ele><time>2026-04-19T17:46:17Z</time></trkpt><trkpt lat="43.337148927515095" lon="12.934786897476602"><ele>313.5</ele><time>2026-04-19T17:46:18Z</time></trkpt><trkpt lat="43.337287095441205" lon="12.935098866594616"><ele>313.0</ele><time>2026-04-19T17:46:19Z</time></trkpt><trkpt lat="43.33742327572004" lon="12.93541358883492"><ele>313.0</ele><time>2026-04-19T17:46:20Z</time></trkpt><trkpt lat="43.337552904447264" lon="12.93573528217939"><ele>313.0</ele><time>2026-04-19T17:46:21Z</time></trkpt><trkpt lat="43.337684470919065" lon="12.936062484712625"><ele>313.0</ele><time>2026-04-19T17:46:22Z</time></trkpt><trkpt lat="43.33781677347789" lon="12.936392773226375"><ele>313.0</ele><time>2026-04-19T17:46:23Z</time></trkpt><trkpt lat="43.33794801283233" lon="12.936729615258482"><ele>310.5</ele><time>2026-04-19T17:46:24Z</time></trkpt><trkpt lat="43.33807921614007" lon="12.937075782433672"><ele>308.0</ele><time>2026-04-19T17:46:25Z</time></trkpt><trkpt lat="43.33821062966692" lon="12.937426357342792"><ele>311.5</ele><time>2026-04-19T17:46:26Z</time></trkpt><trkpt lat="43.338343415664795" lon="12.937778888935673"><ele>315.0</ele><time>2026-04-19T17:46:27Z</time></trkpt><trkpt lat="43.33847452337203" lon="12.938132649596286"><ele>320.5</ele><time>2026-04-19T17:46:28Z</time></trkpt><trkpt lat="43.338599631010716" lon="12.938485947312692"><ele>326.0</ele><time>2026-04-19T17:46:29Z</time></trkpt><trkpt lat="43.338720056287094" lon="12.938838097683885"><ele>326.0</ele><time>2026-04-19T17:46:30Z</time></trkpt><trkpt lat="43.33883761367867" lon="12.93919379832629"><ele>326.0</ele><time>2026-04-19T17:46:31Z</time></trkpt><trkpt lat="43.33895588339838" lon="12.939549137975805"><ele>332.0</ele><time>2026-04-19T17:46:32Z</time></trkpt><trkpt lat="43.33907492453098" lon="12.93988858175288"><ele>338.0</ele><time>2026-04-19T17:46:33Z</time></trkpt><trkpt lat="43.33925577843207" lon="12.940248031368634"><ele>339.5</ele><time>2026-04-19T17:46:34Z</time></trkpt><trkpt lat="43.339414590966086" lon="12.940554435325128"><ele>341.0</ele><time>2026-04-19T17:46:35Z</time></trkpt><trkpt lat="43.33956806745838" lon="12.940898334467175"><ele>337.0</ele><time>2026-04-19T17:46:36.067Z</time></trkpt><trkpt lat="43.339712941807015" lon="12.941238581036792"><ele>333.0</ele><time>2026-04-19T17:46:37.065Z</time></trkpt><trkpt lat="43.33985798141496" lon="12.94157198063899"><ele>322.0</ele><time>2026-04-19T17:46:38.059Z</time></trkpt><trkpt lat="43.34001044039622" lon="12.941910298798636"><ele>311.0</ele><time>2026-04-19T17:46:39.061Z</time></trkpt><trkpt lat="43.34016309535659" lon="12.942247309293153"><ele>311.5</ele><time>2026-04-19T17:46:40.053Z</time></trkpt><trkpt lat="43.34031298152024" lon="12.942589025423043"><ele>312.0</ele><time>2026-04-19T17:46:41.035Z</time></trkpt><trkpt lat="43.34046462067236" lon="12.942933962809644"><ele>307.0</ele><time>2026-04-19T17:46:42.032Z</time></trkpt><trkpt lat="43.34061542699982" lon="12.943268284446969"><ele>302.0</ele><time>2026-04-19T17:46:43.022Z</time></trkpt><trkpt lat="43.34076451965259" lon="12.943607584908161"><ele>287.0</ele><time>2026-04-19T17:46:44.019Z</time></trkpt><trkpt lat="43.34145087137808" lon="12.945003162871538"><ele>287.5</ele><time>2026-04-19T17:46:46Z</time></trkpt><trkpt lat="43.3415947619215" lon="12.945312314616546"><ele>288.0</ele><time>2026-04-19T17:46:47Z</time></trkpt><trkpt lat="43.34092507666405" lon="12.944820970230328"><ele>297.5</ele><time>2026-04-19T17:46:48Z</time></trkpt><trkpt lat="43.34103874333531" lon="12.945125256413254"><ele>307.0</ele><time>2026-04-19T17:46:49Z</time></trkpt><trkpt lat="43.34114975143717" lon="12.945434283441768"><ele>307.0</ele><time>2026-04-19T17:46:50Z</time></trkpt><trkpt lat="43.341259737285824" lon="12.945746100389776"><ele>307.0</ele><time>2026-04-19T17:46:51Z</time></trkpt><trkpt lat="43.341362996288815" lon="12.946060652500442"><ele>294.5</ele><time>2026-04-19T17:46:52Z</time></trkpt><trkpt lat="43.34146742151409" lon="12.946357705542509"><ele>282.0</ele><time>2026-04-19T17:46:53Z</time></trkpt><trkpt lat="43.341559325568184" lon="12.946668299128516"><ele>279.0</ele><time>2026-04-19T17:46:54Z</time></trkpt><trkpt lat="43.341621387583785" lon="12.947013266872203"><ele>276.0</ele><time>2026-04-19T17:46:55Z</time></trkpt><trkpt lat="43.3417091839446" lon="12.94733828344031"><ele>275.5</ele><time>2026-04-19T17:46:56Z</time></trkpt><trkpt lat="43.34180109735633" lon="12.947658620813995"><ele>275.0</ele><time>2026-04-19T17:46:57Z</time></trkpt><trkpt lat="43.34188700998006" lon="12.947983821575228"><ele>275.0</ele><time>2026-04-19T17:46:58Z</time></trkpt><trkpt lat="43.34197578030373" lon="12.948304770981851"><ele>275.0</ele><time>2026-04-19T17:46:59Z</time></trkpt><trkpt lat="43.34206584862995" lon="12.9486277112437"><ele>274.5</ele><time>2026-04-19T17:47:00Z</time></trkpt><trkpt lat="43.34215823146144" lon="12.948949027565602"><ele>274.0</ele><time>2026-04-19T17:47:01Z</time></trkpt><trkpt lat="43.342248605261645" lon="12.949269168797803"><ele>272.0</ele><time>2026-04-19T17:47:02Z</time></trkpt><trkpt lat="43.342338801896894" lon="12.94959307504457"><ele>270.0</ele><time>2026-04-19T17:47:03Z</time></trkpt><trkpt lat="43.34242747190759" lon="12.94991352905"><ele>270.0</ele><time>2026-04-19T17:47:04Z</time></trkpt><trkpt lat="43.342516029456654" lon="12.950235570779629"><ele>270.0</ele><time>2026-04-19T17:47:05Z</time></trkpt><trkpt lat="43.34260261829136" lon="12.950554280055933"><ele>268.5</ele><time>2026-04-19T17:47:06Z</time></trkpt><trkpt lat="43.34268629093623" lon="12.95087445326387"><ele>267.0</ele><time>2026-04-19T17:47:07Z</time></trkpt><trkpt lat="43.34276780568541" lon="12.951197159551093"><ele>267.0</ele><time>2026-04-19T17:47:08Z</time></trkpt><trkpt lat="43.342848154372604" lon="12.951522026929823"><ele>267.0</ele><time>2026-04-19T17:47:09Z</time></trkpt><trkpt lat="43.34292834222321" lon="12.951846808272567"><ele>267.0</ele><time>2026-04-19T17:47:10Z</time></trkpt><trkpt lat="43.3430093781995" lon="12.952174042318838"><ele>267.0</ele><time>2026-04-19T17:47:11Z</time></trkpt><trkpt lat="43.343091670595456" lon="12.952503038962936"><ele>266.0</ele><time>2026-04-19T17:47:12Z</time></trkpt><trkpt lat="43.34317393243345" lon="12.952838459354"><ele>265.0</ele><time>2026-04-19T17:47:13Z</time></trkpt><trkpt lat="43.34325337057256" lon="12.953174943515448"><ele>264.0</ele><time>2026-04-19T17:47:14Z</time></trkpt><trkpt lat="43.34333338336287" lon="12.953512970084423"><ele>263.0</ele><time>2026-04-19T17:47:15Z</time></trkpt><trkpt lat="43.343411682517754" lon="12.953841509211301"><ele>263.0</ele><time>2026-04-19T17:47:16Z</time></trkpt><trkpt lat="43.34348762238372" lon="12.954154070969322"><ele>263.0</ele><time>2026-04-19T17:47:17Z</time></trkpt><trkpt lat="43.34355725967692" lon="12.954450686924476"><ele>260.0</ele><time>2026-04-19T17:47:18Z</time></trkpt><trkpt lat="43.343628922153904" lon="12.954750118565833"><ele>257.0</ele><time>2026-04-19T17:47:19Z</time></trkpt><trkpt lat="43.34370279717672" lon="12.95504837739492"><ele>255.5</ele><time>2026-04-19T17:47:20Z</time></trkpt><trkpt lat="43.34377708257141" lon="12.955363146530088"><ele>254.0</ele><time>2026-04-19T17:47:21Z</time></trkpt><trkpt lat="43.34385326870534" lon="12.955679774037351"><ele>252.5</ele><time>2026-04-19T17:47:22Z</time></trkpt><trkpt lat="43.34392978342884" lon="12.955996924200146"><ele>251.0</ele><time>2026-04-19T17:47:23Z</time></trkpt><trkpt lat="43.34400748245933" lon="12.956319520378097"><ele>251.0</ele><time>2026-04-19T17:47:24Z</time></trkpt><trkpt lat="43.34408588398316" lon="12.956645377188579"><ele>251.0</ele><time>2026-04-19T17:47:25Z</time></trkpt><trkpt lat="43.344164876353084" lon="12.956972828949263"><ele>250.5</ele><time>2026-04-19T17:47:26Z</time></trkpt><trkpt lat="43.34424560584959" lon="12.957302179146888"><ele>250.0</ele><time>2026-04-19T17:47:27Z</time></trkpt><trkpt lat="43.34432688863686" lon="12.957636221808759"><ele>251.0</ele><time>2026-04-19T17:47:28Z</time></trkpt><trkpt lat="43.34440776520495" lon="12.957975754962566"><ele>252.0</ele><time>2026-04-19T17:47:29Z</time></trkpt><trkpt lat="43.34448820786842" lon="12.958316949126647"><ele>253.5</ele><time>2026-04-19T17:47:30Z</time></trkpt><trkpt lat="43.344568835214105" lon="12.958663259091297"><ele>255.0</ele><time>2026-04-19T17:47:31Z</time></trkpt><trkpt lat="43.34464491928488" lon="12.959012578810992"><ele>257.0</ele><time>2026-04-19T17:47:32Z</time></trkpt><trkpt lat="43.34471129309589" lon="12.959367528690972"><ele>259.0</ele><time>2026-04-19T17:47:33Z</time></trkpt><trkpt lat="43.3447706531604" lon="12.959726430090074"><ele>263.0</ele><time>2026-04-19T17:47:34Z</time></trkpt><trkpt lat="43.34481768867171" lon="12.960090939582777"><ele>267.0</ele><time>2026-04-19T17:47:35Z</time></trkpt><trkpt lat="43.344856321450784" lon="12.960458903648231"><ele>267.0</ele><time>2026-04-19T17:47:36Z</time></trkpt><trkpt lat="43.34488640239138" lon="12.960824774351623"><ele>267.0</ele><time>2026-04-19T17:47:37Z</time></trkpt><trkpt lat="43.344908912797" lon="12.961189585600904"><ele>268.5</ele><time>2026-04-19T17:47:38Z</time></trkpt><trkpt lat="43.34492435011645" lon="12.961548307294667"><ele>270.0</ele><time>2026-04-19T17:47:39Z</time></trkpt><trkpt lat="43.34493152709113" lon="12.961905424186957"><ele>270.0</ele><time>2026-04-19T17:47:40Z</time></trkpt><trkpt lat="43.344929708295275" lon="12.962255565581135"><ele>270.0</ele><time>2026-04-19T17:47:41Z</time></trkpt><trkpt lat="43.3449215055056" lon="12.962603433359066"><ele>270.5</ele><time>2026-04-19T17:47:42Z</time></trkpt><trkpt lat="43.34490786280845" lon="12.962949064029335"><ele>271.0</ele><time>2026-04-19T17:47:43Z</time></trkpt><trkpt lat="43.34488749315791" lon="12.963292162423793"><ele>270.5</ele><time>2026-04-19T17:47:44Z</time></trkpt><trkpt lat="43.344862984556364" lon="12.963634906188782"><ele>270.0</ele><time>2026-04-19T17:47:45Z</time></trkpt><trkpt lat="43.34483360498523" lon="12.963974512793683"><ele>270.5</ele><time>2026-04-19T17:47:46Z</time></trkpt><trkpt lat="43.34480284837122" lon="12.964311510167576"><ele>271.0</ele><time>2026-04-19T17:47:47Z</time></trkpt><trkpt lat="43.34477142158372" lon="12.964654616599418"><ele>271.0</ele><time>2026-04-19T17:47:48Z</time></trkpt><trkpt lat="43.34474008830481" lon="12.964995305875027"><ele>271.0</ele><time>2026-04-19T17:47:49Z</time></trkpt><trkpt lat="43.344708651866256" lon="12.965341045857917"><ele>270.0</ele><time>2026-04-19T17:47:50Z</time></trkpt><trkpt lat="43.34467683570243" lon="12.9656899002944"><ele>269.0</ele><time>2026-04-19T17:47:51Z</time></trkpt><trkpt lat="43.34464479579564" lon="12.96604213897158"><ele>268.5</ele><time>2026-04-19T17:47:52Z</time></trkpt><trkpt lat="43.344611661426626" lon="12.966398173728898"><ele>268.0</ele><time>2026-04-19T17:47:53Z</time></trkpt><trkpt lat="43.344578525748624" lon="12.966756495579776"><ele>268.0</ele><time>2026-04-19T17:47:54Z</time></trkpt><trkpt lat="43.34454500645763" lon="12.967115574549307"><ele>268.0</ele><time>2026-04-19T17:47:55Z</time></trkpt><trkpt lat="43.344511888586126" lon="12.96747565746276"><ele>268.5</ele><time>2026-04-19T17:47:56Z</time></trkpt><trkpt lat="43.3444789241472" lon="12.967838416526673"><ele>269.0</ele><time>2026-04-19T17:47:57Z</time></trkpt><trkpt lat="43.34444537923894" lon="12.968202544275234"><ele>269.5</ele><time>2026-04-19T17:47:58Z</time></trkpt><trkpt lat="43.34441241404467" lon="12.968566443814305"><ele>270.0</ele><time>2026-04-19T17:47:59Z</time></trkpt><trkpt lat="43.344377974406264" lon="12.968930616512079"><ele>267.5</ele><time>2026-04-19T17:48:00Z</time></trkpt><trkpt lat="43.34434370955429" lon="12.969293502815814"><ele>265.0</ele><time>2026-04-19T17:48:01Z</time></trkpt><trkpt lat="43.34431200543067" lon="12.9696558784759"><ele>265.0</ele><time>2026-04-19T17:48:02Z</time></trkpt><trkpt lat="43.344279830533196" lon="12.970020355838416"><ele>265.0</ele><time>2026-04-19T17:48:03Z</time></trkpt><trkpt lat="43.344246937703325" lon="12.970383168688024"><ele>263.5</ele><time>2026-04-19T17:48:04Z</time></trkpt><trkpt lat="43.34421419514128" lon="12.97074598561346"><ele>262.0</ele><time>2026-04-19T17:48:05Z</time></trkpt><trkpt lat="43.34418147399403" lon="12.971108322452562"><ele>261.0</ele><time>2026-04-19T17:48:06Z</time></trkpt><trkpt lat="43.34414714980161" lon="12.971467798052451"><ele>260.0</ele><time>2026-04-19T17:48:07Z</time></trkpt><trkpt lat="43.34411406410514" lon="12.971818354493879"><ele>260.0</ele><time>2026-04-19T17:48:08Z</time></trkpt><trkpt lat="43.34408224466822" lon="12.97216689173512"><ele>260.0</ele><time>2026-04-19T17:48:09Z</time></trkpt><trkpt lat="43.344049284738695" lon="12.972510969071148"><ele>260.5</ele><time>2026-04-19T17:48:10Z</time></trkpt><trkpt lat="43.344017463743896" lon="12.972854360009887"><ele>261.0</ele><time>2026-04-19T17:48:11Z</time></trkpt><trkpt lat="43.34398835146942" lon="12.973195061614037"><ele>260.0</ele><time>2026-04-19T17:48:12Z</time></trkpt><trkpt lat="43.34395875128861" lon="12.97353662278085"><ele>259.0</ele><time>2026-04-19T17:48:13Z</time></trkpt><trkpt lat="43.34392883669397" lon="12.97387869200111"><ele>257.5</ele><time>2026-04-19T17:48:14Z</time></trkpt><trkpt lat="43.34390084768447" lon="12.974224760740194"><ele>256.0</ele><time>2026-04-19T17:48:15Z</time></trkpt><trkpt lat="43.34388212031274" lon="12.97457213617759"><ele>254.5</ele><time>2026-04-19T17:48:16Z</time></trkpt><trkpt lat="43.3438725969528" lon="12.974925132401214"><ele>253.0</ele><time>2026-04-19T17:48:17Z</time></trkpt><trkpt lat="43.34387071218107" lon="12.975282116275826"><ele>253.0</ele><time>2026-04-19T17:48:18Z</time></trkpt><trkpt lat="43.34387494564699" lon="12.975639847566844"><ele>253.0</ele><time>2026-04-19T17:48:19Z</time></trkpt><trkpt lat="43.34388740444604" lon="12.975998232400682"><ele>254.0</ele><time>2026-04-19T17:48:20Z</time></trkpt><trkpt lat="43.3439057448269" lon="12.976356406146007"><ele>255.0</ele><time>2026-04-19T17:48:21Z</time></trkpt><trkpt lat="43.343929800967814" lon="12.976713004167062"><ele>256.0</ele><time>2026-04-19T17:48:22Z</time></trkpt><trkpt lat="43.34396150473945" lon="12.977064614859298"><ele>257.0</ele><time>2026-04-19T17:48:23Z</time></trkpt><trkpt lat="43.34399758212345" lon="12.977415662832177"><ele>256.5</ele><time>2026-04-19T17:48:24Z</time></trkpt><trkpt lat="43.34403856788437" lon="12.977766273614003"><ele>256.0</ele><time>2026-04-19T17:48:25Z</time></trkpt><trkpt lat="43.34408749209963" lon="12.9781133957418"><ele>255.5</ele><time>2026-04-19T17:48:26Z</time></trkpt><trkpt lat="43.34414223735545" lon="12.97846369145811"><ele>255.0</ele><time>2026-04-19T17:48:27Z</time></trkpt><trkpt lat="43.3442076786227" lon="12.978810114470674"><ele>255.0</ele><time>2026-04-19T17:48:28Z</time></trkpt><trkpt lat="43.34427949049524" lon="12.979155794671621"><ele>255.0</ele><time>2026-04-19T17:48:29Z</time></trkpt><trkpt lat="43.344361523276554" lon="12.979498123400452"><ele>256.0</ele><time>2026-04-19T17:48:30Z</time></trkpt><trkpt lat="43.34444743414946" lon="12.979841039205699"><ele>257.0</ele><time>2026-04-19T17:48:31Z</time></trkpt><trkpt lat="43.34453795546557" lon="12.980181435399052"><ele>259.0</ele><time>2026-04-19T17:48:32Z</time></trkpt><trkpt lat="43.3446309990116" lon="12.980521695026075"><ele>261.0</ele><time>2026-04-19T17:48:33Z</time></trkpt><trkpt lat="43.34472491238518" lon="12.980863618510906"><ele>261.0</ele><time>2026-04-19T17:48:34Z</time></trkpt><trkpt lat="43.34481726967843" lon="12.981207734105704"><ele>261.0</ele><time>2026-04-19T17:48:35Z</time></trkpt><trkpt lat="43.344911004499316" lon="12.981550464019048"><ele>254.0</ele><time>2026-04-19T17:48:36Z</time></trkpt><trkpt lat="43.345004551515025" lon="12.981895616689213"><ele>247.0</ele><time>2026-04-19T17:48:37Z</time></trkpt><trkpt lat="43.345097749291604" lon="12.9822369031873"><ele>243.5</ele><time>2026-04-19T17:48:38Z</time></trkpt><trkpt lat="43.34519086742932" lon="12.982579961838795"><ele>240.0</ele><time>2026-04-19T17:48:39Z</time></trkpt><trkpt lat="43.34528345404768" lon="12.98292268278545"><ele>240.0</ele><time>2026-04-19T17:48:40Z</time></trkpt><trkpt lat="43.345378322979876" lon="12.9832670405632"><ele>240.0</ele><time>2026-04-19T17:48:41Z</time></trkpt><trkpt lat="43.34547329436788" lon="12.983607524312232"><ele>240.0</ele><time>2026-04-19T17:48:42Z</time></trkpt><trkpt lat="43.34556728580079" lon="12.983955644060556"><ele>240.0</ele><time>2026-04-19T17:48:43Z</time></trkpt><trkpt lat="43.34566140621585" lon="12.984303835054332"><ele>236.0</ele><time>2026-04-19T17:48:44Z</time></trkpt><trkpt lat="43.34575728458" lon="12.98465238719896"><ele>232.0</ele><time>2026-04-19T17:48:45Z</time></trkpt><trkpt lat="43.345852791605445" lon="12.985000680362168"><ele>233.0</ele><time>2026-04-19T17:48:46Z</time></trkpt><trkpt lat="43.345946493739326" lon="12.985338968409815"><ele>234.0</ele><time>2026-04-19T17:48:47Z</time></trkpt><trkpt lat="43.346032749412636" lon="12.985654116401902"><ele>234.5</ele><time>2026-04-19T17:48:48Z</time></trkpt><trkpt lat="43.34611792738096" lon="12.985966424121822"><ele>235.0</ele><time>2026-04-19T17:48:49Z</time></trkpt><trkpt lat="43.34620473885567" lon="12.98628101641876"><ele>235.0</ele><time>2026-04-19T17:48:50Z</time></trkpt><trkpt lat="43.34629279827248" lon="12.98660048816855"><ele>235.0</ele><time>2026-04-19T17:48:51Z</time></trkpt><trkpt lat="43.34637915509508" lon="12.986921018072948"><ele>237.5</ele><time>2026-04-19T17:48:52Z</time></trkpt><trkpt lat="43.34646307035948" lon="12.98724104191429"><ele>240.0</ele><time>2026-04-19T17:48:53Z</time></trkpt><trkpt lat="43.34654699166653" lon="12.987558785908014"><ele>240.0</ele><time>2026-04-19T17:48:54Z</time></trkpt><trkpt lat="43.34663739900177" lon="12.987868474568712"><ele>240.0</ele><time>2026-04-19T17:48:55Z</time></trkpt><trkpt lat="43.34673981631348" lon="12.988172108761079"><ele>240.0</ele><time>2026-04-19T17:48:56Z</time></trkpt><trkpt lat="43.34686002204411" lon="12.98846140375178"><ele>240.0</ele><time>2026-04-19T17:48:57Z</time></trkpt><trkpt lat="43.34699090003799" lon="12.988744061085486"><ele>240.0</ele><time>2026-04-19T17:48:58Z</time></trkpt><trkpt lat="43.34713106208097" lon="12.989020325567441"><ele>240.0</ele><time>2026-04-19T17:48:59Z</time></trkpt><trkpt lat="43.347274646060406" lon="12.989301254837377"><ele>251.5</ele><time>2026-04-19T17:49:00Z</time></trkpt><trkpt lat="43.34740990709025" lon="12.989579041576711"><ele>263.0</ele><time>2026-04-19T17:49:01Z</time></trkpt><trkpt lat="43.34754361439857" lon="12.989855355419703"><ele>264.5</ele><time>2026-04-19T17:49:02Z</time></trkpt><trkpt lat="43.34768004051719" lon="12.990137106748076"><ele>266.0</ele><time>2026-04-19T17:49:03Z</time></trkpt><trkpt lat="43.34783152091611" lon="12.990460357857605"><ele>266.0</ele><time>2026-04-19T17:49:04Z</time></trkpt><trkpt lat="43.34797459439937" lon="12.990766525503524"><ele>266.0</ele><time>2026-04-19T17:49:05Z</time></trkpt><trkpt lat="43.3481167881671" lon="12.991061136892558"><ele>283.0</ele><time>2026-04-19T17:49:06Z</time></trkpt><trkpt lat="43.348259344665784" lon="12.991364338339302"><ele>300.0</ele><time>2026-04-19T17:49:07Z</time></trkpt><trkpt lat="43.348402367059" lon="12.991672630434254"><ele>290.5</ele><time>2026-04-19T17:49:08Z</time></trkpt><trkpt lat="43.34854668934568" lon="12.991986024025357"><ele>281.0</ele><time>2026-04-19T17:49:09Z</time></trkpt><trkpt lat="43.34868987610303" lon="12.992294584884805"><ele>280.5</ele><time>2026-04-19T17:49:10Z</time></trkpt><trkpt lat="43.3488303809161" lon="12.992599917367944"><ele>280.0</ele><time>2026-04-19T17:49:11Z</time></trkpt><trkpt lat="43.34901096474875" lon="12.99280750264136"><ele>280.0</ele><time>2026-04-19T17:49:12Z</time></trkpt><trkpt lat="43.34914571286367" lon="12.993080427436036"><ele>280.0</ele><time>2026-04-19T17:49:13Z</time></trkpt><trkpt lat="43.34928553242605" lon="12.993353596258236"><ele>264.5</ele><time>2026-04-19T17:49:14Z</time></trkpt><trkpt lat="43.34941965095882" lon="12.993618464745541"><ele>249.0</ele><time>2026-04-19T17:49:15Z</time></trkpt><trkpt lat="43.34955164837258" lon="12.993872177828544"><ele>249.0</ele><time>2026-04-19T17:49:16Z</time></trkpt><trkpt lat="43.3496813521665" lon="12.994107921067519"><ele>249.0</ele><time>2026-04-19T17:49:17Z</time></trkpt><trkpt lat="43.34980790820223" lon="12.99436155994915"><ele>249.0</ele><time>2026-04-19T17:49:18Z</time></trkpt><trkpt lat="43.34993425500196" lon="12.994605344475673"><ele>241.0</ele><time>2026-04-19T17:49:19Z</time></trkpt><trkpt lat="43.35007611736077" lon="12.994864724219724"><ele>233.0</ele><time>2026-04-19T17:49:20Z</time></trkpt><trkpt lat="43.35019885147379" lon="12.995128305540305"><ele>231.0</ele><time>2026-04-19T17:49:21Z</time></trkpt><trkpt lat="43.35033399198804" lon="12.995397109460345"><ele>229.0</ele><time>2026-04-19T17:49:22Z</time></trkpt><trkpt lat="43.35045746541726" lon="12.995669256449967"><ele>228.0</ele><time>2026-04-19T17:49:23Z</time></trkpt><trkpt lat="43.35058826814253" lon="12.99593791372055"><ele>227.0</ele><time>2026-04-19T17:49:24Z</time></trkpt><trkpt lat="43.35071218841447" lon="12.996222256644936"><ele>227.0</ele><time>2026-04-19T17:49:25Z</time></trkpt><trkpt lat="43.35084660503668" lon="12.996493699712008"><ele>227.0</ele><time>2026-04-19T17:49:26Z</time></trkpt><trkpt lat="43.350982749112546" lon="12.996767984438673"><ele>229.0</ele><time>2026-04-19T17:49:27Z</time></trkpt><trkpt lat="43.351118312434096" lon="12.997041591376476"><ele>231.0</ele><time>2026-04-19T17:49:28Z</time></trkpt><trkpt lat="43.35125639645179" lon="12.997310251306224"><ele>231.5</ele><time>2026-04-19T17:49:29Z</time></trkpt><trkpt lat="43.35139526342802" lon="12.997575513041571"><ele>232.0</ele><time>2026-04-19T17:49:30Z</time></trkpt><trkpt lat="43.35153814523575" lon="12.997835944172703"><ele>232.0</ele><time>2026-04-19T17:49:31Z</time></trkpt><trkpt lat="43.35169030085163" lon="12.998088209611577"><ele>232.0</ele><time>2026-04-19T17:49:32Z</time></trkpt><trkpt lat="43.35185373322475" lon="12.99833201767887"><ele>229.5</ele><time>2026-04-19T17:49:33Z</time></trkpt><trkpt lat="43.35203028743651" lon="12.998556256332115"><ele>227.0</ele><time>2026-04-19T17:49:34Z</time></trkpt><trkpt lat="43.352217051175884" lon="12.99877412810203"><ele>227.0</ele><time>2026-04-19T17:49:35Z</time></trkpt><trkpt lat="43.352412823229116" lon="12.998976257927339"><ele>227.0</ele><time>2026-04-19T17:49:36Z</time></trkpt><trkpt lat="43.35261769876972" lon="12.999162788959623"><ele>227.0</ele><time>2026-04-19T17:49:37Z</time></trkpt><trkpt lat="43.35283198168777" lon="12.999329042303897"><ele>227.0</ele><time>2026-04-19T17:49:38Z</time></trkpt><trkpt lat="43.35305564982065" lon="12.999479299991016"><ele>226.5</ele><time>2026-04-19T17:49:39Z</time></trkpt><trkpt lat="43.35328700363622" lon="12.999612344488613"><ele>226.0</ele><time>2026-04-19T17:49:40Z</time></trkpt><trkpt lat="43.35352384020437" lon="12.99972490079471"><ele>226.0</ele><time>2026-04-19T17:49:41Z</time></trkpt><trkpt lat="43.35376276124062" lon="12.999811955842482"><ele>226.0</ele><time>2026-04-19T17:49:42Z</time></trkpt><trkpt lat="43.35400946834392" lon="12.999887247892659"><ele>227.0</ele><time>2026-04-19T17:49:43Z</time></trkpt><trkpt lat="43.354258539840416" lon="12.999936365426947"><ele>228.0</ele><time>2026-04-19T17:49:44Z</time></trkpt><trkpt lat="43.354508383657326" lon="12.99996284453407"><ele>229.0</ele><time>2026-04-19T17:49:45Z</time></trkpt><trkpt lat="43.35476317138117" lon="12.99996629341004"><ele>230.0</ele><time>2026-04-19T17:49:46Z</time></trkpt><trkpt lat="43.35501889291484" lon="12.999947828315172"><ele>230.0</ele><time>2026-04-19T17:49:47Z</time></trkpt><trkpt lat="43.3552744301296" lon="12.999906454798404"><ele>230.0</ele><time>2026-04-19T17:49:48Z</time></trkpt><trkpt lat="43.35552779478733" lon="12.999843260647902"><ele>236.5</ele><time>2026-04-19T17:49:49Z</time></trkpt><trkpt lat="43.355779463201074" lon="12.999758031956393"><ele>243.0</ele><time>2026-04-19T17:49:50Z</time></trkpt><trkpt lat="43.3560262023392" lon="12.999650718176861"><ele>243.0</ele><time>2026-04-19T17:49:51Z</time></trkpt><trkpt lat="43.35626954695745" lon="12.999516503929028"><ele>243.0</ele><time>2026-04-19T17:49:52Z</time></trkpt><trkpt lat="43.35650585915561" lon="12.999358328561621"><ele>247.5</ele><time>2026-04-19T17:49:53Z</time></trkpt><trkpt lat="43.35673785472742" lon="12.999185270332545"><ele>252.0</ele><time>2026-04-19T17:49:54Z</time></trkpt><trkpt lat="43.35696118346229" lon="12.998988716564469"><ele>244.0</ele><time>2026-04-19T17:49:55Z</time></trkpt><trkpt lat="43.357180764818665" lon="12.998777587732299"><ele>236.0</ele><time>2026-04-19T17:49:56Z</time></trkpt><trkpt lat="43.35738993914397" lon="12.998546201036051"><ele>231.0</ele><time>2026-04-19T17:49:57Z</time></trkpt><trkpt lat="43.357596740383805" lon="12.998308177759947"><ele>226.0</ele><time>2026-04-19T17:49:58Z</time></trkpt><trkpt lat="43.35779819536426" lon="12.998070225528108"><ele>226.0</ele><time>2026-04-19T17:49:59Z</time></trkpt><trkpt lat="43.35800525576498" lon="12.997837207293117"><ele>226.0</ele><time>2026-04-19T17:50:00Z</time></trkpt><trkpt lat="43.3582153121979" lon="12.99761699635409"><ele>226.5</ele><time>2026-04-19T17:50:01Z</time></trkpt><trkpt lat="43.35842878651138" lon="12.997410322948822"><ele>227.0</ele><time>2026-04-19T17:50:02Z</time></trkpt><trkpt lat="43.35864872832213" lon="12.997219903078605"><ele>229.5</ele><time>2026-04-19T17:50:03Z</time></trkpt><trkpt lat="43.35887345904577" lon="12.997048109945888"><ele>232.0</ele><time>2026-04-19T17:50:04Z</time></trkpt><trkpt lat="43.359109989660254" lon="12.996887940995022"><ele>232.0</ele><time>2026-04-19T17:50:05Z</time></trkpt><trkpt lat="43.359349749289606" lon="12.996744831704708"><ele>232.0</ele><time>2026-04-19T17:50:06Z</time></trkpt><trkpt lat="43.35958989495126" lon="12.996617743741112"><ele>228.0</ele><time>2026-04-19T17:50:07Z</time></trkpt><trkpt lat="43.35983683137362" lon="12.996498708541425"><ele>224.0</ele><time>2026-04-19T17:50:08Z</time></trkpt><trkpt lat="43.36008588443213" lon="12.996384412843229"><ele>224.0</ele><time>2026-04-19T17:50:09Z</time></trkpt><trkpt lat="43.3603349186835" lon="12.996269487928156"><ele>224.0</ele><time>2026-04-19T17:50:10Z</time></trkpt><trkpt lat="43.360581957800676" lon="12.996156084099711"><ele>227.0</ele><time>2026-04-19T17:50:11Z</time></trkpt><trkpt lat="43.36083353789898" lon="12.99603997277089"><ele>230.0</ele><time>2026-04-19T17:50:12Z</time></trkpt><trkpt lat="43.36108402362764" lon="12.995922579796574"><ele>227.0</ele><time>2026-04-19T17:50:13Z</time></trkpt><trkpt lat="43.36133105966094" lon="12.995809916775723"><ele>224.0</ele><time>2026-04-19T17:50:14Z</time></trkpt><trkpt lat="43.361583160505646" lon="12.995694378033926"><ele>224.0</ele><time>2026-04-19T17:50:15Z</time></trkpt><trkpt lat="43.36183425148129" lon="12.995579187040565"><ele>224.0</ele><time>2026-04-19T17:50:16Z</time></trkpt><trkpt lat="43.36208574260718" lon="12.995462489241735"><ele>224.5</ele><time>2026-04-19T17:50:17Z</time></trkpt><trkpt lat="43.362338796277555" lon="12.995346945225204"><ele>225.0</ele><time>2026-04-19T17:50:18Z</time></trkpt><trkpt lat="43.36259159619505" lon="12.995231975269306"><ele>225.0</ele><time>2026-04-19T17:50:19Z</time></trkpt><trkpt lat="43.36284397510501" lon="12.995117803512686"><ele>225.0</ele><time>2026-04-19T17:50:20Z</time></trkpt><trkpt lat="43.36310082328316" lon="12.995003724417753"><ele>224.5</ele><time>2026-04-19T17:50:21Z</time></trkpt><trkpt lat="43.363352862852835" lon="12.994889336840199"><ele>224.0</ele><time>2026-04-19T17:50:22Z</time></trkpt><trkpt lat="43.363606699240144" lon="12.994770488147637"><ele>224.0</ele><time>2026-04-19T17:50:23Z</time></trkpt><trkpt lat="43.36385817110836" lon="12.994651375790578"><ele>224.0</ele><time>2026-04-19T17:50:24Z</time></trkpt><trkpt lat="43.364110428503494" lon="12.994532305784686"><ele>228.5</ele><time>2026-04-19T17:50:25Z</time></trkpt><trkpt lat="43.36435981465466" lon="12.99441619588453"><ele>233.0</ele><time>2026-04-19T17:50:26Z</time></trkpt><trkpt lat="43.364612269125956" lon="12.994299734370744"><ele>230.5</ele><time>2026-04-19T17:50:27Z</time></trkpt><trkpt lat="43.36486487601074" lon="12.994183903797515"><ele>228.0</ele><time>2026-04-19T17:50:28Z</time></trkpt><trkpt lat="43.36511579412" lon="12.994068364075712"><ele>228.0</ele><time>2026-04-19T17:50:29Z</time></trkpt><trkpt lat="43.36536560445789" lon="12.993952558598767"><ele>228.0</ele><time>2026-04-19T17:50:30Z</time></trkpt><trkpt lat="43.36561430798126" lon="12.993837091323678"><ele>235.5</ele><time>2026-04-19T17:50:31Z</time></trkpt><trkpt lat="43.36586305934506" lon="12.993721625230911"><ele>243.0</ele><time>2026-04-19T17:50:32Z</time></trkpt><trkpt lat="43.366108570990065" lon="12.993606164352837"><ele>243.0</ele><time>2026-04-19T17:50:33Z</time></trkpt><trkpt lat="43.36635287444002" lon="12.993492204210773"><ele>243.0</ele><time>2026-04-19T17:50:34Z</time></trkpt><trkpt lat="43.3665929679035" lon="12.993376998030458"><ele>233.5</ele><time>2026-04-19T17:50:35Z</time></trkpt><trkpt lat="43.36683580923213" lon="12.993264511964888"><ele>224.0</ele><time>2026-04-19T17:50:36Z</time></trkpt><trkpt lat="43.367075153586605" lon="12.993152377026483"><ele>232.5</ele><time>2026-04-19T17:50:37Z</time></trkpt><trkpt lat="43.36730275187002" lon="12.99304329632733"><ele>241.0</ele><time>2026-04-19T17:50:38Z</time></trkpt><trkpt lat="43.36752711495727" lon="12.992936135953643"><ele>241.0</ele><time>2026-04-19T17:50:39Z</time></trkpt><trkpt lat="43.36774699279638" lon="12.992828787521818"><ele>241.0</ele><time>2026-04-19T17:50:40Z</time></trkpt><trkpt lat="43.36796437891763" lon="12.992718326010142"><ele>234.0</ele><time>2026-04-19T17:50:41Z</time></trkpt><trkpt lat="43.36817718282905" lon="12.992601182544467"><ele>227.0</ele><time>2026-04-19T17:50:42Z</time></trkpt><trkpt lat="43.368385384945896" lon="12.992484317424962"><ele>227.0</ele><time>2026-04-19T17:50:43Z</time></trkpt><trkpt lat="43.36858663046151" lon="12.992352810004233"><ele>227.0</ele><time>2026-04-19T17:50:44Z</time></trkpt><trkpt lat="43.368786364020586" lon="12.992212287729815"><ele>227.0</ele><time>2026-04-19T17:50:45Z</time></trkpt><trkpt lat="43.368978147888186" lon="12.992068343709203"><ele>225.66666666666669</ele><time>2026-04-19T17:50:46Z</time></trkpt><trkpt lat="43.36915194738023" lon="12.991920721787942"><ele>224.33333333333331</ele><time>2026-04-19T17:50:47Z</time></trkpt><trkpt lat="43.369313532083886" lon="12.991774347597925"><ele>223.0</ele><time>2026-04-19T17:50:48Z</time></trkpt><trkpt lat="43.36946684132703" lon="12.99162288630061"><ele>223.0</ele><time>2026-04-19T17:50:49Z</time></trkpt><trkpt lat="43.36960902794538" lon="12.991477273901673"><ele>223.0</ele><time>2026-04-19T17:50:50Z</time></trkpt><trkpt lat="43.36974290203384" lon="12.991336883730835"><ele>223.0</ele><time>2026-04-19T17:50:51Z</time></trkpt><trkpt lat="43.36986845386345" lon="12.991194830840474"><ele>221.66666666666666</ele><time>2026-04-19T17:50:52Z</time></trkpt><trkpt lat="43.36998793335391" lon="12.991065713286538"><ele>220.33333333333331</ele><time>2026-04-19T17:50:53Z</time></trkpt><trkpt lat="43.37010556959879" lon="12.990933917595418"><ele>219.0</ele><time>2026-04-19T17:50:54Z</time></trkpt><trkpt lat="43.37022460398826" lon="12.990805959571219"><ele>219.0</ele><time>2026-04-19T17:50:55Z</time></trkpt><trkpt lat="43.37034646068229" lon="12.990670627319693"><ele>219.0</ele><time>2026-04-19T17:50:56Z</time></trkpt><trkpt lat="43.37047498842173" lon="12.990532855199833"><ele>219.0</ele><time>2026-04-19T17:50:57Z</time></trkpt><trkpt lat="43.3705924689918" lon="12.990415075534557"><ele>219.75</ele><time>2026-04-19T17:50:58Z</time></trkpt><trkpt lat="43.370717882300376" lon="12.990301289306363"><ele>220.5</ele><time>2026-04-19T17:50:59Z</time></trkpt><trkpt lat="43.370843079970754" lon="12.99019420293373"><ele>221.25</ele><time>2026-04-19T17:51:00Z</time></trkpt><trkpt lat="43.37097101332129" lon="12.990086573481639"><ele>222.0</ele><time>2026-04-19T17:51:01Z</time></trkpt><trkpt lat="43.3711019741875" lon="12.9899750719572"><ele>222.0</ele><time>2026-04-19T17:51:02Z</time></trkpt><trkpt lat="43.371236867708895" lon="12.989867796777013"><ele>222.0</ele><time>2026-04-19T17:51:03Z</time></trkpt><trkpt lat="43.37138323776022" lon="12.98976026462735"><ele>222.0</ele><time>2026-04-19T17:51:04Z</time></trkpt><trkpt lat="43.37153635200673" lon="12.989662420141608"><ele>229.0</ele><time>2026-04-19T17:51:05Z</time></trkpt><trkpt lat="43.37169478947639" lon="12.989571811154805"><ele>236.0</ele><time>2026-04-19T17:51:06Z</time></trkpt><trkpt lat="43.37185818483385" lon="12.989484704558743"><ele>243.0</ele><time>2026-04-19T17:51:07Z</time></trkpt><trkpt lat="43.3720241291593" lon="12.9893989257977"><ele>253.0</ele><time>2026-04-19T17:51:08Z</time></trkpt><trkpt lat="43.372195506591595" lon="12.989326750011319"><ele>263.0</ele><time>2026-04-19T17:51:09Z</time></trkpt><trkpt lat="43.37236315486245" lon="12.989259952530947"><ele>273.0</ele><time>2026-04-19T17:51:10Z</time></trkpt><trkpt lat="43.372529374297834" lon="12.989199261294369"><ele>270.6666666666667</ele><time>2026-04-19T17:51:11Z</time></trkpt><trkpt lat="43.37269790969828" lon="12.989138279739842"><ele>268.33333333333337</ele><time>2026-04-19T17:51:12Z</time></trkpt><trkpt lat="43.37286738014329" lon="12.989073602928645"><ele>266.0</ele><time>2026-04-19T17:51:13Z</time></trkpt><trkpt lat="43.37303722431413" lon="12.989006821933675"><ele>266.0</ele><time>2026-04-19T17:51:14Z</time></trkpt><trkpt lat="43.37321611418738" lon="12.988938877883042"><ele>266.0</ele><time>2026-04-19T17:51:15.063Z</time></trkpt><trkpt lat="43.373384291882616" lon="12.988877086460686"><ele>266.0</ele><time>2026-04-19T17:51:16.065Z</time></trkpt><trkpt lat="43.37355165915381" lon="12.988816109139927"><ele>266.0</ele><time>2026-04-19T17:51:17.062Z</time></trkpt><trkpt lat="43.373719939796345" lon="12.988754675037917"><ele>266.0</ele><time>2026-04-19T17:51:18.059Z</time></trkpt><trkpt lat="43.374951924029034" lon="12.988078560740329"><ele>265.0</ele><time>2026-04-19T17:51:21.744Z</time></trkpt><trkpt lat="43.37530023837853" lon="12.98795135492692"><ele>264.0</ele><time>2026-04-19T17:51:22.744Z</time></trkpt><trkpt lat="43.37564273263172" lon="12.987798669221906"><ele>260.0</ele><time>2026-04-19T17:51:23.744Z</time></trkpt><trkpt lat="43.375985528487725" lon="12.987648214464173"><ele>256.0</ele><time>2026-04-19T17:51:24.744Z</time></trkpt><trkpt lat="43.37632280632274" lon="12.987476771302859"><ele>267.0</ele><time>2026-04-19T17:51:25.742Z</time></trkpt><trkpt lat="43.37667102737989" lon="12.98734846164942"><ele>278.0</ele><time>2026-04-19T17:51:26.742Z</time></trkpt><trkpt lat="43.37700950031271" lon="12.98717649438104"><ele>290.0</ele><time>2026-04-19T17:51:27.744Z</time></trkpt><trkpt lat="43.37735735934583" lon="12.987046979659416"><ele>302.0</ele><time>2026-04-19T17:51:28.744Z</time></trkpt><trkpt lat="43.37769998197747" lon="12.986895370745062"><ele>293.5</ele><time>2026-04-19T17:51:29.744Z</time></trkpt><trkpt lat="43.37804303988838" lon="12.98674452761226"><ele>285.0</ele><time>2026-04-19T17:51:30.745Z</time></trkpt><trkpt lat="43.3783804385966" lon="12.986575047503017"><ele>285.0</ele><time>2026-04-19T17:51:31.742Z</time></trkpt><trkpt lat="43.3787283323179" lon="12.98644697319095"><ele>285.0</ele><time>2026-04-19T17:51:32.741Z</time></trkpt><trkpt lat="43.379066190413496" lon="12.986274641153438"><ele>287.5</ele><time>2026-04-19T17:51:33.741Z</time></trkpt><trkpt lat="43.379410127567944" lon="12.986124669846125"><ele>290.0</ele><time>2026-04-19T17:51:34.744Z</time></trkpt><trkpt lat="43.3797416" lon="12.9859807"><ele>259.0</ele><time>2026-04-19T17:51:35.745Z</time></trkpt><trkpt lat="43.383178400089925" lon="12.98453330629831"><ele>259.0</ele><time>2026-04-19T17:52:01Z</time></trkpt><trkpt lat="43.38338184816746" lon="12.98444042718057"><ele>259.0</ele><time>2026-04-19T17:52:02Z</time></trkpt><trkpt lat="43.38358408307418" lon="12.984360131418246"><ele>259.0</ele><time>2026-04-19T17:52:03Z</time></trkpt><trkpt lat="43.3837916139684" lon="12.984258113024158"><ele>257.0</ele><time>2026-04-19T17:52:04Z</time></trkpt><trkpt lat="43.3840006302162" lon="12.984153127571547"><ele>255.0</ele><time>2026-04-19T17:52:05Z</time></trkpt><trkpt lat="43.384199427395856" lon="12.984063856656729"><ele>253.0</ele><time>2026-04-19T17:52:06Z</time></trkpt><trkpt lat="43.384399179422374" lon="12.983973481364776"><ele>253.0</ele><time>2026-04-19T17:52:07Z</time></trkpt><trkpt lat="43.38459647746704" lon="12.983885627985327"><ele>253.0</ele><time>2026-04-19T17:52:08Z</time></trkpt><trkpt lat="43.384779710179096" lon="12.983805933471807"><ele>253.0</ele><time>2026-04-19T17:52:09Z</time></trkpt><trkpt lat="43.38494802961943" lon="12.983739400669313"><ele>261.0</ele><time>2026-04-19T17:52:10Z</time></trkpt><trkpt lat="43.38511689249081" lon="12.983672766699094"><ele>269.0</ele><time>2026-04-19T17:52:11Z</time></trkpt><trkpt lat="43.38534015242523" lon="12.983541537520875"><ele>277.0</ele><time>2026-04-19T17:52:11.999Z</time></trkpt><trkpt lat="43.38550484735327" lon="12.983476502980464"><ele>279.3333333333333</ele><time>2026-04-19T17:52:12.999Z</time></trkpt><trkpt lat="43.38567249230561" lon="12.983414589952066"><ele>281.6666666666667</ele><time>2026-04-19T17:52:13.999Z</time></trkpt><trkpt lat="43.38585165056523" lon="12.983387911899907"><ele>284.0</ele><time>2026-04-19T17:52:14.999Z</time></trkpt><trkpt lat="43.38601400828115" lon="12.98332862860108"><ele>277.0</ele><time>2026-04-19T17:52:15.999Z</time></trkpt><trkpt lat="43.38619556453049" lon="12.983284299586469"><ele>270.0</ele><time>2026-04-19T17:52:17Z</time></trkpt><trkpt lat="43.386384058609735" lon="12.983240685713005"><ele>263.0</ele><time>2026-04-19T17:52:18Z</time></trkpt><trkpt lat="43.38657805796354" lon="12.983203447509744"><ele>263.0</ele><time>2026-04-19T17:52:19Z</time></trkpt><trkpt lat="43.38678080094272" lon="12.983161472203218"><ele>263.0</ele><time>2026-04-19T17:52:20Z</time></trkpt><trkpt lat="43.38698714551224" lon="12.983126420034997"><ele>263.0</ele><time>2026-04-19T17:52:21Z</time></trkpt><trkpt lat="43.38719569787964" lon="12.983097129115038"><ele>266.33333333333337</ele><time>2026-04-19T17:52:22Z</time></trkpt><trkpt lat="43.38740858732805" lon="12.983067391797906"><ele>269.6666666666667</ele><time>2026-04-19T17:52:23Z</time></trkpt><trkpt lat="43.38762453679914" lon="12.983043449579084"><ele>273.0</ele><time>2026-04-19T17:52:24Z</time></trkpt><trkpt lat="43.38784346399269" lon="12.983021736809528"><ele>277.0</ele><time>2026-04-19T17:52:25Z</time></trkpt><trkpt lat="43.38806947545543" lon="12.982999324736763"><ele>281.0</ele><time>2026-04-19T17:52:26Z</time></trkpt><trkpt lat="43.388301408392586" lon="12.98298722470705"><ele>281.0</ele><time>2026-04-19T17:52:27Z</time></trkpt><trkpt lat="43.388536851152594" lon="12.982977223055498"><ele>281.0</ele><time>2026-04-19T17:52:28Z</time></trkpt><trkpt lat="43.38877119901444" lon="12.982962945785673"><ele>282.5</ele><time>2026-04-19T17:52:29Z</time></trkpt><trkpt lat="43.389004988963805" lon="12.982950803067675"><ele>284.0</ele><time>2026-04-19T17:52:30Z</time></trkpt><trkpt lat="43.38923122497784" lon="12.982938580151881"><ele>284.0</ele><time>2026-04-19T17:52:31Z</time></trkpt><trkpt lat="43.389459379870814" lon="12.982931215962392"><ele>284.0</ele><time>2026-04-19T17:52:32Z</time></trkpt><trkpt lat="43.38969847805958" lon="12.982813442212958"><ele>301.0</ele><time>2026-04-19T17:52:33.063Z</time></trkpt><trkpt lat="43.391374595753774" lon="12.982579220034127"><ele>301.0</ele><time>2026-04-19T17:52:37.743Z</time></trkpt><trkpt lat="43.391733043225535" lon="12.98253527650274"><ele>301.0</ele><time>2026-04-19T17:52:38.742Z</time></trkpt><trkpt lat="43.392092807399926" lon="12.982495939624608"><ele>293.5</ele><time>2026-04-19T17:52:39.745Z</time></trkpt><trkpt lat="43.39245185161727" lon="12.982463719152012"><ele>286.0</ele><time>2026-04-19T17:52:40.744Z</time></trkpt><trkpt lat="43.39281122603755" lon="12.982431469047148"><ele>280.5</ele><time>2026-04-19T17:52:41.744Z</time></trkpt><trkpt lat="43.39317051818548" lon="12.98239922632537"><ele>275.0</ele><time>2026-04-19T17:52:42.744Z</time></trkpt><trkpt lat="43.39352935301733" lon="12.982367024642938"><ele>270.0</ele><time>2026-04-19T17:52:43.743Z</time></trkpt><trkpt lat="43.39388902001819" lon="12.98233513478587"><ele>265.0</ele><time>2026-04-19T17:52:44.744Z</time></trkpt><trkpt lat="43.394248981391634" lon="12.982309959381384"><ele>265.0</ele><time>2026-04-19T17:52:45.745Z</time></trkpt><trkpt lat="43.39460853718818" lon="12.982284812342616"><ele>265.0</ele><time>2026-04-19T17:52:46.745Z</time></trkpt><trkpt lat="43.39496750326509" lon="12.982259706548357"><ele>238.0</ele><time>2026-04-19T17:52:47.744Z</time></trkpt><trkpt lat="43.396966343665625" lon="12.98234917910864"><ele>240.0</ele><time>2026-04-19T17:52:57Z</time></trkpt><trkpt lat="43.395888436027015" lon="12.982232556657218"><ele>240.0</ele><time>2026-04-19T17:52:58Z</time></trkpt><trkpt lat="43.396134875870594" lon="12.982214290690695"><ele>240.0</ele><time>2026-04-19T17:52:59Z</time></trkpt><trkpt lat="43.39636875607874" lon="12.982189280426248"><ele>239.0</ele><time>2026-04-19T17:53:00Z</time></trkpt><trkpt lat="43.39662484025531" lon="12.982163093786385"><ele>238.0</ele><time>2026-04-19T17:53:01Z</time></trkpt><trkpt lat="43.39687754302017" lon="12.982147131866764"><ele>238.0</ele><time>2026-04-19T17:53:02Z</time></trkpt><trkpt lat="43.397135072176496" lon="12.982144051334979"><ele>238.0</ele><time>2026-04-19T17:53:03Z</time></trkpt><trkpt lat="43.3973987999412" lon="12.98214748908753"><ele>240.5</ele><time>2026-04-19T17:53:04Z</time></trkpt><trkpt lat="43.39766418952512" lon="12.982190263166476"><ele>243.0</ele><time>2026-04-19T17:53:05Z</time></trkpt><trkpt lat="43.39793266572502" lon="12.982171788246099"><ele>246.0</ele><time>2026-04-19T17:53:06Z</time></trkpt><trkpt lat="43.39820216340082" lon="12.982185171240669"><ele>249.0</ele><time>2026-04-19T17:53:07Z</time></trkpt><trkpt lat="43.39847574017657" lon="12.982196783108574"><ele>249.0</ele><time>2026-04-19T17:53:08Z</time></trkpt><trkpt lat="43.39874884666929" lon="12.98220977634967"><ele>249.0</ele><time>2026-04-19T17:53:09Z</time></trkpt><trkpt lat="43.39902156317422" lon="12.982221727678585"><ele>250.5</ele><time>2026-04-19T17:53:10Z</time></trkpt><trkpt lat="43.39929609668119" lon="12.982234334292793"><ele>252.0</ele><time>2026-04-19T17:53:11Z</time></trkpt><trkpt lat="43.399571414914966" lon="12.98224855326204"><ele>248.0</ele><time>2026-04-19T17:53:12Z</time></trkpt><trkpt lat="43.39984530506179" lon="12.982259922350686"><ele>244.0</ele><time>2026-04-19T17:53:13Z</time></trkpt><trkpt lat="43.40011030290596" lon="12.982258458755256"><ele>244.0</ele><time>2026-04-19T17:53:14Z</time></trkpt><trkpt lat="43.400383217145446" lon="12.982265327914776"><ele>244.0</ele><time>2026-04-19T17:53:15Z</time></trkpt><trkpt lat="43.400657673950924" lon="12.982272342258053"><ele>240.5</ele><time>2026-04-19T17:53:16Z</time></trkpt><trkpt lat="43.40092902886534" lon="12.98227853944375"><ele>237.0</ele><time>2026-04-19T17:53:17Z</time></trkpt><trkpt lat="43.4012018356379" lon="12.982284011695615"><ele>228.0</ele><time>2026-04-19T17:53:18Z</time></trkpt><trkpt lat="43.40147414494149" lon="12.982289874748245"><ele>219.0</ele><time>2026-04-19T17:53:19Z</time></trkpt><trkpt lat="43.40186525007587" lon="12.982382297200791"><ele>219.0</ele><time>2026-04-19T17:53:20Z</time></trkpt><trkpt lat="43.40208737914161" lon="12.98237442413449"><ele>219.0</ele><time>2026-04-19T17:53:21Z</time></trkpt><trkpt lat="43.40233718323115" lon="12.982389106798003"><ele>217.0</ele><time>2026-04-19T17:53:22Z</time></trkpt><trkpt lat="43.402593097646815" lon="12.98242535727647"><ele>215.0</ele><time>2026-04-19T17:53:23Z</time></trkpt><trkpt lat="43.402853666520976" lon="12.982460159264974"><ele>217.0</ele><time>2026-04-19T17:53:24Z</time></trkpt><trkpt lat="43.40310602075718" lon="12.982498828982886"><ele>219.0</ele><time>2026-04-19T17:53:25Z</time></trkpt><trkpt lat="43.403375766864194" lon="12.982537058546473"><ele>230.5</ele><time>2026-04-19T17:53:26Z</time></trkpt><trkpt lat="43.403642113818044" lon="12.982579064526092"><ele>242.0</ele><time>2026-04-19T17:53:27Z</time></trkpt><trkpt lat="43.403894575254014" lon="12.982619186263163"><ele>246.5</ele><time>2026-04-19T17:53:28Z</time></trkpt><trkpt lat="43.40414101925902" lon="12.982659562227758"><ele>251.0</ele><time>2026-04-19T17:53:29Z</time></trkpt><trkpt lat="43.404383635068406" lon="12.98269395078436"><ele>251.0</ele><time>2026-04-19T17:53:30Z</time></trkpt><trkpt lat="43.40462933484398" lon="12.982725675107808"><ele>251.0</ele><time>2026-04-19T17:53:31Z</time></trkpt><trkpt lat="43.40487710332949" lon="12.982759214041144"><ele>257.5</ele><time>2026-04-19T17:53:32Z</time></trkpt><trkpt lat="43.40511837911278" lon="12.982825676708034"><ele>264.0</ele><time>2026-04-19T17:53:33Z</time></trkpt><trkpt lat="43.40558502319422" lon="12.98308678051261"><ele>271.5</ele><time>2026-04-19T17:53:34Z</time></trkpt><trkpt lat="43.405865125484134" lon="12.983185777554931"><ele>279.0</ele><time>2026-04-19T17:53:35Z</time></trkpt><trkpt lat="43.4061460937201" lon="12.98328222905265"><ele>301.5</ele><time>2026-04-19T17:53:36Z</time></trkpt><trkpt lat="43.406428079387" lon="12.9833929612212"><ele>324.0</ele><time>2026-04-19T17:53:37Z</time></trkpt><trkpt lat="43.40671330906175" lon="12.983505914765939"><ele>324.0</ele><time>2026-04-19T17:53:38Z</time></trkpt><trkpt lat="43.406995404181544" lon="12.983624486724327"><ele>324.0</ele><time>2026-04-19T17:53:39Z</time></trkpt><trkpt lat="43.40727783182046" lon="12.983743977522751"><ele>330.0</ele><time>2026-04-19T17:53:40Z</time></trkpt><trkpt lat="43.40755851450338" lon="12.983877856883401"><ele>336.0</ele><time>2026-04-19T17:53:41Z</time></trkpt><trkpt lat="43.40784150679329" lon="12.984016338886041"><ele>344.0</ele><time>2026-04-19T17:53:42Z</time></trkpt><trkpt lat="43.40812369397133" lon="12.984159112233609"><ele>352.0</ele><time>2026-04-19T17:53:43Z</time></trkpt><trkpt lat="43.40840393631744" lon="12.984307908809397"><ele>374.0</ele><time>2026-04-19T17:53:44Z</time></trkpt><trkpt lat="43.40868250117388" lon="12.984463714407955"><ele>396.0</ele><time>2026-04-19T17:53:45Z</time></trkpt><trkpt lat="43.408953653831375" lon="12.984629426775937"><ele>405.5</ele><time>2026-04-19T17:53:46Z</time></trkpt><trkpt lat="43.409224623728974" lon="12.984796645289277"><ele>415.0</ele><time>2026-04-19T17:53:47Z</time></trkpt><trkpt lat="43.409487651700424" lon="12.984972107724028"><ele>432.0</ele><time>2026-04-19T17:53:48Z</time></trkpt><trkpt lat="43.40974260598729" lon="12.985151378745625"><ele>449.0</ele><time>2026-04-19T17:53:49Z</time></trkpt><trkpt lat="43.40998386333806" lon="12.985333188168864"><ele>449.0</ele><time>2026-04-19T17:53:50Z</time></trkpt><trkpt lat="43.41021099924582" lon="12.985519373980805"><ele>449.0</ele><time>2026-04-19T17:53:51Z</time></trkpt><trkpt lat="43.410444600968354" lon="12.98570309082258"><ele>386.0</ele><time>2026-04-19T17:53:52Z</time></trkpt><trkpt lat="43.41087298107598" lon="12.986071009168494"><ele>386.0</ele><time>2026-04-19T17:53:54Z</time></trkpt><trkpt lat="43.41107512765045" lon="12.986257270653965"><ele>386.0</ele><time>2026-04-19T17:53:55Z</time></trkpt><trkpt lat="43.41129152699309" lon="12.986445512372304"><ele>380.0</ele><time>2026-04-19T17:53:56Z</time></trkpt><trkpt lat="43.41149597994582" lon="12.986635095124782"><ele>374.0</ele><time>2026-04-19T17:53:57Z</time></trkpt><trkpt lat="43.411703963187186" lon="12.986823910019117"><ele>374.0</ele><time>2026-04-19T17:53:58Z</time></trkpt><trkpt lat="43.41191323949811" lon="12.987021711070142"><ele>374.0</ele><time>2026-04-19T17:53:59Z</time></trkpt><trkpt lat="43.41211730117517" lon="12.987220431379315"><ele>367.0</ele><time>2026-04-19T17:54:00Z</time></trkpt><trkpt lat="43.41232136039164" lon="12.987423451602265"><ele>360.0</ele><time>2026-04-19T17:54:01Z</time></trkpt><trkpt lat="43.41250900492203" lon="12.987623010078432"><ele>360.0</ele><time>2026-04-19T17:54:02Z</time></trkpt><trkpt lat="43.412690815069986" lon="12.98782439525513"><ele>360.0</ele><time>2026-04-19T17:54:03Z</time></trkpt><trkpt lat="43.41284434603232" lon="12.988009234940726"><ele>360.0</ele><time>2026-04-19T17:54:04Z</time></trkpt><trkpt lat="43.41300464361425" lon="12.988200209328411"><ele>356.5</ele><time>2026-04-19T17:54:05Z</time></trkpt><trkpt lat="43.41316677538797" lon="12.988395050206488"><ele>353.0</ele><time>2026-04-19T17:54:06.023Z</time></trkpt><trkpt lat="43.414577186481964" lon="12.99038557392876"><ele>354.0</ele><time>2026-04-19T17:54:09.743Z</time></trkpt><trkpt lat="43.414995738288965" lon="12.991033464339347"><ele>357.0</ele><time>2026-04-19T17:54:10.745Z</time></trkpt><trkpt lat="43.41540384321262" lon="12.991691747268357"><ele>313.0</ele><time>2026-04-19T17:54:11.745Z</time></trkpt><trkpt lat="43.415807989512395" lon="12.992354939477401"><ele>322.0</ele><time>2026-04-19T17:54:12.745Z</time></trkpt><trkpt lat="43.41620712586003" lon="12.993023171879372"><ele>370.0</ele><time>2026-04-19T17:54:13.744Z</time></trkpt><trkpt lat="43.41660695101149" lon="12.99368919163765"><ele>453.0</ele><time>2026-04-19T17:54:14.742Z</time></trkpt><trkpt lat="43.41701001835182" lon="12.99435471815408"><ele>548.0</ele><time>2026-04-19T17:54:15.744Z</time></trkpt><trkpt lat="43.417412062976126" lon="12.995021902440534"><ele>548.0</ele><time>2026-04-19T17:54:16.745Z</time></trkpt><trkpt lat="43.41781355448154" lon="12.995688108372235"><ele>391.0</ele><time>2026-04-19T17:54:17.745Z</time></trkpt><trkpt lat="43.4182143937557" lon="12.996354499232384"><ele>314.0</ele><time>2026-04-19T17:54:18.745Z</time></trkpt><trkpt lat="43.41861592717993" lon="12.997021397732807"><ele>265.0</ele><time>2026-04-19T17:54:19.746Z</time></trkpt><trkpt lat="43.41901451995156" lon="12.997689917019452"><ele>300.0</ele><time>2026-04-19T17:54:20.745Z</time></trkpt><trkpt lat="43.41942134287427" lon="12.998347871428711"><ele>256.0</ele><time>2026-04-19T17:54:21.743Z</time></trkpt><trkpt lat="43.419838239510845" lon="12.998998342721528"><ele>278.0</ele><time>2026-04-19T17:54:22.745Z</time></trkpt><trkpt lat="43.420252994366955" lon="12.99965073947289"><ele>253.0</ele><time>2026-04-19T17:54:23.747Z</time></trkpt><trkpt lat="43.420681711105516" lon="13.000282087651492"><ele>288.0</ele><time>2026-04-19T17:54:24.745Z</time></trkpt><trkpt lat="43.42112266474723" lon="13.000898658363894"><ele>284.0</ele><time>2026-04-19T17:54:25.744Z</time></trkpt><trkpt lat="43.42157230510586" lon="13.001505088051525"><ele>324.0</ele><time>2026-04-19T17:54:26.745Z</time></trkpt><trkpt lat="43.422032812027204" lon="13.002094852252606"><ele>373.0</ele><time>2026-04-19T17:54:27.745Z</time></trkpt><trkpt lat="43.42250273594403" lon="13.00267068379654"><ele>387.0</ele><time>2026-04-19T17:54:28.745Z</time></trkpt><trkpt lat="43.42298196612748" lon="13.003230899219291"><ele>406.0</ele><time>2026-04-19T17:54:29.744Z</time></trkpt><trkpt lat="43.42346554235593" lon="13.003785684611445"><ele>358.0</ele><time>2026-04-19T17:54:30.745Z</time></trkpt><trkpt lat="43.42395192520632" lon="13.004335184956437"><ele>358.0</ele><time>2026-04-19T17:54:31.745Z</time></trkpt><trkpt lat="43.4244408159228" lon="13.004881441353485"><ele>337.0</ele><time>2026-04-19T17:54:32.746Z</time></trkpt><trkpt lat="43.42493093720654" lon="13.005423602723"><ele>381.0</ele><time>2026-04-19T17:54:33.745Z</time></trkpt><trkpt lat="43.4254196368602" lon="13.005969237631668"><ele>370.0</ele><time>2026-04-19T17:54:34.745Z</time></trkpt><trkpt lat="43.425907935824114" lon="13.006511774375321"><ele>382.0</ele><time>2026-04-19T17:54:35.742Z</time></trkpt><trkpt lat="43.426398747688665" lon="13.007054989578437"><ele>391.0</ele><time>2026-04-19T17:54:36.743Z</time></trkpt><trkpt lat="43.42688932566068" lon="13.007599971457728"><ele>338.0</ele><time>2026-04-19T17:54:37.745Z</time></trkpt><trkpt lat="43.42737755581155" lon="13.008145449984301"><ele>344.0</ele><time>2026-04-19T17:54:38.744Z</time></trkpt><trkpt lat="43.42786738339833" lon="13.008689994937988"><ele>287.0</ele><time>2026-04-19T17:54:39.745Z</time></trkpt><trkpt lat="43.42835819168248" lon="13.009233331670732"><ele>227.0</ele><time>2026-04-19T17:54:40.746Z</time></trkpt><trkpt lat="43.42884823714806" lon="13.009774097870066"><ele>172.0</ele><time>2026-04-19T17:54:41.744Z</time></trkpt><trkpt lat="43.429863073889386" lon="13.010948524277218"><ele>172.0</ele><time>2026-04-19T17:55:27.001Z</time></trkpt><trkpt lat="43.43009344736351" lon="13.011193200004858"><ele>172.0</ele><time>2026-04-19T17:55:28.001Z</time></trkpt><trkpt lat="43.43030403056803" lon="13.011481243345921"><ele>167.0</ele><time>2026-04-19T17:55:29.001Z</time></trkpt><trkpt lat="43.43050935124937" lon="13.011753767583297"><ele>162.0</ele><time>2026-04-19T17:55:30.001Z</time></trkpt><trkpt lat="43.43071066006441" lon="13.01201600794454"><ele>162.0</ele><time>2026-04-19T17:55:31.001Z</time></trkpt><trkpt lat="43.43091140896233" lon="13.012286379638997"><ele>162.0</ele><time>2026-04-19T17:55:32.001Z</time></trkpt><trkpt lat="43.43110693764447" lon="13.012557650922021"><ele>161.5</ele><time>2026-04-19T17:55:33Z</time></trkpt><trkpt lat="43.431298983500334" lon="13.012829791361732"><ele>161.0</ele><time>2026-04-19T17:55:34Z</time></trkpt><trkpt lat="43.431487064365186" lon="13.013108190269055"><ele>163.0</ele><time>2026-04-19T17:55:35Z</time></trkpt><trkpt lat="43.43167184891287" lon="13.013387125018388"><ele>165.0</ele><time>2026-04-19T17:55:36Z</time></trkpt><trkpt lat="43.43185294796471" lon="13.013669249417394"><ele>165.0</ele><time>2026-04-19T17:55:37Z</time></trkpt><trkpt lat="43.432032036132505" lon="13.013953504088477"><ele>165.0</ele><time>2026-04-19T17:55:38Z</time></trkpt><trkpt lat="43.43220648516076" lon="13.014243210293188"><ele>167.0</ele><time>2026-04-19T17:55:39Z</time></trkpt><trkpt lat="43.43237571206215" lon="13.014534508746944"><ele>169.0</ele><time>2026-04-19T17:55:40Z</time></trkpt><trkpt lat="43.432540644454264" lon="13.01483004632265"><ele>166.0</ele><time>2026-04-19T17:55:41Z</time></trkpt><trkpt lat="43.43270075489681" lon="13.015127562178904"><ele>163.0</ele><time>2026-04-19T17:55:42Z</time></trkpt><trkpt lat="43.43285990124714" lon="13.01542603785465"><ele>166.5</ele><time>2026-04-19T17:55:43Z</time></trkpt><trkpt lat="43.433015920467064" lon="13.015723769121847"><ele>170.0</ele><time>2026-04-19T17:55:44Z</time></trkpt><trkpt lat="43.43317291910466" lon="13.016022678668037"><ele>170.0</ele><time>2026-04-19T17:55:45Z</time></trkpt><trkpt lat="43.43332724406647" lon="13.016321335595734"><ele>170.0</ele><time>2026-04-19T17:55:46Z</time></trkpt><trkpt lat="43.43348571946313" lon="13.016621540181044"><ele>165.0</ele><time>2026-04-19T17:55:47Z</time></trkpt><trkpt lat="43.43363594971247" lon="13.016920423325951"><ele>160.0</ele><time>2026-04-19T17:55:48Z</time></trkpt><trkpt lat="43.43379073908958" lon="13.017213284487084"><ele>161.5</ele><time>2026-04-19T17:55:49Z</time></trkpt><trkpt lat="43.43394806482378" lon="13.017509138502092"><ele>163.0</ele><time>2026-04-19T17:55:50Z</time></trkpt><trkpt lat="43.4341063588083" lon="13.017810286026455"><ele>163.0</ele><time>2026-04-19T17:55:51Z</time></trkpt><trkpt lat="43.43426897474328" lon="13.018090827007756"><ele>163.0</ele><time>2026-04-19T17:55:52Z</time></trkpt><trkpt lat="43.43443460357542" lon="13.018377041464092"><ele>163.5</ele><time>2026-04-19T17:55:53Z</time></trkpt><trkpt lat="43.43460394157103" lon="13.018658708235629"><ele>164.0</ele><time>2026-04-19T17:55:54Z</time></trkpt><trkpt lat="43.434788047217275" lon="13.018937437890013"><ele>160.5</ele><time>2026-04-19T17:55:55Z</time></trkpt><trkpt lat="43.43496271367356" lon="13.019202091853334"><ele>157.0</ele><time>2026-04-19T17:55:56Z</time></trkpt><trkpt lat="43.43515141915648" lon="13.019463944232104"><ele>157.0</ele><time>2026-04-19T17:55:57Z</time></trkpt><trkpt lat="43.435347450702494" lon="13.019714383552476"><ele>157.0</ele><time>2026-04-19T17:55:58Z</time></trkpt><trkpt lat="43.43554967217031" lon="13.019959095677432"><ele>158.5</ele><time>2026-04-19T17:55:59Z</time></trkpt><trkpt lat="43.43575754926008" lon="13.02019674060941"><ele>160.0</ele><time>2026-04-19T17:56:00Z</time></trkpt><trkpt lat="43.43597351906042" lon="13.0204234073308"><ele>160.0</ele><time>2026-04-19T17:56:01Z</time></trkpt><trkpt lat="43.43619318990723" lon="13.020656757210359"><ele>160.0</ele><time>2026-04-19T17:56:02Z</time></trkpt><trkpt lat="43.43641864223247" lon="13.020858148889838"><ele>159.5</ele><time>2026-04-19T17:56:03Z</time></trkpt><trkpt lat="43.436646211336594" lon="13.021070238807189"><ele>159.0</ele><time>2026-04-19T17:56:04Z</time></trkpt><trkpt lat="43.43687976454041" lon="13.021273653215179"><ele>159.0</ele><time>2026-04-19T17:56:05Z</time></trkpt><trkpt lat="43.437111916330466" lon="13.021472460223837"><ele>159.0</ele><time>2026-04-19T17:56:06Z</time></trkpt><trkpt lat="43.437345762537504" lon="13.021668560172536"><ele>158.5</ele><time>2026-04-19T17:56:07Z</time></trkpt><trkpt lat="43.437578412877286" lon="13.02186432582814"><ele>158.0</ele><time>2026-04-19T17:56:08Z</time></trkpt><trkpt lat="43.43780592122262" lon="13.022074394602416"><ele>158.5</ele><time>2026-04-19T17:56:09Z</time></trkpt><trkpt lat="43.43801992436885" lon="13.022298030503032"><ele>159.0</ele><time>2026-04-19T17:56:10Z</time></trkpt><trkpt lat="43.43822259307041" lon="13.022544111529973"><ele>159.0</ele><time>2026-04-19T17:56:11Z</time></trkpt><trkpt lat="43.43841557536829" lon="13.022794908240991"><ele>159.0</ele><time>2026-04-19T17:56:12Z</time></trkpt><trkpt lat="43.438597150676436" lon="13.02306156546119"><ele>159.5</ele><time>2026-04-19T17:56:13Z</time></trkpt><trkpt lat="43.438768624377815" lon="13.02334075806441"><ele>160.0</ele><time>2026-04-19T17:56:14Z</time></trkpt><trkpt lat="43.43892639119783" lon="13.023634001068512"><ele>159.5</ele><time>2026-04-19T17:56:15Z</time></trkpt><trkpt lat="43.43906993003266" lon="13.023938156264215"><ele>159.0</ele><time>2026-04-19T17:56:16Z</time></trkpt><trkpt lat="43.43920267621861" lon="13.024258218974548"><ele>159.0</ele><time>2026-04-19T17:56:17Z</time></trkpt><trkpt lat="43.439322689479226" lon="13.02458535188352"><ele>159.0</ele><time>2026-04-19T17:56:18Z</time></trkpt><trkpt lat="43.43943760028234" lon="13.02491575558107"><ele>159.0</ele><time>2026-04-19T17:56:19Z</time></trkpt><trkpt lat="43.439550839552744" lon="13.025249750618583"><ele>159.0</ele><time>2026-04-19T17:56:20Z</time></trkpt><trkpt lat="43.43966352265709" lon="13.025581702894305"><ele>156.5</ele><time>2026-04-19T17:56:21Z</time></trkpt><trkpt lat="43.43978075131016" lon="13.025914800999452"><ele>154.0</ele><time>2026-04-19T17:56:22Z</time></trkpt><trkpt lat="43.439901900467525" lon="13.026247898588158"><ele>154.0</ele><time>2026-04-19T17:56:23Z</time></trkpt><trkpt lat="43.44002817907962" lon="13.02657926716327"><ele>154.0</ele><time>2026-04-19T17:56:24Z</time></trkpt><trkpt lat="43.44016264332183" lon="13.026902529034597"><ele>154.5</ele><time>2026-04-19T17:56:25Z</time></trkpt><trkpt lat="43.440303646038224" lon="13.027226954608155"><ele>155.0</ele><time>2026-04-19T17:56:26Z</time></trkpt><trkpt lat="43.44044876307938" lon="13.027542314324851"><ele>152.5</ele><time>2026-04-19T17:56:27Z</time></trkpt><trkpt lat="43.44060008221458" lon="13.027852499315815"><ele>150.0</ele><time>2026-04-19T17:56:28Z</time></trkpt><trkpt lat="43.440759537750125" lon="13.028151317260969"><ele>150.0</ele><time>2026-04-19T17:56:29Z</time></trkpt><trkpt lat="43.440931254496995" lon="13.028445275330796"><ele>150.0</ele><time>2026-04-19T17:56:30Z</time></trkpt><trkpt lat="43.44110904431789" lon="13.028732211930985"><ele>150.0</ele><time>2026-04-19T17:56:31Z</time></trkpt><trkpt lat="43.44129722491541" lon="13.029010728528844"><ele>150.0</ele><time>2026-04-19T17:56:32Z</time></trkpt><trkpt lat="43.44148960470515" lon="13.029281414222877"><ele>150.0</ele><time>2026-04-19T17:56:33Z</time></trkpt><trkpt lat="43.44168325690334" lon="13.029549055249548"><ele>150.0</ele><time>2026-04-19T17:56:34Z</time></trkpt><trkpt lat="43.44187979198328" lon="13.02981077671476"><ele>150.5</ele><time>2026-04-19T17:56:35Z</time></trkpt><trkpt lat="43.442078057213266" lon="13.030068289233567"><ele>151.0</ele><time>2026-04-19T17:56:36Z</time></trkpt><trkpt lat="43.44227934914673" lon="13.030321842012112"><ele>150.0</ele><time>2026-04-19T17:56:37Z</time></trkpt><trkpt lat="43.442484708569104" lon="13.030569914563825"><ele>149.0</ele><time>2026-04-19T17:56:38Z</time></trkpt><trkpt lat="43.442697292538114" lon="13.03081297304018"><ele>148.5</ele><time>2026-04-19T17:56:39Z</time></trkpt><trkpt lat="43.442910011359785" lon="13.031044963675912"><ele>148.0</ele><time>2026-04-19T17:56:40Z</time></trkpt><trkpt lat="43.44313343184869" lon="13.03126967177982"><ele>148.5</ele><time>2026-04-19T17:56:41Z</time></trkpt><trkpt lat="43.443360321133035" lon="13.031478807310567"><ele>149.0</ele><time>2026-04-19T17:56:42Z</time></trkpt><trkpt lat="43.44359377737263" lon="13.031674565460214"><ele>148.5</ele><time>2026-04-19T17:56:43Z</time></trkpt><trkpt lat="43.443829225495875" lon="13.031856973000272"><ele>148.0</ele><time>2026-04-19T17:56:44Z</time></trkpt><trkpt lat="43.444065519155544" lon="13.032032191566897"><ele>148.0</ele><time>2026-04-19T17:56:45Z</time></trkpt><trkpt lat="43.44430311636915" lon="13.03220252565622"><ele>148.0</ele><time>2026-04-19T17:56:46Z</time></trkpt><trkpt lat="43.444541246854655" lon="13.032366367189532"><ele>148.0</ele><time>2026-04-19T17:56:47Z</time></trkpt><trkpt lat="43.44477962557797" lon="13.032523061769826"><ele>148.0</ele><time>2026-04-19T17:56:48Z</time></trkpt><trkpt lat="43.44501824600092" lon="13.032675423865388"><ele>148.0</ele><time>2026-04-19T17:56:49Z</time></trkpt><trkpt lat="43.445259604518135" lon="13.032833118999035"><ele>148.0</ele><time>2026-04-19T17:56:50Z</time></trkpt><trkpt lat="43.44548941395379" lon="13.032991632438723"><ele>148.0</ele><time>2026-04-19T17:56:51Z</time></trkpt><trkpt lat="43.44572502990896" lon="13.033163377320465"><ele>148.0</ele><time>2026-04-19T17:56:52Z</time></trkpt><trkpt lat="43.44596010799894" lon="13.033358900608523"><ele>148.0</ele><time>2026-04-19T17:56:53Z</time></trkpt><trkpt lat="43.44618213280787" lon="13.033536550067206"><ele>148.0</ele><time>2026-04-19T17:56:54Z</time></trkpt><trkpt lat="43.44640581422041" lon="13.033732189053485"><ele>147.5</ele><time>2026-04-19T17:56:55Z</time></trkpt><trkpt lat="43.44662715985131" lon="13.033938051752859"><ele>147.0</ele><time>2026-04-19T17:56:56Z</time></trkpt><trkpt lat="43.44685314600196" lon="13.034152490386527"><ele>147.0</ele><time>2026-04-19T17:56:57Z</time></trkpt><trkpt lat="43.447066791960964" lon="13.03437457241323"><ele>147.0</ele><time>2026-04-19T17:56:58Z</time></trkpt><trkpt lat="43.447283415591045" lon="13.034601782056786"><ele>147.0</ele><time>2026-04-19T17:56:59Z</time></trkpt><trkpt lat="43.447493118622305" lon="13.034836210272674"><ele>147.0</ele><time>2026-04-19T17:57:00Z</time></trkpt><trkpt lat="43.447699818446566" lon="13.035077826055256"><ele>147.0</ele><time>2026-04-19T17:57:01Z</time></trkpt><trkpt lat="43.44790416530911" lon="13.035326315402411"><ele>147.0</ele><time>2026-04-19T17:57:02Z</time></trkpt><trkpt lat="43.448104015097215" lon="13.03558043204524"><ele>147.0</ele><time>2026-04-19T17:57:03Z</time></trkpt><trkpt lat="43.44830163892089" lon="13.035843992635366"><ele>147.0</ele><time>2026-04-19T17:57:04Z</time></trkpt><trkpt lat="43.448492303079135" lon="13.036112363531831"><ele>147.0</ele><time>2026-04-19T17:57:05Z</time></trkpt><trkpt lat="43.4486778399904" lon="13.036385412713981"><ele>147.0</ele><time>2026-04-19T17:57:06Z</time></trkpt><trkpt lat="43.44886177997822" lon="13.036663089978857"><ele>146.5</ele><time>2026-04-19T17:57:07Z</time></trkpt><trkpt lat="43.449037566217534" lon="13.036947364734003"><ele>146.0</ele><time>2026-04-19T17:57:08Z</time></trkpt><trkpt lat="43.449207929463356" lon="13.0372384245558"><ele>146.0</ele><time>2026-04-19T17:57:09Z</time></trkpt><trkpt lat="43.449374085593966" lon="13.037535603868616"><ele>146.0</ele><time>2026-04-19T17:57:10Z</time></trkpt><trkpt lat="43.44953497804499" lon="13.037836908923712"><ele>146.0</ele><time>2026-04-19T17:57:11Z</time></trkpt><trkpt lat="43.44968714139484" lon="13.038139610427539"><ele>146.0</ele><time>2026-04-19T17:57:12Z</time></trkpt><trkpt lat="43.44983681244791" lon="13.038453209702142"><ele>145.5</ele><time>2026-04-19T17:57:13Z</time></trkpt><trkpt lat="43.44998037430669" lon="13.038765256482199"><ele>145.0</ele><time>2026-04-19T17:57:14Z</time></trkpt><trkpt lat="43.45012311575975" lon="13.039085341483892"><ele>144.5</ele><time>2026-04-19T17:57:15Z</time></trkpt><trkpt lat="43.45026555100662" lon="13.039405319872234"><ele>144.0</ele><time>2026-04-19T17:57:16Z</time></trkpt><trkpt lat="43.450408291604155" lon="13.03972301044352"><ele>145.0</ele><time>2026-04-19T17:57:17Z</time></trkpt><trkpt lat="43.45055253832034" lon="13.040039050052437"><ele>146.0</ele><time>2026-04-19T17:57:18Z</time></trkpt><trkpt lat="43.450697087166205" lon="13.040352636886492"><ele>146.0</ele><time>2026-04-19T17:57:19Z</time></trkpt><trkpt lat="43.45084194863871" lon="13.040667634596915"><ele>146.0</ele><time>2026-04-19T17:57:20Z</time></trkpt><trkpt lat="43.450986133944376" lon="13.040985118653834"><ele>146.0</ele><time>2026-04-19T17:57:21Z</time></trkpt><trkpt lat="43.45113202098108" lon="13.041298664151348"><ele>146.0</ele><time>2026-04-19T17:57:22Z</time></trkpt><trkpt lat="43.45128210804836" lon="13.04161122178482"><ele>146.0</ele><time>2026-04-19T17:57:23Z</time></trkpt><trkpt lat="43.451435355370705" lon="13.041922207122317"><ele>146.0</ele><time>2026-04-19T17:57:24Z</time></trkpt><trkpt lat="43.45159406580658" lon="13.042228698916823"><ele>146.0</ele><time>2026-04-19T17:57:25Z</time></trkpt><trkpt lat="43.45176153447979" lon="13.0425243017068"><ele>146.0</ele><time>2026-04-19T17:57:26Z</time></trkpt><trkpt lat="43.45192714714832" lon="13.042836490384474"><ele>146.0</ele><time>2026-04-19T17:57:27Z</time></trkpt><trkpt lat="43.45209923114307" lon="13.043116403399445"><ele>146.0</ele><time>2026-04-19T17:57:28Z</time></trkpt><trkpt lat="43.452277835436036" lon="13.043397966193393"><ele>146.5</ele><time>2026-04-19T17:57:29Z</time></trkpt><trkpt lat="43.4524619222145" lon="13.043677761871729"><ele>147.0</ele><time>2026-04-19T17:57:30Z</time></trkpt><trkpt lat="43.45264977592587" lon="13.04395085192185"><ele>146.5</ele><time>2026-04-19T17:57:31Z</time></trkpt><trkpt lat="43.452840752719766" lon="13.044222826099672"><ele>146.0</ele><time>2026-04-19T17:57:32Z</time></trkpt><trkpt lat="43.45303640221269" lon="13.044485948460686"><ele>145.5</ele><time>2026-04-19T17:57:33Z</time></trkpt><trkpt lat="43.45323648488523" lon="13.044744130124142"><ele>145.0</ele><time>2026-04-19T17:57:34Z</time></trkpt><trkpt lat="43.45343901687539" lon="13.044999734301616"><ele>145.5</ele><time>2026-04-19T17:57:35Z</time></trkpt><trkpt lat="43.45364831678983" lon="13.045244079461032"><ele>146.0</ele><time>2026-04-19T17:57:36Z</time></trkpt><trkpt lat="43.453865121392276" lon="13.0454799498402"><ele>146.0</ele><time>2026-04-19T17:57:37Z</time></trkpt><trkpt lat="43.454085051777085" lon="13.045715191122381"><ele>146.0</ele><time>2026-04-19T17:57:38Z</time></trkpt><trkpt lat="43.45430917836341" lon="13.045947166391056"><ele>146.0</ele><time>2026-04-19T17:57:39Z</time></trkpt><trkpt lat="43.4545401272512" lon="13.046168369379119"><ele>146.0</ele><time>2026-04-19T17:57:40Z</time></trkpt><trkpt lat="43.454774397712356" lon="13.04638370139486"><ele>146.0</ele><time>2026-04-19T17:57:41Z</time></trkpt><trkpt lat="43.45501185203374" lon="13.046589408305453"><ele>146.0</ele><time>2026-04-19T17:57:42Z</time></trkpt><trkpt lat="43.45525084888154" lon="13.046793106248922"><ele>144.5</ele><time>2026-04-19T17:57:43Z</time></trkpt><trkpt lat="43.45550091785273" lon="13.047011093977897"><ele>143.0</ele><time>2026-04-19T17:57:44Z</time></trkpt><trkpt lat="43.45573622548052" lon="13.047182269309438"><ele>143.0</ele><time>2026-04-19T17:57:45Z</time></trkpt><trkpt lat="43.45598431564717" lon="13.047370273702445"><ele>143.0</ele><time>2026-04-19T17:57:46Z</time></trkpt><trkpt lat="43.45623030870425" lon="13.047551641185176"><ele>142.5</ele><time>2026-04-19T17:57:47Z</time></trkpt><trkpt lat="43.45647604370169" lon="13.047732729652063"><ele>142.0</ele><time>2026-04-19T17:57:48Z</time></trkpt><trkpt lat="43.45672241412822" lon="13.047912436219452"><ele>142.0</ele><time>2026-04-19T17:57:49Z</time></trkpt><trkpt lat="43.45696519840346" lon="13.048088844499482"><ele>142.0</ele><time>2026-04-19T17:57:50Z</time></trkpt><trkpt lat="43.45720842622578" lon="13.048272204520817"><ele>142.0</ele><time>2026-04-19T17:57:51Z</time></trkpt><trkpt lat="43.45744757276919" lon="13.048460544872272"><ele>142.0</ele><time>2026-04-19T17:57:52Z</time></trkpt><trkpt lat="43.45768482994213" lon="13.04865985198396"><ele>142.0</ele><time>2026-04-19T17:57:53Z</time></trkpt><trkpt lat="43.45791026343786" lon="13.048873951236368"><ele>142.0</ele><time>2026-04-19T17:57:54Z</time></trkpt><trkpt lat="43.45813242180297" lon="13.049098180837628"><ele>141.5</ele><time>2026-04-19T17:57:55Z</time></trkpt><trkpt lat="43.45835151233509" lon="13.049330419278878"><ele>141.0</ele><time>2026-04-19T17:57:56Z</time></trkpt><trkpt lat="43.45856514208972" lon="13.049571954143827"><ele>141.0</ele><time>2026-04-19T17:57:57Z</time></trkpt><trkpt lat="43.45877393565152" lon="13.049819958969639"><ele>141.0</ele><time>2026-04-19T17:57:58Z</time></trkpt><trkpt lat="43.45897870147761" lon="13.05008014016846"><ele>141.0</ele><time>2026-04-19T17:57:59Z</time></trkpt><trkpt lat="43.45917828891915" lon="13.05034834152565"><ele>141.0</ele><time>2026-04-19T17:58:00Z</time></trkpt><trkpt lat="43.45937129096061" lon="13.050626085264883"><ele>141.0</ele><time>2026-04-19T17:58:01Z</time></trkpt><trkpt lat="43.459560338609435" lon="13.050911619452247"><ele>141.0</ele><time>2026-04-19T17:58:02Z</time></trkpt><trkpt lat="43.45973957935846" lon="13.05120526787406"><ele>141.0</ele><time>2026-04-19T17:58:03Z</time></trkpt><trkpt lat="43.45991314013799" lon="13.051507405684557"><ele>141.0</ele><time>2026-04-19T17:58:04Z</time></trkpt><trkpt lat="43.46007880368668" lon="13.051814514824416"><ele>139.5</ele><time>2026-04-19T17:58:05Z</time></trkpt><trkpt lat="43.460239174660714" lon="13.052134063321596"><ele>138.0</ele><time>2026-04-19T17:58:06Z</time></trkpt><trkpt lat="43.46039135293042" lon="13.052457176120955"><ele>138.5</ele><time>2026-04-19T17:58:07Z</time></trkpt><trkpt lat="43.460535997655654" lon="13.052788554045993"><ele>139.0</ele><time>2026-04-19T17:58:08Z</time></trkpt><trkpt lat="43.46067377468756" lon="13.053126102375728"><ele>138.5</ele><time>2026-04-19T17:58:09Z</time></trkpt><trkpt lat="43.46080422590218" lon="13.053473266925627"><ele>138.0</ele><time>2026-04-19T17:58:10Z</time></trkpt><trkpt lat="43.46092863373254" lon="13.053820116326822"><ele>137.5</ele><time>2026-04-19T17:58:11Z</time></trkpt><trkpt lat="43.4610449438655" lon="13.054175232042553"><ele>137.0</ele><time>2026-04-19T17:58:12Z</time></trkpt><trkpt lat="43.461157960814845" lon="13.054531577143015"><ele>137.0</ele><time>2026-04-19T17:58:13Z</time></trkpt><trkpt lat="43.46126990156581" lon="13.054889180407145"><ele>137.0</ele><time>2026-04-19T17:58:14Z</time></trkpt><trkpt lat="43.4613816950209" lon="13.05524460066852"><ele>136.5</ele><time>2026-04-19T17:58:15Z</time></trkpt><trkpt lat="43.46149564056975" lon="13.05560328583295"><ele>136.0</ele><time>2026-04-19T17:58:16Z</time></trkpt><trkpt lat="43.461608263046934" lon="13.05596122440229"><ele>135.5</ele><time>2026-04-19T17:58:17Z</time></trkpt><trkpt lat="43.46171765818431" lon="13.05632211146407"><ele>135.0</ele><time>2026-04-19T17:58:18Z</time></trkpt><trkpt lat="43.46183021482324" lon="13.056683999206614"><ele>136.0</ele><time>2026-04-19T17:58:19Z</time></trkpt><trkpt lat="43.46194205981659" lon="13.057045836050063"><ele>137.0</ele><time>2026-04-19T17:58:20Z</time></trkpt><trkpt lat="43.46205247400516" lon="13.05741010371308"><ele>136.0</ele><time>2026-04-19T17:58:21Z</time></trkpt><trkpt lat="43.46216258696736" lon="13.057770365420682"><ele>135.0</ele><time>2026-04-19T17:58:22Z</time></trkpt><trkpt lat="43.46227466752527" lon="13.058133016111137"><ele>135.0</ele><time>2026-04-19T17:58:23Z</time></trkpt><trkpt lat="43.46238856188644" lon="13.058491901395987"><ele>135.0</ele><time>2026-04-19T17:58:24Z</time></trkpt><trkpt lat="43.46250403263855" lon="13.058848503961412"><ele>135.5</ele><time>2026-04-19T17:58:25Z</time></trkpt><trkpt lat="43.462619756675764" lon="13.059202751990894"><ele>136.0</ele><time>2026-04-19T17:58:26Z</time></trkpt><trkpt lat="43.462735138760735" lon="13.059560213095436"><ele>136.0</ele><time>2026-04-19T17:58:27Z</time></trkpt><trkpt lat="43.46285238058007" lon="13.059915481857585"><ele>136.0</ele><time>2026-04-19T17:58:28Z</time></trkpt><trkpt lat="43.46297013615014" lon="13.060268807294412"><ele>136.0</ele><time>2026-04-19T17:58:29Z</time></trkpt><trkpt lat="43.46309041792036" lon="13.060620955911698"><ele>136.0</ele><time>2026-04-19T17:58:30Z</time></trkpt><trkpt lat="43.46321460590287" lon="13.060969125053228"><ele>137.0</ele><time>2026-04-19T17:58:31Z</time></trkpt><trkpt lat="43.463341797272136" lon="13.061313742590704"><ele>138.0</ele><time>2026-04-19T17:58:32Z</time></trkpt><trkpt lat="43.46347227830444" lon="13.061653685048853"><ele>139.0</ele><time>2026-04-19T17:58:33Z</time></trkpt><trkpt lat="43.4636040594156" lon="13.061996275993534"><ele>140.0</ele><time>2026-04-19T17:58:34Z</time></trkpt><trkpt lat="43.46373580093603" lon="13.062336957710974"><ele>138.0</ele><time>2026-04-19T17:58:35Z</time></trkpt><trkpt lat="43.463868360942826" lon="13.062683298098847"><ele>136.0</ele><time>2026-04-19T17:58:36Z</time></trkpt><trkpt lat="43.46400503536536" lon="13.06302637684817"><ele>136.0</ele><time>2026-04-19T17:58:37Z</time></trkpt><trkpt lat="43.46414514719917" lon="13.063369112553477"><ele>136.0</ele><time>2026-04-19T17:58:38Z</time></trkpt><trkpt lat="43.46429093335751" lon="13.063709430170082"><ele>136.0</ele><time>2026-04-19T17:58:39Z</time></trkpt><trkpt lat="43.4644419019773" lon="13.064047539010577"><ele>136.0</ele><time>2026-04-19T17:58:40Z</time></trkpt><trkpt lat="43.46459612886396" lon="13.064381307536763"><ele>136.0</ele><time>2026-04-19T17:58:41Z</time></trkpt><trkpt lat="43.4647537497624" lon="13.064713109506286"><ele>136.0</ele><time>2026-04-19T17:58:42Z</time></trkpt><trkpt lat="43.46491608266042" lon="13.065039153967364"><ele>137.0</ele><time>2026-04-19T17:58:43Z</time></trkpt><trkpt lat="43.46508247005693" lon="13.065362593017417"><ele>138.0</ele><time>2026-04-19T17:58:44Z</time></trkpt><trkpt lat="43.46525178790628" lon="13.065687700431853"><ele>138.0</ele><time>2026-04-19T17:58:45Z</time></trkpt><trkpt lat="43.46541773499224" lon="13.066005947676155"><ele>138.0</ele><time>2026-04-19T17:58:46Z</time></trkpt><trkpt lat="43.46558471081129" lon="13.066326891974816"><ele>135.5</ele><time>2026-04-19T17:58:47Z</time></trkpt><trkpt lat="43.465755223785926" lon="13.066642820913138"><ele>133.0</ele><time>2026-04-19T17:58:48Z</time></trkpt><trkpt lat="43.46593009992992" lon="13.066957555966924"><ele>133.0</ele><time>2026-04-19T17:58:49Z</time></trkpt><trkpt lat="43.46610538525501" lon="13.067270814027673"><ele>133.0</ele><time>2026-04-19T17:58:50Z</time></trkpt><trkpt lat="43.46628754015237" lon="13.067574800986087"><ele>131.5</ele><time>2026-04-19T17:58:51Z</time></trkpt><trkpt lat="43.466469987468685" lon="13.067864614645691"><ele>130.0</ele><time>2026-04-19T17:58:52Z</time></trkpt><trkpt lat="43.46665427810444" lon="13.06815483602465"><ele>130.0</ele><time>2026-04-19T17:58:53Z</time></trkpt><trkpt lat="43.46683742709412" lon="13.068447964864275"><ele>130.0</ele><time>2026-04-19T17:58:54Z</time></trkpt><trkpt lat="43.46702319057939" lon="13.068740558698186"><ele>130.0</ele><time>2026-04-19T17:58:55Z</time></trkpt><trkpt lat="43.46720886784436" lon="13.069024282389107"><ele>130.0</ele><time>2026-04-19T17:58:56Z</time></trkpt><trkpt lat="43.46740004625502" lon="13.06930886472101"><ele>130.5</ele><time>2026-04-19T17:58:57Z</time></trkpt><trkpt lat="43.46759560673513" lon="13.069586450433453"><ele>131.0</ele><time>2026-04-19T17:58:58Z</time></trkpt><trkpt lat="43.467796823173096" lon="13.069859015976888"><ele>130.0</ele><time>2026-04-19T17:58:59Z</time></trkpt><trkpt lat="43.468002492589044" lon="13.070130365001532"><ele>129.0</ele><time>2026-04-19T17:59:00Z</time></trkpt><trkpt lat="43.46821036162394" lon="13.070395346184888"><ele>129.0</ele><time>2026-04-19T17:59:01Z</time></trkpt><trkpt lat="43.46842100989992" lon="13.070656932618734"><ele>129.0</ele><time>2026-04-19T17:59:02Z</time></trkpt><trkpt lat="43.46863538572099" lon="13.070917670314406"><ele>128.5</ele><time>2026-04-19T17:59:03Z</time></trkpt><trkpt lat="43.468850679081584" lon="13.071176271650478"><ele>128.0</ele><time>2026-04-19T17:59:04Z</time></trkpt><trkpt lat="43.46906814883531" lon="13.071433426445333"><ele>128.0</ele><time>2026-04-19T17:59:05Z</time></trkpt><trkpt lat="43.46928768615976" lon="13.071685304370368"><ele>128.0</ele><time>2026-04-19T17:59:06Z</time></trkpt><trkpt lat="43.46950839213298" lon="13.071936510161642"><ele>127.5</ele><time>2026-04-19T17:59:07Z</time></trkpt><trkpt lat="43.469729065814654" lon="13.07218744385077"><ele>127.0</ele><time>2026-04-19T17:59:08Z</time></trkpt><trkpt lat="43.46995361501655" lon="13.072430732511501"><ele>127.5</ele><time>2026-04-19T17:59:09Z</time></trkpt><trkpt lat="43.47018101545489" lon="13.07266914427894"><ele>128.0</ele><time>2026-04-19T17:59:10Z</time></trkpt><trkpt lat="43.470412543525775" lon="13.072901418835771"><ele>127.5</ele><time>2026-04-19T17:59:11Z</time></trkpt><trkpt lat="43.47064865814642" lon="13.073126571350079"><ele>127.0</ele><time>2026-04-19T17:59:12Z</time></trkpt><trkpt lat="43.4708848530964" lon="13.073349100231777"><ele>126.5</ele><time>2026-04-19T17:59:13Z</time></trkpt><trkpt lat="43.47112228236304" lon="13.073566585915028"><ele>126.0</ele><time>2026-04-19T17:59:14Z</time></trkpt><trkpt lat="43.47136050228545" lon="13.073786054646153"><ele>126.0</ele><time>2026-04-19T17:59:15Z</time></trkpt><trkpt lat="43.47160239620317" lon="13.074006682372248"><ele>126.0</ele><time>2026-04-19T17:59:16Z</time></trkpt><trkpt lat="43.47184291050435" lon="13.074218443826041"><ele>126.0</ele><time>2026-04-19T17:59:17Z</time></trkpt><trkpt lat="43.47208778129874" lon="13.074425594051725"><ele>126.0</ele><time>2026-04-19T17:59:18Z</time></trkpt><trkpt lat="43.472335649994" lon="13.074628464762723"><ele>126.0</ele><time>2026-04-19T17:59:19Z</time></trkpt><trkpt lat="43.472581966502446" lon="13.074826744088075"><ele>126.0</ele><time>2026-04-19T17:59:20Z</time></trkpt><trkpt lat="43.47283577764456" lon="13.075015880370774"><ele>126.0</ele><time>2026-04-19T17:59:21Z</time></trkpt><trkpt lat="43.4730865296409" lon="13.075209129572373"><ele>126.0</ele><time>2026-04-19T17:59:22Z</time></trkpt><trkpt lat="43.47334065711045" lon="13.075401158525267"><ele>126.0</ele><time>2026-04-19T17:59:23Z</time></trkpt><trkpt lat="43.4735942496977" lon="13.075597486725892"><ele>126.0</ele><time>2026-04-19T17:59:24Z</time></trkpt><trkpt lat="43.47384515427357" lon="13.075785008152263"><ele>125.5</ele><time>2026-04-19T17:59:25Z</time></trkpt><trkpt lat="43.47409900207248" lon="13.075972453259341"><ele>125.0</ele><time>2026-04-19T17:59:26Z</time></trkpt><trkpt lat="43.47435413178486" lon="13.076160156621501"><ele>124.0</ele><time>2026-04-19T17:59:27Z</time></trkpt><trkpt lat="43.4746090286194" lon="13.076345128791518"><ele>123.0</ele><time>2026-04-19T17:59:28Z</time></trkpt><trkpt lat="43.474861815126424" lon="13.076531543149606"><ele>123.5</ele><time>2026-04-19T17:59:29Z</time></trkpt><trkpt lat="43.47511956793096" lon="13.076712782710064"><ele>124.0</ele><time>2026-04-19T17:59:30Z</time></trkpt><trkpt lat="43.47537331447075" lon="13.076893071236233"><ele>123.0</ele><time>2026-04-19T17:59:31Z</time></trkpt><trkpt lat="43.47562905771261" lon="13.07706940459473"><ele>122.0</ele><time>2026-04-19T17:59:32Z</time></trkpt><trkpt lat="43.47588495296076" lon="13.077244961734088"><ele>122.0</ele><time>2026-04-19T17:59:33Z</time></trkpt><trkpt lat="43.47613816807726" lon="13.077425165624904"><ele>122.0</ele><time>2026-04-19T17:59:34Z</time></trkpt><trkpt lat="43.47638943097836" lon="13.077612838186585"><ele>123.5</ele><time>2026-04-19T17:59:35Z</time></trkpt><trkpt lat="43.47663871407882" lon="13.077802662499256"><ele>125.0</ele><time>2026-04-19T17:59:36Z</time></trkpt><trkpt lat="43.47688473350055" lon="13.078000870416604"><ele>125.0</ele><time>2026-04-19T17:59:37Z</time></trkpt><trkpt lat="43.477126398071015" lon="13.078206983782982"><ele>125.0</ele><time>2026-04-19T17:59:38Z</time></trkpt><trkpt lat="43.477363230730546" lon="13.078423859880385"><ele>124.0</ele><time>2026-04-19T17:59:39Z</time></trkpt><trkpt lat="43.47759445897343" lon="13.078649787238454"><ele>123.0</ele><time>2026-04-19T17:59:40Z</time></trkpt><trkpt lat="43.477816778661634" lon="13.078890779742512"><ele>124.0</ele><time>2026-04-19T17:59:41Z</time></trkpt><trkpt lat="43.47803351356489" lon="13.079146585023414"><ele>125.0</ele><time>2026-04-19T17:59:42Z</time></trkpt><trkpt lat="43.47823967103375" lon="13.079413221195198"><ele>125.0</ele><time>2026-04-19T17:59:43Z</time></trkpt><trkpt lat="43.47844414070048" lon="13.07968331492375"><ele>125.0</ele><time>2026-04-19T17:59:44Z</time></trkpt><trkpt lat="43.478643591234196" lon="13.079963094308736"><ele>125.0</ele><time>2026-04-19T17:59:45Z</time></trkpt><trkpt lat="43.47883898192289" lon="13.08025093932734"><ele>125.0</ele><time>2026-04-19T17:59:46Z</time></trkpt><trkpt lat="43.47902032010987" lon="13.08055969665586"><ele>124.5</ele><time>2026-04-19T17:59:47Z</time></trkpt><trkpt lat="43.47919073223081" lon="13.08088331659073"><ele>124.0</ele><time>2026-04-19T17:59:48Z</time></trkpt><trkpt lat="43.47936175194324" lon="13.081207464751564"><ele>124.0</ele><time>2026-04-19T17:59:49Z</time></trkpt><trkpt lat="43.47952593288563" lon="13.081545789634097"><ele>124.0</ele><time>2026-04-19T17:59:50Z</time></trkpt><trkpt lat="43.479678770218435" lon="13.081890158568182"><ele>124.0</ele><time>2026-04-19T17:59:51Z</time></trkpt><trkpt lat="43.479821460832895" lon="13.082242751962886"><ele>124.0</ele><time>2026-04-19T17:59:52Z</time></trkpt><trkpt lat="43.479954369440726" lon="13.082605199309342"><ele>124.0</ele><time>2026-04-19T17:59:53Z</time></trkpt><trkpt lat="43.48008257610624" lon="13.082969030214525"><ele>124.0</ele><time>2026-04-19T17:59:54Z</time></trkpt><trkpt lat="43.480208071413514" lon="13.0833364202601"><ele>124.5</ele><time>2026-04-19T17:59:55Z</time></trkpt><trkpt lat="43.48032796165061" lon="13.083707920113385"><ele>125.0</ele><time>2026-04-19T17:59:56Z</time></trkpt><trkpt lat="43.480443418720306" lon="13.084079717805956"><ele>124.0</ele><time>2026-04-19T17:59:57Z</time></trkpt><trkpt lat="43.480553964703546" lon="13.084453818235676"><ele>123.0</ele><time>2026-04-19T17:59:58Z</time></trkpt><trkpt lat="43.48065314137558" lon="13.084828684817301"><ele>122.0</ele><time>2026-04-19T17:59:59Z</time></trkpt><trkpt lat="43.48074534164177" lon="13.085207413362667"><ele>121.0</ele><time>2026-04-19T18:00:00Z</time></trkpt><trkpt lat="43.48082815139835" lon="13.085591710260307"><ele>121.0</ele><time>2026-04-19T18:00:01Z</time></trkpt><trkpt lat="43.48090763550719" lon="13.085974065981098"><ele>121.0</ele><time>2026-04-19T18:00:02Z</time></trkpt><trkpt lat="43.48099842647729" lon="13.086349707793904"><ele>121.0</ele><time>2026-04-19T18:00:03Z</time></trkpt><trkpt lat="43.48109835649011" lon="13.086725920091274"><ele>121.0</ele><time>2026-04-19T18:00:04Z</time></trkpt><trkpt lat="43.4812011214109" lon="13.087097635669673"><ele>121.0</ele><time>2026-04-19T18:00:05Z</time></trkpt><trkpt lat="43.48130258024291" lon="13.08747093589904"><ele>121.0</ele><time>2026-04-19T18:00:06Z</time></trkpt><trkpt lat="43.48140680616025" lon="13.087845070556162"><ele>121.0</ele><time>2026-04-19T18:00:07Z</time></trkpt><trkpt lat="43.481512067714704" lon="13.088218540496754"><ele>121.0</ele><time>2026-04-19T18:00:08Z</time></trkpt><trkpt lat="43.481619099095724" lon="13.08859049986154"><ele>121.0</ele><time>2026-04-19T18:00:09Z</time></trkpt><trkpt lat="43.481734414999515" lon="13.088960325933158"><ele>121.0</ele><time>2026-04-19T18:00:10Z</time></trkpt><trkpt lat="43.48185665613702" lon="13.089325314294095"><ele>121.0</ele><time>2026-04-19T18:00:11Z</time></trkpt><trkpt lat="43.48198548060429" lon="13.089687303492449"><ele>121.0</ele><time>2026-04-19T18:00:12Z</time></trkpt><trkpt lat="43.48211747977342" lon="13.090045215399018"><ele>121.0</ele><time>2026-04-19T18:00:13Z</time></trkpt><trkpt lat="43.482253246146485" lon="13.090406348666855"><ele>121.0</ele><time>2026-04-19T18:00:14Z</time></trkpt><trkpt lat="43.48239033198345" lon="13.090766009478665"><ele>119.5</ele><time>2026-04-19T18:00:15Z</time></trkpt><trkpt lat="43.48252875340806" lon="13.091124051605464"><ele>118.0</ele><time>2026-04-19T18:00:16Z</time></trkpt><trkpt lat="43.482667383867884" lon="13.091484356100777"><ele>117.5</ele><time>2026-04-19T18:00:17Z</time></trkpt><trkpt lat="43.48281508866026" lon="13.091835267239382"><ele>117.0</ele><time>2026-04-19T18:00:18Z</time></trkpt><trkpt lat="43.482966391090216" lon="13.09218366477196"><ele>116.5</ele><time>2026-04-19T18:00:19Z</time></trkpt><trkpt lat="43.48312277720822" lon="13.09252850430149"><ele>116.0</ele><time>2026-04-19T18:00:20Z</time></trkpt><trkpt lat="43.4832835921054" lon="13.092869130633755"><ele>116.0</ele><time>2026-04-19T18:00:21Z</time></trkpt><trkpt lat="43.48344613665018" lon="13.093211861272788"><ele>116.0</ele><time>2026-04-19T18:00:22Z</time></trkpt><trkpt lat="43.483608069289446" lon="13.09355329855429"><ele>115.5</ele><time>2026-04-19T18:00:23Z</time></trkpt><trkpt lat="43.48377508906667" lon="13.093894343067172"><ele>115.0</ele><time>2026-04-19T18:00:24Z</time></trkpt><trkpt lat="43.48395199916735" lon="13.094227682562362"><ele>116.0</ele><time>2026-04-19T18:00:25Z</time></trkpt><trkpt lat="43.48413017887875" lon="13.0945567507013"><ele>117.0</ele><time>2026-04-19T18:00:26Z</time></trkpt><trkpt lat="43.48431443153529" lon="13.09488428420407"><ele>115.5</ele><time>2026-04-19T18:00:27Z</time></trkpt><trkpt lat="43.484497671875054" lon="13.095211346619259"><ele>114.0</ele><time>2026-04-19T18:00:28Z</time></trkpt><trkpt lat="43.48468358392226" lon="13.095537367799094"><ele>112.5</ele><time>2026-04-19T18:00:29Z</time></trkpt><trkpt lat="43.484871439497745" lon="13.095859479011235"><ele>111.0</ele><time>2026-04-19T18:00:30Z</time></trkpt><trkpt lat="43.48506846704888" lon="13.096170877699013"><ele>111.0</ele><time>2026-04-19T18:00:31Z</time></trkpt><trkpt lat="43.4852725599055" lon="13.096476868439751"><ele>111.0</ele><time>2026-04-19T18:00:32Z</time></trkpt><trkpt lat="43.48548215289465" lon="13.096778478973475"><ele>112.5</ele><time>2026-04-19T18:00:33Z</time></trkpt><trkpt lat="43.485695404759326" lon="13.09707215278952"><ele>114.0</ele><time>2026-04-19T18:00:34Z</time></trkpt><trkpt lat="43.48591191477358" lon="13.097364736187568"><ele>114.0</ele><time>2026-04-19T18:00:35Z</time></trkpt><trkpt lat="43.486129842628095" lon="13.097653665256662"><ele>114.0</ele><time>2026-04-19T18:00:36Z</time></trkpt><trkpt lat="43.486570317359025" lon="13.09822474410048"><ele>114.0</ele><time>2026-04-19T18:00:38Z</time></trkpt><trkpt lat="43.48679002750945" lon="13.098510360249485"><ele>114.0</ele><time>2026-04-19T18:00:39Z</time></trkpt><trkpt lat="43.487011107229876" lon="13.09879188342684"><ele>112.5</ele><time>2026-04-19T18:00:40Z</time></trkpt><trkpt lat="43.48723436309622" lon="13.099072733806242"><ele>111.0</ele><time>2026-04-19T18:00:41Z</time></trkpt><trkpt lat="43.4874582039522" lon="13.099347772039962"><ele>111.0</ele><time>2026-04-19T18:00:42Z</time></trkpt><trkpt lat="43.487681210354026" lon="13.09962006433003"><ele>111.0</ele><time>2026-04-19T18:00:43Z</time></trkpt><trkpt lat="43.48789981254086" lon="13.09988799842032"><ele>111.0</ele><time>2026-04-19T18:00:44Z</time></trkpt><trkpt lat="43.4881117523397" lon="13.100152337709865"><ele>111.0</ele><time>2026-04-19T18:00:45Z</time></trkpt><trkpt lat="43.48832004770678" lon="13.1004107479945"><ele>111.0</ele><time>2026-04-19T18:00:46Z</time></trkpt><trkpt lat="43.4885218292734" lon="13.100666892744574"><ele>111.0</ele><time>2026-04-19T18:00:47Z</time></trkpt><trkpt lat="43.48871742260981" lon="13.100918593006853"><ele>110.5</ele><time>2026-04-19T18:00:48Z</time></trkpt><trkpt lat="43.488908573898854" lon="13.101167722555044"><ele>110.0</ele><time>2026-04-19T18:00:49Z</time></trkpt><trkpt lat="43.48909492074195" lon="13.101413943397306"><ele>110.5</ele><time>2026-04-19T18:00:50Z</time></trkpt><trkpt lat="43.48927778461018" lon="13.101659591092055"><ele>111.0</ele><time>2026-04-19T18:00:51Z</time></trkpt><trkpt lat="43.489452592530945" lon="13.101911986605757"><ele>110.0</ele><time>2026-04-19T18:00:52Z</time></trkpt><trkpt lat="43.48962538804864" lon="13.102171367447596"><ele>109.0</ele><time>2026-04-19T18:00:53Z</time></trkpt><trkpt lat="43.48979569796759" lon="13.102429085137125"><ele>109.0</ele><time>2026-04-19T18:00:54Z</time></trkpt><trkpt lat="43.48996706107219" lon="13.10268759054558"><ele>109.0</ele><time>2026-04-19T18:00:55Z</time></trkpt><trkpt lat="43.490134415293646" lon="13.10294347758671"><ele>109.0</ele><time>2026-04-19T18:00:56Z</time></trkpt><trkpt lat="43.4902990421834" lon="13.103202424751077"><ele>109.0</ele><time>2026-04-19T18:00:57Z</time></trkpt><trkpt lat="43.49045754702" lon="13.103461926613342"><ele>108.0</ele><time>2026-04-19T18:00:58Z</time></trkpt><trkpt lat="43.49061461872133" lon="13.10372612310085"><ele>107.0</ele><time>2026-04-19T18:00:59Z</time></trkpt><trkpt lat="43.49076812186554" lon="13.103992857258234"><ele>108.0</ele><time>2026-04-19T18:01:00Z</time></trkpt><trkpt lat="43.49091828266061" lon="13.10426138159754"><ele>109.0</ele><time>2026-04-19T18:01:01Z</time></trkpt><trkpt lat="43.4910672340519" lon="13.104535328712075"><ele>109.0</ele><time>2026-04-19T18:01:02Z</time></trkpt><trkpt lat="43.49121430618673" lon="13.104813268011714"><ele>109.0</ele><time>2026-04-19T18:01:03Z</time></trkpt><trkpt lat="43.491361093298714" lon="13.105091085748509"><ele>108.0</ele><time>2026-04-19T18:01:04Z</time></trkpt><trkpt lat="43.4915068907366" lon="13.105373356164066"><ele>107.0</ele><time>2026-04-19T18:01:05Z</time></trkpt><trkpt lat="43.491651516716765" lon="13.105660585077263"><ele>108.5</ele><time>2026-04-19T18:01:06Z</time></trkpt><trkpt lat="43.49179172303065" lon="13.105952626165163"><ele>110.0</ele><time>2026-04-19T18:01:07Z</time></trkpt><trkpt lat="43.49193478155021" lon="13.106252251643406"><ele>110.0</ele><time>2026-04-19T18:01:08Z</time></trkpt><trkpt lat="43.49207494518728" lon="13.106556982614128"><ele>110.0</ele><time>2026-04-19T18:01:09Z</time></trkpt><trkpt lat="43.49220954329957" lon="13.106866494508461"><ele>109.0</ele><time>2026-04-19T18:01:10Z</time></trkpt><trkpt lat="43.492342867082925" lon="13.107179085566957"><ele>108.0</ele><time>2026-04-19T18:01:11Z</time></trkpt><trkpt lat="43.49247447269716" lon="13.107493999611862"><ele>108.0</ele><time>2026-04-19T18:01:12Z</time></trkpt><trkpt lat="43.49260649158558" lon="13.107807021102182"><ele>108.0</ele><time>2026-04-19T18:01:13Z</time></trkpt><trkpt lat="43.492740334347" lon="13.108121134357674"><ele>108.0</ele><time>2026-04-19T18:01:14Z</time></trkpt><trkpt lat="43.492872553895296" lon="13.108436185345317"><ele>108.0</ele><time>2026-04-19T18:01:15Z</time></trkpt><trkpt lat="43.493005303206964" lon="13.108753701725028"><ele>107.5</ele><time>2026-04-19T18:01:16Z</time></trkpt><trkpt lat="43.49313596429828" lon="13.109072317228366"><ele>107.0</ele><time>2026-04-19T18:01:17Z</time></trkpt><trkpt lat="43.49326535566455" lon="13.109392497143078"><ele>107.0</ele><time>2026-04-19T18:01:18Z</time></trkpt><trkpt lat="43.49339291509281" lon="13.109716824242186"><ele>107.0</ele><time>2026-04-19T18:01:19Z</time></trkpt><trkpt lat="43.4935171170029" lon="13.110043949124547"><ele>106.5</ele><time>2026-04-19T18:01:20Z</time></trkpt><trkpt lat="43.49363663470013" lon="13.110376140345517"><ele>106.0</ele><time>2026-04-19T18:01:21Z</time></trkpt><trkpt lat="43.493750963872145" lon="13.110713192952142"><ele>105.0</ele><time>2026-04-19T18:01:22Z</time></trkpt><trkpt lat="43.49386310145664" lon="13.111053676236967"><ele>104.0</ele><time>2026-04-19T18:01:23Z</time></trkpt><trkpt lat="43.493970927942605" lon="13.111396377235092"><ele>104.5</ele><time>2026-04-19T18:01:24Z</time></trkpt><trkpt lat="43.494074388777726" lon="13.111743432102188"><ele>105.0</ele><time>2026-04-19T18:01:25Z</time></trkpt><trkpt lat="43.49417208384686" lon="13.112090137771977"><ele>104.5</ele><time>2026-04-19T18:01:26Z</time></trkpt><trkpt lat="43.49426253558921" lon="13.112444430871745"><ele>104.0</ele><time>2026-04-19T18:01:27Z</time></trkpt><trkpt lat="43.49434536830311" lon="13.112802633043652"><ele>104.0</ele><time>2026-04-19T18:01:28Z</time></trkpt><trkpt lat="43.49442318712889" lon="13.11316440273918"><ele>104.0</ele><time>2026-04-19T18:01:29Z</time></trkpt><trkpt lat="43.49449832319342" lon="13.113526549002742"><ele>104.0</ele><time>2026-04-19T18:01:30Z</time></trkpt><trkpt lat="43.494570562438795" lon="13.113889751624445"><ele>104.0</ele><time>2026-04-19T18:01:31Z</time></trkpt><trkpt lat="43.494636447445146" lon="13.114257094631732"><ele>103.5</ele><time>2026-04-19T18:01:32Z</time></trkpt><trkpt lat="43.49469596839295" lon="13.114628015828558"><ele>103.0</ele><time>2026-04-19T18:01:33Z</time></trkpt><trkpt lat="43.494754690129774" lon="13.115007075918871"><ele>103.0</ele><time>2026-04-19T18:01:34Z</time></trkpt><trkpt lat="43.494806599798615" lon="13.11537552104819"><ele>103.0</ele><time>2026-04-19T18:01:35Z</time></trkpt><trkpt lat="43.4948555417813" lon="13.115754765063983"><ele>103.5</ele><time>2026-04-19T18:01:36Z</time></trkpt><trkpt lat="43.494895940269416" lon="13.116128920064584"><ele>104.0</ele><time>2026-04-19T18:01:37Z</time></trkpt><trkpt lat="43.49492811365369" lon="13.116503857731427"><ele>104.5</ele><time>2026-04-19T18:01:38Z</time></trkpt><trkpt lat="43.49494869221407" lon="13.116878157069237"><ele>105.0</ele><time>2026-04-19T18:01:39Z</time></trkpt><trkpt lat="43.49496363607901" lon="13.117252674610487"><ele>104.5</ele><time>2026-04-19T18:01:40Z</time></trkpt><trkpt lat="43.49497467514801" lon="13.117628804748497"><ele>104.0</ele><time>2026-04-19T18:01:41Z</time></trkpt><trkpt lat="43.49497905505641" lon="13.118004725324747"><ele>104.0</ele><time>2026-04-19T18:01:42Z</time></trkpt><trkpt lat="43.494970355641264" lon="13.118379935830784"><ele>104.0</ele><time>2026-04-19T18:01:43Z</time></trkpt><trkpt lat="43.49496333881946" lon="13.118756999660691"><ele>104.5</ele><time>2026-04-19T18:01:44Z</time></trkpt><trkpt lat="43.494954043134655" lon="13.119134291947184"><ele>105.0</ele><time>2026-04-19T18:01:45Z</time></trkpt><trkpt lat="43.49494579476138" lon="13.119508354933904"><ele>105.0</ele><time>2026-04-19T18:01:46Z</time></trkpt><trkpt lat="43.49494076124953" lon="13.119885267998367"><ele>105.0</ele><time>2026-04-19T18:01:47Z</time></trkpt><trkpt lat="43.49493249084901" lon="13.120264156562524"><ele>104.5</ele><time>2026-04-19T18:01:48Z</time></trkpt><trkpt lat="43.49492554977442" lon="13.12064739935739"><ele>104.0</ele><time>2026-04-19T18:01:49Z</time></trkpt><trkpt lat="43.49491793230031" lon="13.121032289486143"><ele>103.0</ele><time>2026-04-19T18:01:49.999Z</time></trkpt><trkpt lat="43.49490239077721" lon="13.1214141849321"><ele>102.0</ele><time>2026-04-19T18:01:50.999Z</time></trkpt><trkpt lat="43.49489651569196" lon="13.121794992264599"><ele>102.0</ele><time>2026-04-19T18:01:51.999Z</time></trkpt><trkpt lat="43.49488990344549" lon="13.122175225621529"><ele>102.0</ele><time>2026-04-19T18:01:52.999Z</time></trkpt><trkpt lat="43.494881202796506" lon="13.122558856213642"><ele>102.0</ele><time>2026-04-19T18:01:53.999Z</time></trkpt><trkpt lat="43.49487449228244" lon="13.122943794608066"><ele>102.0</ele><time>2026-04-19T18:01:54.999Z</time></trkpt><trkpt lat="43.49486816498493" lon="13.123328263618253"><ele>102.0</ele><time>2026-04-19T18:01:55.999Z</time></trkpt><trkpt lat="43.49485971119399" lon="13.12371284384497"><ele>102.0</ele><time>2026-04-19T18:01:56.999Z</time></trkpt><trkpt lat="43.494851605935025" lon="13.124096976923639"><ele>102.0</ele><time>2026-04-19T18:01:57.999Z</time></trkpt><trkpt lat="43.49484577147336" lon="13.124484340177535"><ele>102.0</ele><time>2026-04-19T18:01:58.999Z</time></trkpt><trkpt lat="43.49483725054201" lon="13.12486895274696"><ele>102.0</ele><time>2026-04-19T18:01:59.999Z</time></trkpt><trkpt lat="43.49482733265434" lon="13.125252297329952"><ele>102.0</ele><time>2026-04-19T18:02:00.999Z</time></trkpt><trkpt lat="43.494820225741314" lon="13.125640222452198"><ele>102.5</ele><time>2026-04-19T18:02:01.999Z</time></trkpt><trkpt lat="43.49481156874462" lon="13.126023790903533"><ele>103.0</ele><time>2026-04-19T18:02:02.999Z</time></trkpt><trkpt lat="43.49480291472763" lon="13.12640980056111"><ele>103.5</ele><time>2026-04-19T18:02:03.999Z</time></trkpt><trkpt lat="43.49479622079183" lon="13.126800548142125"><ele>104.0</ele><time>2026-04-19T18:02:04.999Z</time></trkpt><trkpt lat="43.4947861458029" lon="13.127189567064352"><ele>103.0</ele><time>2026-04-19T18:02:05.999Z</time></trkpt><trkpt lat="43.494771950334076" lon="13.127587585794977"><ele>102.0</ele><time>2026-04-19T18:02:06.999Z</time></trkpt><trkpt lat="43.49476135382035" lon="13.127986504064964"><ele>102.0</ele><time>2026-04-19T18:02:07.999Z</time></trkpt><trkpt lat="43.49475180430974" lon="13.128383318030313"><ele>102.0</ele><time>2026-04-19T18:02:09Z</time></trkpt><trkpt lat="43.49474175773141" lon="13.128787005205744"><ele>102.0</ele><time>2026-04-19T18:02:10Z</time></trkpt><trkpt lat="43.49473842705297" lon="13.12918097187883"><ele>102.0</ele><time>2026-04-19T18:02:11Z</time></trkpt><trkpt lat="43.49473252292115" lon="13.129577540387999"><ele>102.0</ele><time>2026-04-19T18:02:12Z</time></trkpt><trkpt lat="43.49472861176237" lon="13.129973655191325"><ele>102.0</ele><time>2026-04-19T18:02:13Z</time></trkpt><trkpt lat="43.49473077582821" lon="13.13037189105037"><ele>102.0</ele><time>2026-04-19T18:02:14Z</time></trkpt><trkpt lat="43.494745686982434" lon="13.130771702200086"><ele>102.0</ele><time>2026-04-19T18:02:15Z</time></trkpt><trkpt lat="43.494769322252175" lon="13.131164887677183"><ele>101.5</ele><time>2026-04-19T18:02:16Z</time></trkpt><trkpt lat="43.494802976958084" lon="13.131559086568501"><ele>101.0</ele><time>2026-04-19T18:02:17Z</time></trkpt><trkpt lat="43.49484028808822" lon="13.131951831803441"><ele>101.0</ele><time>2026-04-19T18:02:18Z</time></trkpt><trkpt lat="43.49489213095317" lon="13.1323454551727"><ele>101.0</ele><time>2026-04-19T18:02:19Z</time></trkpt><trkpt lat="43.49494759607992" lon="13.13273983791153"><ele>101.0</ele><time>2026-04-19T18:02:20Z</time></trkpt><trkpt lat="43.49500476244716" lon="13.133125843304219"><ele>101.0</ele><time>2026-04-19T18:02:21Z</time></trkpt><trkpt lat="43.495061091185256" lon="13.133514480684273"><ele>101.0</ele><time>2026-04-19T18:02:22Z</time></trkpt><trkpt lat="43.49511876177916" lon="13.133906006589687"><ele>101.0</ele><time>2026-04-19T18:02:23Z</time></trkpt><trkpt lat="43.49517409548522" lon="13.134296928221"><ele>101.0</ele><time>2026-04-19T18:02:24Z</time></trkpt><trkpt lat="43.49523008880975" lon="13.13468338296417"><ele>101.0</ele><time>2026-04-19T18:02:25Z</time></trkpt><trkpt lat="43.49528576836284" lon="13.135069135964457"><ele>100.5</ele><time>2026-04-19T18:02:26Z</time></trkpt><trkpt lat="43.4953392756537" lon="13.135456501380324"><ele>100.0</ele><time>2026-04-19T18:02:27Z</time></trkpt><trkpt lat="43.49538686476421" lon="13.135843540208944"><ele>99.0</ele><time>2026-04-19T18:02:28Z</time></trkpt><trkpt lat="43.49542170025092" lon="13.136228549152845"><ele>98.0</ele><time>2026-04-19T18:02:29Z</time></trkpt><trkpt lat="43.495440664081634" lon="13.136615429651478"><ele>98.0</ele><time>2026-04-19T18:02:30Z</time></trkpt><trkpt lat="43.495450659186886" lon="13.137005072253446"><ele>98.0</ele><time>2026-04-19T18:02:31Z</time></trkpt><trkpt lat="43.495454750770655" lon="13.137393631199632"><ele>98.5</ele><time>2026-04-19T18:02:32Z</time></trkpt><trkpt lat="43.49544847003292" lon="13.137779688651621"><ele>99.0</ele><time>2026-04-19T18:02:33Z</time></trkpt><trkpt lat="43.49543634012146" lon="13.13816774575289"><ele>99.0</ele><time>2026-04-19T18:02:34Z</time></trkpt><trkpt lat="43.495418612597476" lon="13.13855292644709"><ele>99.0</ele><time>2026-04-19T18:02:35Z</time></trkpt><trkpt lat="43.49538998863461" lon="13.138934448348337"><ele>99.5</ele><time>2026-04-19T18:02:36Z</time></trkpt><trkpt lat="43.495351293636546" lon="13.139317892498743"><ele>100.0</ele><time>2026-04-19T18:02:37Z</time></trkpt><trkpt lat="43.495309528177565" lon="13.139697354984527"><ele>99.0</ele><time>2026-04-19T18:02:38Z</time></trkpt><trkpt lat="43.495268085666915" lon="13.140079025404125"><ele>98.0</ele><time>2026-04-19T18:02:39Z</time></trkpt><trkpt lat="43.495231170491955" lon="13.140463373616617"><ele>97.5</ele><time>2026-04-19T18:02:40Z</time></trkpt><trkpt lat="43.495194931646346" lon="13.140844276366073"><ele>97.0</ele><time>2026-04-19T18:02:41Z</time></trkpt><trkpt lat="43.495158298337564" lon="13.141228733698645"><ele>97.0</ele><time>2026-04-19T18:02:42Z</time></trkpt><trkpt lat="43.49512120932649" lon="13.141607564678496"><ele>97.0</ele><time>2026-04-19T18:02:43Z</time></trkpt><trkpt lat="43.49508342278532" lon="13.141995266086552"><ele>97.0</ele><time>2026-04-19T18:02:44Z</time></trkpt><trkpt lat="43.49503137312274" lon="13.142381067749715"><ele>97.0</ele><time>2026-04-19T18:02:45Z</time></trkpt><trkpt lat="43.49497311879742" lon="13.142764374444809"><ele>97.0</ele><time>2026-04-19T18:02:46Z</time></trkpt><trkpt lat="43.49490630324668" lon="13.143146258813891"><ele>97.0</ele><time>2026-04-19T18:02:47Z</time></trkpt><trkpt lat="43.49482897490807" lon="13.143519950523292"><ele>96.0</ele><time>2026-04-19T18:02:48Z</time></trkpt><trkpt lat="43.4947468174911" lon="13.143889649592557"><ele>95.0</ele><time>2026-04-19T18:02:49Z</time></trkpt><trkpt lat="43.49464345981123" lon="13.144249379830343"><ele>96.0</ele><time>2026-04-19T18:02:50Z</time></trkpt><trkpt lat="43.49453634474938" lon="13.14461113741684"><ele>97.0</ele><time>2026-04-19T18:02:51Z</time></trkpt><trkpt lat="43.494428452478395" lon="13.144960810096384"><ele>97.0</ele><time>2026-04-19T18:02:52Z</time></trkpt><trkpt lat="43.494310427539745" lon="13.14530940417999"><ele>97.0</ele><time>2026-04-19T18:02:53Z</time></trkpt><trkpt lat="43.49418945323921" lon="13.145659481822971"><ele>97.5</ele><time>2026-04-19T18:02:54Z</time></trkpt><trkpt lat="43.4940659744422" lon="13.146008057776267"><ele>98.0</ele><time>2026-04-19T18:02:55Z</time></trkpt><trkpt lat="43.49394233861783" lon="13.146354469433323"><ele>97.5</ele><time>2026-04-19T18:02:56Z</time></trkpt><trkpt lat="43.493818035866255" lon="13.146704508063635"><ele>97.0</ele><time>2026-04-19T18:02:57Z</time></trkpt><trkpt lat="43.49369632030253" lon="13.147056578900221"><ele>101.0</ele><time>2026-04-19T18:02:58Z</time></trkpt><trkpt lat="43.49357455521033" lon="13.147407378597428"><ele>105.0</ele><time>2026-04-19T18:02:59Z</time></trkpt><trkpt lat="43.49345493359657" lon="13.147762189858831"><ele>105.0</ele><time>2026-04-19T18:03:00Z</time></trkpt><trkpt lat="43.49333846337976" lon="13.148119170616049"><ele>105.0</ele><time>2026-04-19T18:03:01Z</time></trkpt><trkpt lat="43.493222551210344" lon="13.148479680876337"><ele>104.0</ele><time>2026-04-19T18:03:02Z</time></trkpt><trkpt lat="43.493117370508244" lon="13.148845781034536"><ele>103.0</ele><time>2026-04-19T18:03:03Z</time></trkpt><trkpt lat="43.49302715573911" lon="13.14922626227104"><ele>101.0</ele><time>2026-04-19T18:03:04Z</time></trkpt><trkpt lat="43.49295686257895" lon="13.149614908041418"><ele>99.0</ele><time>2026-04-19T18:03:05Z</time></trkpt><trkpt lat="43.492888208205" lon="13.15000364780681"><ele>103.0</ele><time>2026-04-19T18:03:06Z</time></trkpt><trkpt lat="43.49284484039891" lon="13.150398518707254"><ele>107.0</ele><time>2026-04-19T18:03:07Z</time></trkpt><trkpt lat="43.49281771197012" lon="13.150804919489591"><ele>107.0</ele><time>2026-04-19T18:03:08Z</time></trkpt><trkpt lat="43.492806184885914" lon="13.151209878073496"><ele>107.0</ele><time>2026-04-19T18:03:09Z</time></trkpt><trkpt lat="43.4928073833867" lon="13.151619465518417"><ele>106.0</ele><time>2026-04-19T18:03:10Z</time></trkpt><trkpt lat="43.49282418776786" lon="13.152022841740852"><ele>105.0</ele><time>2026-04-19T18:03:11Z</time></trkpt><trkpt lat="43.49285948914857" lon="13.15242873181935"><ele>104.5</ele><time>2026-04-19T18:03:12Z</time></trkpt><trkpt lat="43.492908947485795" lon="13.152834796281233"><ele>104.0</ele><time>2026-04-19T18:03:13Z</time></trkpt><trkpt lat="43.492971292457824" lon="13.153234696664313"><ele>103.0</ele><time>2026-04-19T18:03:14Z</time></trkpt><trkpt lat="43.49305080553833" lon="13.153620018808688"><ele>102.0</ele><time>2026-04-19T18:03:15Z</time></trkpt><trkpt lat="43.49314237440072" lon="13.15400756653588"><ele>103.0</ele><time>2026-04-19T18:03:16Z</time></trkpt><trkpt lat="43.49325397194241" lon="13.154375937856932"><ele>104.0</ele><time>2026-04-19T18:03:17Z</time></trkpt><trkpt lat="43.493368587106055" lon="13.154754840272032"><ele>104.0</ele><time>2026-04-19T18:03:18Z</time></trkpt><trkpt lat="43.49348128339821" lon="13.155125364232322"><ele>104.0</ele><time>2026-04-19T18:03:19Z</time></trkpt><trkpt lat="43.49359042675337" lon="13.155507604668362"><ele>104.5</ele><time>2026-04-19T18:03:20Z</time></trkpt><trkpt lat="43.49369732121754" lon="13.155881448697937"><ele>105.0</ele><time>2026-04-19T18:03:21Z</time></trkpt><trkpt lat="43.49380868992051" lon="13.156247187198026"><ele>103.5</ele><time>2026-04-19T18:03:22Z</time></trkpt><trkpt lat="43.493919105951065" lon="13.156615891705737"><ele>102.0</ele><time>2026-04-19T18:03:23Z</time></trkpt><trkpt lat="43.49402676892038" lon="13.15698580950173"><ele>102.0</ele><time>2026-04-19T18:03:24Z</time></trkpt><trkpt lat="43.49413481557626" lon="13.157357606737202"><ele>102.0</ele><time>2026-04-19T18:03:25Z</time></trkpt><trkpt lat="43.49424561948044" lon="13.157731787015358"><ele>102.0</ele><time>2026-04-19T18:03:26Z</time></trkpt><trkpt lat="43.49435047372385" lon="13.158102369411466"><ele>102.0</ele><time>2026-04-19T18:03:27Z</time></trkpt><trkpt lat="43.49446004434315" lon="13.158471225878294"><ele>102.0</ele><time>2026-04-19T18:03:28Z</time></trkpt><trkpt lat="43.49456989910017" lon="13.158848553339956"><ele>102.0</ele><time>2026-04-19T18:03:29Z</time></trkpt><trkpt lat="43.49468305155914" lon="13.159229258476008"><ele>97.0</ele><time>2026-04-19T18:03:30Z</time></trkpt><trkpt lat="43.49479407153625" lon="13.159613842367229"><ele>92.0</ele><time>2026-04-19T18:03:31Z</time></trkpt><trkpt lat="43.494896031202714" lon="13.160003341557376"><ele>92.0</ele><time>2026-04-19T18:03:32Z</time></trkpt><trkpt lat="43.4949852159289" lon="13.160398559378416"><ele>92.0</ele><time>2026-04-19T18:03:33Z</time></trkpt><trkpt lat="43.49505792785198" lon="13.160794923974931"><ele>91.5</ele><time>2026-04-19T18:03:34Z</time></trkpt><trkpt lat="43.49512415821479" lon="13.161193761388226"><ele>91.0</ele><time>2026-04-19T18:03:35Z</time></trkpt><trkpt lat="43.49518714009994" lon="13.161592815323933"><ele>91.0</ele><time>2026-04-19T18:03:36Z</time></trkpt><trkpt lat="43.49523772649415" lon="13.161991558727278"><ele>91.0</ele><time>2026-04-19T18:03:37Z</time></trkpt><trkpt lat="43.49527482137638" lon="13.162388415422793"><ele>90.5</ele><time>2026-04-19T18:03:38Z</time></trkpt><trkpt lat="43.49530768234533" lon="13.162797762160594"><ele>90.0</ele><time>2026-04-19T18:03:39Z</time></trkpt><trkpt lat="43.49532198123522" lon="13.163202925544915"><ele>89.5</ele><time>2026-04-19T18:03:40Z</time></trkpt><trkpt lat="43.49533004299604" lon="13.163611454739952"><ele>89.0</ele><time>2026-04-19T18:03:41Z</time></trkpt><trkpt lat="43.49532772657939" lon="13.164023552469946"><ele>88.5</ele><time>2026-04-19T18:03:42Z</time></trkpt><trkpt lat="43.4953177168514" lon="13.164440039207554"><ele>88.0</ele><time>2026-04-19T18:03:43Z</time></trkpt><trkpt lat="43.49529595671383" lon="13.164853199140973"><ele>88.0</ele><time>2026-04-19T18:03:44Z</time></trkpt><trkpt lat="43.495264651916656" lon="13.16526750607413"><ele>88.0</ele><time>2026-04-19T18:03:45Z</time></trkpt><trkpt lat="43.49522228306428" lon="13.16568034076527"><ele>87.5</ele><time>2026-04-19T18:03:46Z</time></trkpt><trkpt lat="43.49517000997762" lon="13.166088541725442"><ele>87.0</ele><time>2026-04-19T18:03:47Z</time></trkpt><trkpt lat="43.495106026005445" lon="13.166493036297306"><ele>87.0</ele><time>2026-04-19T18:03:48Z</time></trkpt><trkpt lat="43.49503540058305" lon="13.166894435774033"><ele>87.0</ele><time>2026-04-19T18:03:49Z</time></trkpt><trkpt lat="43.49495805229847" lon="13.167293772485904"><ele>86.0</ele><time>2026-04-19T18:03:50Z</time></trkpt><trkpt lat="43.49487440966376" lon="13.167686199335659"><ele>85.0</ele><time>2026-04-19T18:03:51Z</time></trkpt><trkpt lat="43.49478410945949" lon="13.168075162153373"><ele>84.5</ele><time>2026-04-19T18:03:52Z</time></trkpt><trkpt lat="43.49469473364985" lon="13.168468515393721"><ele>84.0</ele><time>2026-04-19T18:03:53Z</time></trkpt><trkpt lat="43.49461036978458" lon="13.16886022176076"><ele>85.0</ele><time>2026-04-19T18:03:54Z</time></trkpt><trkpt lat="43.49453002916137" lon="13.169250207581632"><ele>86.0</ele><time>2026-04-19T18:03:55Z</time></trkpt><trkpt lat="43.49444449086524" lon="13.169639291041747"><ele>85.5</ele><time>2026-04-19T18:03:55.999Z</time></trkpt><trkpt lat="43.49435837162713" lon="13.170028249708118"><ele>85.0</ele><time>2026-04-19T18:03:56.999Z</time></trkpt><trkpt lat="43.49427477391187" lon="13.170415721037415"><ele>85.5</ele><time>2026-04-19T18:03:57.999Z</time></trkpt><trkpt lat="43.49418778836582" lon="13.170807947309264"><ele>86.0</ele><time>2026-04-19T18:03:58.999Z</time></trkpt><trkpt lat="43.49410129211364" lon="13.171192955120153"><ele>85.5</ele><time>2026-04-19T18:03:59.999Z</time></trkpt><trkpt lat="43.49401081736877" lon="13.171579967286752"><ele>85.0</ele><time>2026-04-19T18:04:00.999Z</time></trkpt><trkpt lat="43.4939194244519" lon="13.171963575064364"><ele>85.0</ele><time>2026-04-19T18:04:01.999Z</time></trkpt><trkpt lat="43.49382851443036" lon="13.172350615105705"><ele>85.0</ele><time>2026-04-19T18:04:02.999Z</time></trkpt><trkpt lat="43.49374013241769" lon="13.172736551324036"><ele>85.0</ele><time>2026-04-19T18:04:03.999Z</time></trkpt><trkpt lat="43.493653450040775" lon="13.1731227958526"><ele>85.0</ele><time>2026-04-19T18:04:04.999Z</time></trkpt><trkpt lat="43.493565470195385" lon="13.173511085092262"><ele>85.0</ele><time>2026-04-19T18:04:05.999Z</time></trkpt><trkpt lat="43.49347434306673" lon="13.173897405411372"><ele>85.0</ele><time>2026-04-19T18:04:06.999Z</time></trkpt><trkpt lat="43.493381400576695" lon="13.1742820239001"><ele>85.0</ele><time>2026-04-19T18:04:07.999Z</time></trkpt><trkpt lat="43.493285382821064" lon="13.174667003240792"><ele>85.0</ele><time>2026-04-19T18:04:08.999Z</time></trkpt><trkpt lat="43.49319084910046" lon="13.175051573675882"><ele>85.0</ele><time>2026-04-19T18:04:09.999Z</time></trkpt><trkpt lat="43.49309439635243" lon="13.175434096054325"><ele>85.0</ele><time>2026-04-19T18:04:10.999Z</time></trkpt><trkpt lat="43.492995048806506" lon="13.175816201138106"><ele>84.5</ele><time>2026-04-19T18:04:11.999Z</time></trkpt><trkpt lat="43.49289338224548" lon="13.176197586712947"><ele>84.0</ele><time>2026-04-19T18:04:12.999Z</time></trkpt><trkpt lat="43.4927899820054" lon="13.176577787531217"><ele>84.0</ele><time>2026-04-19T18:04:13.999Z</time></trkpt><trkpt lat="43.49268633326476" lon="13.176957216000444"><ele>84.0</ele><time>2026-04-19T18:04:14.999Z</time></trkpt><trkpt lat="43.49258588369384" lon="13.177335321728876"><ele>84.0</ele><time>2026-04-19T18:04:15.999Z</time></trkpt><trkpt lat="43.49248550128252" lon="13.177716476531348"><ele>84.0</ele><time>2026-04-19T18:04:17Z</time></trkpt><trkpt lat="43.49237905076059" lon="13.178094614924907"><ele>83.0</ele><time>2026-04-19T18:04:18Z</time></trkpt><trkpt lat="43.49226647764612" lon="13.178466124933495"><ele>82.0</ele><time>2026-04-19T18:04:19Z</time></trkpt><trkpt lat="43.492150084588154" lon="13.178834768552727"><ele>82.5</ele><time>2026-04-19T18:04:20Z</time></trkpt><trkpt lat="43.492030973942406" lon="13.179203553629701"><ele>83.0</ele><time>2026-04-19T18:04:21Z</time></trkpt><trkpt lat="43.491912028933974" lon="13.179570154656423"><ele>83.5</ele><time>2026-04-19T18:04:22Z</time></trkpt><trkpt lat="43.49179175646369" lon="13.179926552935619"><ele>84.0</ele><time>2026-04-19T18:04:23Z</time></trkpt><trkpt lat="43.49166901401749" lon="13.180284129838526"><ele>84.0</ele><time>2026-04-19T18:04:24Z</time></trkpt><trkpt lat="43.491548067220485" lon="13.180645457190193"><ele>84.0</ele><time>2026-04-19T18:04:25Z</time></trkpt><trkpt lat="43.49142622623837" lon="13.181003793691874"><ele>84.5</ele><time>2026-04-19T18:04:26Z</time></trkpt><trkpt lat="43.49130192713661" lon="13.181360321385315"><ele>85.0</ele><time>2026-04-19T18:04:27Z</time></trkpt><trkpt lat="43.49117721132178" lon="13.181716981393519"><ele>85.5</ele><time>2026-04-19T18:04:28Z</time></trkpt><trkpt lat="43.49105008487661" lon="13.182071384688406"><ele>86.0</ele><time>2026-04-19T18:04:29Z</time></trkpt><trkpt lat="43.49092168675987" lon="13.182429947282435"><ele>86.0</ele><time>2026-04-19T18:04:30Z</time></trkpt><trkpt lat="43.490793231006315" lon="13.182787033264123"><ele>86.0</ele><time>2026-04-19T18:04:31Z</time></trkpt><trkpt lat="43.49066121553466" lon="13.183141637024791"><ele>86.0</ele><time>2026-04-19T18:04:32Z</time></trkpt><trkpt lat="43.49052743968367" lon="13.183492314809397"><ele>86.0</ele><time>2026-04-19T18:04:33Z</time></trkpt><trkpt lat="43.490390331399105" lon="13.1838462639159"><ele>89.5</ele><time>2026-04-19T18:04:34Z</time></trkpt><trkpt lat="43.49025289835577" lon="13.184196767153129"><ele>93.0</ele><time>2026-04-19T18:04:35Z</time></trkpt><trkpt lat="43.49011284208313" lon="13.18454518441244"><ele>92.0</ele><time>2026-04-19T18:04:36Z</time></trkpt><trkpt lat="43.48996937141693" lon="13.184893093540124"><ele>91.0</ele><time>2026-04-19T18:04:37Z</time></trkpt><trkpt lat="43.489828131407684" lon="13.18524286166244"><ele>91.0</ele><time>2026-04-19T18:04:38Z</time></trkpt><trkpt lat="43.489686066641895" lon="13.185592820665665"><ele>91.0</ele><time>2026-04-19T18:04:39.001Z</time></trkpt><trkpt lat="43.489541925645725" lon="13.185943666967129"><ele>92.0</ele><time>2026-04-19T18:04:40.001Z</time></trkpt><trkpt lat="43.489400710294305" lon="13.186295398117101"><ele>93.0</ele><time>2026-04-19T18:04:41.001Z</time></trkpt><trkpt lat="43.48926197634594" lon="13.186646081293102"><ele>93.0</ele><time>2026-04-19T18:04:42.001Z</time></trkpt><trkpt lat="43.489123556583834" lon="13.18700125589935"><ele>93.0</ele><time>2026-04-19T18:04:43.001Z</time></trkpt><trkpt lat="43.48898840751382" lon="13.18735780243038"><ele>93.5</ele><time>2026-04-19T18:04:44.001Z</time></trkpt><trkpt lat="43.488856442131315" lon="13.187717215373132"><ele>94.0</ele><time>2026-04-19T18:04:45.001Z</time></trkpt><trkpt lat="43.48872588447175" lon="13.188083623174773"><ele>92.5</ele><time>2026-04-19T18:04:46.001Z</time></trkpt><trkpt lat="43.488597797612236" lon="13.188445651888092"><ele>91.0</ele><time>2026-04-19T18:04:47.001Z</time></trkpt><trkpt lat="43.48847171112193" lon="13.188810954524957"><ele>92.0</ele><time>2026-04-19T18:04:48.001Z</time></trkpt><trkpt lat="43.488347319345486" lon="13.189176499876421"><ele>93.0</ele><time>2026-04-19T18:04:49.001Z</time></trkpt><trkpt lat="43.48822657696246" lon="13.189544029468498"><ele>93.0</ele><time>2026-04-19T18:04:50.001Z</time></trkpt><trkpt lat="43.48810598219281" lon="13.189913482078655"><ele>93.0</ele><time>2026-04-19T18:04:51.001Z</time></trkpt><trkpt lat="43.487983565153364" lon="13.190284446668135"><ele>93.5</ele><time>2026-04-19T18:04:52.001Z</time></trkpt><trkpt lat="43.48785990777357" lon="13.190650706395804"><ele>94.0</ele><time>2026-04-19T18:04:53.001Z</time></trkpt><trkpt lat="43.487734761218604" lon="13.19101557874248"><ele>93.5</ele><time>2026-04-19T18:04:54.001Z</time></trkpt><trkpt lat="43.487608830937745" lon="13.19138392560519"><ele>93.0</ele><time>2026-04-19T18:04:55.001Z</time></trkpt><trkpt lat="43.487481931918154" lon="13.191745836589847"><ele>93.0</ele><time>2026-04-19T18:04:56.001Z</time></trkpt><trkpt lat="43.48735539429833" lon="13.192106550580213"><ele>93.0</ele><time>2026-04-19T18:04:57.001Z</time></trkpt><trkpt lat="43.487230039198586" lon="13.192464168984232"><ele>93.0</ele><time>2026-04-19T18:04:58.001Z</time></trkpt><trkpt lat="43.48711198425045" lon="13.192820818854834"><ele>93.0</ele><time>2026-04-19T18:04:59.001Z</time></trkpt><trkpt lat="43.48700239717862" lon="13.193181086074844"><ele>92.0</ele><time>2026-04-19T18:05:00.001Z</time></trkpt><trkpt lat="43.48689791760746" lon="13.19354693752103"><ele>91.0</ele><time>2026-04-19T18:05:01.001Z</time></trkpt><trkpt lat="43.48680319923444" lon="13.193916111438513"><ele>91.5</ele><time>2026-04-19T18:05:02.001Z</time></trkpt><trkpt lat="43.48671893049478" lon="13.19428815560357"><ele>92.0</ele><time>2026-04-19T18:05:03.001Z</time></trkpt><trkpt lat="43.4866393836342" lon="13.194661397101486"><ele>91.5</ele><time>2026-04-19T18:05:04.001Z</time></trkpt><trkpt lat="43.48656967616429" lon="13.195040693942722"><ele>91.0</ele><time>2026-04-19T18:05:05.001Z</time></trkpt><trkpt lat="43.486506757099946" lon="13.19542034755149"><ele>89.5</ele><time>2026-04-19T18:05:06.001Z</time></trkpt><trkpt lat="43.48645049082839" lon="13.19580437474187"><ele>88.0</ele><time>2026-04-19T18:05:07.001Z</time></trkpt><trkpt lat="43.48640869071827" lon="13.196191147811481"><ele>87.5</ele><time>2026-04-19T18:05:08.001Z</time></trkpt><trkpt lat="43.48637543706618" lon="13.196582448424214"><ele>87.0</ele><time>2026-04-19T18:05:09.001Z</time></trkpt><trkpt lat="43.486351319124516" lon="13.196977207494776"><ele>87.5</ele><time>2026-04-19T18:05:10.001Z</time></trkpt><trkpt lat="43.486336969330814" lon="13.197371454884463"><ele>88.0</ele><time>2026-04-19T18:05:11.001Z</time></trkpt><trkpt lat="43.486325206163514" lon="13.197771046729867"><ele>88.0</ele><time>2026-04-19T18:05:12.001Z</time></trkpt><trkpt lat="43.48631500492786" lon="13.198167944688395"><ele>88.0</ele><time>2026-04-19T18:05:13.001Z</time></trkpt><trkpt lat="43.486303817182645" lon="13.19857048333462"><ele>88.0</ele><time>2026-04-19T18:05:14.001Z</time></trkpt><trkpt lat="43.486289312706916" lon="13.198967741501896"><ele>88.0</ele><time>2026-04-19T18:05:15.001Z</time></trkpt><trkpt lat="43.48626579326881" lon="13.199365481469465"><ele>88.0</ele><time>2026-04-19T18:05:16.001Z</time></trkpt><trkpt lat="43.48623181881134" lon="13.199759161499927"><ele>88.0</ele><time>2026-04-19T18:05:17.001Z</time></trkpt><trkpt lat="43.48618879067397" lon="13.200152217120348"><ele>88.0</ele><time>2026-04-19T18:05:18.001Z</time></trkpt><trkpt lat="43.486135260141324" lon="13.200537045649599"><ele>88.0</ele><time>2026-04-19T18:05:19.001Z</time></trkpt><trkpt lat="43.48607249057769" lon="13.200918302816762"><ele>88.0</ele><time>2026-04-19T18:05:20.001Z</time></trkpt><trkpt lat="43.486002520560454" lon="13.20129538425496"><ele>88.0</ele><time>2026-04-19T18:05:21.001Z</time></trkpt><trkpt lat="43.48592223219713" lon="13.201671321702289"><ele>88.0</ele><time>2026-04-19T18:05:22.001Z</time></trkpt><trkpt lat="43.48583515745733" lon="13.202046473583849"><ele>88.0</ele><time>2026-04-19T18:05:23.001Z</time></trkpt><trkpt lat="43.48574170673943" lon="13.20241572128072"><ele>88.0</ele><time>2026-04-19T18:05:24.001Z</time></trkpt><trkpt lat="43.48563932940926" lon="13.202788267216423"><ele>88.0</ele><time>2026-04-19T18:05:25.001Z</time></trkpt><trkpt lat="43.485534559497005" lon="13.203154545710815"><ele>88.5</ele><time>2026-04-19T18:05:26.001Z</time></trkpt><trkpt lat="43.485428860930455" lon="13.203522682507481"><ele>89.0</ele><time>2026-04-19T18:05:27.001Z</time></trkpt><trkpt lat="43.485328448462276" lon="13.203889577345397"><ele>89.0</ele><time>2026-04-19T18:05:28.001Z</time></trkpt><trkpt lat="43.485231770017414" lon="13.204266776381434"><ele>89.0</ele><time>2026-04-19T18:05:29.001Z</time></trkpt><trkpt lat="43.485141170797085" lon="13.204644635228421"><ele>88.5</ele><time>2026-04-19T18:05:30.001Z</time></trkpt><trkpt lat="43.485058166235966" lon="13.205028540909318"><ele>88.0</ele><time>2026-04-19T18:05:31.001Z</time></trkpt><trkpt lat="43.48498838135533" lon="13.205413653006216"><ele>88.0</ele><time>2026-04-19T18:05:32.001Z</time></trkpt><trkpt lat="43.484926884913904" lon="13.205808358852627"><ele>88.0</ele><time>2026-04-19T18:05:33.001Z</time></trkpt><trkpt lat="43.48487570933366" lon="13.206206623817813"><ele>87.5</ele><time>2026-04-19T18:05:34.001Z</time></trkpt><trkpt lat="43.48483220772473" lon="13.206603909943837"><ele>87.0</ele><time>2026-04-19T18:05:35.001Z</time></trkpt><trkpt lat="43.48480015881915" lon="13.207007655900126"><ele>87.0</ele><time>2026-04-19T18:05:36.001Z</time></trkpt><trkpt lat="43.48477316869315" lon="13.207410129887444"><ele>87.0</ele><time>2026-04-19T18:05:37.001Z</time></trkpt><trkpt lat="43.48475664552222" lon="13.207809030984402"><ele>87.0</ele><time>2026-04-19T18:05:38.001Z</time></trkpt><trkpt lat="43.484746289711" lon="13.208207309531192"><ele>87.0</ele><time>2026-04-19T18:05:39.001Z</time></trkpt><trkpt lat="43.484749117716945" lon="13.20860744175192"><ele>87.0</ele><time>2026-04-19T18:05:40.001Z</time></trkpt><trkpt lat="43.484759498859304" lon="13.209005176551239"><ele>87.0</ele><time>2026-04-19T18:05:41.001Z</time></trkpt><trkpt lat="43.484786761753824" lon="13.209396312019406"><ele>87.0</ele><time>2026-04-19T18:05:42.001Z</time></trkpt><trkpt lat="43.48482154128338" lon="13.209778705065455"><ele>87.0</ele><time>2026-04-19T18:05:43.001Z</time></trkpt><trkpt lat="43.4848682906069" lon="13.210155620827166"><ele>87.5</ele><time>2026-04-19T18:05:44.001Z</time></trkpt><trkpt lat="43.48491965498053" lon="13.210526729365307"><ele>88.0</ele><time>2026-04-19T18:05:45.001Z</time></trkpt><trkpt lat="43.48497253749275" lon="13.210891474318773"><ele>87.0</ele><time>2026-04-19T18:05:46.001Z</time></trkpt><trkpt lat="43.48502559160712" lon="13.211241668442224"><ele>86.0</ele><time>2026-04-19T18:05:47.001Z</time></trkpt><trkpt lat="43.48507966696312" lon="13.211592946141382"><ele>86.0</ele><time>2026-04-19T18:05:48.001Z</time></trkpt><trkpt lat="43.485143688151986" lon="13.211927597188266"><ele>86.0</ele><time>2026-04-19T18:05:49.001Z</time></trkpt><trkpt lat="43.48521343296559" lon="13.212269609005286"><ele>86.0</ele><time>2026-04-19T18:05:50.001Z</time></trkpt><trkpt lat="43.48530011249321" lon="13.21260146219843"><ele>86.0</ele><time>2026-04-19T18:05:51.001Z</time></trkpt><trkpt lat="43.48539198675487" lon="13.212931666124168"><ele>85.5</ele><time>2026-04-19T18:05:52.001Z</time></trkpt><trkpt lat="43.48549207944991" lon="13.213257143213074"><ele>85.0</ele><time>2026-04-19T18:05:53.001Z</time></trkpt><trkpt lat="43.485598955804164" lon="13.213578000743672"><ele>85.0</ele><time>2026-04-19T18:05:54.001Z</time></trkpt><trkpt lat="43.485714695339254" lon="13.213898694766307"><ele>85.0</ele><time>2026-04-19T18:05:55.001Z</time></trkpt><trkpt lat="43.485841640786674" lon="13.214223437550261"><ele>85.5</ele><time>2026-04-19T18:05:56.001Z</time></trkpt><trkpt lat="43.485980997950804" lon="13.214552882688368"><ele>86.0</ele><time>2026-04-19T18:05:57.001Z</time></trkpt><trkpt lat="43.48612008900093" lon="13.214900301978979"><ele>86.0</ele><time>2026-04-19T18:05:58.001Z</time></trkpt><trkpt lat="43.48625239688051" lon="13.215247259017524"><ele>86.0</ele><time>2026-04-19T18:05:59.001Z</time></trkpt><trkpt lat="43.48637969261753" lon="13.215592820657925"><ele>85.5</ele><time>2026-04-19T18:06:00.001Z</time></trkpt><trkpt lat="43.4865068365942" lon="13.215942621353319"><ele>85.0</ele><time>2026-04-19T18:06:01.001Z</time></trkpt><trkpt lat="43.486637085499346" lon="13.216300598653431"><ele>86.0</ele><time>2026-04-19T18:06:02Z</time></trkpt><trkpt lat="43.48677245064492" lon="13.216671932695636"><ele>87.0</ele><time>2026-04-19T18:06:03Z</time></trkpt><trkpt lat="43.48690373055162" lon="13.217037772400696"><ele>86.5</ele><time>2026-04-19T18:06:04Z</time></trkpt><trkpt lat="43.487032820563314" lon="13.217398651564974"><ele>86.0</ele><time>2026-04-19T18:06:05Z</time></trkpt><trkpt lat="43.487161996718555" lon="13.217758963786526"><ele>85.5</ele><time>2026-04-19T18:06:06Z</time></trkpt><trkpt lat="43.487278104052415" lon="13.21810037834677"><ele>85.0</ele><time>2026-04-19T18:06:07Z</time></trkpt><trkpt lat="43.487386781783464" lon="13.218413298538412"><ele>85.0</ele><time>2026-04-19T18:06:08Z</time></trkpt><trkpt lat="43.48748545009023" lon="13.2187110107055"><ele>85.0</ele><time>2026-04-19T18:06:09Z</time></trkpt><trkpt lat="43.48757712134415" lon="13.218990684026558"><ele>85.0</ele><time>2026-04-19T18:06:10Z</time></trkpt><trkpt lat="43.487663862430026" lon="13.21924303766562"><ele>85.0</ele><time>2026-04-19T18:06:11Z</time></trkpt><trkpt lat="43.48774376458955" lon="13.219465969193754"><ele>85.0</ele><time>2026-04-19T18:06:12Z</time></trkpt><trkpt lat="43.48782103446049" lon="13.219678681321565"><ele>84.5</ele><time>2026-04-19T18:06:13Z</time></trkpt><trkpt lat="43.487894939105175" lon="13.219879698619017"><ele>84.0</ele><time>2026-04-19T18:06:14Z</time></trkpt><trkpt lat="43.488007522039275" lon="13.220267684726455"><ele>84.0</ele><time>2026-04-19T18:06:16Z</time></trkpt><trkpt lat="43.48801999798004" lon="13.220469230956342"><ele>84.0</ele><time>2026-04-19T18:06:17Z</time></trkpt><trkpt lat="43.488000980726206" lon="13.220662658772897"><ele>84.0</ele><time>2026-04-19T18:06:18Z</time></trkpt><trkpt lat="43.48796629149524" lon="13.220847826530612"><ele>84.0</ele><time>2026-04-19T18:06:19Z</time></trkpt><trkpt lat="43.487918805653884" lon="13.221015676535275"><ele>84.0</ele><time>2026-04-19T18:06:20Z</time></trkpt><trkpt lat="43.48788136238221" lon="13.221183627981054"><ele>84.0</ele><time>2026-04-19T18:06:21Z</time></trkpt><trkpt lat="43.4878468784613" lon="13.22134315429674"><ele>84.0</ele><time>2026-04-19T18:06:22Z</time></trkpt><trkpt lat="43.48782882945817" lon="13.221497147120468"><ele>84.0</ele><time>2026-04-19T18:06:23Z</time></trkpt><trkpt lat="43.4878348753212" lon="13.221634544403978"><ele>84.0</ele><time>2026-04-19T18:06:24Z</time></trkpt><trkpt lat="43.487879239714665" lon="13.221761810949063"><ele>84.0</ele><time>2026-04-19T18:06:25Z</time></trkpt><trkpt lat="43.48795033299944" lon="13.221862346007798"><ele>84.0</ele><time>2026-04-19T18:06:26.001Z</time></trkpt><trkpt lat="43.48803935255201" lon="13.221930502416528"><ele>84.0</ele><time>2026-04-19T18:06:27.001Z</time></trkpt><trkpt lat="43.48813988118934" lon="13.221952451816252"><ele>84.0</ele><time>2026-04-19T18:06:28.001Z</time></trkpt><trkpt lat="43.488247048578394" lon="13.221938082520813"><ele>83.5</ele><time>2026-04-19T18:06:29.001Z</time></trkpt><trkpt lat="43.48835274526403" lon="13.221880455873965"><ele>83.0</ele><time>2026-04-19T18:06:30.001Z</time></trkpt><trkpt lat="43.488468489927065" lon="13.221791749563556"><ele>82.5</ele><time>2026-04-19T18:06:31.001Z</time></trkpt><trkpt lat="43.488599007077575" lon="13.221687278254194"><ele>82.0</ele><time>2026-04-19T18:06:32.001Z</time></trkpt><trkpt lat="43.488731936318594" lon="13.221576700715886"><ele>81.33333333333333</ele><time>2026-04-19T18:06:33.001Z</time></trkpt><trkpt lat="43.48888107936626" lon="13.221478258751674"><ele>80.66666666666667</ele><time>2026-04-19T18:06:34.001Z</time></trkpt><trkpt lat="43.48905208331799" lon="13.221367114639103"><ele>80.0</ele><time>2026-04-19T18:06:35.001Z</time></trkpt><trkpt lat="43.48921929947036" lon="13.22125410575154"><ele>80.0</ele><time>2026-04-19T18:06:36.001Z</time></trkpt><trkpt lat="43.48939502746714" lon="13.221134154894846"><ele>80.0</ele><time>2026-04-19T18:06:37.001Z</time></trkpt><trkpt lat="43.489566277319234" lon="13.221015569899409"><ele>80.0</ele><time>2026-04-19T18:06:38.001Z</time></trkpt><trkpt lat="43.489720106455515" lon="13.220914929755459"><ele>80.0</ele><time>2026-04-19T18:06:39.001Z</time></trkpt><trkpt lat="43.489857511051916" lon="13.220811999181532"><ele>80.0</ele><time>2026-04-19T18:06:40.001Z</time></trkpt><trkpt lat="43.48998813182855" lon="13.220713069550783"><ele>80.0</ele><time>2026-04-19T18:06:41.001Z</time></trkpt><trkpt lat="43.49011715740435" lon="13.220605525120908"><ele>80.0</ele><time>2026-04-19T18:06:42.001Z</time></trkpt><trkpt lat="43.49023959906886" lon="13.220493513469732"><ele>80.0</ele><time>2026-04-19T18:06:43.001Z</time></trkpt><trkpt lat="43.490347667940135" lon="13.220381638301378"><ele>80.0</ele><time>2026-04-19T18:06:44.001Z</time></trkpt><trkpt lat="43.49045475282912" lon="13.2202877624419"><ele>80.0</ele><time>2026-04-19T18:06:45.001Z</time></trkpt><trkpt lat="43.490573583302435" lon="13.220215189022639"><ele>80.0</ele><time>2026-04-19T18:06:46.001Z</time></trkpt><trkpt lat="43.49069845861117" lon="13.22015765304806"><ele>80.0</ele><time>2026-04-19T18:06:47.001Z</time></trkpt><trkpt lat="43.490823953568096" lon="13.220131073422916"><ele>80.0</ele><time>2026-04-19T18:06:48.001Z</time></trkpt><trkpt lat="43.4909500088946" lon="13.22010501766627"><ele>80.0</ele><time>2026-04-19T18:06:49.001Z</time></trkpt><trkpt lat="43.49107246456991" lon="13.220068329421888"><ele>80.0</ele><time>2026-04-19T18:06:50.001Z</time></trkpt><trkpt lat="43.49120896090824" lon="13.220146464024912"><ele>80.0</ele><time>2026-04-19T18:06:51.001Z</time></trkpt><trkpt lat="43.49133947422171" lon="13.220218736677037"><ele>80.0</ele><time>2026-04-19T18:06:52.001Z</time></trkpt><trkpt lat="43.49147545579082" lon="13.220284685223572"><ele>80.0</ele><time>2026-04-19T18:06:53.001Z</time></trkpt><trkpt lat="43.49158037164052" lon="13.220485020192164"><ele>78.66666666666667</ele><time>2026-04-19T18:06:54.001Z</time></trkpt><trkpt lat="43.49171252933181" lon="13.220664330685725"><ele>77.33333333333333</ele><time>2026-04-19T18:06:55.001Z</time></trkpt><trkpt lat="43.49186080025777" lon="13.22083325160425"><ele>76.0</ele><time>2026-04-19T18:06:56.001Z</time></trkpt><trkpt lat="43.49199796027355" lon="13.221025683428687"><ele>76.0</ele><time>2026-04-19T18:06:57.001Z</time></trkpt><trkpt lat="43.492142973630635" lon="13.221222595370584"><ele>76.0</ele><time>2026-04-19T18:06:58.001Z</time></trkpt><trkpt lat="43.492294317446174" lon="13.221431253923912"><ele>76.0</ele><time>2026-04-19T18:06:59.001Z</time></trkpt><trkpt lat="43.49245081292773" lon="13.22164603482939"><ele>75.0</ele><time>2026-04-19T18:07:00.001Z</time></trkpt><trkpt lat="43.492615447736505" lon="13.221872523269163"><ele>74.0</ele><time>2026-04-19T18:07:01.001Z</time></trkpt><trkpt lat="43.49278150095605" lon="13.222115364821608"><ele>74.0</ele><time>2026-04-19T18:07:02.001Z</time></trkpt><trkpt lat="43.492965010527556" lon="13.222342647941284"><ele>74.0</ele><time>2026-04-19T18:07:03.001Z</time></trkpt><trkpt lat="43.49314001771025" lon="13.222575756398495"><ele>74.0</ele><time>2026-04-19T18:07:04.001Z</time></trkpt><trkpt lat="43.493303643276136" lon="13.222797670059835"><ele>74.0</ele><time>2026-04-19T18:07:05.001Z</time></trkpt><trkpt lat="43.49345483905636" lon="13.223004108494914"><ele>74.0</ele><time>2026-04-19T18:07:06.001Z</time></trkpt><trkpt lat="43.49360098634205" lon="13.22319691787234"><ele>73.66666666666667</ele><time>2026-04-19T18:07:07.001Z</time></trkpt><trkpt lat="43.493726974273386" lon="13.223370786383697"><ele>73.33333333333333</ele><time>2026-04-19T18:07:08.001Z</time></trkpt><trkpt lat="43.49383328689194" lon="13.223539963934826"><ele>73.0</ele><time>2026-04-19T18:07:09.001Z</time></trkpt><trkpt lat="43.49389406975172" lon="13.223739883616489"><ele>73.0</ele><time>2026-04-19T18:07:10.001Z</time></trkpt><trkpt lat="43.493975794907755" lon="13.223953975531263"><ele>73.0</ele><time>2026-04-19T18:07:11.001Z</time></trkpt><trkpt lat="43.49404234020779" lon="13.22418028213196"><ele>73.0</ele><time>2026-04-19T18:07:12.001Z</time></trkpt><trkpt lat="43.49412353338861" lon="13.224414452176461"><ele>73.33333333333333</ele><time>2026-04-19T18:07:13.001Z</time></trkpt><trkpt lat="43.494196270673925" lon="13.22466153697584"><ele>73.66666666666667</ele><time>2026-04-19T18:07:14.001Z</time></trkpt><trkpt lat="43.49429700034301" lon="13.224890047129385"><ele>74.0</ele><time>2026-04-19T18:07:15.001Z</time></trkpt><trkpt lat="43.494403158325284" lon="13.225129692879715"><ele>74.33333333333334</ele><time>2026-04-19T18:07:16.001Z</time></trkpt><trkpt lat="43.49451709750832" lon="13.225359722397688"><ele>74.66666666666667</ele><time>2026-04-19T18:07:17.001Z</time></trkpt><trkpt lat="43.494636833325195" lon="13.225595840326259"><ele>75.0</ele><time>2026-04-19T18:07:18.001Z</time></trkpt><trkpt lat="43.49475778848112" lon="13.2258401632439"><ele>74.66666666666667</ele><time>2026-04-19T18:07:19.001Z</time></trkpt><trkpt lat="43.49487657361363" lon="13.226095617761159"><ele>74.33333333333334</ele><time>2026-04-19T18:07:20.001Z</time></trkpt><trkpt lat="43.49499247272437" lon="13.226351172083177"><ele>74.0</ele><time>2026-04-19T18:07:21.001Z</time></trkpt><trkpt lat="43.49510590487912" lon="13.226609425028064"><ele>74.0</ele><time>2026-04-19T18:07:22.001Z</time></trkpt><trkpt lat="43.49521529308098" lon="13.226859848742325"><ele>74.0</ele><time>2026-04-19T18:07:23.001Z</time></trkpt><trkpt lat="43.495322490726835" lon="13.227101882838365"><ele>74.0</ele><time>2026-04-19T18:07:24.001Z</time></trkpt><trkpt lat="43.4954245905409" lon="13.22733135395754"><ele>72.66666666666667</ele><time>2026-04-19T18:07:25.001Z</time></trkpt><trkpt lat="43.495523240980596" lon="13.227545976764944"><ele>71.33333333333333</ele><time>2026-04-19T18:07:26.001Z</time></trkpt><trkpt lat="43.495623727550495" lon="13.227750932990222"><ele>70.0</ele><time>2026-04-19T18:07:27.001Z</time></trkpt><trkpt lat="43.495727628568595" lon="13.227949319886594"><ele>70.0</ele><time>2026-04-19T18:07:28.001Z</time></trkpt><trkpt lat="43.495834101898" lon="13.228133367649981"><ele>70.0</ele><time>2026-04-19T18:07:29.001Z</time></trkpt><trkpt lat="43.49592851643573" lon="13.22832420872357"><ele>70.0</ele><time>2026-04-19T18:07:30.001Z</time></trkpt><trkpt lat="43.49602974319871" lon="13.228478727310549"><ele>70.0</ele><time>2026-04-19T18:07:31.001Z</time></trkpt><trkpt lat="43.496122670254906" lon="13.228639898910544"><ele>70.0</ele><time>2026-04-19T18:07:32.001Z</time></trkpt><trkpt lat="43.49620968837497" lon="13.228799422499195"><ele>70.0</ele><time>2026-04-19T18:07:33.001Z</time></trkpt><trkpt lat="43.49627073916085" lon="13.22898187786721"><ele>70.0</ele><time>2026-04-19T18:07:34.001Z</time></trkpt><trkpt lat="43.49627019649466" lon="13.229185862976195"><ele>70.0</ele><time>2026-04-19T18:07:35.001Z</time></trkpt><trkpt lat="43.49627584888291" lon="13.229389940165644"><ele>70.0</ele><time>2026-04-19T18:07:36.001Z</time></trkpt><trkpt lat="43.49627359341067" lon="13.229599306524701"><ele>70.0</ele><time>2026-04-19T18:07:37.001Z</time></trkpt><trkpt lat="43.49625901624417" lon="13.229799904829363"><ele>70.0</ele><time>2026-04-19T18:07:38.001Z</time></trkpt><trkpt lat="43.49621418411006" lon="13.229967298435609"><ele>70.0</ele><time>2026-04-19T18:07:39.001Z</time></trkpt><trkpt lat="43.49614774235848" lon="13.230126167008985"><ele>70.0</ele><time>2026-04-19T18:07:40.001Z</time></trkpt><trkpt lat="43.496040337322604" lon="13.230235147750147"><ele>70.0</ele><time>2026-04-19T18:07:41.001Z</time></trkpt><trkpt lat="43.49591538703103" lon="13.230357747153736"><ele>70.0</ele><time>2026-04-19T18:07:42.001Z</time></trkpt><trkpt lat="43.495774845610164" lon="13.230497395200883"><ele>70.0</ele><time>2026-04-19T18:07:43.001Z</time></trkpt><trkpt lat="43.49562662122373" lon="13.230644577717635"><ele>70.0</ele><time>2026-04-19T18:07:44.001Z</time></trkpt><trkpt lat="43.49548367372574" lon="13.230786520415418"><ele>70.0</ele><time>2026-04-19T18:07:45.001Z</time></trkpt><trkpt lat="43.49533602358718" lon="13.230956274250355"><ele>70.0</ele><time>2026-04-19T18:07:46.001Z</time></trkpt><trkpt lat="43.495165798710694" lon="13.231122713643071"><ele>70.0</ele><time>2026-04-19T18:07:47.001Z</time></trkpt><trkpt lat="43.495007487056206" lon="13.23127746741187"><ele>70.0</ele><time>2026-04-19T18:07:48.001Z</time></trkpt><trkpt lat="43.49484389562532" lon="13.231427946578055"><ele>70.0</ele><time>2026-04-19T18:07:49.001Z</time></trkpt><trkpt lat="43.49468524834135" lon="13.231577461122695"><ele>70.0</ele><time>2026-04-19T18:07:50.001Z</time></trkpt><trkpt lat="43.494545425375925" lon="13.23171458559427"><ele>70.0</ele><time>2026-04-19T18:07:51.001Z</time></trkpt><trkpt lat="43.49441727091467" lon="13.231831777875536"><ele>70.75</ele><time>2026-04-19T18:07:52.001Z</time></trkpt><trkpt lat="43.49428134019668" lon="13.231916579091694"><ele>71.5</ele><time>2026-04-19T18:07:53.001Z</time></trkpt><trkpt lat="43.49416732220877" lon="13.2320132331778"><ele>72.25</ele><time>2026-04-19T18:07:54.001Z</time></trkpt><trkpt lat="43.4940442088773" lon="13.232078622015074"><ele>73.0</ele><time>2026-04-19T18:07:55.001Z</time></trkpt><trkpt lat="43.49393712559734" lon="13.232146207127625"><ele>73.0</ele><time>2026-04-19T18:07:56.001Z</time></trkpt><trkpt lat="43.49385762249556" lon="13.232253418054917"><ele>73.0</ele><time>2026-04-19T18:07:57.001Z</time></trkpt><trkpt lat="43.493813105163" lon="13.232384336017802"><ele>73.0</ele><time>2026-04-19T18:07:58.001Z</time></trkpt><trkpt lat="43.49380811618864" lon="13.232536789089698"><ele>73.0</ele><time>2026-04-19T18:07:59.001Z</time></trkpt><trkpt lat="43.49382807559491" lon="13.232708731605006"><ele>72.75</ele><time>2026-04-19T18:08:00.001Z</time></trkpt><trkpt lat="43.49387878741147" lon="13.23288026935241"><ele>72.5</ele><time>2026-04-19T18:08:01.001Z</time></trkpt><trkpt lat="43.493956038765035" lon="13.233055776013405"><ele>72.25</ele><time>2026-04-19T18:08:02.001Z</time></trkpt><trkpt lat="43.494055295582214" lon="13.23323752519814"><ele>72.0</ele><time>2026-04-19T18:08:03.001Z</time></trkpt><trkpt lat="43.49415916445891" lon="13.233433490981998"><ele>72.66666666666667</ele><time>2026-04-19T18:08:04.001Z</time></trkpt><trkpt lat="43.49426623270472" lon="13.233648924994485"><ele>73.33333333333334</ele><time>2026-04-19T18:08:05.001Z</time></trkpt><trkpt lat="43.49437349951875" lon="13.233872678683792"><ele>74.0</ele><time>2026-04-19T18:08:06.001Z</time></trkpt><trkpt lat="43.49448371858566" lon="13.234099138824122"><ele>74.0</ele><time>2026-04-19T18:08:07.001Z</time></trkpt><trkpt lat="43.49459688674386" lon="13.234335748679042"><ele>74.0</ele><time>2026-04-19T18:08:08Z</time></trkpt><trkpt lat="43.4947086249744" lon="13.234577219554934"><ele>74.0</ele><time>2026-04-19T18:08:09Z</time></trkpt><trkpt lat="43.49482286126129" lon="13.23482313177539"><ele>74.0</ele><time>2026-04-19T18:08:10Z</time></trkpt><trkpt lat="43.49494333574712" lon="13.235065709149806"><ele>74.0</ele><time>2026-04-19T18:08:11Z</time></trkpt><trkpt lat="43.49505370081747" lon="13.235296834518266"><ele>74.0</ele><time>2026-04-19T18:08:12Z</time></trkpt><trkpt lat="43.49516120097428" lon="13.235518361094282"><ele>74.33333333333334</ele><time>2026-04-19T18:08:13Z</time></trkpt><trkpt lat="43.495266092696504" lon="13.235741559518836"><ele>74.66666666666667</ele><time>2026-04-19T18:08:14Z</time></trkpt><trkpt lat="43.49537146190637" lon="13.235961764889886"><ele>75.0</ele><time>2026-04-19T18:08:15Z</time></trkpt><trkpt lat="43.49547440837211" lon="13.23617692590568"><ele>74.66666666666667</ele><time>2026-04-19T18:08:16Z</time></trkpt><trkpt lat="43.495574541701835" lon="13.2363905861433"><ele>74.33333333333334</ele><time>2026-04-19T18:08:17Z</time></trkpt><trkpt lat="43.495675093095464" lon="13.236603989194206"><ele>74.0</ele><time>2026-04-19T18:08:18Z</time></trkpt><trkpt lat="43.49577793654298" lon="13.236817201525083"><ele>74.0</ele><time>2026-04-19T18:08:19Z</time></trkpt><trkpt lat="43.495886732437064" lon="13.237037857077476"><ele>74.0</ele><time>2026-04-19T18:08:20Z</time></trkpt><trkpt lat="43.49600185314571" lon="13.23726144346744"><ele>74.0</ele><time>2026-04-19T18:08:21Z</time></trkpt><trkpt lat="43.49612951083197" lon="13.237484688178368"><ele>73.0</ele><time>2026-04-19T18:08:22Z</time></trkpt><trkpt lat="43.49627463165419" lon="13.237693109775648"><ele>72.0</ele><time>2026-04-19T18:08:23Z</time></trkpt><trkpt lat="43.49643739201503" lon="13.23789992698523"><ele>71.0</ele><time>2026-04-19T18:08:24Z</time></trkpt><trkpt lat="43.49660788524499" lon="13.238105589164652"><ele>71.0</ele><time>2026-04-19T18:08:25Z</time></trkpt><trkpt lat="43.496784576693" lon="13.238301080458077"><ele>71.0</ele><time>2026-04-19T18:08:26Z</time></trkpt><trkpt lat="43.49697051012556" lon="13.238508411833264"><ele>70.0</ele><time>2026-04-19T18:08:27Z</time></trkpt><trkpt lat="43.497163864484406" lon="13.238711912101643"><ele>69.0</ele><time>2026-04-19T18:08:28Z</time></trkpt><trkpt lat="43.497360992230014" lon="13.238916549419038"><ele>69.5</ele><time>2026-04-19T18:08:29Z</time></trkpt><trkpt lat="43.49755545597093" lon="13.23912966090083"><ele>70.0</ele><time>2026-04-19T18:08:30Z</time></trkpt><trkpt lat="43.497750987653646" lon="13.239344915279792"><ele>69.5</ele><time>2026-04-19T18:08:31Z</time></trkpt><trkpt lat="43.49795896250643" lon="13.239566601101066"><ele>69.0</ele><time>2026-04-19T18:08:32Z</time></trkpt><trkpt lat="43.4981730627539" lon="13.239799017695464"><ele>69.0</ele><time>2026-04-19T18:08:33Z</time></trkpt><trkpt lat="43.498394073783736" lon="13.24003966624925"><ele>69.0</ele><time>2026-04-19T18:08:34Z</time></trkpt><trkpt lat="43.4986215854598" lon="13.240285968124319"><ele>68.0</ele><time>2026-04-19T18:08:35Z</time></trkpt><trkpt lat="43.49885683874458" lon="13.24053694085865"><ele>67.0</ele><time>2026-04-19T18:08:36.001Z</time></trkpt><trkpt lat="43.49909154669227" lon="13.240785453939024"><ele>67.0</ele><time>2026-04-19T18:08:37.001Z</time></trkpt><trkpt lat="43.499310913524184" lon="13.24102228046454"><ele>67.0</ele><time>2026-04-19T18:08:38.001Z</time></trkpt><trkpt lat="43.499513080007375" lon="13.241242225877002"><ele>66.5</ele><time>2026-04-19T18:08:39.001Z</time></trkpt><trkpt lat="43.49970184894403" lon="13.24144751804933"><ele>66.0</ele><time>2026-04-19T18:08:40.001Z</time></trkpt><trkpt lat="43.499875940495926" lon="13.241637361222702"><ele>66.66666666666667</ele><time>2026-04-19T18:08:41.001Z</time></trkpt><trkpt lat="43.500050642289686" lon="13.241821582097199"><ele>67.33333333333334</ele><time>2026-04-19T18:08:42.001Z</time></trkpt><trkpt lat="43.50022050257973" lon="13.242002966927238"><ele>68.0</ele><time>2026-04-19T18:08:43.001Z</time></trkpt><trkpt lat="43.500379934378124" lon="13.242173064226664"><ele>67.66666666666667</ele><time>2026-04-19T18:08:44.001Z</time></trkpt><trkpt lat="43.500536075182154" lon="13.242342449507799"><ele>67.33333333333333</ele><time>2026-04-19T18:08:45.001Z</time></trkpt><trkpt lat="43.50068453573067" lon="13.24251969143089"><ele>67.0</ele><time>2026-04-19T18:08:46.001Z</time></trkpt><trkpt lat="43.50082573262419" lon="13.242711071523257"><ele>67.0</ele><time>2026-04-19T18:08:47.001Z</time></trkpt><trkpt lat="43.500968466778566" lon="13.24291979372731"><ele>67.0</ele><time>2026-04-19T18:08:48.001Z</time></trkpt><trkpt lat="43.501110299086456" lon="13.24314854648223"><ele>67.0</ele><time>2026-04-19T18:08:49.001Z</time></trkpt><trkpt lat="43.50125208376615" lon="13.243384317985221"><ele>66.0</ele><time>2026-04-19T18:08:50.001Z</time></trkpt><trkpt lat="43.50139716918967" lon="13.243625077475402"><ele>65.0</ele><time>2026-04-19T18:08:51.001Z</time></trkpt><trkpt lat="43.50154812395793" lon="13.243874525067564"><ele>65.5</ele><time>2026-04-19T18:08:52.001Z</time></trkpt><trkpt lat="43.501702756858606" lon="13.244138173769567"><ele>66.0</ele><time>2026-04-19T18:08:53.001Z</time></trkpt><trkpt lat="43.501859553110286" lon="13.24442266393459"><ele>66.0</ele><time>2026-04-19T18:08:54.001Z</time></trkpt><trkpt lat="43.50201829215138" lon="13.244724479329475"><ele>66.0</ele><time>2026-04-19T18:08:55.001Z</time></trkpt><trkpt lat="43.502184069442706" lon="13.245032339318932"><ele>65.0</ele><time>2026-04-19T18:08:56.001Z</time></trkpt><trkpt lat="43.50235939244274" lon="13.24534136096871"><ele>64.0</ele><time>2026-04-19T18:08:57.001Z</time></trkpt><trkpt lat="43.502546603551686" lon="13.245639764555571"><ele>64.0</ele><time>2026-04-19T18:08:58.001Z</time></trkpt><trkpt lat="43.50274657561834" lon="13.245935001510631"><ele>64.0</ele><time>2026-04-19T18:08:59.001Z</time></trkpt><trkpt lat="43.50294826651599" lon="13.246227124629735"><ele>63.5</ele><time>2026-04-19T18:09:00.001Z</time></trkpt><trkpt lat="43.503144554590314" lon="13.246519107700019"><ele>63.0</ele><time>2026-04-19T18:09:01.001Z</time></trkpt><trkpt lat="43.503323546282736" lon="13.246791830831134"><ele>63.0</ele><time>2026-04-19T18:09:02.001Z</time></trkpt><trkpt lat="43.50348926868209" lon="13.247042774044155"><ele>63.0</ele><time>2026-04-19T18:09:03.001Z</time></trkpt><trkpt lat="43.503642123064765" lon="13.247278542795302"><ele>63.33333333333333</ele><time>2026-04-19T18:09:04.001Z</time></trkpt><trkpt lat="43.50379057067177" lon="13.247501920541637"><ele>63.666666666666664</ele><time>2026-04-19T18:09:05.001Z</time></trkpt><trkpt lat="43.503931857727956" lon="13.247707716503323"><ele>64.0</ele><time>2026-04-19T18:09:06.001Z</time></trkpt><trkpt lat="43.504063815680496" lon="13.24790225461679"><ele>64.0</ele><time>2026-04-19T18:09:07.001Z</time></trkpt><trkpt lat="43.50419174437444" lon="13.248092322227137"><ele>64.0</ele><time>2026-04-19T18:09:08.001Z</time></trkpt><trkpt lat="43.5043174253618" lon="13.2482853636004"><ele>64.0</ele><time>2026-04-19T18:09:09.001Z</time></trkpt><trkpt lat="43.504443198165866" lon="13.248476560682047"><ele>64.33333333333333</ele><time>2026-04-19T18:09:10.001Z</time></trkpt><trkpt lat="43.50456024423594" lon="13.248660290053623"><ele>64.66666666666667</ele><time>2026-04-19T18:09:11.001Z</time></trkpt><trkpt lat="43.504678623523056" lon="13.248846591284577"><ele>65.0</ele><time>2026-04-19T18:09:12.001Z</time></trkpt><trkpt lat="43.50479141708826" lon="13.249051376797777"><ele>64.0</ele><time>2026-04-19T18:09:13.001Z</time></trkpt><trkpt lat="43.50489055464265" lon="13.249280970115397"><ele>63.0</ele><time>2026-04-19T18:09:14.001Z</time></trkpt><trkpt lat="43.50497862277657" lon="13.24952614110148"><ele>62.0</ele><time>2026-04-19T18:09:15.001Z</time></trkpt><trkpt lat="43.50507433410476" lon="13.249775727979237"><ele>62.333333333333336</ele><time>2026-04-19T18:09:16.001Z</time></trkpt><trkpt lat="43.50518187954519" lon="13.25003136985848"><ele>62.66666666666667</ele><time>2026-04-19T18:09:17.001Z</time></trkpt><trkpt lat="43.505304206091914" lon="13.250286387333164"><ele>63.0</ele><time>2026-04-19T18:09:18.001Z</time></trkpt><trkpt lat="43.50543646527288" lon="13.250536032085119"><ele>62.5</ele><time>2026-04-19T18:09:19.001Z</time></trkpt><trkpt lat="43.50557790601205" lon="13.250787313965994"><ele>62.0</ele><time>2026-04-19T18:09:20.001Z</time></trkpt><trkpt lat="43.505721802111005" lon="13.251042123989881"><ele>62.0</ele><time>2026-04-19T18:09:21.001Z</time></trkpt><trkpt lat="43.50586319974666" lon="13.251293843215405"><ele>62.0</ele><time>2026-04-19T18:09:22.001Z</time></trkpt><trkpt lat="43.50599770593954" lon="13.251551387489561"><ele>62.66666666666667</ele><time>2026-04-19T18:09:23.001Z</time></trkpt><trkpt lat="43.5061258762544" lon="13.251806558736451"><ele>63.33333333333333</ele><time>2026-04-19T18:09:24.001Z</time></trkpt><trkpt lat="43.506248759786445" lon="13.252044414190824"><ele>64.0</ele><time>2026-04-19T18:09:25.001Z</time></trkpt><trkpt lat="43.50636407528027" lon="13.252286809746144"><ele>62.33333333333333</ele><time>2026-04-19T18:09:26.001Z</time></trkpt><trkpt lat="43.50646411238189" lon="13.252518951535158"><ele>60.66666666666667</ele><time>2026-04-19T18:09:27.001Z</time></trkpt><trkpt lat="43.50655781088847" lon="13.252737577752942"><ele>59.0</ele><time>2026-04-19T18:09:28.001Z</time></trkpt><trkpt lat="43.506652451478296" lon="13.252949137263625"><ele>59.66666666666667</ele><time>2026-04-19T18:09:29.001Z</time></trkpt><trkpt lat="43.50674835515524" lon="13.253165787663676"><ele>60.33333333333333</ele><time>2026-04-19T18:09:30.001Z</time></trkpt><trkpt lat="43.506844997002666" lon="13.253380296956516"><ele>61.0</ele><time>2026-04-19T18:09:31.001Z</time></trkpt><trkpt lat="43.50694301688002" lon="13.253598378476916"><ele>61.0</ele><time>2026-04-19T18:09:32.001Z</time></trkpt><trkpt lat="43.50704074627991" lon="13.25381934961702"><ele>61.0</ele><time>2026-04-19T18:09:33.001Z</time></trkpt><trkpt lat="43.507139278259025" lon="13.254043630005652"><ele>61.0</ele><time>2026-04-19T18:09:34.001Z</time></trkpt><trkpt lat="43.50723846833602" lon="13.254268417911096"><ele>61.33333333333333</ele><time>2026-04-19T18:09:35.001Z</time></trkpt><trkpt lat="43.50733623366798" lon="13.254490348348197"><ele>61.66666666666667</ele><time>2026-04-19T18:09:36.001Z</time></trkpt><trkpt lat="43.50743625806479" lon="13.254716185332308"><ele>62.0</ele><time>2026-04-19T18:09:37.001Z</time></trkpt><trkpt lat="43.50754119928199" lon="13.254940390228882"><ele>62.333333333333336</ele><time>2026-04-19T18:09:38.001Z</time></trkpt><trkpt lat="43.507642500888494" lon="13.255166730143054"><ele>62.66666666666667</ele><time>2026-04-19T18:09:39.001Z</time></trkpt><trkpt lat="43.507741950096445" lon="13.255394023439267"><ele>63.0</ele><time>2026-04-19T18:09:40.001Z</time></trkpt><trkpt lat="43.507837186952194" lon="13.255603983339808"><ele>63.0</ele><time>2026-04-19T18:09:41.001Z</time></trkpt><trkpt lat="43.50792960557699" lon="13.255807626891722"><ele>63.0</ele><time>2026-04-19T18:09:42.001Z</time></trkpt><trkpt lat="43.50801865326976" lon="13.256010948466157"><ele>63.0</ele><time>2026-04-19T18:09:43.001Z</time></trkpt><trkpt lat="43.50810594568403" lon="13.256209862223008"><ele>63.0</ele><time>2026-04-19T18:09:44.001Z</time></trkpt><trkpt lat="43.50819586109995" lon="13.256401251098625"><ele>63.0</ele><time>2026-04-19T18:09:45.001Z</time></trkpt><trkpt lat="43.50827946300164" lon="13.256588045809718"><ele>63.0</ele><time>2026-04-19T18:09:46.001Z</time></trkpt><trkpt lat="43.50835722031119" lon="13.256762753182254"><ele>63.0</ele><time>2026-04-19T18:09:47.001Z</time></trkpt><trkpt lat="43.5084353433161" lon="13.256937971597091"><ele>63.0</ele><time>2026-04-19T18:09:48.001Z</time></trkpt><trkpt lat="43.50850684728949" lon="13.257099109214831"><ele>63.0</ele><time>2026-04-19T18:09:49.001Z</time></trkpt><trkpt lat="43.508577091710606" lon="13.25725971558517"><ele>63.0</ele><time>2026-04-19T18:09:50.001Z</time></trkpt><trkpt lat="43.508647817138815" lon="13.257419692305723"><ele>63.0</ele><time>2026-04-19T18:09:51.001Z</time></trkpt><trkpt lat="43.50872144855774" lon="13.257585640276972"><ele>63.0</ele><time>2026-04-19T18:09:52.001Z</time></trkpt><trkpt lat="43.50879809033455" lon="13.257759221056958"><ele>63.0</ele><time>2026-04-19T18:09:53.001Z</time></trkpt><trkpt lat="43.50887780834102" lon="13.25793784272725"><ele>63.0</ele><time>2026-04-19T18:09:54.001Z</time></trkpt><trkpt lat="43.50895714999444" lon="13.258119894662727"><ele>63.0</ele><time>2026-04-19T18:09:55.001Z</time></trkpt><trkpt lat="43.50903479239091" lon="13.258292269631433"><ele>63.0</ele><time>2026-04-19T18:09:56.001Z</time></trkpt><trkpt lat="43.50910856597953" lon="13.258451720591529"><ele>63.0</ele><time>2026-04-19T18:09:57.001Z</time></trkpt><trkpt lat="43.509178939710566" lon="13.258595760803278"><ele>63.0</ele><time>2026-04-19T18:09:58.001Z</time></trkpt><trkpt lat="43.50924704650027" lon="13.258729987869964"><ele>63.0</ele><time>2026-04-19T18:09:59.001Z</time></trkpt><trkpt lat="43.50931525683981" lon="13.258855669706655"><ele>63.0</ele><time>2026-04-19T18:10:00.001Z</time></trkpt><trkpt lat="43.50938450237391" lon="13.25897209999122"><ele>63.0</ele><time>2026-04-19T18:10:01.001Z</time></trkpt><trkpt lat="43.50944008056148" lon="13.259087049419472"><ele>63.0</ele><time>2026-04-19T18:10:02.001Z</time></trkpt><trkpt lat="43.50951093361035" lon="13.259194228990754"><ele>63.0</ele><time>2026-04-19T18:10:03.001Z</time></trkpt><trkpt lat="43.5095835761329" lon="13.259269091587049"><ele>62.8</ele><time>2026-04-19T18:10:04.001Z</time></trkpt><trkpt lat="43.50963359439982" lon="13.25934374996261"><ele>62.599999999999994</ele><time>2026-04-19T18:10:05.001Z</time></trkpt><trkpt lat="43.509695314855094" lon="13.259436826312733"><ele>62.400000000000006</ele><time>2026-04-19T18:10:07.001Z</time></trkpt><trkpt lat="43.509719335683705" lon="13.259556773181718"><ele>62.2</ele><time>2026-04-19T18:10:14Z</time></trkpt><trkpt lat="43.509703851802634" lon="13.25966207782774"><ele>62.0</ele><time>2026-04-19T18:10:16Z</time></trkpt><trkpt lat="43.50960952465964" lon="13.25977721648039"><ele>62.2</ele><time>2026-04-19T18:10:18Z</time></trkpt><trkpt lat="43.509550386318836" lon="13.259842979296854"><ele>62.400000000000006</ele><time>2026-04-19T18:10:19Z</time></trkpt><trkpt lat="43.50948012722835" lon="13.259932213421806"><ele>62.599999999999994</ele><time>2026-04-19T18:10:20Z</time></trkpt><trkpt lat="43.509397440689575" lon="13.2600318511797"><ele>62.8</ele><time>2026-04-19T18:10:21Z</time></trkpt><trkpt lat="43.50929819484499" lon="13.260119049323988"><ele>63.0</ele><time>2026-04-19T18:10:22Z</time></trkpt><trkpt lat="43.50921066682817" lon="13.260246083541151"><ele>63.0</ele><time>2026-04-19T18:10:23Z</time></trkpt><trkpt lat="43.50910688655992" lon="13.260336130222164"><ele>63.0</ele><time>2026-04-19T18:10:24Z</time></trkpt><trkpt lat="43.509000364303276" lon="13.260456167510405"><ele>63.0</ele><time>2026-04-19T18:10:25Z</time></trkpt><trkpt lat="43.50887937840639" lon="13.260592836193496"><ele>63.0</ele><time>2026-04-19T18:10:26Z</time></trkpt><trkpt lat="43.50876849719602" lon="13.26071100903765"><ele>63.66666666666667</ele><time>2026-04-19T18:10:27Z</time></trkpt><trkpt lat="43.508641841053205" lon="13.26084660828043"><ele>64.33333333333334</ele><time>2026-04-19T18:10:28Z</time></trkpt><trkpt lat="43.508511246438474" lon="13.260983674712495"><ele>65.0</ele><time>2026-04-19T18:10:29Z</time></trkpt><trkpt lat="43.50837511383775" lon="13.261129042273359"><ele>65.0</ele><time>2026-04-19T18:10:30Z</time></trkpt><trkpt lat="43.50824846364541" lon="13.261292770199727"><ele>65.0</ele><time>2026-04-19T18:10:31Z</time></trkpt><trkpt lat="43.508105278905965" lon="13.261439491883127"><ele>65.0</ele><time>2026-04-19T18:10:32Z</time></trkpt><trkpt lat="43.507963994285646" lon="13.261583622079328"><ele>65.0</ele><time>2026-04-19T18:10:33Z</time></trkpt><trkpt lat="43.50784853967526" lon="13.261726056741272"><ele>65.0</ele><time>2026-04-19T18:10:34Z</time></trkpt><trkpt lat="43.50772429902703" lon="13.261862336559842"><ele>65.0</ele><time>2026-04-19T18:10:35Z</time></trkpt><trkpt lat="43.50761969103249" lon="13.26196526347118"><ele>65.0</ele><time>2026-04-19T18:10:36Z</time></trkpt><trkpt lat="43.50750301196038" lon="13.26210405385038"><ele>65.0</ele><time>2026-04-19T18:10:37Z</time></trkpt><trkpt lat="43.50738384866699" lon="13.262244855348628"><ele>65.0</ele><time>2026-04-19T18:10:38.001Z</time></trkpt><trkpt lat="43.50726236805869" lon="13.262387908918937"><ele>65.0</ele><time>2026-04-19T18:10:39.001Z</time></trkpt><trkpt lat="43.50714463754432" lon="13.26252439924695"><ele>65.25</ele><time>2026-04-19T18:10:40.001Z</time></trkpt><trkpt lat="43.50703182968029" lon="13.262656316616042"><ele>65.5</ele><time>2026-04-19T18:10:41.001Z</time></trkpt><trkpt lat="43.506929522934065" lon="13.26277704304565"><ele>65.75</ele><time>2026-04-19T18:10:42.001Z</time></trkpt><trkpt lat="43.50681489386465" lon="13.262894869654945"><ele>66.0</ele><time>2026-04-19T18:10:43.001Z</time></trkpt><trkpt lat="43.506716871648216" lon="13.263000464267053"><ele>66.0</ele><time>2026-04-19T18:10:44.001Z</time></trkpt><trkpt lat="43.50662768999183" lon="13.263111680032909"><ele>66.0</ele><time>2026-04-19T18:10:45.001Z</time></trkpt><trkpt lat="43.50654238631702" lon="13.263232980512871"><ele>66.0</ele><time>2026-04-19T18:10:46.001Z</time></trkpt><trkpt lat="43.50644273760537" lon="13.263354524180963"><ele>66.0</ele><time>2026-04-19T18:10:47.001Z</time></trkpt><trkpt lat="43.50635160160543" lon="13.263452271535296"><ele>66.0</ele><time>2026-04-19T18:10:48.001Z</time></trkpt><trkpt lat="43.506246683554565" lon="13.263528796077413"><ele>66.0</ele><time>2026-04-19T18:10:49.001Z</time></trkpt><trkpt lat="43.506132867864146" lon="13.263591906481999"><ele>66.0</ele><time>2026-04-19T18:10:50.001Z</time></trkpt><trkpt lat="43.506008562162265" lon="13.263641834686503"><ele>66.0</ele><time>2026-04-19T18:10:51.001Z</time></trkpt><trkpt lat="43.505861963481934" lon="13.263686135969351"><ele>66.0</ele><time>2026-04-19T18:10:52.001Z</time></trkpt><trkpt lat="43.50570969571142" lon="13.263734855700587"><ele>66.0</ele><time>2026-04-19T18:10:53.001Z</time></trkpt><trkpt lat="43.50554465277267" lon="13.263807266705724"><ele>66.0</ele><time>2026-04-19T18:10:54.001Z</time></trkpt><trkpt lat="43.50538242535523" lon="13.263883431127605"><ele>65.33333333333333</ele><time>2026-04-19T18:10:55.001Z</time></trkpt><trkpt lat="43.50520737307696" lon="13.263963899244647"><ele>64.66666666666666</ele><time>2026-04-19T18:10:56.001Z</time></trkpt><trkpt lat="43.50501751987014" lon="13.264057717672923"><ele>64.0</ele><time>2026-04-19T18:10:57.001Z</time></trkpt><trkpt lat="43.50481893896468" lon="13.264151755813366"><ele>64.0</ele><time>2026-04-19T18:10:58.001Z</time></trkpt><trkpt lat="43.504613410784835" lon="13.264244272939113"><ele>64.0</ele><time>2026-04-19T18:10:59.001Z</time></trkpt><trkpt lat="43.504407724216755" lon="13.264342998444965"><ele>64.0</ele><time>2026-04-19T18:11:00.001Z</time></trkpt><trkpt lat="43.50420296602223" lon="13.264436122188906"><ele>65.0</ele><time>2026-04-19T18:11:01.001Z</time></trkpt><trkpt lat="43.50400943840796" lon="13.264520667149936"><ele>66.0</ele><time>2026-04-19T18:11:02.001Z</time></trkpt><trkpt lat="43.50383045388408" lon="13.264601138060229"><ele>67.0</ele><time>2026-04-19T18:11:03.001Z</time></trkpt><trkpt lat="43.50365962269268" lon="13.264679144733336"><ele>67.33333333333333</ele><time>2026-04-19T18:11:04.001Z</time></trkpt><trkpt lat="43.503503288186664" lon="13.264746434244367"><ele>67.66666666666667</ele><time>2026-04-19T18:11:05.001Z</time></trkpt><trkpt lat="43.503328888814494" lon="13.264842496085642"><ele>68.0</ele><time>2026-04-19T18:11:06.001Z</time></trkpt><trkpt lat="43.503179611042704" lon="13.265000595114845"><ele>68.5</ele><time>2026-04-19T18:11:07.001Z</time></trkpt><trkpt lat="43.503002836723056" lon="13.265190546413132"><ele>69.0</ele><time>2026-04-19T18:11:08.001Z</time></trkpt><trkpt lat="43.50282946146613" lon="13.2653993409856"><ele>70.0</ele><time>2026-04-19T18:11:09.001Z</time></trkpt><trkpt lat="43.50265087360284" lon="13.265614348102284"><ele>71.0</ele><time>2026-04-19T18:11:10.001Z</time></trkpt><trkpt lat="43.50248503321391" lon="13.265813003809987"><ele>71.0</ele><time>2026-04-19T18:11:11.001Z</time></trkpt><trkpt lat="43.502313620046316" lon="13.266017601973923"><ele>71.0</ele><time>2026-04-19T18:11:12.001Z</time></trkpt><trkpt lat="43.50215244468282" lon="13.266224735491443"><ele>71.0</ele><time>2026-04-19T18:11:13.001Z</time></trkpt><trkpt lat="43.5019792785025" lon="13.266422581357673"><ele>72.0</ele><time>2026-04-19T18:11:14.001Z</time></trkpt><trkpt lat="43.501844181482035" lon="13.266566363822141"><ele>73.0</ele><time>2026-04-19T18:11:15.001Z</time></trkpt><trkpt lat="43.50172075790969" lon="13.266730884949204"><ele>74.0</ele><time>2026-04-19T18:11:16.001Z</time></trkpt><trkpt lat="43.50159322771041" lon="13.26690113682223"><ele>74.0</ele><time>2026-04-19T18:11:17.001Z</time></trkpt><trkpt lat="43.501470056016814" lon="13.267076202028203"><ele>74.0</ele><time>2026-04-19T18:11:18.001Z</time></trkpt><trkpt lat="43.501369706518844" lon="13.267294878313594"><ele>74.0</ele><time>2026-04-19T18:11:19.001Z</time></trkpt><trkpt lat="43.501295443866006" lon="13.267566094282877"><ele>75.66666666666667</ele><time>2026-04-19T18:11:20.001Z</time></trkpt><trkpt lat="43.50122920011416" lon="13.267855750038247"><ele>77.33333333333333</ele><time>2026-04-19T18:11:21.001Z</time></trkpt><trkpt lat="43.50115802806504" lon="13.26815608839408"><ele>79.0</ele><time>2026-04-19T18:11:22.001Z</time></trkpt><trkpt lat="43.501083970406775" lon="13.268470206047711"><ele>80.0</ele><time>2026-04-19T18:11:23.001Z</time></trkpt><trkpt lat="43.50100315235975" lon="13.268799931024512"><ele>81.0</ele><time>2026-04-19T18:11:24.001Z</time></trkpt><trkpt lat="43.500925808203874" lon="13.269134911187964"><ele>81.0</ele><time>2026-04-19T18:11:25.001Z</time></trkpt><trkpt lat="43.500839302558475" lon="13.269476641937665"><ele>81.0</ele><time>2026-04-19T18:11:26.001Z</time></trkpt><trkpt lat="43.5007608785275" lon="13.269815242664437"><ele>81.0</ele><time>2026-04-19T18:11:27.001Z</time></trkpt><trkpt lat="43.50065776083012" lon="13.270139309092773"><ele>81.0</ele><time>2026-04-19T18:11:28.001Z</time></trkpt><trkpt lat="43.500577770624155" lon="13.270449007602066"><ele>80.66666666666667</ele><time>2026-04-19T18:11:29.001Z</time></trkpt><trkpt lat="43.50049550368975" lon="13.270766829965527"><ele>80.33333333333334</ele><time>2026-04-19T18:11:30.001Z</time></trkpt><trkpt lat="43.500433490825834" lon="13.271003778280313"><ele>80.0</ele><time>2026-04-19T18:11:31.001Z</time></trkpt><trkpt lat="43.500369083094725" lon="13.27124603524925"><ele>83.66666666666667</ele><time>2026-04-19T18:11:32.001Z</time></trkpt><trkpt lat="43.50030314125585" lon="13.271472322112787"><ele>87.33333333333333</ele><time>2026-04-19T18:11:33.001Z</time></trkpt><trkpt lat="43.500224123575926" lon="13.271673412900274"><ele>91.0</ele><time>2026-04-19T18:11:34.001Z</time></trkpt><trkpt lat="43.50012241245814" lon="13.271851202411789"><ele>91.0</ele><time>2026-04-19T18:11:35.001Z</time></trkpt><trkpt lat="43.50000732737695" lon="13.272032221240266"><ele>91.0</ele><time>2026-04-19T18:11:36.001Z</time></trkpt><trkpt lat="43.49988167056433" lon="13.27221907337515"><ele>91.0</ele><time>2026-04-19T18:11:37.001Z</time></trkpt><trkpt lat="43.49974966830375" lon="13.27241505167613"><ele>91.0</ele><time>2026-04-19T18:11:38.001Z</time></trkpt><trkpt lat="43.49961580430616" lon="13.272612822617836"><ele>91.0</ele><time>2026-04-19T18:11:39.001Z</time></trkpt><trkpt lat="43.49949706486896" lon="13.272817257387274"><ele>91.0</ele><time>2026-04-19T18:11:40.001Z</time></trkpt><trkpt lat="43.49937488237968" lon="13.272987732446689"><ele>92.33333333333333</ele><time>2026-04-19T18:11:41.001Z</time></trkpt><trkpt lat="43.499261011568926" lon="13.273153383276762"><ele>93.66666666666667</ele><time>2026-04-19T18:11:42.001Z</time></trkpt><trkpt lat="43.4991605085807" lon="13.273297708079335"><ele>95.0</ele><time>2026-04-19T18:11:43.001Z</time></trkpt><trkpt lat="43.49905802537301" lon="13.273446903408422"><ele>95.0</ele><time>2026-04-19T18:11:44.001Z</time></trkpt><trkpt lat="43.49895323297573" lon="13.273603897705197"><ele>95.0</ele><time>2026-04-19T18:11:45.001Z</time></trkpt><trkpt lat="43.49884659857817" lon="13.273765661450602"><ele>95.0</ele><time>2026-04-19T18:11:46.001Z</time></trkpt><trkpt lat="43.49873975155752" lon="13.273925841160306"><ele>96.75</ele><time>2026-04-19T18:11:47.001Z</time></trkpt><trkpt lat="43.498632426655405" lon="13.274088098948594"><ele>98.5</ele><time>2026-04-19T18:11:48.001Z</time></trkpt><trkpt lat="43.49853528100426" lon="13.274233803907519"><ele>100.25</ele><time>2026-04-19T18:11:49.001Z</time></trkpt><trkpt lat="43.498448958208996" lon="13.27436418457349"><ele>102.0</ele><time>2026-04-19T18:11:50.001Z</time></trkpt><trkpt lat="43.498397232184196" lon="13.274445157412321"><ele>102.0</ele><time>2026-04-19T18:11:51.001Z</time></trkpt><trkpt lat="43.49834145290339" lon="13.274520613230422"><ele>102.0</ele><time>2026-04-19T18:11:54.001Z</time></trkpt><trkpt lat="43.498298793936186" lon="13.27473023701335"><ele>102.0</ele><time>2026-04-19T18:11:56.001Z</time></trkpt><trkpt lat="43.49826861801521" lon="13.274863396801168"><ele>102.0</ele><time>2026-04-19T18:11:57.001Z</time></trkpt><trkpt lat="43.4982137262182" lon="13.27498531315255"><ele>102.0</ele><time>2026-04-19T18:11:58.001Z</time></trkpt><trkpt lat="43.498167730551664" lon="13.275132255455658"><ele>101.25</ele><time>2026-04-19T18:11:59.001Z</time></trkpt><trkpt lat="43.4981314788851" lon="13.27530426864264"><ele>100.5</ele><time>2026-04-19T18:12:00.001Z</time></trkpt><trkpt lat="43.49810297130549" lon="13.275495516967151"><ele>99.75</ele><time>2026-04-19T18:12:01.001Z</time></trkpt><trkpt lat="43.498060974160865" lon="13.275690856512494"><ele>99.0</ele><time>2026-04-19T18:12:02.001Z</time></trkpt><trkpt lat="43.49803517393497" lon="13.275907671442356"><ele>99.0</ele><time>2026-04-19T18:12:03.001Z</time></trkpt><trkpt lat="43.49802281347373" lon="13.276138616147586"><ele>99.0</ele><time>2026-04-19T18:12:04.001Z</time></trkpt><trkpt lat="43.49797417553472" lon="13.27637477260202"><ele>99.0</ele><time>2026-04-19T18:12:05.001Z</time></trkpt><trkpt lat="43.4979419317084" lon="13.276615747911034"><ele>101.0</ele><time>2026-04-19T18:12:06.001Z</time></trkpt><trkpt lat="43.49791023635238" lon="13.276854043518606"><ele>103.0</ele><time>2026-04-19T18:12:07.001Z</time></trkpt><trkpt lat="43.49787943911476" lon="13.277083095195767"><ele>105.0</ele><time>2026-04-19T18:12:08.001Z</time></trkpt><trkpt lat="43.49785267477685" lon="13.27728073063717"><ele>105.0</ele><time>2026-04-19T18:12:09.001Z</time></trkpt><trkpt lat="43.497828938518275" lon="13.277456005534235"><ele>105.0</ele><time>2026-04-19T18:12:10.001Z</time></trkpt><trkpt lat="43.49780635581517" lon="13.277622762368726"><ele>105.0</ele><time>2026-04-19T18:12:11.001Z</time></trkpt><trkpt lat="43.49778402444617" lon="13.277787309282989"><ele>105.0</ele><time>2026-04-19T18:12:12.001Z</time></trkpt><trkpt lat="43.49776097400455" lon="13.277953656375193"><ele>105.0</ele><time>2026-04-19T18:12:13.001Z</time></trkpt><trkpt lat="43.49773552212364" lon="13.278137333916225"><ele>105.0</ele><time>2026-04-19T18:12:14.001Z</time></trkpt><trkpt lat="43.49771195006334" lon="13.27833443504618"><ele>105.0</ele><time>2026-04-19T18:12:15.001Z</time></trkpt><trkpt lat="43.49768631382376" lon="13.278562640232895"><ele>105.0</ele><time>2026-04-19T18:12:16.001Z</time></trkpt><trkpt lat="43.497659538215295" lon="13.278760768513981"><ele>104.6</ele><time>2026-04-19T18:12:17.001Z</time></trkpt><trkpt lat="43.49763319972056" lon="13.278937359973767"><ele>104.2</ele><time>2026-04-19T18:12:18.001Z</time></trkpt><trkpt lat="43.497600402723364" lon="13.279091562526169"><ele>103.80000000000001</ele><time>2026-04-19T18:12:19Z</time></trkpt><trkpt lat="43.49757303404025" lon="13.279218979410441"><ele>103.4</ele><time>2026-04-19T18:12:20Z</time></trkpt><trkpt lat="43.497532659679514" lon="13.279331473476814"><ele>103.0</ele><time>2026-04-19T18:12:21Z</time></trkpt><trkpt lat="43.49747534235912" lon="13.279431958789566"><ele>103.0</ele><time>2026-04-19T18:12:22Z</time></trkpt><trkpt lat="43.49740716299327" lon="13.279534604795192"><ele>103.0</ele><time>2026-04-19T18:12:23Z</time></trkpt><trkpt lat="43.497343624316" lon="13.279652994652965"><ele>103.0</ele><time>2026-04-19T18:12:24Z</time></trkpt><trkpt lat="43.49727655197046" lon="13.279756254702257"><ele>103.0</ele><time>2026-04-19T18:12:25Z</time></trkpt><trkpt lat="43.497218590490384" lon="13.27985370191421"><ele>103.0</ele><time>2026-04-19T18:12:26Z</time></trkpt><trkpt lat="43.497187301145615" lon="13.279934091197775"><ele>102.00000000000001</ele><time>2026-04-19T18:12:27Z</time></trkpt><trkpt lat="43.49717553183467" lon="13.280035463070636"><ele>101.0</ele><time>2026-04-19T18:12:28Z</time></trkpt><trkpt lat="43.4971793687245" lon="13.280159768842854"><ele>100.0</ele><time>2026-04-19T18:12:29Z</time></trkpt><trkpt lat="43.49718977788771" lon="13.280291186983021"><ele>99.0</ele><time>2026-04-19T18:12:30Z</time></trkpt><trkpt lat="43.4971974537946" lon="13.280423272066038"><ele>98.00000000000001</ele><time>2026-04-19T18:12:31Z</time></trkpt><trkpt lat="43.49720397925525" lon="13.280548527028099"><ele>97.0</ele><time>2026-04-19T18:12:32Z</time></trkpt><trkpt lat="43.49719139684094" lon="13.280678575243897"><ele>96.50000000000001</ele><time>2026-04-19T18:12:33Z</time></trkpt><trkpt lat="43.49719491944953" lon="13.280813477077524"><ele>96.0</ele><time>2026-04-19T18:12:34Z</time></trkpt><trkpt lat="43.49719624895681" lon="13.280947078742175"><ele>95.5</ele><time>2026-04-19T18:12:35Z</time></trkpt><trkpt lat="43.497203554847" lon="13.281070337326078"><ele>95.0</ele><time>2026-04-19T18:12:36Z</time></trkpt><trkpt lat="43.49717784538782" lon="13.281171884357644"><ele>94.5</ele><time>2026-04-19T18:12:37Z</time></trkpt><trkpt lat="43.49711567258001" lon="13.281236319409137"><ele>94.0</ele><time>2026-04-19T18:12:38Z</time></trkpt><trkpt lat="43.4970519898803" lon="13.28127030237226"><ele>94.0</ele><time>2026-04-19T18:12:39Z</time></trkpt><trkpt lat="43.49697428781556" lon="13.281388748052771"><ele>94.0</ele><time>2026-04-19T18:12:41Z</time></trkpt><trkpt lat="43.49697387579337" lon="13.281484613863366"><ele>94.0</ele><time>2026-04-19T18:12:42Z</time></trkpt><trkpt lat="43.497041353055906" lon="13.28156406341318"><ele>94.0</ele><time>2026-04-19T18:12:43Z</time></trkpt><trkpt lat="43.49709700872444" lon="13.281633031706722"><ele>94.0</ele><time>2026-04-19T18:12:44.001Z</time></trkpt><trkpt lat="43.49716985427082" lon="13.281703199144033"><ele>94.0</ele><time>2026-04-19T18:12:45.001Z</time></trkpt><trkpt lat="43.497241705232476" lon="13.281770798862631"><ele>93.0</ele><time>2026-04-19T18:12:46.001Z</time></trkpt><trkpt lat="43.497342135263246" lon="13.28182962784288"><ele>92.0</ele><time>2026-04-19T18:12:47.001Z</time></trkpt><trkpt lat="43.49746707627947" lon="13.281888831546398"><ele>91.0</ele><time>2026-04-19T18:12:48.001Z</time></trkpt><trkpt lat="43.49760699830471" lon="13.281948365498582"><ele>90.0</ele><time>2026-04-19T18:12:49.001Z</time></trkpt><trkpt lat="43.49773820772823" lon="13.282003420618043"><ele>90.0</ele><time>2026-04-19T18:12:50.001Z</time></trkpt><trkpt lat="43.49785506355192" lon="13.282056329766247"><ele>90.0</ele><time>2026-04-19T18:12:51.001Z</time></trkpt><trkpt lat="43.49795605132467" lon="13.282098075768397"><ele>90.0</ele><time>2026-04-19T18:12:52.001Z</time></trkpt><trkpt lat="43.4980353308121" lon="13.282135095021335"><ele>90.0</ele><time>2026-04-19T18:12:53.001Z</time></trkpt><trkpt lat="43.49813162603397" lon="13.28222037284335"><ele>90.0</ele><time>2026-04-19T18:12:55.001Z</time></trkpt><trkpt lat="43.49813448992703" lon="13.282401323970996"><ele>89.4</ele><time>2026-04-19T18:12:57.001Z</time></trkpt><trkpt lat="43.49810959107303" lon="13.28251457022075"><ele>88.8</ele><time>2026-04-19T18:12:58.001Z</time></trkpt><trkpt lat="43.49808785376786" lon="13.282629438561973"><ele>88.19999999999999</ele><time>2026-04-19T18:12:59.001Z</time></trkpt><trkpt lat="43.49808653533501" lon="13.282764834443618"><ele>87.6</ele><time>2026-04-19T18:13:00.001Z</time></trkpt><trkpt lat="43.49811032493766" lon="13.282910610778329"><ele>87.0</ele><time>2026-04-19T18:13:01.001Z</time></trkpt><trkpt lat="43.49813925136187" lon="13.283059518490205"><ele>87.39999999999999</ele><time>2026-04-19T18:13:02.001Z</time></trkpt><trkpt lat="43.49816942995893" lon="13.283204102561331"><ele>87.8</ele><time>2026-04-19T18:13:03.001Z</time></trkpt><trkpt lat="43.498174375021065" lon="13.283344270505207"><ele>88.2</ele><time>2026-04-19T18:13:04.001Z</time></trkpt><trkpt lat="43.49817604894985" lon="13.283456340613219"><ele>88.6</ele><time>2026-04-19T18:13:05.001Z</time></trkpt><trkpt lat="43.49815747093827" lon="13.283592255426521"><ele>89.0</ele><time>2026-04-19T18:13:06.001Z</time></trkpt><trkpt lat="43.498118288701434" lon="13.283742831794267"><ele>89.0</ele><time>2026-04-19T18:13:07.001Z</time></trkpt><trkpt lat="43.49807757967562" lon="13.283909414042776"><ele>89.0</ele><time>2026-04-19T18:13:08.001Z</time></trkpt><trkpt lat="43.49803237742034" lon="13.284088289436975"><ele>89.0</ele><time>2026-04-19T18:13:09.001Z</time></trkpt><trkpt lat="43.497986854890634" lon="13.284278610845083"><ele>89.0</ele><time>2026-04-19T18:13:10.001Z</time></trkpt><trkpt lat="43.49796309862221" lon="13.284460591229516"><ele>89.80000000000001</ele><time>2026-04-19T18:13:11.001Z</time></trkpt><trkpt lat="43.497925302631664" lon="13.284620225671782"><ele>90.60000000000001</ele><time>2026-04-19T18:13:12.001Z</time></trkpt><trkpt lat="43.49789928860479" lon="13.284772255058325"><ele>91.4</ele><time>2026-04-19T18:13:13.001Z</time></trkpt><trkpt lat="43.497874454070846" lon="13.284904551205711"><ele>92.2</ele><time>2026-04-19T18:13:14.001Z</time></trkpt><trkpt lat="43.49784578042469" lon="13.285018844350068"><ele>93.0</ele><time>2026-04-19T18:13:15.001Z</time></trkpt><trkpt lat="43.49783180539009" lon="13.285158616888086"><ele>97.5</ele><time>2026-04-19T18:13:16.001Z</time></trkpt><trkpt lat="43.497831442707586" lon="13.28532291777881"><ele>102.0</ele><time>2026-04-19T18:13:17.001Z</time></trkpt><trkpt lat="43.49783969707818" lon="13.285501905403175"><ele>106.5</ele><time>2026-04-19T18:13:18.001Z</time></trkpt><trkpt lat="43.49785076189654" lon="13.285667673473018"><ele>111.0</ele><time>2026-04-19T18:13:19.001Z</time></trkpt><trkpt lat="43.49787481201444" lon="13.285820279819161"><ele>114.0</ele><time>2026-04-19T18:13:20.001Z</time></trkpt><trkpt lat="43.49788647932602" lon="13.28595587743405"><ele>117.0</ele><time>2026-04-19T18:13:21.001Z</time></trkpt><trkpt lat="43.49786615000507" lon="13.286091174291704"><ele>120.0</ele><time>2026-04-19T18:13:22.001Z</time></trkpt><trkpt lat="43.49784828583081" lon="13.286211682743494"><ele>123.0</ele><time>2026-04-19T18:13:23.001Z</time></trkpt><trkpt lat="43.49782255760413" lon="13.286342839265943"><ele>126.0</ele><time>2026-04-19T18:13:24.001Z</time></trkpt><trkpt lat="43.49778983117926" lon="13.28647589814375"><ele>127.75</ele><time>2026-04-19T18:13:25.001Z</time></trkpt><trkpt lat="43.49774880189944" lon="13.286625799005693"><ele>129.5</ele><time>2026-04-19T18:13:26.001Z</time></trkpt><trkpt lat="43.49769576864614" lon="13.286784756762318"><ele>131.25</ele><time>2026-04-19T18:13:27.001Z</time></trkpt><trkpt lat="43.49764717323563" lon="13.286945527656236"><ele>133.0</ele><time>2026-04-19T18:13:28.001Z</time></trkpt><trkpt lat="43.49760388213249" lon="13.28709004834769"><ele>133.0</ele><time>2026-04-19T18:13:29.001Z</time></trkpt><trkpt lat="43.49755663009151" lon="13.2872550420637"><ele>133.0</ele><time>2026-04-19T18:13:30.001Z</time></trkpt><trkpt lat="43.49751158486562" lon="13.287416730968294"><ele>133.0</ele><time>2026-04-19T18:13:31.001Z</time></trkpt><trkpt lat="43.49748138233548" lon="13.28759980211241"><ele>133.0</ele><time>2026-04-19T18:13:32.001Z</time></trkpt><trkpt lat="43.49743853273761" lon="13.287779830802913"><ele>133.5</ele><time>2026-04-19T18:13:33.001Z</time></trkpt><trkpt lat="43.49739862407883" lon="13.28793438816548"><ele>134.0</ele><time>2026-04-19T18:13:34.001Z</time></trkpt><trkpt lat="43.49735749135741" lon="13.288076007365689"><ele>134.5</ele><time>2026-04-19T18:13:35.001Z</time></trkpt><trkpt lat="43.49731436259002" lon="13.288206986455867"><ele>135.0</ele><time>2026-04-19T18:13:36.001Z</time></trkpt><trkpt lat="43.49725966865565" lon="13.28837005549105"><ele>135.5</ele><time>2026-04-19T18:13:37.001Z</time></trkpt><trkpt lat="43.497180506332874" lon="13.288535790115608"><ele>136.0</ele><time>2026-04-19T18:13:38.001Z</time></trkpt><trkpt lat="43.49712065768356" lon="13.288731283721043"><ele>136.5</ele><time>2026-04-19T18:13:39.001Z</time></trkpt><trkpt lat="43.497054501401195" lon="13.288908914578744"><ele>137.0</ele><time>2026-04-19T18:13:40.001Z</time></trkpt><trkpt lat="43.496992744305786" lon="13.289060421074169"><ele>138.5</ele><time>2026-04-19T18:13:41.001Z</time></trkpt><trkpt lat="43.49695109697971" lon="13.289193946251437"><ele>140.0</ele><time>2026-04-19T18:13:42.001Z</time></trkpt><trkpt lat="43.496910839127096" lon="13.28931028458284"><ele>141.5</ele><time>2026-04-19T18:13:43.001Z</time></trkpt><trkpt lat="43.496873725031435" lon="13.28941964473032"><ele>143.0</ele><time>2026-04-19T18:13:44.001Z</time></trkpt><trkpt lat="43.49684139862372" lon="13.289520011852902"><ele>144.5</ele><time>2026-04-19T18:13:45.001Z</time></trkpt><trkpt lat="43.49680898134143" lon="13.289615023050684"><ele>146.0</ele><time>2026-04-19T18:13:46.001Z</time></trkpt><trkpt lat="43.49678470539933" lon="13.289725036946349"><ele>146.5</ele><time>2026-04-19T18:13:47.001Z</time></trkpt><trkpt lat="43.49675638549014" lon="13.28983510877"><ele>147.0</ele><time>2026-04-19T18:13:48.001Z</time></trkpt><trkpt lat="43.49672857362016" lon="13.28994437156901"><ele>147.5</ele><time>2026-04-19T18:13:49.001Z</time></trkpt><trkpt lat="43.49670146834467" lon="13.290050599969351"><ele>148.0</ele><time>2026-04-19T18:13:50.001Z</time></trkpt><trkpt lat="43.496672648038064" lon="13.290159594964527"><ele>148.5</ele><time>2026-04-19T18:13:51.001Z</time></trkpt><trkpt lat="43.49666450769054" lon="13.290276127821157"><ele>149.0</ele><time>2026-04-19T18:13:52.001Z</time></trkpt><trkpt lat="43.496653737689364" lon="13.290388745963666"><ele>149.0</ele><time>2026-04-19T18:13:53.001Z</time></trkpt><trkpt lat="43.49664432841189" lon="13.290499738386496"><ele>149.0</ele><time>2026-04-19T18:13:54.001Z</time></trkpt><trkpt lat="43.49663798009614" lon="13.290621543124645"><ele>149.0</ele><time>2026-04-19T18:13:55.001Z</time></trkpt><trkpt lat="43.49663109720719" lon="13.290739872741476"><ele>149.0</ele><time>2026-04-19T18:13:56.001Z</time></trkpt><trkpt lat="43.49662934048891" lon="13.290870400350869"><ele>149.0</ele><time>2026-04-19T18:13:57.001Z</time></trkpt><trkpt lat="43.4966251393788" lon="13.291000298702622"><ele>149.0</ele><time>2026-04-19T18:13:58.001Z</time></trkpt><trkpt lat="43.49662125726067" lon="13.291146891637565"><ele>150.5</ele><time>2026-04-19T18:13:59.001Z</time></trkpt><trkpt lat="43.49662470695037" lon="13.291304978146142"><ele>152.0</ele><time>2026-04-19T18:14:00.001Z</time></trkpt><trkpt lat="43.496626745875965" lon="13.291473197587626"><ele>153.5</ele><time>2026-04-19T18:14:01.001Z</time></trkpt><trkpt lat="43.49662595956678" lon="13.291651375517054"><ele>155.0</ele><time>2026-04-19T18:14:02.001Z</time></trkpt><trkpt lat="43.49662843260273" lon="13.291833498530382"><ele>156.5</ele><time>2026-04-19T18:14:03.001Z</time></trkpt><trkpt lat="43.49662734361811" lon="13.292013246540737"><ele>158.0</ele><time>2026-04-19T18:14:04.001Z</time></trkpt><trkpt lat="43.49663049572113" lon="13.292179637058242"><ele>159.5</ele><time>2026-04-19T18:14:05.001Z</time></trkpt><trkpt lat="43.496635347095534" lon="13.292331736348201"><ele>161.0</ele><time>2026-04-19T18:14:06.001Z</time></trkpt><trkpt lat="43.49664288956698" lon="13.292475957809222"><ele>162.5</ele><time>2026-04-19T18:14:07.001Z</time></trkpt><trkpt lat="43.49665219367145" lon="13.292626892706425"><ele>164.0</ele><time>2026-04-19T18:14:08.001Z</time></trkpt><trkpt lat="43.49666683693073" lon="13.292768639449045"><ele>165.5</ele><time>2026-04-19T18:14:09.001Z</time></trkpt><trkpt lat="43.49668892126402" lon="13.292931356447212"><ele>167.0</ele><time>2026-04-19T18:14:10.001Z</time></trkpt><trkpt lat="43.49671985649827" lon="13.2931062575993"><ele>168.0</ele><time>2026-04-19T18:14:11.001Z</time></trkpt><trkpt lat="43.49675060271884" lon="13.293296170984839"><ele>169.0</ele><time>2026-04-19T18:14:12.001Z</time></trkpt><trkpt lat="43.496778394261135" lon="13.293489314672707"><ele>170.0</ele><time>2026-04-19T18:14:13.001Z</time></trkpt><trkpt lat="43.4968019627299" lon="13.293678319148151"><ele>171.0</ele><time>2026-04-19T18:14:14.001Z</time></trkpt><trkpt lat="43.49682777503205" lon="13.29387348472526"><ele>173.25</ele><time>2026-04-19T18:14:15.001Z</time></trkpt><trkpt lat="43.496858035981774" lon="13.294072203195144"><ele>175.5</ele><time>2026-04-19T18:14:16.001Z</time></trkpt><trkpt lat="43.49688464432113" lon="13.294272186869703"><ele>177.75</ele><time>2026-04-19T18:14:17.001Z</time></trkpt><trkpt lat="43.49691032599657" lon="13.294463845011924"><ele>180.0</ele><time>2026-04-19T18:14:18.001Z</time></trkpt><trkpt lat="43.49693914234839" lon="13.294649150951452"><ele>182.75</ele><time>2026-04-19T18:14:19.001Z</time></trkpt><trkpt lat="43.49696342690687" lon="13.29482592481964"><ele>185.5</ele><time>2026-04-19T18:14:20.001Z</time></trkpt><trkpt lat="43.496985609072844" lon="13.294995947755371"><ele>188.25</ele><time>2026-04-19T18:14:21.001Z</time></trkpt><trkpt lat="43.49700631957571" lon="13.295147291760284"><ele>191.0</ele><time>2026-04-19T18:14:22.001Z</time></trkpt><trkpt lat="43.49702550237392" lon="13.295286814258528"><ele>191.0</ele><time>2026-04-19T18:14:23.001Z</time></trkpt><trkpt lat="43.49704610193571" lon="13.295416869056638"><ele>191.0</ele><time>2026-04-19T18:14:24.001Z</time></trkpt><trkpt lat="43.49706307266712" lon="13.295555218663187"><ele>191.0</ele><time>2026-04-19T18:14:25Z</time></trkpt><trkpt lat="43.49708234807168" lon="13.295703357693734"><ele>191.0</ele><time>2026-04-19T18:14:26Z</time></trkpt><trkpt lat="43.497097642493955" lon="13.295829152391587"><ele>191.0</ele><time>2026-04-19T18:14:27Z</time></trkpt><trkpt lat="43.49711281259767" lon="13.29594359184388"><ele>192.0</ele><time>2026-04-19T18:14:28Z</time></trkpt><trkpt lat="43.49712386809894" lon="13.29605178084439"><ele>193.0</ele><time>2026-04-19T18:14:29Z</time></trkpt><trkpt lat="43.49713312990073" lon="13.29614620990483"><ele>194.0</ele><time>2026-04-19T18:14:30Z</time></trkpt><trkpt lat="43.49711909145869" lon="13.296310521539215"><ele>195.0</ele><time>2026-04-19T18:14:32Z</time></trkpt><trkpt lat="43.49708927470103" lon="13.296408373177485"><ele>196.00000000000003</ele><time>2026-04-19T18:14:33Z</time></trkpt><trkpt lat="43.49703607973771" lon="13.296489023541236"><ele>197.0</ele><time>2026-04-19T18:14:34Z</time></trkpt><trkpt lat="43.496998902770066" lon="13.296573447306827"><ele>197.33333333333334</ele><time>2026-04-19T18:14:35Z</time></trkpt><trkpt lat="43.49696170488679" lon="13.296662906144196"><ele>197.66666666666669</ele><time>2026-04-19T18:14:36Z</time></trkpt><trkpt lat="43.49694243202065" lon="13.296768612946943"><ele>198.0</ele><time>2026-04-19T18:14:37Z</time></trkpt><trkpt lat="43.49689652104066" lon="13.296870641025695"><ele>198.33333333333331</ele><time>2026-04-19T18:14:38Z</time></trkpt><trkpt lat="43.4968045394975" lon="13.296963319894926"><ele>198.66666666666666</ele><time>2026-04-19T18:14:39Z</time></trkpt><trkpt lat="43.496742622314535" lon="13.297051048522034"><ele>199.0</ele><time>2026-04-19T18:14:40Z</time></trkpt><trkpt lat="43.49667161102623" lon="13.297164371942545"><ele>198.2</ele><time>2026-04-19T18:14:41Z</time></trkpt><trkpt lat="43.496607092356655" lon="13.297296321869215"><ele>197.39999999999998</ele><time>2026-04-19T18:14:42Z</time></trkpt><trkpt lat="43.496526884318534" lon="13.297403725049948"><ele>196.6</ele><time>2026-04-19T18:14:43.001Z</time></trkpt><trkpt lat="43.496432828219426" lon="13.297458890607441"><ele>195.8</ele><time>2026-04-19T18:14:44.001Z</time></trkpt><trkpt lat="43.49636117782576" lon="13.297522018892257"><ele>195.0</ele><time>2026-04-19T18:14:45.001Z</time></trkpt><trkpt lat="43.49627103215349" lon="13.297506338598884"><ele>197.0</ele><time>2026-04-19T18:14:46.001Z</time></trkpt><trkpt lat="43.496182017704164" lon="13.297502935453599"><ele>199.0</ele><time>2026-04-19T18:14:47.001Z</time></trkpt><trkpt lat="43.496069442712965" lon="13.29751023717082"><ele>201.0</ele><time>2026-04-19T18:14:48.001Z</time></trkpt><trkpt lat="43.49595295378326" lon="13.297481760975156"><ele>203.0</ele><time>2026-04-19T18:14:49.001Z</time></trkpt><trkpt lat="43.49582705477514" lon="13.297483242050577"><ele>205.0</ele><time>2026-04-19T18:14:50.001Z</time></trkpt><trkpt lat="43.49570578704509" lon="13.297475363196927"><ele>205.0</ele><time>2026-04-19T18:14:51.001Z</time></trkpt><trkpt lat="43.49558630498132" lon="13.297441704811725"><ele>205.0</ele><time>2026-04-19T18:14:52.001Z</time></trkpt><trkpt lat="43.495473738418205" lon="13.29739033089287"><ele>205.0</ele><time>2026-04-19T18:14:53.001Z</time></trkpt><trkpt lat="43.495369581040954" lon="13.297316874918192"><ele>205.0</ele><time>2026-04-19T18:14:54.001Z</time></trkpt><trkpt lat="43.49526454136941" lon="13.297250439684285"><ele>208.0</ele><time>2026-04-19T18:14:55.001Z</time></trkpt><trkpt lat="43.49514952692742" lon="13.297201725916477"><ele>211.0</ele><time>2026-04-19T18:14:56.001Z</time></trkpt><trkpt lat="43.49503417513185" lon="13.297160600253621"><ele>214.0</ele><time>2026-04-19T18:14:57.001Z</time></trkpt><trkpt lat="43.494918210726816" lon="13.297133992755533"><ele>217.0</ele><time>2026-04-19T18:14:58.001Z</time></trkpt><trkpt lat="43.49479943465304" lon="13.297126593251644"><ele>217.0</ele><time>2026-04-19T18:14:59.001Z</time></trkpt><trkpt lat="43.49467914092311" lon="13.297129521409797"><ele>217.0</ele><time>2026-04-19T18:15:00.001Z</time></trkpt><trkpt lat="43.49455965552553" lon="13.297140494507142"><ele>217.0</ele><time>2026-04-19T18:15:01.001Z</time></trkpt><trkpt lat="43.494435272985214" lon="13.297145728673046"><ele>217.0</ele><time>2026-04-19T18:15:02.001Z</time></trkpt><trkpt lat="43.49431034344463" lon="13.297145676765389"><ele>219.25</ele><time>2026-04-19T18:15:03.001Z</time></trkpt><trkpt lat="43.49418331430112" lon="13.297149422255323"><ele>221.5</ele><time>2026-04-19T18:15:04.001Z</time></trkpt><trkpt lat="43.49405289448957" lon="13.297168727063521"><ele>223.75</ele><time>2026-04-19T18:15:05.001Z</time></trkpt><trkpt lat="43.49391962570806" lon="13.297200279034163"><ele>226.0</ele><time>2026-04-19T18:15:06.001Z</time></trkpt><trkpt lat="43.493800614513965" lon="13.297249794437272"><ele>230.25</ele><time>2026-04-19T18:15:07.001Z</time></trkpt><trkpt lat="43.49368763842429" lon="13.297309346106122"><ele>234.5</ele><time>2026-04-19T18:15:08.001Z</time></trkpt><trkpt lat="43.49357767440917" lon="13.297388356833272"><ele>238.75</ele><time>2026-04-19T18:15:09.001Z</time></trkpt><trkpt lat="43.493470197744124" lon="13.297478565558515"><ele>243.0</ele><time>2026-04-19T18:15:10.001Z</time></trkpt><trkpt lat="43.4933585135516" lon="13.2975732485173"><ele>243.0</ele><time>2026-04-19T18:15:11.001Z</time></trkpt><trkpt lat="43.4932464060781" lon="13.297672155599031"><ele>243.0</ele><time>2026-04-19T18:15:12.001Z</time></trkpt><trkpt lat="43.49313085710476" lon="13.297752140896145"><ele>243.0</ele><time>2026-04-19T18:15:13.001Z</time></trkpt><trkpt lat="43.493025615963994" lon="13.297841057573647"><ele>243.0</ele><time>2026-04-19T18:15:14.001Z</time></trkpt><trkpt lat="43.492934398746364" lon="13.297941272163108"><ele>245.2</ele><time>2026-04-19T18:15:15.001Z</time></trkpt><trkpt lat="43.49284167748116" lon="13.298005560071466"><ele>247.4</ele><time>2026-04-19T18:15:16.001Z</time></trkpt><trkpt lat="43.49276155224404" lon="13.298073464033346"><ele>249.59999999999997</ele><time>2026-04-19T18:15:17.001Z</time></trkpt><trkpt lat="43.492671845275616" lon="13.29814055210778"><ele>251.79999999999998</ele><time>2026-04-19T18:15:18.001Z</time></trkpt><trkpt lat="43.49258574016056" lon="13.298206331757543"><ele>254.0</ele><time>2026-04-19T18:15:19.001Z</time></trkpt><trkpt lat="43.492488288659" lon="13.29829173989424"><ele>254.0</ele><time>2026-04-19T18:15:20.001Z</time></trkpt><trkpt lat="43.49237894342545" lon="13.29837787236511"><ele>254.0</ele><time>2026-04-19T18:15:21.001Z</time></trkpt><trkpt lat="43.4922949741903" lon="13.298492060462802"><ele>254.0</ele><time>2026-04-19T18:15:22.001Z</time></trkpt><trkpt lat="43.492196257507615" lon="13.298573622560673"><ele>254.0</ele><time>2026-04-19T18:15:23.001Z</time></trkpt><trkpt lat="43.49211971537694" lon="13.298662729906544"><ele>254.6</ele><time>2026-04-19T18:15:24.001Z</time></trkpt><trkpt lat="43.4920593065479" lon="13.298772496313333"><ele>255.2</ele><time>2026-04-19T18:15:25.001Z</time></trkpt><trkpt lat="43.491991959775284" lon="13.298866080648022"><ele>255.79999999999998</ele><time>2026-04-19T18:15:26.001Z</time></trkpt><trkpt lat="43.491931167467975" lon="13.29895111789568"><ele>256.4</ele><time>2026-04-19T18:15:27.001Z</time></trkpt><trkpt lat="43.4918280116497" lon="13.299087034107899"><ele>257.0</ele><time>2026-04-19T18:15:29.001Z</time></trkpt><trkpt lat="43.49178775117848" lon="13.299209778516904"><ele>257.0</ele><time>2026-04-19T18:15:30.001Z</time></trkpt><trkpt lat="43.4917556555071" lon="13.299355073733688"><ele>257.0</ele><time>2026-04-19T18:15:31.001Z</time></trkpt><trkpt lat="43.4916951012354" lon="13.299516544051498"><ele>257.0</ele><time>2026-04-19T18:15:32.001Z</time></trkpt><trkpt lat="43.4916358016965" lon="13.299687842705803"><ele>257.0</ele><time>2026-04-19T18:15:33.001Z</time></trkpt><trkpt lat="43.491581332248" lon="13.299866850852922"><ele>256.6666666666667</ele><time>2026-04-19T18:15:34.001Z</time></trkpt><trkpt lat="43.491526036146624" lon="13.300054879884522"><ele>256.3333333333333</ele><time>2026-04-19T18:15:35.001Z</time></trkpt><trkpt lat="43.491487913841226" lon="13.300254709583818"><ele>256.0</ele><time>2026-04-19T18:15:36.001Z</time></trkpt><trkpt lat="43.49150369402619" lon="13.300504935137692"><ele>256.0</ele><time>2026-04-19T18:15:37.001Z</time></trkpt><trkpt lat="43.49152126454182" lon="13.300739922568136"><ele>256.0</ele><time>2026-04-19T18:15:38.001Z</time></trkpt><trkpt lat="43.49155388226235" lon="13.300974987837678"><ele>256.0</ele><time>2026-04-19T18:15:39.001Z</time></trkpt><trkpt lat="43.49158693259309" lon="13.301195021572015"><ele>256.0</ele><time>2026-04-19T18:15:40.001Z</time></trkpt><trkpt lat="43.491611175978704" lon="13.301391716500284"><ele>256.0</ele><time>2026-04-19T18:15:41.001Z</time></trkpt><trkpt lat="43.491630706399725" lon="13.301577072078867"><ele>256.0</ele><time>2026-04-19T18:15:42.001Z</time></trkpt><trkpt lat="43.4916624296095" lon="13.301765146375256"><ele>256.0</ele><time>2026-04-19T18:15:43.001Z</time></trkpt><trkpt lat="43.491714317827046" lon="13.301962650438446"><ele>256.3333333333333</ele><time>2026-04-19T18:15:44.001Z</time></trkpt><trkpt lat="43.49178064554461" lon="13.302160386481182"><ele>256.6666666666667</ele><time>2026-04-19T18:15:45.001Z</time></trkpt><trkpt lat="43.491858737611174" lon="13.302351189764625"><ele>257.0</ele><time>2026-04-19T18:15:46.001Z</time></trkpt><trkpt lat="43.49194538269172" lon="13.302527630133095"><ele>258.6666666666667</ele><time>2026-04-19T18:15:47.001Z</time></trkpt><trkpt lat="43.49204576859825" lon="13.3026999512829"><ele>260.3333333333333</ele><time>2026-04-19T18:15:48.001Z</time></trkpt><trkpt lat="43.49215114621403" lon="13.302878316685561"><ele>262.0</ele><time>2026-04-19T18:15:49.001Z</time></trkpt><trkpt lat="43.49225166023691" lon="13.303074680619108"><ele>258.3333333333333</ele><time>2026-04-19T18:15:50.001Z</time></trkpt><trkpt lat="43.49235816745667" lon="13.30326340611951"><ele>254.66666666666669</ele><time>2026-04-19T18:15:51.001Z</time></trkpt><trkpt lat="43.49246772445674" lon="13.303466701848162"><ele>251.0</ele><time>2026-04-19T18:15:52.001Z</time></trkpt><trkpt lat="43.492572824607485" lon="13.303673076187913"><ele>251.0</ele><time>2026-04-19T18:15:53.001Z</time></trkpt><trkpt lat="43.49267385359184" lon="13.303878096508754"><ele>251.0</ele><time>2026-04-19T18:15:54.001Z</time></trkpt><trkpt lat="43.49275828398896" lon="13.30407499932368"><ele>251.0</ele><time>2026-04-19T18:15:55.001Z</time></trkpt><trkpt lat="43.49282944756998" lon="13.304268624294894"><ele>251.0</ele><time>2026-04-19T18:15:56.001Z</time></trkpt><trkpt lat="43.49288195514171" lon="13.304469542861554"><ele>251.0</ele><time>2026-04-19T18:15:57.001Z</time></trkpt><trkpt lat="43.492921416301215" lon="13.30468049643532"><ele>251.0</ele><time>2026-04-19T18:15:58.001Z</time></trkpt><trkpt lat="43.492949460128386" lon="13.304903883606778"><ele>249.66666666666669</ele><time>2026-04-19T18:15:59.001Z</time></trkpt><trkpt lat="43.49297572939366" lon="13.305119963871334"><ele>248.33333333333331</ele><time>2026-04-19T18:16:00.001Z</time></trkpt><trkpt lat="43.493007453200235" lon="13.305337537180401"><ele>247.0</ele><time>2026-04-19T18:16:01.001Z</time></trkpt><trkpt lat="43.49304051373233" lon="13.305563082339914"><ele>246.66666666666666</ele><time>2026-04-19T18:16:02.001Z</time></trkpt><trkpt lat="43.49307461708837" lon="13.305790321481084"><ele>246.33333333333331</ele><time>2026-04-19T18:16:03.001Z</time></trkpt><trkpt lat="43.49311422398113" lon="13.306009816347334"><ele>246.0</ele><time>2026-04-19T18:16:04.001Z</time></trkpt><trkpt lat="43.49316251610185" lon="13.306225966062486"><ele>243.66666666666669</ele><time>2026-04-19T18:16:05.001Z</time></trkpt><trkpt lat="43.49322907022816" lon="13.306420119456133"><ele>241.33333333333334</ele><time>2026-04-19T18:16:06.001Z</time></trkpt><trkpt lat="43.49331336581613" lon="13.306603176592562"><ele>239.0</ele><time>2026-04-19T18:16:07.001Z</time></trkpt><trkpt lat="43.49342654354936" lon="13.306780107861945"><ele>239.0</ele><time>2026-04-19T18:16:08.001Z</time></trkpt><trkpt lat="43.49355411854048" lon="13.306955535486301"><ele>239.0</ele><time>2026-04-19T18:16:09.001Z</time></trkpt><trkpt lat="43.49368809253786" lon="13.307139619762113"><ele>239.0</ele><time>2026-04-19T18:16:10.001Z</time></trkpt><trkpt lat="43.493830577154064" lon="13.30732884476714"><ele>238.33333333333334</ele><time>2026-04-19T18:16:11.001Z</time></trkpt><trkpt lat="43.49397226904434" lon="13.307520871953486"><ele>237.66666666666669</ele><time>2026-04-19T18:16:12.001Z</time></trkpt><trkpt lat="43.494110962004996" lon="13.307709308769756"><ele>237.0</ele><time>2026-04-19T18:16:13.001Z</time></trkpt><trkpt lat="43.494238785468006" lon="13.307880501317596"><ele>237.0</ele><time>2026-04-19T18:16:14.001Z</time></trkpt><trkpt lat="43.494359819238305" lon="13.308052050293627"><ele>237.0</ele><time>2026-04-19T18:16:15.001Z</time></trkpt><trkpt lat="43.49447570474122" lon="13.308228252799875"><ele>237.0</ele><time>2026-04-19T18:16:16.001Z</time></trkpt><trkpt lat="43.49458012776828" lon="13.308423903542069"><ele>237.33333333333331</ele><time>2026-04-19T18:16:17.001Z</time></trkpt><trkpt lat="43.49467550744426" lon="13.308628867914976"><ele>237.66666666666666</ele><time>2026-04-19T18:16:18.001Z</time></trkpt><trkpt lat="43.49475667500726" lon="13.308834048660277"><ele>238.0</ele><time>2026-04-19T18:16:19.001Z</time></trkpt><trkpt lat="43.494800244915226" lon="13.309051461347527"><ele>238.0</ele><time>2026-04-19T18:16:20.001Z</time></trkpt><trkpt lat="43.49485915996593" lon="13.309265080511087"><ele>238.0</ele><time>2026-04-19T18:16:21.001Z</time></trkpt><trkpt lat="43.49488040984845" lon="13.309493576559424"><ele>238.0</ele><time>2026-04-19T18:16:22.001Z</time></trkpt><trkpt lat="43.49486332434862" lon="13.30972824091713"><ele>238.33333333333331</ele><time>2026-04-19T18:16:23.001Z</time></trkpt><trkpt lat="43.49484177915117" lon="13.30995740893159"><ele>238.66666666666669</ele><time>2026-04-19T18:16:24.001Z</time></trkpt><trkpt lat="43.49480655107396" lon="13.310187049399547"><ele>239.0</ele><time>2026-04-19T18:16:25.001Z</time></trkpt><trkpt lat="43.494781282168766" lon="13.310414425018585"><ele>240.0</ele><time>2026-04-19T18:16:26.001Z</time></trkpt><trkpt lat="43.49473240731961" lon="13.310621673384937"><ele>241.0</ele><time>2026-04-19T18:16:27.001Z</time></trkpt><trkpt lat="43.49469223264823" lon="13.310826767309825"><ele>242.0</ele><time>2026-04-19T18:16:28.001Z</time></trkpt><trkpt lat="43.49467105500972" lon="13.311022811629307"><ele>242.0</ele><time>2026-04-19T18:16:29.001Z</time></trkpt><trkpt lat="43.49467408490146" lon="13.311210570321059"><ele>242.0</ele><time>2026-04-19T18:16:30.001Z</time></trkpt><trkpt lat="43.49469119066473" lon="13.311391249986146"><ele>242.0</ele><time>2026-04-19T18:16:31.001Z</time></trkpt><trkpt lat="43.49473023589542" lon="13.311562480199152"><ele>242.0</ele><time>2026-04-19T18:16:32.001Z</time></trkpt><trkpt lat="43.49479981515083" lon="13.311730885446181"><ele>240.66666666666669</ele><time>2026-04-19T18:16:33.001Z</time></trkpt><trkpt lat="43.49488459788459" lon="13.311900693711081"><ele>239.33333333333331</ele><time>2026-04-19T18:16:34.001Z</time></trkpt><trkpt lat="43.494979036680256" lon="13.312076703041036"><ele>238.0</ele><time>2026-04-19T18:16:35.001Z</time></trkpt><trkpt lat="43.49507110081736" lon="13.312263691885581"><ele>235.0</ele><time>2026-04-19T18:16:36.001Z</time></trkpt><trkpt lat="43.49516645016329" lon="13.312454736629613"><ele>232.0</ele><time>2026-04-19T18:16:37.001Z</time></trkpt><trkpt lat="43.49525472305273" lon="13.312663502906988"><ele>229.0</ele><time>2026-04-19T18:16:38.001Z</time></trkpt><trkpt lat="43.49533824887585" lon="13.312864242618428"><ele>229.0</ele><time>2026-04-19T18:16:39.001Z</time></trkpt><trkpt lat="43.495404141080535" lon="13.313064124491998"><ele>229.0</ele><time>2026-04-19T18:16:40.001Z</time></trkpt><trkpt lat="43.495495009574206" lon="13.313237190057578"><ele>229.0</ele><time>2026-04-19T18:16:41.001Z</time></trkpt><trkpt lat="43.495572662300404" lon="13.313425404082535"><ele>228.75</ele><time>2026-04-19T18:16:42.001Z</time></trkpt><trkpt lat="43.495639678954944" lon="13.313588097977522"><ele>228.5</ele><time>2026-04-19T18:16:43.001Z</time></trkpt><trkpt lat="43.49568010867527" lon="13.313758674099345"><ele>228.25</ele><time>2026-04-19T18:16:44.001Z</time></trkpt><trkpt lat="43.495707862720664" lon="13.313957446986105"><ele>228.0</ele><time>2026-04-19T18:16:45.001Z</time></trkpt><trkpt lat="43.495695042313265" lon="13.31412535511206"><ele>226.0</ele><time>2026-04-19T18:16:46.001Z</time></trkpt><trkpt lat="43.495681070444455" lon="13.314299562634945"><ele>224.0</ele><time>2026-04-19T18:16:47.001Z</time></trkpt><trkpt lat="43.49562374026219" lon="13.314492443245493"><ele>222.0</ele><time>2026-04-19T18:16:48.001Z</time></trkpt><trkpt lat="43.49554037622734" lon="13.314673502406292"><ele>220.0</ele><time>2026-04-19T18:16:49.001Z</time></trkpt><trkpt lat="43.495453737355994" lon="13.314859349764182"><ele>219.66666666666666</ele><time>2026-04-19T18:16:50.001Z</time></trkpt><trkpt lat="43.49535149247181" lon="13.31505092178509"><ele>219.33333333333331</ele><time>2026-04-19T18:16:51.001Z</time></trkpt><trkpt lat="43.495247668797454" lon="13.315249987871624"><ele>219.0</ele><time>2026-04-19T18:16:52.001Z</time></trkpt><trkpt lat="43.49514283343868" lon="13.315458093090806"><ele>218.33333333333331</ele><time>2026-04-19T18:16:53.001Z</time></trkpt><trkpt lat="43.495038271314385" lon="13.315671996623028"><ele>217.66666666666666</ele><time>2026-04-19T18:16:54.001Z</time></trkpt><trkpt lat="43.49493462381632" lon="13.315884426183596"><ele>217.0</ele><time>2026-04-19T18:16:55.001Z</time></trkpt><trkpt lat="43.49483638826809" lon="13.31608158950673"><ele>217.0</ele><time>2026-04-19T18:16:56.001Z</time></trkpt><trkpt lat="43.494742581631726" lon="13.316263752718704"><ele>217.0</ele><time>2026-04-19T18:16:57.001Z</time></trkpt><trkpt lat="43.49465097827014" lon="13.31644000864696"><ele>217.0</ele><time>2026-04-19T18:16:58.001Z</time></trkpt><trkpt lat="43.49456276495947" lon="13.31660565871229"><ele>216.75</ele><time>2026-04-19T18:16:59.001Z</time></trkpt><trkpt lat="43.49447829228844" lon="13.316767284947062"><ele>216.5</ele><time>2026-04-19T18:17:00.001Z</time></trkpt><trkpt lat="43.49439787341802" lon="13.31692251600803"><ele>216.25</ele><time>2026-04-19T18:17:01.001Z</time></trkpt><trkpt lat="43.494322539507365" lon="13.317076402377968"><ele>216.0</ele><time>2026-04-19T18:17:02.001Z</time></trkpt><trkpt lat="43.4942472276053" lon="13.31722856893607"><ele>215.60000000000002</ele><time>2026-04-19T18:17:03.001Z</time></trkpt><trkpt lat="43.494168721165224" lon="13.317376481500649"><ele>215.20000000000002</ele><time>2026-04-19T18:17:04.001Z</time></trkpt><trkpt lat="43.49410019833676" lon="13.31750780142042"><ele>214.79999999999998</ele><time>2026-04-19T18:17:05.001Z</time></trkpt><trkpt lat="43.49404076819772" lon="13.317617713877112"><ele>214.39999999999998</ele><time>2026-04-19T18:17:06.001Z</time></trkpt><trkpt lat="43.493990658711574" lon="13.317708832392775"><ele>214.0</ele><time>2026-04-19T18:17:07.001Z</time></trkpt><trkpt lat="43.493948182164246" lon="13.317781796703704"><ele>213.99999999999997</ele><time>2026-04-19T18:17:08.001Z</time></trkpt><trkpt lat="43.49391603581202" lon="13.317866490040084"><ele>214.0</ele><time>2026-04-19T18:17:09.001Z</time></trkpt><trkpt lat="43.49389963359936" lon="13.317964292865854"><ele>214.0</ele><time>2026-04-19T18:17:10.001Z</time></trkpt><trkpt lat="43.49387810629852" lon="13.318073591392242"><ele>214.0</ele><time>2026-04-19T18:17:11.001Z</time></trkpt><trkpt lat="43.493848086258346" lon="13.31819483666844"><ele>213.99999999999997</ele><time>2026-04-19T18:17:12.001Z</time></trkpt><trkpt lat="43.49381477919907" lon="13.318323691098927"><ele>214.0</ele><time>2026-04-19T18:17:13.001Z</time></trkpt><trkpt lat="43.49379055787707" lon="13.318464565889432"><ele>213.75</ele><time>2026-04-19T18:17:14.001Z</time></trkpt><trkpt lat="43.493784285307626" lon="13.318625199207784"><ele>213.5</ele><time>2026-04-19T18:17:15.001Z</time></trkpt><trkpt lat="43.493796183922335" lon="13.318803209475048"><ele>213.25</ele><time>2026-04-19T18:17:16.001Z</time></trkpt><trkpt lat="43.49380747460938" lon="13.318980644320995"><ele>213.0</ele><time>2026-04-19T18:17:17.001Z</time></trkpt><trkpt lat="43.49381090078021" lon="13.31915962326244"><ele>213.5</ele><time>2026-04-19T18:17:18.001Z</time></trkpt><trkpt lat="43.493806580422756" lon="13.319336022920105"><ele>214.0</ele><time>2026-04-19T18:17:19.001Z</time></trkpt><trkpt lat="43.49379526293506" lon="13.319512557092006"><ele>214.5</ele><time>2026-04-19T18:17:20.001Z</time></trkpt><trkpt lat="43.493768939726884" lon="13.319666127008137"><ele>215.0</ele><time>2026-04-19T18:17:21.001Z</time></trkpt><trkpt lat="43.49372265646117" lon="13.319891608964864"><ele>215.8</ele><time>2026-04-19T18:17:22.001Z</time></trkpt><trkpt lat="43.49370688286049" lon="13.320047402710426"><ele>216.6</ele><time>2026-04-19T18:17:23.001Z</time></trkpt><trkpt lat="43.493692037865316" lon="13.320190477508694"><ele>217.39999999999998</ele><time>2026-04-19T18:17:24.001Z</time></trkpt><trkpt lat="43.493703786701076" lon="13.320327282642442"><ele>218.2</ele><time>2026-04-19T18:17:25.001Z</time></trkpt><trkpt lat="43.493737428762635" lon="13.320475283004768"><ele>219.0</ele><time>2026-04-19T18:17:26.001Z</time></trkpt><trkpt lat="43.49378052116853" lon="13.320633240105911"><ele>219.0</ele><time>2026-04-19T18:17:27.001Z</time></trkpt><trkpt lat="43.493823293651815" lon="13.320788923626482"><ele>219.0</ele><time>2026-04-19T18:17:28.001Z</time></trkpt><trkpt lat="43.49385148001895" lon="13.320939746222985"><ele>219.0</ele><time>2026-04-19T18:17:29.001Z</time></trkpt><trkpt lat="43.493863860747545" lon="13.321095649052792"><ele>219.0</ele><time>2026-04-19T18:17:30.001Z</time></trkpt><trkpt lat="43.49385881131944" lon="13.321253010964973"><ele>218.75</ele><time>2026-04-19T18:17:31.001Z</time></trkpt><trkpt lat="43.493885297548424" lon="13.321472428238396"><ele>218.5</ele><time>2026-04-19T18:17:32.001Z</time></trkpt><trkpt lat="43.49389320734912" lon="13.321648304300043"><ele>218.25</ele><time>2026-04-19T18:17:33.001Z</time></trkpt><trkpt lat="43.493880816572734" lon="13.321806953210539"><ele>218.0</ele><time>2026-04-19T18:17:34.001Z</time></trkpt><trkpt lat="43.49389791729534" lon="13.321962989545035"><ele>218.0</ele><time>2026-04-19T18:17:35.001Z</time></trkpt><trkpt lat="43.49390137388509" lon="13.322123906647441"><ele>218.0</ele><time>2026-04-19T18:17:36.001Z</time></trkpt><trkpt lat="43.49391074559116" lon="13.322281373932908"><ele>218.0</ele><time>2026-04-19T18:17:37.001Z</time></trkpt><trkpt lat="43.49392314886912" lon="13.322442689424356"><ele>218.0</ele><time>2026-04-19T18:17:38.001Z</time></trkpt><trkpt lat="43.49393555337848" lon="13.32261581532157"><ele>218.0</ele><time>2026-04-19T18:17:39.001Z</time></trkpt><trkpt lat="43.493949128915155" lon="13.322769778602245"><ele>218.0</ele><time>2026-04-19T18:17:40.001Z</time></trkpt><trkpt lat="43.493957964942545" lon="13.322908137114386"><ele>218.0</ele><time>2026-04-19T18:17:41.001Z</time></trkpt><trkpt lat="43.49397020832569" lon="13.323039205724605"><ele>218.0</ele><time>2026-04-19T18:17:42.001Z</time></trkpt><trkpt lat="43.493977298752334" lon="13.32318234961385"><ele>218.0</ele><time>2026-04-19T18:17:43.001Z</time></trkpt><trkpt lat="43.49398554214998" lon="13.3233440942534"><ele>218.5</ele><time>2026-04-19T18:17:44.001Z</time></trkpt><trkpt lat="43.493998644089544" lon="13.323524702666734"><ele>219.0</ele><time>2026-04-19T18:17:45.001Z</time></trkpt><trkpt lat="43.49400897700438" lon="13.32370288216262"><ele>219.5</ele><time>2026-04-19T18:17:46.001Z</time></trkpt><trkpt lat="43.494025958770926" lon="13.323898899971745"><ele>220.0</ele><time>2026-04-19T18:17:47.001Z</time></trkpt><trkpt lat="43.49403720665452" lon="13.324106402586033"><ele>220.75</ele><time>2026-04-19T18:17:48.001Z</time></trkpt><trkpt lat="43.49405389532963" lon="13.32431026881357"><ele>221.5</ele><time>2026-04-19T18:17:49.001Z</time></trkpt><trkpt lat="43.49406404672933" lon="13.324477733071715"><ele>222.25</ele><time>2026-04-19T18:17:50.001Z</time></trkpt><trkpt lat="43.494065878978844" lon="13.324628814949135"><ele>223.0</ele><time>2026-04-19T18:17:51.001Z</time></trkpt><trkpt lat="43.49406692798478" lon="13.324778474744033"><ele>224.0</ele><time>2026-04-19T18:17:52.001Z</time></trkpt><trkpt lat="43.49406471851251" lon="13.324926981229714"><ele>225.0</ele><time>2026-04-19T18:17:53.001Z</time></trkpt><trkpt lat="43.49406347706953" lon="13.325066263880567"><ele>226.0</ele><time>2026-04-19T18:17:54.001Z</time></trkpt><trkpt lat="43.49405631928009" lon="13.325181956009873"><ele>227.0</ele><time>2026-04-19T18:17:55.001Z</time></trkpt><trkpt lat="43.494055988275946" lon="13.325284541589232"><ele>228.0</ele><time>2026-04-19T18:17:56.001Z</time></trkpt><trkpt lat="43.494185003739986" lon="13.325377202901374"><ele>228.0</ele><time>2026-04-19T18:17:57.001Z</time></trkpt><trkpt lat="43.494245085874226" lon="13.325459671520443"><ele>228.0</ele><time>2026-04-19T18:17:58.001Z</time></trkpt><trkpt lat="43.494310721494415" lon="13.325523226621048"><ele>228.0</ele><time>2026-04-19T18:17:59.001Z</time></trkpt><trkpt lat="43.494359537646034" lon="13.325620708206836"><ele>228.0</ele><time>2026-04-19T18:18:00.001Z</time></trkpt><trkpt lat="43.49446924351042" lon="13.325658572378133"><ele>228.0</ele><time>2026-04-19T18:18:01.001Z</time></trkpt><trkpt lat="43.49454781704011" lon="13.325737891341637"><ele>228.25</ele><time>2026-04-19T18:18:02.001Z</time></trkpt><trkpt lat="43.494648316622744" lon="13.325836382508443"><ele>228.5</ele><time>2026-04-19T18:18:03.001Z</time></trkpt><trkpt lat="43.49477319306992" lon="13.32591571923954"><ele>228.75</ele><time>2026-04-19T18:18:04.001Z</time></trkpt><trkpt lat="43.494876863560116" lon="13.326034890716565"><ele>229.0</ele><time>2026-04-19T18:18:05.001Z</time></trkpt><trkpt lat="43.494995566630614" lon="13.32615228647607"><ele>229.0</ele><time>2026-04-19T18:18:06.001Z</time></trkpt><trkpt lat="43.495110473726555" lon="13.326294573675861"><ele>229.0</ele><time>2026-04-19T18:18:07.001Z</time></trkpt><trkpt lat="43.49524521373289" lon="13.326436300488606"><ele>229.0</ele><time>2026-04-19T18:18:08.001Z</time></trkpt><trkpt lat="43.49538415579206" lon="13.326558362298327"><ele>227.25</ele><time>2026-04-19T18:18:09.001Z</time></trkpt><trkpt lat="43.49548588249122" lon="13.326696998689428"><ele>225.5</ele><time>2026-04-19T18:18:10.001Z</time></trkpt><trkpt lat="43.495603824188386" lon="13.326797841967862"><ele>223.75</ele><time>2026-04-19T18:18:11.001Z</time></trkpt><trkpt lat="43.49570050650077" lon="13.326924033616878"><ele>222.0</ele><time>2026-04-19T18:18:12.001Z</time></trkpt><trkpt lat="43.49577493719033" lon="13.327073680065885"><ele>222.0</ele><time>2026-04-19T18:18:13.001Z</time></trkpt><trkpt lat="43.49583173148779" lon="13.32723379042911"><ele>222.0</ele><time>2026-04-19T18:18:14.001Z</time></trkpt><trkpt lat="43.495865012947284" lon="13.327410938799229"><ele>222.0</ele><time>2026-04-19T18:18:15.001Z</time></trkpt><trkpt lat="43.49587004929015" lon="13.327606545709406"><ele>222.0</ele><time>2026-04-19T18:18:16.001Z</time></trkpt><trkpt lat="43.495859234482786" lon="13.327824907877993"><ele>220.33333333333331</ele><time>2026-04-19T18:18:17.001Z</time></trkpt><trkpt lat="43.49584415204319" lon="13.328086042141832"><ele>218.66666666666666</ele><time>2026-04-19T18:18:18.001Z</time></trkpt><trkpt lat="43.49580780114921" lon="13.328340903009506"><ele>217.0</ele><time>2026-04-19T18:18:19.001Z</time></trkpt><trkpt lat="43.49576716332132" lon="13.328603331540958"><ele>217.0</ele><time>2026-04-19T18:18:20.001Z</time></trkpt><trkpt lat="43.49571902941356" lon="13.328879351765384"><ele>217.0</ele><time>2026-04-19T18:18:21.001Z</time></trkpt><trkpt lat="43.495670800804945" lon="13.329162779802013"><ele>217.0</ele><time>2026-04-19T18:18:22.001Z</time></trkpt><trkpt lat="43.495621448158936" lon="13.329445485257883"><ele>213.5</ele><time>2026-04-19T18:18:23.001Z</time></trkpt><trkpt lat="43.49557342059464" lon="13.329752986054176"><ele>210.0</ele><time>2026-04-19T18:18:24.001Z</time></trkpt><trkpt lat="43.49552704088625" lon="13.330060168006861"><ele>210.0</ele><time>2026-04-19T18:18:25.001Z</time></trkpt><trkpt lat="43.49547909944972" lon="13.330376586542538"><ele>210.0</ele><time>2026-04-19T18:18:26.001Z</time></trkpt><trkpt lat="43.49543012605262" lon="13.330700287366605"><ele>216.0</ele><time>2026-04-19T18:18:27.001Z</time></trkpt><trkpt lat="43.49538327037988" lon="13.331030948548648"><ele>222.0</ele><time>2026-04-19T18:18:28.001Z</time></trkpt><trkpt lat="43.495333738416164" lon="13.331367351117855"><ele>222.33333333333331</ele><time>2026-04-19T18:18:29.001Z</time></trkpt><trkpt lat="43.495289312132336" lon="13.331680792570898"><ele>222.66666666666666</ele><time>2026-04-19T18:18:30.001Z</time></trkpt><trkpt lat="43.49524881469752" lon="13.331966583945004"><ele>223.0</ele><time>2026-04-19T18:18:31.001Z</time></trkpt><trkpt lat="43.495208769311596" lon="13.332240817799736"><ele>223.0</ele><time>2026-04-19T18:18:32.001Z</time></trkpt><trkpt lat="43.49517188345249" lon="13.332511868890414"><ele>223.0</ele><time>2026-04-19T18:18:33.001Z</time></trkpt><trkpt lat="43.49513678951025" lon="13.332774211681174"><ele>223.0</ele><time>2026-04-19T18:18:34.001Z</time></trkpt><trkpt lat="43.495105525221085" lon="13.333027493310821"><ele>222.66666666666666</ele><time>2026-04-19T18:18:35.001Z</time></trkpt><trkpt lat="43.49507069164894" lon="13.333285546314341"><ele>222.33333333333331</ele><time>2026-04-19T18:18:36.001Z</time></trkpt><trkpt lat="43.49504213677463" lon="13.333539409005029"><ele>222.0</ele><time>2026-04-19T18:18:37.001Z</time></trkpt><trkpt lat="43.49501012565041" lon="13.333775966701598"><ele>222.33333333333331</ele><time>2026-04-19T18:18:38.001Z</time></trkpt><trkpt lat="43.49499726126778" lon="13.334014574906089"><ele>222.66666666666666</ele><time>2026-04-19T18:18:39.001Z</time></trkpt><trkpt lat="43.49500260798649" lon="13.334262922236368"><ele>223.0</ele><time>2026-04-19T18:18:40.001Z</time></trkpt><trkpt lat="43.49502129014023" lon="13.334529756710033"><ele>224.0</ele><time>2026-04-19T18:18:41.001Z</time></trkpt><trkpt lat="43.49504103778892" lon="13.334795209807776"><ele>225.0</ele><time>2026-04-19T18:18:42.001Z</time></trkpt><trkpt lat="43.49505730246155" lon="13.335063537229832"><ele>226.0</ele><time>2026-04-19T18:18:43.001Z</time></trkpt><trkpt lat="43.495080689706235" lon="13.335334595606493"><ele>228.66666666666666</ele><time>2026-04-19T18:18:44.001Z</time></trkpt><trkpt lat="43.49511382047262" lon="13.335595194046634"><ele>231.33333333333331</ele><time>2026-04-19T18:18:45.001Z</time></trkpt><trkpt lat="43.495163957913675" lon="13.335847623163106"><ele>234.0</ele><time>2026-04-19T18:18:46.001Z</time></trkpt><trkpt lat="43.49522271797169" lon="13.336105454529282"><ele>234.0</ele><time>2026-04-19T18:18:47.001Z</time></trkpt><trkpt lat="43.49528563446374" lon="13.336366760276594"><ele>234.0</ele><time>2026-04-19T18:18:48.001Z</time></trkpt><trkpt lat="43.49535209574938" lon="13.336635699506376"><ele>234.0</ele><time>2026-04-19T18:18:49Z</time></trkpt><trkpt lat="43.4954192977827" lon="13.33691051308188"><ele>232.0</ele><time>2026-04-19T18:18:50Z</time></trkpt><trkpt lat="43.495495679912736" lon="13.337199567796995"><ele>230.0</ele><time>2026-04-19T18:18:51Z</time></trkpt><trkpt lat="43.49557894309522" lon="13.337489627071124"><ele>228.0</ele><time>2026-04-19T18:18:52Z</time></trkpt><trkpt lat="43.495673250459056" lon="13.337778318070344"><ele>228.0</ele><time>2026-04-19T18:18:53Z</time></trkpt><trkpt lat="43.49577425299042" lon="13.338034374784698"><ele>228.0</ele><time>2026-04-19T18:18:54Z</time></trkpt><trkpt lat="43.49587696537541" lon="13.338265681558614"><ele>228.0</ele><time>2026-04-19T18:18:55Z</time></trkpt><trkpt lat="43.495972995324166" lon="13.338476696947193"><ele>230.66666666666669</ele><time>2026-04-19T18:18:56Z</time></trkpt><trkpt lat="43.49605977779351" lon="13.33867834027816"><ele>233.33333333333334</ele><time>2026-04-19T18:18:57Z</time></trkpt><trkpt lat="43.49614701995227" lon="13.338874663668783"><ele>236.0</ele><time>2026-04-19T18:18:58Z</time></trkpt><trkpt lat="43.4962447513214" lon="13.339067075558507"><ele>235.0</ele><time>2026-04-19T18:18:59Z</time></trkpt><trkpt lat="43.49635533286597" lon="13.339254705214566"><ele>234.0</ele><time>2026-04-19T18:19:00Z</time></trkpt><trkpt lat="43.49646456960651" lon="13.339431739098893"><ele>233.0</ele><time>2026-04-19T18:19:01Z</time></trkpt><trkpt lat="43.496577459442214" lon="13.339616225586228"><ele>234.66666666666669</ele><time>2026-04-19T18:19:02Z</time></trkpt><trkpt lat="43.496701603070704" lon="13.339810241411106"><ele>236.33333333333331</ele><time>2026-04-19T18:19:03Z</time></trkpt><trkpt lat="43.49682189525107" lon="13.33999750735799"><ele>238.0</ele><time>2026-04-19T18:19:04Z</time></trkpt><trkpt lat="43.49694166160054" lon="13.340194054372168"><ele>238.0</ele><time>2026-04-19T18:19:05Z</time></trkpt><trkpt lat="43.49706004727067" lon="13.340397800507814"><ele>238.0</ele><time>2026-04-19T18:19:06Z</time></trkpt><trkpt lat="43.49717455961194" lon="13.340603157323104"><ele>238.0</ele><time>2026-04-19T18:19:07Z</time></trkpt><trkpt lat="43.497292586288246" lon="13.340800159873986"><ele>239.33333333333331</ele><time>2026-04-19T18:19:08Z</time></trkpt><trkpt lat="43.49739833067376" lon="13.340992353547707"><ele>240.66666666666669</ele><time>2026-04-19T18:19:09Z</time></trkpt><trkpt lat="43.49749857377124" lon="13.34118237065538"><ele>242.0</ele><time>2026-04-19T18:19:10Z</time></trkpt><trkpt lat="43.49759161228456" lon="13.341379083044611"><ele>242.66666666666669</ele><time>2026-04-19T18:19:11Z</time></trkpt><trkpt lat="43.49767876739145" lon="13.341581180930833"><ele>243.33333333333331</ele><time>2026-04-19T18:19:12Z</time></trkpt><trkpt lat="43.49777231419011" lon="13.341786505494271"><ele>244.0</ele><time>2026-04-19T18:19:13Z</time></trkpt><trkpt lat="43.49784341354516" lon="13.341979547006975"><ele>244.0</ele><time>2026-04-19T18:19:14Z</time></trkpt><trkpt lat="43.4979080959826" lon="13.342148252060253"><ele>244.0</ele><time>2026-04-19T18:19:15Z</time></trkpt><trkpt lat="43.49795309045041" lon="13.342302139620857"><ele>244.0</ele><time>2026-04-19T18:19:16Z</time></trkpt><trkpt lat="43.49799080567401" lon="13.342454792981007"><ele>244.0</ele><time>2026-04-19T18:19:17.001Z</time></trkpt><trkpt lat="43.498013706208994" lon="13.342590328330378"><ele>243.6</ele><time>2026-04-19T18:19:18.001Z</time></trkpt><trkpt lat="43.498002580234406" lon="13.342712002224518"><ele>243.2</ele><time>2026-04-19T18:19:19.001Z</time></trkpt><trkpt lat="43.49795462069131" lon="13.342845877416712"><ele>242.79999999999998</ele><time>2026-04-19T18:19:20.001Z</time></trkpt><trkpt lat="43.497891765422786" lon="13.342982495706597"><ele>242.39999999999998</ele><time>2026-04-19T18:19:21.001Z</time></trkpt><trkpt lat="43.49784723402969" lon="13.343146334142695"><ele>242.0</ele><time>2026-04-19T18:19:22.001Z</time></trkpt><trkpt lat="43.49778795091072" lon="13.343329299133954"><ele>242.0</ele><time>2026-04-19T18:19:23.001Z</time></trkpt><trkpt lat="43.49772896933521" lon="13.343499754910914"><ele>242.0</ele><time>2026-04-19T18:19:24.001Z</time></trkpt><trkpt lat="43.4976621354845" lon="13.34368188555888"><ele>242.0</ele><time>2026-04-19T18:19:25.001Z</time></trkpt><trkpt lat="43.49758793572025" lon="13.343859974697764"><ele>242.0</ele><time>2026-04-19T18:19:26.001Z</time></trkpt><trkpt lat="43.49749361166351" lon="13.344026484561608"><ele>244.0</ele><time>2026-04-19T18:19:27.001Z</time></trkpt><trkpt lat="43.49742219084262" lon="13.344207194095038"><ele>246.0</ele><time>2026-04-19T18:19:28.001Z</time></trkpt><trkpt lat="43.497336429595066" lon="13.344353996222834"><ele>248.0</ele><time>2026-04-19T18:19:29.001Z</time></trkpt><trkpt lat="43.49725097641463" lon="13.344560763080631"><ele>246.25</ele><time>2026-04-19T18:19:30.001Z</time></trkpt><trkpt lat="43.49715863054368" lon="13.344740676544747"><ele>244.5</ele><time>2026-04-19T18:19:31.001Z</time></trkpt><trkpt lat="43.49707956272137" lon="13.344908824130053"><ele>242.75</ele><time>2026-04-19T18:19:32.001Z</time></trkpt><trkpt lat="43.497003387853624" lon="13.345056962106662"><ele>241.0</ele><time>2026-04-19T18:19:33.001Z</time></trkpt><trkpt lat="43.496931539626274" lon="13.3452221178637"><ele>241.0</ele><time>2026-04-19T18:19:34.001Z</time></trkpt><trkpt lat="43.496846446125424" lon="13.345384438544235"><ele>241.0</ele><time>2026-04-19T18:19:35.001Z</time></trkpt><trkpt lat="43.496753158063484" lon="13.345555311014925"><ele>241.0</ele><time>2026-04-19T18:19:36.001Z</time></trkpt><trkpt lat="43.496651376497084" lon="13.345725988713163"><ele>243.33333333333331</ele><time>2026-04-19T18:19:37.001Z</time></trkpt><trkpt lat="43.496527095708416" lon="13.345870249075748"><ele>245.66666666666669</ele><time>2026-04-19T18:19:38.001Z</time></trkpt><trkpt lat="43.4964028414671" lon="13.346008665886822"><ele>248.0</ele><time>2026-04-19T18:19:39.001Z</time></trkpt><trkpt lat="43.49627994569342" lon="13.346133068215382"><ele>248.25</ele><time>2026-04-19T18:19:40.001Z</time></trkpt><trkpt lat="43.496170392000046" lon="13.346227186359213"><ele>248.5</ele><time>2026-04-19T18:19:41.001Z</time></trkpt><trkpt lat="43.4960636679202" lon="13.346300201731685"><ele>248.75</ele><time>2026-04-19T18:19:42.001Z</time></trkpt><trkpt lat="43.4959659122918" lon="13.346381213228153"><ele>249.0</ele><time>2026-04-19T18:19:43.001Z</time></trkpt><trkpt lat="43.495880418012305" lon="13.34644531432187"><ele>249.0</ele><time>2026-04-19T18:19:44.001Z</time></trkpt><trkpt lat="43.49579732517049" lon="13.346507884482067"><ele>248.99999999999997</ele><time>2026-04-19T18:19:45.001Z</time></trkpt><trkpt lat="43.49574949220186" lon="13.34663049332511"><ele>248.99999999999997</ele><time>2026-04-19T18:19:46.001Z</time></trkpt><trkpt lat="43.49570880967964" lon="13.34675934999938"><ele>249.0</ele><time>2026-04-19T18:19:47.001Z</time></trkpt><trkpt lat="43.49566986473179" lon="13.346911336976838"><ele>249.0</ele><time>2026-04-19T18:19:48.001Z</time></trkpt><trkpt lat="43.495637796119105" lon="13.34706576276011"><ele>249.25</ele><time>2026-04-19T18:19:49.001Z</time></trkpt><trkpt lat="43.495602353120354" lon="13.347237386886077"><ele>249.5</ele><time>2026-04-19T18:19:50.001Z</time></trkpt><trkpt lat="43.4955793413434" lon="13.347416324946233"><ele>249.75</ele><time>2026-04-19T18:19:51.001Z</time></trkpt><trkpt lat="43.49554854164145" lon="13.34758728158313"><ele>250.0</ele><time>2026-04-19T18:19:52.001Z</time></trkpt><trkpt lat="43.495530745596184" lon="13.347755183079697"><ele>250.0</ele><time>2026-04-19T18:19:53.001Z</time></trkpt><trkpt lat="43.49552910070954" lon="13.347930950625596"><ele>250.0</ele><time>2026-04-19T18:19:54.001Z</time></trkpt><trkpt lat="43.49550241288566" lon="13.348100302689485"><ele>250.0</ele><time>2026-04-19T18:19:55.001Z</time></trkpt><trkpt lat="43.49547608565585" lon="13.348275772967463"><ele>250.0</ele><time>2026-04-19T18:19:56.001Z</time></trkpt><trkpt lat="43.49544371651213" lon="13.348452463198374"><ele>244.5</ele><time>2026-04-19T18:19:57.001Z</time></trkpt><trkpt lat="43.495398011397626" lon="13.348626805870374"><ele>239.0</ele><time>2026-04-19T18:19:58.001Z</time></trkpt><trkpt lat="43.495377100249065" lon="13.348813717600946"><ele>233.5</ele><time>2026-04-19T18:19:59.001Z</time></trkpt><trkpt lat="43.49533180773376" lon="13.348985239360982"><ele>228.0</ele><time>2026-04-19T18:20:00.001Z</time></trkpt><trkpt lat="43.49527526992029" lon="13.349157069102015"><ele>226.0</ele><time>2026-04-19T18:20:01.001Z</time></trkpt><trkpt lat="43.495210076601666" lon="13.349340968220563"><ele>224.0</ele><time>2026-04-19T18:20:02.001Z</time></trkpt><trkpt lat="43.49514205020273" lon="13.349533288747468"><ele>222.0</ele><time>2026-04-19T18:20:03.001Z</time></trkpt><trkpt lat="43.495066307215495" lon="13.349719927057105"><ele>222.0</ele><time>2026-04-19T18:20:04.001Z</time></trkpt><trkpt lat="43.49498155263798" lon="13.349897922263008"><ele>222.0</ele><time>2026-04-19T18:20:05.001Z</time></trkpt><trkpt lat="43.494869605181" lon="13.350049529133964"><ele>222.0</ele><time>2026-04-19T18:20:06.001Z</time></trkpt><trkpt lat="43.49475556294331" lon="13.350204617460577"><ele>222.0</ele><time>2026-04-19T18:20:07.001Z</time></trkpt><trkpt lat="43.49464730644168" lon="13.350381898268084"><ele>222.0</ele><time>2026-04-19T18:20:08.001Z</time></trkpt><trkpt lat="43.49452572769952" lon="13.350539489288424"><ele>222.0</ele><time>2026-04-19T18:20:09.001Z</time></trkpt><trkpt lat="43.49441424063537" lon="13.350692584229344"><ele>218.75</ele><time>2026-04-19T18:20:10.001Z</time></trkpt><trkpt lat="43.4943072277083" lon="13.350840031608758"><ele>215.5</ele><time>2026-04-19T18:20:11.001Z</time></trkpt><trkpt lat="43.494198933308795" lon="13.350971832471497"><ele>212.25</ele><time>2026-04-19T18:20:12.001Z</time></trkpt><trkpt lat="43.49408598353402" lon="13.351082194069674"><ele>209.0</ele><time>2026-04-19T18:20:13.001Z</time></trkpt><trkpt lat="43.49396056352006" lon="13.351158106891313"><ele>209.0</ele><time>2026-04-19T18:20:14.001Z</time></trkpt><trkpt lat="43.49383596418984" lon="13.35123462802087"><ele>209.0</ele><time>2026-04-19T18:20:15.001Z</time></trkpt><trkpt lat="43.49370674781408" lon="13.351306687138877"><ele>209.0</ele><time>2026-04-19T18:20:16.001Z</time></trkpt><trkpt lat="43.49358157726511" lon="13.351383423722393"><ele>209.0</ele><time>2026-04-19T18:20:17.001Z</time></trkpt><trkpt lat="43.49345744259255" lon="13.351472763407799"><ele>207.25</ele><time>2026-04-19T18:20:18.001Z</time></trkpt><trkpt lat="43.49333263826716" lon="13.351575361823501"><ele>205.5</ele><time>2026-04-19T18:20:19.001Z</time></trkpt><trkpt lat="43.493207336190274" lon="13.35168908755572"><ele>203.75</ele><time>2026-04-19T18:20:20.001Z</time></trkpt><trkpt lat="43.4930823588693" lon="13.351803157886392"><ele>202.0</ele><time>2026-04-19T18:20:21.001Z</time></trkpt><trkpt lat="43.492966729715036" lon="13.351903752581743"><ele>199.33333333333331</ele><time>2026-04-19T18:20:22.001Z</time></trkpt><trkpt lat="43.49284338370061" lon="13.352009780349949"><ele>196.66666666666669</ele><time>2026-04-19T18:20:23.001Z</time></trkpt><trkpt lat="43.49271031727511" lon="13.352131348264587"><ele>194.0</ele><time>2026-04-19T18:20:24.001Z</time></trkpt><trkpt lat="43.49256880718544" lon="13.35226145830299"><ele>194.0</ele><time>2026-04-19T18:20:25.001Z</time></trkpt><trkpt lat="43.49241692283508" lon="13.352389174810535"><ele>194.0</ele><time>2026-04-19T18:20:26.001Z</time></trkpt><trkpt lat="43.49226457710294" lon="13.352528606610573"><ele>194.0</ele><time>2026-04-19T18:20:27.001Z</time></trkpt><trkpt lat="43.492112184383544" lon="13.352667718013725"><ele>191.0</ele><time>2026-04-19T18:20:28.001Z</time></trkpt><trkpt lat="43.49195836351192" lon="13.352805541403873"><ele>188.0</ele><time>2026-04-19T18:20:29.001Z</time></trkpt><trkpt lat="43.4918025605386" lon="13.352943618034667"><ele>185.0</ele><time>2026-04-19T18:20:30.001Z</time></trkpt><trkpt lat="43.49165425261674" lon="13.353065726737881"><ele>185.0</ele><time>2026-04-19T18:20:31.001Z</time></trkpt><trkpt lat="43.491516940987225" lon="13.353182064669744"><ele>185.0</ele><time>2026-04-19T18:20:32.001Z</time></trkpt><trkpt lat="43.49138322584" lon="13.353296883753105"><ele>185.0</ele><time>2026-04-19T18:20:33.001Z</time></trkpt><trkpt lat="43.49125423992291" lon="13.353402190980585"><ele>184.75</ele><time>2026-04-19T18:20:34.001Z</time></trkpt><trkpt lat="43.491132865226135" lon="13.353501318940697"><ele>184.5</ele><time>2026-04-19T18:20:35.001Z</time></trkpt><trkpt lat="43.491018386170744" lon="13.353588298508456"><ele>184.25</ele><time>2026-04-19T18:20:36.001Z</time></trkpt><trkpt lat="43.49090655929848" lon="13.353678698661708"><ele>184.0</ele><time>2026-04-19T18:20:37.001Z</time></trkpt><trkpt lat="43.49079495153004" lon="13.353762566805568"><ele>184.0</ele><time>2026-04-19T18:20:38.001Z</time></trkpt><trkpt lat="43.49068903032257" lon="13.353856692465722"><ele>184.0</ele><time>2026-04-19T18:20:39.001Z</time></trkpt><trkpt lat="43.490589227022824" lon="13.353936130674914"><ele>184.0</ele><time>2026-04-19T18:20:40.001Z</time></trkpt><trkpt lat="43.49048826015232" lon="13.354003393013894"><ele>184.0</ele><time>2026-04-19T18:20:41.001Z</time></trkpt><trkpt lat="43.49038350454211" lon="13.354062609975365"><ele>182.25</ele><time>2026-04-19T18:20:42.001Z</time></trkpt><trkpt lat="43.49027074835948" lon="13.354114732980149"><ele>180.5</ele><time>2026-04-19T18:20:43.001Z</time></trkpt><trkpt lat="43.490151727748305" lon="13.354165589681724"><ele>178.75</ele><time>2026-04-19T18:20:44.001Z</time></trkpt><trkpt lat="43.49002081503975" lon="13.35422118961966"><ele>177.0</ele><time>2026-04-19T18:20:45.001Z</time></trkpt><trkpt lat="43.48988371580436" lon="13.354275842066496"><ele>177.0</ele><time>2026-04-19T18:20:46.001Z</time></trkpt><trkpt lat="43.489743943570026" lon="13.354334903085194"><ele>177.0</ele><time>2026-04-19T18:20:47.001Z</time></trkpt><trkpt lat="43.48959676691433" lon="13.354395898218542"><ele>177.0</ele><time>2026-04-19T18:20:48.001Z</time></trkpt><trkpt lat="43.489456324926785" lon="13.354458575018205"><ele>177.0</ele><time>2026-04-19T18:20:49.001Z</time></trkpt><trkpt lat="43.48932106863269" lon="13.354521864250415"><ele>175.25</ele><time>2026-04-19T18:20:50.001Z</time></trkpt><trkpt lat="43.48919609148762" lon="13.354580700846908"><ele>173.5</ele><time>2026-04-19T18:20:51.001Z</time></trkpt><trkpt lat="43.48906834640757" lon="13.354637301842018"><ele>171.75</ele><time>2026-04-19T18:20:52Z</time></trkpt><trkpt lat="43.48893489266806" lon="13.354693210371659"><ele>170.0</ele><time>2026-04-19T18:20:53.001Z</time></trkpt><trkpt lat="43.48879385633498" lon="13.354750181606498"><ele>167.5</ele><time>2026-04-19T18:20:54Z</time></trkpt><trkpt lat="43.48865389177377" lon="13.354804037325525"><ele>165.0</ele><time>2026-04-19T18:20:55Z</time></trkpt><trkpt lat="43.488519756201974" lon="13.35485712375474"><ele>162.5</ele><time>2026-04-19T18:20:56Z</time></trkpt><trkpt lat="43.48838753206873" lon="13.354911217337948"><ele>160.0</ele><time>2026-04-19T18:20:57Z</time></trkpt><trkpt lat="43.48825979201935" lon="13.354966843240735"><ele>160.0</ele><time>2026-04-19T18:20:58.001Z</time></trkpt><trkpt lat="43.48813429938963" lon="13.355021897833403"><ele>160.0</ele><time>2026-04-19T18:20:59.001Z</time></trkpt><trkpt lat="43.48800921369066" lon="13.355086055492688"><ele>160.0</ele><time>2026-04-19T18:21:00.001Z</time></trkpt><trkpt lat="43.487893263340375" lon="13.355171435169158"><ele>160.0</ele><time>2026-04-19T18:21:01.001Z</time></trkpt><trkpt lat="43.487777892622624" lon="13.355282550615483"><ele>160.0</ele><time>2026-04-19T18:21:02.001Z</time></trkpt><trkpt lat="43.48765899846184" lon="13.355417881757035"><ele>160.0</ele><time>2026-04-19T18:21:03.001Z</time></trkpt><trkpt lat="43.48753791815814" lon="13.355561891184207"><ele>160.0</ele><time>2026-04-19T18:21:04.001Z</time></trkpt><trkpt lat="43.487412841688474" lon="13.355697082024195"><ele>157.0</ele><time>2026-04-19T18:21:05.001Z</time></trkpt><trkpt lat="43.48728581403399" lon="13.355835177858678"><ele>154.0</ele><time>2026-04-19T18:21:06.001Z</time></trkpt><trkpt lat="43.487161956800286" lon="13.355967458086413"><ele>151.0</ele><time>2026-04-19T18:21:07.001Z</time></trkpt><trkpt lat="43.48704188444882" lon="13.35608595966935"><ele>150.75</ele><time>2026-04-19T18:21:08.001Z</time></trkpt><trkpt lat="43.48692431367138" lon="13.356182339292127"><ele>150.5</ele><time>2026-04-19T18:21:09.001Z</time></trkpt><trkpt lat="43.486807043063095" lon="13.3562742557683"><ele>150.25</ele><time>2026-04-19T18:21:10.001Z</time></trkpt><trkpt lat="43.486703439198806" lon="13.35634795328538"><ele>150.0</ele><time>2026-04-19T18:21:11.001Z</time></trkpt><trkpt lat="43.48660244437176" lon="13.356436214436378"><ele>148.75</ele><time>2026-04-19T18:21:12.001Z</time></trkpt><trkpt lat="43.48650063917156" lon="13.35653046320383"><ele>147.5</ele><time>2026-04-19T18:21:13.001Z</time></trkpt><trkpt lat="43.48639651444523" lon="13.35662861356815"><ele>146.25</ele><time>2026-04-19T18:21:14.001Z</time></trkpt><trkpt lat="43.48629668566472" lon="13.356735872088835"><ele>145.0</ele><time>2026-04-19T18:21:15.001Z</time></trkpt><trkpt lat="43.486196877214816" lon="13.35685776207879"><ele>144.25</ele><time>2026-04-19T18:21:16.001Z</time></trkpt><trkpt lat="43.486098834824226" lon="13.35698267187727"><ele>143.5</ele><time>2026-04-19T18:21:17.001Z</time></trkpt><trkpt lat="43.48600346469383" lon="13.357123182336663"><ele>142.75</ele><time>2026-04-19T18:21:18.001Z</time></trkpt><trkpt lat="43.485909775854395" lon="13.357271820137253"><ele>142.0</ele><time>2026-04-19T18:21:19.001Z</time></trkpt><trkpt lat="43.48581980980794" lon="13.357423927883643"><ele>140.5</ele><time>2026-04-19T18:21:20.001Z</time></trkpt><trkpt lat="43.485741077140055" lon="13.357574439816668"><ele>139.0</ele><time>2026-04-19T18:21:21.001Z</time></trkpt><trkpt lat="43.485665192322735" lon="13.357728953014636"><ele>137.5</ele><time>2026-04-19T18:21:22.001Z</time></trkpt><trkpt lat="43.48559726825713" lon="13.357882488450953"><ele>136.0</ele><time>2026-04-19T18:21:23.001Z</time></trkpt><trkpt lat="43.48554014744931" lon="13.358036403811461"><ele>134.25</ele><time>2026-04-19T18:21:24.001Z</time></trkpt><trkpt lat="43.48549820852482" lon="13.358197391438564"><ele>132.5</ele><time>2026-04-19T18:21:25.001Z</time></trkpt><trkpt lat="43.48545446350894" lon="13.358365701937009"><ele>130.75</ele><time>2026-04-19T18:21:26.001Z</time></trkpt><trkpt lat="43.4854365705184" lon="13.358546957129883"><ele>129.0</ele><time>2026-04-19T18:21:27.001Z</time></trkpt><trkpt lat="43.4854204961077" lon="13.358740308560577"><ele>127.33333333333334</ele><time>2026-04-19T18:21:28.001Z</time></trkpt><trkpt lat="43.48542069776337" lon="13.358943361794726"><ele>125.66666666666667</ele><time>2026-04-19T18:21:29.001Z</time></trkpt><trkpt lat="43.48540694271092" lon="13.359146794771235"><ele>124.0</ele><time>2026-04-19T18:21:30.001Z</time></trkpt><trkpt lat="43.485396023988855" lon="13.359360579407452"><ele>124.0</ele><time>2026-04-19T18:21:31.001Z</time></trkpt><trkpt lat="43.48538095298867" lon="13.359564953553065"><ele>124.0</ele><time>2026-04-19T18:21:32.001Z</time></trkpt><trkpt lat="43.48535047441896" lon="13.3597635259845"><ele>124.0</ele><time>2026-04-19T18:21:33.001Z</time></trkpt><trkpt lat="43.485347129464145" lon="13.359967762519663"><ele>124.0</ele><time>2026-04-19T18:21:34.001Z</time></trkpt><trkpt lat="43.485327566016096" lon="13.360165184650498"><ele>122.5</ele><time>2026-04-19T18:21:35.001Z</time></trkpt><trkpt lat="43.48530701727645" lon="13.360364743100652"><ele>121.0</ele><time>2026-04-19T18:21:36.001Z</time></trkpt><trkpt lat="43.485284179541736" lon="13.360550701448329"><ele>119.5</ele><time>2026-04-19T18:21:37.001Z</time></trkpt><trkpt lat="43.48525939520278" lon="13.360734652251201"><ele>118.0</ele><time>2026-04-19T18:21:38.001Z</time></trkpt><trkpt lat="43.485236342652605" lon="13.360910942577087"><ele>117.0</ele><time>2026-04-19T18:21:39.001Z</time></trkpt><trkpt lat="43.485215281119935" lon="13.361087571830609"><ele>116.0</ele><time>2026-04-19T18:21:40.001Z</time></trkpt><trkpt lat="43.48519823458425" lon="13.361258202289799"><ele>115.0</ele><time>2026-04-19T18:21:41.001Z</time></trkpt><trkpt lat="43.485178985191105" lon="13.361421192570226"><ele>114.0</ele><time>2026-04-19T18:21:42.001Z</time></trkpt><trkpt lat="43.48516252734861" lon="13.361572351751388"><ele>113.6</ele><time>2026-04-19T18:21:43.001Z</time></trkpt><trkpt lat="43.48515174809398" lon="13.361701438458764"><ele>113.2</ele><time>2026-04-19T18:21:44.001Z</time></trkpt><trkpt lat="43.48514933804836" lon="13.361814052894859"><ele>112.79999999999998</ele><time>2026-04-19T18:21:45.001Z</time></trkpt><trkpt lat="43.48514338885742" lon="13.3619137780221"><ele>112.39999999999999</ele><time>2026-04-19T18:21:46.001Z</time></trkpt><trkpt lat="43.48506479686357" lon="13.362027104908956"><ele>112.0</ele><time>2026-04-19T18:21:48.001Z</time></trkpt><trkpt lat="43.4849462561362" lon="13.361985403062423"><ele>112.0</ele><time>2026-04-19T18:21:50.001Z</time></trkpt><trkpt lat="43.48486804650087" lon="13.361985605018562"><ele>111.99999999999999</ele><time>2026-04-19T18:21:51.001Z</time></trkpt><trkpt lat="43.484785592981126" lon="13.361953876645336"><ele>111.99999999999999</ele><time>2026-04-19T18:21:52.001Z</time></trkpt><trkpt lat="43.48469712679339" lon="13.36192098374847"><ele>112.0</ele><time>2026-04-19T18:21:53.001Z</time></trkpt><trkpt lat="43.48459803012508" lon="13.361886527379594"><ele>112.0</ele><time>2026-04-19T18:21:54.001Z</time></trkpt><trkpt lat="43.484503001158885" lon="13.361848002471223"><ele>111.8</ele><time>2026-04-19T18:21:55.001Z</time></trkpt><trkpt lat="43.484419607179035" lon="13.361800961176511"><ele>111.6</ele><time>2026-04-19T18:21:56.001Z</time></trkpt><trkpt lat="43.48433478204017" lon="13.361735938836109"><ele>111.39999999999999</ele><time>2026-04-19T18:21:57.001Z</time></trkpt><trkpt lat="43.484250517769894" lon="13.361662083205786"><ele>111.19999999999999</ele><time>2026-04-19T18:21:58.001Z</time></trkpt><trkpt lat="43.484173125803636" lon="13.361578066279662"><ele>111.0</ele><time>2026-04-19T18:21:59.001Z</time></trkpt><trkpt lat="43.484113774842186" lon="13.361497128955783"><ele>111.0</ele><time>2026-04-19T18:22:00.001Z</time></trkpt><trkpt lat="43.48406818527748" lon="13.361411629811291"><ele>111.0</ele><time>2026-04-19T18:22:01.001Z</time></trkpt><trkpt lat="43.48402052088707" lon="13.361335814195126"><ele>111.0</ele><time>2026-04-19T18:22:02.001Z</time></trkpt><trkpt lat="43.48394246980174" lon="13.361259100815046"><ele>111.0</ele><time>2026-04-19T18:22:04.001Z</time></trkpt><trkpt lat="43.483839183751115" lon="13.361359685743055"><ele>111.0</ele><time>2026-04-19T18:22:06.001Z</time></trkpt><trkpt lat="43.483824756815004" lon="13.361512878107977"><ele>111.0</ele><time>2026-04-19T18:22:08.001Z</time></trkpt><trkpt lat="43.483850693921354" lon="13.361624604130823"><ele>111.0</ele><time>2026-04-19T18:22:09.001Z</time></trkpt><trkpt lat="43.48388542469353" lon="13.361741660522606"><ele>111.0</ele><time>2026-04-19T18:22:10.001Z</time></trkpt><trkpt lat="43.483927128774866" lon="13.36187659737535"><ele>111.0</ele><time>2026-04-19T18:22:11.001Z</time></trkpt><trkpt lat="43.4839699969628" lon="13.36202363542983"><ele>111.0</ele><time>2026-04-19T18:22:12.001Z</time></trkpt><trkpt lat="43.48402041609744" lon="13.362188277584181"><ele>111.0</ele><time>2026-04-19T18:22:13.001Z</time></trkpt><trkpt lat="43.484079546881546" lon="13.362372757964854"><ele>111.0</ele><time>2026-04-19T18:22:14.001Z</time></trkpt><trkpt lat="43.48414711004978" lon="13.362562555604"><ele>111.0</ele><time>2026-04-19T18:22:15.001Z</time></trkpt><trkpt lat="43.48421426663934" lon="13.362770136662391"><ele>111.0</ele><time>2026-04-19T18:22:16.001Z</time></trkpt><trkpt lat="43.484279978630596" lon="13.362981774324144"><ele>111.0</ele><time>2026-04-19T18:22:17.001Z</time></trkpt><trkpt lat="43.48434618810533" lon="13.363204967873461"><ele>111.0</ele><time>2026-04-19T18:22:18.001Z</time></trkpt><trkpt lat="43.484411041567725" lon="13.363423394117442"><ele>110.66666666666666</ele><time>2026-04-19T18:22:19.001Z</time></trkpt><trkpt lat="43.4844814346771" lon="13.363648415326013"><ele>110.33333333333333</ele><time>2026-04-19T18:22:20.001Z</time></trkpt><trkpt lat="43.484552151931524" lon="13.363874349522606"><ele>110.0</ele><time>2026-04-19T18:22:21.001Z</time></trkpt><trkpt lat="43.48462094150867" lon="13.364096414015652"><ele>110.66666666666666</ele><time>2026-04-19T18:22:22.001Z</time></trkpt><trkpt lat="43.48468928139979" lon="13.364311544156278"><ele>111.33333333333334</ele><time>2026-04-19T18:22:23.001Z</time></trkpt><trkpt lat="43.484750392874304" lon="13.364508636900286"><ele>112.0</ele><time>2026-04-19T18:22:24.001Z</time></trkpt><trkpt lat="43.48481079491607" lon="13.36470585261047"><ele>112.0</ele><time>2026-04-19T18:22:25.001Z</time></trkpt><trkpt lat="43.48487076113374" lon="13.364900665421827"><ele>112.0</ele><time>2026-04-19T18:22:26.001Z</time></trkpt><trkpt lat="43.48493084892937" lon="13.365099982482613"><ele>112.0</ele><time>2026-04-19T18:22:27.001Z</time></trkpt><trkpt lat="43.484980886484706" lon="13.365302339523517"><ele>112.0</ele><time>2026-04-19T18:22:28.001Z</time></trkpt><trkpt lat="43.48501500075057" lon="13.365519111867263"><ele>112.0</ele><time>2026-04-19T18:22:29.001Z</time></trkpt><trkpt lat="43.48502976889064" lon="13.365747483724816"><ele>112.0</ele><time>2026-04-19T18:22:30.001Z</time></trkpt><trkpt lat="43.48503770758554" lon="13.365989429487064"><ele>111.66666666666667</ele><time>2026-04-19T18:22:31.001Z</time></trkpt><trkpt lat="43.48504291313217" lon="13.366242444192387"><ele>111.33333333333334</ele><time>2026-04-19T18:22:32.001Z</time></trkpt><trkpt lat="43.48505075635143" lon="13.366501529840898"><ele>111.0</ele><time>2026-04-19T18:22:33.001Z</time></trkpt><trkpt lat="43.485062731072304" lon="13.366765342379159"><ele>110.0</ele><time>2026-04-19T18:22:34.001Z</time></trkpt><trkpt lat="43.48508117452788" lon="13.367035389690601"><ele>109.0</ele><time>2026-04-19T18:22:35.001Z</time></trkpt><trkpt lat="43.48511117013292" lon="13.367308460958013"><ele>108.0</ele><time>2026-04-19T18:22:36.001Z</time></trkpt><trkpt lat="43.485155226720444" lon="13.367583587405205"><ele>107.66666666666666</ele><time>2026-04-19T18:22:37.001Z</time></trkpt><trkpt lat="43.48520850399614" lon="13.3678645385708"><ele>107.33333333333333</ele><time>2026-04-19T18:22:38.001Z</time></trkpt><trkpt lat="43.48525626197381" lon="13.368141007777188"><ele>107.0</ele><time>2026-04-19T18:22:39.001Z</time></trkpt><trkpt lat="43.485300506093274" lon="13.368410058412842"><ele>106.66666666666666</ele><time>2026-04-19T18:22:40.001Z</time></trkpt><trkpt lat="43.48534842747247" lon="13.368676369607645"><ele>106.33333333333334</ele><time>2026-04-19T18:22:41.001Z</time></trkpt><trkpt lat="43.48539973870136" lon="13.368937876173153"><ele>106.0</ele><time>2026-04-19T18:22:42.001Z</time></trkpt><trkpt lat="43.48545276521853" lon="13.369207144928255"><ele>106.0</ele><time>2026-04-19T18:22:43.001Z</time></trkpt><trkpt lat="43.48551011009452" lon="13.36948223251545"><ele>106.0</ele><time>2026-04-19T18:22:44.001Z</time></trkpt><trkpt lat="43.48556725260903" lon="13.369757849173354"><ele>106.0</ele><time>2026-04-19T18:22:45.001Z</time></trkpt><trkpt lat="43.485622214036695" lon="13.370036919210968"><ele>105.66666666666667</ele><time>2026-04-19T18:22:46.001Z</time></trkpt><trkpt lat="43.4856730001958" lon="13.370306520511166"><ele>105.33333333333334</ele><time>2026-04-19T18:22:47.001Z</time></trkpt><trkpt lat="43.48572528815213" lon="13.37057848439154"><ele>105.0</ele><time>2026-04-19T18:22:48.001Z</time></trkpt><trkpt lat="43.48577865078226" lon="13.370845196275985"><ele>105.0</ele><time>2026-04-19T18:22:49.001Z</time></trkpt><trkpt lat="43.48583358586203" lon="13.371110074122322"><ele>105.0</ele><time>2026-04-19T18:22:50.001Z</time></trkpt><trkpt lat="43.48588798941237" lon="13.371369448941886"><ele>105.0</ele><time>2026-04-19T18:22:51.001Z</time></trkpt><trkpt lat="43.485942029625654" lon="13.371630770126744"><ele>105.0</ele><time>2026-04-19T18:22:52.001Z</time></trkpt><trkpt lat="43.485994108277964" lon="13.371888952602877"><ele>105.0</ele><time>2026-04-19T18:22:53.001Z</time></trkpt><trkpt lat="43.48604729204456" lon="13.372148446328142"><ele>105.0</ele><time>2026-04-19T18:22:54.001Z</time></trkpt><trkpt lat="43.48610016815703" lon="13.372404999795465"><ele>105.0</ele><time>2026-04-19T18:22:55.001Z</time></trkpt><trkpt lat="43.48615114592813" lon="13.372663866470221"><ele>105.0</ele><time>2026-04-19T18:22:56.001Z</time></trkpt><trkpt lat="43.48620136913978" lon="13.372915455710544"><ele>105.0</ele><time>2026-04-19T18:22:57Z</time></trkpt><trkpt lat="43.486248668002176" lon="13.37315565400499"><ele>107.33333333333334</ele><time>2026-04-19T18:22:58Z</time></trkpt><trkpt lat="43.48627798524767" lon="13.373380192552865"><ele>109.66666666666667</ele><time>2026-04-19T18:22:59Z</time></trkpt><trkpt lat="43.486286910484985" lon="13.373604457309373"><ele>112.0</ele><time>2026-04-19T18:23:00Z</time></trkpt><trkpt lat="43.48627848201446" lon="13.37383945342588"><ele>109.0</ele><time>2026-04-19T18:23:01Z</time></trkpt><trkpt lat="43.486255912514686" lon="13.374080628075237"><ele>106.0</ele><time>2026-04-19T18:23:02Z</time></trkpt><trkpt lat="43.48622743821914" lon="13.374321939987528"><ele>103.0</ele><time>2026-04-19T18:23:03Z</time></trkpt><trkpt lat="43.486202000904825" lon="13.37456973420103"><ele>102.33333333333334</ele><time>2026-04-19T18:23:04Z</time></trkpt><trkpt lat="43.486179806810384" lon="13.37481806169485"><ele>101.66666666666666</ele><time>2026-04-19T18:23:05Z</time></trkpt><trkpt lat="43.48615526261799" lon="13.375069815010319"><ele>101.0</ele><time>2026-04-19T18:23:06Z</time></trkpt><trkpt lat="43.486130740735376" lon="13.375321900898228"><ele>100.66666666666666</ele><time>2026-04-19T18:23:07.001Z</time></trkpt><trkpt lat="43.48610645305156" lon="13.375577552176999"><ele>100.33333333333334</ele><time>2026-04-19T18:23:08.001Z</time></trkpt><trkpt lat="43.48608364462592" lon="13.375829726188096"><ele>100.0</ele><time>2026-04-19T18:23:09.001Z</time></trkpt><trkpt lat="43.48606096406614" lon="13.376084785823062"><ele>100.0</ele><time>2026-04-19T18:23:10.001Z</time></trkpt><trkpt lat="43.48604152793953" lon="13.376326130430149"><ele>100.0</ele><time>2026-04-19T18:23:11.001Z</time></trkpt><trkpt lat="43.48602190561811" lon="13.37654571718961"><ele>100.0</ele><time>2026-04-19T18:23:12.001Z</time></trkpt><trkpt lat="43.48600244416709" lon="13.376751555626948"><ele>100.25</ele><time>2026-04-19T18:23:13.001Z</time></trkpt><trkpt lat="43.48598352951907" lon="13.376949583841007"><ele>100.5</ele><time>2026-04-19T18:23:14.001Z</time></trkpt><trkpt lat="43.48596569276768" lon="13.377137794751592"><ele>100.75</ele><time>2026-04-19T18:23:15.001Z</time></trkpt><trkpt lat="43.48594753082834" lon="13.377338688354634"><ele>101.0</ele><time>2026-04-19T18:23:16.001Z</time></trkpt><trkpt lat="43.485928073424205" lon="13.377560258361024"><ele>101.0</ele><time>2026-04-19T18:23:17.001Z</time></trkpt><trkpt lat="43.48590979085024" lon="13.377794794049512"><ele>101.0</ele><time>2026-04-19T18:23:18.001Z</time></trkpt><trkpt lat="43.485889679879506" lon="13.378037720554786"><ele>101.0</ele><time>2026-04-19T18:23:19.001Z</time></trkpt><trkpt lat="43.48586652746804" lon="13.378289069660417"><ele>101.0</ele><time>2026-04-19T18:23:20.001Z</time></trkpt><trkpt lat="43.48584076060141" lon="13.378545591411038"><ele>101.0</ele><time>2026-04-19T18:23:21.001Z</time></trkpt><trkpt lat="43.4858145389899" lon="13.378814255578213"><ele>101.0</ele><time>2026-04-19T18:23:22.001Z</time></trkpt><trkpt lat="43.48578976244382" lon="13.379087862147722"><ele>101.0</ele><time>2026-04-19T18:23:23.001Z</time></trkpt><trkpt lat="43.485761044622414" lon="13.379371308303702"><ele>101.0</ele><time>2026-04-19T18:23:24.001Z</time></trkpt><trkpt lat="43.48573589615782" lon="13.379656604962932"><ele>101.0</ele><time>2026-04-19T18:23:25.001Z</time></trkpt><trkpt lat="43.48571280401176" lon="13.379945163908744"><ele>101.33333333333333</ele><time>2026-04-19T18:23:26.001Z</time></trkpt><trkpt lat="43.48568909234235" lon="13.38023691331538"><ele>101.66666666666666</ele><time>2026-04-19T18:23:27.001Z</time></trkpt><trkpt lat="43.4856618590838" lon="13.38053131885472"><ele>102.0</ele><time>2026-04-19T18:23:28.001Z</time></trkpt><trkpt lat="43.48563512456165" lon="13.38083643143462"><ele>102.0</ele><time>2026-04-19T18:23:29.001Z</time></trkpt><trkpt lat="43.4856116754839" lon="13.381134388469272"><ele>102.0</ele><time>2026-04-19T18:23:30.001Z</time></trkpt><trkpt lat="43.48558178138725" lon="13.381413905530735"><ele>102.0</ele><time>2026-04-19T18:23:31.001Z</time></trkpt><trkpt lat="43.485557075426556" lon="13.381683451272007"><ele>102.0</ele><time>2026-04-19T18:23:32.001Z</time></trkpt><trkpt lat="43.48553428479116" lon="13.381950367517522"><ele>102.0</ele><time>2026-04-19T18:23:33.001Z</time></trkpt><trkpt lat="43.48551318612569" lon="13.382214401575753"><ele>102.0</ele><time>2026-04-19T18:23:34.001Z</time></trkpt><trkpt lat="43.48549946697816" lon="13.382471160569752"><ele>102.0</ele><time>2026-04-19T18:23:35.001Z</time></trkpt><trkpt lat="43.48549181952568" lon="13.382727292544075"><ele>102.0</ele><time>2026-04-19T18:23:36.001Z</time></trkpt><trkpt lat="43.48549112096683" lon="13.382983888816236"><ele>102.0</ele><time>2026-04-19T18:23:37.001Z</time></trkpt><trkpt lat="43.485493826995466" lon="13.383237724140221"><ele>102.0</ele><time>2026-04-19T18:23:38.001Z</time></trkpt><trkpt lat="43.485496844185946" lon="13.383503708074796"><ele>102.0</ele><time>2026-04-19T18:23:39.001Z</time></trkpt><trkpt lat="43.48549955884549" lon="13.383771956607239"><ele>102.0</ele><time>2026-04-19T18:23:40.001Z</time></trkpt><trkpt lat="43.48550331575814" lon="13.384041949107782"><ele>101.66666666666666</ele><time>2026-04-19T18:23:41.001Z</time></trkpt><trkpt lat="43.48550830715062" lon="13.384312237325359"><ele>101.33333333333333</ele><time>2026-04-19T18:23:42.001Z</time></trkpt><trkpt lat="43.485510122257985" lon="13.384586599260581"><ele>101.0</ele><time>2026-04-19T18:23:43.001Z</time></trkpt><trkpt lat="43.485510015033626" lon="13.384855323436359"><ele>100.33333333333333</ele><time>2026-04-19T18:23:44.001Z</time></trkpt><trkpt lat="43.485504954436365" lon="13.385105814158791"><ele>99.66666666666666</ele><time>2026-04-19T18:23:45.001Z</time></trkpt><trkpt lat="43.4854944180659" lon="13.385345168421136"><ele>99.0</ele><time>2026-04-19T18:23:46.001Z</time></trkpt><trkpt lat="43.48547510554208" lon="13.38557228745596"><ele>98.66666666666666</ele><time>2026-04-19T18:23:47.001Z</time></trkpt><trkpt lat="43.48545269653178" lon="13.385797157650156"><ele>98.33333333333333</ele><time>2026-04-19T18:23:48.001Z</time></trkpt><trkpt lat="43.485435077766375" lon="13.386012289190228"><ele>98.0</ele><time>2026-04-19T18:23:49.001Z</time></trkpt><trkpt lat="43.485432171356926" lon="13.386221074684894"><ele>98.0</ele><time>2026-04-19T18:23:50.001Z</time></trkpt><trkpt lat="43.48546843334604" lon="13.386446239746679"><ele>98.0</ele><time>2026-04-19T18:23:51.001Z</time></trkpt><trkpt lat="43.4855102426177" lon="13.386672521527599"><ele>98.0</ele><time>2026-04-19T18:23:52.001Z</time></trkpt><trkpt lat="43.4855537136317" lon="13.38690464564086"><ele>98.0</ele><time>2026-04-19T18:23:53.001Z</time></trkpt><trkpt lat="43.485581438791485" lon="13.387159146380887"><ele>98.0</ele><time>2026-04-19T18:23:54.001Z</time></trkpt><trkpt lat="43.485591094853916" lon="13.387419362940353"><ele>98.0</ele><time>2026-04-19T18:23:55.001Z</time></trkpt><trkpt lat="43.48558347181478" lon="13.387694058212135"><ele>98.33333333333333</ele><time>2026-04-19T18:23:56.001Z</time></trkpt><trkpt lat="43.48556919549935" lon="13.387984217943506"><ele>98.66666666666666</ele><time>2026-04-19T18:23:57.001Z</time></trkpt><trkpt lat="43.485561422032035" lon="13.38825683599678"><ele>99.0</ele><time>2026-04-19T18:23:58.001Z</time></trkpt><trkpt lat="43.48555945049785" lon="13.38850884575417"><ele>99.66666666666666</ele><time>2026-04-19T18:23:59.001Z</time></trkpt><trkpt lat="43.48556350874236" lon="13.388734752421687"><ele>100.33333333333333</ele><time>2026-04-19T18:24:00.001Z</time></trkpt><trkpt lat="43.485564052473876" lon="13.388947054476809"><ele>101.0</ele><time>2026-04-19T18:24:01.001Z</time></trkpt><trkpt lat="43.48556648253681" lon="13.389154448208684"><ele>101.33333333333333</ele><time>2026-04-19T18:24:02.001Z</time></trkpt><trkpt lat="43.48557029082431" lon="13.389368776190768"><ele>101.66666666666666</ele><time>2026-04-19T18:24:03.001Z</time></trkpt><trkpt lat="43.48557413466506" lon="13.38957962121013"><ele>102.0</ele><time>2026-04-19T18:24:04.001Z</time></trkpt><trkpt lat="43.48557732703438" lon="13.389793473433953"><ele>102.0</ele><time>2026-04-19T18:24:05.001Z</time></trkpt><trkpt lat="43.485578641697316" lon="13.390010435518962"><ele>102.0</ele><time>2026-04-19T18:24:06.001Z</time></trkpt><trkpt lat="43.485581813359346" lon="13.390229761401248"><ele>102.0</ele><time>2026-04-19T18:24:07.001Z</time></trkpt><trkpt lat="43.485587815306324" lon="13.39044891982365"><ele>102.0</ele><time>2026-04-19T18:24:08.001Z</time></trkpt><trkpt lat="43.48559368079411" lon="13.39065924859924"><ele>102.0</ele><time>2026-04-19T18:24:09.001Z</time></trkpt><trkpt lat="43.48559810477028" lon="13.390852593454063"><ele>102.0</ele><time>2026-04-19T18:24:10.001Z</time></trkpt><trkpt lat="43.485601512549415" lon="13.391042083319041"><ele>102.0</ele><time>2026-04-19T18:24:11.001Z</time></trkpt><trkpt lat="43.48560687174309" lon="13.391244711473"><ele>101.66666666666666</ele><time>2026-04-19T18:24:12.001Z</time></trkpt><trkpt lat="43.485613803892804" lon="13.391462433168261"><ele>101.33333333333333</ele><time>2026-04-19T18:24:13.001Z</time></trkpt><trkpt lat="43.48562281467368" lon="13.391690656877824"><ele>101.0</ele><time>2026-04-19T18:24:14.001Z</time></trkpt><trkpt lat="43.485631875206664" lon="13.391925587141898"><ele>101.0</ele><time>2026-04-19T18:24:15.001Z</time></trkpt><trkpt lat="43.485638232497394" lon="13.392165742303309"><ele>101.0</ele><time>2026-04-19T18:24:16.001Z</time></trkpt><trkpt lat="43.485644185990004" lon="13.392421675895214"><ele>101.0</ele><time>2026-04-19T18:24:17.001Z</time></trkpt><trkpt lat="43.485650871067065" lon="13.392695078960044"><ele>101.0</ele><time>2026-04-19T18:24:18.001Z</time></trkpt><trkpt lat="43.485650688590184" lon="13.3929755980444"><ele>101.0</ele><time>2026-04-19T18:24:19.001Z</time></trkpt><trkpt lat="43.48565010907779" lon="13.393259004113329"><ele>101.0</ele><time>2026-04-19T18:24:20.001Z</time></trkpt><trkpt lat="43.48564654655535" lon="13.393547349737107"><ele>100.66666666666666</ele><time>2026-04-19T18:24:21.001Z</time></trkpt><trkpt lat="43.48564828390612" lon="13.393835015629163"><ele>100.33333333333334</ele><time>2026-04-19T18:24:22.001Z</time></trkpt><trkpt lat="43.48565382374138" lon="13.394120972534056"><ele>100.0</ele><time>2026-04-19T18:24:23.001Z</time></trkpt><trkpt lat="43.485659714705164" lon="13.394406966820254"><ele>100.0</ele><time>2026-04-19T18:24:24.001Z</time></trkpt><trkpt lat="43.48566350592291" lon="13.394693024055593"><ele>100.0</ele><time>2026-04-19T18:24:25.001Z</time></trkpt><trkpt lat="43.485671354813675" lon="13.394979927380817"><ele>100.0</ele><time>2026-04-19T18:24:26.001Z</time></trkpt><trkpt lat="43.48567804310172" lon="13.395261191688663"><ele>99.33333333333334</ele><time>2026-04-19T18:24:27.001Z</time></trkpt><trkpt lat="43.48568409124605" lon="13.395542417446226"><ele>98.66666666666666</ele><time>2026-04-19T18:24:28.001Z</time></trkpt><trkpt lat="43.48568973303827" lon="13.395826117691666"><ele>98.0</ele><time>2026-04-19T18:24:29.001Z</time></trkpt><trkpt lat="43.48569457236616" lon="13.396108630986056"><ele>97.66666666666666</ele><time>2026-04-19T18:24:30.001Z</time></trkpt><trkpt lat="43.485698771541195" lon="13.396390250194234"><ele>97.33333333333334</ele><time>2026-04-19T18:24:31.001Z</time></trkpt><trkpt lat="43.48570598998185" lon="13.396674356123514"><ele>97.0</ele><time>2026-04-19T18:24:32.001Z</time></trkpt><trkpt lat="43.48571045338363" lon="13.396956770629837"><ele>96.0</ele><time>2026-04-19T18:24:33.001Z</time></trkpt><trkpt lat="43.48571299848867" lon="13.39724211065637"><ele>95.0</ele><time>2026-04-19T18:24:34.001Z</time></trkpt><trkpt lat="43.48571240343685" lon="13.397526101550278"><ele>94.0</ele><time>2026-04-19T18:24:35.001Z</time></trkpt><trkpt lat="43.485711632371846" lon="13.397812499430692"><ele>93.66666666666666</ele><time>2026-04-19T18:24:36.001Z</time></trkpt><trkpt lat="43.48571407361004" lon="13.398103170576436"><ele>93.33333333333333</ele><time>2026-04-19T18:24:37.001Z</time></trkpt><trkpt lat="43.48571870262942" lon="13.398392030846878"><ele>93.0</ele><time>2026-04-19T18:24:38.001Z</time></trkpt><trkpt lat="43.485722926934066" lon="13.398670891141803"><ele>93.0</ele><time>2026-04-19T18:24:39.001Z</time></trkpt><trkpt lat="43.48572757031823" lon="13.398941548510962"><ele>93.0</ele><time>2026-04-19T18:24:40.001Z</time></trkpt><trkpt lat="43.48573081918606" lon="13.399211999632719"><ele>93.0</ele><time>2026-04-19T18:24:41.001Z</time></trkpt><trkpt lat="43.485733296195605" lon="13.39948920503758"><ele>92.66666666666667</ele><time>2026-04-19T18:24:42.001Z</time></trkpt><trkpt lat="43.48573369572092" lon="13.3997749403629"><ele>92.33333333333334</ele><time>2026-04-19T18:24:43.001Z</time></trkpt><trkpt lat="43.48573550966048" lon="13.400063529267296"><ele>92.0</ele><time>2026-04-19T18:24:44.001Z</time></trkpt><trkpt lat="43.48573778242349" lon="13.40035590113511"><ele>91.33333333333334</ele><time>2026-04-19T18:24:45.001Z</time></trkpt><trkpt lat="43.48574104624849" lon="13.400655467671132"><ele>90.66666666666667</ele><time>2026-04-19T18:24:46.001Z</time></trkpt><trkpt lat="43.4857453462689" lon="13.400968480388627"><ele>90.0</ele><time>2026-04-19T18:24:47.001Z</time></trkpt><trkpt lat="43.48574661897049" lon="13.40129689229934"><ele>90.5</ele><time>2026-04-19T18:24:48.001Z</time></trkpt><trkpt lat="43.48575246915708" lon="13.401632864587592"><ele>91.0</ele><time>2026-04-19T18:24:49.001Z</time></trkpt><trkpt lat="43.48575744546306" lon="13.401951160450416"><ele>91.0</ele><time>2026-04-19T18:24:50.001Z</time></trkpt><trkpt lat="43.48575962001728" lon="13.402243741762161"><ele>91.0</ele><time>2026-04-19T18:24:51.001Z</time></trkpt><trkpt lat="43.48576280626996" lon="13.402519048490822"><ele>91.0</ele><time>2026-04-19T18:24:52.001Z</time></trkpt><trkpt lat="43.48576508135339" lon="13.402801845016539"><ele>90.66666666666666</ele><time>2026-04-19T18:24:53.001Z</time></trkpt><trkpt lat="43.485767839176674" lon="13.403087337479755"><ele>90.33333333333333</ele><time>2026-04-19T18:24:54.001Z</time></trkpt><trkpt lat="43.48577057082995" lon="13.403375474524951"><ele>90.0</ele><time>2026-04-19T18:24:55.001Z</time></trkpt><trkpt lat="43.48577088949963" lon="13.403661028105619"><ele>90.0</ele><time>2026-04-19T18:24:56.001Z</time></trkpt><trkpt lat="43.48577362367772" lon="13.40394437135395"><ele>90.0</ele><time>2026-04-19T18:24:57.001Z</time></trkpt><trkpt lat="43.48578097781346" lon="13.404229492095187"><ele>90.0</ele><time>2026-04-19T18:24:58.001Z</time></trkpt><trkpt lat="43.48578481101412" lon="13.404512794908058"><ele>90.0</ele><time>2026-04-19T18:24:59.001Z</time></trkpt><trkpt lat="43.48577873631015" lon="13.404785204345094"><ele>90.0</ele><time>2026-04-19T18:25:00.001Z</time></trkpt><trkpt lat="43.48575822699533" lon="13.405041680264464"><ele>90.0</ele><time>2026-04-19T18:25:01.001Z</time></trkpt><trkpt lat="43.48572804291388" lon="13.405296921101678"><ele>90.66666666666667</ele><time>2026-04-19T18:25:02.001Z</time></trkpt><trkpt lat="43.485693037321354" lon="13.405559438791713"><ele>91.33333333333334</ele><time>2026-04-19T18:25:03.001Z</time></trkpt><trkpt lat="43.48565052986034" lon="13.405825278507768"><ele>92.0</ele><time>2026-04-19T18:25:04.001Z</time></trkpt><trkpt lat="43.48560069084344" lon="13.406090080382992"><ele>91.66666666666667</ele><time>2026-04-19T18:25:05.001Z</time></trkpt><trkpt lat="43.485548619915825" lon="13.40636140488792"><ele>91.33333333333333</ele><time>2026-04-19T18:25:06.001Z</time></trkpt><trkpt lat="43.48550360124516" lon="13.406644873482232"><ele>91.0</ele><time>2026-04-19T18:25:07.001Z</time></trkpt><trkpt lat="43.48545952354883" lon="13.406933530629718"><ele>90.33333333333333</ele><time>2026-04-19T18:25:08.001Z</time></trkpt><trkpt lat="43.485418428035125" lon="13.407229899968225"><ele>89.66666666666667</ele><time>2026-04-19T18:25:09.001Z</time></trkpt><trkpt lat="43.48537530193676" lon="13.407530472328258"><ele>89.0</ele><time>2026-04-19T18:25:10.001Z</time></trkpt><trkpt lat="43.485331443122995" lon="13.407831620728382"><ele>88.5</ele><time>2026-04-19T18:25:11.001Z</time></trkpt><trkpt lat="43.48529481599255" lon="13.408140114945917"><ele>88.0</ele><time>2026-04-19T18:25:12.001Z</time></trkpt><trkpt lat="43.4852606545524" lon="13.408449982330252"><ele>88.0</ele><time>2026-04-19T18:25:13.001Z</time></trkpt><trkpt lat="43.485226145351035" lon="13.40877030359469"><ele>88.0</ele><time>2026-04-19T18:25:14.001Z</time></trkpt><trkpt lat="43.4851917793745" lon="13.409099708610317"><ele>87.5</ele><time>2026-04-19T18:25:15.001Z</time></trkpt><trkpt lat="43.48515360970756" lon="13.4094374638938"><ele>87.0</ele><time>2026-04-19T18:25:16.001Z</time></trkpt><trkpt lat="43.48510737980607" lon="13.409788659315723"><ele>86.0</ele><time>2026-04-19T18:25:17.001Z</time></trkpt><trkpt lat="43.48505376775935" lon="13.410146992575594"><ele>85.0</ele><time>2026-04-19T18:25:18.001Z</time></trkpt><trkpt lat="43.48499673851236" lon="13.4104991405398"><ele>85.0</ele><time>2026-04-19T18:25:19.001Z</time></trkpt><trkpt lat="43.48493560029303" lon="13.410848519038517"><ele>85.0</ele><time>2026-04-19T18:25:20.001Z</time></trkpt><trkpt lat="43.48487491946183" lon="13.411197469583279"><ele>85.0</ele><time>2026-04-19T18:25:21.001Z</time></trkpt><trkpt lat="43.484816202161944" lon="13.411542430106605"><ele>85.0</ele><time>2026-04-19T18:25:22.001Z</time></trkpt><trkpt lat="43.48475966519992" lon="13.411875202688934"><ele>84.5</ele><time>2026-04-19T18:25:23.001Z</time></trkpt><trkpt lat="43.48470157656155" lon="13.412198188319225"><ele>84.0</ele><time>2026-04-19T18:25:24.001Z</time></trkpt><trkpt lat="43.48463757949439" lon="13.412512169125723"><ele>83.0</ele><time>2026-04-19T18:25:25.001Z</time></trkpt><trkpt lat="43.484560775169506" lon="13.412824689532096"><ele>82.0</ele><time>2026-04-19T18:25:26.001Z</time></trkpt><trkpt lat="43.484472139485234" lon="13.413129935900296"><ele>82.0</ele><time>2026-04-19T18:25:27.001Z</time></trkpt><trkpt lat="43.48437708162894" lon="13.41343421027065"><ele>82.0</ele><time>2026-04-19T18:25:28.001Z</time></trkpt><trkpt lat="43.484279089113016" lon="13.41374585768663"><ele>82.5</ele><time>2026-04-19T18:25:29.001Z</time></trkpt><trkpt lat="43.48418330499251" lon="13.41406472541822"><ele>83.0</ele><time>2026-04-19T18:25:30.001Z</time></trkpt><trkpt lat="43.484089960400226" lon="13.414385280482103"><ele>82.0</ele><time>2026-04-19T18:25:31.001Z</time></trkpt><trkpt lat="43.48400090394404" lon="13.414701729954528"><ele>81.0</ele><time>2026-04-19T18:25:32.001Z</time></trkpt><trkpt lat="43.48391687645241" lon="13.415019378087894"><ele>81.0</ele><time>2026-04-19T18:25:33.001Z</time></trkpt><trkpt lat="43.483836697565174" lon="13.41533246424561"><ele>81.0</ele><time>2026-04-19T18:25:34.001Z</time></trkpt><trkpt lat="43.48375687970768" lon="13.4156302450673"><ele>81.0</ele><time>2026-04-19T18:25:35.001Z</time></trkpt><trkpt lat="43.483673036675654" lon="13.415913024212454"><ele>81.0</ele><time>2026-04-19T18:25:36.001Z</time></trkpt><trkpt lat="43.483580566063594" lon="13.41618457487845"><ele>81.0</ele><time>2026-04-19T18:25:37.001Z</time></trkpt><trkpt lat="43.48348187426617" lon="13.416450355734774"><ele>81.0</ele><time>2026-04-19T18:25:38.001Z</time></trkpt><trkpt lat="43.48338120617746" lon="13.416717148447153"><ele>81.0</ele><time>2026-04-19T18:25:39.001Z</time></trkpt><trkpt lat="43.48328344107623" lon="13.416984329090553"><ele>81.0</ele><time>2026-04-19T18:25:40.001Z</time></trkpt><trkpt lat="43.483184415095174" lon="13.417250140327189"><ele>81.33333333333333</ele><time>2026-04-19T18:25:41.001Z</time></trkpt><trkpt lat="43.48308228854486" lon="13.417519270445279"><ele>81.66666666666666</ele><time>2026-04-19T18:25:42.001Z</time></trkpt><trkpt lat="43.482979914446915" lon="13.417786431549969"><ele>82.0</ele><time>2026-04-19T18:25:43.001Z</time></trkpt><trkpt lat="43.48288587039179" lon="13.418029234544978"><ele>82.0</ele><time>2026-04-19T18:25:44.001Z</time></trkpt><trkpt lat="43.48279664027854" lon="13.418263150558541"><ele>82.0</ele><time>2026-04-19T18:25:45.001Z</time></trkpt><trkpt lat="43.48271483591296" lon="13.418479130593639"><ele>82.0</ele><time>2026-04-19T18:25:46.001Z</time></trkpt><trkpt lat="43.482642301991596" lon="13.418689480064362"><ele>82.66666666666666</ele><time>2026-04-19T18:25:47.001Z</time></trkpt><trkpt lat="43.48258299904094" lon="13.418909253008529"><ele>83.33333333333333</ele><time>2026-04-19T18:25:48.001Z</time></trkpt><trkpt lat="43.48254240830149" lon="13.419156553262358"><ele>84.0</ele><time>2026-04-19T18:25:49.001Z</time></trkpt><trkpt lat="43.48251523392286" lon="13.419415760270828"><ele>83.66666666666667</ele><time>2026-04-19T18:25:50.001Z</time></trkpt><trkpt lat="43.48249740501583" lon="13.41968731528293"><ele>83.33333333333334</ele><time>2026-04-19T18:25:51.001Z</time></trkpt><trkpt lat="43.482480233060116" lon="13.419968532422683"><ele>83.0</ele><time>2026-04-19T18:25:52.001Z</time></trkpt><trkpt lat="43.4824596704352" lon="13.420254721915116"><ele>83.0</ele><time>2026-04-19T18:25:53.001Z</time></trkpt><trkpt lat="43.482438489401076" lon="13.420542209076714"><ele>83.0</ele><time>2026-04-19T18:25:54.001Z</time></trkpt><trkpt lat="43.48241815632531" lon="13.420826140012954"><ele>83.0</ele><time>2026-04-19T18:25:55.001Z</time></trkpt><trkpt lat="43.48239700415768" lon="13.421105291829557"><ele>83.0</ele><time>2026-04-19T18:25:56.001Z</time></trkpt><trkpt lat="43.48237659963318" lon="13.421379314579225"><ele>83.0</ele><time>2026-04-19T18:25:57.001Z</time></trkpt><trkpt lat="43.482361818294656" lon="13.421637120663688"><ele>83.0</ele><time>2026-04-19T18:25:58.001Z</time></trkpt><trkpt lat="43.48236019627761" lon="13.421884196898699"><ele>83.0</ele><time>2026-04-19T18:25:59.001Z</time></trkpt><trkpt lat="43.48237110877637" lon="13.422134317135642"><ele>83.0</ele><time>2026-04-19T18:26:00.001Z</time></trkpt><trkpt lat="43.48238998657599" lon="13.422394160668645"><ele>83.0</ele><time>2026-04-19T18:26:01.001Z</time></trkpt><trkpt lat="43.482407901981134" lon="13.422662989008007"><ele>83.0</ele><time>2026-04-19T18:26:02.001Z</time></trkpt><trkpt lat="43.482425548834" lon="13.422936289189566"><ele>83.0</ele><time>2026-04-19T18:26:03.001Z</time></trkpt><trkpt lat="43.4824418926856" lon="13.42322104682222"><ele>83.0</ele><time>2026-04-19T18:26:04.001Z</time></trkpt><trkpt lat="43.48246369596579" lon="13.42350314450729"><ele>82.33333333333334</ele><time>2026-04-19T18:26:05.001Z</time></trkpt><trkpt lat="43.482481332736214" lon="13.423790356849324"><ele>81.66666666666667</ele><time>2026-04-19T18:26:06.001Z</time></trkpt><trkpt lat="43.482502002857345" lon="13.424070716153798"><ele>81.0</ele><time>2026-04-19T18:26:07.001Z</time></trkpt><trkpt lat="43.48251741808554" lon="13.424334737482772"><ele>81.0</ele><time>2026-04-19T18:26:08.001Z</time></trkpt><trkpt lat="43.48252300745029" lon="13.424594115722805"><ele>81.0</ele><time>2026-04-19T18:26:09.001Z</time></trkpt><trkpt lat="43.482500997832375" lon="13.424847123700625"><ele>81.0</ele><time>2026-04-19T18:26:10.001Z</time></trkpt><trkpt lat="43.48245053634432" lon="13.425111451084852"><ele>82.0</ele><time>2026-04-19T18:26:11.001Z</time></trkpt><trkpt lat="43.48239009623395" lon="13.425378254456094"><ele>83.0</ele><time>2026-04-19T18:26:12.001Z</time></trkpt><trkpt lat="43.48233215153212" lon="13.425658460958175"><ele>84.0</ele><time>2026-04-19T18:26:13.001Z</time></trkpt><trkpt lat="43.48227631065001" lon="13.425942264862506"><ele>84.66666666666667</ele><time>2026-04-19T18:26:14.001Z</time></trkpt><trkpt lat="43.482219425417966" lon="13.426224366085206"><ele>85.33333333333334</ele><time>2026-04-19T18:26:15.001Z</time></trkpt><trkpt lat="43.48216066857494" lon="13.42650536300368"><ele>86.0</ele><time>2026-04-19T18:26:16.001Z</time></trkpt><trkpt lat="43.48210425253929" lon="13.426788950436611"><ele>85.33333333333334</ele><time>2026-04-19T18:26:17.001Z</time></trkpt><trkpt lat="43.482056480547726" lon="13.427072072480417"><ele>84.66666666666667</ele><time>2026-04-19T18:26:18.001Z</time></trkpt><trkpt lat="43.482021426115466" lon="13.427365650636297"><ele>84.0</ele><time>2026-04-19T18:26:19.001Z</time></trkpt><trkpt lat="43.48199545448704" lon="13.427665803827761"><ele>84.0</ele><time>2026-04-19T18:26:20.001Z</time></trkpt><trkpt lat="43.48197120379121" lon="13.427972659837504"><ele>84.0</ele><time>2026-04-19T18:26:21.001Z</time></trkpt><trkpt lat="43.48194321037041" lon="13.428286307725472"><ele>84.5</ele><time>2026-04-19T18:26:22.001Z</time></trkpt><trkpt lat="43.48191902000428" lon="13.428597565987209"><ele>85.0</ele><time>2026-04-19T18:26:23.001Z</time></trkpt><trkpt lat="43.481903235160566" lon="13.428914092500168"><ele>85.5</ele><time>2026-04-19T18:26:24.001Z</time></trkpt><trkpt lat="43.481894345536986" lon="13.429238674515208"><ele>86.0</ele><time>2026-04-19T18:26:25.001Z</time></trkpt><trkpt lat="43.481881403089474" lon="13.429558214804803"><ele>85.66666666666667</ele><time>2026-04-19T18:26:26.001Z</time></trkpt><trkpt lat="43.48187293520654" lon="13.429864125618852"><ele>85.33333333333333</ele><time>2026-04-19T18:26:27.001Z</time></trkpt><trkpt lat="43.48185595559927" lon="13.430142446091269"><ele>85.0</ele><time>2026-04-19T18:26:28.001Z</time></trkpt><trkpt lat="43.481823616999996" lon="13.430404514101006"><ele>86.0</ele><time>2026-04-19T18:26:29.001Z</time></trkpt><trkpt lat="43.481782114347425" lon="13.430661358172136"><ele>87.0</ele><time>2026-04-19T18:26:30.001Z</time></trkpt><trkpt lat="43.48173433828928" lon="13.430902123793528"><ele>88.0</ele><time>2026-04-19T18:26:31.001Z</time></trkpt><trkpt lat="43.48167103559999" lon="13.431123737388981"><ele>88.66666666666666</ele><time>2026-04-19T18:26:32.001Z</time></trkpt><trkpt lat="43.481592508991575" lon="13.431341743362768"><ele>89.33333333333333</ele><time>2026-04-19T18:26:33.001Z</time></trkpt><trkpt lat="43.48150340110486" lon="13.431555746625651"><ele>90.0</ele><time>2026-04-19T18:26:34.001Z</time></trkpt><trkpt lat="43.48140837499091" lon="13.431763278713735"><ele>90.0</ele><time>2026-04-19T18:26:35.001Z</time></trkpt><trkpt lat="43.4813120630812" lon="13.431962748446823"><ele>90.0</ele><time>2026-04-19T18:26:36.001Z</time></trkpt><trkpt lat="43.481196113481616" lon="13.432149096536559"><ele>90.0</ele><time>2026-04-19T18:26:37.001Z</time></trkpt><trkpt lat="43.481056874997265" lon="13.4323178256375"><ele>89.33333333333333</ele><time>2026-04-19T18:26:38.001Z</time></trkpt><trkpt lat="43.48090841965865" lon="13.432483796214072"><ele>88.66666666666666</ele><time>2026-04-19T18:26:39.001Z</time></trkpt><trkpt lat="43.48075828408266" lon="13.432659567673584"><ele>88.0</ele><time>2026-04-19T18:26:40.001Z</time></trkpt><trkpt lat="43.480607154985464" lon="13.432835226432221"><ele>88.33333333333333</ele><time>2026-04-19T18:26:41.001Z</time></trkpt><trkpt lat="43.480459778983885" lon="13.433015451793189"><ele>88.66666666666667</ele><time>2026-04-19T18:26:42.001Z</time></trkpt><trkpt lat="43.48031830697795" lon="13.433209297296322"><ele>89.0</ele><time>2026-04-19T18:26:43.001Z</time></trkpt><trkpt lat="43.480189147609956" lon="13.433434356798099"><ele>89.0</ele><time>2026-04-19T18:26:44.001Z</time></trkpt><trkpt lat="43.48006852728925" lon="13.433679336681363"><ele>89.0</ele><time>2026-04-19T18:26:45.001Z</time></trkpt><trkpt lat="43.47995003651596" lon="13.433938817943254"><ele>89.0</ele><time>2026-04-19T18:26:46.001Z</time></trkpt><trkpt lat="43.47983450766631" lon="13.434181469632145"><ele>88.66666666666667</ele><time>2026-04-19T18:26:47.001Z</time></trkpt><trkpt lat="43.47972063149712" lon="13.434406842321236"><ele>88.33333333333333</ele><time>2026-04-19T18:26:48.001Z</time></trkpt><trkpt lat="43.47960552081262" lon="13.434625774277263"><ele>88.0</ele><time>2026-04-19T18:26:49.001Z</time></trkpt><trkpt lat="43.479501928495786" lon="13.43485228015461"><ele>88.0</ele><time>2026-04-19T18:26:50.001Z</time></trkpt><trkpt lat="43.47941592446239" lon="13.43508929476726"><ele>88.0</ele><time>2026-04-19T18:26:51.001Z</time></trkpt><trkpt lat="43.479356665266884" lon="13.435344989816862"><ele>88.0</ele><time>2026-04-19T18:26:52.001Z</time></trkpt><trkpt lat="43.47931547067082" lon="13.435606120051862"><ele>88.0</ele><time>2026-04-19T18:26:53.001Z</time></trkpt><trkpt lat="43.47927210440513" lon="13.435867858653614"><ele>88.0</ele><time>2026-04-19T18:26:54.001Z</time></trkpt><trkpt lat="43.4792062485484" lon="13.436127527525672"><ele>88.0</ele><time>2026-04-19T18:26:55.001Z</time></trkpt><trkpt lat="43.47911368726491" lon="13.436377165201593"><ele>87.66666666666666</ele><time>2026-04-19T18:26:56.001Z</time></trkpt><trkpt lat="43.47900316463684" lon="13.436618128070979"><ele>87.33333333333333</ele><time>2026-04-19T18:26:57.001Z</time></trkpt><trkpt lat="43.478890920802236" lon="13.436864695935824"><ele>87.0</ele><time>2026-04-19T18:26:58.001Z</time></trkpt><trkpt lat="43.47878394765222" lon="13.437115300084747"><ele>86.0</ele><time>2026-04-19T18:26:59.001Z</time></trkpt><trkpt lat="43.47867890873836" lon="13.437356496021895"><ele>85.0</ele><time>2026-04-19T18:27:00.001Z</time></trkpt><trkpt lat="43.478571005576256" lon="13.437609740213519"><ele>84.0</ele><time>2026-04-19T18:27:01.001Z</time></trkpt><trkpt lat="43.47846842987475" lon="13.437860036421796"><ele>83.33333333333333</ele><time>2026-04-19T18:27:02.001Z</time></trkpt><trkpt lat="43.47836014513836" lon="13.438112858495666"><ele>82.66666666666666</ele><time>2026-04-19T18:27:03.001Z</time></trkpt><trkpt lat="43.47825664892191" lon="13.438352302760126"><ele>82.0</ele><time>2026-04-19T18:27:04.001Z</time></trkpt><trkpt lat="43.47815887242241" lon="13.438581085186817"><ele>82.0</ele><time>2026-04-19T18:27:05.001Z</time></trkpt><trkpt lat="43.47806400419288" lon="13.438799793933015"><ele>82.0</ele><time>2026-04-19T18:27:06.001Z</time></trkpt><trkpt lat="43.4779649090584" lon="13.439028726313879"><ele>82.0</ele><time>2026-04-19T18:27:07Z</time></trkpt><trkpt lat="43.47786559532293" lon="13.439251447928312"><ele>81.0</ele><time>2026-04-19T18:27:08.001Z</time></trkpt><trkpt lat="43.477759820850956" lon="13.439467239284863"><ele>80.0</ele><time>2026-04-19T18:27:09Z</time></trkpt><trkpt lat="43.47765211027767" lon="13.439679102623648"><ele>79.0</ele><time>2026-04-19T18:27:10Z</time></trkpt><trkpt lat="43.477552672190996" lon="13.439879372805851"><ele>79.0</ele><time>2026-04-19T18:27:11Z</time></trkpt><trkpt lat="43.47746190536289" lon="13.440066653102201"><ele>79.0</ele><time>2026-04-19T18:27:12Z</time></trkpt><trkpt lat="43.477369749451185" lon="13.440243549265446"><ele>79.0</ele><time>2026-04-19T18:27:13Z</time></trkpt></trkseg></trk></gpx>